﻿<?xml version="1.0" encoding="utf-8"?><gpx creator="Garmin Desktop App" version="1.1" xsi:schemaLocation="http://www.topografix.com/GPX/1/1 http://www.topografix.com/GPX/1/1/gpx.xsd http://www.garmin.com/xmlschemas/WaypointExtension/v1 http://www8.garmin.com/xmlschemas/WaypointExtensionv1.xsd http://www.garmin.com/xmlschemas/TrackPointExtension/v1 http://www.garmin.com/xmlschemas/TrackPointExtensionv1.xsd http://www.garmin.com/xmlschemas/GpxExtensions/v3 http://www8.garmin.com/xmlschemas/GpxExtensionsv3.xsd http://www.garmin.com/xmlschemas/ActivityExtension/v1 http://www8.garmin.com/xmlschemas/ActivityExtensionv1.xsd http://www.garmin.com/xmlschemas/AdventuresExtensions/v1 http://www8.garmin.com/xmlschemas/AdventuresExtensionv1.xsd http://www.garmin.com/xmlschemas/PressureExtension/v1 http://www.garmin.com/xmlschemas/PressureExtensionv1.xsd http://www.garmin.com/xmlschemas/TripExtensions/v1 http://www.garmin.com/xmlschemas/TripExtensionsv1.xsd http://www.garmin.com/xmlschemas/TripMetaDataExtensions/v1 http://www.garmin.com/xmlschemas/TripMetaDataExtensionsv1.xsd http://www.garmin.com/xmlschemas/ViaPointTransportationModeExtensions/v1 http://www.garmin.com/xmlschemas/ViaPointTransportationModeExtensionsv1.xsd http://www.garmin.com/xmlschemas/CreationTimeExtension/v1 http://www.garmin.com/xmlschemas/CreationTimeExtensionsv1.xsd http://www.garmin.com/xmlschemas/AccelerationExtension/v1 http://www.garmin.com/xmlschemas/AccelerationExtensionv1.xsd http://www.garmin.com/xmlschemas/PowerExtension/v1 http://www.garmin.com/xmlschemas/PowerExtensionv1.xsd http://www.garmin.com/xmlschemas/VideoExtension/v1 http://www.garmin.com/xmlschemas/VideoExtensionv1.xsd" xmlns="http://www.topografix.com/GPX/1/1" xmlns:xsi="http://www.w3.org/2001/XMLSchema-instance" xmlns:wptx1="http://www.garmin.com/xmlschemas/WaypointExtension/v1" xmlns:gpxtrx="http://www.garmin.com/xmlschemas/GpxExtensions/v3" xmlns:gpxtpx="http://www.garmin.com/xmlschemas/TrackPointExtension/v1" xmlns:gpxx="http://www.garmin.com/xmlschemas/GpxExtensions/v3" xmlns:trp="http://www.garmin.com/xmlschemas/TripExtensions/v1" xmlns:adv="http://www.garmin.com/xmlschemas/AdventuresExtensions/v1" xmlns:prs="http://www.garmin.com/xmlschemas/PressureExtension/v1" xmlns:tmd="http://www.garmin.com/xmlschemas/TripMetaDataExtensions/v1" xmlns:vptm="http://www.garmin.com/xmlschemas/ViaPointTransportationModeExtensions/v1" xmlns:ctx="http://www.garmin.com/xmlschemas/CreationTimeExtension/v1" xmlns:gpxacc="http://www.garmin.com/xmlschemas/AccelerationExtension/v1" xmlns:gpxpx="http://www.garmin.com/xmlschemas/PowerExtension/v1" xmlns:vidx1="http://www.garmin.com/xmlschemas/VideoExtension/v1">

  <metadata>
    <link href="http://www.garmin.com">
      <text>Garmin International</text>
    </link>
    <time>2018-09-19T15:28:09Z</time>
    <bounds maxlat="50.068473983556032" maxlon="10.276335999369621" minlat="47.442291034385562" minlon="8.239089036360383" />
  </metadata>

  <trk>
    <name>Track vom: 2018-09-19 08:53</name>
    <extensions>
      <gpxx:TrackExtension>
        <gpxx:DisplayColor>DarkGray</gpxx:DisplayColor>
      </gpxx:TrackExtension>
    </extensions>
    <trkseg>
      <trkpt lat="47.442293968051672" lon="10.247527984902263">
        <ele>832.15999999999997</ele>
        <time>2018-09-19T06:53:20Z</time>
      </trkpt>
      <trkpt lat="47.442295979708433" lon="10.247527984902263">
        <ele>832.15999999999997</ele>
        <time>2018-09-19T06:53:52Z</time>
      </trkpt>
      <trkpt lat="47.442291034385562" lon="10.247497977688909">
        <ele>831.67999999999995</ele>
        <time>2018-09-19T06:53:54Z</time>
      </trkpt>
      <trkpt lat="47.442324981093407" lon="10.247466964647174">
        <ele>830.72000000000003</ele>
        <time>2018-09-19T06:53:55Z</time>
      </trkpt>
      <trkpt lat="47.442354988306761" lon="10.247439974918962">
        <ele>830.24000000000001</ele>
        <time>2018-09-19T06:53:56Z</time>
      </trkpt>
      <trkpt lat="47.442386001348495" lon="10.247411979362369">
        <ele>829.75999999999999</ele>
        <time>2018-09-19T06:53:57Z</time>
      </trkpt>
      <trkpt lat="47.44241701439023" lon="10.247383983805776">
        <ele>829.75999999999999</ele>
        <time>2018-09-19T06:53:58Z</time>
      </trkpt>
      <trkpt lat="47.442450961098075" lon="10.247352970764041">
        <ele>829.26999999999998</ele>
        <time>2018-09-19T06:53:59Z</time>
      </trkpt>
      <trkpt lat="47.442489014938474" lon="10.247318018227816">
        <ele>829.26999999999998</ele>
        <time>2018-09-19T06:54:00Z</time>
      </trkpt>
      <trkpt lat="47.442530002444983" lon="10.247278036549687">
        <ele>829.26999999999998</ele>
        <time>2018-09-19T06:54:01Z</time>
      </trkpt>
      <trkpt lat="47.442667968571186" lon="10.247045019641519">
        <ele>828.78999999999996</ele>
        <time>2018-09-19T06:54:05Z</time>
      </trkpt>
      <trkpt lat="47.44269797578454" lon="10.246995985507965">
        <ele>828.30999999999995</ele>
        <time>2018-09-19T06:54:06Z</time>
      </trkpt>
      <trkpt lat="47.442870978266001" lon="10.246703960001469">
        <ele>827.83000000000004</ele>
        <time>2018-09-19T06:54:12Z</time>
      </trkpt>
      <trkpt lat="47.442919006571174" lon="10.246668001636863">
        <ele>827.83000000000004</ele>
        <time>2018-09-19T06:54:13Z</time>
      </trkpt>
      <trkpt lat="47.442967034876347" lon="10.246633971109986">
        <ele>827.35000000000002</ele>
        <time>2018-09-19T06:54:14Z</time>
      </trkpt>
      <trkpt lat="47.443054961040616" lon="10.246570017188787">
        <ele>826.87</ele>
        <time>2018-09-19T06:54:16Z</time>
      </trkpt>
      <trkpt lat="47.443099971860647" lon="10.246536992490292">
        <ele>826.87</ele>
        <time>2018-09-19T06:54:17Z</time>
      </trkpt>
      <trkpt lat="47.443153029307723" lon="10.246527018025517">
        <ele>826.87</ele>
        <time>2018-09-19T06:54:18Z</time>
      </trkpt>
      <trkpt lat="47.44321103207767" lon="10.246520983055234">
        <ele>826.87</ele>
        <time>2018-09-19T06:54:19Z</time>
      </trkpt>
      <trkpt lat="47.443269034847617" lon="10.246515031903982">
        <ele>827.35000000000002</ele>
        <time>2018-09-19T06:54:20Z</time>
      </trkpt>
      <trkpt lat="47.443327959626913" lon="10.246508996933699">
        <ele>827.35000000000002</ele>
        <time>2018-09-19T06:54:21Z</time>
      </trkpt>
      <trkpt lat="47.443674970418215" lon="10.246443031355739">
        <ele>827.35000000000002</ele>
        <time>2018-09-19T06:54:28Z</time>
      </trkpt>
      <trkpt lat="47.443700032308698" lon="10.246389973908663">
        <ele>827.83000000000004</ele>
        <time>2018-09-19T06:54:29Z</time>
      </trkpt>
      <trkpt lat="47.443730961531401" lon="10.246324008330703">
        <ele>827.83000000000004</ele>
        <time>2018-09-19T06:54:30Z</time>
      </trkpt>
      <trkpt lat="47.443917961791158" lon="10.245925029739738">
        <ele>828.78999999999996</ele>
        <time>2018-09-19T06:54:35Z</time>
      </trkpt>
      <trkpt lat="47.444000020623207" lon="10.245581036433578">
        <ele>830.24000000000001</ele>
        <time>2018-09-19T06:54:40Z</time>
      </trkpt>
      <trkpt lat="47.44400798343122" lon="10.245524039492011">
        <ele>830.24000000000001</ele>
        <time>2018-09-19T06:54:41Z</time>
      </trkpt>
      <trkpt lat="47.443960038945079" lon="10.245478022843599">
        <ele>830.24000000000001</ele>
        <time>2018-09-19T06:54:42Z</time>
      </trkpt>
      <trkpt lat="47.443908993154764" lon="10.245431000366807">
        <ele>830.24000000000001</ele>
        <time>2018-09-19T06:54:43Z</time>
      </trkpt>
      <trkpt lat="47.443850990384817" lon="10.245377020910382">
        <ele>830.72000000000003</ele>
        <time>2018-09-19T06:54:44Z</time>
      </trkpt>
      <trkpt lat="47.443791981786489" lon="10.245321029797196">
        <ele>830.72000000000003</ele>
        <time>2018-09-19T06:54:45Z</time>
      </trkpt>
      <trkpt lat="47.443672036752105" lon="10.245208963751793">
        <ele>831.20000000000005</ele>
        <time>2018-09-19T06:54:47Z</time>
      </trkpt>
      <trkpt lat="47.443600036203861" lon="10.245053982362151">
        <ele>831.67999999999995</ele>
        <time>2018-09-19T06:54:49Z</time>
      </trkpt>
      <trkpt lat="47.443572962656617" lon="10.244992040097713">
        <ele>831.67999999999995</ele>
        <time>2018-09-19T06:54:50Z</time>
      </trkpt>
      <trkpt lat="47.443552007898688" lon="10.244944011792541">
        <ele>831.67999999999995</ele>
        <time>2018-09-19T06:54:51Z</time>
      </trkpt>
      <trkpt lat="47.443530969321728" lon="10.244835969060659">
        <ele>832.15999999999997</ele>
        <time>2018-09-19T06:54:52Z</time>
      </trkpt>
      <trkpt lat="47.443566005676985" lon="10.244790036231279">
        <ele>832.15999999999997</ele>
        <time>2018-09-19T06:54:53Z</time>
      </trkpt>
      <trkpt lat="47.443614033982158" lon="10.244724992662668">
        <ele>832.15999999999997</ele>
        <time>2018-09-19T06:54:54Z</time>
      </trkpt>
      <trkpt lat="47.443667007610202" lon="10.244655003771186">
        <ele>832.15999999999997</ele>
        <time>2018-09-19T06:54:55Z</time>
      </trkpt>
      <trkpt lat="47.444354994222522" lon="10.243563009425998">
        <ele>834.08000000000004</ele>
        <time>2018-09-19T06:55:05Z</time>
      </trkpt>
      <trkpt lat="47.44493099860847" lon="10.24227999150753">
        <ele>836.96000000000004</ele>
        <time>2018-09-19T06:55:14Z</time>
      </trkpt>
      <trkpt lat="47.445628959685564" lon="10.241203000769019">
        <ele>839.85000000000002</ele>
        <time>2018-09-19T06:55:23Z</time>
      </trkpt>
      <trkpt lat="47.446130029857159" lon="10.240543009713292">
        <ele>843.21000000000004</ele>
        <time>2018-09-19T06:55:33Z</time>
      </trkpt>
      <trkpt lat="47.446247041225433" lon="10.240419963374734">
        <ele>844.17999999999995</ele>
        <time>2018-09-19T06:55:35Z</time>
      </trkpt>
      <trkpt lat="47.446490032598376" lon="10.240168003365397">
        <ele>845.13999999999999</ele>
        <time>2018-09-19T06:55:39Z</time>
      </trkpt>
      <trkpt lat="47.446603020653129" lon="10.240047974511981">
        <ele>845.13999999999999</ele>
        <time>2018-09-19T06:55:41Z</time>
      </trkpt>
      <trkpt lat="47.4469930306077" lon="10.239634998142719">
        <ele>846.58000000000004</ele>
        <time>2018-09-19T06:55:49Z</time>
      </trkpt>
      <trkpt lat="47.447049021720886" lon="10.239576995372772">
        <ele>847.05999999999995</ele>
        <time>2018-09-19T06:55:50Z</time>
      </trkpt>
      <trkpt lat="47.447110963985324" lon="10.239510023966432">
        <ele>847.05999999999995</ele>
        <time>2018-09-19T06:55:51Z</time>
      </trkpt>
      <trkpt lat="47.447560988366604" lon="10.239154966548085">
        <ele>849.94000000000005</ele>
        <time>2018-09-19T06:55:58Z</time>
      </trkpt>
      <trkpt lat="47.447630977258086" lon="10.239129988476634">
        <ele>850.41999999999996</ele>
        <time>2018-09-19T06:55:59Z</time>
      </trkpt>
      <trkpt lat="47.447699960321188" lon="10.239104004576802">
        <ele>850.89999999999998</ele>
        <time>2018-09-19T06:56:00Z</time>
      </trkpt>
      <trkpt lat="47.44776701554656" lon="10.239079026505351">
        <ele>851.38</ele>
        <time>2018-09-19T06:56:01Z</time>
      </trkpt>
      <trkpt lat="47.447834992781281" lon="10.239067962393165">
        <ele>851.87</ele>
        <time>2018-09-19T06:56:02Z</time>
      </trkpt>
      <trkpt lat="47.448614006862044" lon="10.23933601565659">
        <ele>854.26999999999998</ele>
        <time>2018-09-19T06:56:12Z</time>
      </trkpt>
      <trkpt lat="47.449298975989223" lon="10.239589987322688">
        <ele>852.35000000000002</ele>
        <time>2018-09-19T06:56:22Z</time>
      </trkpt>
      <trkpt lat="47.449358990415931" lon="10.239618988707662">
        <ele>852.35000000000002</ele>
        <time>2018-09-19T06:56:23Z</time>
      </trkpt>
      <trkpt lat="47.449388997629285" lon="10.23968000896275">
        <ele>851.87</ele>
        <time>2018-09-19T06:56:24Z</time>
      </trkpt>
      <trkpt lat="47.449425961822271" lon="10.239757960662246">
        <ele>851.87</ele>
        <time>2018-09-19T06:56:25Z</time>
      </trkpt>
      <trkpt lat="47.449566023424268" lon="10.240047974511981">
        <ele>851.38</ele>
        <time>2018-09-19T06:56:28Z</time>
      </trkpt>
      <trkpt lat="47.449629977345467" lon="10.240180995315313">
        <ele>850.89999999999998</ele>
        <time>2018-09-19T06:56:29Z</time>
      </trkpt>
      <trkpt lat="47.45064795948565" lon="10.24141900241375">
        <ele>846.58000000000004</ele>
        <time>2018-09-19T06:56:40Z</time>
      </trkpt>
      <trkpt lat="47.451335024088621" lon="10.242416029796004">
        <ele>841.28999999999996</ele>
        <time>2018-09-19T06:56:49Z</time>
      </trkpt>
      <trkpt lat="47.451384980231524" lon="10.242512002587318">
        <ele>841.28999999999996</ele>
        <time>2018-09-19T06:56:50Z</time>
      </trkpt>
      <trkpt lat="47.451876997947693" lon="10.243684966117144">
        <ele>836.96000000000004</ele>
        <time>2018-09-19T06:56:59Z</time>
      </trkpt>
      <trkpt lat="47.45195796713233" lon="10.243810024112463">
        <ele>836.96000000000004</ele>
        <time>2018-09-19T06:57:00Z</time>
      </trkpt>
      <trkpt lat="47.452048994600773" lon="10.243921000510454">
        <ele>836.48000000000002</ele>
        <time>2018-09-19T06:57:01Z</time>
      </trkpt>
      <trkpt lat="47.452261978760362" lon="10.244085034355521">
        <ele>836</ele>
        <time>2018-09-19T06:57:03Z</time>
      </trkpt>
      <trkpt lat="47.452376978471875" lon="10.244139013811946">
        <ele>835.51999999999998</ele>
        <time>2018-09-19T06:57:04Z</time>
      </trkpt>
      <trkpt lat="47.452490972355008" lon="10.244180001318455">
        <ele>835.03999999999996</ele>
        <time>2018-09-19T06:57:05Z</time>
      </trkpt>
      <trkpt lat="47.452691970393062" lon="10.244253007695079">
        <ele>833.60000000000002</ele>
        <time>2018-09-19T06:57:07Z</time>
      </trkpt>
      <trkpt lat="47.452776962891221" lon="10.244283014908433">
        <ele>833.12</ele>
        <time>2018-09-19T06:57:08Z</time>
      </trkpt>
      <trkpt lat="47.453002016991377" lon="10.244344035163522">
        <ele>830.24000000000001</ele>
        <time>2018-09-19T06:57:12Z</time>
      </trkpt>
      <trkpt lat="47.453047027811408" lon="10.244356021285057">
        <ele>829.75999999999999</ele>
        <time>2018-09-19T06:57:13Z</time>
      </trkpt>
      <trkpt lat="47.453104024752975" lon="10.244372030720115">
        <ele>828.78999999999996</ele>
        <time>2018-09-19T06:57:14Z</time>
      </trkpt>
      <trkpt lat="47.453849008306861" lon="10.244688028469682">
        <ele>823.99000000000001</ele>
        <time>2018-09-19T06:57:22Z</time>
      </trkpt>
      <trkpt lat="47.45395596139133" lon="10.244778972119093">
        <ele>823.99000000000001</ele>
        <time>2018-09-19T06:57:23Z</time>
      </trkpt>
      <trkpt lat="47.454199958592653" lon="10.244987010955811">
        <ele>823.02999999999997</ele>
        <time>2018-09-19T06:57:25Z</time>
      </trkpt>
      <trkpt lat="47.454357035458088" lon="10.245281970128417">
        <ele>822.54999999999995</ele>
        <time>2018-09-19T06:57:27Z</time>
      </trkpt>
      <trkpt lat="47.454544035717845" lon="10.24563099257648">
        <ele>821.58000000000004</ele>
        <time>2018-09-19T06:57:29Z</time>
      </trkpt>
      <trkpt lat="47.454820973798633" lon="10.246601030230522">
        <ele>819.65999999999997</ele>
        <time>2018-09-19T06:57:34Z</time>
      </trkpt>
      <trkpt lat="47.454853998497128" lon="10.246816026046872">
        <ele>818.22000000000003</ele>
        <time>2018-09-19T06:57:35Z</time>
      </trkpt>
      <trkpt lat="47.455335035920143" lon="10.248834975063801">
        <ele>810.04999999999995</ele>
        <time>2018-09-19T06:57:44Z</time>
      </trkpt>
      <trkpt lat="47.456073984503746" lon="10.250792987644672">
        <ele>802.84000000000003</ele>
        <time>2018-09-19T06:57:53Z</time>
      </trkpt>
      <trkpt lat="47.456544041633606" lon="10.25289298966527">
        <ele>797.54999999999995</ele>
        <time>2018-09-19T06:58:02Z</time>
      </trkpt>
      <trkpt lat="47.457266980782151" lon="10.254339035600424">
        <ele>794.66999999999996</ele>
        <time>2018-09-19T06:58:10Z</time>
      </trkpt>
      <trkpt lat="47.457801997661591" lon="10.255948025733232">
        <ele>792.74000000000001</ele>
        <time>2018-09-19T06:58:18Z</time>
      </trkpt>
      <trkpt lat="47.458227965980768" lon="10.257547041401267">
        <ele>790.34000000000003</ele>
        <time>2018-09-19T06:58:27Z</time>
      </trkpt>
      <trkpt lat="47.458558967337012" lon="10.258653033524752">
        <ele>789.86000000000001</ele>
        <time>2018-09-19T06:58:35Z</time>
      </trkpt>
      <trkpt lat="47.458804976195097" lon="10.260123973712325">
        <ele>788.89999999999998</ele>
        <time>2018-09-19T06:58:45Z</time>
      </trkpt>
      <trkpt lat="47.45921703055501" lon="10.261913007125258">
        <ele>787.94000000000005</ele>
        <time>2018-09-19T06:58:57Z</time>
      </trkpt>
      <trkpt lat="47.459615003317595" lon="10.263413032516837">
        <ele>785.04999999999995</ele>
        <time>2018-09-19T06:59:07Z</time>
      </trkpt>
      <trkpt lat="47.4596509616822" lon="10.26357295922935">
        <ele>784.57000000000005</ele>
        <time>2018-09-19T06:59:08Z</time>
      </trkpt>
      <trkpt lat="47.460165023803711" lon="10.265350006520748">
        <ele>778.80999999999995</ele>
        <time>2018-09-19T06:59:20Z</time>
      </trkpt>
      <trkpt lat="47.460193019360304" lon="10.265495013445616">
        <ele>778.80999999999995</ele>
        <time>2018-09-19T06:59:21Z</time>
      </trkpt>
      <trkpt lat="47.460220009088516" lon="10.265639014542103">
        <ele>778.80999999999995</ele>
        <time>2018-09-19T06:59:22Z</time>
      </trkpt>
      <trkpt lat="47.460329979658127" lon="10.266508972272277">
        <ele>776.88</ele>
        <time>2018-09-19T06:59:29Z</time>
      </trkpt>
      <trkpt lat="47.460337020456791" lon="10.266616009175777">
        <ele>776.39999999999998</ele>
        <time>2018-09-19T06:59:30Z</time>
      </trkpt>
      <trkpt lat="47.460330985486507" lon="10.266688009724021">
        <ele>776.39999999999998</ele>
        <time>2018-09-19T06:59:31Z</time>
      </trkpt>
      <trkpt lat="47.46031497605145" lon="10.266885990276933">
        <ele>774.48000000000002</ele>
        <time>2018-09-19T06:59:39Z</time>
      </trkpt>
      <trkpt lat="47.46031497605145" lon="10.266885990276933">
        <ele>774.48000000000002</ele>
        <time>2018-09-19T07:00:21Z</time>
      </trkpt>
      <trkpt lat="47.460302989929914" lon="10.267025968059897">
        <ele>774.96000000000004</ele>
        <time>2018-09-19T07:00:54Z</time>
      </trkpt>
      <trkpt lat="47.460298966616392" lon="10.26707299053669">
        <ele>774.96000000000004</ele>
        <time>2018-09-19T07:00:57Z</time>
      </trkpt>
      <trkpt lat="47.46031497605145" lon="10.26713602244854">
        <ele>774.48000000000002</ele>
        <time>2018-09-19T07:00:58Z</time>
      </trkpt>
      <trkpt lat="47.460354035720229" lon="10.267145996913314">
        <ele>774.48000000000002</ele>
        <time>2018-09-19T07:00:59Z</time>
      </trkpt>
      <trkpt lat="47.460409021005034" lon="10.26715999469161">
        <ele>774.48000000000002</ele>
        <time>2018-09-19T07:01:00Z</time>
      </trkpt>
      <trkpt lat="47.460480015724897" lon="10.267178015783429">
        <ele>774</ele>
        <time>2018-09-19T07:01:01Z</time>
      </trkpt>
      <trkpt lat="47.46117495931685" lon="10.267390999943018">
        <ele>772.08000000000004</ele>
        <time>2018-09-19T07:01:09Z</time>
      </trkpt>
      <trkpt lat="47.461862023919821" lon="10.267735999077559">
        <ele>771.60000000000002</ele>
        <time>2018-09-19T07:01:22Z</time>
      </trkpt>
      <trkpt lat="47.46196897700429" lon="10.267792996019125">
        <ele>771.11000000000001</ele>
        <time>2018-09-19T07:01:25Z</time>
      </trkpt>
      <trkpt lat="47.462532995268703" lon="10.268059959635139">
        <ele>770.63</ele>
        <time>2018-09-19T07:01:32Z</time>
      </trkpt>
      <trkpt lat="47.463707970455289" lon="10.268376041203737">
        <ele>771.11000000000001</ele>
        <time>2018-09-19T07:01:41Z</time>
      </trkpt>
      <trkpt lat="47.465435983613133" lon="10.268279984593391">
        <ele>765.83000000000004</ele>
        <time>2018-09-19T07:01:51Z</time>
      </trkpt>
      <trkpt lat="47.468087011948228" lon="10.268087033182383">
        <ele>757.17999999999995</ele>
        <time>2018-09-19T07:02:04Z</time>
      </trkpt>
      <trkpt lat="47.470315005630255" lon="10.268000029027462">
        <ele>758.62</ele>
        <time>2018-09-19T07:02:15Z</time>
      </trkpt>
      <trkpt lat="47.4717010371387" lon="10.267979996278882">
        <ele>760.53999999999996</ele>
        <time>2018-09-19T07:02:23Z</time>
      </trkpt>
      <trkpt lat="47.473673969507217" lon="10.26767497882247">
        <ele>754.76999999999998</ele>
        <time>2018-09-19T07:02:34Z</time>
      </trkpt>
      <trkpt lat="47.476242017000914" lon="10.266849026083946">
        <ele>752.37</ele>
        <time>2018-09-19T07:02:49Z</time>
      </trkpt>
      <trkpt lat="47.477154973894358" lon="10.266682980582118">
        <ele>755.73000000000002</ele>
        <time>2018-09-19T07:02:55Z</time>
      </trkpt>
      <trkpt lat="47.478286027908325" lon="10.266693960875273">
        <ele>760.05999999999995</ele>
        <time>2018-09-19T07:03:03Z</time>
      </trkpt>
      <trkpt lat="47.479885965585709" lon="10.266574015840888">
        <ele>768.71000000000004</ele>
        <time>2018-09-19T07:03:12Z</time>
      </trkpt>
      <trkpt lat="47.481082985177636" lon="10.266102030873299">
        <ele>775.91999999999996</ele>
        <time>2018-09-19T07:03:18Z</time>
      </trkpt>
      <trkpt lat="47.481960989534855" lon="10.266017038375139">
        <ele>779.28999999999996</ele>
        <time>2018-09-19T07:03:24Z</time>
      </trkpt>
      <trkpt lat="47.483224980533123" lon="10.266224993392825">
        <ele>784.09000000000003</ele>
        <time>2018-09-19T07:03:33Z</time>
      </trkpt>
      <trkpt lat="47.483811965212226" lon="10.266276961192489">
        <ele>785.52999999999997</ele>
        <time>2018-09-19T07:03:37Z</time>
      </trkpt>
      <trkpt lat="47.484544040635228" lon="10.26636497117579">
        <ele>786.01999999999998</ele>
        <time>2018-09-19T07:03:42Z</time>
      </trkpt>
      <trkpt lat="47.484975960105658" lon="10.266562029719353">
        <ele>786.98000000000002</ele>
        <time>2018-09-19T07:03:45Z</time>
      </trkpt>
      <trkpt lat="47.48611799441278" lon="10.267148008570075">
        <ele>785.52999999999997</ele>
        <time>2018-09-19T07:03:53Z</time>
      </trkpt>
      <trkpt lat="47.486275993287563" lon="10.267140967771411">
        <ele>785.52999999999997</ele>
        <time>2018-09-19T07:03:54Z</time>
      </trkpt>
      <trkpt lat="47.486438015475869" lon="10.267133004963398">
        <ele>784.57000000000005</ele>
        <time>2018-09-19T07:03:55Z</time>
      </trkpt>
      <trkpt lat="47.487397994846106" lon="10.266920020803809">
        <ele>779.76999999999998</ele>
        <time>2018-09-19T07:04:01Z</time>
      </trkpt>
      <trkpt lat="47.488801963627338" lon="10.267038960009813">
        <ele>774.96000000000004</ele>
        <time>2018-09-19T07:04:09Z</time>
      </trkpt>
      <trkpt lat="47.490428974851966" lon="10.266717011108994">
        <ele>766.30999999999995</ele>
        <time>2018-09-19T07:04:18Z</time>
      </trkpt>
      <trkpt lat="47.491014031693339" lon="10.266680968925357">
        <ele>763.41999999999996</ele>
        <time>2018-09-19T07:04:21Z</time>
      </trkpt>
      <trkpt lat="47.491214023903012" lon="10.266695972532034">
        <ele>762.46000000000004</ele>
        <time>2018-09-19T07:04:22Z</time>
      </trkpt>
      <trkpt lat="47.492803987115622" lon="10.266693960875273">
        <ele>753.33000000000004</ele>
        <time>2018-09-19T07:04:30Z</time>
      </trkpt>
      <trkpt lat="47.494150958955288" lon="10.266320966184139">
        <ele>747.55999999999995</ele>
        <time>2018-09-19T07:04:37Z</time>
      </trkpt>
      <trkpt lat="47.496193964034319" lon="10.265446985140443">
        <ele>744.67999999999995</ele>
        <time>2018-09-19T07:04:48Z</time>
      </trkpt>
      <trkpt lat="47.496378030627966" lon="10.265460982918739">
        <ele>744.67999999999995</ele>
        <time>2018-09-19T07:04:49Z</time>
      </trkpt>
      <trkpt lat="47.496565030887723" lon="10.265499036759138">
        <ele>744.67999999999995</ele>
        <time>2018-09-19T07:04:50Z</time>
      </trkpt>
      <trkpt lat="47.499400964006782" lon="10.266080992296338">
        <ele>744.67999999999995</ele>
        <time>2018-09-19T07:05:05Z</time>
      </trkpt>
      <trkpt lat="47.499951990321279" lon="10.26623597368598">
        <ele>744.67999999999995</ele>
        <time>2018-09-19T07:05:10Z</time>
      </trkpt>
      <trkpt lat="47.500012004747987" lon="10.266251983121037">
        <ele>744.67999999999995</ele>
        <time>2018-09-19T07:05:12Z</time>
      </trkpt>
      <trkpt lat="47.500091968104243" lon="10.266217030584812">
        <ele>744.67999999999995</ele>
        <time>2018-09-19T07:05:13Z</time>
      </trkpt>
      <trkpt lat="47.500163968652487" lon="10.266186017543077">
        <ele>744.67999999999995</ele>
        <time>2018-09-19T07:05:14Z</time>
      </trkpt>
      <trkpt lat="47.5010060146451" lon="10.265972027555108">
        <ele>740.83000000000004</ele>
        <time>2018-09-19T07:05:22Z</time>
      </trkpt>
      <trkpt lat="47.501111039891839" lon="10.265997005626559">
        <ele>740.35000000000002</ele>
        <time>2018-09-19T07:05:23Z</time>
      </trkpt>
      <trkpt lat="47.501214975491166" lon="10.266028018668294">
        <ele>739.87</ele>
        <time>2018-09-19T07:05:24Z</time>
      </trkpt>
      <trkpt lat="47.501428965479136" lon="10.266148969531059">
        <ele>739.87</ele>
        <time>2018-09-19T07:05:26Z</time>
      </trkpt>
      <trkpt lat="47.50154597684741" lon="10.266209989786148">
        <ele>739.87</ele>
        <time>2018-09-19T07:05:27Z</time>
      </trkpt>
      <trkpt lat="47.501668017357588" lon="10.266220970079303">
        <ele>739.87</ele>
        <time>2018-09-19T07:05:28Z</time>
      </trkpt>
      <trkpt lat="47.502265982329845" lon="10.266303028911352">
        <ele>739.87</ele>
        <time>2018-09-19T07:05:35Z</time>
      </trkpt>
      <trkpt lat="47.502332031726837" lon="10.266333036124706">
        <ele>739.87</ele>
        <time>2018-09-19T07:05:36Z</time>
      </trkpt>
      <trkpt lat="47.502722963690758" lon="10.26651400141418">
        <ele>740.83000000000004</ele>
        <time>2018-09-19T07:05:42Z</time>
      </trkpt>
      <trkpt lat="47.502783983945847" lon="10.26653696782887">
        <ele>741.30999999999995</ele>
        <time>2018-09-19T07:05:43Z</time>
      </trkpt>
      <trkpt lat="47.502849027514458" lon="10.266554988920689">
        <ele>741.30999999999995</ele>
        <time>2018-09-19T07:05:44Z</time>
      </trkpt>
      <trkpt lat="47.502912981435657" lon="10.266573010012507">
        <ele>741.78999999999996</ele>
        <time>2018-09-19T07:05:45Z</time>
      </trkpt>
      <trkpt lat="47.502995040267706" lon="10.266594970598817">
        <ele>741.78999999999996</ele>
        <time>2018-09-19T07:05:46Z</time>
      </trkpt>
      <trkpt lat="47.503751004114747" lon="10.266495980322361">
        <ele>741.30999999999995</ele>
        <time>2018-09-19T07:05:57Z</time>
      </trkpt>
      <trkpt lat="47.503893999382854" lon="10.266549959778786">
        <ele>741.30999999999995</ele>
        <time>2018-09-19T07:05:59Z</time>
      </trkpt>
      <trkpt lat="47.503939010202885" lon="10.266594970598817">
        <ele>741.30999999999995</ele>
        <time>2018-09-19T07:06:00Z</time>
      </trkpt>
      <trkpt lat="47.503998018801212" lon="10.26666697114706">
        <ele>741.78999999999996</ele>
        <time>2018-09-19T07:06:01Z</time>
      </trkpt>
      <trkpt lat="47.504102038219571" lon="10.266794040799141">
        <ele>741.78999999999996</ele>
        <time>2018-09-19T07:06:03Z</time>
      </trkpt>
      <trkpt lat="47.504464974626899" lon="10.267238030210137">
        <ele>741.30999999999995</ele>
        <time>2018-09-19T07:06:10Z</time>
      </trkpt>
      <trkpt lat="47.504520965740085" lon="10.26733098551631">
        <ele>741.30999999999995</ele>
        <time>2018-09-19T07:06:11Z</time>
      </trkpt>
      <trkpt lat="47.504534963518381" lon="10.267486972734332">
        <ele>741.78999999999996</ele>
        <time>2018-09-19T07:06:13Z</time>
      </trkpt>
      <trkpt lat="47.504701009020209" lon="10.268432032316923">
        <ele>741.78999999999996</ele>
        <time>2018-09-19T07:06:21Z</time>
      </trkpt>
      <trkpt lat="47.504754988476634" lon="10.268676029518247">
        <ele>741.78999999999996</ele>
        <time>2018-09-19T07:06:23Z</time>
      </trkpt>
      <trkpt lat="47.504808967933059" lon="10.268786000087857">
        <ele>741.78999999999996</ele>
        <time>2018-09-19T07:06:24Z</time>
      </trkpt>
      <trkpt lat="47.504863031208515" lon="10.268893036991358">
        <ele>742.75999999999999</ele>
        <time>2018-09-19T07:06:25Z</time>
      </trkpt>
      <trkpt lat="47.505644978955388" lon="10.27001797221601">
        <ele>744.20000000000005</ele>
        <time>2018-09-19T07:06:36Z</time>
      </trkpt>
      <trkpt lat="47.50571496784687" lon="10.270100031048059">
        <ele>743.72000000000003</ele>
        <time>2018-09-19T07:06:37Z</time>
      </trkpt>
      <trkpt lat="47.505772970616817" lon="10.270184017717838">
        <ele>743.72000000000003</ele>
        <time>2018-09-19T07:06:38Z</time>
      </trkpt>
      <trkpt lat="47.505805995315313" lon="10.270271021872759">
        <ele>743.72000000000003</ele>
        <time>2018-09-19T07:06:39Z</time>
      </trkpt>
      <trkpt lat="47.505817981436849" lon="10.270362971350551">
        <ele>743.72000000000003</ele>
        <time>2018-09-19T07:06:40Z</time>
      </trkpt>
      <trkpt lat="47.505799038335681" lon="10.270432038232684">
        <ele>743.72000000000003</ele>
        <time>2018-09-19T07:06:41Z</time>
      </trkpt>
      <trkpt lat="47.50577799975872" lon="10.270512001588941">
        <ele>743.72000000000003</ele>
        <time>2018-09-19T07:06:42Z</time>
      </trkpt>
      <trkpt lat="47.50575696118176" lon="10.27061702683568">
        <ele>743.72000000000003</ele>
        <time>2018-09-19T07:06:43Z</time>
      </trkpt>
      <trkpt lat="47.505741035565734" lon="10.270742001011968">
        <ele>743.72000000000003</ele>
        <time>2018-09-19T07:06:44Z</time>
      </trkpt>
      <trkpt lat="47.505719996988773" lon="10.270907962694764">
        <ele>743.24000000000001</ele>
        <time>2018-09-19T07:06:45Z</time>
      </trkpt>
      <trkpt lat="47.505719996988773" lon="10.271040983498096">
        <ele>743.24000000000001</ele>
        <time>2018-09-19T07:06:46Z</time>
      </trkpt>
      <trkpt lat="47.505736006423831" lon="10.271190013736486">
        <ele>743.24000000000001</ele>
        <time>2018-09-19T07:06:47Z</time>
      </trkpt>
      <trkpt lat="47.505769031122327" lon="10.271330997347832">
        <ele>743.72000000000003</ele>
        <time>2018-09-19T07:06:48Z</time>
      </trkpt>
      <trkpt lat="47.505805995315313" lon="10.271486984565854">
        <ele>744.20000000000005</ele>
        <time>2018-09-19T07:06:49Z</time>
      </trkpt>
      <trkpt lat="47.505857963114977" lon="10.271609025076032">
        <ele>744.20000000000005</ele>
        <time>2018-09-19T07:06:50Z</time>
      </trkpt>
      <trkpt lat="47.50592702999711" lon="10.271726036444306">
        <ele>744.67999999999995</ele>
        <time>2018-09-19T07:06:51Z</time>
      </trkpt>
      <trkpt lat="47.506818026304245" lon="10.273060016334057">
        <ele>745.15999999999997</ele>
        <time>2018-09-19T07:07:03Z</time>
      </trkpt>
      <trkpt lat="47.506989017128944" lon="10.273300996050239">
        <ele>745.15999999999997</ele>
        <time>2018-09-19T07:07:06Z</time>
      </trkpt>
      <trkpt lat="47.507032016292214" lon="10.273363022133708">
        <ele>745.15999999999997</ele>
        <time>2018-09-19T07:07:07Z</time>
      </trkpt>
      <trkpt lat="47.50706504099071" lon="10.273537030443549">
        <ele>744.67999999999995</ele>
        <time>2018-09-19T07:07:08Z</time>
      </trkpt>
      <trkpt lat="47.507059006020427" lon="10.273643983528018">
        <ele>744.20000000000005</ele>
        <time>2018-09-19T07:07:09Z</time>
      </trkpt>
      <trkpt lat="47.507050959393382" lon="10.273783039301634">
        <ele>744.20000000000005</ele>
        <time>2018-09-19T07:07:10Z</time>
      </trkpt>
      <trkpt lat="47.507050959393382" lon="10.273933997377753">
        <ele>743.72000000000003</ele>
        <time>2018-09-19T07:07:11Z</time>
      </trkpt>
      <trkpt lat="47.507075015455484" lon="10.274024019017816">
        <ele>743.72000000000003</ele>
        <time>2018-09-19T07:07:12Z</time>
      </trkpt>
      <trkpt lat="47.50710996799171" lon="10.274155028164387">
        <ele>743.24000000000001</ele>
        <time>2018-09-19T07:07:13Z</time>
      </trkpt>
      <trkpt lat="47.50715296715498" lon="10.274286037310958">
        <ele>743.24000000000001</ele>
        <time>2018-09-19T07:07:14Z</time>
      </trkpt>
      <trkpt lat="47.507211975753307" lon="10.274395002052188">
        <ele>743.24000000000001</ele>
        <time>2018-09-19T07:07:15Z</time>
      </trkpt>
      <trkpt lat="47.507265033200383" lon="10.274490974843502">
        <ele>743.24000000000001</ele>
        <time>2018-09-19T07:07:16Z</time>
      </trkpt>
      <trkpt lat="47.507339967414737" lon="10.274603962898254">
        <ele>742.75999999999999</ele>
        <time>2018-09-19T07:07:17Z</time>
      </trkpt>
      <trkpt lat="47.507404005154967" lon="10.274698007851839">
        <ele>742.75999999999999</ele>
        <time>2018-09-19T07:07:18Z</time>
      </trkpt>
      <trkpt lat="47.507471982389688" lon="10.274787023663521">
        <ele>742.75999999999999</ele>
        <time>2018-09-19T07:07:19Z</time>
      </trkpt>
      <trkpt lat="47.50753803178668" lon="10.274874027818441">
        <ele>742.75999999999999</ele>
        <time>2018-09-19T07:07:20Z</time>
      </trkpt>
      <trkpt lat="47.508349986746907" lon="10.275911958888173">
        <ele>742.75999999999999</ele>
        <time>2018-09-19T07:07:32Z</time>
      </trkpt>
      <trkpt lat="47.508406983688474" lon="10.275964010506868">
        <ele>743.24000000000001</ele>
        <time>2018-09-19T07:07:33Z</time>
      </trkpt>
      <trkpt lat="47.508460963144898" lon="10.27601296082139">
        <ele>743.24000000000001</ele>
        <time>2018-09-19T07:07:34Z</time>
      </trkpt>
      <trkpt lat="47.50850697979331" lon="10.276055037975311">
        <ele>743.72000000000003</ele>
        <time>2018-09-19T07:07:35Z</time>
      </trkpt>
      <trkpt lat="47.508509997278452" lon="10.276294006034732">
        <ele>743.72000000000003</ele>
        <time>2018-09-19T07:07:36Z</time>
      </trkpt>
      <trkpt lat="47.508517960086465" lon="10.276301968842745">
        <ele>743.72000000000003</ele>
        <time>2018-09-19T07:07:37Z</time>
      </trkpt>
      <trkpt lat="47.508551990613341" lon="10.276335999369621">
        <ele>744.20000000000005</ele>
        <time>2018-09-19T07:07:38Z</time>
      </trkpt>
      <trkpt lat="47.508630026131868" lon="10.276317978277802">
        <ele>744.20000000000005</ele>
        <time>2018-09-19T07:07:39Z</time>
      </trkpt>
      <trkpt lat="47.508673025295138" lon="10.276287971064448">
        <ele>743.72000000000003</ele>
        <time>2018-09-19T07:07:40Z</time>
      </trkpt>
      <trkpt lat="47.508718958124518" lon="10.276255030184984">
        <ele>743.72000000000003</ele>
        <time>2018-09-19T07:07:41Z</time>
      </trkpt>
      <trkpt lat="47.508747037500143" lon="10.276099964976311">
        <ele>743.24000000000001</ele>
        <time>2018-09-19T07:07:42Z</time>
      </trkpt>
      <trkpt lat="47.508814008906484" lon="10.276070041581988">
        <ele>743.24000000000001</ele>
        <time>2018-09-19T07:07:43Z</time>
      </trkpt>
      <trkpt lat="47.508881986141205" lon="10.276038022711873">
        <ele>742.75999999999999</ele>
        <time>2018-09-19T07:07:44Z</time>
      </trkpt>
      <trkpt lat="47.509825034067035" lon="10.275607025250793">
        <ele>741.30999999999995</ele>
        <time>2018-09-19T07:07:54Z</time>
      </trkpt>
      <trkpt lat="47.510286960750818" lon="10.27545003220439">
        <ele>740.35000000000002</ele>
        <time>2018-09-19T07:07:59Z</time>
      </trkpt>
      <trkpt lat="47.510359967127442" lon="10.27543100528419">
        <ele>740.83000000000004</ele>
        <time>2018-09-19T07:08:00Z</time>
      </trkpt>
      <trkpt lat="47.510428028181195" lon="10.275412984192371">
        <ele>740.83000000000004</ele>
        <time>2018-09-19T07:08:01Z</time>
      </trkpt>
      <trkpt lat="47.510678982362151" lon="10.275360010564327">
        <ele>742.27999999999997</ele>
        <time>2018-09-19T07:08:09Z</time>
      </trkpt>
      <trkpt lat="47.510730028152466" lon="10.275352969765663">
        <ele>742.75999999999999</ele>
        <time>2018-09-19T07:08:32Z</time>
      </trkpt>
      <trkpt lat="47.510878974571824" lon="10.275333020836115">
        <ele>743.72000000000003</ele>
        <time>2018-09-19T07:08:36Z</time>
      </trkpt>
      <trkpt lat="47.510928008705378" lon="10.275246016681194">
        <ele>743.72000000000003</ele>
        <time>2018-09-19T07:08:37Z</time>
      </trkpt>
      <trkpt lat="47.510946029797196" lon="10.275145014747977">
        <ele>743.72000000000003</ele>
        <time>2018-09-19T07:08:38Z</time>
      </trkpt>
      <trkpt lat="47.510967990383506" lon="10.275025991722941">
        <ele>743.72000000000003</ele>
        <time>2018-09-19T07:08:39Z</time>
      </trkpt>
      <trkpt lat="47.510992968454957" lon="10.274890037253499">
        <ele>743.72000000000003</ele>
        <time>2018-09-19T07:08:40Z</time>
      </trkpt>
      <trkpt lat="47.51101803034544" lon="10.274747963994741">
        <ele>743.72000000000003</ele>
        <time>2018-09-19T07:08:41Z</time>
      </trkpt>
      <trkpt lat="47.511192038655281" lon="10.273525966331363">
        <ele>744.67999999999995</ele>
        <time>2018-09-19T07:08:49Z</time>
      </trkpt>
      <trkpt lat="47.51121299341321" lon="10.272372029721737">
        <ele>741.30999999999995</ele>
        <time>2018-09-19T07:08:59Z</time>
      </trkpt>
      <trkpt lat="47.511215005069971" lon="10.272249989211559">
        <ele>740.83000000000004</ele>
        <time>2018-09-19T07:09:00Z</time>
      </trkpt>
      <trkpt lat="47.511252975091338" lon="10.272004986181855">
        <ele>739.38999999999999</ele>
        <time>2018-09-19T07:09:02Z</time>
      </trkpt>
      <trkpt lat="47.511270996183157" lon="10.271876994520426">
        <ele>739.38999999999999</ele>
        <time>2018-09-19T07:09:03Z</time>
      </trkpt>
      <trkpt lat="47.511278036981821" lon="10.271723018959165">
        <ele>738.90999999999997</ele>
        <time>2018-09-19T07:09:04Z</time>
      </trkpt>
      <trkpt lat="47.511293962597847" lon="10.271597038954496">
        <ele>738.90999999999997</ele>
        <time>2018-09-19T07:09:05Z</time>
      </trkpt>
      <trkpt lat="47.511306032538414" lon="10.271451026201248">
        <ele>739.38999999999999</ele>
        <time>2018-09-19T07:09:06Z</time>
      </trkpt>
      <trkpt lat="47.511316007003188" lon="10.271310964599252">
        <ele>738.90999999999997</ele>
        <time>2018-09-19T07:09:07Z</time>
      </trkpt>
      <trkpt lat="47.511332016438246" lon="10.271168975159526">
        <ele>738.90999999999997</ele>
        <time>2018-09-19T07:09:08Z</time>
      </trkpt>
      <trkpt lat="47.511647008359432" lon="10.269986959174275">
        <ele>737.95000000000005</ele>
        <time>2018-09-19T07:09:18Z</time>
      </trkpt>
      <trkpt lat="47.511684978380799" lon="10.269857039675117">
        <ele>737.95000000000005</ele>
        <time>2018-09-19T07:09:19Z</time>
      </trkpt>
      <trkpt lat="47.511786986142397" lon="10.269692000001669">
        <ele>737.95000000000005</ele>
        <time>2018-09-19T07:09:21Z</time>
      </trkpt>
      <trkpt lat="47.512275986373425" lon="10.269015999510884">
        <ele>737.95000000000005</ele>
        <time>2018-09-19T07:09:30Z</time>
      </trkpt>
      <trkpt lat="47.513130018487573" lon="10.268332958221436">
        <ele>737.95000000000005</ele>
        <time>2018-09-19T07:09:41Z</time>
      </trkpt>
      <trkpt lat="47.514072982594371" lon="10.267638014629483">
        <ele>734.58000000000004</ele>
        <time>2018-09-19T07:09:53Z</time>
      </trkpt>
      <trkpt lat="47.514985017478466" lon="10.266981963068247">
        <ele>731.22000000000003</ele>
        <time>2018-09-19T07:10:05Z</time>
      </trkpt>
      <trkpt lat="47.516263006255031" lon="10.266275033354759">
        <ele>729.77999999999997</ele>
        <time>2018-09-19T07:10:19Z</time>
      </trkpt>
      <trkpt lat="47.517437981441617" lon="10.265888040885329">
        <ele>728.82000000000005</ele>
        <time>2018-09-19T07:10:32Z</time>
      </trkpt>
      <trkpt lat="47.518119011074305" lon="10.265642032027245">
        <ele>728.34000000000003</ele>
        <time>2018-09-19T07:10:40Z</time>
      </trkpt>
      <trkpt lat="47.518272986635566" lon="10.265565002337098">
        <ele>728.34000000000003</ele>
        <time>2018-09-19T07:10:42Z</time>
      </trkpt>
      <trkpt lat="47.518348004668951" lon="10.265518985688686">
        <ele>728.34000000000003</ele>
        <time>2018-09-19T07:10:43Z</time>
      </trkpt>
      <trkpt lat="47.519135987386107" lon="10.26488296687603">
        <ele>727.37</ele>
        <time>2018-09-19T07:10:54Z</time>
      </trkpt>
      <trkpt lat="47.519775023683906" lon="10.264026001095772">
        <ele>729.29999999999995</ele>
        <time>2018-09-19T07:11:05Z</time>
      </trkpt>
      <trkpt lat="47.520073000341654" lon="10.263597015291452">
        <ele>731.22000000000003</ele>
        <time>2018-09-19T07:11:11Z</time>
      </trkpt>
      <trkpt lat="47.520121028646827" lon="10.263528032228351">
        <ele>731.70000000000005</ele>
        <time>2018-09-19T07:11:12Z</time>
      </trkpt>
      <trkpt lat="47.520678006112576" lon="10.262807020917535">
        <ele>732.65999999999997</ele>
        <time>2018-09-19T07:11:22Z</time>
      </trkpt>
      <trkpt lat="47.520741960033774" lon="10.262739965692163">
        <ele>732.65999999999997</ele>
        <time>2018-09-19T07:11:23Z</time>
      </trkpt>
      <trkpt lat="47.521534971892834" lon="10.262261023744941">
        <ele>732.65999999999997</ele>
        <time>2018-09-19T07:11:34Z</time>
      </trkpt>
      <trkpt lat="47.521613007411361" lon="10.262249959632754">
        <ele>732.65999999999997</ele>
        <time>2018-09-19T07:11:35Z</time>
      </trkpt>
      <trkpt lat="47.521776035428047" lon="10.262229004874825">
        <ele>733.13999999999999</ele>
        <time>2018-09-19T07:11:37Z</time>
      </trkpt>
      <trkpt lat="47.522093961015344" lon="10.262219030410051">
        <ele>733.13999999999999</ele>
        <time>2018-09-19T07:11:41Z</time>
      </trkpt>
      <trkpt lat="47.522630989551544" lon="10.262418016791344">
        <ele>735.07000000000005</ele>
        <time>2018-09-19T07:11:48Z</time>
      </trkpt>
      <trkpt lat="47.522673988714814" lon="10.262444000691175">
        <ele>735.54999999999995</ele>
        <time>2018-09-19T07:11:49Z</time>
      </trkpt>
      <trkpt lat="47.522701984271407" lon="10.262462021782994">
        <ele>736.02999999999997</ele>
        <time>2018-09-19T07:11:50Z</time>
      </trkpt>
      <trkpt lat="47.522722017019987" lon="10.26247400790453">
        <ele>736.02999999999997</ele>
        <time>2018-09-19T07:11:51Z</time>
      </trkpt>
      <trkpt lat="47.522737020626664" lon="10.262483982369304">
        <ele>736.50999999999999</ele>
        <time>2018-09-19T07:11:52Z</time>
      </trkpt>
      <trkpt lat="47.522737020626664" lon="10.262483982369304">
        <ele>736.50999999999999</ele>
        <time>2018-09-19T07:11:53Z</time>
      </trkpt>
      <trkpt lat="47.522757975384593" lon="10.26249697431922">
        <ele>736.99000000000001</ele>
        <time>2018-09-19T07:11:54Z</time>
      </trkpt>
      <trkpt lat="47.522757975384593" lon="10.26249697431922">
        <ele>737.47000000000003</ele>
        <time>2018-09-19T07:11:55Z</time>
      </trkpt>
      <trkpt lat="47.522779013961554" lon="10.26253997348249">
        <ele>737.95000000000005</ele>
        <time>2018-09-19T07:11:56Z</time>
      </trkpt>
      <trkpt lat="47.522789994254708" lon="10.26256101205945">
        <ele>737.95000000000005</ele>
        <time>2018-09-19T07:11:57Z</time>
      </trkpt>
      <trkpt lat="47.522921003401279" lon="10.262823030352592">
        <ele>739.38999999999999</ele>
        <time>2018-09-19T07:12:04Z</time>
      </trkpt>
      <trkpt lat="47.52294497564435" lon="10.262870974838734">
        <ele>739.38999999999999</ele>
        <time>2018-09-19T07:12:05Z</time>
      </trkpt>
      <trkpt lat="47.523013036698103" lon="10.262879021465778">
        <ele>739.38999999999999</ele>
        <time>2018-09-19T07:12:06Z</time>
      </trkpt>
      <trkpt lat="47.523060981184244" lon="10.262824958190322">
        <ele>739.87</ele>
        <time>2018-09-19T07:12:07Z</time>
      </trkpt>
      <trkpt lat="47.523118983954191" lon="10.262757986783981">
        <ele>739.38999999999999</ele>
        <time>2018-09-19T07:12:08Z</time>
      </trkpt>
      <trkpt lat="47.523182015866041" lon="10.262685986235738">
        <ele>738.90999999999997</ele>
        <time>2018-09-19T07:12:09Z</time>
      </trkpt>
      <trkpt lat="47.523243958130479" lon="10.262614991515875">
        <ele>738.90999999999997</ele>
        <time>2018-09-19T07:12:10Z</time>
      </trkpt>
      <trkpt lat="47.523305984213948" lon="10.262543996796012">
        <ele>737.95000000000005</ele>
        <time>2018-09-19T07:12:11Z</time>
      </trkpt>
      <trkpt lat="47.523722983896732" lon="10.26206698268652">
        <ele>736.50999999999999</ele>
        <time>2018-09-19T07:12:21Z</time>
      </trkpt>
      <trkpt lat="47.524080974981189" lon="10.261575970798731">
        <ele>735.54999999999995</ele>
        <time>2018-09-19T07:12:29Z</time>
      </trkpt>
      <trkpt lat="47.524135038256645" lon="10.26148796081543">
        <ele>735.54999999999995</ele>
        <time>2018-09-19T07:12:30Z</time>
      </trkpt>
      <trkpt lat="47.524193041026592" lon="10.261393999680877">
        <ele>735.54999999999995</ele>
        <time>2018-09-19T07:12:31Z</time>
      </trkpt>
      <trkpt lat="47.524880021810532" lon="10.260137971490622">
        <ele>736.02999999999997</ele>
        <time>2018-09-19T07:12:41Z</time>
      </trkpt>
      <trkpt lat="47.52515603788197" lon="10.259750979021192">
        <ele>735.54999999999995</ele>
        <time>2018-09-19T07:12:44Z</time>
      </trkpt>
      <trkpt lat="47.5252650026232" lon="10.2596400026232">
        <ele>735.07000000000005</ele>
        <time>2018-09-19T07:12:45Z</time>
      </trkpt>
      <trkpt lat="47.525386037304997" lon="10.259548975154757">
        <ele>734.58000000000004</ele>
        <time>2018-09-19T07:12:46Z</time>
      </trkpt>
      <trkpt lat="47.525511011481285" lon="10.259456019848585">
        <ele>734.10000000000002</ele>
        <time>2018-09-19T07:12:47Z</time>
      </trkpt>
      <trkpt lat="47.525643026456237" lon="10.259356023743749">
        <ele>733.62</ele>
        <time>2018-09-19T07:12:48Z</time>
      </trkpt>
      <trkpt lat="47.5265549775213" lon="10.258627971634269">
        <ele>730.74000000000001</ele>
        <time>2018-09-19T07:12:56Z</time>
      </trkpt>
      <trkpt lat="47.527596009895205" lon="10.257705040276051">
        <ele>729.77999999999997</ele>
        <time>2018-09-19T07:13:06Z</time>
      </trkpt>
      <trkpt lat="47.52790697850287" lon="10.257497001439333">
        <ele>729.29999999999995</ele>
        <time>2018-09-19T07:13:09Z</time>
      </trkpt>
      <trkpt lat="47.528004962950945" lon="10.257445033639669">
        <ele>729.29999999999995</ele>
        <time>2018-09-19T07:13:10Z</time>
      </trkpt>
      <trkpt lat="47.528120968490839" lon="10.257412008941174">
        <ele>729.29999999999995</ele>
        <time>2018-09-19T07:13:11Z</time>
      </trkpt>
      <trkpt lat="47.529330980032682" lon="10.257344031706452">
        <ele>729.77999999999997</ele>
        <time>2018-09-19T07:13:21Z</time>
      </trkpt>
      <trkpt lat="47.530160034075379" lon="10.257699005305767">
        <ele>731.70000000000005</ele>
        <time>2018-09-19T07:13:28Z</time>
      </trkpt>
      <trkpt lat="47.530277967453003" lon="10.257734041661024">
        <ele>731.70000000000005</ele>
        <time>2018-09-19T07:13:29Z</time>
      </trkpt>
      <trkpt lat="47.531499965116382" lon="10.257701016962528">
        <ele>731.70000000000005</ele>
        <time>2018-09-19T07:13:39Z</time>
      </trkpt>
      <trkpt lat="47.532957997173071" lon="10.257552992552519">
        <ele>731.70000000000005</ele>
        <time>2018-09-19T07:13:50Z</time>
      </trkpt>
      <trkpt lat="47.534184018149972" lon="10.257676960900426">
        <ele>732.17999999999995</ele>
        <time>2018-09-19T07:13:55Z</time>
      </trkpt>
      <trkpt lat="47.534992033615708" lon="10.257828002795577">
        <ele>732.65999999999997</ele>
        <time>2018-09-19T07:13:59Z</time>
      </trkpt>
      <trkpt lat="47.535159001126885" lon="10.257907966151834">
        <ele>732.65999999999997</ele>
        <time>2018-09-19T07:14:00Z</time>
      </trkpt>
      <trkpt lat="47.53531901165843" lon="10.257983990013599">
        <ele>732.65999999999997</ele>
        <time>2018-09-19T07:14:01Z</time>
      </trkpt>
      <trkpt lat="47.535738022997975" lon="10.258210971951485">
        <ele>732.65999999999997</ele>
        <time>2018-09-19T07:14:04Z</time>
      </trkpt>
      <trkpt lat="47.535856040194631" lon="10.258267968893051">
        <ele>732.65999999999997</ele>
        <time>2018-09-19T07:14:05Z</time>
      </trkpt>
      <trkpt lat="47.535979002714157" lon="10.258249025791883">
        <ele>732.65999999999997</ele>
        <time>2018-09-19T07:14:06Z</time>
      </trkpt>
      <trkpt lat="47.537236958742142" lon="10.258097983896732">
        <ele>732.65999999999997</ele>
        <time>2018-09-19T07:14:16Z</time>
      </trkpt>
      <trkpt lat="47.538257958367467" lon="10.258149029687047">
        <ele>733.62</ele>
        <time>2018-09-19T07:14:25Z</time>
      </trkpt>
      <trkpt lat="47.539345007389784" lon="10.257879970595241">
        <ele>732.17999999999995</ele>
        <time>2018-09-19T07:14:35Z</time>
      </trkpt>
      <trkpt lat="47.539654970169067" lon="10.257851975038648">
        <ele>732.65999999999997</ele>
        <time>2018-09-19T07:14:38Z</time>
      </trkpt>
      <trkpt lat="47.539753038436174" lon="10.257844012230635">
        <ele>732.17999999999995</ele>
        <time>2018-09-19T07:14:39Z</time>
      </trkpt>
      <trkpt lat="47.540889037773013" lon="10.257990024983883">
        <ele>729.77999999999997</ele>
        <time>2018-09-19T07:14:51Z</time>
      </trkpt>
      <trkpt lat="47.541744997724891" lon="10.258010979741812">
        <ele>727.86000000000001</ele>
        <time>2018-09-19T07:15:01Z</time>
      </trkpt>
      <trkpt lat="47.542153028771281" lon="10.258062025532126">
        <ele>728.34000000000003</ele>
        <time>2018-09-19T07:15:07Z</time>
      </trkpt>
      <trkpt lat="47.542241960763931" lon="10.258074011653662">
        <ele>728.34000000000003</ele>
        <time>2018-09-19T07:15:09Z</time>
      </trkpt>
      <trkpt lat="47.542309015989304" lon="10.258081974461675">
        <ele>729.29999999999995</ele>
        <time>2018-09-19T07:15:17Z</time>
      </trkpt>
      <trkpt lat="47.542393002659082" lon="10.258092032745481">
        <ele>729.29999999999995</ele>
        <time>2018-09-19T07:15:27Z</time>
      </trkpt>
      <trkpt lat="47.543029021471739" lon="10.258173001930118">
        <ele>729.29999999999995</ele>
        <time>2018-09-19T07:15:34Z</time>
      </trkpt>
      <trkpt lat="47.543636960908771" lon="10.2582429908216">
        <ele>728.82000000000005</ele>
        <time>2018-09-19T07:15:40Z</time>
      </trkpt>
      <trkpt lat="47.543738968670368" lon="10.258216001093388">
        <ele>728.82000000000005</ele>
        <time>2018-09-19T07:15:41Z</time>
      </trkpt>
      <trkpt lat="47.543836031109095" lon="10.258157998323441">
        <ele>728.82000000000005</ele>
        <time>2018-09-19T07:15:42Z</time>
      </trkpt>
      <trkpt lat="47.543929992243648" lon="10.258102007210255">
        <ele>728.34000000000003</ele>
        <time>2018-09-19T07:15:43Z</time>
      </trkpt>
      <trkpt lat="47.544043986126781" lon="10.258033024147153">
        <ele>728.34000000000003</ele>
        <time>2018-09-19T07:15:44Z</time>
      </trkpt>
      <trkpt lat="47.544116992503405" lon="10.257973009720445">
        <ele>727.86000000000001</ele>
        <time>2018-09-19T07:15:45Z</time>
      </trkpt>
      <trkpt lat="47.544487975537777" lon="10.257664974778891">
        <ele>726.40999999999997</ele>
        <time>2018-09-19T07:15:49Z</time>
      </trkpt>
      <trkpt lat="47.544584032148123" lon="10.257585011422634">
        <ele>725.92999999999995</ele>
        <time>2018-09-19T07:15:50Z</time>
      </trkpt>
      <trkpt lat="47.545704022049904" lon="10.256661996245384">
        <ele>725.45000000000005</ele>
        <time>2018-09-19T07:16:01Z</time>
      </trkpt>
      <trkpt lat="47.546353032812476" lon="10.256123039871454">
        <ele>724.49000000000001</ele>
        <time>2018-09-19T07:16:09Z</time>
      </trkpt>
      <trkpt lat="47.54646803252399" lon="10.256166961044073">
        <ele>724.49000000000001</ele>
        <time>2018-09-19T07:16:10Z</time>
      </trkpt>
      <trkpt lat="47.546498961746693" lon="10.256171990185976">
        <ele>724.00999999999999</ele>
        <time>2018-09-19T07:16:11Z</time>
      </trkpt>
      <trkpt lat="47.54662100225687" lon="10.256155980750918">
        <ele>724.00999999999999</ele>
        <time>2018-09-19T07:16:12Z</time>
      </trkpt>
      <trkpt lat="47.546660983934999" lon="10.256102001294494">
        <ele>724.49000000000001</ele>
        <time>2018-09-19T07:16:13Z</time>
      </trkpt>
      <trkpt lat="47.546660983934999" lon="10.255908966064453">
        <ele>724.49000000000001</ele>
        <time>2018-09-19T07:16:14Z</time>
      </trkpt>
      <trkpt lat="47.54672602750361" lon="10.255845012143254">
        <ele>724.49000000000001</ele>
        <time>2018-09-19T07:16:15Z</time>
      </trkpt>
      <trkpt lat="47.546804985031486" lon="10.255768988281488">
        <ele>724.00999999999999</ele>
        <time>2018-09-19T07:16:16Z</time>
      </trkpt>
      <trkpt lat="47.546901041641831" lon="10.255691036581993">
        <ele>723.52999999999997</ele>
        <time>2018-09-19T07:16:17Z</time>
      </trkpt>
      <trkpt lat="47.5470079947263" lon="10.255604032427073">
        <ele>723.04999999999995</ele>
        <time>2018-09-19T07:16:18Z</time>
      </trkpt>
      <trkpt lat="47.548084985464811" lon="10.254960972815752">
        <ele>720.64999999999998</ele>
        <time>2018-09-19T07:16:27Z</time>
      </trkpt>
      <trkpt lat="47.549797995015979" lon="10.254184976220131">
        <ele>719.67999999999995</ele>
        <time>2018-09-19T07:16:41Z</time>
      </trkpt>
      <trkpt lat="47.550079040229321" lon="10.254039969295263">
        <ele>720.15999999999997</ele>
        <time>2018-09-19T07:16:43Z</time>
      </trkpt>
      <trkpt lat="47.550211977213621" lon="10.253916000947356">
        <ele>720.15999999999997</ele>
        <time>2018-09-19T07:16:44Z</time>
      </trkpt>
      <trkpt lat="47.550343992188573" lon="10.25377300567925">
        <ele>720.15999999999997</ele>
        <time>2018-09-19T07:16:45Z</time>
      </trkpt>
      <trkpt lat="47.550439964979887" lon="10.253576030954719">
        <ele>720.15999999999997</ele>
        <time>2018-09-19T07:16:46Z</time>
      </trkpt>
      <trkpt lat="47.550528980791569" lon="10.253375032916665">
        <ele>720.15999999999997</ele>
        <time>2018-09-19T07:16:47Z</time>
      </trkpt>
      <trkpt lat="47.550582038238645" lon="10.253144027665257">
        <ele>720.64999999999998</ele>
        <time>2018-09-19T07:16:48Z</time>
      </trkpt>
      <trkpt lat="47.55063702352345" lon="10.252902964130044">
        <ele>720.64999999999998</ele>
        <time>2018-09-19T07:16:49Z</time>
      </trkpt>
      <trkpt lat="47.551087969914079" lon="10.249953037127852">
        <ele>718.24000000000001</ele>
        <time>2018-09-19T07:17:00Z</time>
      </trkpt>
      <trkpt lat="47.551181009039283" lon="10.249050976708531">
        <ele>717.75999999999999</ele>
        <time>2018-09-19T07:17:03Z</time>
      </trkpt>
      <trkpt lat="47.55102401599288" lon="10.246629025787115">
        <ele>718.24000000000001</ele>
        <time>2018-09-19T07:17:11Z</time>
      </trkpt>
      <trkpt lat="47.550609027966857" lon="10.242995973676443">
        <ele>719.67999999999995</ele>
        <time>2018-09-19T07:17:24Z</time>
      </trkpt>
      <trkpt lat="47.550587989389896" lon="10.239725019782782">
        <ele>720.15999999999997</ele>
        <time>2018-09-19T07:17:36Z</time>
      </trkpt>
      <trkpt lat="47.550803991034627" lon="10.237507000565529">
        <ele>722.09000000000003</ele>
        <time>2018-09-19T07:17:45Z</time>
      </trkpt>
      <trkpt lat="47.551129041239619" lon="10.236239992082119">
        <ele>723.52999999999997</ele>
        <time>2018-09-19T07:17:52Z</time>
      </trkpt>
      <trkpt lat="47.551657017320395" lon="10.234859995543957">
        <ele>722.09000000000003</ele>
        <time>2018-09-19T07:18:02Z</time>
      </trkpt>
      <trkpt lat="47.552201002836227" lon="10.233402969315648">
        <ele>720.15999999999997</ele>
        <time>2018-09-19T07:18:12Z</time>
      </trkpt>
      <trkpt lat="47.552610039710999" lon="10.232103019952774">
        <ele>720.15999999999997</ele>
        <time>2018-09-19T07:18:21Z</time>
      </trkpt>
      <trkpt lat="47.55313198082149" lon="10.230904994532466">
        <ele>721.13</ele>
        <time>2018-09-19T07:18:32Z</time>
      </trkpt>
      <trkpt lat="47.553215967491269" lon="10.230765016749501">
        <ele>721.13</ele>
        <time>2018-09-19T07:18:34Z</time>
      </trkpt>
      <trkpt lat="47.553251003846526" lon="10.230707013979554">
        <ele>720.64999999999998</ele>
        <time>2018-09-19T07:18:35Z</time>
      </trkpt>
      <trkpt lat="47.553320992738008" lon="10.230682035908103">
        <ele>720.64999999999998</ele>
        <time>2018-09-19T07:18:36Z</time>
      </trkpt>
      <trkpt lat="47.55336600355804" lon="10.230687987059355">
        <ele>720.64999999999998</ele>
        <time>2018-09-19T07:18:37Z</time>
      </trkpt>
      <trkpt lat="47.553402967751026" lon="10.230694022029638">
        <ele>720.64999999999998</ele>
        <time>2018-09-19T07:18:38Z</time>
      </trkpt>
      <trkpt lat="47.553420988842845" lon="10.230696033686399">
        <ele>720.15999999999997</ele>
        <time>2018-09-19T07:18:39Z</time>
      </trkpt>
      <trkpt lat="47.553587034344673" lon="10.230582039803267">
        <ele>719.67999999999995</ele>
        <time>2018-09-19T07:18:42Z</time>
      </trkpt>
      <trkpt lat="47.553717037662864" lon="10.230627972632647">
        <ele>719.20000000000005</ele>
        <time>2018-09-19T07:18:44Z</time>
      </trkpt>
      <trkpt lat="47.553793983533978" lon="10.230654962360859">
        <ele>719.20000000000005</ele>
        <time>2018-09-19T07:18:45Z</time>
      </trkpt>
      <trkpt lat="47.553878976032138" lon="10.230696033686399">
        <ele>719.20000000000005</ele>
        <time>2018-09-19T07:18:46Z</time>
      </trkpt>
      <trkpt lat="47.553963968530297" lon="10.230756970122457">
        <ele>719.20000000000005</ele>
        <time>2018-09-19T07:18:47Z</time>
      </trkpt>
      <trkpt lat="47.554039992392063" lon="10.230836011469364">
        <ele>719.20000000000005</ele>
        <time>2018-09-19T07:18:48Z</time>
      </trkpt>
      <trkpt lat="47.554103024303913" lon="10.230922009795904">
        <ele>719.20000000000005</ele>
        <time>2018-09-19T07:18:49Z</time>
      </trkpt>
      <trkpt lat="47.554163038730621" lon="10.231003984808922">
        <ele>719.67999999999995</ele>
        <time>2018-09-19T07:18:50Z</time>
      </trkpt>
      <trkpt lat="47.554220035672188" lon="10.231083026155829">
        <ele>719.67999999999995</ele>
        <time>2018-09-19T07:18:51Z</time>
      </trkpt>
      <trkpt lat="47.55446101538837" lon="10.231628017500043">
        <ele>722.09000000000003</ele>
        <time>2018-09-19T07:18:59Z</time>
      </trkpt>
      <trkpt lat="47.554453974589705" lon="10.231692977249622">
        <ele>722.09000000000003</ele>
        <time>2018-09-19T07:19:00Z</time>
      </trkpt>
      <trkpt lat="47.554481970146298" lon="10.231736982241273">
        <ele>722.57000000000005</ele>
        <time>2018-09-19T07:19:01Z</time>
      </trkpt>
      <trkpt lat="47.55452698096633" lon="10.23175198584795">
        <ele>723.04999999999995</ele>
        <time>2018-09-19T07:19:02Z</time>
      </trkpt>
      <trkpt lat="47.55457098595798" lon="10.231765983626246">
        <ele>723.52999999999997</ele>
        <time>2018-09-19T07:19:03Z</time>
      </trkpt>
      <trkpt lat="47.554599987342954" lon="10.23170898668468">
        <ele>723.52999999999997</ele>
        <time>2018-09-19T07:19:04Z</time>
      </trkpt>
      <trkpt lat="47.554622031748295" lon="10.231640003621578">
        <ele>723.52999999999997</ele>
        <time>2018-09-19T07:19:05Z</time>
      </trkpt>
      <trkpt lat="47.554623037576675" lon="10.231490973383188">
        <ele>723.04999999999995</ele>
        <time>2018-09-19T07:19:06Z</time>
      </trkpt>
      <trkpt lat="47.554672993719578" lon="10.231397012248635">
        <ele>723.04999999999995</ele>
        <time>2018-09-19T07:19:07Z</time>
      </trkpt>
      <trkpt lat="47.554726973176003" lon="10.231293998658657">
        <ele>722.57000000000005</ele>
        <time>2018-09-19T07:19:08Z</time>
      </trkpt>
      <trkpt lat="47.55502101033926" lon="10.230758981779218">
        <ele>722.57000000000005</ele>
        <time>2018-09-19T07:19:13Z</time>
      </trkpt>
      <trkpt lat="47.555712014436722" lon="10.229843007400632">
        <ele>722.57000000000005</ele>
        <time>2018-09-19T07:19:22Z</time>
      </trkpt>
      <trkpt lat="47.556221969425678" lon="10.229125013574958">
        <ele>721.61000000000001</ele>
        <time>2018-09-19T07:19:29Z</time>
      </trkpt>
      <trkpt lat="47.556896964088082" lon="10.22756396792829">
        <ele>718.72000000000003</ele>
        <time>2018-09-19T07:19:40Z</time>
      </trkpt>
      <trkpt lat="47.557456037029624" lon="10.225710980594158">
        <ele>716.32000000000005</ele>
        <time>2018-09-19T07:19:52Z</time>
      </trkpt>
      <trkpt lat="47.557672960683703" lon="10.22476801648736">
        <ele>716.79999999999995</ele>
        <time>2018-09-19T07:19:58Z</time>
      </trkpt>
      <trkpt lat="47.557681007310748" lon="10.224591996520758">
        <ele>717.27999999999997</ele>
        <time>2018-09-19T07:19:59Z</time>
      </trkpt>
      <trkpt lat="47.557692993432283" lon="10.223879031836987">
        <ele>718.72000000000003</ele>
        <time>2018-09-19T07:20:03Z</time>
      </trkpt>
      <trkpt lat="47.55770699121058" lon="10.223592035472393">
        <ele>719.20000000000005</ele>
        <time>2018-09-19T07:20:05Z</time>
      </trkpt>
      <trkpt lat="47.557720988988876" lon="10.223452979698777">
        <ele>719.67999999999995</ele>
        <time>2018-09-19T07:20:06Z</time>
      </trkpt>
      <trkpt lat="47.557774968445301" lon="10.223244018852711">
        <ele>720.15999999999997</ele>
        <time>2018-09-19T07:20:08Z</time>
      </trkpt>
      <trkpt lat="47.557824002578855" lon="10.223059030249715">
        <ele>720.64999999999998</ele>
        <time>2018-09-19T07:20:10Z</time>
      </trkpt>
      <trkpt lat="47.557848980650306" lon="10.222971020266414">
        <ele>721.13</ele>
        <time>2018-09-19T07:20:11Z</time>
      </trkpt>
      <trkpt lat="47.55787999369204" lon="10.222885021939874">
        <ele>721.13</ele>
        <time>2018-09-19T07:20:12Z</time>
      </trkpt>
      <trkpt lat="47.557913018390536" lon="10.222795000299811">
        <ele>720.64999999999998</ele>
        <time>2018-09-19T07:20:13Z</time>
      </trkpt>
      <trkpt lat="47.55794595927" lon="10.222703972831368">
        <ele>720.64999999999998</ele>
        <time>2018-09-19T07:20:14Z</time>
      </trkpt>
      <trkpt lat="47.557976972311735" lon="10.222615040838718">
        <ele>721.13</ele>
        <time>2018-09-19T07:20:15Z</time>
      </trkpt>
      <trkpt lat="47.558009997010231" lon="10.222523007541895">
        <ele>721.13</ele>
        <time>2018-09-19T07:20:16Z</time>
      </trkpt>
      <trkpt lat="47.558205965906382" lon="10.221950020641088">
        <ele>721.61000000000001</ele>
        <time>2018-09-19T07:20:21Z</time>
      </trkpt>
      <trkpt lat="47.558319959789515" lon="10.221527991816401">
        <ele>721.13</ele>
        <time>2018-09-19T07:20:24Z</time>
      </trkpt>
      <trkpt lat="47.558332029730082" lon="10.221369992941618">
        <ele>720.64999999999998</ele>
        <time>2018-09-19T07:20:25Z</time>
      </trkpt>
      <trkpt lat="47.558377040550113" lon="10.220783008262515">
        <ele>718.72000000000003</ele>
        <time>2018-09-19T07:20:28Z</time>
      </trkpt>
      <trkpt lat="47.558362036943436" lon="10.219969041645527">
        <ele>718.24000000000001</ele>
        <time>2018-09-19T07:20:34Z</time>
      </trkpt>
      <trkpt lat="47.55845800973475" lon="10.218923985958099">
        <ele>721.13</ele>
        <time>2018-09-19T07:20:42Z</time>
      </trkpt>
      <trkpt lat="47.558486005291343" lon="10.21873002871871">
        <ele>722.09000000000003</ele>
        <time>2018-09-19T07:20:44Z</time>
      </trkpt>
      <trkpt lat="47.558498997241259" lon="10.218641012907028">
        <ele>722.57000000000005</ele>
        <time>2018-09-19T07:20:45Z</time>
      </trkpt>
      <trkpt lat="47.55858700722456" lon="10.218079006299376">
        <ele>725.92999999999995</ele>
        <time>2018-09-19T07:20:52Z</time>
      </trkpt>
      <trkpt lat="47.558595975860953" lon="10.218015974387527">
        <ele>725.92999999999995</ele>
        <time>2018-09-19T07:20:53Z</time>
      </trkpt>
      <trkpt lat="47.558612991124392" lon="10.217904997989535">
        <ele>726.40999999999997</ele>
        <time>2018-09-19T07:20:55Z</time>
      </trkpt>
      <trkpt lat="47.558621037751436" lon="10.217848001047969">
        <ele>726.88999999999999</ele>
        <time>2018-09-19T07:20:56Z</time>
      </trkpt>
      <trkpt lat="47.558632018044591" lon="10.217778012156487">
        <ele>726.88999999999999</ele>
        <time>2018-09-19T07:20:57Z</time>
      </trkpt>
      <trkpt lat="47.558644004166126" lon="10.217694025486708">
        <ele>727.37</ele>
        <time>2018-09-19T07:20:58Z</time>
      </trkpt>
      <trkpt lat="47.558659007772803" lon="10.217597968876362">
        <ele>727.37</ele>
        <time>2018-09-19T07:20:59Z</time>
      </trkpt>
      <trkpt lat="47.55867401137948" lon="10.217494033277035">
        <ele>727.86000000000001</ele>
        <time>2018-09-19T07:21:00Z</time>
      </trkpt>
      <trkpt lat="47.558691026642919" lon="10.217382973060012">
        <ele>727.86000000000001</ele>
        <time>2018-09-19T07:21:01Z</time>
      </trkpt>
      <trkpt lat="47.558709969744086" lon="10.217267973348498">
        <ele>727.86000000000001</ele>
        <time>2018-09-19T07:21:02Z</time>
      </trkpt>
      <trkpt lat="47.558728996664286" lon="10.217155991122127">
        <ele>727.86000000000001</ele>
        <time>2018-09-19T07:21:03Z</time>
      </trkpt>
      <trkpt lat="47.558746011927724" lon="10.21705599501729">
        <ele>727.86000000000001</ele>
        <time>2018-09-19T07:21:04Z</time>
      </trkpt>
      <trkpt lat="47.558786999434233" lon="10.216816021129489">
        <ele>726.88999999999999</ele>
        <time>2018-09-19T07:21:07Z</time>
      </trkpt>
      <trkpt lat="47.558800997212529" lon="10.21673496812582">
        <ele>726.88999999999999</ele>
        <time>2018-09-19T07:21:08Z</time>
      </trkpt>
      <trkpt lat="47.558835027739406" lon="10.216537993401289">
        <ele>726.40999999999997</ele>
        <time>2018-09-19T07:21:10Z</time>
      </trkpt>
      <trkpt lat="47.558853970840573" lon="10.216431962326169">
        <ele>726.88999999999999</ele>
        <time>2018-09-19T07:21:11Z</time>
      </trkpt>
      <trkpt lat="47.558870986104012" lon="10.216341018676758">
        <ele>726.88999999999999</ele>
        <time>2018-09-19T07:21:12Z</time>
      </trkpt>
      <trkpt lat="47.558991014957428" lon="10.215454967692494">
        <ele>728.34000000000003</ele>
        <time>2018-09-19T07:21:19Z</time>
      </trkpt>
      <trkpt lat="47.559025967493653" lon="10.215346002951264">
        <ele>727.86000000000001</ele>
        <time>2018-09-19T07:21:20Z</time>
      </trkpt>
      <trkpt lat="47.559070978313684" lon="10.215261010453105">
        <ele>727.86000000000001</ele>
        <time>2018-09-19T07:21:21Z</time>
      </trkpt>
      <trkpt lat="47.559139961376786" lon="10.215127989649773">
        <ele>727.86000000000001</ele>
        <time>2018-09-19T07:21:23Z</time>
      </trkpt>
      <trkpt lat="47.559168040752411" lon="10.215074010193348">
        <ele>727.86000000000001</ele>
        <time>2018-09-19T07:21:24Z</time>
      </trkpt>
      <trkpt lat="47.559294020757079" lon="10.214777961373329">
        <ele>727.37</ele>
        <time>2018-09-19T07:21:31Z</time>
      </trkpt>
      <trkpt lat="47.559335008263588" lon="10.214639995247126">
        <ele>727.86000000000001</ele>
        <time>2018-09-19T07:21:34Z</time>
      </trkpt>
      <trkpt lat="47.559348000213504" lon="10.214593978598714">
        <ele>727.37</ele>
        <time>2018-09-19T07:21:35Z</time>
      </trkpt>
      <trkpt lat="47.559498036280274" lon="10.213754028081894">
        <ele>725.92999999999995</ele>
        <time>2018-09-19T07:21:44Z</time>
      </trkpt>
      <trkpt lat="47.559667015448213" lon="10.212637977674603">
        <ele>726.40999999999997</ele>
        <time>2018-09-19T07:21:52Z</time>
      </trkpt>
      <trkpt lat="47.55968595854938" lon="10.212546028196812">
        <ele>726.40999999999997</ele>
        <time>2018-09-19T07:21:53Z</time>
      </trkpt>
      <trkpt lat="47.559772962704301" lon="10.212107989937067">
        <ele>726.88999999999999</ele>
        <time>2018-09-19T07:22:00Z</time>
      </trkpt>
      <trkpt lat="47.5597919896245" lon="10.212014028802514">
        <ele>726.88999999999999</ele>
        <time>2018-09-19T07:22:01Z</time>
      </trkpt>
      <trkpt lat="47.5598110165447" lon="10.21192098967731">
        <ele>726.88999999999999</ele>
        <time>2018-09-19T07:22:02Z</time>
      </trkpt>
      <trkpt lat="47.559944037348032" lon="10.211814036592841">
        <ele>726.88999999999999</ele>
        <time>2018-09-19T07:22:03Z</time>
      </trkpt>
      <trkpt lat="47.559944037348032" lon="10.211814036592841">
        <ele>726.88999999999999</ele>
        <time>2018-09-19T07:22:04Z</time>
      </trkpt>
      <trkpt lat="47.560007991269231" lon="10.21170599386096">
        <ele>726.40999999999997</ele>
        <time>2018-09-19T07:22:05Z</time>
      </trkpt>
      <trkpt lat="47.560074962675571" lon="10.211699958890676">
        <ele>726.40999999999997</ele>
        <time>2018-09-19T07:22:06Z</time>
      </trkpt>
      <trkpt lat="47.560160038992763" lon="10.211693001911044">
        <ele>726.40999999999997</ele>
        <time>2018-09-19T07:22:07Z</time>
      </trkpt>
      <trkpt lat="47.560244025662541" lon="10.211685039103031">
        <ele>726.40999999999997</ele>
        <time>2018-09-19T07:22:08Z</time>
      </trkpt>
      <trkpt lat="47.560430020093918" lon="10.211613960564137">
        <ele>725.45000000000005</ele>
        <time>2018-09-19T07:22:10Z</time>
      </trkpt>
      <trkpt lat="47.560621965676546" lon="10.211541038006544">
        <ele>724.97000000000003</ele>
        <time>2018-09-19T07:22:12Z</time>
      </trkpt>
      <trkpt lat="47.561205010861158" lon="10.211411034688354">
        <ele>722.57000000000005</ele>
        <time>2018-09-19T07:22:19Z</time>
      </trkpt>
      <trkpt lat="47.56127399392426" lon="10.211492003872991">
        <ele>722.57000000000005</ele>
        <time>2018-09-19T07:22:20Z</time>
      </trkpt>
      <trkpt lat="47.561295032501221" lon="10.211512036621571">
        <ele>722.09000000000003</ele>
        <time>2018-09-19T07:22:21Z</time>
      </trkpt>
      <trkpt lat="47.561338031664491" lon="10.211555035784841">
        <ele>722.09000000000003</ele>
        <time>2018-09-19T07:22:22Z</time>
      </trkpt>
      <trkpt lat="47.561443978920579" lon="10.211536008864641">
        <ele>722.09000000000003</ele>
        <time>2018-09-19T07:22:23Z</time>
      </trkpt>
      <trkpt lat="47.56148898974061" lon="10.211492003872991">
        <ele>722.09000000000003</ele>
        <time>2018-09-19T07:22:24Z</time>
      </trkpt>
      <trkpt lat="47.56148898974061" lon="10.211320007219911">
        <ele>722.09000000000003</ele>
        <time>2018-09-19T07:22:25Z</time>
      </trkpt>
      <trkpt lat="47.561540035530925" lon="10.21125596947968">
        <ele>722.09000000000003</ele>
        <time>2018-09-19T07:22:26Z</time>
      </trkpt>
      <trkpt lat="47.561613041907549" lon="10.211196960881352">
        <ele>721.61000000000001</ele>
        <time>2018-09-19T07:22:27Z</time>
      </trkpt>
      <trkpt lat="47.561699040234089" lon="10.211163014173508">
        <ele>721.61000000000001</ele>
        <time>2018-09-19T07:22:28Z</time>
      </trkpt>
      <trkpt lat="47.561790989711881" lon="10.211125966161489">
        <ele>721.61000000000001</ele>
        <time>2018-09-19T07:22:29Z</time>
      </trkpt>
      <trkpt lat="47.561894003301859" lon="10.211084978654981">
        <ele>721.61000000000001</ele>
        <time>2018-09-19T07:22:30Z</time>
      </trkpt>
      <trkpt lat="47.562001962214708" lon="10.211041979491711">
        <ele>721.61000000000001</ele>
        <time>2018-09-19T07:22:31Z</time>
      </trkpt>
      <trkpt lat="47.562114028260112" lon="10.210996968671679">
        <ele>721.13</ele>
        <time>2018-09-19T07:22:32Z</time>
      </trkpt>
      <trkpt lat="47.562547959387302" lon="10.21078297868371">
        <ele>720.64999999999998</ele>
        <time>2018-09-19T07:22:36Z</time>
      </trkpt>
      <trkpt lat="47.563510034233332" lon="10.20985602401197">
        <ele>721.61000000000001</ele>
        <time>2018-09-19T07:22:46Z</time>
      </trkpt>
      <trkpt lat="47.564491974189878" lon="10.208777021616697">
        <ele>725.92999999999995</ele>
        <time>2018-09-19T07:22:56Z</time>
      </trkpt>
      <trkpt lat="47.565400991588831" lon="10.207293005660176">
        <ele>729.29999999999995</ele>
        <time>2018-09-19T07:23:06Z</time>
      </trkpt>
      <trkpt lat="47.566373040899634" lon="10.204942971467972">
        <ele>731.22000000000003</ele>
        <time>2018-09-19T07:23:17Z</time>
      </trkpt>
      <trkpt lat="47.56754701025784" lon="10.202370984479785">
        <ele>734.10000000000002</ele>
        <time>2018-09-19T07:23:29Z</time>
      </trkpt>
      <trkpt lat="47.567811040207744" lon="10.202063033357263">
        <ele>734.10000000000002</ele>
        <time>2018-09-19T07:23:31Z</time>
      </trkpt>
      <trkpt lat="47.567972978577018" lon="10.201950967311859">
        <ele>734.10000000000002</ele>
        <time>2018-09-19T07:23:32Z</time>
      </trkpt>
      <trkpt lat="47.568137012422085" lon="10.201854994520545">
        <ele>734.10000000000002</ele>
        <time>2018-09-19T07:23:33Z</time>
      </trkpt>
      <trkpt lat="47.568301968276501" lon="10.20175801590085">
        <ele>734.10000000000002</ele>
        <time>2018-09-19T07:23:34Z</time>
      </trkpt>
      <trkpt lat="47.568474970757961" lon="10.201660031452775">
        <ele>734.58000000000004</ele>
        <time>2018-09-19T07:23:35Z</time>
      </trkpt>
      <trkpt lat="47.568647973239422" lon="10.201605968177319">
        <ele>734.58000000000004</ele>
        <time>2018-09-19T07:23:36Z</time>
      </trkpt>
      <trkpt lat="47.570140035822988" lon="10.201127026230097">
        <ele>736.02999999999997</ele>
        <time>2018-09-19T07:23:46Z</time>
      </trkpt>
      <trkpt lat="47.571613993495703" lon="10.200567031279206">
        <ele>741.78999999999996</ele>
        <time>2018-09-19T07:23:57Z</time>
      </trkpt>
      <trkpt lat="47.57261898368597" lon="10.200135027989745">
        <ele>748.51999999999998</ele>
        <time>2018-09-19T07:24:04Z</time>
      </trkpt>
      <trkpt lat="47.572891982272267" lon="10.19988901913166">
        <ele>750.92999999999995</ele>
        <time>2018-09-19T07:24:06Z</time>
      </trkpt>
      <trkpt lat="47.573023997247219" lon="10.199743006378412">
        <ele>752.37</ele>
        <time>2018-09-19T07:24:07Z</time>
      </trkpt>
      <trkpt lat="47.57343496195972" lon="10.199350984767079">
        <ele>757.17999999999995</ele>
        <time>2018-09-19T07:24:10Z</time>
      </trkpt>
      <trkpt lat="47.573548033833504" lon="10.199260963127017">
        <ele>758.13999999999999</ele>
        <time>2018-09-19T07:24:11Z</time>
      </trkpt>
      <trkpt lat="47.573705026879907" lon="10.199240008369088">
        <ele>759.58000000000004</ele>
        <time>2018-09-19T07:24:12Z</time>
      </trkpt>
      <trkpt lat="47.573869982734323" lon="10.199217963963747">
        <ele>761.01999999999998</ele>
        <time>2018-09-19T07:24:13Z</time>
      </trkpt>
      <trkpt lat="47.573993029072881" lon="10.199251994490623">
        <ele>762.46000000000004</ele>
        <time>2018-09-19T07:24:14Z</time>
      </trkpt>
      <trkpt lat="47.574145998805761" lon="10.199293987825513">
        <ele>763.89999999999998</ele>
        <time>2018-09-19T07:24:15Z</time>
      </trkpt>
      <trkpt lat="47.57446400821209" lon="10.199381997808814">
        <ele>766.78999999999996</ele>
        <time>2018-09-19T07:24:17Z</time>
      </trkpt>
      <trkpt lat="47.574639022350311" lon="10.199355008080602">
        <ele>768.23000000000002</ele>
        <time>2018-09-19T07:24:18Z</time>
      </trkpt>
      <trkpt lat="47.574810013175011" lon="10.199315026402473">
        <ele>770.14999999999998</ele>
        <time>2018-09-19T07:24:19Z</time>
      </trkpt>
      <trkpt lat="47.575266994535923" lon="10.19924595952034">
        <ele>774</ele>
        <time>2018-09-19T07:24:22Z</time>
      </trkpt>
      <trkpt lat="47.575392974540591" lon="10.199322989210486">
        <ele>775.44000000000005</ele>
        <time>2018-09-19T07:24:23Z</time>
      </trkpt>
      <trkpt lat="47.575505962595344" lon="10.199397001415491">
        <ele>776.88</ele>
        <time>2018-09-19T07:24:24Z</time>
      </trkpt>
      <trkpt lat="47.575609982013702" lon="10.199520969763398">
        <ele>778.32000000000005</ele>
        <time>2018-09-19T07:24:25Z</time>
      </trkpt>
      <trkpt lat="47.575717018917203" lon="10.199648961424828">
        <ele>779.76999999999998</ele>
        <time>2018-09-19T07:24:26Z</time>
      </trkpt>
      <trkpt lat="47.575827995315194" lon="10.19978298805654">
        <ele>781.21000000000004</ele>
        <time>2018-09-19T07:24:27Z</time>
      </trkpt>
      <trkpt lat="47.575939977541566" lon="10.199917014688253">
        <ele>782.64999999999998</ele>
        <time>2018-09-19T07:24:28Z</time>
      </trkpt>
      <trkpt lat="47.576131001114845" lon="10.200221026316285">
        <ele>785.04999999999995</ele>
        <time>2018-09-19T07:24:30Z</time>
      </trkpt>
      <trkpt lat="47.576209036633372" lon="10.200377013534307">
        <ele>786.01999999999998</ele>
        <time>2018-09-19T07:24:31Z</time>
      </trkpt>
      <trkpt lat="47.57624801248312" lon="10.200545992702246">
        <ele>786.98000000000002</ele>
        <time>2018-09-19T07:24:32Z</time>
      </trkpt>
      <trkpt lat="47.576271984726191" lon="10.200712038204074">
        <ele>787.94000000000005</ele>
        <time>2018-09-19T07:24:33Z</time>
      </trkpt>
      <trkpt lat="47.576295034959912" lon="10.200874982401729">
        <ele>788.89999999999998</ele>
        <time>2018-09-19T07:24:34Z</time>
      </trkpt>
      <trkpt lat="47.576298974454403" lon="10.201042033731937">
        <ele>789.86000000000001</ele>
        <time>2018-09-19T07:24:35Z</time>
      </trkpt>
      <trkpt lat="47.576309032738209" lon="10.201379992067814">
        <ele>791.77999999999997</ele>
        <time>2018-09-19T07:24:37Z</time>
      </trkpt>
      <trkpt lat="47.57631397806108" lon="10.201556012034416">
        <ele>792.74000000000001</ele>
        <time>2018-09-19T07:24:38Z</time>
      </trkpt>
      <trkpt lat="47.57635697722435" lon="10.201721973717213">
        <ele>793.22000000000003</ele>
        <time>2018-09-19T07:24:39Z</time>
      </trkpt>
      <trkpt lat="47.576414979994297" lon="10.20186304114759">
        <ele>794.19000000000005</ele>
        <time>2018-09-19T07:24:40Z</time>
      </trkpt>
      <trkpt lat="47.576477006077766" lon="10.20199597813189">
        <ele>795.14999999999998</ele>
        <time>2018-09-19T07:24:41Z</time>
      </trkpt>
      <trkpt lat="47.576566021889448" lon="10.202084993943572">
        <ele>796.59000000000003</ele>
        <time>2018-09-19T07:24:42Z</time>
      </trkpt>
      <trkpt lat="47.576663000509143" lon="10.202179960906506">
        <ele>797.54999999999995</ele>
        <time>2018-09-19T07:24:43Z</time>
      </trkpt>
      <trkpt lat="47.576770959421992" lon="10.202216003090143">
        <ele>798.99000000000001</ele>
        <time>2018-09-19T07:24:44Z</time>
      </trkpt>
      <trkpt lat="47.576884031295776" lon="10.202218014746904">
        <ele>799.95000000000005</ele>
        <time>2018-09-19T07:24:45Z</time>
      </trkpt>
      <trkpt lat="47.576992996037006" lon="10.202212985605001">
        <ele>800.44000000000005</ele>
        <time>2018-09-19T07:24:46Z</time>
      </trkpt>
      <trkpt lat="47.577230958268046" lon="10.202203011140227">
        <ele>801.39999999999998</ele>
        <time>2018-09-19T07:24:48Z</time>
      </trkpt>
      <trkpt lat="47.577348975464702" lon="10.202226983383298">
        <ele>801.88</ele>
        <time>2018-09-19T07:24:49Z</time>
      </trkpt>
      <trkpt lat="47.577458024024963" lon="10.202270988374949">
        <ele>802.36000000000001</ele>
        <time>2018-09-19T07:24:50Z</time>
      </trkpt>
      <trkpt lat="47.577553996816278" lon="10.202361010015011">
        <ele>802.36000000000001</ele>
        <time>2018-09-19T07:24:51Z</time>
      </trkpt>
      <trkpt lat="47.577637983486056" lon="10.202470980584621">
        <ele>802.84000000000003</ele>
        <time>2018-09-19T07:24:52Z</time>
      </trkpt>
      <trkpt lat="47.577723981812596" lon="10.202592015266418">
        <ele>802.84000000000003</ele>
        <time>2018-09-19T07:24:53Z</time>
      </trkpt>
      <trkpt lat="47.57779598236084" lon="10.202730987221003">
        <ele>803.32000000000005</ele>
        <time>2018-09-19T07:24:54Z</time>
      </trkpt>
      <trkpt lat="47.578577008098364" lon="10.204153982922435">
        <ele>806.67999999999995</ele>
        <time>2018-09-19T07:25:04Z</time>
      </trkpt>
      <trkpt lat="47.578654959797859" lon="10.204290021210909">
        <ele>807.15999999999997</ele>
        <time>2018-09-19T07:25:05Z</time>
      </trkpt>
      <trkpt lat="47.578730983659625" lon="10.204425975680351">
        <ele>807.15999999999997</ele>
        <time>2018-09-19T07:25:06Z</time>
      </trkpt>
      <trkpt lat="47.578812036663294" lon="10.204532006755471">
        <ele>807.63999999999999</ele>
        <time>2018-09-19T07:25:07Z</time>
      </trkpt>
      <trkpt lat="47.578919995576143" lon="10.204585986211896">
        <ele>807.63999999999999</ele>
        <time>2018-09-19T07:25:08Z</time>
      </trkpt>
      <trkpt lat="47.579028960317373" lon="10.204640971496701">
        <ele>807.63999999999999</ele>
        <time>2018-09-19T07:25:09Z</time>
      </trkpt>
      <trkpt lat="47.579145971685648" lon="10.204609036445618">
        <ele>807.63999999999999</ele>
        <time>2018-09-19T07:25:10Z</time>
      </trkpt>
      <trkpt lat="47.579266000539064" lon="10.204566037282348">
        <ele>808.13</ele>
        <time>2018-09-19T07:25:11Z</time>
      </trkpt>
      <trkpt lat="47.579378988593817" lon="10.204476015642285">
        <ele>808.61000000000001</ele>
        <time>2018-09-19T07:25:12Z</time>
      </trkpt>
      <trkpt lat="47.579456018283963" lon="10.204345006495714">
        <ele>809.09000000000003</ele>
        <time>2018-09-19T07:25:13Z</time>
      </trkpt>
      <trkpt lat="47.579531958326697" lon="10.204215003177524">
        <ele>809.57000000000005</ele>
        <time>2018-09-19T07:25:14Z</time>
      </trkpt>
      <trkpt lat="47.579581998288631" lon="10.204051975160837">
        <ele>810.04999999999995</ele>
        <time>2018-09-19T07:25:15Z</time>
      </trkpt>
      <trkpt lat="47.579619968309999" lon="10.203878972679377">
        <ele>810.52999999999997</ele>
        <time>2018-09-19T07:25:16Z</time>
      </trkpt>
      <trkpt lat="47.579656010493636" lon="10.2037120051682">
        <ele>811.49000000000001</ele>
        <time>2018-09-19T07:25:17Z</time>
      </trkpt>
      <trkpt lat="47.579691968858242" lon="10.203545959666371">
        <ele>812.45000000000005</ele>
        <time>2018-09-19T07:25:18Z</time>
      </trkpt>
      <trkpt lat="47.57972801104188" lon="10.203381003811955">
        <ele>812.92999999999995</ele>
        <time>2018-09-19T07:25:19Z</time>
      </trkpt>
      <trkpt lat="47.579776961356401" lon="10.203233985230327">
        <ele>812.92999999999995</ele>
        <time>2018-09-19T07:25:20Z</time>
      </trkpt>
      <trkpt lat="47.579859020188451" lon="10.203105993568897">
        <ele>813.40999999999997</ele>
        <time>2018-09-19T07:25:21Z</time>
      </trkpt>
      <trkpt lat="47.579947030171752" lon="10.202998034656048">
        <ele>813.40999999999997</ele>
        <time>2018-09-19T07:25:22Z</time>
      </trkpt>
      <trkpt lat="47.580046020448208" lon="10.202914969995618">
        <ele>813.88999999999999</ele>
        <time>2018-09-19T07:25:23Z</time>
      </trkpt>
      <trkpt lat="47.580153979361057" lon="10.202849004417658">
        <ele>814.37</ele>
        <time>2018-09-19T07:25:24Z</time>
      </trkpt>
      <trkpt lat="47.580365035682917" lon="10.202720006927848">
        <ele>815.34000000000003</ele>
        <time>2018-09-19T07:25:26Z</time>
      </trkpt>
      <trkpt lat="47.580469977110624" lon="10.202655969187617">
        <ele>816.29999999999995</ele>
        <time>2018-09-19T07:25:27Z</time>
      </trkpt>
      <trkpt lat="47.580557987093925" lon="10.202528983354568">
        <ele>816.77999999999997</ele>
        <time>2018-09-19T07:25:28Z</time>
      </trkpt>
      <trkpt lat="47.580639040097594" lon="10.202405015006661">
        <ele>817.74000000000001</ele>
        <time>2018-09-19T07:25:29Z</time>
      </trkpt>
      <trkpt lat="47.580720009282231" lon="10.202280962839723">
        <ele>818.22000000000003</ele>
        <time>2018-09-19T07:25:30Z</time>
      </trkpt>
      <trkpt lat="47.58078102953732" lon="10.202139979228377">
        <ele>819.17999999999995</ele>
        <time>2018-09-19T07:25:31Z</time>
      </trkpt>
      <trkpt lat="47.580826040357351" lon="10.201979968696833">
        <ele>820.13999999999999</ele>
        <time>2018-09-19T07:25:32Z</time>
      </trkpt>
      <trkpt lat="47.580872979015112" lon="10.201811995357275">
        <ele>821.10000000000002</ele>
        <time>2018-09-19T07:25:33Z</time>
      </trkpt>
      <trkpt lat="47.580918995663524" lon="10.201648967340589">
        <ele>822.05999999999995</ele>
        <time>2018-09-19T07:25:34Z</time>
      </trkpt>
      <trkpt lat="47.581101972609758" lon="10.200996017083526">
        <ele>825.90999999999997</ele>
        <time>2018-09-19T07:25:38Z</time>
      </trkpt>
      <trkpt lat="47.581179002299905" lon="10.200856039300561">
        <ele>826.87</ele>
        <time>2018-09-19T07:25:39Z</time>
      </trkpt>
      <trkpt lat="47.581261983141303" lon="10.20072896964848">
        <ele>827.83000000000004</ele>
        <time>2018-09-19T07:25:40Z</time>
      </trkpt>
      <trkpt lat="47.581355022266507" lon="10.200627967715263">
        <ele>828.78999999999996</ele>
        <time>2018-09-19T07:25:41Z</time>
      </trkpt>
      <trkpt lat="47.58144797757268" lon="10.200527971610427">
        <ele>829.75999999999999</ele>
        <time>2018-09-19T07:25:42Z</time>
      </trkpt>
      <trkpt lat="47.581547973677516" lon="10.200436022132635">
        <ele>830.24000000000001</ele>
        <time>2018-09-19T07:25:43Z</time>
      </trkpt>
      <trkpt lat="47.581655010581017" lon="10.200365027412772">
        <ele>831.20000000000005</ele>
        <time>2018-09-19T07:25:44Z</time>
      </trkpt>
      <trkpt lat="47.581772021949291" lon="10.200315993279219">
        <ele>831.67999999999995</ele>
        <time>2018-09-19T07:25:45Z</time>
      </trkpt>
      <trkpt lat="47.581891966983676" lon="10.200285986065865">
        <ele>832.63999999999999</ele>
        <time>2018-09-19T07:25:46Z</time>
      </trkpt>
      <trkpt lat="47.582010990008712" lon="10.20025597885251">
        <ele>833.12</ele>
        <time>2018-09-19T07:25:47Z</time>
      </trkpt>
      <trkpt lat="47.582129007205367" lon="10.200226977467537">
        <ele>833.60000000000002</ele>
        <time>2018-09-19T07:25:48Z</time>
      </trkpt>
      <trkpt lat="47.582495966926217" lon="10.200127987191081">
        <ele>835.03999999999996</ele>
        <time>2018-09-19T07:25:51Z</time>
      </trkpt>
      <trkpt lat="47.582619013264775" lon="10.200055986642838">
        <ele>835.51999999999998</ele>
        <time>2018-09-19T07:25:52Z</time>
      </trkpt>
      <trkpt lat="47.583552002906799" lon="10.199146969243884">
        <ele>841.28999999999996</ele>
        <time>2018-09-19T07:25:58Z</time>
      </trkpt>
      <trkpt lat="47.585188988596201" lon="10.197419039905071">
        <ele>853.30999999999995</ele>
        <time>2018-09-19T07:26:08Z</time>
      </trkpt>
      <trkpt lat="47.585837999358773" lon="10.196587974205613">
        <ele>858.59000000000003</ele>
        <time>2018-09-19T07:26:13Z</time>
      </trkpt>
      <trkpt lat="47.586558004841208" lon="10.194872030988336">
        <ele>866.28999999999996</ele>
        <time>2018-09-19T07:26:21Z</time>
      </trkpt>
      <trkpt lat="47.586765959858894" lon="10.194467017427087">
        <ele>867.25</ele>
        <time>2018-09-19T07:26:23Z</time>
      </trkpt>
      <trkpt lat="47.586875008419156" lon="10.194269958883524">
        <ele>867.73000000000002</ele>
        <time>2018-09-19T07:26:24Z</time>
      </trkpt>
      <trkpt lat="47.586995959281921" lon="10.194097040221095">
        <ele>868.21000000000004</ele>
        <time>2018-09-19T07:26:25Z</time>
      </trkpt>
      <trkpt lat="47.587131997570395" lon="10.193945998325944">
        <ele>868.69000000000005</ele>
        <time>2018-09-19T07:26:26Z</time>
      </trkpt>
      <trkpt lat="47.587282033637166" lon="10.193820018321276">
        <ele>869.16999999999996</ele>
        <time>2018-09-19T07:26:27Z</time>
      </trkpt>
      <trkpt lat="47.587437015026808" lon="10.193691020831466">
        <ele>869.16999999999996</ele>
        <time>2018-09-19T07:26:28Z</time>
      </trkpt>
      <trkpt lat="47.587601970881224" lon="10.193583983927965">
        <ele>869.64999999999998</ele>
        <time>2018-09-19T07:26:29Z</time>
      </trkpt>
      <trkpt lat="47.587768016383052" lon="10.193483987823129">
        <ele>870.13</ele>
        <time>2018-09-19T07:26:30Z</time>
      </trkpt>
      <trkpt lat="47.588068004697561" lon="10.193269997835159">
        <ele>870.61000000000001</ele>
        <time>2018-09-19T07:26:32Z</time>
      </trkpt>
      <trkpt lat="47.588197002187371" lon="10.193117028102279">
        <ele>871.09000000000003</ele>
        <time>2018-09-19T07:26:33Z</time>
      </trkpt>
      <trkpt lat="47.588330022990704" lon="10.192958023399115">
        <ele>871.57000000000005</ele>
        <time>2018-09-19T07:26:34Z</time>
      </trkpt>
      <trkpt lat="47.588440999388695" lon="10.192766999825835">
        <ele>871.57000000000005</ele>
        <time>2018-09-19T07:26:35Z</time>
      </trkpt>
      <trkpt lat="47.588542001321912" lon="10.192560972645879">
        <ele>871.09000000000003</ele>
        <time>2018-09-19T07:26:36Z</time>
      </trkpt>
      <trkpt lat="47.588617019355297" lon="10.1923250220716">
        <ele>871.09000000000003</ele>
        <time>2018-09-19T07:26:37Z</time>
      </trkpt>
      <trkpt lat="47.588675022125244" lon="10.192064009606838">
        <ele>871.09000000000003</ele>
        <time>2018-09-19T07:26:38Z</time>
      </trkpt>
      <trkpt lat="47.588739981874824" lon="10.191771984100342">
        <ele>871.57000000000005</ele>
        <time>2018-09-19T07:26:39Z</time>
      </trkpt>
      <trkpt lat="47.588764037936926" lon="10.191523041576147">
        <ele>872.52999999999997</ele>
        <time>2018-09-19T07:26:40Z</time>
      </trkpt>
      <trkpt lat="47.588804019615054" lon="10.188813004642725">
        <ele>884.07000000000005</ele>
        <time>2018-09-19T07:26:49Z</time>
      </trkpt>
      <trkpt lat="47.588486010208726" lon="10.186500018462539">
        <ele>897.52999999999997</ele>
        <time>2018-09-19T07:26:57Z</time>
      </trkpt>
      <trkpt lat="47.588451979681849" lon="10.18628804013133">
        <ele>898.97000000000003</ele>
        <time>2018-09-19T07:26:58Z</time>
      </trkpt>
      <trkpt lat="47.588391965255141" lon="10.186119982972741">
        <ele>899.92999999999995</ele>
        <time>2018-09-19T07:26:59Z</time>
      </trkpt>
      <trkpt lat="47.588320970535278" lon="10.185976987704635">
        <ele>901.37</ele>
        <time>2018-09-19T07:27:00Z</time>
      </trkpt>
      <trkpt lat="47.588236983865499" lon="10.185883026570082">
        <ele>902.33000000000004</ele>
        <time>2018-09-19T07:27:01Z</time>
      </trkpt>
      <trkpt lat="47.588154003024101" lon="10.185799961909652">
        <ele>903.29999999999995</ele>
        <time>2018-09-19T07:27:02Z</time>
      </trkpt>
      <trkpt lat="47.588084014132619" lon="10.185729973018169">
        <ele>903.77999999999997</ele>
        <time>2018-09-19T07:27:03Z</time>
      </trkpt>
      <trkpt lat="47.588046966120601" lon="10.185623019933701">
        <ele>903.77999999999997</ele>
        <time>2018-09-19T07:27:04Z</time>
      </trkpt>
      <trkpt lat="47.588019976392388" lon="10.185530986636877">
        <ele>904.25999999999999</ele>
        <time>2018-09-19T07:27:05Z</time>
      </trkpt>
      <trkpt lat="47.587988963350654" lon="10.185421016067266">
        <ele>904.74000000000001</ele>
        <time>2018-09-19T07:27:06Z</time>
      </trkpt>
      <trkpt lat="47.588018970564008" lon="10.185339963063598">
        <ele>904.74000000000001</ele>
        <time>2018-09-19T07:27:07Z</time>
      </trkpt>
      <trkpt lat="47.588056018576026" lon="10.185247007757425">
        <ele>905.22000000000003</ele>
        <time>2018-09-19T07:27:08Z</time>
      </trkpt>
      <trkpt lat="47.588119972497225" lon="10.185205014422536">
        <ele>905.70000000000005</ele>
        <time>2018-09-19T07:27:09Z</time>
      </trkpt>
      <trkpt lat="47.588202031329274" lon="10.185176013037562">
        <ele>906.17999999999995</ele>
        <time>2018-09-19T07:27:10Z</time>
      </trkpt>
      <trkpt lat="47.588271014392376" lon="10.185222029685974">
        <ele>906.65999999999997</ele>
        <time>2018-09-19T07:27:11Z</time>
      </trkpt>
      <trkpt lat="47.588348966091871" lon="10.185313979163766">
        <ele>907.13999999999999</ele>
        <time>2018-09-19T07:27:12Z</time>
      </trkpt>
      <trkpt lat="47.588415015488863" lon="10.185425039380789">
        <ele>907.62</ele>
        <time>2018-09-19T07:27:13Z</time>
      </trkpt>
      <trkpt lat="47.588488021865487" lon="10.185549007728696">
        <ele>908.10000000000002</ele>
        <time>2018-09-19T07:27:14Z</time>
      </trkpt>
      <trkpt lat="47.588566979393363" lon="10.185683034360409">
        <ele>909.05999999999995</ele>
        <time>2018-09-19T07:27:15Z</time>
      </trkpt>
      <trkpt lat="47.588659012690187" lon="10.185780012980103">
        <ele>910.02999999999997</ele>
        <time>2018-09-19T07:27:16Z</time>
      </trkpt>
      <trkpt lat="47.588763032108545" lon="10.185850001871586">
        <ele>910.50999999999999</ele>
        <time>2018-09-19T07:27:17Z</time>
      </trkpt>
      <trkpt lat="47.588887000456452" lon="10.185850001871586">
        <ele>911.47000000000003</ele>
        <time>2018-09-19T07:27:18Z</time>
      </trkpt>
      <trkpt lat="47.589015997946262" lon="10.185814965516329">
        <ele>912.90999999999997</ele>
        <time>2018-09-19T07:27:19Z</time>
      </trkpt>
      <trkpt lat="47.58913803845644" lon="10.185747994109988">
        <ele>913.87</ele>
        <time>2018-09-19T07:27:20Z</time>
      </trkpt>
      <trkpt lat="47.589258989319205" lon="10.185680016875267">
        <ele>914.83000000000004</ele>
        <time>2018-09-19T07:27:21Z</time>
      </trkpt>
      <trkpt lat="47.589379018172622" lon="10.185645986348391">
        <ele>916.26999999999998</ele>
        <time>2018-09-19T07:27:22Z</time>
      </trkpt>
      <trkpt lat="47.589512960985303" lon="10.185684040188789">
        <ele>917.24000000000001</ele>
        <time>2018-09-19T07:27:23Z</time>
      </trkpt>
      <trkpt lat="47.589925015345216" lon="10.185799039900303">
        <ele>922.03999999999996</ele>
        <time>2018-09-19T07:27:26Z</time>
      </trkpt>
      <trkpt lat="47.590075973421335" lon="10.185801973566413">
        <ele>923</ele>
        <time>2018-09-19T07:27:27Z</time>
      </trkpt>
      <trkpt lat="47.590210000053048" lon="10.185728967189789">
        <ele>924.45000000000005</ele>
        <time>2018-09-19T07:27:28Z</time>
      </trkpt>
      <trkpt lat="47.590342015028" lon="10.185611033812165">
        <ele>925.40999999999997</ele>
        <time>2018-09-19T07:27:29Z</time>
      </trkpt>
      <trkpt lat="47.590462965890765" lon="10.18547298386693">
        <ele>926.85000000000002</ele>
        <time>2018-09-19T07:27:30Z</time>
      </trkpt>
      <trkpt lat="47.590588023886085" lon="10.185330994427204">
        <ele>927.80999999999995</ele>
        <time>2018-09-19T07:27:31Z</time>
      </trkpt>
      <trkpt lat="47.590717021375895" lon="10.185184981673956">
        <ele>929.25</ele>
        <time>2018-09-19T07:27:32Z</time>
      </trkpt>
      <trkpt lat="47.59085901081562" lon="10.185100995004177">
        <ele>930.21000000000004</ele>
        <time>2018-09-19T07:27:33Z</time>
      </trkpt>
      <trkpt lat="47.591012986376882" lon="10.185023965314031">
        <ele>931.16999999999996</ele>
        <time>2018-09-19T07:27:34Z</time>
      </trkpt>
      <trkpt lat="47.591166039928794" lon="10.184948025271297">
        <ele>932.13999999999999</ele>
        <time>2018-09-19T07:27:35Z</time>
      </trkpt>
      <trkpt lat="47.591318003833294" lon="10.184864038601518">
        <ele>933.10000000000002</ele>
        <time>2018-09-19T07:27:36Z</time>
      </trkpt>
      <trkpt lat="47.591456975787878" lon="10.184749960899353">
        <ele>933.58000000000004</ele>
        <time>2018-09-19T07:27:37Z</time>
      </trkpt>
      <trkpt lat="47.591581027954817" lon="10.184595985338092">
        <ele>934.05999999999995</ele>
        <time>2018-09-19T07:27:38Z</time>
      </trkpt>
      <trkpt lat="47.591684963554144" lon="10.184404039755464">
        <ele>935.01999999999998</ele>
        <time>2018-09-19T07:27:39Z</time>
      </trkpt>
      <trkpt lat="47.591789988800883" lon="10.184208992868662">
        <ele>935.5</ele>
        <time>2018-09-19T07:27:40Z</time>
      </trkpt>
      <trkpt lat="47.591853020712733" lon="10.183981005102396">
        <ele>936.46000000000004</ele>
        <time>2018-09-19T07:27:41Z</time>
      </trkpt>
      <trkpt lat="47.591905994340777" lon="10.183746982365847">
        <ele>937.41999999999996</ele>
        <time>2018-09-19T07:27:42Z</time>
      </trkpt>
      <trkpt lat="47.591919992119074" lon="10.183497034013271">
        <ele>938.38</ele>
        <time>2018-09-19T07:27:43Z</time>
      </trkpt>
      <trkpt lat="47.591924015432596" lon="10.183241972699761">
        <ele>939.35000000000002</ele>
        <time>2018-09-19T07:27:44Z</time>
      </trkpt>
      <trkpt lat="47.591928960755467" lon="10.18298196606338">
        <ele>940.30999999999995</ele>
        <time>2018-09-19T07:27:45Z</time>
      </trkpt>
      <trkpt lat="47.591712959110737" lon="10.180340996012092">
        <ele>950.39999999999998</ele>
        <time>2018-09-19T07:27:54Z</time>
      </trkpt>
      <trkpt lat="47.591443983837962" lon="10.178809035569429">
        <ele>952.79999999999995</ele>
        <time>2018-09-19T07:27:59Z</time>
      </trkpt>
      <trkpt lat="47.591431997716427" lon="10.178501000627875">
        <ele>952.32000000000005</ele>
        <time>2018-09-19T07:28:00Z</time>
      </trkpt>
      <trkpt lat="47.591471979394555" lon="10.178206963464618">
        <ele>951.84000000000003</ele>
        <time>2018-09-19T07:28:01Z</time>
      </trkpt>
      <trkpt lat="47.591512966901064" lon="10.177907980978489">
        <ele>950.88</ele>
        <time>2018-09-19T07:28:02Z</time>
      </trkpt>
      <trkpt lat="47.591556971892715" lon="10.17760899849236">
        <ele>949.91999999999996</ele>
        <time>2018-09-19T07:28:03Z</time>
      </trkpt>
      <trkpt lat="47.5916319899261" lon="10.177318984642625">
        <ele>948.96000000000004</ele>
        <time>2018-09-19T07:28:04Z</time>
      </trkpt>
      <trkpt lat="47.591727040708065" lon="10.177032994106412">
        <ele>947.51999999999998</ele>
        <time>2018-09-19T07:28:05Z</time>
      </trkpt>
      <trkpt lat="47.59184698574245" lon="10.176767036318779">
        <ele>945.59000000000003</ele>
        <time>2018-09-19T07:28:06Z</time>
      </trkpt>
      <trkpt lat="47.591989981010556" lon="10.176525972783566">
        <ele>944.14999999999998</ele>
        <time>2018-09-19T07:28:07Z</time>
      </trkpt>
      <trkpt lat="47.592131970450282" lon="10.176305025815964">
        <ele>943.19000000000005</ele>
        <time>2018-09-19T07:28:08Z</time>
      </trkpt>
      <trkpt lat="47.592375967651606" lon="10.175853995606303">
        <ele>940.78999999999996</ele>
        <time>2018-09-19T07:28:10Z</time>
      </trkpt>
      <trkpt lat="47.592486022040248" lon="10.175617039203644">
        <ele>939.83000000000004</ele>
        <time>2018-09-19T07:28:11Z</time>
      </trkpt>
      <trkpt lat="47.59255500510335" lon="10.175350997596979">
        <ele>938.86000000000001</ele>
        <time>2018-09-19T07:28:12Z</time>
      </trkpt>
      <trkpt lat="47.592608984559774" lon="10.175070036202669">
        <ele>937.89999999999998</ele>
        <time>2018-09-19T07:28:13Z</time>
      </trkpt>
      <trkpt lat="47.592649972066283" lon="10.174787985160947">
        <ele>937.41999999999996</ele>
        <time>2018-09-19T07:28:14Z</time>
      </trkpt>
      <trkpt lat="47.59266396984458" lon="10.17449202015996">
        <ele>936.46000000000004</ele>
        <time>2018-09-19T07:28:15Z</time>
      </trkpt>
      <trkpt lat="47.592636980116367" lon="10.17419395968318">
        <ele>935.98000000000002</ele>
        <time>2018-09-19T07:28:16Z</time>
      </trkpt>
      <trkpt lat="47.592596998438239" lon="10.173887014389038">
        <ele>935.5</ele>
        <time>2018-09-19T07:28:17Z</time>
      </trkpt>
      <trkpt lat="47.592546036466956" lon="10.173574034124613">
        <ele>934.53999999999996</ele>
        <time>2018-09-19T07:28:18Z</time>
      </trkpt>
      <trkpt lat="47.592493984848261" lon="10.173258036375046">
        <ele>933.58000000000004</ele>
        <time>2018-09-19T07:28:19Z</time>
      </trkpt>
      <trkpt lat="47.592205982655287" lon="10.171133978292346">
        <ele>929.25</ele>
        <time>2018-09-19T07:28:26Z</time>
      </trkpt>
      <trkpt lat="47.592128030955791" lon="10.170857962220907">
        <ele>929.25</ele>
        <time>2018-09-19T07:28:27Z</time>
      </trkpt>
      <trkpt lat="47.592031974345446" lon="10.170586975291371">
        <ele>929.25</ele>
        <time>2018-09-19T07:28:28Z</time>
      </trkpt>
      <trkpt lat="47.591914040967822" lon="10.170335015282035">
        <ele>928.76999999999998</ele>
        <time>2018-09-19T07:28:29Z</time>
      </trkpt>
      <trkpt lat="47.591770039871335" lon="10.170100992545485">
        <ele>928.28999999999996</ele>
        <time>2018-09-19T07:28:30Z</time>
      </trkpt>
      <trkpt lat="47.591623021289706" lon="10.169861018657684">
        <ele>927.80999999999995</ele>
        <time>2018-09-19T07:28:31Z</time>
      </trkpt>
      <trkpt lat="47.591474996879697" lon="10.169620960950851">
        <ele>926.85000000000002</ele>
        <time>2018-09-19T07:28:32Z</time>
      </trkpt>
      <trkpt lat="47.591062020510435" lon="10.168946972116828">
        <ele>923.96000000000004</ele>
        <time>2018-09-19T07:28:35Z</time>
      </trkpt>
      <trkpt lat="47.590936962515116" lon="10.168705992400646">
        <ele>923</ele>
        <time>2018-09-19T07:28:36Z</time>
      </trkpt>
      <trkpt lat="47.590787010267377" lon="10.16815597191453">
        <ele>920.60000000000002</ele>
        <time>2018-09-19T07:28:38Z</time>
      </trkpt>
      <trkpt lat="47.590768989175558" lon="10.167868975549936">
        <ele>919.63999999999999</ele>
        <time>2018-09-19T07:28:39Z</time>
      </trkpt>
      <trkpt lat="47.590755997225642" lon="10.167561024427414">
        <ele>918.67999999999995</ele>
        <time>2018-09-19T07:28:40Z</time>
      </trkpt>
      <trkpt lat="47.590743005275726" lon="10.167243015021086">
        <ele>917.24000000000001</ele>
        <time>2018-09-19T07:28:41Z</time>
      </trkpt>
      <trkpt lat="47.590740993618965" lon="10.166917964816093">
        <ele>916.26999999999998</ele>
        <time>2018-09-19T07:28:42Z</time>
      </trkpt>
      <trkpt lat="47.590911984443665" lon="10.164168030023575">
        <ele>908.10000000000002</ele>
        <time>2018-09-19T07:28:50Z</time>
      </trkpt>
      <trkpt lat="47.591024972498417" lon="10.163159016519785">
        <ele>904.74000000000001</ele>
        <time>2018-09-19T07:28:53Z</time>
      </trkpt>
      <trkpt lat="47.591036036610603" lon="10.162818040698767">
        <ele>903.29999999999995</ele>
        <time>2018-09-19T07:28:54Z</time>
      </trkpt>
      <trkpt lat="47.590941991657019" lon="10.159600982442498">
        <ele>888.88</ele>
        <time>2018-09-19T07:29:03Z</time>
      </trkpt>
      <trkpt lat="47.590949032455683" lon="10.159236034378409">
        <ele>887.42999999999995</ele>
        <time>2018-09-19T07:29:04Z</time>
      </trkpt>
      <trkpt lat="47.59100703522563" lon="10.158871002495289">
        <ele>885.99000000000001</ele>
        <time>2018-09-19T07:29:05Z</time>
      </trkpt>
      <trkpt lat="47.591069983318448" lon="10.158510999754071">
        <ele>884.07000000000005</ele>
        <time>2018-09-19T07:29:06Z</time>
      </trkpt>
      <trkpt lat="47.59113997220993" lon="10.158150997012854">
        <ele>882.63</ele>
        <time>2018-09-19T07:29:07Z</time>
      </trkpt>
      <trkpt lat="47.591239968314767" lon="10.157809015363455">
        <ele>881.19000000000005</ele>
        <time>2018-09-19T07:29:08Z</time>
      </trkpt>
      <trkpt lat="47.591704996302724" lon="10.15582200139761">
        <ele>876.38</ele>
        <time>2018-09-19T07:29:14Z</time>
      </trkpt>
      <trkpt lat="47.591727962717414" lon="10.155481025576591">
        <ele>876.38</ele>
        <time>2018-09-19T07:29:15Z</time>
      </trkpt>
      <trkpt lat="47.591742966324091" lon="10.155139965936542">
        <ele>875.89999999999998</ele>
        <time>2018-09-19T07:29:16Z</time>
      </trkpt>
      <trkpt lat="47.591861989349127" lon="10.151950987055898">
        <ele>872.52999999999997</ele>
        <time>2018-09-19T07:29:25Z</time>
      </trkpt>
      <trkpt lat="47.592029040679336" lon="10.148680033162236">
        <ele>863.88</ele>
        <time>2018-09-19T07:29:34Z</time>
      </trkpt>
      <trkpt lat="47.592164995148778" lon="10.143690034747124">
        <ele>861.48000000000002</ele>
        <time>2018-09-19T07:29:48Z</time>
      </trkpt>
      <trkpt lat="47.59242600761354" lon="10.138355037197471">
        <ele>861.96000000000004</ele>
        <time>2018-09-19T07:30:03Z</time>
      </trkpt>
      <trkpt lat="47.592546036466956" lon="10.136304991319776">
        <ele>860.03999999999996</ele>
        <time>2018-09-19T07:30:09Z</time>
      </trkpt>
      <trkpt lat="47.592588029801846" lon="10.135982958599925">
        <ele>860.03999999999996</ele>
        <time>2018-09-19T07:30:10Z</time>
      </trkpt>
      <trkpt lat="47.59266497567296" lon="10.135665033012629">
        <ele>860.03999999999996</ele>
        <time>2018-09-19T07:30:11Z</time>
      </trkpt>
      <trkpt lat="47.592759020626545" lon="10.135352974757552">
        <ele>860.03999999999996</ele>
        <time>2018-09-19T07:30:12Z</time>
      </trkpt>
      <trkpt lat="47.592865973711014" lon="10.13504502363503">
        <ele>860.51999999999998</ele>
        <time>2018-09-19T07:30:13Z</time>
      </trkpt>
      <trkpt lat="47.592982985079288" lon="10.134739000350237">
        <ele>860.51999999999998</ele>
        <time>2018-09-19T07:30:14Z</time>
      </trkpt>
      <trkpt lat="47.593649011105299" lon="10.132760033011436">
        <ele>859.08000000000004</ele>
        <time>2018-09-19T07:30:21Z</time>
      </trkpt>
      <trkpt lat="47.593734003603458" lon="10.132344039157033">
        <ele>858.11000000000001</ele>
        <time>2018-09-19T07:30:23Z</time>
      </trkpt>
      <trkpt lat="47.593970960006118" lon="10.130724990740418">
        <ele>854.75</ele>
        <time>2018-09-19T07:30:32Z</time>
      </trkpt>
      <trkpt lat="47.594628017395735" lon="10.129189006984234">
        <ele>854.26999999999998</ele>
        <time>2018-09-19T07:30:42Z</time>
      </trkpt>
      <trkpt lat="47.59470303542912" lon="10.12905104085803">
        <ele>854.26999999999998</ele>
        <time>2018-09-19T07:30:43Z</time>
      </trkpt>
      <trkpt lat="47.594788027927279" lon="10.128942998126149">
        <ele>854.26999999999998</ele>
        <time>2018-09-19T07:30:44Z</time>
      </trkpt>
      <trkpt lat="47.594884000718594" lon="10.128840990364552">
        <ele>853.78999999999996</ele>
        <time>2018-09-19T07:30:45Z</time>
      </trkpt>
      <trkpt lat="47.594979973509908" lon="10.128737976774573">
        <ele>853.78999999999996</ele>
        <time>2018-09-19T07:30:46Z</time>
      </trkpt>
      <trkpt lat="47.595075024291873" lon="10.128649966791272">
        <ele>853.78999999999996</ele>
        <time>2018-09-19T07:30:47Z</time>
      </trkpt>
      <trkpt lat="47.595187006518245" lon="10.128587018698454">
        <ele>853.78999999999996</ele>
        <time>2018-09-19T07:30:48Z</time>
      </trkpt>
      <trkpt lat="47.595301000401378" lon="10.128522980958223">
        <ele>853.78999999999996</ele>
        <time>2018-09-19T07:30:49Z</time>
      </trkpt>
      <trkpt lat="47.595412982627749" lon="10.128469001501799">
        <ele>853.78999999999996</ele>
        <time>2018-09-19T07:30:50Z</time>
      </trkpt>
      <trkpt lat="47.595536028966308" lon="10.12845198623836">
        <ele>853.78999999999996</ele>
        <time>2018-09-19T07:30:51Z</time>
      </trkpt>
      <trkpt lat="47.595656979829073" lon="10.128434970974922">
        <ele>854.26999999999998</ele>
        <time>2018-09-19T07:30:52Z</time>
      </trkpt>
      <trkpt lat="47.596593992784619" lon="10.128266997635365">
        <ele>857.63</ele>
        <time>2018-09-19T07:31:01Z</time>
      </trkpt>
      <trkpt lat="47.596933962777257" lon="10.128114027902484">
        <ele>859.55999999999995</ele>
        <time>2018-09-19T07:31:05Z</time>
      </trkpt>
      <trkpt lat="47.597010992467403" lon="10.128068011254072">
        <ele>861</ele>
        <time>2018-09-19T07:31:06Z</time>
      </trkpt>
      <trkpt lat="47.597092967480421" lon="10.12802098877728">
        <ele>862.44000000000005</ele>
        <time>2018-09-19T07:31:07Z</time>
      </trkpt>
      <trkpt lat="47.597508961334825" lon="10.127768022939563">
        <ele>866.28999999999996</ele>
        <time>2018-09-19T07:31:12Z</time>
      </trkpt>
      <trkpt lat="47.597551960498095" lon="10.12770096771419">
        <ele>865.79999999999995</ele>
        <time>2018-09-19T07:31:13Z</time>
      </trkpt>
      <trkpt lat="47.597594037652016" lon="10.127627961337566">
        <ele>864.84000000000003</ele>
        <time>2018-09-19T07:31:14Z</time>
      </trkpt>
      <trkpt lat="47.597602000460029" lon="10.127595020458102">
        <ele>864.36000000000001</ele>
        <time>2018-09-19T07:31:15Z</time>
      </trkpt>
      <trkpt lat="47.597602000460029" lon="10.127488989382982">
        <ele>863.39999999999998</ele>
        <time>2018-09-19T07:31:16Z</time>
      </trkpt>
      <trkpt lat="47.597592025995255" lon="10.127385975793004">
        <ele>862.91999999999996</ele>
        <time>2018-09-19T07:31:17Z</time>
      </trkpt>
      <trkpt lat="47.597567969933152" lon="10.127256978303194">
        <ele>862.44000000000005</ele>
        <time>2018-09-19T07:31:18Z</time>
      </trkpt>
      <trkpt lat="47.59754198603332" lon="10.127109959721565">
        <ele>861.96000000000004</ele>
        <time>2018-09-19T07:31:19Z</time>
      </trkpt>
      <trkpt lat="47.597513990476727" lon="10.126951960846782">
        <ele>861.96000000000004</ele>
        <time>2018-09-19T07:31:20Z</time>
      </trkpt>
      <trkpt lat="47.59749798104167" lon="10.12679697945714">
        <ele>861.48000000000002</ele>
        <time>2018-09-19T07:31:21Z</time>
      </trkpt>
      <trkpt lat="47.597481971606612" lon="10.126649960875511">
        <ele>861.48000000000002</ele>
        <time>2018-09-19T07:31:22Z</time>
      </trkpt>
      <trkpt lat="47.597490018233657" lon="10.12647301889956">
        <ele>861.48000000000002</ele>
        <time>2018-09-19T07:31:23Z</time>
      </trkpt>
      <trkpt lat="47.59751901961863" lon="10.126318037509918">
        <ele>861.48000000000002</ele>
        <time>2018-09-19T07:31:24Z</time>
      </trkpt>
      <trkpt lat="47.597551038488746" lon="10.126156015321612">
        <ele>861</ele>
        <time>2018-09-19T07:31:25Z</time>
      </trkpt>
      <trkpt lat="47.597840968519449" lon="10.124806025996804">
        <ele>860.51999999999998</ele>
        <time>2018-09-19T07:31:33Z</time>
      </trkpt>
      <trkpt lat="47.598300967365503" lon="10.122911967337132">
        <ele>855.23000000000002</ele>
        <time>2018-09-19T07:31:44Z</time>
      </trkpt>
      <trkpt lat="47.598912008106709" lon="10.121194012463093">
        <ele>854.75</ele>
        <time>2018-09-19T07:31:55Z</time>
      </trkpt>
      <trkpt lat="47.599758999422193" lon="10.118980016559362">
        <ele>856.19000000000005</ele>
        <time>2018-09-19T07:32:09Z</time>
      </trkpt>
      <trkpt lat="47.600415972992778" lon="10.117267007008195">
        <ele>852.35000000000002</ele>
        <time>2018-09-19T07:32:19Z</time>
      </trkpt>
      <trkpt lat="47.60095501318574" lon="10.116070993244648">
        <ele>850.89999999999998</ele>
        <time>2018-09-19T07:32:24Z</time>
      </trkpt>
      <trkpt lat="47.601516013965011" lon="10.114182969555259">
        <ele>851.38</ele>
        <time>2018-09-19T07:32:32Z</time>
      </trkpt>
      <trkpt lat="47.601592959836125" lon="10.113945007324219">
        <ele>850.89999999999998</ele>
        <time>2018-09-19T07:32:33Z</time>
      </trkpt>
      <trkpt lat="47.602510023862123" lon="10.112104006111622">
        <ele>847.53999999999996</ele>
        <time>2018-09-19T07:32:42Z</time>
      </trkpt>
      <trkpt lat="47.603602018207312" lon="10.110341040417552">
        <ele>844.17999999999995</ele>
        <time>2018-09-19T07:32:51Z</time>
      </trkpt>
      <trkpt lat="47.604873972013593" lon="10.109124993905425">
        <ele>840.33000000000004</ele>
        <time>2018-09-19T07:32:59Z</time>
      </trkpt>
      <trkpt lat="47.60639201849699" lon="10.107882041484118">
        <ele>836.96000000000004</ele>
        <time>2018-09-19T07:33:10Z</time>
      </trkpt>
      <trkpt lat="47.607825994491577" lon="10.106698013842106">
        <ele>833.60000000000002</ele>
        <time>2018-09-19T07:33:19Z</time>
      </trkpt>
      <trkpt lat="47.610175022855401" lon="10.10483798570931">
        <ele>828.30999999999995</ele>
        <time>2018-09-19T07:33:32Z</time>
      </trkpt>
      <trkpt lat="47.611430967226624" lon="10.103841964155436">
        <ele>825.90999999999997</ele>
        <time>2018-09-19T07:33:40Z</time>
      </trkpt>
      <trkpt lat="47.612670985981822" lon="10.102501027286053">
        <ele>823.02999999999997</ele>
        <time>2018-09-19T07:33:50Z</time>
      </trkpt>
      <trkpt lat="47.614231025800109" lon="10.100578973069787">
        <ele>819.17999999999995</ele>
        <time>2018-09-19T07:34:01Z</time>
      </trkpt>
      <trkpt lat="47.616137992590666" lon="10.098182000219822">
        <ele>812.92999999999995</ele>
        <time>2018-09-19T07:34:14Z</time>
      </trkpt>
      <trkpt lat="47.618286022916436" lon="10.095286974683404">
        <ele>810.04999999999995</ele>
        <time>2018-09-19T07:34:29Z</time>
      </trkpt>
      <trkpt lat="47.619553031399846" lon="10.09364596568048">
        <ele>807.63999999999999</ele>
        <time>2018-09-19T07:34:38Z</time>
      </trkpt>
      <trkpt lat="47.61969200335443" lon="10.093482015654445">
        <ele>807.63999999999999</ele>
        <time>2018-09-19T07:34:39Z</time>
      </trkpt>
      <trkpt lat="47.619834998622537" lon="10.093339020386338">
        <ele>807.15999999999997</ele>
        <time>2018-09-19T07:34:40Z</time>
      </trkpt>
      <trkpt lat="47.619990985840559" lon="10.093242041766644">
        <ele>806.67999999999995</ele>
        <time>2018-09-19T07:34:41Z</time>
      </trkpt>
      <trkpt lat="47.620759019628167" lon="10.092724962159991">
        <ele>805.24000000000001</ele>
        <time>2018-09-19T07:34:46Z</time>
      </trkpt>
      <trkpt lat="47.620892040431499" lon="10.092561012133956">
        <ele>805.24000000000001</ele>
        <time>2018-09-19T07:34:47Z</time>
      </trkpt>
      <trkpt lat="47.621005028486252" lon="10.092374011874199">
        <ele>804.75999999999999</ele>
        <time>2018-09-19T07:34:48Z</time>
      </trkpt>
      <trkpt lat="47.62108800932765" lon="10.092149041593075">
        <ele>804.27999999999997</ele>
        <time>2018-09-19T07:34:49Z</time>
      </trkpt>
      <trkpt lat="47.621160009875894" lon="10.091906972229481">
        <ele>804.27999999999997</ele>
        <time>2018-09-19T07:34:50Z</time>
      </trkpt>
      <trkpt lat="47.621234022080898" lon="10.091657023876905">
        <ele>803.79999999999995</ele>
        <time>2018-09-19T07:34:51Z</time>
      </trkpt>
      <trkpt lat="47.621292024850845" lon="10.091397017240524">
        <ele>803.79999999999995</ele>
        <time>2018-09-19T07:34:52Z</time>
      </trkpt>
      <trkpt lat="47.622137004509568" lon="10.087634967640042">
        <ele>802.84000000000003</ele>
        <time>2018-09-19T07:35:06Z</time>
      </trkpt>
      <trkpt lat="47.622954994440079" lon="10.08571601472795">
        <ele>798.02999999999997</ele>
        <time>2018-09-19T07:35:14Z</time>
      </trkpt>
      <trkpt lat="47.624100968241692" lon="10.083921030163765">
        <ele>792.74000000000001</ele>
        <time>2018-09-19T07:35:23Z</time>
      </trkpt>
      <trkpt lat="47.625463027507067" lon="10.081963017582893">
        <ele>787.46000000000004</ele>
        <time>2018-09-19T07:35:34Z</time>
      </trkpt>
      <trkpt lat="47.626529959961772" lon="10.080754011869431">
        <ele>789.86000000000001</ele>
        <time>2018-09-19T07:35:42Z</time>
      </trkpt>
      <trkpt lat="47.627651039510965" lon="10.08008798584342">
        <ele>790.82000000000005</ele>
        <time>2018-09-19T07:35:51Z</time>
      </trkpt>
      <trkpt lat="47.627825969830155" lon="10.079974997788668">
        <ele>790.82000000000005</ele>
        <time>2018-09-19T07:35:53Z</time>
      </trkpt>
      <trkpt lat="47.627895036712289" lon="10.079927975311875">
        <ele>790.82000000000005</ele>
        <time>2018-09-19T07:35:54Z</time>
      </trkpt>
      <trkpt lat="47.627953039482236" lon="10.079886987805367">
        <ele>790.34000000000003</ele>
        <time>2018-09-19T07:35:55Z</time>
      </trkpt>
      <trkpt lat="47.628004001453519" lon="10.079852035269141">
        <ele>790.82000000000005</ele>
        <time>2018-09-19T07:35:56Z</time>
      </trkpt>
      <trkpt lat="47.628164011985064" lon="10.079964017495513">
        <ele>790.34000000000003</ele>
        <time>2018-09-19T07:35:57Z</time>
      </trkpt>
      <trkpt lat="47.62822100892663" lon="10.080063007771969">
        <ele>790.34000000000003</ele>
        <time>2018-09-19T07:35:58Z</time>
      </trkpt>
      <trkpt lat="47.628290997818112" lon="10.080183958634734">
        <ele>790.34000000000003</ele>
        <time>2018-09-19T07:35:59Z</time>
      </trkpt>
      <trkpt lat="47.628368027508259" lon="10.08032301440835">
        <ele>790.34000000000003</ele>
        <time>2018-09-19T07:36:00Z</time>
      </trkpt>
      <trkpt lat="47.628790978342295" lon="10.081116026267409">
        <ele>788.89999999999998</ele>
        <time>2018-09-19T07:36:06Z</time>
      </trkpt>
      <trkpt lat="47.628829032182693" lon="10.081276958808303">
        <ele>788.41999999999996</ele>
        <time>2018-09-19T07:36:07Z</time>
      </trkpt>
      <trkpt lat="47.628859039396048" lon="10.081430012360215">
        <ele>787.94000000000005</ele>
        <time>2018-09-19T07:36:08Z</time>
      </trkpt>
      <trkpt lat="47.62888896279037" lon="10.081582982093096">
        <ele>787.46000000000004</ele>
        <time>2018-09-19T07:36:09Z</time>
      </trkpt>
      <trkpt lat="47.628918970003724" lon="10.081737041473389">
        <ele>786.98000000000002</ele>
        <time>2018-09-19T07:36:10Z</time>
      </trkpt>
      <trkpt lat="47.628947971388698" lon="10.081885987892747">
        <ele>786.5</ele>
        <time>2018-09-19T07:36:11Z</time>
      </trkpt>
      <trkpt lat="47.628975966945291" lon="10.082027977332473">
        <ele>786.5</ele>
        <time>2018-09-19T07:36:12Z</time>
      </trkpt>
      <trkpt lat="47.629027012735605" lon="10.082142977043986">
        <ele>786.01999999999998</ele>
        <time>2018-09-19T07:36:13Z</time>
      </trkpt>
      <trkpt lat="47.629107981920242" lon="10.082245990633965">
        <ele>785.52999999999997</ele>
        <time>2018-09-19T07:36:14Z</time>
      </trkpt>
      <trkpt lat="47.629193980246782" lon="10.082354033365846">
        <ele>785.52999999999997</ele>
        <time>2018-09-19T07:36:15Z</time>
      </trkpt>
      <trkpt lat="47.629279978573322" lon="10.082462998107076">
        <ele>785.52999999999997</ele>
        <time>2018-09-19T07:36:16Z</time>
      </trkpt>
      <trkpt lat="47.630139961838722" lon="10.083490032702684">
        <ele>785.52999999999997</ele>
        <time>2018-09-19T07:36:25Z</time>
      </trkpt>
      <trkpt lat="47.63022000901401" lon="10.083634033799171">
        <ele>785.04999999999995</ele>
        <time>2018-09-19T07:36:26Z</time>
      </trkpt>
      <trkpt lat="47.630257979035378" lon="10.083796977996826">
        <ele>784.09000000000003</ele>
        <time>2018-09-19T07:36:27Z</time>
      </trkpt>
      <trkpt lat="47.630297038704157" lon="10.083961011841893">
        <ele>783.61000000000001</ele>
        <time>2018-09-19T07:36:28Z</time>
      </trkpt>
      <trkpt lat="47.630336014553905" lon="10.08412797935307">
        <ele>783.13</ele>
        <time>2018-09-19T07:36:29Z</time>
      </trkpt>
      <trkpt lat="47.63043500483036" lon="10.084451017901301">
        <ele>782.64999999999998</ele>
        <time>2018-09-19T07:36:31Z</time>
      </trkpt>
      <trkpt lat="47.630503987893462" lon="10.084595018997788">
        <ele>782.64999999999998</ele>
        <time>2018-09-19T07:36:32Z</time>
      </trkpt>
      <trkpt lat="47.630571965128183" lon="10.084738014265895">
        <ele>782.16999999999996</ele>
        <time>2018-09-19T07:36:33Z</time>
      </trkpt>
      <trkpt lat="47.63064899481833" lon="10.084862988442183">
        <ele>781.69000000000005</ele>
        <time>2018-09-19T07:36:34Z</time>
      </trkpt>
      <trkpt lat="47.63075795955956" lon="10.084926020354033">
        <ele>781.21000000000004</ele>
        <time>2018-09-19T07:36:35Z</time>
      </trkpt>
      <trkpt lat="47.630866002291441" lon="10.084989974275231">
        <ele>780.73000000000002</ele>
        <time>2018-09-19T07:36:36Z</time>
      </trkpt>
      <trkpt lat="47.630979996174574" lon="10.085057029500604">
        <ele>780.25</ele>
        <time>2018-09-19T07:36:37Z</time>
      </trkpt>
      <trkpt lat="47.631474025547504" lon="10.085386019200087">
        <ele>778.32000000000005</ele>
        <time>2018-09-19T07:36:41Z</time>
      </trkpt>
      <trkpt lat="47.631601011380553" lon="10.08550001308322">
        <ele>778.32000000000005</ele>
        <time>2018-09-19T07:36:42Z</time>
      </trkpt>
      <trkpt lat="47.632751008495688" lon="10.086706001311541">
        <ele>779.28999999999996</ele>
        <time>2018-09-19T07:36:50Z</time>
      </trkpt>
      <trkpt lat="47.633062982931733" lon="10.087051000446081">
        <ele>779.28999999999996</ele>
        <time>2018-09-19T07:36:52Z</time>
      </trkpt>
      <trkpt lat="47.634225971996784" lon="10.08864096365869">
        <ele>776.88</ele>
        <time>2018-09-19T07:37:00Z</time>
      </trkpt>
      <trkpt lat="47.635115040466189" lon="10.09010000154376">
        <ele>773.51999999999998</ele>
        <time>2018-09-19T07:37:07Z</time>
      </trkpt>
      <trkpt lat="47.635477976873517" lon="10.090995021164417">
        <ele>772.55999999999995</ele>
        <time>2018-09-19T07:37:13Z</time>
      </trkpt>
      <trkpt lat="47.635860024020076" lon="10.091863973066211">
        <ele>771.60000000000002</ele>
        <time>2018-09-19T07:37:20Z</time>
      </trkpt>
      <trkpt lat="47.635934958234429" lon="10.091949971392751">
        <ele>772.08000000000004</ele>
        <time>2018-09-19T07:37:21Z</time>
      </trkpt>
      <trkpt lat="47.636099997907877" lon="10.092071006074548">
        <ele>772.55999999999995</ele>
        <time>2018-09-19T07:37:23Z</time>
      </trkpt>
      <trkpt lat="47.63619395904243" lon="10.092106964439154">
        <ele>773.03999999999996</ele>
        <time>2018-09-19T07:37:24Z</time>
      </trkpt>
      <trkpt lat="47.636290015652776" lon="10.092144012451172">
        <ele>773.03999999999996</ele>
        <time>2018-09-19T07:37:25Z</time>
      </trkpt>
      <trkpt lat="47.63741503469646" lon="10.092044016346335">
        <ele>771.60000000000002</ele>
        <time>2018-09-19T07:37:36Z</time>
      </trkpt>
      <trkpt lat="47.637790041044354" lon="10.092095984145999">
        <ele>771.11000000000001</ele>
        <time>2018-09-19T07:37:40Z</time>
      </trkpt>
      <trkpt lat="47.637882996350527" lon="10.092129008844495">
        <ele>771.11000000000001</ele>
        <time>2018-09-19T07:37:41Z</time>
      </trkpt>
      <trkpt lat="47.638178039342165" lon="10.092321960255504">
        <ele>771.11000000000001</ele>
        <time>2018-09-19T07:37:44Z</time>
      </trkpt>
      <trkpt lat="47.638289015740156" lon="10.092356996610761">
        <ele>770.63</ele>
        <time>2018-09-19T07:37:45Z</time>
      </trkpt>
      <trkpt lat="47.638639966025949" lon="10.092467973008752">
        <ele>770.14999999999998</ele>
        <time>2018-09-19T07:37:48Z</time>
      </trkpt>
      <trkpt lat="47.639662977308035" lon="10.092784976586699">
        <ele>767.75</ele>
        <time>2018-09-19T07:37:57Z</time>
      </trkpt>
      <trkpt lat="47.64029597863555" lon="10.092927971854806">
        <ele>766.30999999999995</ele>
        <time>2018-09-19T07:38:03Z</time>
      </trkpt>
      <trkpt lat="47.640409972518682" lon="10.092938030138612">
        <ele>766.30999999999995</ele>
        <time>2018-09-19T07:38:04Z</time>
      </trkpt>
      <trkpt lat="47.640506029129028" lon="10.09291497990489">
        <ele>766.30999999999995</ele>
        <time>2018-09-19T07:38:05Z</time>
      </trkpt>
      <trkpt lat="47.640764024108648" lon="10.092853959649801">
        <ele>766.30999999999995</ele>
        <time>2018-09-19T07:38:08Z</time>
      </trkpt>
      <trkpt lat="47.640838036313653" lon="10.092836022377014">
        <ele>766.30999999999995</ele>
        <time>2018-09-19T07:38:09Z</time>
      </trkpt>
      <trkpt lat="47.640894027426839" lon="10.092851025983691">
        <ele>766.30999999999995</ele>
        <time>2018-09-19T07:38:10Z</time>
      </trkpt>
      <trkpt lat="47.641041968017817" lon="10.092939035966992">
        <ele>766.30999999999995</ele>
        <time>2018-09-19T07:38:14Z</time>
      </trkpt>
      <trkpt lat="47.641104999929667" lon="10.092901987954974">
        <ele>766.30999999999995</ele>
        <time>2018-09-19T07:38:15Z</time>
      </trkpt>
      <trkpt lat="47.641142969951034" lon="10.092829987406731">
        <ele>765.83000000000004</ele>
        <time>2018-09-19T07:38:16Z</time>
      </trkpt>
      <trkpt lat="47.641187980771065" lon="10.09274298325181">
        <ele>765.83000000000004</ele>
        <time>2018-09-19T07:38:17Z</time>
      </trkpt>
      <trkpt lat="47.641241038218141" lon="10.092642987146974">
        <ele>765.83000000000004</ele>
        <time>2018-09-19T07:38:18Z</time>
      </trkpt>
      <trkpt lat="47.641301974654198" lon="10.092525975778699">
        <ele>765.83000000000004</ele>
        <time>2018-09-19T07:38:19Z</time>
      </trkpt>
      <trkpt lat="47.641841014847159" lon="10.0914950016886">
        <ele>766.78999999999996</ele>
        <time>2018-09-19T07:38:26Z</time>
      </trkpt>
      <trkpt lat="47.642009994015098" lon="10.091190990060568">
        <ele>766.78999999999996</ele>
        <time>2018-09-19T07:38:28Z</time>
      </trkpt>
      <trkpt lat="47.642074031755328" lon="10.091025028377771">
        <ele>766.30999999999995</ele>
        <time>2018-09-19T07:38:29Z</time>
      </trkpt>
      <trkpt lat="47.642129017040133" lon="10.090843979269266">
        <ele>765.83000000000004</ele>
        <time>2018-09-19T07:38:30Z</time>
      </trkpt>
      <trkpt lat="47.642531013116241" lon="10.089522991329432">
        <ele>763.89999999999998</ele>
        <time>2018-09-19T07:38:38Z</time>
      </trkpt>
      <trkpt lat="47.64259303919971" lon="10.089408997446299">
        <ele>763.41999999999996</ele>
        <time>2018-09-19T07:38:39Z</time>
      </trkpt>
      <trkpt lat="47.642662022262812" lon="10.08934898301959">
        <ele>763.41999999999996</ele>
        <time>2018-09-19T07:38:40Z</time>
      </trkpt>
      <trkpt lat="47.642732011154294" lon="10.089321993291378">
        <ele>763.41999999999996</ele>
        <time>2018-09-19T07:38:41Z</time>
      </trkpt>
      <trkpt lat="47.642790013924241" lon="10.089344037696719">
        <ele>763.41999999999996</ele>
        <time>2018-09-19T07:38:42Z</time>
      </trkpt>
      <trkpt lat="47.642839970067143" lon="10.089362980797887">
        <ele>763.41999999999996</ele>
        <time>2018-09-19T07:38:43Z</time>
      </trkpt>
      <trkpt lat="47.642877018079162" lon="10.089376978576183">
        <ele>762.94000000000005</ele>
        <time>2018-09-19T07:38:44Z</time>
      </trkpt>
      <trkpt lat="47.642900990322232" lon="10.089386031031609">
        <ele>763.41999999999996</ele>
        <time>2018-09-19T07:38:53Z</time>
      </trkpt>
      <trkpt lat="47.642987994477153" lon="10.089410003274679">
        <ele>763.89999999999998</ele>
        <time>2018-09-19T07:39:02Z</time>
      </trkpt>
      <trkpt lat="47.643010960891843" lon="10.08934898301959">
        <ele>763.89999999999998</ele>
        <time>2018-09-19T07:39:03Z</time>
      </trkpt>
      <trkpt lat="47.6430459972471" lon="10.089257033541799">
        <ele>764.38999999999999</ele>
        <time>2018-09-19T07:39:04Z</time>
      </trkpt>
      <trkpt lat="47.64308899641037" lon="10.089140022173524">
        <ele>764.38999999999999</ele>
        <time>2018-09-19T07:39:05Z</time>
      </trkpt>
      <trkpt lat="47.643144987523556" lon="10.089000966399908">
        <ele>764.38999999999999</ele>
        <time>2018-09-19T07:39:06Z</time>
      </trkpt>
      <trkpt lat="47.643637005239725" lon="10.087861027568579">
        <ele>763.41999999999996</ele>
        <time>2018-09-19T07:39:12Z</time>
      </trkpt>
      <trkpt lat="47.64403598383069" lon="10.087230037897825">
        <ele>762.94000000000005</ele>
        <time>2018-09-19T07:39:15Z</time>
      </trkpt>
      <trkpt lat="47.644226001575589" lon="10.087041025981307">
        <ele>762.46000000000004</ele>
        <time>2018-09-19T07:39:16Z</time>
      </trkpt>
      <trkpt lat="47.644417025148869" lon="10.086850002408028">
        <ele>761.98000000000002</ele>
        <time>2018-09-19T07:39:17Z</time>
      </trkpt>
      <trkpt lat="47.644623974338174" lon="10.086698960512877">
        <ele>761.98000000000002</ele>
        <time>2018-09-19T07:39:18Z</time>
      </trkpt>
      <trkpt lat="47.64484902843833" lon="10.086567029356956">
        <ele>761.98000000000002</ele>
        <time>2018-09-19T07:39:19Z</time>
      </trkpt>
      <trkpt lat="47.645076010376215" lon="10.086433002725244">
        <ele>761.98000000000002</ele>
        <time>2018-09-19T07:39:20Z</time>
      </trkpt>
      <trkpt lat="47.645300980657339" lon="10.08634096942842">
        <ele>761.98000000000002</ele>
        <time>2018-09-19T07:39:21Z</time>
      </trkpt>
      <trkpt lat="47.645529974251986" lon="10.086313979700208">
        <ele>761.98000000000002</ele>
        <time>2018-09-19T07:39:22Z</time>
      </trkpt>
      <trkpt lat="47.64575301669538" lon="10.086287995800376">
        <ele>761.5</ele>
        <time>2018-09-19T07:39:23Z</time>
      </trkpt>
      <trkpt lat="47.645973041653633" lon="10.086267041042447">
        <ele>761.5</ele>
        <time>2018-09-19T07:39:24Z</time>
      </trkpt>
      <trkpt lat="47.646192982792854" lon="10.086290007457137">
        <ele>761.01999999999998</ele>
        <time>2018-09-19T07:39:25Z</time>
      </trkpt>
      <trkpt lat="47.647205013781786" lon="10.086323032155633">
        <ele>759.10000000000002</ele>
        <time>2018-09-19T07:39:30Z</time>
      </trkpt>
      <trkpt lat="47.647392014041543" lon="10.086278021335602">
        <ele>759.10000000000002</ele>
        <time>2018-09-19T07:39:31Z</time>
      </trkpt>
      <trkpt lat="47.647584965452552" lon="10.086169978603721">
        <ele>759.10000000000002</ele>
        <time>2018-09-19T07:39:32Z</time>
      </trkpt>
      <trkpt lat="47.647783029824495" lon="10.086016003042459">
        <ele>758.62</ele>
        <time>2018-09-19T07:39:33Z</time>
      </trkpt>
      <trkpt lat="47.647977992892265" lon="10.085820034146309">
        <ele>758.62</ele>
        <time>2018-09-19T07:39:34Z</time>
      </trkpt>
      <trkpt lat="47.648549973964691" lon="10.085275964811444">
        <ele>757.17999999999995</ele>
        <time>2018-09-19T07:39:37Z</time>
      </trkpt>
      <trkpt lat="47.648740997537971" lon="10.085155013948679">
        <ele>756.69000000000005</ele>
        <time>2018-09-19T07:39:38Z</time>
      </trkpt>
      <trkpt lat="47.648929003626108" lon="10.085079995915294">
        <ele>756.21000000000004</ele>
        <time>2018-09-19T07:39:39Z</time>
      </trkpt>
      <trkpt lat="47.649117009714246" lon="10.085016964003444">
        <ele>756.21000000000004</ele>
        <time>2018-09-19T07:39:40Z</time>
      </trkpt>
      <trkpt lat="47.649309039115906" lon="10.085000032559037">
        <ele>755.73000000000002</ele>
        <time>2018-09-19T07:39:41Z</time>
      </trkpt>
      <trkpt lat="47.649501990526915" lon="10.084983017295599">
        <ele>755.25</ele>
        <time>2018-09-19T07:39:42Z</time>
      </trkpt>
      <trkpt lat="47.649697037413716" lon="10.084966002032161">
        <ele>755.25</ele>
        <time>2018-09-19T07:39:43Z</time>
      </trkpt>
      <trkpt lat="47.65136000700295" lon="10.084852008149028">
        <ele>750.92999999999995</ele>
        <time>2018-09-19T07:39:52Z</time>
      </trkpt>
      <trkpt lat="47.651870967820287" lon="10.084853013977408">
        <ele>749.49000000000001</ele>
        <time>2018-09-19T07:39:55Z</time>
      </trkpt>
      <trkpt lat="47.652193000540137" lon="10.084947980940342">
        <ele>748.51999999999998</ele>
        <time>2018-09-19T07:39:57Z</time>
      </trkpt>
      <trkpt lat="47.652350999414921" lon="10.085015036165714">
        <ele>748.03999999999996</ele>
        <time>2018-09-19T07:39:58Z</time>
      </trkpt>
      <trkpt lat="47.652512015774846" lon="10.085085025057197">
        <ele>747.55999999999995</ele>
        <time>2018-09-19T07:39:59Z</time>
      </trkpt>
      <trkpt lat="47.65262802131474" lon="10.085173035040498">
        <ele>747.08000000000004</ele>
        <time>2018-09-19T07:40:00Z</time>
      </trkpt>
      <trkpt lat="47.652755007147789" lon="10.085271019488573">
        <ele>747.08000000000004</ele>
        <time>2018-09-19T07:40:01Z</time>
      </trkpt>
      <trkpt lat="47.652875036001205" lon="10.085399011150002">
        <ele>747.08000000000004</ele>
        <time>2018-09-19T07:40:02Z</time>
      </trkpt>
      <trkpt lat="47.652988024055958" lon="10.085535971447825">
        <ele>747.08000000000004</ele>
        <time>2018-09-19T07:40:03Z</time>
      </trkpt>
      <trkpt lat="47.65310000628233" lon="10.085668992251158">
        <ele>746.60000000000002</ele>
        <time>2018-09-19T07:40:04Z</time>
      </trkpt>
      <trkpt lat="47.654178002849221" lon="10.087236994877458">
        <ele>747.55999999999995</ele>
        <time>2018-09-19T07:40:13Z</time>
      </trkpt>
      <trkpt lat="47.655173018574715" lon="10.088502997532487">
        <ele>747.08000000000004</ele>
        <time>2018-09-19T07:40:21Z</time>
      </trkpt>
      <trkpt lat="47.656434997916222" lon="10.089217973873019">
        <ele>746.60000000000002</ele>
        <time>2018-09-19T07:40:29Z</time>
      </trkpt>
      <trkpt lat="47.65785195864737" lon="10.089828008785844">
        <ele>743.24000000000001</ele>
        <time>2018-09-19T07:40:36Z</time>
      </trkpt>
      <trkpt lat="47.659106981009245" lon="10.090462015941739">
        <ele>739.87</ele>
        <time>2018-09-19T07:40:42Z</time>
      </trkpt>
      <trkpt lat="47.659390037879348" lon="10.090696960687637">
        <ele>738.90999999999997</ele>
        <time>2018-09-19T07:40:44Z</time>
      </trkpt>
      <trkpt lat="47.660487983375788" lon="10.092106964439154">
        <ele>737.95000000000005</ele>
        <time>2018-09-19T07:40:53Z</time>
      </trkpt>
      <trkpt lat="47.662183977663517" lon="10.094379968941212">
        <ele>738.90999999999997</ele>
        <time>2018-09-19T07:41:06Z</time>
      </trkpt>
      <trkpt lat="47.662493018433452" lon="10.094647016376257">
        <ele>739.38999999999999</ele>
        <time>2018-09-19T07:41:08Z</time>
      </trkpt>
      <trkpt lat="47.662655962631106" lon="10.09474097751081">
        <ele>739.38999999999999</ele>
        <time>2018-09-19T07:41:09Z</time>
      </trkpt>
      <trkpt lat="47.663852982223034" lon="10.09506200440228">
        <ele>740.35000000000002</ele>
        <time>2018-09-19T07:41:16Z</time>
      </trkpt>
      <trkpt lat="47.665989026427269" lon="10.094876009970903">
        <ele>738.90999999999997</ele>
        <time>2018-09-19T07:41:27Z</time>
      </trkpt>
      <trkpt lat="47.666799975559115" lon="10.094843991100788">
        <ele>737.95000000000005</ele>
        <time>2018-09-19T07:41:31Z</time>
      </trkpt>
      <trkpt lat="47.667021006345749" lon="10.094895036891103">
        <ele>737.47000000000003</ele>
        <time>2018-09-19T07:41:32Z</time>
      </trkpt>
      <trkpt lat="47.668710965663195" lon="10.095403986051679">
        <ele>736.99000000000001</ele>
        <time>2018-09-19T07:41:39Z</time>
      </trkpt>
      <trkpt lat="47.670129016041756" lon="10.095283035188913">
        <ele>736.02999999999997</ele>
        <time>2018-09-19T07:41:45Z</time>
      </trkpt>
      <trkpt lat="47.671456038951874" lon="10.094486000016332">
        <ele>736.99000000000001</ele>
        <time>2018-09-19T07:41:51Z</time>
      </trkpt>
      <trkpt lat="47.672399003058672" lon="10.093433987349272">
        <ele>735.07000000000005</ele>
        <time>2018-09-19T07:41:57Z</time>
      </trkpt>
      <trkpt lat="47.673556040972471" lon="10.09194603189826">
        <ele>732.65999999999997</ele>
        <time>2018-09-19T07:42:03Z</time>
      </trkpt>
      <trkpt lat="47.674480983987451" lon="10.090955961495638">
        <ele>731.22000000000003</ele>
        <time>2018-09-19T07:42:08Z</time>
      </trkpt>
      <trkpt lat="47.674662033095956" lon="10.090812966227531">
        <ele>731.22000000000003</ele>
        <time>2018-09-19T07:42:09Z</time>
      </trkpt>
      <trkpt lat="47.67589601688087" lon="10.090183988213539">
        <ele>729.29999999999995</ele>
        <time>2018-09-19T07:42:15Z</time>
      </trkpt>
      <trkpt lat="47.676087962463498" lon="10.090063959360123">
        <ele>729.29999999999995</ele>
        <time>2018-09-19T07:42:16Z</time>
      </trkpt>
      <trkpt lat="47.67626297660172" lon="10.089921969920397">
        <ele>728.82000000000005</ele>
        <time>2018-09-19T07:42:17Z</time>
      </trkpt>
      <trkpt lat="47.676433967426419" lon="10.089761959388852">
        <ele>728.82000000000005</ele>
        <time>2018-09-19T07:42:18Z</time>
      </trkpt>
      <trkpt lat="47.676605964079499" lon="10.089564984664321">
        <ele>728.34000000000003</ele>
        <time>2018-09-19T07:42:19Z</time>
      </trkpt>
      <trkpt lat="47.676789024844766" lon="10.089331967756152">
        <ele>728.34000000000003</ele>
        <time>2018-09-19T07:42:20Z</time>
      </trkpt>
      <trkpt lat="47.67800398170948" lon="10.087771005928516">
        <ele>725.92999999999995</ele>
        <time>2018-09-19T07:42:26Z</time>
      </trkpt>
      <trkpt lat="47.67864796333015" lon="10.086951004341245">
        <ele>725.45000000000005</ele>
        <time>2018-09-19T07:42:31Z</time>
      </trkpt>
      <trkpt lat="47.67888399772346" lon="10.086652021855116">
        <ele>725.45000000000005</ele>
        <time>2018-09-19T07:42:34Z</time>
      </trkpt>
      <trkpt lat="47.678951974958181" lon="10.086565017700195">
        <ele>725.92999999999995</ele>
        <time>2018-09-19T07:42:35Z</time>
      </trkpt>
      <trkpt lat="47.679524961858988" lon="10.085825985297561">
        <ele>726.40999999999997</ele>
        <time>2018-09-19T07:42:43Z</time>
      </trkpt>
      <trkpt lat="47.679728977382183" lon="10.085485009476542">
        <ele>726.88999999999999</ele>
        <time>2018-09-19T07:42:46Z</time>
      </trkpt>
      <trkpt lat="47.679869038984179" lon="10.085250986739993">
        <ele>727.37</ele>
        <time>2018-09-19T07:42:48Z</time>
      </trkpt>
      <trkpt lat="47.68025703728199" lon="10.084162009879947">
        <ele>727.86000000000001</ele>
        <time>2018-09-19T07:42:57Z</time>
      </trkpt>
      <trkpt lat="47.680759029462934" lon="10.082629965618253">
        <ele>726.88999999999999</ele>
        <time>2018-09-19T07:43:07Z</time>
      </trkpt>
      <trkpt lat="47.681265966966748" lon="10.081089958548546">
        <ele>728.82000000000005</ele>
        <time>2018-09-19T07:43:16Z</time>
      </trkpt>
      <trkpt lat="47.681866027414799" lon="10.079677021130919">
        <ele>728.82000000000005</ele>
        <time>2018-09-19T07:43:23Z</time>
      </trkpt>
      <trkpt lat="47.681993013247848" lon="10.079527990892529">
        <ele>729.29999999999995</ele>
        <time>2018-09-19T07:43:24Z</time>
      </trkpt>
      <trkpt lat="47.68268896266818" lon="10.078874034807086">
        <ele>730.74000000000001</ele>
        <time>2018-09-19T07:43:29Z</time>
      </trkpt>
      <trkpt lat="47.68286095932126" lon="10.078812008723617">
        <ele>730.74000000000001</ele>
        <time>2018-09-19T07:43:30Z</time>
      </trkpt>
      <trkpt lat="47.684311028569937" lon="10.078513026237488">
        <ele>731.70000000000005</ele>
        <time>2018-09-19T07:43:38Z</time>
      </trkpt>
      <trkpt lat="47.685423977673054" lon="10.078232986852527">
        <ele>730.74000000000001</ele>
        <time>2018-09-19T07:43:44Z</time>
      </trkpt>
      <trkpt lat="47.685901997610927" lon="10.077888993546367">
        <ele>730.25999999999999</ele>
        <time>2018-09-19T07:43:47Z</time>
      </trkpt>
      <trkpt lat="47.686047004535794" lon="10.077726971358061">
        <ele>730.25999999999999</ele>
        <time>2018-09-19T07:43:48Z</time>
      </trkpt>
      <trkpt lat="47.686193017289042" lon="10.0775539688766">
        <ele>730.25999999999999</ele>
        <time>2018-09-19T07:43:49Z</time>
      </trkpt>
      <trkpt lat="47.686345987021923" lon="10.077374009415507">
        <ele>730.25999999999999</ele>
        <time>2018-09-19T07:43:50Z</time>
      </trkpt>
      <trkpt lat="47.686473978683352" lon="10.077169993892312">
        <ele>729.77999999999997</ele>
        <time>2018-09-19T07:43:51Z</time>
      </trkpt>
      <trkpt lat="47.686591995880008" lon="10.076954998075962">
        <ele>729.77999999999997</ele>
        <time>2018-09-19T07:43:52Z</time>
      </trkpt>
      <trkpt lat="47.686710013076663" lon="10.076740002259612">
        <ele>729.77999999999997</ele>
        <time>2018-09-19T07:43:53Z</time>
      </trkpt>
      <trkpt lat="47.687179986387491" lon="10.075174011290073">
        <ele>728.34000000000003</ele>
        <time>2018-09-19T07:43:59Z</time>
      </trkpt>
      <trkpt lat="47.687586005777121" lon="10.072791036218405">
        <ele>726.88999999999999</ele>
        <time>2018-09-19T07:44:06Z</time>
      </trkpt>
      <trkpt lat="47.687790021300316" lon="10.070614004507661">
        <ele>725.45000000000005</ele>
        <time>2018-09-19T07:44:12Z</time>
      </trkpt>
      <trkpt lat="47.687759008258581" lon="10.068315016105771">
        <ele>724.49000000000001</ele>
        <time>2018-09-19T07:44:19Z</time>
      </trkpt>
      <trkpt lat="47.687516016885638" lon="10.065513029694557">
        <ele>720.64999999999998</ele>
        <time>2018-09-19T07:44:26Z</time>
      </trkpt>
      <trkpt lat="47.687651971355081" lon="10.063259974122047">
        <ele>719.20000000000005</ele>
        <time>2018-09-19T07:44:33Z</time>
      </trkpt>
      <trkpt lat="47.687588017433882" lon="10.061392989009619">
        <ele>718.72000000000003</ele>
        <time>2018-09-19T07:44:38Z</time>
      </trkpt>
      <trkpt lat="47.687243018299341" lon="10.05870801396668">
        <ele>720.15999999999997</ele>
        <time>2018-09-19T07:44:45Z</time>
      </trkpt>
      <trkpt lat="47.687248969450593" lon="10.056499969214201">
        <ele>723.04999999999995</ele>
        <time>2018-09-19T07:44:52Z</time>
      </trkpt>
      <trkpt lat="47.687266990542412" lon="10.055226003751159">
        <ele>723.52999999999997</ele>
        <time>2018-09-19T07:44:58Z</time>
      </trkpt>
      <trkpt lat="47.687303032726049" lon="10.055106980726123">
        <ele>723.52999999999997</ele>
        <time>2018-09-19T07:44:59Z</time>
      </trkpt>
      <trkpt lat="47.687335973605514" lon="10.054999021813273">
        <ele>724.00999999999999</ele>
        <time>2018-09-19T07:45:00Z</time>
      </trkpt>
      <trkpt lat="47.687409985810518" lon="10.054854014888406">
        <ele>724.00999999999999</ele>
        <time>2018-09-19T07:45:01Z</time>
      </trkpt>
      <trkpt lat="47.687489027157426" lon="10.05486398935318">
        <ele>724.00999999999999</ele>
        <time>2018-09-19T07:45:02Z</time>
      </trkpt>
      <trkpt lat="47.687580976635218" lon="10.054875975474715">
        <ele>724.00999999999999</ele>
        <time>2018-09-19T07:45:03Z</time>
      </trkpt>
      <trkpt lat="47.687680972740054" lon="10.054887961596251">
        <ele>724.49000000000001</ele>
        <time>2018-09-19T07:45:04Z</time>
      </trkpt>
      <trkpt lat="47.687779041007161" lon="10.054914029315114">
        <ele>724.49000000000001</ele>
        <time>2018-09-19T07:45:05Z</time>
      </trkpt>
      <trkpt lat="47.68786302767694" lon="10.054945964366198">
        <ele>724.97000000000003</ele>
        <time>2018-09-19T07:45:06Z</time>
      </trkpt>
      <trkpt lat="47.687933016568422" lon="10.054972032085061">
        <ele>724.97000000000003</ele>
        <time>2018-09-19T07:45:07Z</time>
      </trkpt>
      <trkpt lat="47.687989007681608" lon="10.05499298684299">
        <ele>724.97000000000003</ele>
        <time>2018-09-19T07:45:08Z</time>
      </trkpt>
      <trkpt lat="47.688067965209484" lon="10.055301021784544">
        <ele>724.49000000000001</ele>
        <time>2018-09-19T07:45:09Z</time>
      </trkpt>
      <trkpt lat="47.688067965209484" lon="10.055301021784544">
        <ele>724.49000000000001</ele>
        <time>2018-09-19T07:45:10Z</time>
      </trkpt>
      <trkpt lat="47.688107024878263" lon="10.055353995412588">
        <ele>724.49000000000001</ele>
        <time>2018-09-19T07:45:11Z</time>
      </trkpt>
      <trkpt lat="47.688196040689945" lon="10.055387020111084">
        <ele>724.49000000000001</ele>
        <time>2018-09-19T07:45:12Z</time>
      </trkpt>
      <trkpt lat="47.688282039016485" lon="10.055387020111084">
        <ele>724.00999999999999</ele>
        <time>2018-09-19T07:45:13Z</time>
      </trkpt>
      <trkpt lat="47.688397960737348" lon="10.055321976542473">
        <ele>724.00999999999999</ele>
        <time>2018-09-19T07:45:14Z</time>
      </trkpt>
      <trkpt lat="47.688499968498945" lon="10.055391965433955">
        <ele>723.52999999999997</ele>
        <time>2018-09-19T07:45:15Z</time>
      </trkpt>
      <trkpt lat="47.688615974038839" lon="10.055472012609243">
        <ele>724.00999999999999</ele>
        <time>2018-09-19T07:45:16Z</time>
      </trkpt>
      <trkpt lat="47.689671004191041" lon="10.056104008108377">
        <ele>724.00999999999999</ele>
        <time>2018-09-19T07:45:23Z</time>
      </trkpt>
      <trkpt lat="47.6908940076828" lon="10.056109959259629">
        <ele>722.09000000000003</ele>
        <time>2018-09-19T07:45:30Z</time>
      </trkpt>
      <trkpt lat="47.692515989765525" lon="10.055933017283678">
        <ele>721.61000000000001</ele>
        <time>2018-09-19T07:45:38Z</time>
      </trkpt>
      <trkpt lat="47.694208966568112" lon="10.056010968983173">
        <ele>717.27999999999997</ele>
        <time>2018-09-19T07:45:46Z</time>
      </trkpt>
      <trkpt lat="47.695713015273213" lon="10.055663036182523">
        <ele>711.50999999999999</ele>
        <time>2018-09-19T07:45:54Z</time>
      </trkpt>
      <trkpt lat="47.697256039828062" lon="10.054567018523812">
        <ele>707.66999999999996</ele>
        <time>2018-09-19T07:46:03Z</time>
      </trkpt>
      <trkpt lat="47.698208978399634" lon="10.053263967856765">
        <ele>706.23000000000002</ele>
        <time>2018-09-19T07:46:11Z</time>
      </trkpt>
      <trkpt lat="47.698899982497096" lon="10.051980027928948">
        <ele>705.25999999999999</ele>
        <time>2018-09-19T07:46:19Z</time>
      </trkpt>
      <trkpt lat="47.69976700656116" lon="10.050750989466906">
        <ele>703.82000000000005</ele>
        <time>2018-09-19T07:46:28Z</time>
      </trkpt>
      <trkpt lat="47.700921026989818" lon="10.049595041200519">
        <ele>704.77999999999997</ele>
        <time>2018-09-19T07:46:40Z</time>
      </trkpt>
      <trkpt lat="47.701377002522349" lon="10.049058012664318">
        <ele>705.75</ele>
        <time>2018-09-19T07:46:47Z</time>
      </trkpt>
      <trkpt lat="47.701453026384115" lon="10.04902197048068">
        <ele>705.75</ele>
        <time>2018-09-19T07:46:48Z</time>
      </trkpt>
      <trkpt lat="47.70152703858912" lon="10.049023982137442">
        <ele>705.75</ele>
        <time>2018-09-19T07:46:49Z</time>
      </trkpt>
      <trkpt lat="47.701559979468584" lon="10.048945024609566">
        <ele>705.75</ele>
        <time>2018-09-19T07:46:50Z</time>
      </trkpt>
      <trkpt lat="47.701585963368416" lon="10.048885010182858">
        <ele>705.25999999999999</ele>
        <time>2018-09-19T07:46:51Z</time>
      </trkpt>
      <trkpt lat="47.701574983075261" lon="10.048702033236623">
        <ele>705.25999999999999</ele>
        <time>2018-09-19T07:46:52Z</time>
      </trkpt>
      <trkpt lat="47.701622005552053" lon="10.0485909730196">
        <ele>704.77999999999997</ele>
        <time>2018-09-19T07:46:53Z</time>
      </trkpt>
      <trkpt lat="47.701676990836859" lon="10.048460969701409">
        <ele>704.29999999999995</ele>
        <time>2018-09-19T07:46:54Z</time>
      </trkpt>
      <trkpt lat="47.701738011091948" lon="10.048314034938812">
        <ele>703.82000000000005</ele>
        <time>2018-09-19T07:46:55Z</time>
      </trkpt>
      <trkpt lat="47.702287025749683" lon="10.046578980982304">
        <ele>702.38</ele>
        <time>2018-09-19T07:47:05Z</time>
      </trkpt>
      <trkpt lat="47.702337987720966" lon="10.046443026512861">
        <ele>702.38</ele>
        <time>2018-09-19T07:47:06Z</time>
      </trkpt>
      <trkpt lat="47.70241099409759" lon="10.046320986002684">
        <ele>701.89999999999998</ele>
        <time>2018-09-19T07:47:07Z</time>
      </trkpt>
      <trkpt lat="47.702479977160692" lon="10.046202968806028">
        <ele>701.89999999999998</ele>
        <time>2018-09-19T07:47:08Z</time>
      </trkpt>
      <trkpt lat="47.702593971043825" lon="10.04601001739502">
        <ele>701.89999999999998</ele>
        <time>2018-09-19T07:47:10Z</time>
      </trkpt>
      <trkpt lat="47.702577961608768" lon="10.045909015461802">
        <ele>701.41999999999996</ele>
        <time>2018-09-19T07:47:11Z</time>
      </trkpt>
      <trkpt lat="47.702562035992742" lon="10.045816982164979">
        <ele>701.41999999999996</ele>
        <time>2018-09-19T07:47:12Z</time>
      </trkpt>
      <trkpt lat="47.702543009072542" lon="10.045700976625085">
        <ele>700.94000000000005</ele>
        <time>2018-09-19T07:47:13Z</time>
      </trkpt>
      <trkpt lat="47.702521970495582" lon="10.045562004670501">
        <ele>700.94000000000005</ele>
        <time>2018-09-19T07:47:14Z</time>
      </trkpt>
      <trkpt lat="47.702358020469546" lon="10.044358028098941">
        <ele>700.46000000000004</ele>
        <time>2018-09-19T07:47:20Z</time>
      </trkpt>
      <trkpt lat="47.701922999694943" lon="10.042752977460623">
        <ele>699.5</ele>
        <time>2018-09-19T07:47:28Z</time>
      </trkpt>
      <trkpt lat="47.701121019199491" lon="10.041355965659022">
        <ele>697.57000000000005</ele>
        <time>2018-09-19T07:47:38Z</time>
      </trkpt>
      <trkpt lat="47.700242009013891" lon="10.039991978555918">
        <ele>695.16999999999996</ele>
        <time>2018-09-19T07:47:49Z</time>
      </trkpt>
      <trkpt lat="47.700077975168824" lon="10.039691990241408">
        <ele>694.21000000000004</ele>
        <time>2018-09-19T07:47:52Z</time>
      </trkpt>
      <trkpt lat="47.700042016804218" lon="10.039627030491829">
        <ele>694.21000000000004</ele>
        <time>2018-09-19T07:47:53Z</time>
      </trkpt>
      <trkpt lat="47.700097002089024" lon="10.039412034675479">
        <ele>694.21000000000004</ele>
        <time>2018-09-19T07:47:54Z</time>
      </trkpt>
      <trkpt lat="47.700144024565816" lon="10.039374986663461">
        <ele>694.21000000000004</ele>
        <time>2018-09-19T07:47:55Z</time>
      </trkpt>
      <trkpt lat="47.700206972658634" lon="10.039324024692178">
        <ele>694.21000000000004</ele>
        <time>2018-09-19T07:47:56Z</time>
      </trkpt>
      <trkpt lat="47.700290037319064" lon="10.039257975295186">
        <ele>694.21000000000004</ele>
        <time>2018-09-19T07:47:57Z</time>
      </trkpt>
      <trkpt lat="47.700388021767139" lon="10.03917901776731">
        <ele>694.21000000000004</ele>
        <time>2018-09-19T07:47:58Z</time>
      </trkpt>
      <trkpt lat="47.701466018334031" lon="10.038378965109587">
        <ele>695.64999999999998</ele>
        <time>2018-09-19T07:48:06Z</time>
      </trkpt>
      <trkpt lat="47.703394023701549" lon="10.036942977458239">
        <ele>694.69000000000005</ele>
        <time>2018-09-19T07:48:18Z</time>
      </trkpt>
      <trkpt lat="47.704673018306494" lon="10.035797003656626">
        <ele>694.69000000000005</ele>
        <time>2018-09-19T07:48:27Z</time>
      </trkpt>
      <trkpt lat="47.706060977652669" lon="10.034362021833658">
        <ele>694.69000000000005</ele>
        <time>2018-09-19T07:48:36Z</time>
      </trkpt>
      <trkpt lat="47.706876033917069" lon="10.033623995259404">
        <ele>697.09000000000003</ele>
        <time>2018-09-19T07:48:43Z</time>
      </trkpt>
      <trkpt lat="47.707155989482999" lon="10.033467002213001">
        <ele>698.52999999999997</ele>
        <time>2018-09-19T07:48:46Z</time>
      </trkpt>
      <trkpt lat="47.707226984202862" lon="10.033439006656408">
        <ele>699.01999999999998</ele>
        <time>2018-09-19T07:48:47Z</time>
      </trkpt>
      <trkpt lat="47.707294039428234" lon="10.033413022756577">
        <ele>699.5</ele>
        <time>2018-09-19T07:48:48Z</time>
      </trkpt>
      <trkpt lat="47.707656975835562" lon="10.03331302665174">
        <ele>702.38</ele>
        <time>2018-09-19T07:48:53Z</time>
      </trkpt>
      <trkpt lat="47.707879012450576" lon="10.033262986689806">
        <ele>703.82000000000005</ele>
        <time>2018-09-19T07:48:56Z</time>
      </trkpt>
      <trkpt lat="47.708319984376431" lon="10.033091995865107">
        <ele>704.77999999999997</ele>
        <time>2018-09-19T07:49:02Z</time>
      </trkpt>
      <trkpt lat="47.708384022116661" lon="10.033019995316863">
        <ele>704.29999999999995</ele>
        <time>2018-09-19T07:49:03Z</time>
      </trkpt>
      <trkpt lat="47.708479994907975" lon="10.032871970906854">
        <ele>702.38</ele>
        <time>2018-09-19T07:49:05Z</time>
      </trkpt>
      <trkpt lat="47.708518970757723" lon="10.03277599811554">
        <ele>701.41999999999996</ele>
        <time>2018-09-19T07:49:06Z</time>
      </trkpt>
      <trkpt lat="47.708670012652874" lon="10.03239001147449">
        <ele>699.01999999999998</ele>
        <time>2018-09-19T07:49:10Z</time>
      </trkpt>
      <trkpt lat="47.708692979067564" lon="10.032284986227751">
        <ele>698.04999999999995</ele>
        <time>2018-09-19T07:49:11Z</time>
      </trkpt>
      <trkpt lat="47.708736984059215" lon="10.032077031210065">
        <ele>696.61000000000001</ele>
        <time>2018-09-19T07:49:13Z</time>
      </trkpt>
      <trkpt lat="47.708760034292936" lon="10.031973011791706">
        <ele>695.64999999999998</ele>
        <time>2018-09-19T07:49:14Z</time>
      </trkpt>
      <trkpt lat="47.709003025665879" lon="10.030780015513301">
        <ele>690.84000000000003</ele>
        <time>2018-09-19T07:49:25Z</time>
      </trkpt>
      <trkpt lat="47.709022974595428" lon="10.030453037470579">
        <ele>690.36000000000001</ele>
        <time>2018-09-19T07:49:28Z</time>
      </trkpt>
      <trkpt lat="47.708960026502609" lon="10.029808972030878">
        <ele>689.39999999999998</ele>
        <time>2018-09-19T07:49:34Z</time>
      </trkpt>
      <trkpt lat="47.708949968218803" lon="10.029697995632887">
        <ele>688.91999999999996</ele>
        <time>2018-09-19T07:49:35Z</time>
      </trkpt>
      <trkpt lat="47.708965977653861" lon="10.029481993988156">
        <ele>688.44000000000005</ele>
        <time>2018-09-19T07:49:37Z</time>
      </trkpt>
      <trkpt lat="47.708838991820812" lon="10.0294020306319">
        <ele>688.44000000000005</ele>
        <time>2018-09-19T07:49:38Z</time>
      </trkpt>
      <trkpt lat="47.708817031234503" lon="10.029350984841585">
        <ele>687.96000000000004</ele>
        <time>2018-09-19T07:49:39Z</time>
      </trkpt>
      <trkpt lat="47.708775959908962" lon="10.02925400622189">
        <ele>687.96000000000004</ele>
        <time>2018-09-19T07:49:40Z</time>
      </trkpt>
      <trkpt lat="47.708734972402453" lon="10.029155015945435">
        <ele>687.48000000000002</ele>
        <time>2018-09-19T07:49:41Z</time>
      </trkpt>
      <trkpt lat="47.708364995196462" lon="10.028277011588216">
        <ele>687</ele>
        <time>2018-09-19T07:49:47Z</time>
      </trkpt>
      <trkpt lat="47.707538958638906" lon="10.02673901617527">
        <ele>685.55999999999995</ele>
        <time>2018-09-19T07:49:56Z</time>
      </trkpt>
      <trkpt lat="47.706994973123074" lon="10.025284001603723">
        <ele>681.71000000000004</ele>
        <time>2018-09-19T07:50:03Z</time>
      </trkpt>
      <trkpt lat="47.706918027251959" lon="10.025070011615753">
        <ele>681.23000000000002</ele>
        <time>2018-09-19T07:50:04Z</time>
      </trkpt>
      <trkpt lat="47.706445958465338" lon="10.023590018972754">
        <ele>677.87</ele>
        <time>2018-09-19T07:50:09Z</time>
      </trkpt>
      <trkpt lat="47.705726036801934" lon="10.021014008671045">
        <ele>674.01999999999998</ele>
        <time>2018-09-19T07:50:16Z</time>
      </trkpt>
      <trkpt lat="47.704844009131193" lon="10.016977032646537">
        <ele>673.05999999999995</ele>
        <time>2018-09-19T07:50:26Z</time>
      </trkpt>
      <trkpt lat="47.704403959214687" lon="10.013739019632339">
        <ele>671.62</ele>
        <time>2018-09-19T07:50:34Z</time>
      </trkpt>
      <trkpt lat="47.703862991183996" lon="10.011583026498556">
        <ele>674.01999999999998</ele>
        <time>2018-09-19T07:50:40Z</time>
      </trkpt>
      <trkpt lat="47.7032480109483" lon="10.009693996980786">
        <ele>675.94000000000005</ele>
        <time>2018-09-19T07:50:46Z</time>
      </trkpt>
      <trkpt lat="47.703195037320256" lon="10.009368024766445">
        <ele>676.41999999999996</ele>
        <time>2018-09-19T07:50:47Z</time>
      </trkpt>
      <trkpt lat="47.703149020671844" lon="10.009039035066962">
        <ele>676.41999999999996</ele>
        <time>2018-09-19T07:50:48Z</time>
      </trkpt>
      <trkpt lat="47.703130999580026" lon="10.008674003183842">
        <ele>676.90999999999997</ele>
        <time>2018-09-19T07:50:49Z</time>
      </trkpt>
      <trkpt lat="47.70316100679338" lon="10.008358005434275">
        <ele>677.87</ele>
        <time>2018-09-19T07:50:50Z</time>
      </trkpt>
      <trkpt lat="47.703195037320256" lon="10.008014012128115">
        <ele>677.87</ele>
        <time>2018-09-19T07:50:51Z</time>
      </trkpt>
      <trkpt lat="47.703281035646796" lon="10.007685022428632">
        <ele>678.35000000000002</ele>
        <time>2018-09-19T07:50:52Z</time>
      </trkpt>
      <trkpt lat="47.703368039801717" lon="10.007354021072388">
        <ele>678.83000000000004</ele>
        <time>2018-09-19T07:50:53Z</time>
      </trkpt>
      <trkpt lat="47.70348496735096" lon="10.007041962817311">
        <ele>679.30999999999995</ele>
        <time>2018-09-19T07:50:54Z</time>
      </trkpt>
      <trkpt lat="47.70361103117466" lon="10.006733005866408">
        <ele>679.78999999999996</ele>
        <time>2018-09-19T07:50:55Z</time>
      </trkpt>
      <trkpt lat="47.703761989250779" lon="10.006438968703151">
        <ele>679.78999999999996</ele>
        <time>2018-09-19T07:50:56Z</time>
      </trkpt>
      <trkpt lat="47.703932980075479" lon="10.006160018965602">
        <ele>679.78999999999996</ele>
        <time>2018-09-19T07:50:57Z</time>
      </trkpt>
      <trkpt lat="47.705447003245354" lon="10.003575040027499">
        <ele>677.87</ele>
        <time>2018-09-19T07:51:06Z</time>
      </trkpt>
      <trkpt lat="47.705845981836319" lon="10.002468964084983">
        <ele>675.46000000000004</ele>
        <time>2018-09-19T07:51:11Z</time>
      </trkpt>
      <trkpt lat="47.705984031781554" lon="10.001996979117393">
        <ele>675.94000000000005</ele>
        <time>2018-09-19T07:51:16Z</time>
      </trkpt>
      <trkpt lat="47.706017978489399" lon="10.00188197940588">
        <ele>676.41999999999996</ele>
        <time>2018-09-19T07:51:18Z</time>
      </trkpt>
      <trkpt lat="47.706230962648988" lon="10.001121992245317">
        <ele>675.46000000000004</ele>
        <time>2018-09-19T07:51:24Z</time>
      </trkpt>
      <trkpt lat="47.706529023125768" lon="10.000053970143199">
        <ele>674.98000000000002</ele>
        <time>2018-09-19T07:51:31Z</time>
      </trkpt>
      <trkpt lat="47.706555007025599" lon="9.999912986531854">
        <ele>674.5</ele>
        <time>2018-09-19T07:51:32Z</time>
      </trkpt>
      <trkpt lat="47.706573028117418" lon="9.999768985435367">
        <ele>674.5</ele>
        <time>2018-09-19T07:51:33Z</time>
      </trkpt>
      <trkpt lat="47.706591971218586" lon="9.99962599016726">
        <ele>674.5</ele>
        <time>2018-09-19T07:51:34Z</time>
      </trkpt>
      <trkpt lat="47.706606974825263" lon="9.999510990455747">
        <ele>674.5</ele>
        <time>2018-09-19T07:51:35Z</time>
      </trkpt>
      <trkpt lat="47.706550983712077" lon="9.999365983530879">
        <ele>674.01999999999998</ele>
        <time>2018-09-19T07:51:36Z</time>
      </trkpt>
      <trkpt lat="47.706503961235285" lon="9.999240003526211">
        <ele>674.01999999999998</ele>
        <time>2018-09-19T07:51:37Z</time>
      </trkpt>
      <trkpt lat="47.706455010920763" lon="9.999112011864781">
        <ele>673.53999999999996</ele>
        <time>2018-09-19T07:51:38Z</time>
      </trkpt>
      <trkpt lat="47.706400025635958" lon="9.998989971354604">
        <ele>673.53999999999996</ele>
        <time>2018-09-19T07:51:39Z</time>
      </trkpt>
      <trkpt lat="47.705928962677717" lon="9.99769102782011">
        <ele>674.98000000000002</ele>
        <time>2018-09-19T07:51:48Z</time>
      </trkpt>
      <trkpt lat="47.705688988789916" lon="9.996159989386797">
        <ele>678.35000000000002</ele>
        <time>2018-09-19T07:51:54Z</time>
      </trkpt>
      <trkpt lat="47.705620005726814" lon="9.993883967399597">
        <ele>678.35000000000002</ele>
        <time>2018-09-19T07:52:01Z</time>
      </trkpt>
      <trkpt lat="47.705586981028318" lon="9.989716988056898">
        <ele>690.84000000000003</ele>
        <time>2018-09-19T07:52:12Z</time>
      </trkpt>
      <trkpt lat="47.705251034349203" lon="9.986361041665077">
        <ele>695.64999999999998</ele>
        <time>2018-09-19T07:52:21Z</time>
      </trkpt>
      <trkpt lat="47.704720962792635" lon="9.98383398167789">
        <ele>696.13</ele>
        <time>2018-09-19T07:52:29Z</time>
      </trkpt>
      <trkpt lat="47.704689027741551" lon="9.983540028333664">
        <ele>696.13</ele>
        <time>2018-09-19T07:52:30Z</time>
      </trkpt>
      <trkpt lat="47.704675029963255" lon="9.983242973685265">
        <ele>695.64999999999998</ele>
        <time>2018-09-19T07:52:31Z</time>
      </trkpt>
      <trkpt lat="47.704662038013339" lon="9.982950026169419">
        <ele>695.16999999999996</ele>
        <time>2018-09-19T07:52:32Z</time>
      </trkpt>
      <trkpt lat="47.704668994992971" lon="9.982644002884626">
        <ele>695.16999999999996</ele>
        <time>2018-09-19T07:52:33Z</time>
      </trkpt>
      <trkpt lat="47.704704031348228" lon="9.982334962114692">
        <ele>695.16999999999996</ele>
        <time>2018-09-19T07:52:34Z</time>
      </trkpt>
      <trkpt lat="47.704769996926188" lon="9.982032962143421">
        <ele>695.16999999999996</ele>
        <time>2018-09-19T07:52:35Z</time>
      </trkpt>
      <trkpt lat="47.70483797416091" lon="9.981722999364138">
        <ele>695.64999999999998</ele>
        <time>2018-09-19T07:52:36Z</time>
      </trkpt>
      <trkpt lat="47.70509697496891" lon="9.980220040306449">
        <ele>699.98000000000002</ele>
        <time>2018-09-19T07:52:41Z</time>
      </trkpt>
      <trkpt lat="47.705122036859393" lon="9.979919968172908">
        <ele>700.94000000000005</ele>
        <time>2018-09-19T07:52:42Z</time>
      </trkpt>
      <trkpt lat="47.705147014930844" lon="9.979612017050386">
        <ele>701.41999999999996</ele>
        <time>2018-09-19T07:52:43Z</time>
      </trkpt>
      <trkpt lat="47.705121031031013" lon="9.979302976280451">
        <ele>702.38</ele>
        <time>2018-09-19T07:52:44Z</time>
      </trkpt>
      <trkpt lat="47.705094963312149" lon="9.978991001844406">
        <ele>702.38</ele>
        <time>2018-09-19T07:52:45Z</time>
      </trkpt>
      <trkpt lat="47.705067973583937" lon="9.978673998266459">
        <ele>702.86000000000001</ele>
        <time>2018-09-19T07:52:46Z</time>
      </trkpt>
      <trkpt lat="47.705059004947543" lon="9.977435991168022">
        <ele>702.86000000000001</ele>
        <time>2018-09-19T07:52:50Z</time>
      </trkpt>
      <trkpt lat="47.705099992454052" lon="9.977142959833145">
        <ele>702.38</ele>
        <time>2018-09-19T07:52:51Z</time>
      </trkpt>
      <trkpt lat="47.705166963860393" lon="9.976860992610455">
        <ele>702.38</ele>
        <time>2018-09-19T07:52:52Z</time>
      </trkpt>
      <trkpt lat="47.705233013257384" lon="9.976581959053874">
        <ele>701.89999999999998</ele>
        <time>2018-09-19T07:52:53Z</time>
      </trkpt>
      <trkpt lat="47.705321023240685" lon="9.976311977952719">
        <ele>701.41999999999996</ele>
        <time>2018-09-19T07:52:54Z</time>
      </trkpt>
      <trkpt lat="47.705442979931831" lon="9.976067980751395">
        <ele>700.94000000000005</ele>
        <time>2018-09-19T07:52:55Z</time>
      </trkpt>
      <trkpt lat="47.705568037927151" lon="9.975819038227201">
        <ele>700.94000000000005</ele>
        <time>2018-09-19T07:52:56Z</time>
      </trkpt>
      <trkpt lat="47.705712039023638" lon="9.975586021319032">
        <ele>700.94000000000005</ele>
        <time>2018-09-19T07:52:57Z</time>
      </trkpt>
      <trkpt lat="47.705873977392912" lon="9.975377982482314">
        <ele>700.46000000000004</ele>
        <time>2018-09-19T07:52:58Z</time>
      </trkpt>
      <trkpt lat="47.706056032329798" lon="9.975207997485995">
        <ele>700.46000000000004</ele>
        <time>2018-09-19T07:52:59Z</time>
      </trkpt>
      <trkpt lat="47.706243032589555" lon="9.975059973075986">
        <ele>700.46000000000004</ele>
        <time>2018-09-19T07:53:00Z</time>
      </trkpt>
      <trkpt lat="47.706440007314086" lon="9.974939022213221">
        <ele>700.46000000000004</ele>
        <time>2018-09-19T07:53:01Z</time>
      </trkpt>
      <trkpt lat="47.706637987866998" lon="9.974815975874662">
        <ele>700.46000000000004</ele>
        <time>2018-09-19T07:53:02Z</time>
      </trkpt>
      <trkpt lat="47.70683697424829" lon="9.974694019183517">
        <ele>699.98000000000002</ele>
        <time>2018-09-19T07:53:03Z</time>
      </trkpt>
      <trkpt lat="47.707928968593478" lon="9.974021036177874">
        <ele>695.64999999999998</ele>
        <time>2018-09-19T07:53:09Z</time>
      </trkpt>
      <trkpt lat="47.708065006881952" lon="9.973814003169537">
        <ele>694.69000000000005</ele>
        <time>2018-09-19T07:53:10Z</time>
      </trkpt>
      <trkpt lat="47.708203978836536" lon="9.97360403649509">
        <ele>693.73000000000002</ele>
        <time>2018-09-19T07:53:11Z</time>
      </trkpt>
      <trkpt lat="47.708814013749361" lon="9.972820999100804">
        <ele>688.91999999999996</ele>
        <time>2018-09-19T07:53:15Z</time>
      </trkpt>
      <trkpt lat="47.709681959822774" lon="9.971936037763953">
        <ele>685.08000000000004</ele>
        <time>2018-09-19T07:53:20Z</time>
      </trkpt>
      <trkpt lat="47.709855968132615" lon="9.971740990877152">
        <ele>685.08000000000004</ele>
        <time>2018-09-19T07:53:21Z</time>
      </trkpt>
      <trkpt lat="47.71031797863543" lon="9.971069013699889">
        <ele>685.08000000000004</ele>
        <time>2018-09-19T07:53:24Z</time>
      </trkpt>
      <trkpt lat="47.71145598962903" lon="9.969638977199793">
        <ele>683.63</ele>
        <time>2018-09-19T07:53:31Z</time>
      </trkpt>
      <trkpt lat="47.712929025292397" lon="9.967972990125418">
        <ele>684.12</ele>
        <time>2018-09-19T07:53:40Z</time>
      </trkpt>
      <trkpt lat="47.713533025234938" lon="9.967320961877704">
        <ele>685.08000000000004</ele>
        <time>2018-09-19T07:53:44Z</time>
      </trkpt>
      <trkpt lat="47.714058989658952" lon="9.967050980776548">
        <ele>685.08000000000004</ele>
        <time>2018-09-19T07:53:47Z</time>
      </trkpt>
      <trkpt lat="47.714249007403851" lon="9.967001024633646">
        <ele>685.08000000000004</ele>
        <time>2018-09-19T07:53:48Z</time>
      </trkpt>
      <trkpt lat="47.714439025148749" lon="9.966949978843331">
        <ele>685.55999999999995</ele>
        <time>2018-09-19T07:53:49Z</time>
      </trkpt>
      <trkpt lat="47.714625019580126" lon="9.966942016035318">
        <ele>685.55999999999995</ele>
        <time>2018-09-19T07:53:50Z</time>
      </trkpt>
      <trkpt lat="47.71482702344656" lon="9.96694796718657">
        <ele>686.03999999999996</ele>
        <time>2018-09-19T07:53:51Z</time>
      </trkpt>
      <trkpt lat="47.715460024774075" lon="9.966929024085403">
        <ele>686.51999999999998</ele>
        <time>2018-09-19T07:53:54Z</time>
      </trkpt>
      <trkpt lat="47.715662028640509" lon="9.966895999386907">
        <ele>687</ele>
        <time>2018-09-19T07:53:55Z</time>
      </trkpt>
      <trkpt lat="47.717330027371645" lon="9.966057976707816">
        <ele>691.33000000000004</ele>
        <time>2018-09-19T07:54:03Z</time>
      </trkpt>
      <trkpt lat="47.719118976965547" lon="9.964931029826403">
        <ele>691.33000000000004</ele>
        <time>2018-09-19T07:54:12Z</time>
      </trkpt>
      <trkpt lat="47.720217006281018" lon="9.963907012715936">
        <ele>693.73000000000002</ele>
        <time>2018-09-19T07:54:19Z</time>
      </trkpt>
      <trkpt lat="47.720357989892364" lon="9.963821014389396">
        <ele>693.73000000000002</ele>
        <time>2018-09-19T07:54:20Z</time>
      </trkpt>
      <trkpt lat="47.72140103392303" lon="9.963598977774382">
        <ele>688.91999999999996</ele>
        <time>2018-09-19T07:54:28Z</time>
      </trkpt>
      <trkpt lat="47.721720971167088" lon="9.963632002472878">
        <ele>687.48000000000002</ele>
        <time>2018-09-19T07:54:31Z</time>
      </trkpt>
      <trkpt lat="47.721911994740367" lon="9.963698973879218">
        <ele>687.96000000000004</ele>
        <time>2018-09-19T07:54:33Z</time>
      </trkpt>
      <trkpt lat="47.722005033865571" lon="9.963751025497913">
        <ele>688.44000000000005</ele>
        <time>2018-09-19T07:54:34Z</time>
      </trkpt>
      <trkpt lat="47.722235033288598" lon="9.963955963030458">
        <ele>689.88</ele>
        <time>2018-09-19T07:54:37Z</time>
      </trkpt>
      <trkpt lat="47.722308039665222" lon="9.964022012427449">
        <ele>690.36000000000001</ele>
        <time>2018-09-19T07:54:38Z</time>
      </trkpt>
      <trkpt lat="47.722383979707956" lon="9.96408898383379">
        <ele>691.33000000000004</ele>
        <time>2018-09-19T07:54:39Z</time>
      </trkpt>
      <trkpt lat="47.72245698608458" lon="9.96415201574564">
        <ele>691.80999999999995</ele>
        <time>2018-09-19T07:54:40Z</time>
      </trkpt>
      <trkpt lat="47.722532004117966" lon="9.964213036000729">
        <ele>692.76999999999998</ele>
        <time>2018-09-19T07:54:41Z</time>
      </trkpt>
      <trkpt lat="47.722620014101267" lon="9.964199960231781">
        <ele>693.73000000000002</ele>
        <time>2018-09-19T07:54:42Z</time>
      </trkpt>
      <trkpt lat="47.72271104156971" lon="9.964185040444136">
        <ele>694.21000000000004</ele>
        <time>2018-09-19T07:54:43Z</time>
      </trkpt>
      <trkpt lat="47.722807014361024" lon="9.964170958846808">
        <ele>695.16999999999996</ele>
        <time>2018-09-19T07:54:44Z</time>
      </trkpt>
      <trkpt lat="47.722889995202422" lon="9.964115973562002">
        <ele>695.64999999999998</ele>
        <time>2018-09-19T07:54:45Z</time>
      </trkpt>
      <trkpt lat="47.72296903654933" lon="9.964040033519268">
        <ele>696.13</ele>
        <time>2018-09-19T07:54:46Z</time>
      </trkpt>
      <trkpt lat="47.723044976592064" lon="9.963935008272529">
        <ele>696.13</ele>
        <time>2018-09-19T07:54:47Z</time>
      </trkpt>
      <trkpt lat="47.723124017938972" lon="9.963825959712267">
        <ele>696.13</ele>
        <time>2018-09-19T07:54:48Z</time>
      </trkpt>
      <trkpt lat="47.723202975466847" lon="9.963718000799418">
        <ele>696.13</ele>
        <time>2018-09-19T07:54:49Z</time>
      </trkpt>
      <trkpt lat="47.723280005156994" lon="9.963612975552678">
        <ele>696.13</ele>
        <time>2018-09-19T07:54:50Z</time>
      </trkpt>
      <trkpt lat="47.723326021805406" lon="9.963474003598094">
        <ele>695.64999999999998</ele>
        <time>2018-09-19T07:54:51Z</time>
      </trkpt>
      <trkpt lat="47.723366003483534" lon="9.963322039693594">
        <ele>695.16999999999996</ele>
        <time>2018-09-19T07:54:52Z</time>
      </trkpt>
      <trkpt lat="47.723404979333282" lon="9.963145013898611">
        <ele>694.21000000000004</ele>
        <time>2018-09-19T07:54:53Z</time>
      </trkpt>
      <trkpt lat="47.723429035395384" lon="9.962968993932009">
        <ele>693.25</ele>
        <time>2018-09-19T07:54:54Z</time>
      </trkpt>
      <trkpt lat="47.723426017910242" lon="9.962764978408814">
        <ele>691.80999999999995</ele>
        <time>2018-09-19T07:54:55Z</time>
      </trkpt>
      <trkpt lat="47.72342199459672" lon="9.962545959278941">
        <ele>690.36000000000001</ele>
        <time>2018-09-19T07:54:56Z</time>
      </trkpt>
      <trkpt lat="47.723418977111578" lon="9.962317971512675">
        <ele>688.91999999999996</ele>
        <time>2018-09-19T07:54:57Z</time>
      </trkpt>
      <trkpt lat="47.723432974889874" lon="9.961572987958789">
        <ele>684.12</ele>
        <time>2018-09-19T07:55:00Z</time>
      </trkpt>
      <trkpt lat="47.723499024286866" lon="9.961340976879001">
        <ele>682.66999999999996</ele>
        <time>2018-09-19T07:55:01Z</time>
      </trkpt>
      <trkpt lat="47.723568007349968" lon="9.961095973849297">
        <ele>680.26999999999998</ele>
        <time>2018-09-19T07:55:02Z</time>
      </trkpt>
      <trkpt lat="47.723641013726592" lon="9.960837978869677">
        <ele>678.83000000000004</ele>
        <time>2018-09-19T07:55:03Z</time>
      </trkpt>
      <trkpt lat="47.723716031759977" lon="9.960571015253663">
        <ele>677.87</ele>
        <time>2018-09-19T07:55:04Z</time>
      </trkpt>
      <trkpt lat="47.723872018978" lon="9.960017977282405">
        <ele>674.98000000000002</ele>
        <time>2018-09-19T07:55:06Z</time>
      </trkpt>
      <trkpt lat="47.723951982334256" lon="9.959737015888095">
        <ele>674.01999999999998</ele>
        <time>2018-09-19T07:55:07Z</time>
      </trkpt>
      <trkpt lat="47.724651033058763" lon="9.95781596750021">
        <ele>672.58000000000004</ele>
        <time>2018-09-19T07:55:14Z</time>
      </trkpt>
      <trkpt lat="47.725538006052375" lon="9.956049984320998">
        <ele>677.38999999999999</ele>
        <time>2018-09-19T07:55:21Z</time>
      </trkpt>
      <trkpt lat="47.726209983229637" lon="9.95396800339222">
        <ele>681.23000000000002</ele>
        <time>2018-09-19T07:55:29Z</time>
      </trkpt>
      <trkpt lat="47.726225992664695" lon="9.953739009797573">
        <ele>682.19000000000005</ele>
        <time>2018-09-19T07:55:30Z</time>
      </trkpt>
      <trkpt lat="47.726243007928133" lon="9.953504987061024">
        <ele>683.63</ele>
        <time>2018-09-19T07:55:31Z</time>
      </trkpt>
      <trkpt lat="47.726483987644315" lon="9.950851025059819">
        <ele>690.84000000000003</ele>
        <time>2018-09-19T07:55:42Z</time>
      </trkpt>
      <trkpt lat="47.727004000917077" lon="9.94831801392138">
        <ele>686.03999999999996</ele>
        <time>2018-09-19T07:55:52Z</time>
      </trkpt>
      <trkpt lat="47.727512028068304" lon="9.946936005726457">
        <ele>684.60000000000002</ele>
        <time>2018-09-19T07:55:59Z</time>
      </trkpt>
      <trkpt lat="47.728064982220531" lon="9.944768026471138">
        <ele>697.57000000000005</ele>
        <time>2018-09-19T07:56:10Z</time>
      </trkpt>
      <trkpt lat="47.728468989953399" lon="9.942747987806797">
        <ele>707.19000000000005</ele>
        <time>2018-09-19T07:56:19Z</time>
      </trkpt>
      <trkpt lat="47.728468989953399" lon="9.940843032673001">
        <ele>707.66999999999996</ele>
        <time>2018-09-19T07:56:25Z</time>
      </trkpt>
      <trkpt lat="47.727971021085978" lon="9.93845502845943">
        <ele>703.82000000000005</ele>
        <time>2018-09-19T07:56:32Z</time>
      </trkpt>
      <trkpt lat="47.727736998349428" lon="9.937892016023397">
        <ele>702.38</ele>
        <time>2018-09-19T07:56:34Z</time>
      </trkpt>
      <trkpt lat="47.72739602252841" lon="9.937104033306241">
        <ele>700.46000000000004</ele>
        <time>2018-09-19T07:56:37Z</time>
      </trkpt>
      <trkpt lat="47.727301977574825" lon="9.936827011406422">
        <ele>699.5</ele>
        <time>2018-09-19T07:56:38Z</time>
      </trkpt>
      <trkpt lat="47.726841978728771" lon="9.934258963912725">
        <ele>694.21000000000004</ele>
        <time>2018-09-19T07:56:46Z</time>
      </trkpt>
      <trkpt lat="47.726790010929108" lon="9.932142030447722">
        <ele>689.88</ele>
        <time>2018-09-19T07:56:53Z</time>
      </trkpt>
      <trkpt lat="47.726820018142462" lon="9.931855034083128">
        <ele>689.39999999999998</ele>
        <time>2018-09-19T07:56:54Z</time>
      </trkpt>
      <trkpt lat="47.726883972063661" lon="9.931583041325212">
        <ele>688.91999999999996</ele>
        <time>2018-09-19T07:56:55Z</time>
      </trkpt>
      <trkpt lat="47.726973993703723" lon="9.931332003325224">
        <ele>688.44000000000005</ele>
        <time>2018-09-19T07:56:56Z</time>
      </trkpt>
      <trkpt lat="47.727082958444953" lon="9.931102003902197">
        <ele>687.96000000000004</ele>
        <time>2018-09-19T07:56:57Z</time>
      </trkpt>
      <trkpt lat="47.72720399312675" lon="9.930880973115563">
        <ele>687</ele>
        <time>2018-09-19T07:56:58Z</time>
      </trkpt>
      <trkpt lat="47.728289030492306" lon="9.928933018818498">
        <ele>678.35000000000002</ele>
        <time>2018-09-19T07:57:06Z</time>
      </trkpt>
      <trkpt lat="47.728387014940381" lon="9.928678963333368">
        <ele>676.41999999999996</ele>
        <time>2018-09-19T07:57:07Z</time>
      </trkpt>
      <trkpt lat="47.728444011881948" lon="9.928404958918691">
        <ele>674.5</ele>
        <time>2018-09-19T07:57:08Z</time>
      </trkpt>
      <trkpt lat="47.728500002995133" lon="9.928129026666284">
        <ele>673.05999999999995</ele>
        <time>2018-09-19T07:57:09Z</time>
      </trkpt>
      <trkpt lat="47.728525986894965" lon="9.927837001159787">
        <ele>671.62</ele>
        <time>2018-09-19T07:57:10Z</time>
      </trkpt>
      <trkpt lat="47.728522969409823" lon="9.927527960389853">
        <ele>670.17999999999995</ele>
        <time>2018-09-19T07:57:11Z</time>
      </trkpt>
      <trkpt lat="47.728480976074934" lon="9.927214980125427">
        <ele>669.22000000000003</ele>
        <time>2018-09-19T07:57:12Z</time>
      </trkpt>
      <trkpt lat="47.728045033290982" lon="9.92494398728013">
        <ele>667.28999999999996</ele>
        <time>2018-09-19T07:57:19Z</time>
      </trkpt>
      <trkpt lat="47.727685030549765" lon="9.922824036329985">
        <ele>671.62</ele>
        <time>2018-09-19T07:57:26Z</time>
      </trkpt>
      <trkpt lat="47.727625016123056" lon="9.922576015815139">
        <ele>672.10000000000002</ele>
        <time>2018-09-19T07:57:27Z</time>
      </trkpt>
      <trkpt lat="47.727552009746432" lon="9.922315003350377">
        <ele>672.58000000000004</ele>
        <time>2018-09-19T07:57:28Z</time>
      </trkpt>
      <trkpt lat="47.727430975064635" lon="9.922096990048885">
        <ele>673.05999999999995</ele>
        <time>2018-09-19T07:57:29Z</time>
      </trkpt>
      <trkpt lat="47.727306000888348" lon="9.921871013939381">
        <ele>673.05999999999995</ele>
        <time>2018-09-19T07:57:30Z</time>
      </trkpt>
      <trkpt lat="47.727186977863312" lon="9.92165501229465">
        <ele>673.53999999999996</ele>
        <time>2018-09-19T07:57:31Z</time>
      </trkpt>
      <trkpt lat="47.726870980113745" lon="9.92098898626864">
        <ele>674.01999999999998</ele>
        <time>2018-09-19T07:57:34Z</time>
      </trkpt>
      <trkpt lat="47.726814989000559" lon="9.920727973803878">
        <ele>674.5</ele>
        <time>2018-09-19T07:57:35Z</time>
      </trkpt>
      <trkpt lat="47.726786993443966" lon="9.920449024066329">
        <ele>674.98000000000002</ele>
        <time>2018-09-19T07:57:36Z</time>
      </trkpt>
      <trkpt lat="47.726769978180528" lon="9.920164039358497">
        <ele>675.46000000000004</ele>
        <time>2018-09-19T07:57:37Z</time>
      </trkpt>
      <trkpt lat="47.72675396874547" lon="9.919877965003252">
        <ele>675.94000000000005</ele>
        <time>2018-09-19T07:57:38Z</time>
      </trkpt>
      <trkpt lat="47.726737959310412" lon="9.919594991952181">
        <ele>676.90999999999997</ele>
        <time>2018-09-19T07:57:39Z</time>
      </trkpt>
      <trkpt lat="47.726682974025607" lon="9.919320987537503">
        <ele>677.38999999999999</ele>
        <time>2018-09-19T07:57:40Z</time>
      </trkpt>
      <trkpt lat="47.726618014276028" lon="9.919042959809303">
        <ele>677.38999999999999</ele>
        <time>2018-09-19T07:57:41Z</time>
      </trkpt>
      <trkpt lat="47.726545007899404" lon="9.918769039213657">
        <ele>677.87</ele>
        <time>2018-09-19T07:57:42Z</time>
      </trkpt>
      <trkpt lat="47.726429002359509" lon="9.918510038405657">
        <ele>677.87</ele>
        <time>2018-09-19T07:57:43Z</time>
      </trkpt>
      <trkpt lat="47.726308973506093" lon="9.918241985142231">
        <ele>677.38999999999999</ele>
        <time>2018-09-19T07:57:44Z</time>
      </trkpt>
      <trkpt lat="47.72535796277225" lon="9.915835959836841">
        <ele>672.10000000000002</ele>
        <time>2018-09-19T07:57:52Z</time>
      </trkpt>
      <trkpt lat="47.724533015862107" lon="9.913782980293036">
        <ele>676.90999999999997</ele>
        <time>2018-09-19T07:57:59Z</time>
      </trkpt>
      <trkpt lat="47.723393999040127" lon="9.911487009376288">
        <ele>687</ele>
        <time>2018-09-19T07:58:08Z</time>
      </trkpt>
      <trkpt lat="47.722913967445493" lon="9.909156002104282">
        <ele>693.25</ele>
        <time>2018-09-19T07:58:16Z</time>
      </trkpt>
      <trkpt lat="47.722632000222802" lon="9.906678982079029">
        <ele>696.13</ele>
        <time>2018-09-19T07:58:25Z</time>
      </trkpt>
      <trkpt lat="47.722363024950027" lon="9.905269984155893">
        <ele>691.33000000000004</ele>
        <time>2018-09-19T07:58:34Z</time>
      </trkpt>
      <trkpt lat="47.722081979736686" lon="9.903796026483178">
        <ele>683.63</ele>
        <time>2018-09-19T07:58:44Z</time>
      </trkpt>
      <trkpt lat="47.721890034154058" lon="9.902699002996087">
        <ele>677.38999999999999</ele>
        <time>2018-09-19T07:58:52Z</time>
      </trkpt>
      <trkpt lat="47.721863966435194" lon="9.90257796831429">
        <ele>676.90999999999997</ele>
        <time>2018-09-19T07:58:53Z</time>
      </trkpt>
      <trkpt lat="47.721836976706982" lon="9.902459029108286">
        <ele>676.41999999999996</ele>
        <time>2018-09-19T07:58:54Z</time>
      </trkpt>
      <trkpt lat="47.72181099280715" lon="9.90234000608325">
        <ele>675.94000000000005</ele>
        <time>2018-09-19T07:58:55Z</time>
      </trkpt>
      <trkpt lat="47.721785008907318" lon="9.902221988886595">
        <ele>675.94000000000005</ele>
        <time>2018-09-19T07:58:56Z</time>
      </trkpt>
      <trkpt lat="47.721759025007486" lon="9.902106989175081">
        <ele>674.5</ele>
        <time>2018-09-19T07:58:57Z</time>
      </trkpt>
      <trkpt lat="47.721719965338707" lon="9.902010010555387">
        <ele>672.10000000000002</ele>
        <time>2018-09-19T07:58:58Z</time>
      </trkpt>
      <trkpt lat="47.721500024199486" lon="9.901489997282624">
        <ele>664.88999999999999</ele>
        <time>2018-09-19T07:59:03Z</time>
      </trkpt>
      <trkpt lat="47.721462976187468" lon="9.901402993127704">
        <ele>664.40999999999997</ele>
        <time>2018-09-19T07:59:04Z</time>
      </trkpt>
      <trkpt lat="47.721426011994481" lon="9.901316994801164">
        <ele>663.92999999999995</ele>
        <time>2018-09-19T07:59:05Z</time>
      </trkpt>
      <trkpt lat="47.721331967040896" lon="9.90092103369534">
        <ele>660.55999999999995</ele>
        <time>2018-09-19T07:59:09Z</time>
      </trkpt>
      <trkpt lat="47.721296008676291" lon="9.900734033435583">
        <ele>659.12</ele>
        <time>2018-09-19T07:59:11Z</time>
      </trkpt>
      <trkpt lat="47.721282010897994" lon="9.900655997917056">
        <ele>658.63999999999999</ele>
        <time>2018-09-19T07:59:12Z</time>
      </trkpt>
      <trkpt lat="47.721269018948078" lon="9.900586009025574">
        <ele>657.67999999999995</ele>
        <time>2018-09-19T07:59:13Z</time>
      </trkpt>
      <trkpt lat="47.721267007291317" lon="9.900409989058971">
        <ele>657.20000000000005</ele>
        <time>2018-09-19T07:59:14Z</time>
      </trkpt>
      <trkpt lat="47.721307994797826" lon="9.900362966582179">
        <ele>656.72000000000003</ele>
        <time>2018-09-19T07:59:15Z</time>
      </trkpt>
      <trkpt lat="47.721350993961096" lon="9.900310998782516">
        <ele>655.75999999999999</ele>
        <time>2018-09-19T07:59:16Z</time>
      </trkpt>
      <trkpt lat="47.721400028094649" lon="9.900252996012569">
        <ele>655.27999999999997</ele>
        <time>2018-09-19T07:59:17Z</time>
      </trkpt>
      <trkpt lat="47.721451995894313" lon="9.90019197575748">
        <ele>654.30999999999995</ele>
        <time>2018-09-19T07:59:18Z</time>
      </trkpt>
      <trkpt lat="47.721518967300653" lon="9.90012601017952">
        <ele>653.83000000000004</ele>
        <time>2018-09-19T07:59:19Z</time>
      </trkpt>
      <trkpt lat="47.7220069617033" lon="9.899694006890059">
        <ele>651.42999999999995</ele>
        <time>2018-09-19T07:59:26Z</time>
      </trkpt>
      <trkpt lat="47.722048033028841" lon="9.899622006341815">
        <ele>651.42999999999995</ele>
        <time>2018-09-19T07:59:27Z</time>
      </trkpt>
      <trkpt lat="47.722076028585434" lon="9.899518992751837">
        <ele>651.42999999999995</ele>
        <time>2018-09-19T07:59:28Z</time>
      </trkpt>
      <trkpt lat="47.722098995000124" lon="9.899415979161859">
        <ele>651.42999999999995</ele>
        <time>2018-09-19T07:59:29Z</time>
      </trkpt>
      <trkpt lat="47.72209296002984" lon="9.899307014420629">
        <ele>651.42999999999995</ele>
        <time>2018-09-19T07:59:30Z</time>
      </trkpt>
      <trkpt lat="47.722088014706969" lon="9.89920400083065">
        <ele>651.42999999999995</ele>
        <time>2018-09-19T07:59:31Z</time>
      </trkpt>
      <trkpt lat="47.722082985565066" lon="9.899100987240672">
        <ele>651.42999999999995</ele>
        <time>2018-09-19T07:59:32Z</time>
      </trkpt>
      <trkpt lat="47.722078040242195" lon="9.899004008620977">
        <ele>651.90999999999997</ele>
        <time>2018-09-19T07:59:33Z</time>
      </trkpt>
      <trkpt lat="47.722118021920323" lon="9.898904012516141">
        <ele>651.90999999999997</ele>
        <time>2018-09-19T07:59:34Z</time>
      </trkpt>
      <trkpt lat="47.722153980284929" lon="9.898813990876079">
        <ele>651.90999999999997</ele>
        <time>2018-09-19T07:59:35Z</time>
      </trkpt>
      <trkpt lat="47.722189016640186" lon="9.898724975064397">
        <ele>651.90999999999997</ele>
        <time>2018-09-19T07:59:36Z</time>
      </trkpt>
      <trkpt lat="47.722230004146695" lon="9.898637970909476">
        <ele>652.38999999999999</ele>
        <time>2018-09-19T07:59:37Z</time>
      </trkpt>
      <trkpt lat="47.722271997481585" lon="9.898555995896459">
        <ele>652.38999999999999</ele>
        <time>2018-09-19T07:59:38Z</time>
      </trkpt>
      <trkpt lat="47.722313990816474" lon="9.898477960377932">
        <ele>652.87</ele>
        <time>2018-09-19T07:59:39Z</time>
      </trkpt>
      <trkpt lat="47.72234802134335" lon="9.898411994799972">
        <ele>652.87</ele>
        <time>2018-09-19T07:59:40Z</time>
      </trkpt>
      <trkpt lat="47.722505014389753" lon="9.898298000916839">
        <ele>653.35000000000002</ele>
        <time>2018-09-19T07:59:41Z</time>
      </trkpt>
      <trkpt lat="47.722547007724643" lon="9.89834301173687">
        <ele>653.35000000000002</ele>
        <time>2018-09-19T07:59:42Z</time>
      </trkpt>
      <trkpt lat="47.722595036029816" lon="9.898394979536533">
        <ele>653.35000000000002</ele>
        <time>2018-09-19T07:59:43Z</time>
      </trkpt>
      <trkpt lat="47.722643986344337" lon="9.898447031155229">
        <ele>653.83000000000004</ele>
        <time>2018-09-19T07:59:44Z</time>
      </trkpt>
      <trkpt lat="47.722696037963033" lon="9.898504028096795">
        <ele>653.83000000000004</ele>
        <time>2018-09-19T07:59:45Z</time>
      </trkpt>
      <trkpt lat="47.72275798022747" lon="9.898570999503136">
        <ele>653.83000000000004</ele>
        <time>2018-09-19T07:59:46Z</time>
      </trkpt>
      <trkpt lat="47.722826963290572" lon="9.89864501170814">
        <ele>654.30999999999995</ele>
        <time>2018-09-19T07:59:47Z</time>
      </trkpt>
      <trkpt lat="47.722901981323957" lon="9.898724975064397">
        <ele>654.30999999999995</ele>
        <time>2018-09-19T07:59:48Z</time>
      </trkpt>
      <trkpt lat="47.723000971600413" lon="9.898832011967897">
        <ele>654.79999999999995</ele>
        <time>2018-09-19T07:59:49Z</time>
      </trkpt>
      <trkpt lat="47.723070038482547" lon="9.898878028616309">
        <ele>655.27999999999997</ele>
        <time>2018-09-19T07:59:50Z</time>
      </trkpt>
      <trkpt lat="47.723175985738635" lon="9.898927984759212">
        <ele>656.24000000000001</ele>
        <time>2018-09-19T07:59:51Z</time>
      </trkpt>
      <trkpt lat="47.723289979621768" lon="9.898954974487424">
        <ele>656.24000000000001</ele>
        <time>2018-09-19T07:59:52Z</time>
      </trkpt>
      <trkpt lat="47.72352903150022" lon="9.899009959772229">
        <ele>657.67999999999995</ele>
        <time>2018-09-19T07:59:54Z</time>
      </trkpt>
      <trkpt lat="47.723652999848127" lon="9.899038039147854">
        <ele>658.15999999999997</ele>
        <time>2018-09-19T07:59:55Z</time>
      </trkpt>
      <trkpt lat="47.725482014939189" lon="9.899234008044004">
        <ele>660.08000000000004</ele>
        <time>2018-09-19T08:00:08Z</time>
      </trkpt>
      <trkpt lat="47.727387975901365" lon="9.899279018864036">
        <ele>660.55999999999995</ele>
        <time>2018-09-19T08:00:21Z</time>
      </trkpt>
      <trkpt lat="47.728847013786435" lon="9.898625984787941">
        <ele>654.30999999999995</ele>
        <time>2018-09-19T08:00:30Z</time>
      </trkpt>
      <trkpt lat="47.728998977690935" lon="9.898557001724839">
        <ele>652.87</ele>
        <time>2018-09-19T08:00:31Z</time>
      </trkpt>
      <trkpt lat="47.729127975180745" lon="9.898405959829688">
        <ele>651.42999999999995</ele>
        <time>2018-09-19T08:00:32Z</time>
      </trkpt>
      <trkpt lat="47.729246998205781" lon="9.898260030895472">
        <ele>649.99000000000001</ele>
        <time>2018-09-19T08:00:33Z</time>
      </trkpt>
      <trkpt lat="47.729340037330985" lon="9.898104965686798">
        <ele>648.54999999999995</ele>
        <time>2018-09-19T08:00:34Z</time>
      </trkpt>
      <trkpt lat="47.729427963495255" lon="9.897929029539228">
        <ele>647.10000000000002</ele>
        <time>2018-09-19T08:00:35Z</time>
      </trkpt>
      <trkpt lat="47.729516979306936" lon="9.897752003744245">
        <ele>645.65999999999997</ele>
        <time>2018-09-19T08:00:36Z</time>
      </trkpt>
      <trkpt lat="47.729669027030468" lon="9.897446986287832">
        <ele>643.25999999999999</ele>
        <time>2018-09-19T08:00:38Z</time>
      </trkpt>
      <trkpt lat="47.729774974286556" lon="9.897337015718222">
        <ele>641.82000000000005</ele>
        <time>2018-09-19T08:00:39Z</time>
      </trkpt>
      <trkpt lat="47.729892991483212" lon="9.897252023220062">
        <ele>640.86000000000001</ele>
        <time>2018-09-19T08:00:40Z</time>
      </trkpt>
      <trkpt lat="47.730010002851486" lon="9.897167030721903">
        <ele>639.88999999999999</ele>
        <time>2018-09-19T08:00:41Z</time>
      </trkpt>
      <trkpt lat="47.730132965371013" lon="9.897108022123575">
        <ele>638.92999999999995</ele>
        <time>2018-09-19T08:00:42Z</time>
      </trkpt>
      <trkpt lat="47.730262968689203" lon="9.897088995203376">
        <ele>638.45000000000005</ele>
        <time>2018-09-19T08:00:43Z</time>
      </trkpt>
      <trkpt lat="47.730526998639107" lon="9.897052031010389">
        <ele>637.49000000000001</ele>
        <time>2018-09-19T08:00:45Z</time>
      </trkpt>
      <trkpt lat="47.730636969208717" lon="9.896978018805385">
        <ele>636.52999999999997</ele>
        <time>2018-09-19T08:00:46Z</time>
      </trkpt>
      <trkpt lat="47.73074802942574" lon="9.896898977458477">
        <ele>635.57000000000005</ele>
        <time>2018-09-19T08:00:47Z</time>
      </trkpt>
      <trkpt lat="47.731072995811701" lon="9.896534029394388">
        <ele>633.16999999999996</ele>
        <time>2018-09-19T08:00:50Z</time>
      </trkpt>
      <trkpt lat="47.731161005795002" lon="9.896372007206082">
        <ele>632.20000000000005</ele>
        <time>2018-09-19T08:00:51Z</time>
      </trkpt>
      <trkpt lat="47.73124298080802" lon="9.896207973361015">
        <ele>631.24000000000001</ele>
        <time>2018-09-19T08:00:52Z</time>
      </trkpt>
      <trkpt lat="47.731403997167945" lon="9.895886024460197">
        <ele>629.79999999999995</ele>
        <time>2018-09-19T08:00:54Z</time>
      </trkpt>
      <trkpt lat="47.731481026858091" lon="9.895738000050187">
        <ele>628.36000000000001</ele>
        <time>2018-09-19T08:00:55Z</time>
      </trkpt>
      <trkpt lat="47.731598038226366" lon="9.89563599228859">
        <ele>627.88</ele>
        <time>2018-09-19T08:00:56Z</time>
      </trkpt>
      <trkpt lat="47.731727035716176" lon="9.895524010062218">
        <ele>626.44000000000005</ele>
        <time>2018-09-19T08:00:57Z</time>
      </trkpt>
      <trkpt lat="47.731863996013999" lon="9.895403981208801">
        <ele>625.47000000000003</ele>
        <time>2018-09-19T08:00:58Z</time>
      </trkpt>
      <trkpt lat="47.732755998149514" lon="9.894523965194821">
        <ele>617.29999999999995</ele>
        <time>2018-09-19T08:01:05Z</time>
      </trkpt>
      <trkpt lat="47.732834033668041" lon="9.894376024603844">
        <ele>615.86000000000001</ele>
        <time>2018-09-19T08:01:06Z</time>
      </trkpt>
      <trkpt lat="47.732895975932479" lon="9.894223976880312">
        <ele>614.41999999999996</ele>
        <time>2018-09-19T08:01:07Z</time>
      </trkpt>
      <trkpt lat="47.732952972874045" lon="9.8940450232476">
        <ele>612.98000000000002</ele>
        <time>2018-09-19T08:01:08Z</time>
      </trkpt>
      <trkpt lat="47.733009969815612" lon="9.893865985795856">
        <ele>612.01999999999998</ele>
        <time>2018-09-19T08:01:09Z</time>
      </trkpt>
      <trkpt lat="47.733279028907418" lon="9.893124019727111">
        <ele>608.64999999999998</ele>
        <time>2018-09-19T08:01:13Z</time>
      </trkpt>
      <trkpt lat="47.733371984213591" lon="9.892968032509089">
        <ele>608.16999999999996</ele>
        <time>2018-09-19T08:01:14Z</time>
      </trkpt>
      <trkpt lat="47.733565019443631" lon="9.892654968425632">
        <ele>606.73000000000002</ele>
        <time>2018-09-19T08:01:16Z</time>
      </trkpt>
      <trkpt lat="47.73366903886199" lon="9.892492024227977">
        <ele>605.76999999999998</ele>
        <time>2018-09-19T08:01:17Z</time>
      </trkpt>
      <trkpt lat="47.734437994658947" lon="9.891171958297491">
        <ele>600</ele>
        <time>2018-09-19T08:01:25Z</time>
      </trkpt>
      <trkpt lat="47.734491974115372" lon="9.890985041856766">
        <ele>600</ele>
        <time>2018-09-19T08:01:26Z</time>
      </trkpt>
      <trkpt lat="47.735093040391803" lon="9.889157032594085">
        <ele>602.88</ele>
        <time>2018-09-19T08:01:35Z</time>
      </trkpt>
      <trkpt lat="47.735198987647891" lon="9.888913035392761">
        <ele>603.85000000000002</ele>
        <time>2018-09-19T08:01:37Z</time>
      </trkpt>
      <trkpt lat="47.735233018174767" lon="9.888833994045854">
        <ele>603.85000000000002</ele>
        <time>2018-09-19T08:01:38Z</time>
      </trkpt>
      <trkpt lat="47.735255984589458" lon="9.88878202624619">
        <ele>603.85000000000002</ele>
        <time>2018-09-19T08:01:39Z</time>
      </trkpt>
      <trkpt lat="47.735398979857564" lon="9.888750007376075">
        <ele>603.85000000000002</ele>
        <time>2018-09-19T08:01:40Z</time>
      </trkpt>
      <trkpt lat="47.735429992899299" lon="9.888793006539345">
        <ele>603.85000000000002</ele>
        <time>2018-09-19T08:01:41Z</time>
      </trkpt>
      <trkpt lat="47.73547500371933" lon="9.888854026794434">
        <ele>604.33000000000004</ele>
        <time>2018-09-19T08:01:42Z</time>
      </trkpt>
      <trkpt lat="47.735533006489277" lon="9.88893399015069">
        <ele>604.33000000000004</ele>
        <time>2018-09-19T08:01:43Z</time>
      </trkpt>
      <trkpt lat="47.735599977895617" lon="9.889024011790752">
        <ele>604.80999999999995</ele>
        <time>2018-09-19T08:01:44Z</time>
      </trkpt>
      <trkpt lat="47.736218981444836" lon="9.889867985621095">
        <ele>604.80999999999995</ele>
        <time>2018-09-19T08:01:50Z</time>
      </trkpt>
      <trkpt lat="47.736971005797386" lon="9.890758981928229">
        <ele>604.33000000000004</ele>
        <time>2018-09-19T08:01:55Z</time>
      </trkpt>
      <trkpt lat="47.738694995641708" lon="9.892229000106454">
        <ele>610.57000000000005</ele>
        <time>2018-09-19T08:02:04Z</time>
      </trkpt>
      <trkpt lat="47.740411022678018" lon="9.893748974427581">
        <ele>624.02999999999997</ele>
        <time>2018-09-19T08:02:12Z</time>
      </trkpt>
      <trkpt lat="47.741980031132698" lon="9.895264003425837">
        <ele>637.49000000000001</ele>
        <time>2018-09-19T08:02:20Z</time>
      </trkpt>
      <trkpt lat="47.742240959778428" lon="9.895520992577076">
        <ele>641.34000000000003</ele>
        <time>2018-09-19T08:02:22Z</time>
      </trkpt>
      <trkpt lat="47.742341039702296" lon="9.895690977573395">
        <ele>642.29999999999995</ele>
        <time>2018-09-19T08:02:23Z</time>
      </trkpt>
      <trkpt lat="47.742428965866566" lon="9.895890969783068">
        <ele>644.22000000000003</ele>
        <time>2018-09-19T08:02:24Z</time>
      </trkpt>
      <trkpt lat="47.742481017485261" lon="9.896119963377714">
        <ele>645.65999999999997</ele>
        <time>2018-09-19T08:02:25Z</time>
      </trkpt>
      <trkpt lat="47.742533991113305" lon="9.896360021084547">
        <ele>647.10000000000002</ele>
        <time>2018-09-19T08:02:26Z</time>
      </trkpt>
      <trkpt lat="47.742676986381412" lon="9.897120008245111">
        <ele>651.42999999999995</ele>
        <time>2018-09-19T08:02:29Z</time>
      </trkpt>
      <trkpt lat="47.742700958624482" lon="9.897362999618053">
        <ele>652.38999999999999</ele>
        <time>2018-09-19T08:02:30Z</time>
      </trkpt>
      <trkpt lat="47.74271504022181" lon="9.897616971284151">
        <ele>653.35000000000002</ele>
        <time>2018-09-19T08:02:31Z</time>
      </trkpt>
      <trkpt lat="47.742686960846186" lon="9.897861974313855">
        <ele>654.30999999999995</ele>
        <time>2018-09-19T08:02:32Z</time>
      </trkpt>
      <trkpt lat="47.742661982774734" lon="9.898093985393643">
        <ele>655.75999999999999</ele>
        <time>2018-09-19T08:02:33Z</time>
      </trkpt>
      <trkpt lat="47.742638010531664" lon="9.898304035887122">
        <ele>656.72000000000003</ele>
        <time>2018-09-19T08:02:34Z</time>
      </trkpt>
      <trkpt lat="47.742616971954703" lon="9.898496987298131">
        <ele>657.67999999999995</ele>
        <time>2018-09-19T08:02:35Z</time>
      </trkpt>
      <trkpt lat="47.742643961682916" lon="9.898672001436353">
        <ele>659.12</ele>
        <time>2018-09-19T08:02:36Z</time>
      </trkpt>
      <trkpt lat="47.742685033008456" lon="9.898856990039349">
        <ele>660.08000000000004</ele>
        <time>2018-09-19T08:02:37Z</time>
      </trkpt>
      <trkpt lat="47.742761978879571" lon="9.898999985307455">
        <ele>661.03999999999996</ele>
        <time>2018-09-19T08:02:38Z</time>
      </trkpt>
      <trkpt lat="47.742868009954691" lon="9.89913702942431">
        <ele>661.51999999999998</ele>
        <time>2018-09-19T08:02:39Z</time>
      </trkpt>
      <trkpt lat="47.742993989959359" lon="9.899230990558863">
        <ele>662.49000000000001</ele>
        <time>2018-09-19T08:02:40Z</time>
      </trkpt>
      <trkpt lat="47.743146037682891" lon="9.899296034127474">
        <ele>663.45000000000005</ele>
        <time>2018-09-19T08:02:41Z</time>
      </trkpt>
      <trkpt lat="47.743304958567023" lon="9.899365017190576">
        <ele>664.40999999999997</ele>
        <time>2018-09-19T08:02:42Z</time>
      </trkpt>
      <trkpt lat="47.744449004530907" lon="9.899880001321435">
        <ele>670.17999999999995</ele>
        <time>2018-09-19T08:02:49Z</time>
      </trkpt>
      <trkpt lat="47.744790986180305" lon="9.90010698325932">
        <ele>670.65999999999997</ele>
        <time>2018-09-19T08:02:51Z</time>
      </trkpt>
      <trkpt lat="47.744958959519863" lon="9.900262970477343">
        <ele>670.17999999999995</ele>
        <time>2018-09-19T08:02:52Z</time>
      </trkpt>
      <trkpt lat="47.745126010850072" lon="9.900444019585848">
        <ele>669.70000000000005</ele>
        <time>2018-09-19T08:02:53Z</time>
      </trkpt>
      <trkpt lat="47.746209036558867" lon="9.901486979797483">
        <ele>667.76999999999998</ele>
        <time>2018-09-19T08:02:59Z</time>
      </trkpt>
      <trkpt lat="47.746599968522787" lon="9.901681020855904">
        <ele>667.76999999999998</ele>
        <time>2018-09-19T08:03:01Z</time>
      </trkpt>
      <trkpt lat="47.746810019016266" lon="9.90173701196909">
        <ele>667.76999999999998</ele>
        <time>2018-09-19T08:03:02Z</time>
      </trkpt>
      <trkpt lat="47.747451988980174" lon="9.901928035542369">
        <ele>665.85000000000002</ele>
        <time>2018-09-19T08:03:05Z</time>
      </trkpt>
      <trkpt lat="47.747662039473653" lon="9.90203901194036">
        <ele>664.88999999999999</ele>
        <time>2018-09-19T08:03:06Z</time>
      </trkpt>
      <trkpt lat="47.74903298355639" lon="9.903313983231783">
        <ele>662.97000000000003</ele>
        <time>2018-09-19T08:03:13Z</time>
      </trkpt>
      <trkpt lat="47.749822977930307" lon="9.904925990849733">
        <ele>661.51999999999998</ele>
        <time>2018-09-19T08:03:19Z</time>
      </trkpt>
      <trkpt lat="47.750494033098221" lon="9.906784007325769">
        <ele>661.03999999999996</ele>
        <time>2018-09-19T08:03:27Z</time>
      </trkpt>
      <trkpt lat="47.750602997839451" lon="9.906951980665326">
        <ele>661.03999999999996</ele>
        <time>2018-09-19T08:03:28Z</time>
      </trkpt>
      <trkpt lat="47.750722020864487" lon="9.907076032832265">
        <ele>661.51999999999998</ele>
        <time>2018-09-19T08:03:29Z</time>
      </trkpt>
      <trkpt lat="47.750830985605717" lon="9.907189020887017">
        <ele>661.51999999999998</ele>
        <time>2018-09-19T08:03:30Z</time>
      </trkpt>
      <trkpt lat="47.750925030559301" lon="9.907287005335093">
        <ele>661.51999999999998</ele>
        <time>2018-09-19T08:03:31Z</time>
      </trkpt>
      <trkpt lat="47.751067019999027" lon="9.907434023916721">
        <ele>661.51999999999998</ele>
        <time>2018-09-19T08:03:33Z</time>
      </trkpt>
      <trkpt lat="47.751120999455452" lon="9.907490015029907">
        <ele>661.03999999999996</ele>
        <time>2018-09-19T08:03:34Z</time>
      </trkpt>
      <trkpt lat="47.751131979748607" lon="9.907672991976142">
        <ele>661.03999999999996</ele>
        <time>2018-09-19T08:03:35Z</time>
      </trkpt>
      <trkpt lat="47.75116098113358" lon="9.907710961997509">
        <ele>661.03999999999996</ele>
        <time>2018-09-19T08:03:36Z</time>
      </trkpt>
      <trkpt lat="47.751214960590005" lon="9.907763013616204">
        <ele>661.03999999999996</ele>
        <time>2018-09-19T08:03:37Z</time>
      </trkpt>
      <trkpt lat="47.751299031078815" lon="9.907757984474301">
        <ele>661.03999999999996</ele>
        <time>2018-09-19T08:03:38Z</time>
      </trkpt>
      <trkpt lat="47.75135200470686" lon="9.907692018896341">
        <ele>660.55999999999995</ele>
        <time>2018-09-19T08:03:39Z</time>
      </trkpt>
      <trkpt lat="47.751368014141917" lon="9.907580958679318">
        <ele>661.03999999999996</ele>
        <time>2018-09-19T08:03:40Z</time>
      </trkpt>
      <trkpt lat="47.751368014141917" lon="9.907522033900023">
        <ele>661.03999999999996</ele>
        <time>2018-09-19T08:03:41Z</time>
      </trkpt>
      <trkpt lat="47.751318980008364" lon="9.90730200894177">
        <ele>661.03999999999996</ele>
        <time>2018-09-19T08:03:42Z</time>
      </trkpt>
      <trkpt lat="47.751358961686492" lon="9.907179968431592">
        <ele>661.03999999999996</ele>
        <time>2018-09-19T08:03:43Z</time>
      </trkpt>
      <trkpt lat="47.751409001648426" lon="9.907028004527092">
        <ele>661.51999999999998</ele>
        <time>2018-09-19T08:03:44Z</time>
      </trkpt>
      <trkpt lat="47.751916022971272" lon="9.905607020482421">
        <ele>662.97000000000003</ele>
        <time>2018-09-19T08:03:51Z</time>
      </trkpt>
      <trkpt lat="47.75229899212718" lon="9.904878968372941">
        <ele>662.97000000000003</ele>
        <time>2018-09-19T08:03:55Z</time>
      </trkpt>
      <trkpt lat="47.752368981018662" lon="9.904763968661428">
        <ele>662.97000000000003</ele>
        <time>2018-09-19T08:03:56Z</time>
      </trkpt>
      <trkpt lat="47.752423966303468" lon="9.904674030840397">
        <ele>662.97000000000003</ele>
        <time>2018-09-19T08:03:57Z</time>
      </trkpt>
      <trkpt lat="47.752508958801627" lon="9.904670007526875">
        <ele>662.97000000000003</ele>
        <time>2018-09-19T08:03:58Z</time>
      </trkpt>
      <trkpt lat="47.752600992098451" lon="9.904637988656759">
        <ele>662.49000000000001</ele>
        <time>2018-09-19T08:03:59Z</time>
      </trkpt>
      <trkpt lat="47.752638962119818" lon="9.904333977028728">
        <ele>662.97000000000003</ele>
        <time>2018-09-19T08:04:01Z</time>
      </trkpt>
      <trkpt lat="47.752710962668061" lon="9.904240015894175">
        <ele>662.97000000000003</ele>
        <time>2018-09-19T08:04:02Z</time>
      </trkpt>
      <trkpt lat="47.752798972651362" lon="9.904127027839422">
        <ele>662.97000000000003</ele>
        <time>2018-09-19T08:04:03Z</time>
      </trkpt>
      <trkpt lat="47.752897962927818" lon="9.903998030349612">
        <ele>662.49000000000001</ele>
        <time>2018-09-19T08:04:04Z</time>
      </trkpt>
      <trkpt lat="47.753008017316461" lon="9.903856962919235">
        <ele>662.49000000000001</ele>
        <time>2018-09-19T08:04:05Z</time>
      </trkpt>
      <trkpt lat="47.753127040341496" lon="9.903702987357974">
        <ele>662.49000000000001</ele>
        <time>2018-09-19T08:04:06Z</time>
      </trkpt>
      <trkpt lat="47.75427502579987" lon="9.902522983029485">
        <ele>662.00999999999999</ele>
        <time>2018-09-19T08:04:13Z</time>
      </trkpt>
      <trkpt lat="47.756479969248176" lon="9.90083796903491">
        <ele>662.49000000000001</ele>
        <time>2018-09-19T08:04:24Z</time>
      </trkpt>
      <trkpt lat="47.758103040978312" lon="9.899820992723107">
        <ele>661.03999999999996</ele>
        <time>2018-09-19T08:04:32Z</time>
      </trkpt>
      <trkpt lat="47.75919402949512" lon="9.89853898063302">
        <ele>659.12</ele>
        <time>2018-09-19T08:04:38Z</time>
      </trkpt>
      <trkpt lat="47.760199019685388" lon="9.897253029048443">
        <ele>655.27999999999997</ele>
        <time>2018-09-19T08:04:45Z</time>
      </trkpt>
      <trkpt lat="47.76147298514843" lon="9.895901028066874">
        <ele>653.83000000000004</ele>
        <time>2018-09-19T08:04:54Z</time>
      </trkpt>
      <trkpt lat="47.76267503388226" lon="9.895032998174429">
        <ele>658.63999999999999</ele>
        <time>2018-09-19T08:05:02Z</time>
      </trkpt>
      <trkpt lat="47.764290980994701" lon="9.894062038511038">
        <ele>660.55999999999995</ele>
        <time>2018-09-19T08:05:10Z</time>
      </trkpt>
      <trkpt lat="47.766109015792608" lon="9.892245009541512">
        <ele>660.55999999999995</ele>
        <time>2018-09-19T08:05:19Z</time>
      </trkpt>
      <trkpt lat="47.767592025920749" lon="9.891131976619363">
        <ele>660.08000000000004</ele>
        <time>2018-09-19T08:05:27Z</time>
      </trkpt>
      <trkpt lat="47.769398996606469" lon="9.890452958643436">
        <ele>659.60000000000002</ele>
        <time>2018-09-19T08:05:35Z</time>
      </trkpt>
      <trkpt lat="47.770956018939614" lon="9.890257995575666">
        <ele>658.63999999999999</ele>
        <time>2018-09-19T08:05:43Z</time>
      </trkpt>
      <trkpt lat="47.772841025143862" lon="9.890362014994025">
        <ele>659.12</ele>
        <time>2018-09-19T08:05:53Z</time>
      </trkpt>
      <trkpt lat="47.774365022778511" lon="9.890989987179637">
        <ele>660.08000000000004</ele>
        <time>2018-09-19T08:06:00Z</time>
      </trkpt>
      <trkpt lat="47.774777999147773" lon="9.891278995200992">
        <ele>660.55999999999995</ele>
        <time>2018-09-19T08:06:02Z</time>
      </trkpt>
      <trkpt lat="47.77565298601985" lon="9.892250960692763">
        <ele>660.08000000000004</ele>
        <time>2018-09-19T08:06:08Z</time>
      </trkpt>
      <trkpt lat="47.776531996205449" lon="9.892897037789226">
        <ele>658.63999999999999</ele>
        <time>2018-09-19T08:06:16Z</time>
      </trkpt>
      <trkpt lat="47.777243033051491" lon="9.893506988883019">
        <ele>659.60000000000002</ele>
        <time>2018-09-19T08:06:23Z</time>
      </trkpt>
      <trkpt lat="47.778001008555293" lon="9.894408965483308">
        <ele>662.49000000000001</ele>
        <time>2018-09-19T08:06:31Z</time>
      </trkpt>
      <trkpt lat="47.778111984953284" lon="9.894495969638228">
        <ele>662.49000000000001</ele>
        <time>2018-09-19T08:06:32Z</time>
      </trkpt>
      <trkpt lat="47.778228996321559" lon="9.894554978236556">
        <ele>662.49000000000001</ele>
        <time>2018-09-19T08:06:33Z</time>
      </trkpt>
      <trkpt lat="47.778361011296511" lon="9.894589008763433">
        <ele>662.49000000000001</ele>
        <time>2018-09-19T08:06:34Z</time>
      </trkpt>
      <trkpt lat="47.778499983251095" lon="9.894623039290309">
        <ele>662.49000000000001</ele>
        <time>2018-09-19T08:06:35Z</time>
      </trkpt>
      <trkpt lat="47.778645996004343" lon="9.894660003483295">
        <ele>662.00999999999999</ele>
        <time>2018-09-19T08:06:36Z</time>
      </trkpt>
      <trkpt lat="47.778793014585972" lon="9.894646005704999">
        <ele>662.00999999999999</ele>
        <time>2018-09-19T08:06:37Z</time>
      </trkpt>
      <trkpt lat="47.778951013460755" lon="9.894612981006503">
        <ele>662.00999999999999</ele>
        <time>2018-09-19T08:06:38Z</time>
      </trkpt>
      <trkpt lat="47.779122004285455" lon="9.894578028470278">
        <ele>661.51999999999998</ele>
        <time>2018-09-19T08:06:39Z</time>
      </trkpt>
      <trkpt lat="47.779296012595296" lon="9.89449798129499">
        <ele>661.51999999999998</ele>
        <time>2018-09-19T08:06:40Z</time>
      </trkpt>
      <trkpt lat="47.779470020905137" lon="9.894384993240237">
        <ele>661.51999999999998</ele>
        <time>2018-09-19T08:06:41Z</time>
      </trkpt>
      <trkpt lat="47.779648974537849" lon="9.894267981871963">
        <ele>661.03999999999996</ele>
        <time>2018-09-19T08:06:42Z</time>
      </trkpt>
      <trkpt lat="47.779822982847691" lon="9.894113000482321">
        <ele>661.03999999999996</ele>
        <time>2018-09-19T08:06:43Z</time>
      </trkpt>
      <trkpt lat="47.781568011268973" lon="9.89250099286437">
        <ele>659.12</ele>
        <time>2018-09-19T08:06:53Z</time>
      </trkpt>
      <trkpt lat="47.782833008095622" lon="9.891494996845722">
        <ele>657.20000000000005</ele>
        <time>2018-09-19T08:07:02Z</time>
      </trkpt>
      <trkpt lat="47.78360104188323" lon="9.890771973878145">
        <ele>654.79999999999995</ele>
        <time>2018-09-19T08:07:09Z</time>
      </trkpt>
      <trkpt lat="47.784045031294227" lon="9.890336031094194">
        <ele>654.79999999999995</ele>
        <time>2018-09-19T08:07:14Z</time>
      </trkpt>
      <trkpt lat="47.784864027053118" lon="9.889461966231465">
        <ele>652.87</ele>
        <time>2018-09-19T08:07:27Z</time>
      </trkpt>
      <trkpt lat="47.785036023706198" lon="9.889263985678554">
        <ele>653.35000000000002</ele>
        <time>2018-09-19T08:07:30Z</time>
      </trkpt>
      <trkpt lat="47.78542703948915" lon="9.88876098766923">
        <ele>653.83000000000004</ele>
        <time>2018-09-19T08:07:34Z</time>
      </trkpt>
      <trkpt lat="47.786048976704478" lon="9.887721966952086">
        <ele>653.83000000000004</ele>
        <time>2018-09-19T08:07:42Z</time>
      </trkpt>
      <trkpt lat="47.786810975521803" lon="9.886601977050304">
        <ele>653.35000000000002</ele>
        <time>2018-09-19T08:07:52Z</time>
      </trkpt>
      <trkpt lat="47.787089003250003" lon="9.886181959882379">
        <ele>653.35000000000002</ele>
        <time>2018-09-19T08:07:56Z</time>
      </trkpt>
      <trkpt lat="47.78714801184833" lon="9.886066038161516">
        <ele>653.35000000000002</ele>
        <time>2018-09-19T08:07:57Z</time>
      </trkpt>
      <trkpt lat="47.787398966029286" lon="9.885451979935169">
        <ele>652.38999999999999</ele>
        <time>2018-09-19T08:08:02Z</time>
      </trkpt>
      <trkpt lat="47.787587977945805" lon="9.884953005239368">
        <ele>652.87</ele>
        <time>2018-09-19T08:08:07Z</time>
      </trkpt>
      <trkpt lat="47.787614967674017" lon="9.88485099747777">
        <ele>652.38999999999999</ele>
        <time>2018-09-19T08:08:08Z</time>
      </trkpt>
      <trkpt lat="47.787824012339115" lon="9.883896969258785">
        <ele>649.99000000000001</ele>
        <time>2018-09-19T08:08:17Z</time>
      </trkpt>
      <trkpt lat="47.787810014560819" lon="9.883707035332918">
        <ele>649.02999999999997</ele>
        <time>2018-09-19T08:08:19Z</time>
      </trkpt>
      <trkpt lat="47.787791993469" lon="9.883496984839439">
        <ele>648.07000000000005</ele>
        <time>2018-09-19T08:08:21Z</time>
      </trkpt>
      <trkpt lat="47.787782019004226" lon="9.8833919595927">
        <ele>647.59000000000003</ele>
        <time>2018-09-19T08:08:22Z</time>
      </trkpt>
      <trkpt lat="47.787761986255646" lon="9.883173024281859">
        <ele>646.13999999999999</ele>
        <time>2018-09-19T08:08:24Z</time>
      </trkpt>
      <trkpt lat="47.787745976820588" lon="9.883064981549978">
        <ele>645.17999999999995</ele>
        <time>2018-09-19T08:08:25Z</time>
      </trkpt>
      <trkpt lat="47.787702977657318" lon="9.882170967757702">
        <ele>640.86000000000001</ele>
        <time>2018-09-19T08:08:33Z</time>
      </trkpt>
      <trkpt lat="47.787699038162827" lon="9.882081029936671">
        <ele>640.86000000000001</ele>
        <time>2018-09-19T08:08:34Z</time>
      </trkpt>
      <trkpt lat="47.787697026506066" lon="9.882013974711299">
        <ele>640.86000000000001</ele>
        <time>2018-09-19T08:08:35Z</time>
      </trkpt>
      <trkpt lat="47.787766009569168" lon="9.881964018568397">
        <ele>640.86000000000001</ele>
        <time>2018-09-19T08:08:36Z</time>
      </trkpt>
      <trkpt lat="47.787810014560819" lon="9.8819500207901">
        <ele>640.86000000000001</ele>
        <time>2018-09-19T08:08:37Z</time>
      </trkpt>
      <trkpt lat="47.787871034815907" lon="9.88192898221314">
        <ele>640.86000000000001</ele>
        <time>2018-09-19T08:08:38Z</time>
      </trkpt>
      <trkpt lat="47.787939012050629" lon="9.88190601579845">
        <ele>640.86000000000001</ele>
        <time>2018-09-19T08:08:39Z</time>
      </trkpt>
      <trkpt lat="47.788230031728745" lon="9.881781963631511">
        <ele>641.82000000000005</ele>
        <time>2018-09-19T08:08:43Z</time>
      </trkpt>
      <trkpt lat="47.788577964529395" lon="9.881549030542374">
        <ele>643.74000000000001</ele>
        <time>2018-09-19T08:08:48Z</time>
      </trkpt>
      <trkpt lat="47.788639990612864" lon="9.881503013893962">
        <ele>644.22000000000003</ele>
        <time>2018-09-19T08:08:49Z</time>
      </trkpt>
      <trkpt lat="47.788708973675966" lon="9.881450040265918">
        <ele>644.70000000000005</ele>
        <time>2018-09-19T08:08:50Z</time>
      </trkpt>
      <trkpt lat="47.78897300362587" lon="9.881331017240882">
        <ele>646.62</ele>
        <time>2018-09-19T08:08:54Z</time>
      </trkpt>
      <trkpt lat="47.789142988622189" lon="9.881237978115678">
        <ele>648.54999999999995</ele>
        <time>2018-09-19T08:08:57Z</time>
      </trkpt>
      <trkpt lat="47.789195962250233" lon="9.881208976730704">
        <ele>649.02999999999997</ele>
        <time>2018-09-19T08:08:58Z</time>
      </trkpt>
      <trkpt lat="47.789409030228853" lon="9.881093977019191">
        <ele>649.99000000000001</ele>
        <time>2018-09-19T08:09:02Z</time>
      </trkpt>
      <trkpt lat="47.789594018831849" lon="9.881001021713018">
        <ele>650.95000000000005</ele>
        <time>2018-09-19T08:09:05Z</time>
      </trkpt>
      <trkpt lat="47.789805997163057" lon="9.88091804087162">
        <ele>651.90999999999997</ele>
        <time>2018-09-19T08:09:08Z</time>
      </trkpt>
      <trkpt lat="47.789885038509965" lon="9.880887027829886">
        <ele>652.38999999999999</ele>
        <time>2018-09-19T08:09:09Z</time>
      </trkpt>
      <trkpt lat="47.790142027661204" lon="9.880786025896668">
        <ele>653.35000000000002</ele>
        <time>2018-09-19T08:09:12Z</time>
      </trkpt>
      <trkpt lat="47.790196007117629" lon="9.880772028118372">
        <ele>653.35000000000002</ele>
        <time>2018-09-19T08:09:13Z</time>
      </trkpt>
      <trkpt lat="47.790782991796732" lon="9.880615035071969">
        <ele>654.79999999999995</ele>
        <time>2018-09-19T08:09:21Z</time>
      </trkpt>
      <trkpt lat="47.79152998700738" lon="9.880474973469973">
        <ele>656.24000000000001</ele>
        <time>2018-09-19T08:09:31Z</time>
      </trkpt>
      <trkpt lat="47.791607016697526" lon="9.880459969863296">
        <ele>655.75999999999999</ele>
        <time>2018-09-19T08:09:32Z</time>
      </trkpt>
      <trkpt lat="47.791931983083487" lon="9.880377994850278">
        <ele>654.79999999999995</ele>
        <time>2018-09-19T08:09:39Z</time>
      </trkpt>
      <trkpt lat="47.792061986401677" lon="9.88031898625195">
        <ele>653.83000000000004</ele>
        <time>2018-09-19T08:09:47Z</time>
      </trkpt>
      <trkpt lat="47.792115965858102" lon="9.880294008180499">
        <ele>653.35000000000002</ele>
        <time>2018-09-19T08:10:06Z</time>
      </trkpt>
      <trkpt lat="47.79221897944808" lon="9.880247991532087">
        <ele>652.87</ele>
        <time>2018-09-19T08:10:09Z</time>
      </trkpt>
      <trkpt lat="47.79239097610116" lon="9.880135003477335">
        <ele>651.42999999999995</ele>
        <time>2018-09-19T08:10:12Z</time>
      </trkpt>
      <trkpt lat="47.792451996356249" lon="9.880082029849291">
        <ele>650.95000000000005</ele>
        <time>2018-09-19T08:10:13Z</time>
      </trkpt>
      <trkpt lat="47.79299003072083" lon="9.879585988819599">
        <ele>650.95000000000005</ele>
        <time>2018-09-19T08:10:20Z</time>
      </trkpt>
      <trkpt lat="47.793917991220951" lon="9.878597008064389">
        <ele>650.95000000000005</ele>
        <time>2018-09-19T08:10:32Z</time>
      </trkpt>
      <trkpt lat="47.794833965599537" lon="9.877754040062428">
        <ele>647.10000000000002</ele>
        <time>2018-09-19T08:10:44Z</time>
      </trkpt>
      <trkpt lat="47.79522598721087" lon="9.877418009564281">
        <ele>645.17999999999995</ele>
        <time>2018-09-19T08:10:51Z</time>
      </trkpt>
      <trkpt lat="47.795367976650596" lon="9.877261016517878">
        <ele>643.25999999999999</ele>
        <time>2018-09-19T08:10:58Z</time>
      </trkpt>
      <trkpt lat="47.795390021055937" lon="9.877236960455775">
        <ele>642.77999999999997</ele>
        <time>2018-09-19T08:10:59Z</time>
      </trkpt>
      <trkpt lat="47.795407036319375" lon="9.877219023182988">
        <ele>642.29999999999995</ele>
        <time>2018-09-19T08:11:00Z</time>
      </trkpt>
      <trkpt lat="47.79541902244091" lon="9.877205025404692">
        <ele>641.82000000000005</ele>
        <time>2018-09-19T08:11:01Z</time>
      </trkpt>
      <trkpt lat="47.79541902244091" lon="9.877205025404692">
        <ele>640.38</ele>
        <time>2018-09-19T08:11:15Z</time>
      </trkpt>
      <trkpt lat="47.79541902244091" lon="9.877205025404692">
        <ele>640.38</ele>
        <time>2018-09-19T08:11:41Z</time>
      </trkpt>
      <trkpt lat="47.79541902244091" lon="9.877205025404692">
        <ele>639.88999999999999</ele>
        <time>2018-09-19T08:12:02Z</time>
      </trkpt>
      <trkpt lat="47.79541902244091" lon="9.877205025404692">
        <ele>641.82000000000005</ele>
        <time>2018-09-19T08:12:17Z</time>
      </trkpt>
      <trkpt lat="47.79541902244091" lon="9.877205025404692">
        <ele>641.82000000000005</ele>
        <time>2018-09-19T08:12:57Z</time>
      </trkpt>
      <trkpt lat="47.795369988307357" lon="9.877302004024386">
        <ele>602.88</ele>
        <time>2018-09-19T08:17:06Z</time>
      </trkpt>
      <trkpt lat="47.795427991077304" lon="9.877271996811032">
        <ele>611.05999999999995</ele>
        <time>2018-09-19T08:17:52Z</time>
      </trkpt>
      <trkpt lat="47.795408964157104" lon="9.877299992367625">
        <ele>609.61000000000001</ele>
        <time>2018-09-19T08:18:32Z</time>
      </trkpt>
      <trkpt lat="47.795431008562446" lon="9.877300998196006">
        <ele>609.61000000000001</ele>
        <time>2018-09-19T08:18:37Z</time>
      </trkpt>
      <trkpt lat="47.795422961935401" lon="9.877201002091169">
        <ele>610.09000000000003</ele>
        <time>2018-09-19T08:18:39Z</time>
      </trkpt>
      <trkpt lat="47.795497979968786" lon="9.877118021249771">
        <ele>616.34000000000003</ele>
        <time>2018-09-19T08:18:42Z</time>
      </trkpt>
      <trkpt lat="47.795564029365778" lon="9.877045014873147">
        <ele>623.54999999999995</ele>
        <time>2018-09-19T08:18:45Z</time>
      </trkpt>
      <trkpt lat="47.795600993558764" lon="9.877004027366638">
        <ele>624.99000000000001</ele>
        <time>2018-09-19T08:18:46Z</time>
      </trkpt>
      <trkpt lat="47.795647010207176" lon="9.876954993233085">
        <ele>626.44000000000005</ele>
        <time>2018-09-19T08:18:47Z</time>
      </trkpt>
      <trkpt lat="47.79625796712935" lon="9.876413019374013">
        <ele>630.75999999999999</ele>
        <time>2018-09-19T08:18:54Z</time>
      </trkpt>
      <trkpt lat="47.796607995405793" lon="9.876169022172689">
        <ele>632.20000000000005</ele>
        <time>2018-09-19T08:18:57Z</time>
      </trkpt>
      <trkpt lat="47.796741016209126" lon="9.876118982210755">
        <ele>633.16999999999996</ele>
        <time>2018-09-19T08:18:58Z</time>
      </trkpt>
      <trkpt lat="47.79688099399209" lon="9.876137003302574">
        <ele>633.64999999999998</ele>
        <time>2018-09-19T08:18:59Z</time>
      </trkpt>
      <trkpt lat="47.797007979825139" lon="9.876190982758999">
        <ele>634.13</ele>
        <time>2018-09-19T08:19:00Z</time>
      </trkpt>
      <trkpt lat="47.797134965658188" lon="9.876244962215424">
        <ele>635.09000000000003</ele>
        <time>2018-09-19T08:19:01Z</time>
      </trkpt>
      <trkpt lat="47.797261029481888" lon="9.87629902549088">
        <ele>636.52999999999997</ele>
        <time>2018-09-19T08:19:02Z</time>
      </trkpt>
      <trkpt lat="47.797384997829795" lon="9.876351999118924">
        <ele>637.49000000000001</ele>
        <time>2018-09-19T08:19:03Z</time>
      </trkpt>
      <trkpt lat="47.797501003369689" lon="9.876402039080858">
        <ele>637.97000000000003</ele>
        <time>2018-09-19T08:19:04Z</time>
      </trkpt>
      <trkpt lat="47.797612985596061" lon="9.876416958868504">
        <ele>638.45000000000005</ele>
        <time>2018-09-19T08:19:05Z</time>
      </trkpt>
      <trkpt lat="47.797723039984703" lon="9.876386029645801">
        <ele>638.92999999999995</ele>
        <time>2018-09-19T08:19:06Z</time>
      </trkpt>
      <trkpt lat="47.797837033867836" lon="9.876353004947305">
        <ele>639.40999999999997</ele>
        <time>2018-09-19T08:19:07Z</time>
      </trkpt>
      <trkpt lat="47.797953961417079" lon="9.876295002177358">
        <ele>639.40999999999997</ele>
        <time>2018-09-19T08:19:08Z</time>
      </trkpt>
      <trkpt lat="47.798070972785354" lon="9.876227024942637">
        <ele>639.88999999999999</ele>
        <time>2018-09-19T08:19:09Z</time>
      </trkpt>
      <trkpt lat="47.798559973016381" lon="9.875980010256171">
        <ele>640.86000000000001</ele>
        <time>2018-09-19T08:19:13Z</time>
      </trkpt>
      <trkpt lat="47.798693999648094" lon="9.875942962244153">
        <ele>641.34000000000003</ele>
        <time>2018-09-19T08:19:14Z</time>
      </trkpt>
      <trkpt lat="47.798827020451427" lon="9.875907003879547">
        <ele>641.82000000000005</ele>
        <time>2018-09-19T08:19:15Z</time>
      </trkpt>
      <trkpt lat="47.79896498657763" lon="9.875922007486224">
        <ele>641.82000000000005</ele>
        <time>2018-09-19T08:19:16Z</time>
      </trkpt>
      <trkpt lat="47.799102030694485" lon="9.875964000821114">
        <ele>642.29999999999995</ele>
        <time>2018-09-19T08:19:17Z</time>
      </trkpt>
      <trkpt lat="47.79924301430583" lon="9.876017980277538">
        <ele>642.29999999999995</ele>
        <time>2018-09-19T08:19:18Z</time>
      </trkpt>
      <trkpt lat="47.799376035109162" lon="9.876108001917601">
        <ele>642.77999999999997</ele>
        <time>2018-09-19T08:19:19Z</time>
      </trkpt>
      <trkpt lat="47.799794040620327" lon="9.876382006332278">
        <ele>643.25999999999999</ele>
        <time>2018-09-19T08:19:22Z</time>
      </trkpt>
      <trkpt lat="47.799944998696446" lon="9.876444032415748">
        <ele>643.25999999999999</ele>
        <time>2018-09-19T08:19:23Z</time>
      </trkpt>
      <trkpt lat="47.800092017278075" lon="9.876503963023424">
        <ele>643.25999999999999</ele>
        <time>2018-09-19T08:19:24Z</time>
      </trkpt>
      <trkpt lat="47.800244987010956" lon="9.876516032963991">
        <ele>643.74000000000001</ele>
        <time>2018-09-19T08:19:25Z</time>
      </trkpt>
      <trkpt lat="47.800401980057359" lon="9.876496000215411">
        <ele>644.22000000000003</ele>
        <time>2018-09-19T08:19:26Z</time>
      </trkpt>
      <trkpt lat="47.800559978932142" lon="9.876460963860154">
        <ele>644.22000000000003</ele>
        <time>2018-09-19T08:19:27Z</time>
      </trkpt>
      <trkpt lat="47.800714038312435" lon="9.876423999667168">
        <ele>644.70000000000005</ele>
        <time>2018-09-19T08:19:28Z</time>
      </trkpt>
      <trkpt lat="47.800992988049984" lon="9.876325009390712">
        <ele>644.70000000000005</ele>
        <time>2018-09-19T08:19:30Z</time>
      </trkpt>
      <trkpt lat="47.801131037995219" lon="9.876345964148641">
        <ele>645.17999999999995</ele>
        <time>2018-09-19T08:19:31Z</time>
      </trkpt>
      <trkpt lat="47.801260035485029" lon="9.876422993838787">
        <ele>645.17999999999995</ele>
        <time>2018-09-19T08:19:32Z</time>
      </trkpt>
      <trkpt lat="47.801695978268981" lon="9.876650981605053">
        <ele>646.62</ele>
        <time>2018-09-19T08:19:35Z</time>
      </trkpt>
      <trkpt lat="47.801858000457287" lon="9.876708984375">
        <ele>647.10000000000002</ele>
        <time>2018-09-19T08:19:36Z</time>
      </trkpt>
      <trkpt lat="47.802028991281986" lon="9.876708984375">
        <ele>648.07000000000005</ele>
        <time>2018-09-19T08:19:37Z</time>
      </trkpt>
      <trkpt lat="47.803403036668897" lon="9.876849967986345">
        <ele>653.35000000000002</ele>
        <time>2018-09-19T08:19:45Z</time>
      </trkpt>
      <trkpt lat="47.803876027464867" lon="9.877070998772979">
        <ele>655.27999999999997</ele>
        <time>2018-09-19T08:19:48Z</time>
      </trkpt>
      <trkpt lat="47.804026985540986" lon="9.877184992656112">
        <ele>655.27999999999997</ele>
        <time>2018-09-19T08:19:49Z</time>
      </trkpt>
      <trkpt lat="47.804519003257155" lon="9.877514988183975">
        <ele>655.75999999999999</ele>
        <time>2018-09-19T08:19:52Z</time>
      </trkpt>
      <trkpt lat="47.804683959111571" lon="9.877585982903838">
        <ele>655.75999999999999</ele>
        <time>2018-09-19T08:19:53Z</time>
      </trkpt>
      <trkpt lat="47.804846987128258" lon="9.877601992338896">
        <ele>655.75999999999999</ele>
        <time>2018-09-19T08:19:54Z</time>
      </trkpt>
      <trkpt lat="47.805009009316564" lon="9.877596041187644">
        <ele>655.75999999999999</ele>
        <time>2018-09-19T08:19:55Z</time>
      </trkpt>
      <trkpt lat="47.805175976827741" lon="9.877555975690484">
        <ele>655.27999999999997</ele>
        <time>2018-09-19T08:19:56Z</time>
      </trkpt>
      <trkpt lat="47.80534403398633" lon="9.877515994012356">
        <ele>654.79999999999995</ele>
        <time>2018-09-19T08:19:57Z</time>
      </trkpt>
      <trkpt lat="47.805691966786981" lon="9.877448016777635">
        <ele>653.83000000000004</ele>
        <time>2018-09-19T08:19:59Z</time>
      </trkpt>
      <trkpt lat="47.805865975096822" lon="9.877452962100506">
        <ele>653.83000000000004</ele>
        <time>2018-09-19T08:20:00Z</time>
      </trkpt>
      <trkpt lat="47.806369978934526" lon="9.877509959042072">
        <ele>654.30999999999995</ele>
        <time>2018-09-19T08:20:03Z</time>
      </trkpt>
      <trkpt lat="47.80652797780931" lon="9.877515994012356">
        <ele>654.30999999999995</ele>
        <time>2018-09-19T08:20:04Z</time>
      </trkpt>
      <trkpt lat="47.806684970855713" lon="9.877476012334228">
        <ele>653.83000000000004</ele>
        <time>2018-09-19T08:20:05Z</time>
      </trkpt>
      <trkpt lat="47.807153016328812" lon="9.877406023442745">
        <ele>653.35000000000002</ele>
        <time>2018-09-19T08:20:08Z</time>
      </trkpt>
      <trkpt lat="47.807309003546834" lon="9.877444999292493">
        <ele>653.35000000000002</ele>
        <time>2018-09-19T08:20:09Z</time>
      </trkpt>
      <trkpt lat="47.807467002421618" lon="9.877485986799002">
        <ele>653.35000000000002</ele>
        <time>2018-09-19T08:20:10Z</time>
      </trkpt>
      <trkpt lat="47.808039989322424" lon="9.877600986510515">
        <ele>653.35000000000002</ele>
        <time>2018-09-19T08:20:14Z</time>
      </trkpt>
      <trkpt lat="47.808132022619247" lon="9.877590006217361">
        <ele>653.35000000000002</ele>
        <time>2018-09-19T08:20:15Z</time>
      </trkpt>
      <trkpt lat="47.808174015954137" lon="9.877500990405679">
        <ele>653.35000000000002</ele>
        <time>2018-09-19T08:20:16Z</time>
      </trkpt>
      <trkpt lat="47.808208968490362" lon="9.877394959330559">
        <ele>653.35000000000002</ele>
        <time>2018-09-19T08:20:17Z</time>
      </trkpt>
      <trkpt lat="47.808251967653632" lon="9.877266967669129">
        <ele>653.35000000000002</ele>
        <time>2018-09-19T08:20:18Z</time>
      </trkpt>
      <trkpt lat="47.808273006230593" lon="9.877112992107868">
        <ele>653.83000000000004</ele>
        <time>2018-09-19T08:20:19Z</time>
      </trkpt>
      <trkpt lat="47.808351963758469" lon="9.876546040177345">
        <ele>654.79999999999995</ele>
        <time>2018-09-19T08:20:22Z</time>
      </trkpt>
      <trkpt lat="47.808393035084009" lon="9.876358034089208">
        <ele>655.27999999999997</ele>
        <time>2018-09-19T08:20:23Z</time>
      </trkpt>
      <trkpt lat="47.808455983176827" lon="9.87619198858738">
        <ele>655.75999999999999</ele>
        <time>2018-09-19T08:20:24Z</time>
      </trkpt>
      <trkpt lat="47.808537036180496" lon="9.876077994704247">
        <ele>656.24000000000001</ele>
        <time>2018-09-19T08:20:25Z</time>
      </trkpt>
      <trkpt lat="47.808609958738089" lon="9.87597699277103">
        <ele>656.24000000000001</ele>
        <time>2018-09-19T08:20:26Z</time>
      </trkpt>
      <trkpt lat="47.808704003691673" lon="9.875937011092901">
        <ele>656.72000000000003</ele>
        <time>2018-09-19T08:20:27Z</time>
      </trkpt>
      <trkpt lat="47.808814980089664" lon="9.875937011092901">
        <ele>657.20000000000005</ele>
        <time>2018-09-19T08:20:28Z</time>
      </trkpt>
      <trkpt lat="47.808936014771461" lon="9.875937011092901">
        <ele>657.67999999999995</ele>
        <time>2018-09-19T08:20:29Z</time>
      </trkpt>
      <trkpt lat="47.809064006432891" lon="9.875941034406424">
        <ele>658.15999999999997</ele>
        <time>2018-09-19T08:20:30Z</time>
      </trkpt>
      <trkpt lat="47.810234958305955" lon="9.875932987779379">
        <ele>661.51999999999998</ele>
        <time>2018-09-19T08:20:37Z</time>
      </trkpt>
      <trkpt lat="47.811922989785671" lon="9.875594023615122">
        <ele>662.97000000000003</ele>
        <time>2018-09-19T08:20:45Z</time>
      </trkpt>
      <trkpt lat="47.814157018437982" lon="9.875250030308962">
        <ele>672.58000000000004</ele>
        <time>2018-09-19T08:20:55Z</time>
      </trkpt>
      <trkpt lat="47.814568988978863" lon="9.875322030857205">
        <ele>677.38999999999999</ele>
        <time>2018-09-19T08:20:57Z</time>
      </trkpt>
      <trkpt lat="47.81604403629899" lon="9.87539897672832">
        <ele>690.84000000000003</ele>
        <time>2018-09-19T08:21:04Z</time>
      </trkpt>
      <trkpt lat="47.817281037569046" lon="9.875463014468551">
        <ele>699.01999999999998</ele>
        <time>2018-09-19T08:21:10Z</time>
      </trkpt>
      <trkpt lat="47.817476000636816" lon="9.875581031665206">
        <ele>699.98000000000002</ele>
        <time>2018-09-19T08:21:11Z</time>
      </trkpt>
      <trkpt lat="47.819055989384651" lon="9.876418970525265">
        <ele>708.63</ele>
        <time>2018-09-19T08:21:19Z</time>
      </trkpt>
      <trkpt lat="47.819249024614692" lon="9.876472027972341">
        <ele>710.07000000000005</ele>
        <time>2018-09-19T08:21:20Z</time>
      </trkpt>
      <trkpt lat="47.819448010995984" lon="9.876451995223761">
        <ele>711.02999999999997</ele>
        <time>2018-09-19T08:21:21Z</time>
      </trkpt>
      <trkpt lat="47.819650014862418" lon="9.876431962475181">
        <ele>711.99000000000001</ele>
        <time>2018-09-19T08:21:22Z</time>
      </trkpt>
      <trkpt lat="47.819846989586949" lon="9.876359961926937">
        <ele>712.95000000000005</ele>
        <time>2018-09-19T08:21:23Z</time>
      </trkpt>
      <trkpt lat="47.820047987625003" lon="9.876282010227442">
        <ele>713.91999999999996</ele>
        <time>2018-09-19T08:21:24Z</time>
      </trkpt>
      <trkpt lat="47.82156502828002" lon="9.875918990001082">
        <ele>717.75999999999999</ele>
        <time>2018-09-19T08:21:31Z</time>
      </trkpt>
      <trkpt lat="47.823181981220841" lon="9.875844977796078">
        <ele>716.32000000000005</ele>
        <time>2018-09-19T08:21:38Z</time>
      </trkpt>
      <trkpt lat="47.824014974758029" lon="9.875991996377707">
        <ele>715.84000000000003</ele>
        <time>2018-09-19T08:21:42Z</time>
      </trkpt>
      <trkpt lat="47.824226031079888" lon="9.87595696002245">
        <ele>715.36000000000001</ele>
        <time>2018-09-19T08:21:43Z</time>
      </trkpt>
      <trkpt lat="47.824442032724619" lon="9.875921001657844">
        <ele>715.36000000000001</ele>
        <time>2018-09-19T08:21:44Z</time>
      </trkpt>
      <trkpt lat="47.824656022712588" lon="9.875827040523291">
        <ele>715.36000000000001</ele>
        <time>2018-09-19T08:21:45Z</time>
      </trkpt>
      <trkpt lat="47.82487403601408" lon="9.87572000361979">
        <ele>715.36000000000001</ele>
        <time>2018-09-19T08:21:46Z</time>
      </trkpt>
      <trkpt lat="47.825101017951965" lon="9.87561003305018">
        <ele>715.36000000000001</ele>
        <time>2018-09-19T08:21:47Z</time>
      </trkpt>
      <trkpt lat="47.826542034745216" lon="9.875192027539015">
        <ele>711.50999999999999</ele>
        <time>2018-09-19T08:21:53Z</time>
      </trkpt>
      <trkpt lat="47.828301982954144" lon="9.874696992337704">
        <ele>706.23000000000002</ele>
        <time>2018-09-19T08:22:01Z</time>
      </trkpt>
      <trkpt lat="47.829910973086953" lon="9.874251997098327">
        <ele>694.69000000000005</ele>
        <time>2018-09-19T08:22:08Z</time>
      </trkpt>
      <trkpt lat="47.830988969653845" lon="9.874069020152092">
        <ele>686.51999999999998</ele>
        <time>2018-09-19T08:22:14Z</time>
      </trkpt>
      <trkpt lat="47.831740994006395" lon="9.873901968821883">
        <ele>679.30999999999995</ele>
        <time>2018-09-19T08:22:21Z</time>
      </trkpt>
      <trkpt lat="47.832218008115888" lon="9.87382703460753">
        <ele>676.41999999999996</ele>
        <time>2018-09-19T08:22:26Z</time>
      </trkpt>
      <trkpt lat="47.832508021965623" lon="9.873880008235574">
        <ele>674.98000000000002</ele>
        <time>2018-09-19T08:22:29Z</time>
      </trkpt>
      <trkpt lat="47.832602988928556" lon="9.87391596660018">
        <ele>674.5</ele>
        <time>2018-09-19T08:22:30Z</time>
      </trkpt>
      <trkpt lat="47.832690998911858" lon="9.873963994905353">
        <ele>674.5</ele>
        <time>2018-09-19T08:22:31Z</time>
      </trkpt>
      <trkpt lat="47.832766016945243" lon="9.874046975746751">
        <ele>674.5</ele>
        <time>2018-09-19T08:22:32Z</time>
      </trkpt>
      <trkpt lat="47.832844974473119" lon="9.874134985730052">
        <ele>674.5</ele>
        <time>2018-09-19T08:22:33Z</time>
      </trkpt>
      <trkpt lat="47.832918986678123" lon="9.874231964349747">
        <ele>674.5</ele>
        <time>2018-09-19T08:22:34Z</time>
      </trkpt>
      <trkpt lat="47.833372028544545" lon="9.874801011756063">
        <ele>674.01999999999998</ele>
        <time>2018-09-19T08:22:40Z</time>
      </trkpt>
      <trkpt lat="47.833443023264408" lon="9.874863959848881">
        <ele>674.5</ele>
        <time>2018-09-19T08:22:41Z</time>
      </trkpt>
      <trkpt lat="47.833546036854386" lon="9.874921962618828">
        <ele>674.5</ele>
        <time>2018-09-19T08:22:42Z</time>
      </trkpt>
      <trkpt lat="47.833632035180926" lon="9.874970996752381">
        <ele>674.98000000000002</ele>
        <time>2018-09-19T08:22:43Z</time>
      </trkpt>
      <trkpt lat="47.833744017407298" lon="9.875035034492612">
        <ele>675.46000000000004</ele>
        <time>2018-09-19T08:22:44Z</time>
      </trkpt>
      <trkpt lat="47.833806965500116" lon="9.87505498342216">
        <ele>675.46000000000004</ele>
        <time>2018-09-19T08:22:45Z</time>
      </trkpt>
      <trkpt lat="47.833990026265383" lon="9.875111980363727">
        <ele>674.98000000000002</ele>
        <time>2018-09-19T08:22:47Z</time>
      </trkpt>
      <trkpt lat="47.834088010713458" lon="9.875143999233842">
        <ele>675.46000000000004</ele>
        <time>2018-09-19T08:22:48Z</time>
      </trkpt>
      <trkpt lat="47.834162022918463" lon="9.875218011438847">
        <ele>675.46000000000004</ele>
        <time>2018-09-19T08:22:49Z</time>
      </trkpt>
      <trkpt lat="47.834236035123467" lon="9.87531297840178">
        <ele>675.94000000000005</ele>
        <time>2018-09-19T08:22:50Z</time>
      </trkpt>
      <trkpt lat="47.834289008751512" lon="9.87541800364852">
        <ele>676.41999999999996</ele>
        <time>2018-09-19T08:22:51Z</time>
      </trkpt>
      <trkpt lat="47.834342988207936" lon="9.87552696838975">
        <ele>677.38999999999999</ele>
        <time>2018-09-19T08:22:52Z</time>
      </trkpt>
      <trkpt lat="47.834400990977883" lon="9.875642973929644">
        <ele>677.87</ele>
        <time>2018-09-19T08:22:53Z</time>
      </trkpt>
      <trkpt lat="47.835041033104062" lon="9.876575963571668">
        <ele>683.14999999999998</ele>
        <time>2018-09-19T08:23:02Z</time>
      </trkpt>
      <trkpt lat="47.835350995883346" lon="9.876930015161634">
        <ele>686.03999999999996</ele>
        <time>2018-09-19T08:23:06Z</time>
      </trkpt>
      <trkpt lat="47.835608990862966" lon="9.877163032069802">
        <ele>687.48000000000002</ele>
        <time>2018-09-19T08:23:09Z</time>
      </trkpt>
      <trkpt lat="47.835695995017886" lon="9.877223968505859">
        <ele>687.96000000000004</ele>
        <time>2018-09-19T08:23:10Z</time>
      </trkpt>
      <trkpt lat="47.835796996951103" lon="9.877223968505859">
        <ele>688.44000000000005</ele>
        <time>2018-09-19T08:23:11Z</time>
      </trkpt>
      <trkpt lat="47.835905039682984" lon="9.877223968505859">
        <ele>688.44000000000005</ele>
        <time>2018-09-19T08:23:12Z</time>
      </trkpt>
      <trkpt lat="47.836005035787821" lon="9.877163032069802">
        <ele>688.44000000000005</ele>
        <time>2018-09-19T08:23:13Z</time>
      </trkpt>
      <trkpt lat="47.83611198887229" lon="9.877094971016049">
        <ele>687.96000000000004</ele>
        <time>2018-09-19T08:23:14Z</time>
      </trkpt>
      <trkpt lat="47.836216008290648" lon="9.877025987952948">
        <ele>687.96000000000004</ele>
        <time>2018-09-19T08:23:15Z</time>
      </trkpt>
      <trkpt lat="47.836321033537388" lon="9.876932026818395">
        <ele>687.48000000000002</ele>
        <time>2018-09-19T08:23:16Z</time>
      </trkpt>
      <trkpt lat="47.836425974965096" lon="9.87683798186481">
        <ele>687</ele>
        <time>2018-09-19T08:23:17Z</time>
      </trkpt>
      <trkpt lat="47.837515035644174" lon="9.876189976930618">
        <ele>686.03999999999996</ele>
        <time>2018-09-19T08:23:26Z</time>
      </trkpt>
      <trkpt lat="47.837966987863183" lon="9.876203974708915">
        <ele>686.03999999999996</ele>
        <time>2018-09-19T08:23:29Z</time>
      </trkpt>
      <trkpt lat="47.838115012273192" lon="9.876215038821101">
        <ele>686.51999999999998</ele>
        <time>2018-09-19T08:23:30Z</time>
      </trkpt>
      <trkpt lat="47.838228000327945" lon="9.876284021884203">
        <ele>686.51999999999998</ele>
        <time>2018-09-19T08:23:31Z</time>
      </trkpt>
      <trkpt lat="47.83830301836133" lon="9.876331966370344">
        <ele>687</ele>
        <time>2018-09-19T08:23:32Z</time>
      </trkpt>
      <trkpt lat="47.838359009474516" lon="9.876369014382362">
        <ele>687.48000000000002</ele>
        <time>2018-09-19T08:23:33Z</time>
      </trkpt>
      <trkpt lat="47.83841198310256" lon="9.876402961090207">
        <ele>687.96000000000004</ele>
        <time>2018-09-19T08:23:35Z</time>
      </trkpt>
      <trkpt lat="47.838420029729605" lon="9.87640799023211">
        <ele>688.44000000000005</ele>
        <time>2018-09-19T08:23:36Z</time>
      </trkpt>
      <trkpt lat="47.838420029729605" lon="9.87640799023211">
        <ele>688.91999999999996</ele>
        <time>2018-09-19T08:23:48Z</time>
      </trkpt>
      <trkpt lat="47.838407037779689" lon="9.876399021595717">
        <ele>689.39999999999998</ele>
        <time>2018-09-19T08:23:49Z</time>
      </trkpt>
      <trkpt lat="47.83836898393929" lon="9.876374965533614">
        <ele>689.39999999999998</ele>
        <time>2018-09-19T08:23:50Z</time>
      </trkpt>
      <trkpt lat="47.838266976177692" lon="9.876310005784035">
        <ele>689.88</ele>
        <time>2018-09-19T08:23:52Z</time>
      </trkpt>
      <trkpt lat="47.838225988671184" lon="9.876283016055822">
        <ele>689.88</ele>
        <time>2018-09-19T08:23:53Z</time>
      </trkpt>
      <trkpt lat="47.838185001164675" lon="9.876023009419441">
        <ele>689.39999999999998</ele>
        <time>2018-09-19T08:23:54Z</time>
      </trkpt>
      <trkpt lat="47.838214002549648" lon="9.875937011092901">
        <ele>689.39999999999998</ele>
        <time>2018-09-19T08:23:55Z</time>
      </trkpt>
      <trkpt lat="47.838249960914254" lon="9.87582796253264">
        <ele>688.91999999999996</ele>
        <time>2018-09-19T08:23:56Z</time>
      </trkpt>
      <trkpt lat="47.838292960077524" lon="9.87569896504283">
        <ele>688.91999999999996</ele>
        <time>2018-09-19T08:23:57Z</time>
      </trkpt>
      <trkpt lat="47.838344005867839" lon="9.87554700113833">
        <ele>688.44000000000005</ele>
        <time>2018-09-19T08:23:58Z</time>
      </trkpt>
      <trkpt lat="47.838401002809405" lon="9.87537601031363">
        <ele>687.96000000000004</ele>
        <time>2018-09-19T08:23:59Z</time>
      </trkpt>
      <trkpt lat="47.838433021679521" lon="9.87518398091197">
        <ele>687.96000000000004</ele>
        <time>2018-09-19T08:24:00Z</time>
      </trkpt>
      <trkpt lat="47.838446013629436" lon="9.87496797926724">
        <ele>687.48000000000002</ele>
        <time>2018-09-19T08:24:01Z</time>
      </trkpt>
      <trkpt lat="47.838450958952308" lon="9.874745020642877">
        <ele>687</ele>
        <time>2018-09-19T08:24:02Z</time>
      </trkpt>
      <trkpt lat="47.838456993922591" lon="9.874536981806159">
        <ele>686.51999999999998</ele>
        <time>2018-09-19T08:24:03Z</time>
      </trkpt>
      <trkpt lat="47.838462023064494" lon="9.874335983768106">
        <ele>686.03999999999996</ele>
        <time>2018-09-19T08:24:04Z</time>
      </trkpt>
      <trkpt lat="47.838506028056145" lon="9.87413096241653">
        <ele>685.55999999999995</ele>
        <time>2018-09-19T08:24:05Z</time>
      </trkpt>
      <trkpt lat="47.838574005290866" lon="9.873947985470295">
        <ele>685.55999999999995</ele>
        <time>2018-09-19T08:24:06Z</time>
      </trkpt>
      <trkpt lat="47.83866997808218" lon="9.873770037665963">
        <ele>685.08000000000004</ele>
        <time>2018-09-19T08:24:07Z</time>
      </trkpt>
      <trkpt lat="47.8387760091573" lon="9.873594017699361">
        <ele>685.08000000000004</ele>
        <time>2018-09-19T08:24:08Z</time>
      </trkpt>
      <trkpt lat="47.83888497389853" lon="9.873411040753126">
        <ele>685.08000000000004</ele>
        <time>2018-09-19T08:24:09Z</time>
      </trkpt>
      <trkpt lat="47.839581007137895" lon="9.872194994240999">
        <ele>687.96000000000004</ele>
        <time>2018-09-19T08:24:15Z</time>
      </trkpt>
      <trkpt lat="47.839636998251081" lon="9.871956026181579">
        <ele>688.44000000000005</ele>
        <time>2018-09-19T08:24:16Z</time>
      </trkpt>
      <trkpt lat="47.840165980160236" lon="9.869697019457817">
        <ele>689.39999999999998</ele>
        <time>2018-09-19T08:24:24Z</time>
      </trkpt>
      <trkpt lat="47.84079797565937" lon="9.868338983505964">
        <ele>691.80999999999995</ele>
        <time>2018-09-19T08:24:30Z</time>
      </trkpt>
      <trkpt lat="47.840918004512787" lon="9.868146032094955">
        <ele>691.80999999999995</ele>
        <time>2018-09-19T08:24:31Z</time>
      </trkpt>
      <trkpt lat="47.84113802947104" lon="9.867804972454906">
        <ele>692.28999999999996</ele>
        <time>2018-09-19T08:24:33Z</time>
      </trkpt>
      <trkpt lat="47.841243976727128" lon="9.86764001660049">
        <ele>692.76999999999998</ele>
        <time>2018-09-19T08:24:34Z</time>
      </trkpt>
      <trkpt lat="47.841342967003584" lon="9.867456033825874">
        <ele>692.76999999999998</ele>
        <time>2018-09-19T08:24:35Z</time>
      </trkpt>
      <trkpt lat="47.841497026383877" lon="9.867022018879652">
        <ele>693.25</ele>
        <time>2018-09-19T08:24:37Z</time>
      </trkpt>
      <trkpt lat="47.841577995568514" lon="9.866795958951116">
        <ele>694.21000000000004</ele>
        <time>2018-09-19T08:24:38Z</time>
      </trkpt>
      <trkpt lat="47.841815035790205" lon="9.866080982610583">
        <ele>696.13</ele>
        <time>2018-09-19T08:24:41Z</time>
      </trkpt>
      <trkpt lat="47.842234969139099" lon="9.865267015993595">
        <ele>698.52999999999997</ele>
        <time>2018-09-19T08:24:45Z</time>
      </trkpt>
      <trkpt lat="47.84236203879118" lon="9.865100970491767">
        <ele>699.01999999999998</ele>
        <time>2018-09-19T08:24:46Z</time>
      </trkpt>
      <trkpt lat="47.843152033165097" lon="9.864279041066766">
        <ele>700.94000000000005</ele>
        <time>2018-09-19T08:24:51Z</time>
      </trkpt>
      <trkpt lat="47.843301985412836" lon="9.864066978916526">
        <ele>701.41999999999996</ele>
        <time>2018-09-19T08:24:52Z</time>
      </trkpt>
      <trkpt lat="47.843452021479607" lon="9.863845026120544">
        <ele>702.38</ele>
        <time>2018-09-19T08:24:53Z</time>
      </trkpt>
      <trkpt lat="47.844266993924975" lon="9.862197982147336">
        <ele>713.44000000000005</ele>
        <time>2018-09-19T08:25:00Z</time>
      </trkpt>
      <trkpt lat="47.84440403804183" lon="9.862073007971048">
        <ele>715.36000000000001</ele>
        <time>2018-09-19T08:25:01Z</time>
      </trkpt>
      <trkpt lat="47.844545021653175" lon="9.861944010481238">
        <ele>716.79999999999995</ele>
        <time>2018-09-19T08:25:02Z</time>
      </trkpt>
      <trkpt lat="47.844690028578043" lon="9.861813001334667">
        <ele>718.24000000000001</ele>
        <time>2018-09-19T08:25:03Z</time>
      </trkpt>
      <trkpt lat="47.844846015796065" lon="9.86171099357307">
        <ele>720.15999999999997</ele>
        <time>2018-09-19T08:25:04Z</time>
      </trkpt>
      <trkpt lat="47.845255974680185" lon="9.861456016078591">
        <ele>724.49000000000001</ele>
        <time>2018-09-19T08:25:07Z</time>
      </trkpt>
      <trkpt lat="47.845367034897208" lon="9.861353002488613">
        <ele>725.45000000000005</ele>
        <time>2018-09-19T08:25:08Z</time>
      </trkpt>
      <trkpt lat="47.845448004081845" lon="9.861226016655564">
        <ele>726.40999999999997</ele>
        <time>2018-09-19T08:25:09Z</time>
      </trkpt>
      <trkpt lat="47.845493014901876" lon="9.861074974760413">
        <ele>727.37</ele>
        <time>2018-09-19T08:25:10Z</time>
      </trkpt>
      <trkpt lat="47.845513969659805" lon="9.860911024734378">
        <ele>727.86000000000001</ele>
        <time>2018-09-19T08:25:11Z</time>
      </trkpt>
      <trkpt lat="47.845535008236766" lon="9.860740033909679">
        <ele>728.82000000000005</ele>
        <time>2018-09-19T08:25:12Z</time>
      </trkpt>
      <trkpt lat="47.845527967438102" lon="9.860537024214864">
        <ele>729.29999999999995</ele>
        <time>2018-09-19T08:25:13Z</time>
      </trkpt>
      <trkpt lat="47.845497960224748" lon="9.860329991206527">
        <ele>730.25999999999999</ele>
        <time>2018-09-19T08:25:14Z</time>
      </trkpt>
      <trkpt lat="47.845468958839774" lon="9.860125975683332">
        <ele>730.74000000000001</ele>
        <time>2018-09-19T08:25:15Z</time>
      </trkpt>
      <trkpt lat="47.845442974939942" lon="9.859941992908716">
        <ele>731.22000000000003</ele>
        <time>2018-09-19T08:25:16Z</time>
      </trkpt>
      <trkpt lat="47.845416991040111" lon="9.859758010134101">
        <ele>732.17999999999995</ele>
        <time>2018-09-19T08:25:17Z</time>
      </trkpt>
      <trkpt lat="47.845463007688522" lon="9.859601017087698">
        <ele>732.65999999999997</ele>
        <time>2018-09-19T08:25:18Z</time>
      </trkpt>
      <trkpt lat="47.845524027943611" lon="9.85939297825098">
        <ele>733.62</ele>
        <time>2018-09-19T08:25:19Z</time>
      </trkpt>
      <trkpt lat="47.845610026270151" lon="9.859251994639635">
        <ele>734.10000000000002</ele>
        <time>2018-09-19T08:25:20Z</time>
      </trkpt>
      <trkpt lat="47.845713039860129" lon="9.859083015471697">
        <ele>734.58000000000004</ele>
        <time>2018-09-19T08:25:21Z</time>
      </trkpt>
      <trkpt lat="47.846112018451095" lon="9.858282040804625">
        <ele>736.02999999999997</ele>
        <time>2018-09-19T08:25:25Z</time>
      </trkpt>
      <trkpt lat="47.846191981807351" lon="9.858047012239695">
        <ele>736.50999999999999</ele>
        <time>2018-09-19T08:25:26Z</time>
      </trkpt>
      <trkpt lat="47.846309999004006" lon="9.857588019222021">
        <ele>736.99000000000001</ele>
        <time>2018-09-19T08:25:28Z</time>
      </trkpt>
      <trkpt lat="47.846360960975289" lon="9.857333041727543">
        <ele>737.95000000000005</ele>
        <time>2018-09-19T08:25:29Z</time>
      </trkpt>
      <trkpt lat="47.846378982067108" lon="9.856174997985363">
        <ele>740.83000000000004</ele>
        <time>2018-09-19T08:25:34Z</time>
      </trkpt>
      <trkpt lat="47.846419969573617" lon="9.855924965813756">
        <ele>741.30999999999995</ele>
        <time>2018-09-19T08:25:35Z</time>
      </trkpt>
      <trkpt lat="47.846491970121861" lon="9.855678034946322">
        <ele>741.78999999999996</ele>
        <time>2018-09-19T08:25:36Z</time>
      </trkpt>
      <trkpt lat="47.84679003059864" lon="9.854699028655887">
        <ele>741.30999999999995</ele>
        <time>2018-09-19T08:25:40Z</time>
      </trkpt>
      <trkpt lat="47.846879968419671" lon="9.854485038667917">
        <ele>741.30999999999995</ele>
        <time>2018-09-19T08:25:41Z</time>
      </trkpt>
      <trkpt lat="47.846996979787946" lon="9.854279011487961">
        <ele>741.30999999999995</ele>
        <time>2018-09-19T08:25:42Z</time>
      </trkpt>
      <trkpt lat="47.847127988934517" lon="9.854087987914681">
        <ele>741.78999999999996</ele>
        <time>2018-09-19T08:25:43Z</time>
      </trkpt>
      <trkpt lat="47.847255980595946" lon="9.853900987654924">
        <ele>741.78999999999996</ele>
        <time>2018-09-19T08:25:44Z</time>
      </trkpt>
      <trkpt lat="47.848203973844647" lon="9.852313036099076">
        <ele>738.42999999999995</ele>
        <time>2018-09-19T08:25:52Z</time>
      </trkpt>
      <trkpt lat="47.849008971825242" lon="9.851043010130525">
        <ele>730.74000000000001</ele>
        <time>2018-09-19T08:25:58Z</time>
      </trkpt>
      <trkpt lat="47.849167976528406" lon="9.850904960185289">
        <ele>729.77999999999997</ele>
        <time>2018-09-19T08:25:59Z</time>
      </trkpt>
      <trkpt lat="47.84934701398015" lon="9.850832959637046">
        <ele>728.34000000000003</ele>
        <time>2018-09-19T08:26:00Z</time>
      </trkpt>
      <trkpt lat="47.849524039775133" lon="9.850761964917183">
        <ele>727.37</ele>
        <time>2018-09-19T08:26:01Z</time>
      </trkpt>
      <trkpt lat="47.849686983972788" lon="9.850695999339223">
        <ele>725.92999999999995</ele>
        <time>2018-09-19T08:26:02Z</time>
      </trkpt>
      <trkpt lat="47.850048998370767" lon="9.850549986585975">
        <ele>724.00999999999999</ele>
        <time>2018-09-19T08:26:05Z</time>
      </trkpt>
      <trkpt lat="47.850124016404152" lon="9.85051897354424">
        <ele>724.00999999999999</ele>
        <time>2018-09-19T08:26:06Z</time>
      </trkpt>
      <trkpt lat="47.850213032215834" lon="9.850402968004346">
        <ele>723.52999999999997</ele>
        <time>2018-09-19T08:26:07Z</time>
      </trkpt>
      <trkpt lat="47.850229041650891" lon="9.850271036848426">
        <ele>723.52999999999997</ele>
        <time>2018-09-19T08:26:08Z</time>
      </trkpt>
      <trkpt lat="47.85024999640882" lon="9.850104991346598">
        <ele>723.04999999999995</ele>
        <time>2018-09-19T08:26:09Z</time>
      </trkpt>
      <trkpt lat="47.850275980308652" lon="9.849906004965305">
        <ele>722.57000000000005</ele>
        <time>2018-09-19T08:26:10Z</time>
      </trkpt>
      <trkpt lat="47.850585021078587" lon="9.848340013995767">
        <ele>719.20000000000005</ele>
        <time>2018-09-19T08:26:16Z</time>
      </trkpt>
      <trkpt lat="47.85100101493299" lon="9.846645025536418">
        <ele>708.63</ele>
        <time>2018-09-19T08:26:23Z</time>
      </trkpt>
      <trkpt lat="47.851370992138982" lon="9.845226975157857">
        <ele>699.5</ele>
        <time>2018-09-19T08:26:32Z</time>
      </trkpt>
      <trkpt lat="47.852294007316232" lon="9.843884026631713">
        <ele>690.36000000000001</ele>
        <time>2018-09-19T08:26:43Z</time>
      </trkpt>
      <trkpt lat="47.852739002555609" lon="9.843345992267132">
        <ele>689.39999999999998</ele>
        <time>2018-09-19T08:26:48Z</time>
      </trkpt>
      <trkpt lat="47.852813014760613" lon="9.843216994777322">
        <ele>689.39999999999998</ele>
        <time>2018-09-19T08:26:49Z</time>
      </trkpt>
      <trkpt lat="47.852876968681812" lon="9.843073999509215">
        <ele>689.39999999999998</ele>
        <time>2018-09-19T08:26:50Z</time>
      </trkpt>
      <trkpt lat="47.85306497476995" lon="9.842649959027767">
        <ele>689.39999999999998</ele>
        <time>2018-09-19T08:26:53Z</time>
      </trkpt>
      <trkpt lat="47.853117026388645" lon="9.842533031478524">
        <ele>689.39999999999998</ele>
        <time>2018-09-19T08:26:54Z</time>
      </trkpt>
      <trkpt lat="47.853196989744902" lon="9.842489026486874">
        <ele>689.39999999999998</ele>
        <time>2018-09-19T08:26:55Z</time>
      </trkpt>
      <trkpt lat="47.853261027485132" lon="9.842456001788378">
        <ele>688.91999999999996</ele>
        <time>2018-09-19T08:26:56Z</time>
      </trkpt>
      <trkpt lat="47.853333028033376" lon="9.84246295876801">
        <ele>689.39999999999998</ele>
        <time>2018-09-19T08:26:57Z</time>
      </trkpt>
      <trkpt lat="47.853407962247729" lon="9.84250302426517">
        <ele>689.39999999999998</ele>
        <time>2018-09-19T08:26:58Z</time>
      </trkpt>
      <trkpt lat="47.853488009423018" lon="9.84254602342844">
        <ele>689.39999999999998</ele>
        <time>2018-09-19T08:26:59Z</time>
      </trkpt>
      <trkpt lat="47.853851029649377" lon="9.84273998066783">
        <ele>689.88</ele>
        <time>2018-09-19T08:27:03Z</time>
      </trkpt>
      <trkpt lat="47.853928981348872" lon="9.842759007588029">
        <ele>689.88</ele>
        <time>2018-09-19T08:27:04Z</time>
      </trkpt>
      <trkpt lat="47.854005005210638" lon="9.842751966789365">
        <ele>689.88</ele>
        <time>2018-09-19T08:27:05Z</time>
      </trkpt>
      <trkpt lat="47.854075999930501" lon="9.842745009809732">
        <ele>689.88</ele>
        <time>2018-09-19T08:27:06Z</time>
      </trkpt>
      <trkpt lat="47.854135008528829" lon="9.842699998989701">
        <ele>689.88</ele>
        <time>2018-09-19T08:27:07Z</time>
      </trkpt>
      <trkpt lat="47.854184964671731" lon="9.842624980956316">
        <ele>689.88</ele>
        <time>2018-09-19T08:27:08Z</time>
      </trkpt>
      <trkpt lat="47.854239027947187" lon="9.842544011771679">
        <ele>689.88</ele>
        <time>2018-09-19T08:27:09Z</time>
      </trkpt>
      <trkpt lat="47.85428898409009" lon="9.842450972646475">
        <ele>689.39999999999998</ele>
        <time>2018-09-19T08:27:10Z</time>
      </trkpt>
      <trkpt lat="47.854327037930489" lon="9.842334967106581">
        <ele>689.39999999999998</ele>
        <time>2018-09-19T08:27:11Z</time>
      </trkpt>
      <trkpt lat="47.854602970182896" lon="9.841440031304956">
        <ele>689.88</ele>
        <time>2018-09-19T08:27:18Z</time>
      </trkpt>
      <trkpt lat="47.854606993496418" lon="9.841324025765061">
        <ele>690.36000000000001</ele>
        <time>2018-09-19T08:27:19Z</time>
      </trkpt>
      <trkpt lat="47.854612022638321" lon="9.841216988861561">
        <ele>690.36000000000001</ele>
        <time>2018-09-19T08:27:20Z</time>
      </trkpt>
      <trkpt lat="47.854615962132812" lon="9.841121016070247">
        <ele>690.84000000000003</ele>
        <time>2018-09-19T08:27:21Z</time>
      </trkpt>
      <trkpt lat="47.854618979617953" lon="9.841035017743707">
        <ele>690.84000000000003</ele>
        <time>2018-09-19T08:27:22Z</time>
      </trkpt>
      <trkpt lat="47.854707995429635" lon="9.840918006375432">
        <ele>690.84000000000003</ele>
        <time>2018-09-19T08:27:23Z</time>
      </trkpt>
      <trkpt lat="47.854775972664356" lon="9.840883975848556">
        <ele>690.84000000000003</ele>
        <time>2018-09-19T08:27:24Z</time>
      </trkpt>
      <trkpt lat="47.854853002354503" lon="9.840844999998808">
        <ele>691.33000000000004</ele>
        <time>2018-09-19T08:27:25Z</time>
      </trkpt>
      <trkpt lat="47.854943023994565" lon="9.840799989178777">
        <ele>691.80999999999995</ele>
        <time>2018-09-19T08:27:26Z</time>
      </trkpt>
      <trkpt lat="47.855841983109713" lon="9.840328004211187">
        <ele>691.80999999999995</ele>
        <time>2018-09-19T08:27:33Z</time>
      </trkpt>
      <trkpt lat="47.856475990265608" lon="9.840003037825227">
        <ele>687.96000000000004</ele>
        <time>2018-09-19T08:27:37Z</time>
      </trkpt>
      <trkpt lat="47.856614962220192" lon="9.839931959286332">
        <ele>686.51999999999998</ele>
        <time>2018-09-19T08:27:38Z</time>
      </trkpt>
      <trkpt lat="47.85675804130733" lon="9.839942017570138">
        <ele>685.55999999999995</ele>
        <time>2018-09-19T08:27:39Z</time>
      </trkpt>
      <trkpt lat="47.856874968856573" lon="9.839951992034912">
        <ele>684.60000000000002</ele>
        <time>2018-09-19T08:27:40Z</time>
      </trkpt>
      <trkpt lat="47.856999021023512" lon="9.840046958997846">
        <ele>684.12</ele>
        <time>2018-09-19T08:27:41Z</time>
      </trkpt>
      <trkpt lat="47.857117960229516" lon="9.840138992294669">
        <ele>683.14999999999998</ele>
        <time>2018-09-19T08:27:42Z</time>
      </trkpt>
      <trkpt lat="47.857227008789778" lon="9.840277964249253">
        <ele>682.66999999999996</ele>
        <time>2018-09-19T08:27:43Z</time>
      </trkpt>
      <trkpt lat="47.857336979359388" lon="9.840443003922701">
        <ele>682.19000000000005</ele>
        <time>2018-09-19T08:27:44Z</time>
      </trkpt>
      <trkpt lat="47.857452984899282" lon="9.840619023889303">
        <ele>681.71000000000004</ele>
        <time>2018-09-19T08:27:45Z</time>
      </trkpt>
      <trkpt lat="47.858138037845492" lon="9.841547990217805">
        <ele>680.26999999999998</ele>
        <time>2018-09-19T08:27:50Z</time>
      </trkpt>
      <trkpt lat="47.858301987871528" lon="9.841719986870885">
        <ele>679.78999999999996</ele>
        <time>2018-09-19T08:27:51Z</time>
      </trkpt>
      <trkpt lat="47.858480019494891" lon="9.841865999624133">
        <ele>679.78999999999996</ele>
        <time>2018-09-19T08:27:52Z</time>
      </trkpt>
      <trkpt lat="47.859963029623032" lon="9.843150023370981">
        <ele>679.78999999999996</ele>
        <time>2018-09-19T08:28:00Z</time>
      </trkpt>
      <trkpt lat="47.861308995634317" lon="9.844319969415665">
        <ele>679.30999999999995</ele>
        <time>2018-09-19T08:28:07Z</time>
      </trkpt>
      <trkpt lat="47.863137004896998" lon="9.846093999221921">
        <ele>676.41999999999996</ele>
        <time>2018-09-19T08:28:16Z</time>
      </trkpt>
      <trkpt lat="47.864891001954675" lon="9.848054023459554">
        <ele>676.90999999999997</ele>
        <time>2018-09-19T08:28:25Z</time>
      </trkpt>
      <trkpt lat="47.866877010092139" lon="9.8495920188725">
        <ele>674.98000000000002</ele>
        <time>2018-09-19T08:28:34Z</time>
      </trkpt>
      <trkpt lat="47.867971016094089" lon="9.850487960502505">
        <ele>673.05999999999995</ele>
        <time>2018-09-19T08:28:40Z</time>
      </trkpt>
      <trkpt lat="47.868256000801921" lon="9.850707985460758">
        <ele>672.10000000000002</ele>
        <time>2018-09-19T08:28:42Z</time>
      </trkpt>
      <trkpt lat="47.868418022990227" lon="9.850790966302156">
        <ele>672.10000000000002</ele>
        <time>2018-09-19T08:28:43Z</time>
      </trkpt>
      <trkpt lat="47.869920982047915" lon="9.851797968149185">
        <ele>673.05999999999995</ele>
        <time>2018-09-19T08:28:52Z</time>
      </trkpt>
      <trkpt lat="47.870055008679628" lon="9.851897964254022">
        <ele>673.05999999999995</ele>
        <time>2018-09-19T08:28:53Z</time>
      </trkpt>
      <trkpt lat="47.870181994512677" lon="9.851989997550845">
        <ele>673.05999999999995</ele>
        <time>2018-09-19T08:28:54Z</time>
      </trkpt>
      <trkpt lat="47.870317026972771" lon="9.851989997550845">
        <ele>673.05999999999995</ele>
        <time>2018-09-19T08:28:55Z</time>
      </trkpt>
      <trkpt lat="47.870451975613832" lon="9.851989997550845">
        <ele>673.05999999999995</ele>
        <time>2018-09-19T08:28:56Z</time>
      </trkpt>
      <trkpt lat="47.870582984760404" lon="9.851989997550845">
        <ele>673.05999999999995</ele>
        <time>2018-09-19T08:28:57Z</time>
      </trkpt>
      <trkpt lat="47.871378008276224" lon="9.852074990049005">
        <ele>673.05999999999995</ele>
        <time>2018-09-19T08:29:04Z</time>
      </trkpt>
      <trkpt lat="47.871479010209441" lon="9.852092005312443">
        <ele>673.53999999999996</ele>
        <time>2018-09-19T08:29:05Z</time>
      </trkpt>
      <trkpt lat="47.871573977172375" lon="9.852137016132474">
        <ele>673.53999999999996</ele>
        <time>2018-09-19T08:29:06Z</time>
      </trkpt>
      <trkpt lat="47.871666010469198" lon="9.85219401307404">
        <ele>674.01999999999998</ele>
        <time>2018-09-19T08:29:07Z</time>
      </trkpt>
      <trkpt lat="47.871756032109261" lon="9.852250004187226">
        <ele>674.98000000000002</ele>
        <time>2018-09-19T08:29:08Z</time>
      </trkpt>
      <trkpt lat="47.872131038457155" lon="9.852483021095395">
        <ele>676.90999999999997</ele>
        <time>2018-09-19T08:29:12Z</time>
      </trkpt>
      <trkpt lat="47.87220798432827" lon="9.852461982518435">
        <ele>676.90999999999997</ele>
        <time>2018-09-19T08:29:13Z</time>
      </trkpt>
      <trkpt lat="47.872306974604726" lon="9.852434992790222">
        <ele>676.90999999999997</ele>
        <time>2018-09-19T08:29:14Z</time>
      </trkpt>
      <trkpt lat="47.872711988165975" lon="9.852294009178877">
        <ele>676.41999999999996</ele>
        <time>2018-09-19T08:29:18Z</time>
      </trkpt>
      <trkpt lat="47.872803015634418" lon="9.85225603915751">
        <ele>676.41999999999996</ele>
        <time>2018-09-19T08:29:19Z</time>
      </trkpt>
      <trkpt lat="47.87289303727448" lon="9.852217985317111">
        <ele>675.94000000000005</ele>
        <time>2018-09-19T08:29:20Z</time>
      </trkpt>
      <trkpt lat="47.872977023944259" lon="9.852218991145492">
        <ele>675.46000000000004</ele>
        <time>2018-09-19T08:29:21Z</time>
      </trkpt>
      <trkpt lat="47.87306796759367" lon="9.852244975045323">
        <ele>675.46000000000004</ele>
        <time>2018-09-19T08:29:22Z</time>
      </trkpt>
      <trkpt lat="47.8731510322541" lon="9.852269031107426">
        <ele>674.98000000000002</ele>
        <time>2018-09-19T08:29:23Z</time>
      </trkpt>
      <trkpt lat="47.873225966468453" lon="9.852289985865355">
        <ele>674.98000000000002</ele>
        <time>2018-09-19T08:29:24Z</time>
      </trkpt>
      <trkpt lat="47.873279023915529" lon="9.852360980585218">
        <ele>674.98000000000002</ele>
        <time>2018-09-19T08:29:25Z</time>
      </trkpt>
      <trkpt lat="47.873354963958263" lon="9.852461982518435">
        <ele>675.46000000000004</ele>
        <time>2018-09-19T08:29:26Z</time>
      </trkpt>
      <trkpt lat="47.873397041112185" lon="9.852563990280032">
        <ele>675.46000000000004</ele>
        <time>2018-09-19T08:29:27Z</time>
      </trkpt>
      <trkpt lat="47.874045968055725" lon="9.854040965437889">
        <ele>676.90999999999997</ele>
        <time>2018-09-19T08:29:37Z</time>
      </trkpt>
      <trkpt lat="47.875059004873037" lon="9.855548031628132">
        <ele>674.98000000000002</ele>
        <time>2018-09-19T08:29:46Z</time>
      </trkpt>
      <trkpt lat="47.876564981415868" lon="9.857232961803675">
        <ele>674.01999999999998</ele>
        <time>2018-09-19T08:29:56Z</time>
      </trkpt>
      <trkpt lat="47.878330964595079" lon="9.858454959467053">
        <ele>674.01999999999998</ele>
        <time>2018-09-19T08:30:04Z</time>
      </trkpt>
      <trkpt lat="47.880130978301167" lon="9.859014032408595">
        <ele>673.05999999999995</ele>
        <time>2018-09-19T08:30:11Z</time>
      </trkpt>
      <trkpt lat="47.881557997316122" lon="9.858710020780563">
        <ele>671.13999999999999</ele>
        <time>2018-09-19T08:30:17Z</time>
      </trkpt>
      <trkpt lat="47.882711011916399" lon="9.858857039362192">
        <ele>669.70000000000005</ele>
        <time>2018-09-19T08:30:23Z</time>
      </trkpt>
      <trkpt lat="47.884825011715293" lon="9.859624989330769">
        <ele>667.76999999999998</ele>
        <time>2018-09-19T08:30:33Z</time>
      </trkpt>
      <trkpt lat="47.887540999799967" lon="9.860807005316019">
        <ele>664.40999999999997</ele>
        <time>2018-09-19T08:30:46Z</time>
      </trkpt>
      <trkpt lat="47.88868403993547" lon="9.861477976664901">
        <ele>662.97000000000003</ele>
        <time>2018-09-19T08:30:53Z</time>
      </trkpt>
      <trkpt lat="47.889454001560807" lon="9.861863041296601">
        <ele>662.00999999999999</ele>
        <time>2018-09-19T08:31:00Z</time>
      </trkpt>
      <trkpt lat="47.890277020633221" lon="9.862703997641802">
        <ele>662.00999999999999</ele>
        <time>2018-09-19T08:31:09Z</time>
      </trkpt>
      <trkpt lat="47.890393026173115" lon="9.862866019830108">
        <ele>662.00999999999999</ele>
        <time>2018-09-19T08:31:12Z</time>
      </trkpt>
      <trkpt lat="47.890423033386469" lon="9.862909018993378">
        <ele>662.00999999999999</ele>
        <time>2018-09-19T08:31:13Z</time>
      </trkpt>
      <trkpt lat="47.890459997579455" lon="9.862966015934944">
        <ele>662.00999999999999</ele>
        <time>2018-09-19T08:31:14Z</time>
      </trkpt>
      <trkpt lat="47.890472989529371" lon="9.863013960421085">
        <ele>662.00999999999999</ele>
        <time>2018-09-19T08:31:15Z</time>
      </trkpt>
      <trkpt lat="47.890455974265933" lon="9.862955035641789">
        <ele>662.00999999999999</ele>
        <time>2018-09-19T08:31:16Z</time>
      </trkpt>
      <trkpt lat="47.890455974265933" lon="9.862955035641789">
        <ele>661.51999999999998</ele>
        <time>2018-09-19T08:31:17Z</time>
      </trkpt>
      <trkpt lat="47.890455974265933" lon="9.862955035641789">
        <ele>661.51999999999998</ele>
        <time>2018-09-19T08:31:18Z</time>
      </trkpt>
      <trkpt lat="47.890455974265933" lon="9.862955035641789">
        <ele>661.51999999999998</ele>
        <time>2018-09-19T08:31:19Z</time>
      </trkpt>
      <trkpt lat="47.890476007014513" lon="9.863024018704891">
        <ele>661.51999999999998</ele>
        <time>2018-09-19T08:31:20Z</time>
      </trkpt>
      <trkpt lat="47.890467960387468" lon="9.862997028976679">
        <ele>661.51999999999998</ele>
        <time>2018-09-19T08:31:21Z</time>
      </trkpt>
      <trkpt lat="47.890458991751075" lon="9.862961992621422">
        <ele>661.51999999999998</ele>
        <time>2018-09-19T08:31:22Z</time>
      </trkpt>
      <trkpt lat="47.890455974265933" lon="9.862955035641789">
        <ele>661.51999999999998</ele>
        <time>2018-09-19T08:31:23Z</time>
      </trkpt>
      <trkpt lat="47.890429990366101" lon="9.862916981801391">
        <ele>661.51999999999998</ele>
        <time>2018-09-19T08:31:24Z</time>
      </trkpt>
      <trkpt lat="47.890395037829876" lon="9.862869037315249">
        <ele>662.00999999999999</ele>
        <time>2018-09-19T08:31:25Z</time>
      </trkpt>
      <trkpt lat="47.889925986528397" lon="9.862338965758681">
        <ele>662.00999999999999</ele>
        <time>2018-09-19T08:31:33Z</time>
      </trkpt>
      <trkpt lat="47.889871001243591" lon="9.862198987975717">
        <ele>662.00999999999999</ele>
        <time>2018-09-19T08:31:34Z</time>
      </trkpt>
      <trkpt lat="47.889891033992171" lon="9.862105026841164">
        <ele>662.00999999999999</ele>
        <time>2018-09-19T08:31:35Z</time>
      </trkpt>
      <trkpt lat="47.889919029548764" lon="9.861980974674225">
        <ele>661.51999999999998</ele>
        <time>2018-09-19T08:31:36Z</time>
      </trkpt>
      <trkpt lat="47.889951970428228" lon="9.861832028254867">
        <ele>661.51999999999998</ele>
        <time>2018-09-19T08:31:37Z</time>
      </trkpt>
      <trkpt lat="47.890250030905008" lon="9.860129998996854">
        <ele>662.97000000000003</ele>
        <time>2018-09-19T08:31:46Z</time>
      </trkpt>
      <trkpt lat="47.890438959002495" lon="9.85851002857089">
        <ele>662.49000000000001</ele>
        <time>2018-09-19T08:31:53Z</time>
      </trkpt>
      <trkpt lat="47.890494028106332" lon="9.858247004449368">
        <ele>662.97000000000003</ele>
        <time>2018-09-19T08:31:54Z</time>
      </trkpt>
      <trkpt lat="47.890576003119349" lon="9.857981968671084">
        <ele>662.49000000000001</ele>
        <time>2018-09-19T08:31:55Z</time>
      </trkpt>
      <trkpt lat="47.890697037801147" lon="9.857723973691464">
        <ele>662.49000000000001</ele>
        <time>2018-09-19T08:31:56Z</time>
      </trkpt>
      <trkpt lat="47.890820000320673" lon="9.857468996196985">
        <ele>662.49000000000001</ele>
        <time>2018-09-19T08:31:57Z</time>
      </trkpt>
      <trkpt lat="47.891057040542364" lon="9.856976978480816">
        <ele>662.00999999999999</ele>
        <time>2018-09-19T08:31:59Z</time>
      </trkpt>
      <trkpt lat="47.891186038032174" lon="9.856711020693183">
        <ele>662.00999999999999</ele>
        <time>2018-09-19T08:32:00Z</time>
      </trkpt>
      <trkpt lat="47.891839994117618" lon="9.854239029809833">
        <ele>661.03999999999996</ele>
        <time>2018-09-19T08:32:08Z</time>
      </trkpt>
      <trkpt lat="47.892510965466499" lon="9.852192001417279">
        <ele>659.12</ele>
        <time>2018-09-19T08:32:15Z</time>
      </trkpt>
      <trkpt lat="47.892979010939598" lon="9.85034697689116">
        <ele>658.15999999999997</ele>
        <time>2018-09-19T08:32:22Z</time>
      </trkpt>
      <trkpt lat="47.893209010362625" lon="9.848729018121958">
        <ele>656.24000000000001</ele>
        <time>2018-09-19T08:32:30Z</time>
      </trkpt>
      <trkpt lat="47.893232982605696" lon="9.84841201454401">
        <ele>655.75999999999999</ele>
        <time>2018-09-19T08:32:32Z</time>
      </trkpt>
      <trkpt lat="47.893248992040753" lon="9.848249992355704">
        <ele>655.75999999999999</ele>
        <time>2018-09-19T08:32:33Z</time>
      </trkpt>
      <trkpt lat="47.89330598898232" lon="9.848137004300952">
        <ele>655.27999999999997</ele>
        <time>2018-09-19T08:32:34Z</time>
      </trkpt>
      <trkpt lat="47.893373966217041" lon="9.848029967397451">
        <ele>655.27999999999997</ele>
        <time>2018-09-19T08:32:35Z</time>
      </trkpt>
      <trkpt lat="47.893449990078807" lon="9.847970036789775">
        <ele>655.27999999999997</ele>
        <time>2018-09-19T08:32:36Z</time>
      </trkpt>
      <trkpt lat="47.893517967313528" lon="9.847915973514319">
        <ele>654.79999999999995</ele>
        <time>2018-09-19T08:32:37Z</time>
      </trkpt>
      <trkpt lat="47.893576975911856" lon="9.847870040684938">
        <ele>654.79999999999995</ele>
        <time>2018-09-19T08:32:38Z</time>
      </trkpt>
      <trkpt lat="47.893631961196661" lon="9.847827041521668">
        <ele>654.79999999999995</ele>
        <time>2018-09-19T08:32:39Z</time>
      </trkpt>
      <trkpt lat="47.893663980066776" lon="9.847802985459566">
        <ele>654.79999999999995</ele>
        <time>2018-09-19T08:32:40Z</time>
      </trkpt>
      <trkpt lat="47.893699016422033" lon="9.847777001559734">
        <ele>654.79999999999995</ele>
        <time>2018-09-19T08:32:41Z</time>
      </trkpt>
      <trkpt lat="47.893704967573285" lon="9.847695026546717">
        <ele>654.30999999999995</ele>
        <time>2018-09-19T08:32:42Z</time>
      </trkpt>
      <trkpt lat="47.893683006986976" lon="9.847584972158074">
        <ele>654.30999999999995</ele>
        <time>2018-09-19T08:32:43Z</time>
      </trkpt>
      <trkpt lat="47.893657023087144" lon="9.847450023517013">
        <ele>654.30999999999995</ele>
        <time>2018-09-19T08:32:44Z</time>
      </trkpt>
      <trkpt lat="47.893626010045409" lon="9.84729303047061">
        <ele>654.30999999999995</ele>
        <time>2018-09-19T08:32:45Z</time>
      </trkpt>
      <trkpt lat="47.893553003668785" lon="9.846918024122715">
        <ele>654.30999999999995</ele>
        <time>2018-09-19T08:32:47Z</time>
      </trkpt>
      <trkpt lat="47.893530959263444" lon="9.846696993336082">
        <ele>654.30999999999995</ele>
        <time>2018-09-19T08:32:48Z</time>
      </trkpt>
      <trkpt lat="47.893511010333896" lon="9.846464982256293">
        <ele>654.30999999999995</ele>
        <time>2018-09-19T08:32:49Z</time>
      </trkpt>
      <trkpt lat="47.893490977585316" lon="9.846222996711731">
        <ele>653.83000000000004</ele>
        <time>2018-09-19T08:32:50Z</time>
      </trkpt>
      <trkpt lat="47.893485026434064" lon="9.845976987853646">
        <ele>653.83000000000004</ele>
        <time>2018-09-19T08:32:51Z</time>
      </trkpt>
      <trkpt lat="47.893489971756935" lon="9.845743970945478">
        <ele>653.35000000000002</ele>
        <time>2018-09-19T08:32:52Z</time>
      </trkpt>
      <trkpt lat="47.893516961485147" lon="9.844955988228321">
        <ele>652.87</ele>
        <time>2018-09-19T08:32:56Z</time>
      </trkpt>
      <trkpt lat="47.893527019768953" lon="9.844805030152202">
        <ele>652.38999999999999</ele>
        <time>2018-09-19T08:32:57Z</time>
      </trkpt>
      <trkpt lat="47.893680995330215" lon="9.844570001587272">
        <ele>652.38999999999999</ele>
        <time>2018-09-19T08:32:58Z</time>
      </trkpt>
      <trkpt lat="47.893750984221697" lon="9.844582993537188">
        <ele>652.38999999999999</ele>
        <time>2018-09-19T08:32:59Z</time>
      </trkpt>
      <trkpt lat="47.893840000033379" lon="9.844600008800626">
        <ele>651.90999999999997</ele>
        <time>2018-09-19T08:33:00Z</time>
      </trkpt>
      <trkpt lat="47.89395097643137" lon="9.844621969386935">
        <ele>651.90999999999997</ele>
        <time>2018-09-19T08:33:01Z</time>
      </trkpt>
      <trkpt lat="47.894104029983282" lon="9.844650970771909">
        <ele>651.90999999999997</ele>
        <time>2018-09-19T08:33:02Z</time>
      </trkpt>
      <trkpt lat="47.894225986674428" lon="9.844676032662392">
        <ele>651.42999999999995</ele>
        <time>2018-09-19T08:33:03Z</time>
      </trkpt>
      <trkpt lat="47.89513299241662" lon="9.844754990190268">
        <ele>650.47000000000003</ele>
        <time>2018-09-19T08:33:08Z</time>
      </trkpt>
      <trkpt lat="47.895341031253338" lon="9.844698999077082">
        <ele>650.47000000000003</ele>
        <time>2018-09-19T08:33:09Z</time>
      </trkpt>
      <trkpt lat="47.895549992099404" lon="9.844617024064064">
        <ele>650.47000000000003</ele>
        <time>2018-09-19T08:33:10Z</time>
      </trkpt>
      <trkpt lat="47.895759036764503" lon="9.844492971897125">
        <ele>650.47000000000003</ele>
        <time>2018-09-19T08:33:11Z</time>
      </trkpt>
      <trkpt lat="47.895964980125427" lon="9.844345031306148">
        <ele>650.47000000000003</ele>
        <time>2018-09-19T08:33:12Z</time>
      </trkpt>
      <trkpt lat="47.898109992966056" lon="9.842551974579692">
        <ele>654.79999999999995</ele>
        <time>2018-09-19T08:33:22Z</time>
      </trkpt>
      <trkpt lat="47.899527959525585" lon="9.841101989150047">
        <ele>656.72000000000003</ele>
        <time>2018-09-19T08:33:28Z</time>
      </trkpt>
      <trkpt lat="47.901403997093439" lon="9.838626980781555">
        <ele>658.63999999999999</ele>
        <time>2018-09-19T08:33:37Z</time>
      </trkpt>
      <trkpt lat="47.902235984802246" lon="9.836644995957613">
        <ele>659.12</ele>
        <time>2018-09-19T08:33:43Z</time>
      </trkpt>
      <trkpt lat="47.902994966134429" lon="9.834688995033503">
        <ele>659.60000000000002</ele>
        <time>2018-09-19T08:33:50Z</time>
      </trkpt>
      <trkpt lat="47.903147013857961" lon="9.83433703891933">
        <ele>660.08000000000004</ele>
        <time>2018-09-19T08:33:52Z</time>
      </trkpt>
      <trkpt lat="47.903215996921062" lon="9.834177028387785">
        <ele>660.08000000000004</ele>
        <time>2018-09-19T08:33:53Z</time>
      </trkpt>
      <trkpt lat="47.903305012732744" lon="9.834053982049227">
        <ele>660.08000000000004</ele>
        <time>2018-09-19T08:33:54Z</time>
      </trkpt>
      <trkpt lat="47.903815973550081" lon="9.833364989608526">
        <ele>660.55999999999995</ele>
        <time>2018-09-19T08:34:00Z</time>
      </trkpt>
      <trkpt lat="47.903888979926705" lon="9.833226017653942">
        <ele>660.55999999999995</ele>
        <time>2018-09-19T08:34:01Z</time>
      </trkpt>
      <trkpt lat="47.904661959037185" lon="9.83128703199327">
        <ele>664.88999999999999</ele>
        <time>2018-09-19T08:34:14Z</time>
      </trkpt>
      <trkpt lat="47.904861029237509" lon="9.830719996243715">
        <ele>666.80999999999995</ele>
        <time>2018-09-19T08:34:18Z</time>
      </trkpt>
      <trkpt lat="47.904871003702283" lon="9.830580018460751">
        <ele>666.80999999999995</ele>
        <time>2018-09-19T08:34:19Z</time>
      </trkpt>
      <trkpt lat="47.904857005923986" lon="9.830410033464432">
        <ele>667.28999999999996</ele>
        <time>2018-09-19T08:34:20Z</time>
      </trkpt>
      <trkpt lat="47.904810989275575" lon="9.829846015200019">
        <ele>667.28999999999996</ele>
        <time>2018-09-19T08:34:23Z</time>
      </trkpt>
      <trkpt lat="47.904824987053871" lon="9.829662032425404">
        <ele>667.28999999999996</ele>
        <time>2018-09-19T08:34:24Z</time>
      </trkpt>
      <trkpt lat="47.904862035065889" lon="9.829466985538602">
        <ele>667.28999999999996</ele>
        <time>2018-09-19T08:34:25Z</time>
      </trkpt>
      <trkpt lat="47.904925988987088" lon="9.829290965572">
        <ele>667.76999999999998</ele>
        <time>2018-09-19T08:34:26Z</time>
      </trkpt>
      <trkpt lat="47.904991032555699" lon="9.829114023596048">
        <ele>667.76999999999998</ele>
        <time>2018-09-19T08:34:27Z</time>
      </trkpt>
      <trkpt lat="47.905587991699576" lon="9.827017961069942">
        <ele>674.5</ele>
        <time>2018-09-19T08:34:39Z</time>
      </trkpt>
      <trkpt lat="47.905630990862846" lon="9.826886029914022">
        <ele>675.46000000000004</ele>
        <time>2018-09-19T08:34:40Z</time>
      </trkpt>
      <trkpt lat="47.9056800249964" lon="9.826761977747083">
        <ele>675.94000000000005</ele>
        <time>2018-09-19T08:34:41Z</time>
      </trkpt>
      <trkpt lat="47.905734004452825" lon="9.826627029106021">
        <ele>676.41999999999996</ele>
        <time>2018-09-19T08:34:42Z</time>
      </trkpt>
      <trkpt lat="47.9058129619807" lon="9.826547987759113">
        <ele>676.90999999999997</ele>
        <time>2018-09-19T08:34:43Z</time>
      </trkpt>
      <trkpt lat="47.905899966135621" lon="9.826460983604193">
        <ele>677.38999999999999</ele>
        <time>2018-09-19T08:34:44Z</time>
      </trkpt>
      <trkpt lat="47.906000968068838" lon="9.826393006369472">
        <ele>677.38999999999999</ele>
        <time>2018-09-19T08:34:45Z</time>
      </trkpt>
      <trkpt lat="47.9061100166291" lon="9.826353024691343">
        <ele>677.87</ele>
        <time>2018-09-19T08:34:46Z</time>
      </trkpt>
      <trkpt lat="47.906223004683852" lon="9.826311031356454">
        <ele>678.83000000000004</ele>
        <time>2018-09-19T08:34:47Z</time>
      </trkpt>
      <trkpt lat="47.906343033537269" lon="9.826266020536423">
        <ele>679.30999999999995</ele>
        <time>2018-09-19T08:34:48Z</time>
      </trkpt>
      <trkpt lat="47.906467001885176" lon="9.826220003888011">
        <ele>680.26999999999998</ele>
        <time>2018-09-19T08:34:49Z</time>
      </trkpt>
      <trkpt lat="47.906585019081831" lon="9.826140962541103">
        <ele>681.71000000000004</ele>
        <time>2018-09-19T08:34:50Z</time>
      </trkpt>
      <trkpt lat="47.906684009358287" lon="9.826011965051293">
        <ele>682.66999999999996</ele>
        <time>2018-09-19T08:34:51Z</time>
      </trkpt>
      <trkpt lat="47.90677503682673" lon="9.825864024460316">
        <ele>683.63</ele>
        <time>2018-09-19T08:34:52Z</time>
      </trkpt>
      <trkpt lat="47.906846031546593" lon="9.825684987008572">
        <ele>685.08000000000004</ele>
        <time>2018-09-19T08:34:53Z</time>
      </trkpt>
      <trkpt lat="47.906908979639411" lon="9.825481977313757">
        <ele>686.03999999999996</ele>
        <time>2018-09-19T08:34:54Z</time>
      </trkpt>
      <trkpt lat="47.906973017379642" lon="9.825273016467691">
        <ele>687.48000000000002</ele>
        <time>2018-09-19T08:34:55Z</time>
      </trkpt>
      <trkpt lat="47.90744299069047" lon="9.823394967243075">
        <ele>700.94000000000005</ele>
        <time>2018-09-19T08:35:03Z</time>
      </trkpt>
      <trkpt lat="47.907920004799962" lon="9.821179965510964">
        <ele>716.32000000000005</ele>
        <time>2018-09-19T08:35:11Z</time>
      </trkpt>
      <trkpt lat="47.9080889839679" lon="9.820393994450569">
        <ele>721.61000000000001</ele>
        <time>2018-09-19T08:35:14Z</time>
      </trkpt>
      <trkpt lat="47.908145980909467" lon="9.820152008906007">
        <ele>723.04999999999995</ele>
        <time>2018-09-19T08:35:15Z</time>
      </trkpt>
      <trkpt lat="47.908248994499445" lon="9.819955034181476">
        <ele>724.49000000000001</ele>
        <time>2018-09-19T08:35:16Z</time>
      </trkpt>
      <trkpt lat="47.908372962847352" lon="9.819717993959785">
        <ele>725.45000000000005</ele>
        <time>2018-09-19T08:35:17Z</time>
      </trkpt>
      <trkpt lat="47.908505983650684" lon="9.819561000913382">
        <ele>726.40999999999997</ele>
        <time>2018-09-19T08:35:18Z</time>
      </trkpt>
      <trkpt lat="47.908654008060694" lon="9.81938598677516">
        <ele>727.86000000000001</ele>
        <time>2018-09-19T08:35:19Z</time>
      </trkpt>
      <trkpt lat="47.909795958548784" lon="9.817899959161878">
        <ele>742.75999999999999</ele>
        <time>2018-09-19T08:35:27Z</time>
      </trkpt>
      <trkpt lat="47.909915987402201" lon="9.817652022466064">
        <ele>744.67999999999995</ele>
        <time>2018-09-19T08:35:28Z</time>
      </trkpt>
      <trkpt lat="47.911256002262235" lon="9.81493704020977">
        <ele>750.92999999999995</ele>
        <time>2018-09-19T08:35:38Z</time>
      </trkpt>
      <trkpt lat="47.913000024855137" lon="9.811861971393228">
        <ele>736.50999999999999</ele>
        <time>2018-09-19T08:35:49Z</time>
      </trkpt>
      <trkpt lat="47.914149016141891" lon="9.810021976009011">
        <ele>720.15999999999997</ele>
        <time>2018-09-19T08:35:57Z</time>
      </trkpt>
      <trkpt lat="47.915252996608615" lon="9.807527018710971">
        <ele>700.46000000000004</ele>
        <time>2018-09-19T08:36:06Z</time>
      </trkpt>
      <trkpt lat="47.916267039254308" lon="9.805361973121762">
        <ele>681.23000000000002</ele>
        <time>2018-09-19T08:36:14Z</time>
      </trkpt>
      <trkpt lat="47.916947985067964" lon="9.803635971620679">
        <ele>665.85000000000002</ele>
        <time>2018-09-19T08:36:21Z</time>
      </trkpt>
      <trkpt lat="47.917072037234902" lon="9.803518038243055">
        <ele>663.45000000000005</ele>
        <time>2018-09-19T08:36:22Z</time>
      </trkpt>
      <trkpt lat="47.917183013632894" lon="9.803413012996316">
        <ele>661.51999999999998</ele>
        <time>2018-09-19T08:36:23Z</time>
      </trkpt>
      <trkpt lat="47.918037967756391" lon="9.80269099585712">
        <ele>647.59000000000003</ele>
        <time>2018-09-19T08:36:32Z</time>
      </trkpt>
      <trkpt lat="47.918245000764728" lon="9.802471976727247">
        <ele>644.70000000000005</ele>
        <time>2018-09-19T08:36:34Z</time>
      </trkpt>
      <trkpt lat="47.918347008526325" lon="9.802364017814398">
        <ele>642.77999999999997</ele>
        <time>2018-09-19T08:36:35Z</time>
      </trkpt>
      <trkpt lat="47.91842102073133" lon="9.802210964262486">
        <ele>641.82000000000005</ele>
        <time>2018-09-19T08:36:36Z</time>
      </trkpt>
      <trkpt lat="47.918482040986419" lon="9.802053971216083">
        <ele>640.86000000000001</ele>
        <time>2018-09-19T08:36:37Z</time>
      </trkpt>
      <trkpt lat="47.918540965765715" lon="9.80189798399806">
        <ele>639.88999999999999</ele>
        <time>2018-09-19T08:36:38Z</time>
      </trkpt>
      <trkpt lat="47.918597962707281" lon="9.80174501426518">
        <ele>639.40999999999997</ele>
        <time>2018-09-19T08:36:39Z</time>
      </trkpt>
      <trkpt lat="47.918648002669215" lon="9.801587015390396">
        <ele>638.45000000000005</ele>
        <time>2018-09-19T08:36:40Z</time>
      </trkpt>
      <trkpt lat="47.919257031753659" lon="9.800139041617513">
        <ele>635.57000000000005</ele>
        <time>2018-09-19T08:36:50Z</time>
      </trkpt>
      <trkpt lat="47.920192033052444" lon="9.798590987920761">
        <ele>632.67999999999995</ele>
        <time>2018-09-19T08:37:02Z</time>
      </trkpt>
      <trkpt lat="47.920279959216714" lon="9.798497026786208">
        <ele>632.67999999999995</ele>
        <time>2018-09-19T08:37:03Z</time>
      </trkpt>
      <trkpt lat="47.920367969200015" lon="9.798453021794558">
        <ele>632.67999999999995</ele>
        <time>2018-09-19T08:37:04Z</time>
      </trkpt>
      <trkpt lat="47.920465031638741" lon="9.798440029844642">
        <ele>632.67999999999995</ele>
        <time>2018-09-19T08:37:05Z</time>
      </trkpt>
      <trkpt lat="47.920559998601675" lon="9.798454027622938">
        <ele>632.67999999999995</ele>
        <time>2018-09-19T08:37:06Z</time>
      </trkpt>
      <trkpt lat="47.92065798304975" lon="9.798469031229615">
        <ele>632.20000000000005</ele>
        <time>2018-09-19T08:37:07Z</time>
      </trkpt>
      <trkpt lat="47.920754961669445" lon="9.798421002924442">
        <ele>632.20000000000005</ele>
        <time>2018-09-19T08:37:08Z</time>
      </trkpt>
      <trkpt lat="47.920836014673114" lon="9.798324024304748">
        <ele>632.20000000000005</ele>
        <time>2018-09-19T08:37:09Z</time>
      </trkpt>
      <trkpt lat="47.920890999957919" lon="9.798182034865022">
        <ele>632.20000000000005</ele>
        <time>2018-09-19T08:37:10Z</time>
      </trkpt>
      <trkpt lat="47.920951014384627" lon="9.798025963827968">
        <ele>632.20000000000005</ele>
        <time>2018-09-19T08:37:11Z</time>
      </trkpt>
      <trkpt lat="47.921017985790968" lon="9.797854973003268">
        <ele>633.16999999999996</ele>
        <time>2018-09-19T08:37:12Z</time>
      </trkpt>
      <trkpt lat="47.92160295881331" lon="9.796256041154265">
        <ele>634.61000000000001</ele>
        <time>2018-09-19T08:37:19Z</time>
      </trkpt>
      <trkpt lat="47.922428995370865" lon="9.793821014463902">
        <ele>635.09000000000003</ele>
        <time>2018-09-19T08:37:27Z</time>
      </trkpt>
      <trkpt lat="47.922959988936782" lon="9.791529988870025">
        <ele>634.61000000000001</ele>
        <time>2018-09-19T08:37:34Z</time>
      </trkpt>
      <trkpt lat="47.923567006364465" lon="9.788450980558991">
        <ele>638.92999999999995</ele>
        <time>2018-09-19T08:37:43Z</time>
      </trkpt>
      <trkpt lat="47.923650993034244" lon="9.787422018125653">
        <ele>640.86000000000001</ele>
        <time>2018-09-19T08:37:48Z</time>
      </trkpt>
      <trkpt lat="47.923614028841257" lon="9.786609979346395">
        <ele>643.25999999999999</ele>
        <time>2018-09-19T08:37:53Z</time>
      </trkpt>
      <trkpt lat="47.923359973356128" lon="9.785233000293374">
        <ele>646.13999999999999</ele>
        <time>2018-09-19T08:37:58Z</time>
      </trkpt>
      <trkpt lat="47.922759996727109" lon="9.782661013305187">
        <ele>649.50999999999999</ele>
        <time>2018-09-19T08:38:06Z</time>
      </trkpt>
      <trkpt lat="47.922578025609255" lon="9.781394004821777">
        <ele>649.99000000000001</ele>
        <time>2018-09-19T08:38:10Z</time>
      </trkpt>
      <trkpt lat="47.922595040872693" lon="9.781055962666869">
        <ele>649.50999999999999</ele>
        <time>2018-09-19T08:38:11Z</time>
      </trkpt>
      <trkpt lat="47.922647008672357" lon="9.78073300793767">
        <ele>649.50999999999999</ele>
        <time>2018-09-19T08:38:12Z</time>
      </trkpt>
      <trkpt lat="47.922699982300401" lon="9.780403012409806">
        <ele>648.54999999999995</ele>
        <time>2018-09-19T08:38:13Z</time>
      </trkpt>
      <trkpt lat="47.922754967585206" lon="9.780063964426518">
        <ele>648.07000000000005</ele>
        <time>2018-09-19T08:38:14Z</time>
      </trkpt>
      <trkpt lat="47.923068031668663" lon="9.777542017400265">
        <ele>640.38</ele>
        <time>2018-09-19T08:38:21Z</time>
      </trkpt>
      <trkpt lat="47.923435997217894" lon="9.775092992931604">
        <ele>632.20000000000005</ele>
        <time>2018-09-19T08:38:28Z</time>
      </trkpt>
      <trkpt lat="47.923451000824571" lon="9.77473902516067">
        <ele>631.72000000000003</ele>
        <time>2018-09-19T08:38:29Z</time>
      </trkpt>
      <trkpt lat="47.923313034698367" lon="9.771852968260646">
        <ele>623.07000000000005</ele>
        <time>2018-09-19T08:38:37Z</time>
      </trkpt>
      <trkpt lat="47.92334396392107" lon="9.768985016271472">
        <ele>617.77999999999997</ele>
        <time>2018-09-19T08:38:45Z</time>
      </trkpt>
      <trkpt lat="47.923294007778168" lon="9.767150972038508">
        <ele>610.57000000000005</ele>
        <time>2018-09-19T08:38:52Z</time>
      </trkpt>
      <trkpt lat="47.923243967816234" lon="9.766717040911317">
        <ele>608.64999999999998</ele>
        <time>2018-09-19T08:38:54Z</time>
      </trkpt>
      <trkpt lat="47.922895029187202" lon="9.765275018289685">
        <ele>596.63999999999999</ele>
        <time>2018-09-19T08:39:03Z</time>
      </trkpt>
      <trkpt lat="47.922727977856994" lon="9.764886014163494">
        <ele>594.23000000000002</ele>
        <time>2018-09-19T08:39:07Z</time>
      </trkpt>
      <trkpt lat="47.92269503697753" lon="9.764807978644967">
        <ele>593.75</ele>
        <time>2018-09-19T08:39:08Z</time>
      </trkpt>
      <trkpt lat="47.922667963430285" lon="9.764745030552149">
        <ele>593.26999999999998</ele>
        <time>2018-09-19T08:39:09Z</time>
      </trkpt>
      <trkpt lat="47.922756979241967" lon="9.764521988108754">
        <ele>593.26999999999998</ele>
        <time>2018-09-19T08:39:10Z</time>
      </trkpt>
      <trkpt lat="47.922821016982198" lon="9.764468008652329">
        <ele>592.78999999999996</ele>
        <time>2018-09-19T08:39:11Z</time>
      </trkpt>
      <trkpt lat="47.922903997823596" lon="9.764397013932467">
        <ele>592.30999999999995</ele>
        <time>2018-09-19T08:39:12Z</time>
      </trkpt>
      <trkpt lat="47.92299896478653" lon="9.764317972585559">
        <ele>591.83000000000004</ele>
        <time>2018-09-19T08:39:13Z</time>
      </trkpt>
      <trkpt lat="47.923945030197501" lon="9.763299990445375">
        <ele>592.30999999999995</ele>
        <time>2018-09-19T08:39:23Z</time>
      </trkpt>
      <trkpt lat="47.925014980137348" lon="9.761688988655806">
        <ele>596.14999999999998</ele>
        <time>2018-09-19T08:39:36Z</time>
      </trkpt>
      <trkpt lat="47.925733979791403" lon="9.75987003184855">
        <ele>595.66999999999996</ele>
        <time>2018-09-19T08:39:48Z</time>
      </trkpt>
      <trkpt lat="47.926021981984377" lon="9.758118968456984">
        <ele>595.19000000000005</ele>
        <time>2018-09-19T08:39:59Z</time>
      </trkpt>
      <trkpt lat="47.926057018339634" lon="9.757835995405912">
        <ele>596.14999999999998</ele>
        <time>2018-09-19T08:40:06Z</time>
      </trkpt>
      <trkpt lat="47.926100017502904" lon="9.757492002099752">
        <ele>597.12</ele>
        <time>2018-09-19T08:40:14Z</time>
      </trkpt>
      <trkpt lat="47.926075961440802" lon="9.757332997396588">
        <ele>597.12</ele>
        <time>2018-09-19T08:40:18Z</time>
      </trkpt>
      <trkpt lat="47.926045032218099" lon="9.757327968254685">
        <ele>596.63999999999999</ele>
        <time>2018-09-19T08:40:19Z</time>
      </trkpt>
      <trkpt lat="47.926011001691222" lon="9.757322017103434">
        <ele>597.12</ele>
        <time>2018-09-19T08:40:20Z</time>
      </trkpt>
      <trkpt lat="47.925966996699572" lon="9.757311036810279">
        <ele>597.12</ele>
        <time>2018-09-19T08:40:21Z</time>
      </trkpt>
      <trkpt lat="47.925927015021443" lon="9.757297039031982">
        <ele>597.12</ele>
        <time>2018-09-19T08:40:22Z</time>
      </trkpt>
      <trkpt lat="47.925884015858173" lon="9.757283041253686">
        <ele>597.12</ele>
        <time>2018-09-19T08:40:23Z</time>
      </trkpt>
      <trkpt lat="47.925860965624452" lon="9.757276000455022">
        <ele>597.12</ele>
        <time>2018-09-19T08:40:24Z</time>
      </trkpt>
      <trkpt lat="47.92579198256135" lon="9.757196037098765">
        <ele>597.12</ele>
        <time>2018-09-19T08:40:25Z</time>
      </trkpt>
      <trkpt lat="47.925742026418447" lon="9.757139040157199">
        <ele>596.63999999999999</ele>
        <time>2018-09-19T08:40:26Z</time>
      </trkpt>
      <trkpt lat="47.925702966749668" lon="9.757063016295433">
        <ele>596.63999999999999</ele>
        <time>2018-09-19T08:40:27Z</time>
      </trkpt>
      <trkpt lat="47.9256840236485" lon="9.756968971341848">
        <ele>597.12</ele>
        <time>2018-09-19T08:40:28Z</time>
      </trkpt>
      <trkpt lat="47.925666002556682" lon="9.756876016035676">
        <ele>596.63999999999999</ele>
        <time>2018-09-19T08:40:29Z</time>
      </trkpt>
      <trkpt lat="47.925647981464863" lon="9.756785994395614">
        <ele>596.63999999999999</ele>
        <time>2018-09-19T08:40:30Z</time>
      </trkpt>
      <trkpt lat="47.925527030602098" lon="9.755559973418713">
        <ele>596.63999999999999</ele>
        <time>2018-09-19T08:40:42Z</time>
      </trkpt>
      <trkpt lat="47.925199968740344" lon="9.754015021026135">
        <ele>596.63999999999999</ele>
        <time>2018-09-19T08:40:55Z</time>
      </trkpt>
      <trkpt lat="47.924885982647538" lon="9.752523964270949">
        <ele>596.14999999999998</ele>
        <time>2018-09-19T08:41:06Z</time>
      </trkpt>
      <trkpt lat="47.924597980454564" lon="9.751136004924774">
        <ele>596.63999999999999</ele>
        <time>2018-09-19T08:41:17Z</time>
      </trkpt>
      <trkpt lat="47.924435036256909" lon="9.750508032739162">
        <ele>596.63999999999999</ele>
        <time>2018-09-19T08:41:24Z</time>
      </trkpt>
      <trkpt lat="47.924407040700316" lon="9.750399990007281">
        <ele>596.63999999999999</ele>
        <time>2018-09-19T08:41:25Z</time>
      </trkpt>
      <trkpt lat="47.924166982993484" lon="9.749461971223354">
        <ele>593.75</ele>
        <time>2018-09-19T08:41:30Z</time>
      </trkpt>
      <trkpt lat="47.923749983310699" lon="9.747377978637815">
        <ele>589.42999999999995</ele>
        <time>2018-09-19T08:41:41Z</time>
      </trkpt>
      <trkpt lat="47.923758029937744" lon="9.745631022378802">
        <ele>589.42999999999995</ele>
        <time>2018-09-19T08:41:51Z</time>
      </trkpt>
      <trkpt lat="47.923829024657607" lon="9.745107991620898">
        <ele>589.42999999999995</ele>
        <time>2018-09-19T08:41:54Z</time>
      </trkpt>
      <trkpt lat="47.92387998662889" lon="9.744941024109721">
        <ele>589.42999999999995</ele>
        <time>2018-09-19T08:41:55Z</time>
      </trkpt>
      <trkpt lat="47.923956010490656" lon="9.744811020791531">
        <ele>589.42999999999995</ele>
        <time>2018-09-19T08:41:56Z</time>
      </trkpt>
      <trkpt lat="47.924033040180802" lon="9.74468101747334">
        <ele>589.42999999999995</ele>
        <time>2018-09-19T08:41:57Z</time>
      </trkpt>
      <trkpt lat="47.924108980223536" lon="9.74455201998353">
        <ele>589.42999999999995</ele>
        <time>2018-09-19T08:41:58Z</time>
      </trkpt>
      <trkpt lat="47.925158981233835" lon="9.742919979617">
        <ele>588.95000000000005</ele>
        <time>2018-09-19T08:42:11Z</time>
      </trkpt>
      <trkpt lat="47.925256965681911" lon="9.742829035967588">
        <ele>588.95000000000005</ele>
        <time>2018-09-19T08:42:12Z</time>
      </trkpt>
      <trkpt lat="47.925356039777398" lon="9.742735996842384">
        <ele>588.46000000000004</ele>
        <time>2018-09-19T08:42:13Z</time>
      </trkpt>
      <trkpt lat="47.926569990813732" lon="9.741625981405377">
        <ele>587.98000000000002</ele>
        <time>2018-09-19T08:42:25Z</time>
      </trkpt>
      <trkpt lat="47.926740981638432" lon="9.741424983367324">
        <ele>587.5</ele>
        <time>2018-09-19T08:42:27Z</time>
      </trkpt>
      <trkpt lat="47.926825974136591" lon="9.74130998365581">
        <ele>587.5</ele>
        <time>2018-09-19T08:42:28Z</time>
      </trkpt>
      <trkpt lat="47.92690996080637" lon="9.741196995601058">
        <ele>587.01999999999998</ele>
        <time>2018-09-19T08:42:29Z</time>
      </trkpt>
      <trkpt lat="47.926995037123561" lon="9.741083001717925">
        <ele>587.01999999999998</ele>
        <time>2018-09-19T08:42:30Z</time>
      </trkpt>
      <trkpt lat="47.927082041278481" lon="9.74096599034965">
        <ele>586.53999999999996</ele>
        <time>2018-09-19T08:42:31Z</time>
      </trkpt>
      <trkpt lat="47.927192011848092" lon="9.740817965939641">
        <ele>586.05999999999995</ele>
        <time>2018-09-19T08:42:32Z</time>
      </trkpt>
      <trkpt lat="47.927269041538239" lon="9.740686034783721">
        <ele>586.05999999999995</ele>
        <time>2018-09-19T08:42:33Z</time>
      </trkpt>
      <trkpt lat="47.9282639734447" lon="9.738891972228885">
        <ele>585.58000000000004</ele>
        <time>2018-09-19T08:42:43Z</time>
      </trkpt>
      <trkpt lat="47.929512038826942" lon="9.736476978287101">
        <ele>585.58000000000004</ele>
        <time>2018-09-19T08:42:54Z</time>
      </trkpt>
      <trkpt lat="47.930601015686989" lon="9.734250996261835">
        <ele>585.58000000000004</ele>
        <time>2018-09-19T08:43:02Z</time>
      </trkpt>
      <trkpt lat="47.932599009945989" lon="9.730163980275393">
        <ele>584.13999999999999</ele>
        <time>2018-09-19T08:43:15Z</time>
      </trkpt>
      <trkpt lat="47.933537028729916" lon="9.728120975196362">
        <ele>582.70000000000005</ele>
        <time>2018-09-19T08:43:22Z</time>
      </trkpt>
      <trkpt lat="47.93363300152123" lon="9.727807994931936">
        <ele>583.17999999999995</ele>
        <time>2018-09-19T08:43:23Z</time>
      </trkpt>
      <trkpt lat="47.934343032538891" lon="9.725438011810184">
        <ele>581.73000000000002</ele>
        <time>2018-09-19T08:43:30Z</time>
      </trkpt>
      <trkpt lat="47.935166973620653" lon="9.723015977069736">
        <ele>579.33000000000004</ele>
        <time>2018-09-19T08:43:38Z</time>
      </trkpt>
      <trkpt lat="47.935998039320111" lon="9.721250999718905">
        <ele>577.88999999999999</ele>
        <time>2018-09-19T08:43:46Z</time>
      </trkpt>
      <trkpt lat="47.93640598654747" lon="9.720007041469216">
        <ele>578.37</ele>
        <time>2018-09-19T08:43:51Z</time>
      </trkpt>
      <trkpt lat="47.936444040387869" lon="9.719738988205791">
        <ele>578.37</ele>
        <time>2018-09-19T08:43:52Z</time>
      </trkpt>
      <trkpt lat="47.936560967937112" lon="9.718923009932041">
        <ele>578.85000000000002</ele>
        <time>2018-09-19T08:43:55Z</time>
      </trkpt>
      <trkpt lat="47.936617964878678" lon="9.718657974153757">
        <ele>578.85000000000002</ele>
        <time>2018-09-19T08:43:56Z</time>
      </trkpt>
      <trkpt lat="47.936701029539108" lon="9.718401990830898">
        <ele>578.37</ele>
        <time>2018-09-19T08:43:57Z</time>
      </trkpt>
      <trkpt lat="47.936812005937099" lon="9.718163022771478">
        <ele>577.88999999999999</ele>
        <time>2018-09-19T08:43:58Z</time>
      </trkpt>
      <trkpt lat="47.936927005648613" lon="9.717918019741774">
        <ele>577.40999999999997</ele>
        <time>2018-09-19T08:43:59Z</time>
      </trkpt>
      <trkpt lat="47.937076035887003" lon="9.717701012268663">
        <ele>576.92999999999995</ele>
        <time>2018-09-19T08:44:00Z</time>
      </trkpt>
      <trkpt lat="47.937238980084658" lon="9.717490039765835">
        <ele>576.45000000000005</ele>
        <time>2018-09-19T08:44:01Z</time>
      </trkpt>
      <trkpt lat="47.937409970909357" lon="9.717282000929117">
        <ele>575.97000000000003</ele>
        <time>2018-09-19T08:44:02Z</time>
      </trkpt>
      <trkpt lat="47.937580039724708" lon="9.717086032032967">
        <ele>575.49000000000001</ele>
        <time>2018-09-19T08:44:03Z</time>
      </trkpt>
      <trkpt lat="47.938660969957709" lon="9.716189000755549">
        <ele>574.03999999999996</ele>
        <time>2018-09-19T08:44:10Z</time>
      </trkpt>
      <trkpt lat="47.939012004062533" lon="9.715910973027349">
        <ele>573.55999999999995</ele>
        <time>2018-09-19T08:44:13Z</time>
      </trkpt>
      <trkpt lat="47.939118035137653" lon="9.715840984135866">
        <ele>573.08000000000004</ele>
        <time>2018-09-19T08:44:14Z</time>
      </trkpt>
      <trkpt lat="47.939214007928967" lon="9.715840984135866">
        <ele>573.08000000000004</ele>
        <time>2018-09-19T08:44:15Z</time>
      </trkpt>
      <trkpt lat="47.939315009862185" lon="9.715840984135866">
        <ele>573.08000000000004</ele>
        <time>2018-09-19T08:44:16Z</time>
      </trkpt>
      <trkpt lat="47.93939103372395" lon="9.715907033532858">
        <ele>573.08000000000004</ele>
        <time>2018-09-19T08:44:17Z</time>
      </trkpt>
      <trkpt lat="47.93947602622211" lon="9.715980961918831">
        <ele>573.08000000000004</ele>
        <time>2018-09-19T08:44:18Z</time>
      </trkpt>
      <trkpt lat="47.939576022326946" lon="9.716009963303804">
        <ele>573.08000000000004</ele>
        <time>2018-09-19T08:44:19Z</time>
      </trkpt>
      <trkpt lat="47.939683981239796" lon="9.716033013537526">
        <ele>573.08000000000004</ele>
        <time>2018-09-19T08:44:20Z</time>
      </trkpt>
      <trkpt lat="47.939803004264832" lon="9.716046005487442">
        <ele>573.55999999999995</ele>
        <time>2018-09-19T08:44:21Z</time>
      </trkpt>
      <trkpt lat="47.939916998147964" lon="9.715980039909482">
        <ele>573.55999999999995</ele>
        <time>2018-09-19T08:44:22Z</time>
      </trkpt>
      <trkpt lat="47.940041972324252" lon="9.715906027704477">
        <ele>573.55999999999995</ele>
        <time>2018-09-19T08:44:23Z</time>
      </trkpt>
      <trkpt lat="47.94018697924912" lon="9.715802008286119">
        <ele>574.03999999999996</ele>
        <time>2018-09-19T08:44:24Z</time>
      </trkpt>
      <trkpt lat="47.940314970910549" lon="9.71565599553287">
        <ele>574.03999999999996</ele>
        <time>2018-09-19T08:44:25Z</time>
      </trkpt>
      <trkpt lat="47.940447991713881" lon="9.715505037456751">
        <ele>573.55999999999995</ele>
        <time>2018-09-19T08:44:26Z</time>
      </trkpt>
      <trkpt lat="47.940556034445763" lon="9.715319965034723">
        <ele>572.60000000000002</ele>
        <time>2018-09-19T08:44:27Z</time>
      </trkpt>
      <trkpt lat="47.94066097587347" lon="9.71511896699667">
        <ele>572.12</ele>
        <time>2018-09-19T08:44:28Z</time>
      </trkpt>
      <trkpt lat="47.94074303470552" lon="9.714887961745262">
        <ele>571.63999999999999</ele>
        <time>2018-09-19T08:44:29Z</time>
      </trkpt>
      <trkpt lat="47.940804976969957" lon="9.714631978422403">
        <ele>571.15999999999997</ele>
        <time>2018-09-19T08:44:30Z</time>
      </trkpt>
      <trkpt lat="47.940869014710188" lon="9.714369038119912">
        <ele>570.67999999999995</ele>
        <time>2018-09-19T08:44:31Z</time>
      </trkpt>
      <trkpt lat="47.941075963899493" lon="9.713639980182052">
        <ele>570.20000000000005</ele>
        <time>2018-09-19T08:44:34Z</time>
      </trkpt>
      <trkpt lat="47.941172020509839" lon="9.713432025164366">
        <ele>569.72000000000003</ele>
        <time>2018-09-19T08:44:35Z</time>
      </trkpt>
      <trkpt lat="47.941267993301153" lon="9.713222980499268">
        <ele>569.72000000000003</ele>
        <time>2018-09-19T08:44:36Z</time>
      </trkpt>
      <trkpt lat="47.941419035196304" lon="9.7130779735744">
        <ele>569.72000000000003</ele>
        <time>2018-09-19T08:44:37Z</time>
      </trkpt>
      <trkpt lat="47.941579967737198" lon="9.712923998013139">
        <ele>569.72000000000003</ele>
        <time>2018-09-19T08:44:38Z</time>
      </trkpt>
      <trkpt lat="47.9430459626019" lon="9.711568979546428">
        <ele>571.15999999999997</ele>
        <time>2018-09-19T08:44:46Z</time>
      </trkpt>
      <trkpt lat="47.945075975731015" lon="9.709577020257711">
        <ele>572.60000000000002</ele>
        <time>2018-09-19T08:44:56Z</time>
      </trkpt>
      <trkpt lat="47.946638027206063" lon="9.707816988229752">
        <ele>575.49000000000001</ele>
        <time>2018-09-19T08:45:04Z</time>
      </trkpt>
      <trkpt lat="47.94742600992322" lon="9.707193039357662">
        <ele>576.45000000000005</ele>
        <time>2018-09-19T08:45:08Z</time>
      </trkpt>
      <trkpt lat="47.947635976597667" lon="9.707072004675865">
        <ele>576.45000000000005</ele>
        <time>2018-09-19T08:45:09Z</time>
      </trkpt>
      <trkpt lat="47.947849966585636" lon="9.706948958337307">
        <ele>576.45000000000005</ele>
        <time>2018-09-19T08:45:10Z</time>
      </trkpt>
      <trkpt lat="47.94918998144567" lon="9.706436991691589">
        <ele>575.97000000000003</ele>
        <time>2018-09-19T08:45:16Z</time>
      </trkpt>
      <trkpt lat="47.949392991140485" lon="9.706293996423483">
        <ele>575.49000000000001</ele>
        <time>2018-09-19T08:45:17Z</time>
      </trkpt>
      <trkpt lat="47.949588960036635" lon="9.706118982285261">
        <ele>575.00999999999999</ele>
        <time>2018-09-19T08:45:18Z</time>
      </trkpt>
      <trkpt lat="47.949772020801902" lon="9.705925025045872">
        <ele>574.03999999999996</ele>
        <time>2018-09-19T08:45:19Z</time>
      </trkpt>
      <trkpt lat="47.949943011626601" lon="9.7056869789958">
        <ele>573.55999999999995</ele>
        <time>2018-09-19T08:45:20Z</time>
      </trkpt>
      <trkpt lat="47.950086006894708" lon="9.705405011773109">
        <ele>572.60000000000002</ele>
        <time>2018-09-19T08:45:21Z</time>
      </trkpt>
      <trkpt lat="47.950206035748124" lon="9.705107035115361">
        <ele>571.63999999999999</ele>
        <time>2018-09-19T08:45:22Z</time>
      </trkpt>
      <trkpt lat="47.950326986610889" lon="9.704806040972471">
        <ele>570.67999999999995</ele>
        <time>2018-09-19T08:45:23Z</time>
      </trkpt>
      <trkpt lat="47.951312027871609" lon="9.702795976772904">
        <ele>563.47000000000003</ele>
        <time>2018-09-19T08:45:30Z</time>
      </trkpt>
      <trkpt lat="47.95172500424087" lon="9.702476961538196">
        <ele>562.50999999999999</ele>
        <time>2018-09-19T08:45:32Z</time>
      </trkpt>
      <trkpt lat="47.951944023370743" lon="9.702342012897134">
        <ele>562.02999999999997</ele>
        <time>2018-09-19T08:45:33Z</time>
      </trkpt>
      <trkpt lat="47.95309703797102" lon="9.70119696110487">
        <ele>561.07000000000005</ele>
        <time>2018-09-19T08:45:39Z</time>
      </trkpt>
      <trkpt lat="47.953237015753984" lon="9.700964028015733">
        <ele>561.07000000000005</ele>
        <time>2018-09-19T08:45:40Z</time>
      </trkpt>
      <trkpt lat="47.953351009637117" lon="9.700694968923926">
        <ele>561.07000000000005</ele>
        <time>2018-09-19T08:45:41Z</time>
      </trkpt>
      <trkpt lat="47.953432984650135" lon="9.700417025014758">
        <ele>560.59000000000003</ele>
        <time>2018-09-19T08:45:42Z</time>
      </trkpt>
      <trkpt lat="47.95348796993494" lon="9.700124999508262">
        <ele>560.59000000000003</ele>
        <time>2018-09-19T08:45:43Z</time>
      </trkpt>
      <trkpt lat="47.953543961048126" lon="9.699826017022133">
        <ele>560.59000000000003</ele>
        <time>2018-09-19T08:45:44Z</time>
      </trkpt>
      <trkpt lat="47.953562987968326" lon="9.699501972645521">
        <ele>561.07000000000005</ele>
        <time>2018-09-19T08:45:45Z</time>
      </trkpt>
      <trkpt lat="47.953562987968326" lon="9.69917600043118">
        <ele>561.07000000000005</ele>
        <time>2018-09-19T08:45:46Z</time>
      </trkpt>
      <trkpt lat="47.953562987968326" lon="9.698844999074936">
        <ele>561.07000000000005</ele>
        <time>2018-09-19T08:45:47Z</time>
      </trkpt>
      <trkpt lat="47.953824000433087" lon="9.696263959631324">
        <ele>561.54999999999995</ele>
        <time>2018-09-19T08:45:55Z</time>
      </trkpt>
      <trkpt lat="47.954072020947933" lon="9.695058977231383">
        <ele>562.50999999999999</ele>
        <time>2018-09-19T08:45:59Z</time>
      </trkpt>
      <trkpt lat="47.954159025102854" lon="9.694778015837073">
        <ele>562.50999999999999</ele>
        <time>2018-09-19T08:46:00Z</time>
      </trkpt>
      <trkpt lat="47.954279975965619" lon="9.694523960351944">
        <ele>562.50999999999999</ele>
        <time>2018-09-19T08:46:01Z</time>
      </trkpt>
      <trkpt lat="47.954414002597332" lon="9.694278035312891">
        <ele>562.50999999999999</ele>
        <time>2018-09-19T08:46:02Z</time>
      </trkpt>
      <trkpt lat="47.95458298176527" lon="9.694080976769328">
        <ele>562.50999999999999</ele>
        <time>2018-09-19T08:46:03Z</time>
      </trkpt>
      <trkpt lat="47.954763025045395" lon="9.693872015923262">
        <ele>562.50999999999999</ele>
        <time>2018-09-19T08:46:04Z</time>
      </trkpt>
      <trkpt lat="47.956347959116101" lon="9.692029003053904">
        <ele>562.02999999999997</ele>
        <time>2018-09-19T08:46:12Z</time>
      </trkpt>
      <trkpt lat="47.957771038636565" lon="9.69055999070406">
        <ele>562.02999999999997</ele>
        <time>2018-09-19T08:46:19Z</time>
      </trkpt>
      <trkpt lat="47.95911599881947" lon="9.688886040821672">
        <ele>561.54999999999995</ele>
        <time>2018-09-19T08:46:26Z</time>
      </trkpt>
      <trkpt lat="47.961912034079432" lon="9.684705985710025">
        <ele>563.47000000000003</ele>
        <time>2018-09-19T08:46:42Z</time>
      </trkpt>
      <trkpt lat="47.963678017258644" lon="9.683007979765534">
        <ele>562.99000000000001</ele>
        <time>2018-09-19T08:46:51Z</time>
      </trkpt>
      <trkpt lat="47.964217979460955" lon="9.682548986747861">
        <ele>562.50999999999999</ele>
        <time>2018-09-19T08:46:54Z</time>
      </trkpt>
      <trkpt lat="47.964377989992499" lon="9.682337008416653">
        <ele>562.50999999999999</ele>
        <time>2018-09-19T08:46:55Z</time>
      </trkpt>
      <trkpt lat="47.964531965553761" lon="9.682113965973258">
        <ele>562.50999999999999</ele>
        <time>2018-09-19T08:46:56Z</time>
      </trkpt>
      <trkpt lat="47.96465802937746" lon="9.681861000135541">
        <ele>562.50999999999999</ele>
        <time>2018-09-19T08:46:57Z</time>
      </trkpt>
      <trkpt lat="47.964774034917355" lon="9.681618008762598">
        <ele>562.50999999999999</ele>
        <time>2018-09-19T08:46:58Z</time>
      </trkpt>
      <trkpt lat="47.965900981798768" lon="9.679320026189089">
        <ele>562.02999999999997</ele>
        <time>2018-09-19T08:47:08Z</time>
      </trkpt>
      <trkpt lat="47.967125996947289" lon="9.677481958642602">
        <ele>563.95000000000005</ele>
        <time>2018-09-19T08:47:15Z</time>
      </trkpt>
      <trkpt lat="47.96897697262466" lon="9.675739025697112">
        <ele>568.27999999999997</ele>
        <time>2018-09-19T08:47:24Z</time>
      </trkpt>
      <trkpt lat="47.970066033303738" lon="9.67522001825273">
        <ele>569.24000000000001</ele>
        <time>2018-09-19T08:47:29Z</time>
      </trkpt>
      <trkpt lat="47.970280023291707" lon="9.675207026302815">
        <ele>569.72000000000003</ele>
        <time>2018-09-19T08:47:30Z</time>
      </trkpt>
      <trkpt lat="47.970493007451296" lon="9.675228986889124">
        <ele>570.20000000000005</ele>
        <time>2018-09-19T08:47:31Z</time>
      </trkpt>
      <trkpt lat="47.970706997439265" lon="9.675251031294465">
        <ele>570.67999999999995</ele>
        <time>2018-09-19T08:47:32Z</time>
      </trkpt>
      <trkpt lat="47.970920987427235" lon="9.675301993265748">
        <ele>570.67999999999995</ele>
        <time>2018-09-19T08:47:33Z</time>
      </trkpt>
      <trkpt lat="47.971131959930062" lon="9.675396038219333">
        <ele>570.67999999999995</ele>
        <time>2018-09-19T08:47:34Z</time>
      </trkpt>
      <trkpt lat="47.971347039565444" lon="9.675491005182266">
        <ele>570.67999999999995</ele>
        <time>2018-09-19T08:47:35Z</time>
      </trkpt>
      <trkpt lat="47.971561029553413" lon="9.675642969086766">
        <ele>570.67999999999995</ele>
        <time>2018-09-19T08:47:36Z</time>
      </trkpt>
      <trkpt lat="47.971767978742719" lon="9.675816977396607">
        <ele>570.67999999999995</ele>
        <time>2018-09-19T08:47:37Z</time>
      </trkpt>
      <trkpt lat="47.97241598367691" lon="9.676282005384564">
        <ele>570.20000000000005</ele>
        <time>2018-09-19T08:47:40Z</time>
      </trkpt>
      <trkpt lat="47.972631985321641" lon="9.676382001489401">
        <ele>569.72000000000003</ele>
        <time>2018-09-19T08:47:41Z</time>
      </trkpt>
      <trkpt lat="47.972840024158359" lon="9.676451990380883">
        <ele>569.72000000000003</ele>
        <time>2018-09-19T08:47:42Z</time>
      </trkpt>
      <trkpt lat="47.973056025803089" lon="9.676472023129463">
        <ele>569.24000000000001</ele>
        <time>2018-09-19T08:47:43Z</time>
      </trkpt>
      <trkpt lat="47.973270015791059" lon="9.676492977887392">
        <ele>569.24000000000001</ele>
        <time>2018-09-19T08:47:44Z</time>
      </trkpt>
      <trkpt lat="47.97348702326417" lon="9.676500018686056">
        <ele>568.27999999999997</ele>
        <time>2018-09-19T08:47:45Z</time>
      </trkpt>
      <trkpt lat="47.973708976060152" lon="9.676460959017277">
        <ele>567.79999999999995</ele>
        <time>2018-09-19T08:47:46Z</time>
      </trkpt>
      <trkpt lat="47.975312015041709" lon="9.676335984840989">
        <ele>559.62</ele>
        <time>2018-09-19T08:47:54Z</time>
      </trkpt>
      <trkpt lat="47.975936969742179" lon="9.676501024514437">
        <ele>554.82000000000005</ele>
        <time>2018-09-19T08:48:00Z</time>
      </trkpt>
      <trkpt lat="47.976120030507445" lon="9.676557015627623">
        <ele>553.38</ele>
        <time>2018-09-19T08:48:02Z</time>
      </trkpt>
      <trkpt lat="47.976867025718093" lon="9.677271991968155">
        <ele>552.40999999999997</ele>
        <time>2018-09-19T08:48:10Z</time>
      </trkpt>
      <trkpt lat="47.977483011782169" lon="9.677827041596174">
        <ele>554.82000000000005</ele>
        <time>2018-09-19T08:48:15Z</time>
      </trkpt>
      <trkpt lat="47.977617038413882" lon="9.677860988304019">
        <ele>555.77999999999997</ele>
        <time>2018-09-19T08:48:16Z</time>
      </trkpt>
      <trkpt lat="47.977774031460285" lon="9.677860988304019">
        <ele>556.25999999999999</ele>
        <time>2018-09-19T08:48:17Z</time>
      </trkpt>
      <trkpt lat="47.977922977879643" lon="9.677860988304019">
        <ele>556.74000000000001</ele>
        <time>2018-09-19T08:48:18Z</time>
      </trkpt>
      <trkpt lat="47.978074019774795" lon="9.677860988304019">
        <ele>557.22000000000003</ele>
        <time>2018-09-19T08:48:19Z</time>
      </trkpt>
      <trkpt lat="47.978221960365772" lon="9.677827041596174">
        <ele>557.22000000000003</ele>
        <time>2018-09-19T08:48:20Z</time>
      </trkpt>
      <trkpt lat="47.978360010311007" lon="9.677757974714041">
        <ele>557.70000000000005</ele>
        <time>2018-09-19T08:48:21Z</time>
      </trkpt>
      <trkpt lat="47.97849303111434" lon="9.6776910033077">
        <ele>558.17999999999995</ele>
        <time>2018-09-19T08:48:22Z</time>
      </trkpt>
      <trkpt lat="47.978610964491963" lon="9.677606010809541">
        <ele>558.17999999999995</ele>
        <time>2018-09-19T08:48:23Z</time>
      </trkpt>
      <trkpt lat="47.978715989738703" lon="9.677513977512717">
        <ele>558.65999999999997</ele>
        <time>2018-09-19T08:48:24Z</time>
      </trkpt>
      <trkpt lat="47.978821014985442" lon="9.677422028034926">
        <ele>559.13999999999999</ele>
        <time>2018-09-19T08:48:25Z</time>
      </trkpt>
      <trkpt lat="47.97980597242713" lon="9.676499012857676">
        <ele>560.59000000000003</ele>
        <time>2018-09-19T08:48:33Z</time>
      </trkpt>
      <trkpt lat="47.980928979814053" lon="9.675593012943864">
        <ele>559.13999999999999</ele>
        <time>2018-09-19T08:48:39Z</time>
      </trkpt>
      <trkpt lat="47.982928985729814" lon="9.674457013607025">
        <ele>555.29999999999995</ele>
        <time>2018-09-19T08:48:47Z</time>
      </trkpt>
      <trkpt lat="47.985313972458243" lon="9.673792999237776">
        <ele>553.38</ele>
        <time>2018-09-19T08:48:56Z</time>
      </trkpt>
      <trkpt lat="47.986733028665185" lon="9.67392903752625">
        <ele>554.34000000000003</ele>
        <time>2018-09-19T08:49:02Z</time>
      </trkpt>
      <trkpt lat="47.987568033859134" lon="9.673831975087524">
        <ele>554.82000000000005</ele>
        <time>2018-09-19T08:49:06Z</time>
      </trkpt>
      <trkpt lat="47.987770037725568" lon="9.673731978982687">
        <ele>554.82000000000005</ele>
        <time>2018-09-19T08:49:07Z</time>
      </trkpt>
      <trkpt lat="47.987975981086493" lon="9.673618990927935">
        <ele>554.34000000000003</ele>
        <time>2018-09-19T08:49:08Z</time>
      </trkpt>
      <trkpt lat="47.988172033801675" lon="9.673470966517925">
        <ele>553.86000000000001</ele>
        <time>2018-09-19T08:49:09Z</time>
      </trkpt>
      <trkpt lat="47.988362973555923" lon="9.673291007056832">
        <ele>553.38</ele>
        <time>2018-09-19T08:49:10Z</time>
      </trkpt>
      <trkpt lat="47.988533964380622" lon="9.67307198792696">
        <ele>552.89999999999998</ele>
        <time>2018-09-19T08:49:11Z</time>
      </trkpt>
      <trkpt lat="47.988694980740547" lon="9.672826984897256">
        <ele>552.40999999999997</ele>
        <time>2018-09-19T08:49:12Z</time>
      </trkpt>
      <trkpt lat="47.988859014585614" lon="9.67257896438241">
        <ele>551.92999999999995</ele>
        <time>2018-09-19T08:49:13Z</time>
      </trkpt>
      <trkpt lat="47.98902103677392" lon="9.672333961352706">
        <ele>551.92999999999995</ele>
        <time>2018-09-19T08:49:14Z</time>
      </trkpt>
      <trkpt lat="47.98990398645401" lon="9.670732012018561">
        <ele>550.97000000000003</ele>
        <time>2018-09-19T08:49:21Z</time>
      </trkpt>
      <trkpt lat="47.990917023271322" lon="9.668908026069403">
        <ele>555.77999999999997</ele>
        <time>2018-09-19T08:49:31Z</time>
      </trkpt>
      <trkpt lat="47.992118988186121" lon="9.666759995743632">
        <ele>561.54999999999995</ele>
        <time>2018-09-19T08:49:43Z</time>
      </trkpt>
      <trkpt lat="47.992822984233499" lon="9.665470020845532">
        <ele>563.47000000000003</ele>
        <time>2018-09-19T08:49:50Z</time>
      </trkpt>
      <trkpt lat="47.99293396063149" lon="9.665358038619161">
        <ele>562.99000000000001</ele>
        <time>2018-09-19T08:49:51Z</time>
      </trkpt>
      <trkpt lat="47.993052983656526" lon="9.665286038070917">
        <ele>562.99000000000001</ele>
        <time>2018-09-19T08:49:52Z</time>
      </trkpt>
      <trkpt lat="47.993174018338323" lon="9.665257036685944">
        <ele>562.50999999999999</ele>
        <time>2018-09-19T08:49:53Z</time>
      </trkpt>
      <trkpt lat="47.993296980857849" lon="9.665243960916996">
        <ele>562.02999999999997</ele>
        <time>2018-09-19T08:49:54Z</time>
      </trkpt>
      <trkpt lat="47.993411980569363" lon="9.665298024192452">
        <ele>561.54999999999995</ele>
        <time>2018-09-19T08:49:55Z</time>
      </trkpt>
      <trkpt lat="47.993524968624115" lon="9.665355021134019">
        <ele>561.07000000000005</ele>
        <time>2018-09-19T08:49:56Z</time>
      </trkpt>
      <trkpt lat="47.993646003305912" lon="9.665415035560727">
        <ele>560.59000000000003</ele>
        <time>2018-09-19T08:49:57Z</time>
      </trkpt>
      <trkpt lat="47.993712974712253" lon="9.665524000301957">
        <ele>560.11000000000001</ele>
        <time>2018-09-19T08:49:58Z</time>
      </trkpt>
      <trkpt lat="47.993785981088877" lon="9.665642017498612">
        <ele>560.11000000000001</ele>
        <time>2018-09-19T08:49:59Z</time>
      </trkpt>
      <trkpt lat="47.993845995515585" lon="9.665781995281577">
        <ele>559.62</ele>
        <time>2018-09-19T08:50:00Z</time>
      </trkpt>
      <trkpt lat="47.993894023820758" lon="9.665933959186077">
        <ele>559.13999999999999</ele>
        <time>2018-09-19T08:50:01Z</time>
      </trkpt>
      <trkpt lat="47.994079012423754" lon="9.666468976065517">
        <ele>558.17999999999995</ele>
        <time>2018-09-19T08:50:05Z</time>
      </trkpt>
      <trkpt lat="47.994117988273501" lon="9.666574001312256">
        <ele>558.17999999999995</ele>
        <time>2018-09-19T08:50:06Z</time>
      </trkpt>
      <trkpt lat="47.994196023792028" lon="9.666646001860499">
        <ele>558.17999999999995</ele>
        <time>2018-09-19T08:50:07Z</time>
      </trkpt>
      <trkpt lat="47.994281016290188" lon="9.666724037379026">
        <ele>557.70000000000005</ele>
        <time>2018-09-19T08:50:08Z</time>
      </trkpt>
      <trkpt lat="47.994367014616728" lon="9.666804000735283">
        <ele>557.70000000000005</ele>
        <time>2018-09-19T08:50:09Z</time>
      </trkpt>
      <trkpt lat="47.994432980194688" lon="9.666827972978354">
        <ele>557.70000000000005</ele>
        <time>2018-09-19T08:50:10Z</time>
      </trkpt>
      <trkpt lat="47.994529036805034" lon="9.66681900434196">
        <ele>557.22000000000003</ele>
        <time>2018-09-19T08:50:11Z</time>
      </trkpt>
      <trkpt lat="47.994612017646432" lon="9.666810035705566">
        <ele>557.70000000000005</ele>
        <time>2018-09-19T08:50:12Z</time>
      </trkpt>
      <trkpt lat="47.994704972952604" lon="9.666739962995052">
        <ele>557.70000000000005</ele>
        <time>2018-09-19T08:50:13Z</time>
      </trkpt>
      <trkpt lat="47.994806980714202" lon="9.666664022952318">
        <ele>558.17999999999995</ele>
        <time>2018-09-19T08:50:14Z</time>
      </trkpt>
      <trkpt lat="47.995977010577917" lon="9.665397014468908">
        <ele>557.22000000000003</ele>
        <time>2018-09-19T08:50:26Z</time>
      </trkpt>
      <trkpt lat="47.99757300876081" lon="9.663632037118077">
        <ele>555.77999999999997</ele>
        <time>2018-09-19T08:50:43Z</time>
      </trkpt>
      <trkpt lat="47.997842989861965" lon="9.663330037146807">
        <ele>555.29999999999995</ele>
        <time>2018-09-19T08:50:47Z</time>
      </trkpt>
      <trkpt lat="47.997883977368474" lon="9.663285026326776">
        <ele>555.29999999999995</ele>
        <time>2018-09-19T08:50:48Z</time>
      </trkpt>
      <trkpt lat="47.997965030372143" lon="9.663292989134789">
        <ele>555.29999999999995</ele>
        <time>2018-09-19T08:50:49Z</time>
      </trkpt>
      <trkpt lat="47.99802403897047" lon="9.663313021883369">
        <ele>555.29999999999995</ele>
        <time>2018-09-19T08:50:50Z</time>
      </trkpt>
      <trkpt lat="47.998114982619882" lon="9.66336096636951">
        <ele>555.29999999999995</ele>
        <time>2018-09-19T08:50:51Z</time>
      </trkpt>
      <trkpt lat="47.998158987611532" lon="9.663474960252643">
        <ele>555.29999999999995</ele>
        <time>2018-09-19T08:50:52Z</time>
      </trkpt>
      <trkpt lat="47.998213972896338" lon="9.6636170335114">
        <ele>555.29999999999995</ele>
        <time>2018-09-19T08:50:53Z</time>
      </trkpt>
      <trkpt lat="47.998816967010498" lon="9.664931986480951">
        <ele>554.82000000000005</ele>
        <time>2018-09-19T08:51:00Z</time>
      </trkpt>
      <trkpt lat="47.999942991882563" lon="9.666663017123938">
        <ele>556.25999999999999</ele>
        <time>2018-09-19T08:51:09Z</time>
      </trkpt>
      <trkpt lat="48.001006990671158" lon="9.6681949775666">
        <ele>556.74000000000001</ele>
        <time>2018-09-19T08:51:18Z</time>
      </trkpt>
      <trkpt lat="48.002165034413338" lon="9.669564999639988">
        <ele>560.11000000000001</ele>
        <time>2018-09-19T08:51:26Z</time>
      </trkpt>
      <trkpt lat="48.003648966550827" lon="9.670418025925756">
        <ele>565.38999999999999</ele>
        <time>2018-09-19T08:51:34Z</time>
      </trkpt>
      <trkpt lat="48.006008975207806" lon="9.671134008094668">
        <ele>568.75999999999999</ele>
        <time>2018-09-19T08:51:45Z</time>
      </trkpt>
      <trkpt lat="48.008212996646762" lon="9.670981960371137">
        <ele>576.45000000000005</ele>
        <time>2018-09-19T08:51:55Z</time>
      </trkpt>
      <trkpt lat="48.009708998724818" lon="9.670404028147459">
        <ele>577.40999999999997</ele>
        <time>2018-09-19T08:52:03Z</time>
      </trkpt>
      <trkpt lat="48.010419029742479" lon="9.669657032936811">
        <ele>575.97000000000003</ele>
        <time>2018-09-19T08:52:08Z</time>
      </trkpt>
      <trkpt lat="48.010530006140471" lon="9.669497022405267">
        <ele>575.97000000000003</ele>
        <time>2018-09-19T08:52:09Z</time>
      </trkpt>
      <trkpt lat="48.010742990300059" lon="9.668994024395943">
        <ele>575.49000000000001</ele>
        <time>2018-09-19T08:52:12Z</time>
      </trkpt>
      <trkpt lat="48.010797975584865" lon="9.668863015249372">
        <ele>575.49000000000001</ele>
        <time>2018-09-19T08:52:13Z</time>
      </trkpt>
      <trkpt lat="48.01100299693644" lon="9.668748015537858">
        <ele>575.49000000000001</ele>
        <time>2018-09-19T08:52:14Z</time>
      </trkpt>
      <trkpt lat="48.011084971949458" lon="9.66879403218627">
        <ele>575.49000000000001</ele>
        <time>2018-09-19T08:52:15Z</time>
      </trkpt>
      <trkpt lat="48.011193014681339" lon="9.668853962793946">
        <ele>575.00999999999999</ele>
        <time>2018-09-19T08:52:16Z</time>
      </trkpt>
      <trkpt lat="48.01132301799953" lon="9.66892696917057">
        <ele>575.00999999999999</ele>
        <time>2018-09-19T08:52:17Z</time>
      </trkpt>
      <trkpt lat="48.011470036581159" lon="9.66900902800262">
        <ele>575.00999999999999</ele>
        <time>2018-09-19T08:52:18Z</time>
      </trkpt>
      <trkpt lat="48.012678036466241" lon="9.669342041015625">
        <ele>575.49000000000001</ele>
        <time>2018-09-19T08:52:24Z</time>
      </trkpt>
      <trkpt lat="48.014413006603718" lon="9.669149005785584">
        <ele>578.85000000000002</ele>
        <time>2018-09-19T08:52:31Z</time>
      </trkpt>
      <trkpt lat="48.016121992841363" lon="9.669514959678054">
        <ele>583.65999999999997</ele>
        <time>2018-09-19T08:52:38Z</time>
      </trkpt>
      <trkpt lat="48.017387995496392" lon="9.67040603980422">
        <ele>586.05999999999995</ele>
        <time>2018-09-19T08:52:44Z</time>
      </trkpt>
      <trkpt lat="48.018690962344408" lon="9.672056017443538">
        <ele>588.46000000000004</ele>
        <time>2018-09-19T08:52:51Z</time>
      </trkpt>
      <trkpt lat="48.019878007471561" lon="9.673345992341638">
        <ele>590.38999999999999</ele>
        <time>2018-09-19T08:52:57Z</time>
      </trkpt>
      <trkpt lat="48.021577019244432" lon="9.674392975866795">
        <ele>592.78999999999996</ele>
        <time>2018-09-19T08:53:04Z</time>
      </trkpt>
      <trkpt lat="48.021975997835398" lon="9.674805030226708">
        <ele>594.23000000000002</ele>
        <time>2018-09-19T08:53:06Z</time>
      </trkpt>
      <trkpt lat="48.022147994488478" lon="9.675046009942889">
        <ele>595.66999999999996</ele>
        <time>2018-09-19T08:53:07Z</time>
      </trkpt>
      <trkpt lat="48.022318985313177" lon="9.67528497800231">
        <ele>596.63999999999999</ele>
        <time>2018-09-19T08:53:08Z</time>
      </trkpt>
      <trkpt lat="48.02245301194489" lon="9.675570968538523">
        <ele>598.08000000000004</ele>
        <time>2018-09-19T08:53:09Z</time>
      </trkpt>
      <trkpt lat="48.022584021091461" lon="9.675861988216639">
        <ele>599.03999999999996</ele>
        <time>2018-09-19T08:53:10Z</time>
      </trkpt>
      <trkpt lat="48.023295979946852" lon="9.677288001403213">
        <ele>601.44000000000005</ele>
        <time>2018-09-19T08:53:16Z</time>
      </trkpt>
      <trkpt lat="48.023426989093423" lon="9.677453963086009">
        <ele>601.44000000000005</ele>
        <time>2018-09-19T08:53:17Z</time>
      </trkpt>
      <trkpt lat="48.023559004068375" lon="9.677599975839257">
        <ele>601.44000000000005</ele>
        <time>2018-09-19T08:53:18Z</time>
      </trkpt>
      <trkpt lat="48.023693030700088" lon="9.677725033834577">
        <ele>600.96000000000004</ele>
        <time>2018-09-19T08:53:19Z</time>
      </trkpt>
      <trkpt lat="48.023812975734472" lon="9.677837016060948">
        <ele>600.96000000000004</ele>
        <time>2018-09-19T08:53:20Z</time>
      </trkpt>
      <trkpt lat="48.024212038144469" lon="9.678027033805847">
        <ele>599.03999999999996</ele>
        <time>2018-09-19T08:53:24Z</time>
      </trkpt>
      <trkpt lat="48.024263000115752" lon="9.678042037412524">
        <ele>599.03999999999996</ele>
        <time>2018-09-19T08:53:25Z</time>
      </trkpt>
      <trkpt lat="48.024300970137119" lon="9.678053017705679">
        <ele>598.55999999999995</ele>
        <time>2018-09-19T08:53:26Z</time>
      </trkpt>
      <trkpt lat="48.024376993998885" lon="9.677997026592493">
        <ele>598.08000000000004</ele>
        <time>2018-09-19T08:53:27Z</time>
      </trkpt>
      <trkpt lat="48.024381017312407" lon="9.677895018830895">
        <ele>597.60000000000002</ele>
        <time>2018-09-19T08:53:28Z</time>
      </trkpt>
      <trkpt lat="48.02438797429204" lon="9.677739031612873">
        <ele>597.60000000000002</ele>
        <time>2018-09-19T08:53:29Z</time>
      </trkpt>
      <trkpt lat="48.024395015090704" lon="9.677559994161129">
        <ele>597.12</ele>
        <time>2018-09-19T08:53:30Z</time>
      </trkpt>
      <trkpt lat="48.024395015090704" lon="9.67732303775847">
        <ele>597.12</ele>
        <time>2018-09-19T08:53:31Z</time>
      </trkpt>
      <trkpt lat="48.024274986237288" lon="9.675486981868744">
        <ele>597.60000000000002</ele>
        <time>2018-09-19T08:53:37Z</time>
      </trkpt>
      <trkpt lat="48.023853041231632" lon="9.67193003743887">
        <ele>595.19000000000005</ele>
        <time>2018-09-19T08:53:46Z</time>
      </trkpt>
      <trkpt lat="48.023701999336481" lon="9.66870903968811">
        <ele>589.42999999999995</ele>
        <time>2018-09-19T08:53:54Z</time>
      </trkpt>
      <trkpt lat="48.024124028161168" lon="9.665983999148011">
        <ele>585.10000000000002</ele>
        <time>2018-09-19T08:54:01Z</time>
      </trkpt>
      <trkpt lat="48.024653010070324" lon="9.662595028057694">
        <ele>586.05999999999995</ele>
        <time>2018-09-19T08:54:10Z</time>
      </trkpt>
      <trkpt lat="48.024627026170492" lon="9.661472020670772">
        <ele>587.5</ele>
        <time>2018-09-19T08:54:13Z</time>
      </trkpt>
      <trkpt lat="48.024595007300377" lon="9.661093996837735">
        <ele>587.98000000000002</ele>
        <time>2018-09-19T08:54:14Z</time>
      </trkpt>
      <trkpt lat="48.02453801035881" lon="9.660716978833079">
        <ele>588.46000000000004</ele>
        <time>2018-09-19T08:54:15Z</time>
      </trkpt>
      <trkpt lat="48.024465003982186" lon="9.660327974706888">
        <ele>588.95000000000005</ele>
        <time>2018-09-19T08:54:16Z</time>
      </trkpt>
      <trkpt lat="48.024341035634279" lon="9.659988004714251">
        <ele>589.42999999999995</ele>
        <time>2018-09-19T08:54:17Z</time>
      </trkpt>
      <trkpt lat="48.02421698346734" lon="9.659648034721613">
        <ele>589.90999999999997</ele>
        <time>2018-09-19T08:54:18Z</time>
      </trkpt>
      <trkpt lat="48.024094020947814" lon="9.659307980909944">
        <ele>590.38999999999999</ele>
        <time>2018-09-19T08:54:19Z</time>
      </trkpt>
      <trkpt lat="48.023637961596251" lon="9.657929996028543">
        <ele>592.30999999999995</ele>
        <time>2018-09-19T08:54:23Z</time>
      </trkpt>
      <trkpt lat="48.023564033210278" lon="9.65755901299417">
        <ele>592.30999999999995</ele>
        <time>2018-09-19T08:54:24Z</time>
      </trkpt>
      <trkpt lat="48.023311989381909" lon="9.654026040807366">
        <ele>596.14999999999998</ele>
        <time>2018-09-19T08:54:33Z</time>
      </trkpt>
      <trkpt lat="48.023619018495083" lon="9.651716994121671">
        <ele>596.14999999999998</ele>
        <time>2018-09-19T08:54:39Z</time>
      </trkpt>
      <trkpt lat="48.023739969357848" lon="9.649693015962839">
        <ele>595.19000000000005</ele>
        <time>2018-09-19T08:54:45Z</time>
      </trkpt>
      <trkpt lat="48.023510975763202" lon="9.648003978654742">
        <ele>593.75</ele>
        <time>2018-09-19T08:54:51Z</time>
      </trkpt>
      <trkpt lat="48.023399999365211" lon="9.647296965122223">
        <ele>592.78999999999996</ele>
        <time>2018-09-19T08:54:55Z</time>
      </trkpt>
      <trkpt lat="48.02337896078825" lon="9.647166961804032">
        <ele>592.78999999999996</ele>
        <time>2018-09-19T08:54:56Z</time>
      </trkpt>
      <trkpt lat="48.023362029343843" lon="9.647056991234422">
        <ele>592.78999999999996</ele>
        <time>2018-09-19T08:54:57Z</time>
      </trkpt>
      <trkpt lat="48.023434029892087" lon="9.646870996803045">
        <ele>592.78999999999996</ele>
        <time>2018-09-19T08:54:58Z</time>
      </trkpt>
      <trkpt lat="48.023498989641666" lon="9.646821040660143">
        <ele>592.78999999999996</ele>
        <time>2018-09-19T08:54:59Z</time>
      </trkpt>
      <trkpt lat="48.023582976311445" lon="9.646757002919912">
        <ele>592.78999999999996</ele>
        <time>2018-09-19T08:55:00Z</time>
      </trkpt>
      <trkpt lat="48.023681966587901" lon="9.646681984886527">
        <ele>592.78999999999996</ele>
        <time>2018-09-19T08:55:01Z</time>
      </trkpt>
      <trkpt lat="48.024600958451629" lon="9.645841028541327">
        <ele>591.35000000000002</ele>
        <time>2018-09-19T08:55:08Z</time>
      </trkpt>
      <trkpt lat="48.026021020486951" lon="9.644563961774111">
        <ele>589.42999999999995</ele>
        <time>2018-09-19T08:55:18Z</time>
      </trkpt>
      <trkpt lat="48.027623975649476" lon="9.643097966909409">
        <ele>588.95000000000005</ele>
        <time>2018-09-19T08:55:31Z</time>
      </trkpt>
      <trkpt lat="48.028803979977965" lon="9.642040003091097">
        <ele>586.05999999999995</ele>
        <time>2018-09-19T08:55:42Z</time>
      </trkpt>
      <trkpt lat="48.029822967946529" lon="9.641118999570608">
        <ele>586.53999999999996</ele>
        <time>2018-09-19T08:55:51Z</time>
      </trkpt>
      <trkpt lat="48.031233977526426" lon="9.63983497582376">
        <ele>583.17999999999995</ele>
        <time>2018-09-19T08:56:01Z</time>
      </trkpt>
      <trkpt lat="48.032611040398479" lon="9.638603003695607">
        <ele>581.73000000000002</ele>
        <time>2018-09-19T08:56:10Z</time>
      </trkpt>
      <trkpt lat="48.033660035580397" lon="9.637649981305003">
        <ele>580.76999999999998</ele>
        <time>2018-09-19T08:56:15Z</time>
      </trkpt>
      <trkpt lat="48.035769006237388" lon="9.635728010907769">
        <ele>580.28999999999996</ele>
        <time>2018-09-19T08:56:23Z</time>
      </trkpt>
      <trkpt lat="48.038047039881349" lon="9.633893966674805">
        <ele>579.33000000000004</ele>
        <time>2018-09-19T08:56:32Z</time>
      </trkpt>
      <trkpt lat="48.041441040113568" lon="9.631401021033526">
        <ele>580.28999999999996</ele>
        <time>2018-09-19T08:56:45Z</time>
      </trkpt>
      <trkpt lat="48.043776992708445" lon="9.629451977089047">
        <ele>581.25</ele>
        <time>2018-09-19T08:56:54Z</time>
      </trkpt>
      <trkpt lat="48.044722974300385" lon="9.627853967249394">
        <ele>580.76999999999998</ele>
        <time>2018-09-19T08:56:59Z</time>
      </trkpt>
      <trkpt lat="48.046048991382122" lon="9.62563200853765">
        <ele>579.80999999999995</ele>
        <time>2018-09-19T08:57:06Z</time>
      </trkpt>
      <trkpt lat="48.047358999028802" lon="9.624631963670254">
        <ele>577.88999999999999</ele>
        <time>2018-09-19T08:57:11Z</time>
      </trkpt>
      <trkpt lat="48.050139024853706" lon="9.623147025704384">
        <ele>577.88999999999999</ele>
        <time>2018-09-19T08:57:21Z</time>
      </trkpt>
      <trkpt lat="48.051423970609903" lon="9.62189401499927">
        <ele>577.88999999999999</ele>
        <time>2018-09-19T08:57:27Z</time>
      </trkpt>
      <trkpt lat="48.052247995510697" lon="9.619940025731921">
        <ele>578.37</ele>
        <time>2018-09-19T08:57:33Z</time>
      </trkpt>
      <trkpt lat="48.052481012418866" lon="9.618012020364404">
        <ele>578.85000000000002</ele>
        <time>2018-09-19T08:57:38Z</time>
      </trkpt>
      <trkpt lat="48.052251012995839" lon="9.615000989288092">
        <ele>579.80999999999995</ele>
        <time>2018-09-19T08:57:45Z</time>
      </trkpt>
      <trkpt lat="48.051603008061647" lon="9.608659995719791">
        <ele>587.5</ele>
        <time>2018-09-19T08:58:00Z</time>
      </trkpt>
      <trkpt lat="48.0515450052917" lon="9.605054017156363">
        <ele>598.08000000000004</ele>
        <time>2018-09-19T08:58:09Z</time>
      </trkpt>
      <trkpt lat="48.05180199444294" lon="9.602049021050334">
        <ele>605.76999999999998</ele>
        <time>2018-09-19T08:58:18Z</time>
      </trkpt>
      <trkpt lat="48.052430972456932" lon="9.599121976643801">
        <ele>614.89999999999998</ele>
        <time>2018-09-19T08:58:27Z</time>
      </trkpt>
      <trkpt lat="48.053513998165727" lon="9.595974991098046">
        <ele>616.82000000000005</ele>
        <time>2018-09-19T08:58:37Z</time>
      </trkpt>
      <trkpt lat="48.054643040522933" lon="9.594025025144219">
        <ele>611.05999999999995</ele>
        <time>2018-09-19T08:58:44Z</time>
      </trkpt>
      <trkpt lat="48.056424027308822" lon="9.592428021132946">
        <ele>603.36000000000001</ele>
        <time>2018-09-19T08:58:52Z</time>
      </trkpt>
      <trkpt lat="48.058423027396202" lon="9.591482039541006">
        <ele>598.55999999999995</ele>
        <time>2018-09-19T08:59:00Z</time>
      </trkpt>
      <trkpt lat="48.059970997273922" lon="9.590208996087313">
        <ele>594.23000000000002</ele>
        <time>2018-09-19T08:59:07Z</time>
      </trkpt>
      <trkpt lat="48.061115965247154" lon="9.588362965732813">
        <ele>591.83000000000004</ele>
        <time>2018-09-19T08:59:14Z</time>
      </trkpt>
      <trkpt lat="48.061873018741608" lon="9.586136983707547">
        <ele>593.75</ele>
        <time>2018-09-19T08:59:21Z</time>
      </trkpt>
      <trkpt lat="48.062851019203663" lon="9.58264198154211">
        <ele>593.26999999999998</ele>
        <time>2018-09-19T08:59:32Z</time>
      </trkpt>
      <trkpt lat="48.0638990085572" lon="9.579671015962958">
        <ele>585.58000000000004</ele>
        <time>2018-09-19T08:59:40Z</time>
      </trkpt>
      <trkpt lat="48.065236005932093" lon="9.577665980905294">
        <ele>582.22000000000003</ele>
        <time>2018-09-19T08:59:47Z</time>
      </trkpt>
      <trkpt lat="48.066983968019485" lon="9.574259994551539">
        <ele>580.76999999999998</ele>
        <time>2018-09-19T08:59:57Z</time>
      </trkpt>
      <trkpt lat="48.069152031093836" lon="9.570031994953752">
        <ele>578.85000000000002</ele>
        <time>2018-09-19T09:00:09Z</time>
      </trkpt>
      <trkpt lat="48.071717983111739" lon="9.565036967396736">
        <ele>577.88999999999999</ele>
        <time>2018-09-19T09:00:23Z</time>
      </trkpt>
      <trkpt lat="48.07345999404788" lon="9.561689989641309">
        <ele>577.88999999999999</ele>
        <time>2018-09-19T09:00:33Z</time>
      </trkpt>
      <trkpt lat="48.074431037530303" lon="9.560373025014997">
        <ele>577.88999999999999</ele>
        <time>2018-09-19T09:00:39Z</time>
      </trkpt>
      <trkpt lat="48.075249027460814" lon="9.559653019532561">
        <ele>577.88999999999999</ele>
        <time>2018-09-19T09:00:45Z</time>
      </trkpt>
      <trkpt lat="48.076474964618683" lon="9.559052959084511">
        <ele>579.33000000000004</ele>
        <time>2018-09-19T09:00:55Z</time>
      </trkpt>
      <trkpt lat="48.077629990875721" lon="9.558722963556647">
        <ele>582.22000000000003</ele>
        <time>2018-09-19T09:01:05Z</time>
      </trkpt>
      <trkpt lat="48.078648978844285" lon="9.558482989668846">
        <ele>584.13999999999999</ele>
        <time>2018-09-19T09:01:12Z</time>
      </trkpt>
      <trkpt lat="48.080081027001143" lon="9.557926012203097">
        <ele>584.13999999999999</ele>
        <time>2018-09-19T09:01:19Z</time>
      </trkpt>
      <trkpt lat="48.082004003226757" lon="9.556573005393148">
        <ele>583.65999999999997</ele>
        <time>2018-09-19T09:01:27Z</time>
      </trkpt>
      <trkpt lat="48.083765041083097" lon="9.554403014481068">
        <ele>584.13999999999999</ele>
        <time>2018-09-19T09:01:35Z</time>
      </trkpt>
      <trkpt lat="48.086229991167784" lon="9.551038015633822">
        <ele>583.17999999999995</ele>
        <time>2018-09-19T09:01:47Z</time>
      </trkpt>
      <trkpt lat="48.088410962373018" lon="9.548999033868313">
        <ele>582.22000000000003</ele>
        <time>2018-09-19T09:01:56Z</time>
      </trkpt>
      <trkpt lat="48.09124899096787" lon="9.547003973275423">
        <ele>587.01999999999998</ele>
        <time>2018-09-19T09:02:07Z</time>
      </trkpt>
      <trkpt lat="48.09361201710999" lon="9.544862983748317">
        <ele>596.14999999999998</ele>
        <time>2018-09-19T09:02:17Z</time>
      </trkpt>
      <trkpt lat="48.095084968954325" lon="9.543248964473605">
        <ele>600.48000000000002</ele>
        <time>2018-09-19T09:02:25Z</time>
      </trkpt>
      <trkpt lat="48.096517017111182" lon="9.541836027055979">
        <ele>601.91999999999996</ele>
        <time>2018-09-19T09:02:32Z</time>
      </trkpt>
      <trkpt lat="48.099109958857298" lon="9.539723033085465">
        <ele>602.39999999999998</ele>
        <time>2018-09-19T09:02:43Z</time>
      </trkpt>
      <trkpt lat="48.101653028279543" lon="9.538051011040807">
        <ele>599.03999999999996</ele>
        <time>2018-09-19T09:02:53Z</time>
      </trkpt>
      <trkpt lat="48.105714982375503" lon="9.535557981580496">
        <ele>586.05999999999995</ele>
        <time>2018-09-19T09:03:08Z</time>
      </trkpt>
      <trkpt lat="48.107614992186427" lon="9.534828001633287">
        <ele>578.85000000000002</ele>
        <time>2018-09-19T09:03:15Z</time>
      </trkpt>
      <trkpt lat="48.108675973489881" lon="9.534649970009923">
        <ele>574.03999999999996</ele>
        <time>2018-09-19T09:03:20Z</time>
      </trkpt>
      <trkpt lat="48.109499998390675" lon="9.534608982503414">
        <ele>570.67999999999995</ele>
        <time>2018-09-19T09:03:26Z</time>
      </trkpt>
      <trkpt lat="48.110572965815663" lon="9.534681988880038">
        <ele>568.75999999999999</ele>
        <time>2018-09-19T09:03:35Z</time>
      </trkpt>
      <trkpt lat="48.110913019627333" lon="9.534797994419932">
        <ele>567.32000000000005</ele>
        <time>2018-09-19T09:03:38Z</time>
      </trkpt>
      <trkpt lat="48.111022990196943" lon="9.534859014675021">
        <ele>567.32000000000005</ele>
        <time>2018-09-19T09:03:39Z</time>
      </trkpt>
      <trkpt lat="48.11176504008472" lon="9.535270985215902">
        <ele>565.38999999999999</ele>
        <time>2018-09-19T09:03:46Z</time>
      </trkpt>
      <trkpt lat="48.111863024532795" lon="9.535297974944115">
        <ele>564.90999999999997</ele>
        <time>2018-09-19T09:03:47Z</time>
      </trkpt>
      <trkpt lat="48.111952040344477" lon="9.535312978550792">
        <ele>564.42999999999995</ele>
        <time>2018-09-19T09:03:48Z</time>
      </trkpt>
      <trkpt lat="48.11204600147903" lon="9.535266039893031">
        <ele>563.47000000000003</ele>
        <time>2018-09-19T09:03:49Z</time>
      </trkpt>
      <trkpt lat="48.112151026725769" lon="9.535212982445955">
        <ele>562.50999999999999</ele>
        <time>2018-09-19T09:03:50Z</time>
      </trkpt>
      <trkpt lat="48.1122409645468" lon="9.535126984119415">
        <ele>561.07000000000005</ele>
        <time>2018-09-19T09:03:51Z</time>
      </trkpt>
      <trkpt lat="48.112332997843623" lon="9.535034028813243">
        <ele>559.62</ele>
        <time>2018-09-19T09:03:52Z</time>
      </trkpt>
      <trkpt lat="48.11266802251339" lon="9.534699004143477">
        <ele>557.22000000000003</ele>
        <time>2018-09-19T09:03:56Z</time>
      </trkpt>
      <trkpt lat="48.112744968384504" lon="9.53462197445333">
        <ele>555.77999999999997</ele>
        <time>2018-09-19T09:03:57Z</time>
      </trkpt>
      <trkpt lat="48.112818980589509" lon="9.534548968076706">
        <ele>555.29999999999995</ele>
        <time>2018-09-19T09:03:58Z</time>
      </trkpt>
      <trkpt lat="48.113131038844585" lon="9.534258032217622">
        <ele>553.86000000000001</ele>
        <time>2018-09-19T09:04:02Z</time>
      </trkpt>
      <trkpt lat="48.113213013857603" lon="9.53421201556921">
        <ele>553.38</ele>
        <time>2018-09-19T09:04:03Z</time>
      </trkpt>
      <trkpt lat="48.113393979147077" lon="9.534107996150851">
        <ele>552.40999999999997</ele>
        <time>2018-09-19T09:04:06Z</time>
      </trkpt>
      <trkpt lat="48.113431027159095" lon="9.534087041392922">
        <ele>551.92999999999995</ele>
        <time>2018-09-19T09:04:07Z</time>
      </trkpt>
      <trkpt lat="48.113463968038559" lon="9.534068014472723">
        <ele>551.92999999999995</ele>
        <time>2018-09-19T09:04:08Z</time>
      </trkpt>
      <trkpt lat="48.113492969423532" lon="9.534050999209285">
        <ele>551.45000000000005</ele>
        <time>2018-09-19T09:04:09Z</time>
      </trkpt>
      <trkpt lat="48.113519959151745" lon="9.534035995602608">
        <ele>551.45000000000005</ele>
        <time>2018-09-19T09:04:10Z</time>
      </trkpt>
      <trkpt lat="48.11355097219348" lon="9.534023003652692">
        <ele>550.97000000000003</ele>
        <time>2018-09-19T09:04:11Z</time>
      </trkpt>
      <trkpt lat="48.113599000498652" lon="9.534005988389254">
        <ele>550.97000000000003</ele>
        <time>2018-09-19T09:04:12Z</time>
      </trkpt>
      <trkpt lat="48.113660020753741" lon="9.533984027802944">
        <ele>550.97000000000003</ele>
        <time>2018-09-19T09:04:13Z</time>
      </trkpt>
      <trkpt lat="48.114316994324327" lon="9.533557975664735">
        <ele>550.49000000000001</ele>
        <time>2018-09-19T09:04:20Z</time>
      </trkpt>
      <trkpt lat="48.115563970059156" lon="9.532211003825069">
        <ele>557.70000000000005</ele>
        <time>2018-09-19T09:04:31Z</time>
      </trkpt>
      <trkpt lat="48.11647298745811" lon="9.53113803640008">
        <ele>561.54999999999995</ele>
        <time>2018-09-19T09:04:40Z</time>
      </trkpt>
      <trkpt lat="48.11655999161303" lon="9.530986994504929">
        <ele>562.02999999999997</ele>
        <time>2018-09-19T09:04:41Z</time>
      </trkpt>
      <trkpt lat="48.117099031805992" lon="9.529455034062266">
        <ele>562.50999999999999</ele>
        <time>2018-09-19T09:04:49Z</time>
      </trkpt>
      <trkpt lat="48.117356020957232" lon="9.527103994041681">
        <ele>561.54999999999995</ele>
        <time>2018-09-19T09:04:57Z</time>
      </trkpt>
      <trkpt lat="48.117712000384927" lon="9.524042000994086">
        <ele>560.11000000000001</ele>
        <time>2018-09-19T09:05:06Z</time>
      </trkpt>
      <trkpt lat="48.11780696734786" lon="9.523718040436506">
        <ele>560.59000000000003</ele>
        <time>2018-09-19T09:05:07Z</time>
      </trkpt>
      <trkpt lat="48.117901012301445" lon="9.523395001888275">
        <ele>560.59000000000003</ele>
        <time>2018-09-19T09:05:08Z</time>
      </trkpt>
      <trkpt lat="48.118022968992591" lon="9.523096019402146">
        <ele>561.07000000000005</ele>
        <time>2018-09-19T09:05:09Z</time>
      </trkpt>
      <trkpt lat="48.118994012475014" lon="9.52147101983428">
        <ele>562.99000000000001</ele>
        <time>2018-09-19T09:05:15Z</time>
      </trkpt>
      <trkpt lat="48.119195010513067" lon="9.521246971562505">
        <ele>563.47000000000003</ele>
        <time>2018-09-19T09:05:16Z</time>
      </trkpt>
      <trkpt lat="48.119421992450953" lon="9.521078998222947">
        <ele>563.47000000000003</ele>
        <time>2018-09-19T09:05:17Z</time>
      </trkpt>
      <trkpt lat="48.119654003530741" lon="9.520908007398248">
        <ele>563.95000000000005</ele>
        <time>2018-09-19T09:05:18Z</time>
      </trkpt>
      <trkpt lat="48.119903029873967" lon="9.520780015736818">
        <ele>564.42999999999995</ele>
        <time>2018-09-19T09:05:19Z</time>
      </trkpt>
      <trkpt lat="48.120154989883304" lon="9.52065403573215">
        <ele>564.42999999999995</ele>
        <time>2018-09-19T09:05:20Z</time>
      </trkpt>
      <trkpt lat="48.120408039540052" lon="9.520540041849017">
        <ele>564.90999999999997</ele>
        <time>2018-09-19T09:05:21Z</time>
      </trkpt>
      <trkpt lat="48.120668968185782" lon="9.520471980795264">
        <ele>565.38999999999999</ele>
        <time>2018-09-19T09:05:22Z</time>
      </trkpt>
      <trkpt lat="48.120935009792447" lon="9.520439961925149">
        <ele>565.38999999999999</ele>
        <time>2018-09-19T09:05:23Z</time>
      </trkpt>
      <trkpt lat="48.121202979236841" lon="9.520426969975233">
        <ele>565.87</ele>
        <time>2018-09-19T09:05:24Z</time>
      </trkpt>
      <trkpt lat="48.121476983651519" lon="9.520463012158871">
        <ele>566.35000000000002</ele>
        <time>2018-09-19T09:05:25Z</time>
      </trkpt>
      <trkpt lat="48.123615961521864" lon="9.520572982728481">
        <ele>569.72000000000003</ele>
        <time>2018-09-19T09:05:33Z</time>
      </trkpt>
      <trkpt lat="48.123876973986626" lon="9.520511962473393">
        <ele>569.72000000000003</ele>
        <time>2018-09-19T09:05:34Z</time>
      </trkpt>
      <trkpt lat="48.124141003936529" lon="9.520425964146853">
        <ele>570.67999999999995</ele>
        <time>2018-09-19T09:05:35Z</time>
      </trkpt>
      <trkpt lat="48.124398998916149" lon="9.520280035212636">
        <ele>571.15999999999997</ele>
        <time>2018-09-19T09:05:36Z</time>
      </trkpt>
      <trkpt lat="48.124655988067389" lon="9.520134022459388">
        <ele>571.63999999999999</ele>
        <time>2018-09-19T09:05:37Z</time>
      </trkpt>
      <trkpt lat="48.124898979440331" lon="9.519922966137528">
        <ele>572.12</ele>
        <time>2018-09-19T09:05:38Z</time>
      </trkpt>
      <trkpt lat="48.125135013833642" lon="9.519697995856404">
        <ele>572.60000000000002</ele>
        <time>2018-09-19T09:05:39Z</time>
      </trkpt>
      <trkpt lat="48.125358978286386" lon="9.519443018361926">
        <ele>573.08000000000004</ele>
        <time>2018-09-19T09:05:40Z</time>
      </trkpt>
      <trkpt lat="48.125579003244638" lon="9.519175970926881">
        <ele>573.55999999999995</ele>
        <time>2018-09-19T09:05:41Z</time>
      </trkpt>
      <trkpt lat="48.127413969486952" lon="9.517318038269877">
        <ele>576.92999999999995</ele>
        <time>2018-09-19T09:05:49Z</time>
      </trkpt>
      <trkpt lat="48.128952970728278" lon="9.51594902202487">
        <ele>577.40999999999997</ele>
        <time>2018-09-19T09:05:56Z</time>
      </trkpt>
      <trkpt lat="48.129678005352616" lon="9.514775974676013">
        <ele>577.40999999999997</ele>
        <time>2018-09-19T09:06:02Z</time>
      </trkpt>
      <trkpt lat="48.130316035822034" lon="9.513540985062718">
        <ele>578.37</ele>
        <time>2018-09-19T09:06:11Z</time>
      </trkpt>
      <trkpt lat="48.130924981087446" lon="9.512442033737898">
        <ele>581.25</ele>
        <time>2018-09-19T09:06:19Z</time>
      </trkpt>
      <trkpt lat="48.131904993206263" lon="9.51079398393631">
        <ele>579.33000000000004</ele>
        <time>2018-09-19T09:06:30Z</time>
      </trkpt>
      <trkpt lat="48.132911995053291" lon="9.509028000757098">
        <ele>575.49000000000001</ele>
        <time>2018-09-19T09:06:39Z</time>
      </trkpt>
      <trkpt lat="48.134041037410498" lon="9.507105024531484">
        <ele>573.55999999999995</ele>
        <time>2018-09-19T09:06:47Z</time>
      </trkpt>
      <trkpt lat="48.135311985388398" lon="9.505703989416361">
        <ele>571.15999999999997</ele>
        <time>2018-09-19T09:06:53Z</time>
      </trkpt>
      <trkpt lat="48.137567974627018" lon="9.503745976835489">
        <ele>565.87</ele>
        <time>2018-09-19T09:07:02Z</time>
      </trkpt>
      <trkpt lat="48.139604022726417" lon="9.502073032781482">
        <ele>562.50999999999999</ele>
        <time>2018-09-19T09:07:10Z</time>
      </trkpt>
      <trkpt lat="48.141359025612473" lon="9.500942984595895">
        <ele>566.35000000000002</ele>
        <time>2018-09-19T09:07:18Z</time>
      </trkpt>
      <trkpt lat="48.142780009657145" lon="9.500047964975238">
        <ele>569.24000000000001</ele>
        <time>2018-09-19T09:07:25Z</time>
      </trkpt>
      <trkpt lat="48.143851971253753" lon="9.499667007476091">
        <ele>569.24000000000001</ele>
        <time>2018-09-19T09:07:31Z</time>
      </trkpt>
      <trkpt lat="48.145335987210274" lon="9.499709000810981">
        <ele>567.32000000000005</ele>
        <time>2018-09-19T09:07:40Z</time>
      </trkpt>
      <trkpt lat="48.14657298848033" lon="9.500339990481734">
        <ele>567.79999999999995</ele>
        <time>2018-09-19T09:07:48Z</time>
      </trkpt>
      <trkpt lat="48.147878972813487" lon="9.501130990684032">
        <ele>569.72000000000003</ele>
        <time>2018-09-19T09:07:57Z</time>
      </trkpt>
      <trkpt lat="48.148748008534312" lon="9.501371970400214">
        <ele>569.24000000000001</ele>
        <time>2018-09-19T09:08:01Z</time>
      </trkpt>
      <trkpt lat="48.149614026769996" lon="9.501346992328763">
        <ele>567.32000000000005</ele>
        <time>2018-09-19T09:08:06Z</time>
      </trkpt>
      <trkpt lat="48.151019001379609" lon="9.500811975449324">
        <ele>559.13999999999999</ele>
        <time>2018-09-19T09:08:17Z</time>
      </trkpt>
      <trkpt lat="48.152381982654333" lon="9.500289028510451">
        <ele>550.00999999999999</ele>
        <time>2018-09-19T09:08:29Z</time>
      </trkpt>
      <trkpt lat="48.152542999014258" lon="9.500281987711787">
        <ele>549.52999999999997</ele>
        <time>2018-09-19T09:08:31Z</time>
      </trkpt>
      <trkpt lat="48.15284701064229" lon="9.500267989933491">
        <ele>547.13</ele>
        <time>2018-09-19T09:08:39Z</time>
      </trkpt>
      <trkpt lat="48.15284701064229" lon="9.500267989933491">
        <ele>547.13</ele>
        <time>2018-09-19T09:09:02Z</time>
      </trkpt>
      <trkpt lat="48.152978019788861" lon="9.500262038782239">
        <ele>546.64999999999998</ele>
        <time>2018-09-19T09:09:11Z</time>
      </trkpt>
      <trkpt lat="48.153024958446622" lon="9.500260027125478">
        <ele>546.64999999999998</ele>
        <time>2018-09-19T09:09:12Z</time>
      </trkpt>
      <trkpt lat="48.153066029772162" lon="9.500258015468717">
        <ele>546.64999999999998</ele>
        <time>2018-09-19T09:09:13Z</time>
      </trkpt>
      <trkpt lat="48.153112968429923" lon="9.500162964686751">
        <ele>546.64999999999998</ele>
        <time>2018-09-19T09:09:14Z</time>
      </trkpt>
      <trkpt lat="48.153109028935432" lon="9.500100016593933">
        <ele>546.64999999999998</ele>
        <time>2018-09-19T09:09:15Z</time>
      </trkpt>
      <trkpt lat="48.153102993965149" lon="9.500022986903787">
        <ele>546.64999999999998</ele>
        <time>2018-09-19T09:09:16Z</time>
      </trkpt>
      <trkpt lat="48.153096958994865" lon="9.499931959435344">
        <ele>546.64999999999998</ele>
        <time>2018-09-19T09:09:17Z</time>
      </trkpt>
      <trkpt lat="48.153092013671994" lon="9.499831963330507">
        <ele>546.64999999999998</ele>
        <time>2018-09-19T09:09:18Z</time>
      </trkpt>
      <trkpt lat="48.153086984530091" lon="9.499726016074419">
        <ele>546.64999999999998</ele>
        <time>2018-09-19T09:09:19Z</time>
      </trkpt>
      <trkpt lat="48.15308203920722" lon="9.499604981392622">
        <ele>546.64999999999998</ele>
        <time>2018-09-19T09:09:20Z</time>
      </trkpt>
      <trkpt lat="48.152991011738777" lon="9.498168993741274">
        <ele>546.64999999999998</ele>
        <time>2018-09-19T09:09:29Z</time>
      </trkpt>
      <trkpt lat="48.152746008709073" lon="9.496449027210474">
        <ele>543.27999999999997</ele>
        <time>2018-09-19T09:09:39Z</time>
      </trkpt>
      <trkpt lat="48.152690017595887" lon="9.495789958164096">
        <ele>542.32000000000005</ele>
        <time>2018-09-19T09:09:43Z</time>
      </trkpt>
      <trkpt lat="48.152690017595887" lon="9.495603963732719">
        <ele>541.84000000000003</ele>
        <time>2018-09-19T09:09:44Z</time>
      </trkpt>
      <trkpt lat="48.152690017595887" lon="9.495401037856937">
        <ele>541.84000000000003</ele>
        <time>2018-09-19T09:09:45Z</time>
      </trkpt>
      <trkpt lat="48.152694962918758" lon="9.49517397210002">
        <ele>542.32000000000005</ele>
        <time>2018-09-19T09:09:46Z</time>
      </trkpt>
      <trkpt lat="48.152707032859325" lon="9.494927041232586">
        <ele>542.32000000000005</ele>
        <time>2018-09-19T09:09:47Z</time>
      </trkpt>
      <trkpt lat="48.153020013123751" lon="9.492930974811316">
        <ele>540.88</ele>
        <time>2018-09-19T09:09:54Z</time>
      </trkpt>
      <trkpt lat="48.153900029137731" lon="9.490760983899236">
        <ele>537.50999999999999</ele>
        <time>2018-09-19T09:10:01Z</time>
      </trkpt>
      <trkpt lat="48.155481023713946" lon="9.487533029168844">
        <ele>536.07000000000005</ele>
        <time>2018-09-19T09:10:11Z</time>
      </trkpt>
      <trkpt lat="48.156303036957979" lon="9.484590981155634">
        <ele>533.66999999999996</ele>
        <time>2018-09-19T09:10:19Z</time>
      </trkpt>
      <trkpt lat="48.156891027465463" lon="9.481151970103383">
        <ele>531.75</ele>
        <time>2018-09-19T09:10:29Z</time>
      </trkpt>
      <trkpt lat="48.157341973856091" lon="9.479266963899136">
        <ele>529.82000000000005</ele>
        <time>2018-09-19T09:10:36Z</time>
      </trkpt>
      <trkpt lat="48.157856035977602" lon="9.477811027318239">
        <ele>528.38</ele>
        <time>2018-09-19T09:10:45Z</time>
      </trkpt>
      <trkpt lat="48.158225007355213" lon="9.477166039869189">
        <ele>528.38</ele>
        <time>2018-09-19T09:10:50Z</time>
      </trkpt>
      <trkpt lat="48.158945012837648" lon="9.476619036868215">
        <ele>529.34000000000003</ele>
        <time>2018-09-19T09:10:58Z</time>
      </trkpt>
      <trkpt lat="48.159003015607595" lon="9.476605961099267">
        <ele>529.34000000000003</ele>
        <time>2018-09-19T09:10:59Z</time>
      </trkpt>
      <trkpt lat="48.159041991457343" lon="9.476596992462874">
        <ele>529.82000000000005</ele>
        <time>2018-09-19T09:11:05Z</time>
      </trkpt>
      <trkpt lat="48.159112986177206" lon="9.476581988856196">
        <ele>529.82000000000005</ele>
        <time>2018-09-19T09:11:07Z</time>
      </trkpt>
      <trkpt lat="48.15978697501123" lon="9.476635968312621">
        <ele>530.78999999999996</ele>
        <time>2018-09-19T09:11:13Z</time>
      </trkpt>
      <trkpt lat="48.160850973799825" lon="9.477247009053826">
        <ele>534.14999999999998</ele>
        <time>2018-09-19T09:11:22Z</time>
      </trkpt>
      <trkpt lat="48.161941040307283" lon="9.478184022009373">
        <ele>538.48000000000002</ele>
        <time>2018-09-19T09:11:31Z</time>
      </trkpt>
      <trkpt lat="48.163303015753627" lon="9.479370983317494">
        <ele>544.24000000000001</ele>
        <time>2018-09-19T09:11:40Z</time>
      </trkpt>
      <trkpt lat="48.16466398537159" lon="9.480307996273041">
        <ele>550.00999999999999</ele>
        <time>2018-09-19T09:11:47Z</time>
      </trkpt>
      <trkpt lat="48.166327960789204" lon="9.480808982625604">
        <ele>552.40999999999997</ele>
        <time>2018-09-19T09:11:54Z</time>
      </trkpt>
      <trkpt lat="48.168852003291249" lon="9.48099497705698">
        <ele>551.45000000000005</ele>
        <time>2018-09-19T09:12:04Z</time>
      </trkpt>
      <trkpt lat="48.171590035781264" lon="9.481897037476301">
        <ele>556.74000000000001</ele>
        <time>2018-09-19T09:12:15Z</time>
      </trkpt>
      <trkpt lat="48.173158038407564" lon="9.481888990849257">
        <ele>557.22000000000003</ele>
        <time>2018-09-19T09:12:21Z</time>
      </trkpt>
      <trkpt lat="48.174508027732372" lon="9.481672989204526">
        <ele>555.29999999999995</ele>
        <time>2018-09-19T09:12:26Z</time>
      </trkpt>
      <trkpt lat="48.176134033128619" lon="9.482112033292651">
        <ele>553.38</ele>
        <time>2018-09-19T09:12:32Z</time>
      </trkpt>
      <trkpt lat="48.17809397354722" lon="9.483466967940331">
        <ele>550.97000000000003</ele>
        <time>2018-09-19T09:12:40Z</time>
      </trkpt>
      <trkpt lat="48.179980991408229" lon="9.484482016414404">
        <ele>549.52999999999997</ele>
        <time>2018-09-19T09:12:48Z</time>
      </trkpt>
      <trkpt lat="48.181887036189437" lon="9.484930029138923">
        <ele>548.09000000000003</ele>
        <time>2018-09-19T09:12:57Z</time>
      </trkpt>
      <trkpt lat="48.183070980012417" lon="9.485348034650087">
        <ele>547.13</ele>
        <time>2018-09-19T09:13:04Z</time>
      </trkpt>
      <trkpt lat="48.184437984600663" lon="9.486320000141859">
        <ele>543.75999999999999</ele>
        <time>2018-09-19T09:13:15Z</time>
      </trkpt>
      <trkpt lat="48.185705998912454" lon="9.486913019791246">
        <ele>546.16999999999996</ele>
        <time>2018-09-19T09:13:22Z</time>
      </trkpt>
      <trkpt lat="48.187405010685325" lon="9.487145030871034">
        <ele>550.49000000000001</ele>
        <time>2018-09-19T09:13:29Z</time>
      </trkpt>
      <trkpt lat="48.189573995769024" lon="9.487293977290392">
        <ele>550.00999999999999</ele>
        <time>2018-09-19T09:13:37Z</time>
      </trkpt>
      <trkpt lat="48.190794987604022" lon="9.488058993592858">
        <ele>548.57000000000005</ele>
        <time>2018-09-19T09:13:42Z</time>
      </trkpt>
      <trkpt lat="48.192400960251689" lon="9.489608975127339">
        <ele>547.61000000000001</ele>
        <time>2018-09-19T09:13:49Z</time>
      </trkpt>
      <trkpt lat="48.192664990201592" lon="9.489747025072575">
        <ele>547.61000000000001</ele>
        <time>2018-09-19T09:13:50Z</time>
      </trkpt>
      <trkpt lat="48.192934971302748" lon="9.489863030612469">
        <ele>547.61000000000001</ele>
        <time>2018-09-19T09:13:51Z</time>
      </trkpt>
      <trkpt lat="48.193216016516089" lon="9.489912986755371">
        <ele>547.61000000000001</ele>
        <time>2018-09-19T09:13:52Z</time>
      </trkpt>
      <trkpt lat="48.193496977910399" lon="9.489965038374066">
        <ele>547.13</ele>
        <time>2018-09-19T09:13:53Z</time>
      </trkpt>
      <trkpt lat="48.193780034780502" lon="9.490016000345349">
        <ele>546.64999999999998</ele>
        <time>2018-09-19T09:13:54Z</time>
      </trkpt>
      <trkpt lat="48.196016997098923" lon="9.48995104059577">
        <ele>543.75999999999999</ele>
        <time>2018-09-19T09:14:02Z</time>
      </trkpt>
      <trkpt lat="48.19788096472621" lon="9.490378014743328">
        <ele>541.84000000000003</ele>
        <time>2018-09-19T09:14:09Z</time>
      </trkpt>
      <trkpt lat="48.199821040034294" lon="9.491507979109883">
        <ele>539.44000000000005</ele>
        <time>2018-09-19T09:14:17Z</time>
      </trkpt>
      <trkpt lat="48.202282972633839" lon="9.492844976484776">
        <ele>541.36000000000001</ele>
        <time>2018-09-19T09:14:27Z</time>
      </trkpt>
      <trkpt lat="48.203889029100537" lon="9.492580024525523">
        <ele>545.69000000000005</ele>
        <time>2018-09-19T09:14:33Z</time>
      </trkpt>
      <trkpt lat="48.20555099286139" lon="9.492318006232381">
        <ele>551.45000000000005</ele>
        <time>2018-09-19T09:14:40Z</time>
      </trkpt>
      <trkpt lat="48.207338014617562" lon="9.492770964279771">
        <ele>559.62</ele>
        <time>2018-09-19T09:14:48Z</time>
      </trkpt>
      <trkpt lat="48.20754898712039" lon="9.492926029488444">
        <ele>560.59000000000003</ele>
        <time>2018-09-19T09:14:49Z</time>
      </trkpt>
      <trkpt lat="48.207743028178811" lon="9.493109006434679">
        <ele>561.07000000000005</ele>
        <time>2018-09-19T09:14:50Z</time>
      </trkpt>
      <trkpt lat="48.207928016781807" lon="9.493315033614636">
        <ele>561.54999999999995</ele>
        <time>2018-09-19T09:14:51Z</time>
      </trkpt>
      <trkpt lat="48.208091966807842" lon="9.493545033037663">
        <ele>562.02999999999997</ele>
        <time>2018-09-19T09:14:52Z</time>
      </trkpt>
      <trkpt lat="48.208242002874613" lon="9.493805039674044">
        <ele>562.99000000000001</ele>
        <time>2018-09-19T09:14:53Z</time>
      </trkpt>
      <trkpt lat="48.208372006192803" lon="9.494090024381876">
        <ele>563.47000000000003</ele>
        <time>2018-09-19T09:14:54Z</time>
      </trkpt>
      <trkpt lat="48.20849203504622" lon="9.494384983554483">
        <ele>564.42999999999995</ele>
        <time>2018-09-19T09:14:55Z</time>
      </trkpt>
      <trkpt lat="48.209602972492576" lon="9.496844988316298">
        <ele>568.75999999999999</ele>
        <time>2018-09-19T09:15:03Z</time>
      </trkpt>
      <trkpt lat="48.211447997018695" lon="9.499563993886113">
        <ele>566.35000000000002</ele>
        <time>2018-09-19T09:15:13Z</time>
      </trkpt>
      <trkpt lat="48.212281996384263" lon="9.500326998531818">
        <ele>563.95000000000005</ele>
        <time>2018-09-19T09:15:17Z</time>
      </trkpt>
      <trkpt lat="48.212514007464051" lon="9.500431017950177">
        <ele>563.47000000000003</ele>
        <time>2018-09-19T09:15:18Z</time>
      </trkpt>
      <trkpt lat="48.212750041857362" lon="9.500507041811943">
        <ele>562.99000000000001</ele>
        <time>2018-09-19T09:15:19Z</time>
      </trkpt>
      <trkpt lat="48.212986998260021" lon="9.500553980469704">
        <ele>562.02999999999997</ele>
        <time>2018-09-19T09:15:20Z</time>
      </trkpt>
      <trkpt lat="48.213226972147822" lon="9.50054400600493">
        <ele>561.54999999999995</ele>
        <time>2018-09-19T09:15:21Z</time>
      </trkpt>
      <trkpt lat="48.213466024026275" lon="9.500531014055014">
        <ele>561.07000000000005</ele>
        <time>2018-09-19T09:15:22Z</time>
      </trkpt>
      <trkpt lat="48.213696023449302" lon="9.500420037657023">
        <ele>560.11000000000001</ele>
        <time>2018-09-19T09:15:23Z</time>
      </trkpt>
      <trkpt lat="48.213932979851961" lon="9.500305959954858">
        <ele>559.62</ele>
        <time>2018-09-19T09:15:24Z</time>
      </trkpt>
      <trkpt lat="48.214160967618227" lon="9.500161036849022">
        <ele>558.65999999999997</ele>
        <time>2018-09-19T09:15:25Z</time>
      </trkpt>
      <trkpt lat="48.214374035596848" lon="9.499966995790601">
        <ele>558.17999999999995</ele>
        <time>2018-09-19T09:15:26Z</time>
      </trkpt>
      <trkpt lat="48.214581990614533" lon="9.49977102689445">
        <ele>557.22000000000003</ele>
        <time>2018-09-19T09:15:27Z</time>
      </trkpt>
      <trkpt lat="48.21474501863122" lon="9.499500039964914">
        <ele>556.74000000000001</ele>
        <time>2018-09-19T09:15:28Z</time>
      </trkpt>
      <trkpt lat="48.214900000020862" lon="9.499217988923192">
        <ele>555.77999999999997</ele>
        <time>2018-09-19T09:15:29Z</time>
      </trkpt>
      <trkpt lat="48.215049030259252" lon="9.498921018093824">
        <ele>554.82000000000005</ele>
        <time>2018-09-19T09:15:30Z</time>
      </trkpt>
      <trkpt lat="48.215145003050566" lon="9.498581970110536">
        <ele>553.86000000000001</ele>
        <time>2018-09-19T09:15:31Z</time>
      </trkpt>
      <trkpt lat="48.215234018862247" lon="9.498235965147615">
        <ele>552.89999999999998</ele>
        <time>2018-09-19T09:15:32Z</time>
      </trkpt>
      <trkpt lat="48.215322028845549" lon="9.497895995154977">
        <ele>551.92999999999995</ele>
        <time>2018-09-19T09:15:33Z</time>
      </trkpt>
      <trkpt lat="48.215409033000469" lon="9.49755703099072">
        <ele>550.97000000000003</ele>
        <time>2018-09-19T09:15:34Z</time>
      </trkpt>
      <trkpt lat="48.215586980804801" lon="9.496864015236497">
        <ele>548.57000000000005</ele>
        <time>2018-09-19T09:15:36Z</time>
      </trkpt>
      <trkpt lat="48.215720001608133" lon="9.496540976688266">
        <ele>547.61000000000001</ele>
        <time>2018-09-19T09:15:37Z</time>
      </trkpt>
      <trkpt lat="48.215881017968059" lon="9.496241994202137">
        <ele>546.16999999999996</ele>
        <time>2018-09-19T09:15:38Z</time>
      </trkpt>
      <trkpt lat="48.216040022671223" lon="9.49594602920115">
        <ele>545.20000000000005</ele>
        <time>2018-09-19T09:15:39Z</time>
      </trkpt>
      <trkpt lat="48.216195004060864" lon="9.495658027008176">
        <ele>544.24000000000001</ele>
        <time>2018-09-19T09:15:40Z</time>
      </trkpt>
      <trkpt lat="48.216504966840148" lon="9.495096020400524">
        <ele>541.84000000000003</ele>
        <time>2018-09-19T09:15:42Z</time>
      </trkpt>
      <trkpt lat="48.216629019007087" lon="9.494778010994196">
        <ele>540.88</ele>
        <time>2018-09-19T09:15:43Z</time>
      </trkpt>
      <trkpt lat="48.216721974313259" lon="9.494440974667668">
        <ele>539.44000000000005</ele>
        <time>2018-09-19T09:15:44Z</time>
      </trkpt>
      <trkpt lat="48.216797998175025" lon="9.49407996609807">
        <ele>538.48000000000002</ele>
        <time>2018-09-19T09:15:45Z</time>
      </trkpt>
      <trkpt lat="48.21687201038003" lon="9.493717029690743">
        <ele>537.50999999999999</ele>
        <time>2018-09-19T09:15:46Z</time>
      </trkpt>
      <trkpt lat="48.216908974573016" lon="9.493333976715803">
        <ele>536.54999999999995</ele>
        <time>2018-09-19T09:15:47Z</time>
      </trkpt>
      <trkpt lat="48.217450026422739" lon="9.490712033584714">
        <ele>530.78999999999996</ele>
        <time>2018-09-19T09:15:54Z</time>
      </trkpt>
      <trkpt lat="48.218292994424701" lon="9.489191975444555">
        <ele>529.34000000000003</ele>
        <time>2018-09-19T09:15:59Z</time>
      </trkpt>
      <trkpt lat="48.219461012631655" lon="9.48812797665596">
        <ele>526.94000000000005</ele>
        <time>2018-09-19T09:16:05Z</time>
      </trkpt>
      <trkpt lat="48.220907980576158" lon="9.487033970654011">
        <ele>526.46000000000004</ele>
        <time>2018-09-19T09:16:13Z</time>
      </trkpt>
      <trkpt lat="48.222239026799798" lon="9.485609969124198">
        <ele>528.86000000000001</ele>
        <time>2018-09-19T09:16:20Z</time>
      </trkpt>
      <trkpt lat="48.223487008363008" lon="9.483921015635133">
        <ele>530.78999999999996</ele>
        <time>2018-09-19T09:16:27Z</time>
      </trkpt>
      <trkpt lat="48.224511025473475" lon="9.481926960870624">
        <ele>532.71000000000004</ele>
        <time>2018-09-19T09:16:35Z</time>
      </trkpt>
      <trkpt lat="48.22505802847445" lon="9.479673989117146">
        <ele>534.14999999999998</ele>
        <time>2018-09-19T09:16:42Z</time>
      </trkpt>
      <trkpt lat="48.225876018404961" lon="9.477465022355318">
        <ele>535.11000000000001</ele>
        <time>2018-09-19T09:16:49Z</time>
      </trkpt>
      <trkpt lat="48.226874973624945" lon="9.476291975006461">
        <ele>535.59000000000003</ele>
        <time>2018-09-19T09:16:55Z</time>
      </trkpt>
      <trkpt lat="48.228292018175125" lon="9.474990013986826">
        <ele>537.02999999999997</ele>
        <time>2018-09-19T09:17:04Z</time>
      </trkpt>
      <trkpt lat="48.229049993678927" lon="9.473708001896739">
        <ele>537.02999999999997</ele>
        <time>2018-09-19T09:17:11Z</time>
      </trkpt>
      <trkpt lat="48.229516027495265" lon="9.471867000684142">
        <ele>535.59000000000003</ele>
        <time>2018-09-19T09:17:18Z</time>
      </trkpt>
      <trkpt lat="48.229575958102942" lon="9.470872990787029">
        <ele>535.11000000000001</ele>
        <time>2018-09-19T09:17:21Z</time>
      </trkpt>
      <trkpt lat="48.229587022215128" lon="9.47055296972394">
        <ele>535.11000000000001</ele>
        <time>2018-09-19T09:17:22Z</time>
      </trkpt>
      <trkpt lat="48.22959003970027" lon="9.46859696879983">
        <ele>534.63</ele>
        <time>2018-09-19T09:17:29Z</time>
      </trkpt>
      <trkpt lat="48.229745021089911" lon="9.467340018600225">
        <ele>533.66999999999996</ele>
        <time>2018-09-19T09:17:36Z</time>
      </trkpt>
      <trkpt lat="48.22978600859642" lon="9.46717799641192">
        <ele>533.19000000000005</ele>
        <time>2018-09-19T09:17:37Z</time>
      </trkpt>
      <trkpt lat="48.229823978617787" lon="9.46702997200191">
        <ele>533.19000000000005</ele>
        <time>2018-09-19T09:17:38Z</time>
      </trkpt>
      <trkpt lat="48.230076022446156" lon="9.466140987351537">
        <ele>533.19000000000005</ele>
        <time>2018-09-19T09:17:45Z</time>
      </trkpt>
      <trkpt lat="48.230404006317258" lon="9.465432967990637">
        <ele>532.71000000000004</ele>
        <time>2018-09-19T09:17:52Z</time>
      </trkpt>
      <trkpt lat="48.230424039065838" lon="9.465319979935885">
        <ele>532.71000000000004</ele>
        <time>2018-09-19T09:17:53Z</time>
      </trkpt>
      <trkpt lat="48.230434013530612" lon="9.465206991881132">
        <ele>532.23000000000002</ele>
        <time>2018-09-19T09:17:54Z</time>
      </trkpt>
      <trkpt lat="48.230475001037121" lon="9.463906036689878">
        <ele>532.71000000000004</ele>
        <time>2018-09-19T09:18:04Z</time>
      </trkpt>
      <trkpt lat="48.230523029342294" lon="9.463791036978364">
        <ele>532.23000000000002</ele>
        <time>2018-09-19T09:18:05Z</time>
      </trkpt>
      <trkpt lat="48.230608021840453" lon="9.463586015626788">
        <ele>531.26999999999998</ele>
        <time>2018-09-19T09:18:07Z</time>
      </trkpt>
      <trkpt lat="48.230653032660484" lon="9.463478978723288">
        <ele>531.26999999999998</ele>
        <time>2018-09-19T09:18:08Z</time>
      </trkpt>
      <trkpt lat="48.230744982138276" lon="9.463258031755686">
        <ele>531.26999999999998</ele>
        <time>2018-09-19T09:18:10Z</time>
      </trkpt>
      <trkpt lat="48.230792004615068" lon="9.463144959881902">
        <ele>531.26999999999998</ele>
        <time>2018-09-19T09:18:11Z</time>
      </trkpt>
      <trkpt lat="48.230926031246781" lon="9.462832985445857">
        <ele>530.78999999999996</ele>
        <time>2018-09-19T09:18:14Z</time>
      </trkpt>
      <trkpt lat="48.23128997348249" lon="9.461832018569112">
        <ele>531.26999999999998</ele>
        <time>2018-09-19T09:18:23Z</time>
      </trkpt>
      <trkpt lat="48.231293996796012" lon="9.461705032736063">
        <ele>530.78999999999996</ele>
        <time>2018-09-19T09:18:24Z</time>
      </trkpt>
      <trkpt lat="48.231304977089167" lon="9.461374031379819">
        <ele>530.78999999999996</ele>
        <time>2018-09-19T09:18:27Z</time>
      </trkpt>
      <trkpt lat="48.231316963210702" lon="9.460995001718402">
        <ele>530.78999999999996</ele>
        <time>2018-09-19T09:18:33Z</time>
      </trkpt>
      <trkpt lat="48.231317969039083" lon="9.460934987291694">
        <ele>530.78999999999996</ele>
        <time>2018-09-19T09:18:34Z</time>
      </trkpt>
      <trkpt lat="48.231320986524224" lon="9.460848988965154">
        <ele>531.26999999999998</ele>
        <time>2018-09-19T09:18:35Z</time>
      </trkpt>
      <trkpt lat="48.231324004009366" lon="9.460743963718414">
        <ele>531.75</ele>
        <time>2018-09-19T09:18:36Z</time>
      </trkpt>
      <trkpt lat="48.231328027322888" lon="9.460630975663662">
        <ele>532.71000000000004</ele>
        <time>2018-09-19T09:18:37Z</time>
      </trkpt>
      <trkpt lat="48.231331966817379" lon="9.460512958467007">
        <ele>533.19000000000005</ele>
        <time>2018-09-19T09:18:38Z</time>
      </trkpt>
      <trkpt lat="48.231344036757946" lon="9.460441041737795">
        <ele>532.71000000000004</ele>
        <time>2018-09-19T09:18:39Z</time>
      </trkpt>
      <trkpt lat="48.23137597180903" lon="9.460343979299069">
        <ele>532.71000000000004</ele>
        <time>2018-09-19T09:18:40Z</time>
      </trkpt>
      <trkpt lat="48.231448978185654" lon="9.460293017327786">
        <ele>532.23000000000002</ele>
        <time>2018-09-19T09:18:41Z</time>
      </trkpt>
      <trkpt lat="48.231523996219039" lon="9.46024096570909">
        <ele>532.23000000000002</ele>
        <time>2018-09-19T09:18:42Z</time>
      </trkpt>
      <trkpt lat="48.231602031737566" lon="9.460186986252666">
        <ele>532.23000000000002</ele>
        <time>2018-09-19T09:18:43Z</time>
      </trkpt>
      <trkpt lat="48.231834964826703" lon="9.46002496406436">
        <ele>532.23000000000002</ele>
        <time>2018-09-19T09:18:46Z</time>
      </trkpt>
      <trkpt lat="48.231907971203327" lon="9.459950029850006">
        <ele>532.71000000000004</ele>
        <time>2018-09-19T09:18:47Z</time>
      </trkpt>
      <trkpt lat="48.23195499368012" lon="9.459843998774886">
        <ele>532.71000000000004</ele>
        <time>2018-09-19T09:18:48Z</time>
      </trkpt>
      <trkpt lat="48.231988018378615" lon="9.459727993234992">
        <ele>533.19000000000005</ele>
        <time>2018-09-19T09:18:49Z</time>
      </trkpt>
      <trkpt lat="48.23202095925808" lon="9.459617016837001">
        <ele>533.66999999999996</ele>
        <time>2018-09-19T09:18:50Z</time>
      </trkpt>
      <trkpt lat="48.232052978128195" lon="9.45950604043901">
        <ele>533.66999999999996</ele>
        <time>2018-09-19T09:18:51Z</time>
      </trkpt>
      <trkpt lat="48.232088014483452" lon="9.459392968565226">
        <ele>534.14999999999998</ele>
        <time>2018-09-19T09:18:52Z</time>
      </trkpt>
      <trkpt lat="48.232154985889792" lon="9.459321973845363">
        <ele>534.14999999999998</ele>
        <time>2018-09-19T09:18:53Z</time>
      </trkpt>
      <trkpt lat="48.232226986438036" lon="9.459269000217319">
        <ele>534.14999999999998</ele>
        <time>2018-09-19T09:18:54Z</time>
      </trkpt>
      <trkpt lat="48.232298986986279" lon="9.459216026589274">
        <ele>534.63</ele>
        <time>2018-09-19T09:18:55Z</time>
      </trkpt>
      <trkpt lat="48.23249202221632" lon="9.459075964987278">
        <ele>536.07000000000005</ele>
        <time>2018-09-19T09:18:58Z</time>
      </trkpt>
      <trkpt lat="48.232602998614311" lon="9.459081999957562">
        <ele>537.02999999999997</ele>
        <time>2018-09-19T09:18:59Z</time>
      </trkpt>
      <trkpt lat="48.232626970857382" lon="9.459146037697792">
        <ele>537.50999999999999</ele>
        <time>2018-09-19T09:19:00Z</time>
      </trkpt>
      <trkpt lat="48.232657983899117" lon="9.459226001054049">
        <ele>537.99000000000001</ele>
        <time>2018-09-19T09:19:01Z</time>
      </trkpt>
      <trkpt lat="48.232684973627329" lon="9.459292972460389">
        <ele>538.48000000000002</ele>
        <time>2018-09-19T09:19:02Z</time>
      </trkpt>
      <trkpt lat="48.232752028852701" lon="9.459405038505793">
        <ele>538.96000000000004</ele>
        <time>2018-09-19T09:19:03Z</time>
      </trkpt>
      <trkpt lat="48.232811959460378" lon="9.459505034610629">
        <ele>538.96000000000004</ele>
        <time>2018-09-19T09:19:04Z</time>
      </trkpt>
      <trkpt lat="48.232878008857369" lon="9.45961500518024">
        <ele>539.44000000000005</ele>
        <time>2018-09-19T09:19:05Z</time>
      </trkpt>
      <trkpt lat="48.232945986092091" lon="9.459661021828651">
        <ele>539.44000000000005</ele>
        <time>2018-09-19T09:19:06Z</time>
      </trkpt>
      <trkpt lat="48.233027039095759" lon="9.459717012941837">
        <ele>539.44000000000005</ele>
        <time>2018-09-19T09:19:07Z</time>
      </trkpt>
      <trkpt lat="48.233100967481732" lon="9.459768980741501">
        <ele>539.44000000000005</ele>
        <time>2018-09-19T09:19:08Z</time>
      </trkpt>
      <trkpt lat="48.233482008799911" lon="9.460039967671037">
        <ele>538.48000000000002</ele>
        <time>2018-09-19T09:19:13Z</time>
      </trkpt>
      <trkpt lat="48.233543029054999" lon="9.460134012624621">
        <ele>538.96000000000004</ele>
        <time>2018-09-19T09:19:14Z</time>
      </trkpt>
      <trkpt lat="48.233599020168185" lon="9.460222022607923">
        <ele>538.96000000000004</ele>
        <time>2018-09-19T09:19:15Z</time>
      </trkpt>
      <trkpt lat="48.233654005452991" lon="9.460340039804578">
        <ele>538.96000000000004</ele>
        <time>2018-09-19T09:19:16Z</time>
      </trkpt>
      <trkpt lat="48.233666997402906" lon="9.460469037294388">
        <ele>539.91999999999996</ele>
        <time>2018-09-19T09:19:17Z</time>
      </trkpt>
      <trkpt lat="48.233680995181203" lon="9.460601974278688">
        <ele>540.39999999999998</ele>
        <time>2018-09-19T09:19:18Z</time>
      </trkpt>
      <trkpt lat="48.233694992959499" lon="9.460734995082021">
        <ele>540.39999999999998</ele>
        <time>2018-09-19T09:19:19Z</time>
      </trkpt>
      <trkpt lat="48.233707984909415" lon="9.460864998400211">
        <ele>540.88</ele>
        <time>2018-09-19T09:19:20Z</time>
      </trkpt>
      <trkpt lat="48.233720976859331" lon="9.460993995890021">
        <ele>541.36000000000001</ele>
        <time>2018-09-19T09:19:21Z</time>
      </trkpt>
      <trkpt lat="48.233734974637628" lon="9.461122993379831">
        <ele>541.84000000000003</ele>
        <time>2018-09-19T09:19:22Z</time>
      </trkpt>
      <trkpt lat="48.233877969905734" lon="9.46185196749866">
        <ele>544.72000000000003</ele>
        <time>2018-09-19T09:19:28Z</time>
      </trkpt>
      <trkpt lat="48.233919963240623" lon="9.461960010230541">
        <ele>545.69000000000005</ele>
        <time>2018-09-19T09:19:29Z</time>
      </trkpt>
      <trkpt lat="48.233950976282358" lon="9.462039973586798">
        <ele>546.16999999999996</ele>
        <time>2018-09-19T09:19:30Z</time>
      </trkpt>
      <trkpt lat="48.234032029286027" lon="9.462025975808501">
        <ele>547.13</ele>
        <time>2018-09-19T09:19:31Z</time>
      </trkpt>
      <trkpt lat="48.234108975157142" lon="9.462012983858585">
        <ele>547.61000000000001</ele>
        <time>2018-09-19T09:19:32Z</time>
      </trkpt>
      <trkpt lat="48.234207965433598" lon="9.461996974423528">
        <ele>548.09000000000003</ele>
        <time>2018-09-19T09:19:33Z</time>
      </trkpt>
      <trkpt lat="48.234268985688686" lon="9.461947018280625">
        <ele>548.57000000000005</ele>
        <time>2018-09-19T09:19:34Z</time>
      </trkpt>
      <trkpt lat="48.23436202481389" lon="9.46187099441886">
        <ele>549.04999999999995</ele>
        <time>2018-09-19T09:19:35Z</time>
      </trkpt>
      <trkpt lat="48.235311023890972" lon="9.461145959794521">
        <ele>548.57000000000005</ele>
        <time>2018-09-19T09:19:42Z</time>
      </trkpt>
      <trkpt lat="48.236781964078546" lon="9.459847016260028">
        <ele>547.61000000000001</ele>
        <time>2018-09-19T09:19:50Z</time>
      </trkpt>
      <trkpt lat="48.23801301419735" lon="9.4581129681319">
        <ele>545.69000000000005</ele>
        <time>2018-09-19T09:19:57Z</time>
      </trkpt>
      <trkpt lat="48.23917499743402" lon="9.456823999062181">
        <ele>547.13</ele>
        <time>2018-09-19T09:20:03Z</time>
      </trkpt>
      <trkpt lat="48.241167962551117" lon="9.455238981172442">
        <ele>556.25999999999999</ele>
        <time>2018-09-19T09:20:12Z</time>
      </trkpt>
      <trkpt lat="48.242646027356386" lon="9.454055037349463">
        <ele>563.95000000000005</ele>
        <time>2018-09-19T09:20:19Z</time>
      </trkpt>
      <trkpt lat="48.243199987336993" lon="9.453368978574872">
        <ele>568.27999999999997</ele>
        <time>2018-09-19T09:20:23Z</time>
      </trkpt>
      <trkpt lat="48.243455970659852" lon="9.453069996088743">
        <ele>571.15999999999997</ele>
        <time>2018-09-19T09:20:26Z</time>
      </trkpt>
      <trkpt lat="48.243531994521618" lon="9.45299900136888">
        <ele>572.12</ele>
        <time>2018-09-19T09:20:27Z</time>
      </trkpt>
      <trkpt lat="48.243624027818441" lon="9.452965976670384">
        <ele>573.08000000000004</ele>
        <time>2018-09-19T09:20:28Z</time>
      </trkpt>
      <trkpt lat="48.24372704140842" lon="9.45297603495419">
        <ele>573.55999999999995</ele>
        <time>2018-09-19T09:20:29Z</time>
      </trkpt>
      <trkpt lat="48.243844974786043" lon="9.453000007197261">
        <ele>574.03999999999996</ele>
        <time>2018-09-19T09:20:30Z</time>
      </trkpt>
      <trkpt lat="48.24396500363946" lon="9.453079970553517">
        <ele>575.00999999999999</ele>
        <time>2018-09-19T09:20:31Z</time>
      </trkpt>
      <trkpt lat="48.244083020836115" lon="9.45319396443665">
        <ele>575.97000000000003</ele>
        <time>2018-09-19T09:20:32Z</time>
      </trkpt>
      <trkpt lat="48.244195003062487" lon="9.453326985239983">
        <ele>576.45000000000005</ele>
        <time>2018-09-19T09:20:33Z</time>
      </trkpt>
      <trkpt lat="48.244302961975336" lon="9.453418012708426">
        <ele>576.45000000000005</ele>
        <time>2018-09-19T09:20:34Z</time>
      </trkpt>
      <trkpt lat="48.244378985837102" lon="9.453456988558173">
        <ele>576.45000000000005</ele>
        <time>2018-09-19T09:20:35Z</time>
      </trkpt>
      <trkpt lat="48.244472024962306" lon="9.453364033252001">
        <ele>576.45000000000005</ele>
        <time>2018-09-19T09:20:36Z</time>
      </trkpt>
      <trkpt lat="48.244561040773988" lon="9.453275017440319">
        <ele>576.45000000000005</ele>
        <time>2018-09-19T09:20:37Z</time>
      </trkpt>
      <trkpt lat="48.244659025222063" lon="9.453176027163863">
        <ele>575.97000000000003</ele>
        <time>2018-09-19T09:20:38Z</time>
      </trkpt>
      <trkpt lat="48.244783999398351" lon="9.453096985816956">
        <ele>575.97000000000003</ele>
        <time>2018-09-19T09:20:39Z</time>
      </trkpt>
      <trkpt lat="48.244923977181315" lon="9.453032026067376">
        <ele>576.45000000000005</ele>
        <time>2018-09-19T09:20:40Z</time>
      </trkpt>
      <trkpt lat="48.245084993541241" lon="9.452971005812287">
        <ele>576.45000000000005</ele>
        <time>2018-09-19T09:20:41Z</time>
      </trkpt>
      <trkpt lat="48.245262019336224" lon="9.45291199721396">
        <ele>576.45000000000005</ele>
        <time>2018-09-19T09:20:42Z</time>
      </trkpt>
      <trkpt lat="48.245451031252742" lon="9.452899005264044">
        <ele>576.45000000000005</ele>
        <time>2018-09-19T09:20:43Z</time>
      </trkpt>
      <trkpt lat="48.245636019855738" lon="9.452899005264044">
        <ele>575.97000000000003</ele>
        <time>2018-09-19T09:20:44Z</time>
      </trkpt>
      <trkpt lat="48.245810028165579" lon="9.452899005264044">
        <ele>575.97000000000003</ele>
        <time>2018-09-19T09:20:45Z</time>
      </trkpt>
      <trkpt lat="48.24596400372684" lon="9.452972011640668">
        <ele>575.97000000000003</ele>
        <time>2018-09-19T09:20:46Z</time>
      </trkpt>
      <trkpt lat="48.246110016480088" lon="9.453045018017292">
        <ele>575.97000000000003</ele>
        <time>2018-09-19T09:20:47Z</time>
      </trkpt>
      <trkpt lat="48.246230967342854" lon="9.45319103077054">
        <ele>575.97000000000003</ele>
        <time>2018-09-19T09:20:48Z</time>
      </trkpt>
      <trkpt lat="48.246331969276071" lon="9.45336202159524">
        <ele>575.97000000000003</ele>
        <time>2018-09-19T09:20:49Z</time>
      </trkpt>
      <trkpt lat="48.246429031714797" lon="9.453527983278036">
        <ele>575.97000000000003</ele>
        <time>2018-09-19T09:20:50Z</time>
      </trkpt>
      <trkpt lat="48.246515030041337" lon="9.453673996031284">
        <ele>575.97000000000003</ele>
        <time>2018-09-19T09:20:51Z</time>
      </trkpt>
      <trkpt lat="48.24658895842731" lon="9.453799976035953">
        <ele>575.97000000000003</ele>
        <time>2018-09-19T09:20:52Z</time>
      </trkpt>
      <trkpt lat="48.246675962582231" lon="9.453811040148139">
        <ele>575.49000000000001</ele>
        <time>2018-09-19T09:20:53Z</time>
      </trkpt>
      <trkpt lat="48.246778976172209" lon="9.453800981864333">
        <ele>575.49000000000001</ele>
        <time>2018-09-19T09:20:54Z</time>
      </trkpt>
      <trkpt lat="48.246863968670368" lon="9.4537060149014">
        <ele>575.49000000000001</ele>
        <time>2018-09-19T09:20:55Z</time>
      </trkpt>
      <trkpt lat="48.246962958946824" lon="9.453595038503408">
        <ele>575.00999999999999</ele>
        <time>2018-09-19T09:20:56Z</time>
      </trkpt>
      <trkpt lat="48.247074019163847" lon="9.45347098633647">
        <ele>574.52999999999997</ele>
        <time>2018-09-19T09:20:57Z</time>
      </trkpt>
      <trkpt lat="48.247220031917095" lon="9.453380964696407">
        <ele>574.52999999999997</ele>
        <time>2018-09-19T09:20:58Z</time>
      </trkpt>
      <trkpt lat="48.247389011085033" lon="9.45332296192646">
        <ele>574.03999999999996</ele>
        <time>2018-09-19T09:20:59Z</time>
      </trkpt>
      <trkpt lat="48.247570982202888" lon="9.453260013833642">
        <ele>573.55999999999995</ele>
        <time>2018-09-19T09:21:00Z</time>
      </trkpt>
      <trkpt lat="48.248389977961779" lon="9.453135039657354">
        <ele>571.63999999999999</ele>
        <time>2018-09-19T09:21:04Z</time>
      </trkpt>
      <trkpt lat="48.248820975422859" lon="9.453092040494084">
        <ele>570.67999999999995</ele>
        <time>2018-09-19T09:21:06Z</time>
      </trkpt>
      <trkpt lat="48.249419024214149" lon="9.452972011640668">
        <ele>569.72000000000003</ele>
        <time>2018-09-19T09:21:09Z</time>
      </trkpt>
      <trkpt lat="48.249598983675241" lon="9.452990032732487">
        <ele>569.72000000000003</ele>
        <time>2018-09-19T09:21:10Z</time>
      </trkpt>
      <trkpt lat="48.24976603500545" lon="9.453017022460699">
        <ele>570.20000000000005</ele>
        <time>2018-09-19T09:21:11Z</time>
      </trkpt>
      <trkpt lat="48.249914981424809" lon="9.453091034665704">
        <ele>570.67999999999995</ele>
        <time>2018-09-19T09:21:12Z</time>
      </trkpt>
      <trkpt lat="48.250068034976721" lon="9.453203016892076">
        <ele>571.15999999999997</ele>
        <time>2018-09-19T09:21:13Z</time>
      </trkpt>
      <trkpt lat="48.250223016366363" lon="9.453330002725124">
        <ele>571.63999999999999</ele>
        <time>2018-09-19T09:21:14Z</time>
      </trkpt>
      <trkpt lat="48.250652002170682" lon="9.453751025721431">
        <ele>572.60000000000002</ele>
        <time>2018-09-19T09:21:17Z</time>
      </trkpt>
      <trkpt lat="48.250768007710576" lon="9.453893015161157">
        <ele>573.08000000000004</ele>
        <time>2018-09-19T09:21:18Z</time>
      </trkpt>
      <trkpt lat="48.250853000208735" lon="9.454046990722418">
        <ele>573.55999999999995</ele>
        <time>2018-09-19T09:21:19Z</time>
      </trkpt>
      <trkpt lat="48.25092701241374" lon="9.454183029010892">
        <ele>574.52999999999997</ele>
        <time>2018-09-19T09:21:20Z</time>
      </trkpt>
      <trkpt lat="48.2509929779917" lon="9.454294005408883">
        <ele>575.00999999999999</ele>
        <time>2018-09-19T09:21:21Z</time>
      </trkpt>
      <trkpt lat="48.251082999631763" lon="9.454306997358799">
        <ele>575.49000000000001</ele>
        <time>2018-09-19T09:21:22Z</time>
      </trkpt>
      <trkpt lat="48.251189030706882" lon="9.454257041215897">
        <ele>575.97000000000003</ele>
        <time>2018-09-19T09:21:23Z</time>
      </trkpt>
      <trkpt lat="48.251277962699533" lon="9.454154027625918">
        <ele>576.45000000000005</ele>
        <time>2018-09-19T09:21:24Z</time>
      </trkpt>
      <trkpt lat="48.251375025138259" lon="9.454042967408896">
        <ele>576.92999999999995</ele>
        <time>2018-09-19T09:21:25Z</time>
      </trkpt>
      <trkpt lat="48.251472003757954" lon="9.453930985182524">
        <ele>577.40999999999997</ele>
        <time>2018-09-19T09:21:26Z</time>
      </trkpt>
      <trkpt lat="48.251562025398016" lon="9.453826965764165">
        <ele>578.37</ele>
        <time>2018-09-19T09:21:27Z</time>
      </trkpt>
      <trkpt lat="48.25163503177464" lon="9.453821014612913">
        <ele>579.33000000000004</ele>
        <time>2018-09-19T09:21:28Z</time>
      </trkpt>
      <trkpt lat="48.251732010394335" lon="9.453821014612913">
        <ele>580.28999999999996</ele>
        <time>2018-09-19T09:21:29Z</time>
      </trkpt>
      <trkpt lat="48.251841980963945" lon="9.453821014612913">
        <ele>581.25</ele>
        <time>2018-09-19T09:21:30Z</time>
      </trkpt>
      <trkpt lat="48.251949017867446" lon="9.453821014612913">
        <ele>582.22000000000003</ele>
        <time>2018-09-19T09:21:31Z</time>
      </trkpt>
      <trkpt lat="48.252078015357256" lon="9.453723030164838">
        <ele>583.65999999999997</ele>
        <time>2018-09-19T09:21:32Z</time>
      </trkpt>
      <trkpt lat="48.252135012298822" lon="9.453579029068351">
        <ele>585.10000000000002</ele>
        <time>2018-09-19T09:21:33Z</time>
      </trkpt>
      <trkpt lat="48.252197038382292" lon="9.453422036021948">
        <ele>586.53999999999996</ele>
        <time>2018-09-19T09:21:34Z</time>
      </trkpt>
      <trkpt lat="48.252263003960252" lon="9.453252973034978">
        <ele>587.5</ele>
        <time>2018-09-19T09:21:35Z</time>
      </trkpt>
      <trkpt lat="48.252359982579947" lon="9.453135961666703">
        <ele>588.95000000000005</ele>
        <time>2018-09-19T09:21:36Z</time>
      </trkpt>
      <trkpt lat="48.252482023090124" lon="9.453014004975557">
        <ele>589.90999999999997</ele>
        <time>2018-09-19T09:21:37Z</time>
      </trkpt>
      <trkpt lat="48.252597022801638" lon="9.452899005264044">
        <ele>591.35000000000002</ele>
        <time>2018-09-19T09:21:38Z</time>
      </trkpt>
      <trkpt lat="48.25271001085639" lon="9.452702030539513">
        <ele>593.26999999999998</ele>
        <time>2018-09-19T09:21:39Z</time>
      </trkpt>
      <trkpt lat="48.252801960334182" lon="9.452501032501459">
        <ele>594.71000000000004</ele>
        <time>2018-09-19T09:21:40Z</time>
      </trkpt>
      <trkpt lat="48.252878990024328" lon="9.452278995886445">
        <ele>595.66999999999996</ele>
        <time>2018-09-19T09:21:41Z</time>
      </trkpt>
      <trkpt lat="48.253284003585577" lon="9.450963037088513">
        <ele>599.51999999999998</ele>
        <time>2018-09-19T09:21:48Z</time>
      </trkpt>
      <trkpt lat="48.253322979435325" lon="9.450831022113562">
        <ele>599.03999999999996</ele>
        <time>2018-09-19T09:21:49Z</time>
      </trkpt>
      <trkpt lat="48.253391040489078" lon="9.450752986595035">
        <ele>598.55999999999995</ele>
        <time>2018-09-19T09:21:50Z</time>
      </trkpt>
      <trkpt lat="48.253472009673715" lon="9.450695989653468">
        <ele>598.08000000000004</ele>
        <time>2018-09-19T09:21:51Z</time>
      </trkpt>
      <trkpt lat="48.253563037142158" lon="9.450661959126592">
        <ele>597.60000000000002</ele>
        <time>2018-09-19T09:21:52Z</time>
      </trkpt>
      <trkpt lat="48.253660015761852" lon="9.450624994933605">
        <ele>597.60000000000002</ele>
        <time>2018-09-19T09:21:53Z</time>
      </trkpt>
      <trkpt lat="48.253761017695069" lon="9.450587024912238">
        <ele>597.12</ele>
        <time>2018-09-19T09:21:54Z</time>
      </trkpt>
      <trkpt lat="48.253857996314764" lon="9.450495997443795">
        <ele>597.12</ele>
        <time>2018-09-19T09:21:55Z</time>
      </trkpt>
      <trkpt lat="48.253953969106078" lon="9.450393989682198">
        <ele>597.12</ele>
        <time>2018-09-19T09:21:56Z</time>
      </trkpt>
      <trkpt lat="48.254821998998523" lon="9.449620004743338">
        <ele>597.60000000000002</ele>
        <time>2018-09-19T09:22:04Z</time>
      </trkpt>
      <trkpt lat="48.254940016195178" lon="9.449582034721971">
        <ele>597.60000000000002</ele>
        <time>2018-09-19T09:22:05Z</time>
      </trkpt>
      <trkpt lat="48.255044035613537" lon="9.449551021680236">
        <ele>597.60000000000002</ele>
        <time>2018-09-19T09:22:06Z</time>
      </trkpt>
      <trkpt lat="48.255155012011528" lon="9.449572982266545">
        <ele>597.12</ele>
        <time>2018-09-19T09:22:07Z</time>
      </trkpt>
      <trkpt lat="48.255271017551422" lon="9.449595026671886">
        <ele>596.63999999999999</ele>
        <time>2018-09-19T09:22:08Z</time>
      </trkpt>
      <trkpt lat="48.25539699755609" lon="9.449618998914957">
        <ele>596.63999999999999</ele>
        <time>2018-09-19T09:22:09Z</time>
      </trkpt>
      <trkpt lat="48.255548039451241" lon="9.449649006128311">
        <ele>595.66999999999996</ele>
        <time>2018-09-19T09:22:10Z</time>
      </trkpt>
      <trkpt lat="48.256545988842845" lon="9.449627967551351">
        <ele>591.35000000000002</ele>
        <time>2018-09-19T09:22:15Z</time>
      </trkpt>
      <trkpt lat="48.256755033507943" lon="9.449668033048511">
        <ele>589.90999999999997</ele>
        <time>2018-09-19T09:22:16Z</time>
      </trkpt>
      <trkpt lat="48.257141020148993" lon="9.449787978082895">
        <ele>587.5</ele>
        <time>2018-09-19T09:22:18Z</time>
      </trkpt>
      <trkpt lat="48.257297007367015" lon="9.449852015823126">
        <ele>586.53999999999996</ele>
        <time>2018-09-19T09:22:19Z</time>
      </trkpt>
      <trkpt lat="48.257426004856825" lon="9.450010014697909">
        <ele>585.58000000000004</ele>
        <time>2018-09-19T09:22:20Z</time>
      </trkpt>
      <trkpt lat="48.257548967376351" lon="9.450159966945648">
        <ele>584.62</ele>
        <time>2018-09-19T09:22:21Z</time>
      </trkpt>
      <trkpt lat="48.257668996229768" lon="9.450305979698896">
        <ele>583.17999999999995</ele>
        <time>2018-09-19T09:22:22Z</time>
      </trkpt>
      <trkpt lat="48.257791036739945" lon="9.450402958318591">
        <ele>582.70000000000005</ele>
        <time>2018-09-19T09:22:23Z</time>
      </trkpt>
      <trkpt lat="48.257919028401375" lon="9.450494991615415">
        <ele>582.22000000000003</ele>
        <time>2018-09-19T09:22:24Z</time>
      </trkpt>
      <trkpt lat="48.258067974820733" lon="9.450500020757318">
        <ele>581.73000000000002</ele>
        <time>2018-09-19T09:22:25Z</time>
      </trkpt>
      <trkpt lat="48.258236031979322" lon="9.450505971908569">
        <ele>581.25</ele>
        <time>2018-09-19T09:22:26Z</time>
      </trkpt>
      <trkpt lat="48.259328026324511" lon="9.450574032962322">
        <ele>575.97000000000003</ele>
        <time>2018-09-19T09:22:32Z</time>
      </trkpt>
      <trkpt lat="48.259489964693785" lon="9.450622983276844">
        <ele>575.00999999999999</ele>
        <time>2018-09-19T09:22:33Z</time>
      </trkpt>
      <trkpt lat="48.259656010195613" lon="9.450682997703552">
        <ele>574.03999999999996</ele>
        <time>2018-09-19T09:22:34Z</time>
      </trkpt>
      <trkpt lat="48.259816020727158" lon="9.450806966051459">
        <ele>573.08000000000004</ele>
        <time>2018-09-19T09:22:35Z</time>
      </trkpt>
      <trkpt lat="48.259982988238335" lon="9.45093696936965">
        <ele>572.12</ele>
        <time>2018-09-19T09:22:36Z</time>
      </trkpt>
      <trkpt lat="48.260158002376556" lon="9.451074013486505">
        <ele>571.15999999999997</ele>
        <time>2018-09-19T09:22:37Z</time>
      </trkpt>
      <trkpt lat="48.261660039424896" lon="9.451890997588635">
        <ele>566.83000000000004</ele>
        <time>2018-09-19T09:22:45Z</time>
      </trkpt>
      <trkpt lat="48.262135963886976" lon="9.451943971216679">
        <ele>565.87</ele>
        <time>2018-09-19T09:22:48Z</time>
      </trkpt>
      <trkpt lat="48.262276025488973" lon="9.45198998786509">
        <ele>565.38999999999999</ele>
        <time>2018-09-19T09:22:49Z</time>
      </trkpt>
      <trkpt lat="48.262388007715344" lon="9.452079003676772">
        <ele>565.87</ele>
        <time>2018-09-19T09:22:50Z</time>
      </trkpt>
      <trkpt lat="48.26248599216342" lon="9.452205989509821">
        <ele>565.87</ele>
        <time>2018-09-19T09:22:51Z</time>
      </trkpt>
      <trkpt lat="48.262575007975101" lon="9.452384021133184">
        <ele>565.38999999999999</ele>
        <time>2018-09-19T09:22:52Z</time>
      </trkpt>
      <trkpt lat="48.262610966339707" lon="9.452553000301123">
        <ele>565.87</ele>
        <time>2018-09-19T09:22:53Z</time>
      </trkpt>
      <trkpt lat="48.262654971331358" lon="9.452758021652699">
        <ele>566.35000000000002</ele>
        <time>2018-09-19T09:22:54Z</time>
      </trkpt>
      <trkpt lat="48.262697970494628" lon="9.452960025519133">
        <ele>566.35000000000002</ele>
        <time>2018-09-19T09:22:55Z</time>
      </trkpt>
      <trkpt lat="48.262756979092956" lon="9.453146019950509">
        <ele>565.87</ele>
        <time>2018-09-19T09:22:56Z</time>
      </trkpt>
      <trkpt lat="48.262858986854553" lon="9.453264037147164">
        <ele>566.35000000000002</ele>
        <time>2018-09-19T09:22:57Z</time>
      </trkpt>
      <trkpt lat="48.262982033193111" lon="9.453322039917111">
        <ele>566.35000000000002</ele>
        <time>2018-09-19T09:22:58Z</time>
      </trkpt>
      <trkpt lat="48.263132991269231" lon="9.453392028808594">
        <ele>566.35000000000002</ele>
        <time>2018-09-19T09:22:59Z</time>
      </trkpt>
      <trkpt lat="48.263256037607789" lon="9.45336302742362">
        <ele>566.35000000000002</ele>
        <time>2018-09-19T09:23:00Z</time>
      </trkpt>
      <trkpt lat="48.26341001316905" lon="9.453326985239983">
        <ele>566.83000000000004</ele>
        <time>2018-09-19T09:23:01Z</time>
      </trkpt>
      <trkpt lat="48.264061035588384" lon="9.453232018277049">
        <ele>567.79999999999995</ele>
        <time>2018-09-19T09:23:05Z</time>
      </trkpt>
      <trkpt lat="48.264202019199729" lon="9.453239981085062">
        <ele>567.79999999999995</ele>
        <time>2018-09-19T09:23:06Z</time>
      </trkpt>
      <trkpt lat="48.264320958405733" lon="9.45332002826035">
        <ele>568.27999999999997</ele>
        <time>2018-09-19T09:23:07Z</time>
      </trkpt>
      <trkpt lat="48.264438975602388" lon="9.453418012708426">
        <ele>568.27999999999997</ele>
        <time>2018-09-19T09:23:08Z</time>
      </trkpt>
      <trkpt lat="48.264533020555973" lon="9.453561007976532">
        <ele>568.27999999999997</ele>
        <time>2018-09-19T09:23:09Z</time>
      </trkpt>
      <trkpt lat="48.264616001397371" lon="9.453740967437625">
        <ele>568.27999999999997</ele>
        <time>2018-09-19T09:23:10Z</time>
      </trkpt>
      <trkpt lat="48.264703005552292" lon="9.453931991010904">
        <ele>568.27999999999997</ele>
        <time>2018-09-19T09:23:11Z</time>
      </trkpt>
      <trkpt lat="48.264753967523575" lon="9.454175988212228">
        <ele>568.75999999999999</ele>
        <time>2018-09-19T09:23:12Z</time>
      </trkpt>
      <trkpt lat="48.264795038849115" lon="9.454430965706706">
        <ele>569.72000000000003</ele>
        <time>2018-09-19T09:23:13Z</time>
      </trkpt>
      <trkpt lat="48.265105001628399" lon="9.456397024914622">
        <ele>576.45000000000005</ele>
        <time>2018-09-19T09:23:20Z</time>
      </trkpt>
      <trkpt lat="48.265156969428062" lon="9.456681003794074">
        <ele>576.92999999999995</ele>
        <time>2018-09-19T09:23:21Z</time>
      </trkpt>
      <trkpt lat="48.265186976641417" lon="9.456975962966681">
        <ele>577.88999999999999</ele>
        <time>2018-09-19T09:23:22Z</time>
      </trkpt>
      <trkpt lat="48.265226036310196" lon="9.457537969574332">
        <ele>579.33000000000004</ele>
        <time>2018-09-19T09:23:24Z</time>
      </trkpt>
      <trkpt lat="48.265264006331563" lon="9.457794958725572">
        <ele>579.80999999999995</ele>
        <time>2018-09-19T09:23:25Z</time>
      </trkpt>
      <trkpt lat="48.265533987432718" lon="9.458857029676437">
        <ele>581.73000000000002</ele>
        <time>2018-09-19T09:23:29Z</time>
      </trkpt>
      <trkpt lat="48.265586039051414" lon="9.459137991070747">
        <ele>582.22000000000003</ele>
        <time>2018-09-19T09:23:30Z</time>
      </trkpt>
      <trkpt lat="48.265625014901161" lon="9.459429010748863">
        <ele>583.17999999999995</ele>
        <time>2018-09-19T09:23:31Z</time>
      </trkpt>
      <trkpt lat="48.265745965763927" lon="9.461476961150765">
        <ele>587.01999999999998</ele>
        <time>2018-09-19T09:23:38Z</time>
      </trkpt>
      <trkpt lat="48.265818972140551" lon="9.461744008585811">
        <ele>587.98000000000002</ele>
        <time>2018-09-19T09:23:39Z</time>
      </trkpt>
      <trkpt lat="48.265894996002316" lon="9.46202002465725">
        <ele>588.46000000000004</ele>
        <time>2018-09-19T09:23:40Z</time>
      </trkpt>
      <trkpt lat="48.266452979296446" lon="9.4643210247159">
        <ele>593.75</ele>
        <time>2018-09-19T09:23:48Z</time>
      </trkpt>
      <trkpt lat="48.266653977334499" lon="9.467257959768176">
        <ele>602.39999999999998</ele>
        <time>2018-09-19T09:23:57Z</time>
      </trkpt>
      <trkpt lat="48.266749028116465" lon="9.468820011243224">
        <ele>607.69000000000005</ele>
        <time>2018-09-19T09:24:03Z</time>
      </trkpt>
      <trkpt lat="48.266751961782575" lon="9.468923024833202">
        <ele>608.16999999999996</ele>
        <time>2018-09-19T09:24:04Z</time>
      </trkpt>
      <trkpt lat="48.266753973439336" lon="9.468993013724685">
        <ele>608.64999999999998</ele>
        <time>2018-09-19T09:24:05Z</time>
      </trkpt>
      <trkpt lat="48.266755985096097" lon="9.469041964039207">
        <ele>609.13</ele>
        <time>2018-09-19T09:24:06Z</time>
      </trkpt>
      <trkpt lat="48.266756990924478" lon="9.469069959595799">
        <ele>609.61000000000001</ele>
        <time>2018-09-19T09:24:07Z</time>
      </trkpt>
      <trkpt lat="48.266757996752858" lon="9.469093009829521">
        <ele>610.09000000000003</ele>
        <time>2018-09-19T09:24:08Z</time>
      </trkpt>
      <trkpt lat="48.266759002581239" lon="9.469138020649552">
        <ele>612.01999999999998</ele>
        <time>2018-09-19T09:24:11Z</time>
      </trkpt>
      <trkpt lat="48.266760008409619" lon="9.469166016206145">
        <ele>612.5</ele>
        <time>2018-09-19T09:24:12Z</time>
      </trkpt>
      <trkpt lat="48.266761014238" lon="9.46919702924788">
        <ele>612.98000000000002</ele>
        <time>2018-09-19T09:24:13Z</time>
      </trkpt>
      <trkpt lat="48.266762020066381" lon="9.469227958470583">
        <ele>614.89999999999998</ele>
        <time>2018-09-19T09:24:27Z</time>
      </trkpt>
      <trkpt lat="48.266762020066381" lon="9.469227958470583">
        <ele>615.38</ele>
        <time>2018-09-19T09:25:05Z</time>
      </trkpt>
      <trkpt lat="48.266762020066381" lon="9.469227958470583">
        <ele>615.38</ele>
        <time>2018-09-19T09:26:01Z</time>
      </trkpt>
      <trkpt lat="48.266765959560871" lon="9.469365002587438">
        <ele>615.38</ele>
        <time>2018-09-19T09:26:08Z</time>
      </trkpt>
      <trkpt lat="48.266768977046013" lon="9.469451000913978">
        <ele>615.38</ele>
        <time>2018-09-19T09:26:09Z</time>
      </trkpt>
      <trkpt lat="48.266773000359535" lon="9.469570023939014">
        <ele>615.38</ele>
        <time>2018-09-19T09:26:10Z</time>
      </trkpt>
      <trkpt lat="48.266778029501438" lon="9.469708995893598">
        <ele>615.38</ele>
        <time>2018-09-19T09:26:11Z</time>
      </trkpt>
      <trkpt lat="48.266771994531155" lon="9.469847967848182">
        <ele>615.38</ele>
        <time>2018-09-19T09:26:12Z</time>
      </trkpt>
      <trkpt lat="48.266739975661039" lon="9.470002027228475">
        <ele>615.38</ele>
        <time>2018-09-19T09:26:13Z</time>
      </trkpt>
      <trkpt lat="48.266706028953195" lon="9.47016597725451">
        <ele>615.86000000000001</ele>
        <time>2018-09-19T09:26:14Z</time>
      </trkpt>
      <trkpt lat="48.266649032011628" lon="9.470301009714603">
        <ele>615.86000000000001</ele>
        <time>2018-09-19T09:26:15Z</time>
      </trkpt>
      <trkpt lat="48.266569990664721" lon="9.470445010811091">
        <ele>615.86000000000001</ele>
        <time>2018-09-19T09:26:16Z</time>
      </trkpt>
      <trkpt lat="48.266489021480083" lon="9.47059596888721">
        <ele>616.34000000000003</ele>
        <time>2018-09-19T09:26:17Z</time>
      </trkpt>
      <trkpt lat="48.266403023153543" lon="9.470749022439122">
        <ele>616.34000000000003</ele>
        <time>2018-09-19T09:26:18Z</time>
      </trkpt>
      <trkpt lat="48.265841016545892" lon="9.471557959914208">
        <ele>616.82000000000005</ele>
        <time>2018-09-19T09:26:23Z</time>
      </trkpt>
      <trkpt lat="48.265756024047732" lon="9.471728028729558">
        <ele>616.82000000000005</ele>
        <time>2018-09-19T09:26:24Z</time>
      </trkpt>
      <trkpt lat="48.265691986307502" lon="9.471945036202669">
        <ele>616.82000000000005</ele>
        <time>2018-09-19T09:26:25Z</time>
      </trkpt>
      <trkpt lat="48.265659967437387" lon="9.472174029797316">
        <ele>616.82000000000005</ele>
        <time>2018-09-19T09:26:26Z</time>
      </trkpt>
      <trkpt lat="48.265649992972612" lon="9.472436970099807">
        <ele>616.82000000000005</ele>
        <time>2018-09-19T09:26:27Z</time>
      </trkpt>
      <trkpt lat="48.265660973265767" lon="9.472714997828007">
        <ele>617.29999999999995</ele>
        <time>2018-09-19T09:26:28Z</time>
      </trkpt>
      <trkpt lat="48.265673965215683" lon="9.473008029162884">
        <ele>617.29999999999995</ele>
        <time>2018-09-19T09:26:29Z</time>
      </trkpt>
      <trkpt lat="48.265945035964251" lon="9.475317997857928">
        <ele>623.07000000000005</ele>
        <time>2018-09-19T09:26:37Z</time>
      </trkpt>
      <trkpt lat="48.26603002846241" lon="9.47579400613904">
        <ele>624.99000000000001</ele>
        <time>2018-09-19T09:26:39Z</time>
      </trkpt>
      <trkpt lat="48.266113009303808" lon="9.476030040532351">
        <ele>625.96000000000004</ele>
        <time>2018-09-19T09:26:40Z</time>
      </trkpt>
      <trkpt lat="48.266196995973587" lon="9.47624403052032">
        <ele>626.44000000000005</ele>
        <time>2018-09-19T09:26:41Z</time>
      </trkpt>
      <trkpt lat="48.266324987635016" lon="9.476406974717975">
        <ele>626.91999999999996</ele>
        <time>2018-09-19T09:26:42Z</time>
      </trkpt>
      <trkpt lat="48.266473012045026" lon="9.476556004956365">
        <ele>627.39999999999998</ele>
        <time>2018-09-19T09:26:43Z</time>
      </trkpt>
      <trkpt lat="48.266650959849358" lon="9.476629011332989">
        <ele>627.88</ele>
        <time>2018-09-19T09:26:44Z</time>
      </trkpt>
      <trkpt lat="48.266840977594256" lon="9.476672010496259">
        <ele>628.36000000000001</ele>
        <time>2018-09-19T09:26:45Z</time>
      </trkpt>
      <trkpt lat="48.26704197563231" lon="9.476718027144671">
        <ele>629.32000000000005</ele>
        <time>2018-09-19T09:26:46Z</time>
      </trkpt>
      <trkpt lat="48.268128018826246" lon="9.476710986346006">
        <ele>632.67999999999995</ele>
        <time>2018-09-19T09:26:51Z</time>
      </trkpt>
      <trkpt lat="48.268343014642596" lon="9.476639991626144">
        <ele>633.64999999999998</ele>
        <time>2018-09-19T09:26:52Z</time>
      </trkpt>
      <trkpt lat="48.269852008670568" lon="9.475871035829186">
        <ele>640.38</ele>
        <time>2018-09-19T09:26:59Z</time>
      </trkpt>
      <trkpt lat="48.271399978548288" lon="9.47538698092103">
        <ele>651.42999999999995</ele>
        <time>2018-09-19T09:27:07Z</time>
      </trkpt>
      <trkpt lat="48.272533966228366" lon="9.47519201785326">
        <ele>659.60000000000002</ele>
        <time>2018-09-19T09:27:15Z</time>
      </trkpt>
      <trkpt lat="48.273423034697771" lon="9.475066959857941">
        <ele>662.97000000000003</ele>
        <time>2018-09-19T09:27:23Z</time>
      </trkpt>
      <trkpt lat="48.273542979732156" lon="9.475096967071295">
        <ele>662.97000000000003</ele>
        <time>2018-09-19T09:27:24Z</time>
      </trkpt>
      <trkpt lat="48.273778008297086" lon="9.475182965397835">
        <ele>663.45000000000005</ele>
        <time>2018-09-19T09:27:26Z</time>
      </trkpt>
      <trkpt lat="48.274224009364843" lon="9.475406007841229">
        <ele>664.40999999999997</ele>
        <time>2018-09-19T09:27:30Z</time>
      </trkpt>
      <trkpt lat="48.274340014904737" lon="9.475416988134384">
        <ele>664.88999999999999</ele>
        <time>2018-09-19T09:27:31Z</time>
      </trkpt>
      <trkpt lat="48.274456020444632" lon="9.475391004234552">
        <ele>665.37</ele>
        <time>2018-09-19T09:27:32Z</time>
      </trkpt>
      <trkpt lat="48.274569008499384" lon="9.475358985364437">
        <ele>665.85000000000002</ele>
        <time>2018-09-19T09:27:33Z</time>
      </trkpt>
      <trkpt lat="48.274681996554136" lon="9.475326966494322">
        <ele>666.33000000000004</ele>
        <time>2018-09-19T09:27:34Z</time>
      </trkpt>
      <trkpt lat="48.275232017040253" lon="9.475099984556437">
        <ele>669.22000000000003</ele>
        <time>2018-09-19T09:27:39Z</time>
      </trkpt>
      <trkpt lat="48.275517001748085" lon="9.475006023421884">
        <ele>670.17999999999995</ele>
        <time>2018-09-19T09:27:42Z</time>
      </trkpt>
      <trkpt lat="48.275589002296329" lon="9.475017003715038">
        <ele>670.17999999999995</ele>
        <time>2018-09-19T09:27:43Z</time>
      </trkpt>
      <trkpt lat="48.27565697953105" lon="9.475116999819875">
        <ele>670.17999999999995</ele>
        <time>2018-09-19T09:27:44Z</time>
      </trkpt>
      <trkpt lat="48.275690004229546" lon="9.47523401118815">
        <ele>670.17999999999995</ele>
        <time>2018-09-19T09:27:45Z</time>
      </trkpt>
      <trkpt lat="48.275705007836223" lon="9.475368037819862">
        <ele>670.65999999999997</ele>
        <time>2018-09-19T09:27:46Z</time>
      </trkpt>
      <trkpt lat="48.275722023099661" lon="9.475520001724362">
        <ele>671.13999999999999</ele>
        <time>2018-09-19T09:27:47Z</time>
      </trkpt>
      <trkpt lat="48.275814978405833" lon="9.47635299526155">
        <ele>669.22000000000003</ele>
        <time>2018-09-19T09:27:52Z</time>
      </trkpt>
      <trkpt lat="48.275832999497652" lon="9.476514011621475">
        <ele>668.25</ele>
        <time>2018-09-19T09:27:53Z</time>
      </trkpt>
      <trkpt lat="48.275879016146064" lon="9.476836966350675">
        <ele>667.28999999999996</ele>
        <time>2018-09-19T09:27:55Z</time>
      </trkpt>
      <trkpt lat="48.275901982560754" lon="9.476993037387729">
        <ele>666.80999999999995</ele>
        <time>2018-09-19T09:27:56Z</time>
      </trkpt>
      <trkpt lat="48.275965014472604" lon="9.47742504067719">
        <ele>664.88999999999999</ele>
        <time>2018-09-19T09:27:59Z</time>
      </trkpt>
      <trkpt lat="48.276035003364086" lon="9.477538028731942">
        <ele>664.88999999999999</ele>
        <time>2018-09-19T09:28:00Z</time>
      </trkpt>
      <trkpt lat="48.276098035275936" lon="9.477640958502889">
        <ele>664.88999999999999</ele>
        <time>2018-09-19T09:28:01Z</time>
      </trkpt>
      <trkpt lat="48.276169029995799" lon="9.477723017334938">
        <ele>664.40999999999997</ele>
        <time>2018-09-19T09:28:02Z</time>
      </trkpt>
      <trkpt lat="48.276261985301971" lon="9.477778002619743">
        <ele>663.92999999999995</ele>
        <time>2018-09-19T09:28:03Z</time>
      </trkpt>
      <trkpt lat="48.276357036083937" lon="9.477833993732929">
        <ele>663.92999999999995</ele>
        <time>2018-09-19T09:28:04Z</time>
      </trkpt>
      <trkpt lat="48.276989031583071" lon="9.478160971775651">
        <ele>663.45000000000005</ele>
        <time>2018-09-19T09:28:10Z</time>
      </trkpt>
      <trkpt lat="48.278409009799361" lon="9.478762960061431">
        <ele>666.33000000000004</ele>
        <time>2018-09-19T09:28:23Z</time>
      </trkpt>
      <trkpt lat="48.279630001634359" lon="9.479251960292459">
        <ele>668.73000000000002</ele>
        <time>2018-09-19T09:28:34Z</time>
      </trkpt>
      <trkpt lat="48.279697978869081" lon="9.479420017451048">
        <ele>668.25</ele>
        <time>2018-09-19T09:28:35Z</time>
      </trkpt>
      <trkpt lat="48.279892019927502" lon="9.479334019124508">
        <ele>668.25</ele>
        <time>2018-09-19T09:28:36Z</time>
      </trkpt>
      <trkpt lat="48.279928984120488" lon="9.479349022731185">
        <ele>667.76999999999998</ele>
        <time>2018-09-19T09:28:37Z</time>
      </trkpt>
      <trkpt lat="48.280044989660382" lon="9.479394033551216">
        <ele>667.76999999999998</ele>
        <time>2018-09-19T09:28:38Z</time>
      </trkpt>
      <trkpt lat="48.280178010463715" lon="9.47944600135088">
        <ele>667.28999999999996</ele>
        <time>2018-09-19T09:28:39Z</time>
      </trkpt>
      <trkpt lat="48.280327040702105" lon="9.479505009949207">
        <ele>666.80999999999995</ele>
        <time>2018-09-19T09:28:40Z</time>
      </trkpt>
      <trkpt lat="48.281661020591855" lon="9.47996199131012">
        <ele>662.00999999999999</ele>
        <time>2018-09-19T09:28:47Z</time>
      </trkpt>
      <trkpt lat="48.283365983515978" lon="9.480340015143156">
        <ele>660.08000000000004</ele>
        <time>2018-09-19T09:28:54Z</time>
      </trkpt>
      <trkpt lat="48.285622978582978" lon="9.480515029281378">
        <ele>663.92999999999995</ele>
        <time>2018-09-19T09:29:03Z</time>
      </trkpt>
      <trkpt lat="48.287373036146164" lon="9.479991998523474">
        <ele>658.15999999999997</ele>
        <time>2018-09-19T09:29:10Z</time>
      </trkpt>
      <trkpt lat="48.288386994972825" lon="9.479716988280416">
        <ele>652.87</ele>
        <time>2018-09-19T09:29:14Z</time>
      </trkpt>
      <trkpt lat="48.288621017709374" lon="9.479586984962225">
        <ele>651.42999999999995</ele>
        <time>2018-09-19T09:29:15Z</time>
      </trkpt>
      <trkpt lat="48.288846993818879" lon="9.479436026886106">
        <ele>649.99000000000001</ele>
        <time>2018-09-19T09:29:16Z</time>
      </trkpt>
      <trkpt lat="48.290101010352373" lon="9.478492978960276">
        <ele>641.34000000000003</ele>
        <time>2018-09-19T09:29:22Z</time>
      </trkpt>
      <trkpt lat="48.290305025875568" lon="9.478448973968625">
        <ele>639.88999999999999</ele>
        <time>2018-09-19T09:29:23Z</time>
      </trkpt>
      <trkpt lat="48.290505018085241" lon="9.478405974805355">
        <ele>638.45000000000005</ele>
        <time>2018-09-19T09:29:24Z</time>
      </trkpt>
      <trkpt lat="48.290700986981392" lon="9.478440005332232">
        <ele>637.00999999999999</ele>
        <time>2018-09-19T09:29:25Z</time>
      </trkpt>
      <trkpt lat="48.290894022211432" lon="9.478517035022378">
        <ele>635.57000000000005</ele>
        <time>2018-09-19T09:29:26Z</time>
      </trkpt>
      <trkpt lat="48.29106199555099" lon="9.478671010583639">
        <ele>634.61000000000001</ele>
        <time>2018-09-19T09:29:27Z</time>
      </trkpt>
      <trkpt lat="48.291221000254154" lon="9.478819034993649">
        <ele>634.61000000000001</ele>
        <time>2018-09-19T09:29:28Z</time>
      </trkpt>
      <trkpt lat="48.291358966380358" lon="9.479050040245056">
        <ele>634.61000000000001</ele>
        <time>2018-09-19T09:29:29Z</time>
      </trkpt>
      <trkpt lat="48.291492993012071" lon="9.479282973334193">
        <ele>635.09000000000003</ele>
        <time>2018-09-19T09:29:30Z</time>
      </trkpt>
      <trkpt lat="48.291603969410062" lon="9.479551026597619">
        <ele>636.04999999999995</ele>
        <time>2018-09-19T09:29:31Z</time>
      </trkpt>
      <trkpt lat="48.292218027636409" lon="9.480882994830608">
        <ele>639.40999999999997</ele>
        <time>2018-09-19T09:29:36Z</time>
      </trkpt>
      <trkpt lat="48.292381977662444" lon="9.481092961505055">
        <ele>639.88999999999999</ele>
        <time>2018-09-19T09:29:37Z</time>
      </trkpt>
      <trkpt lat="48.292550034821033" lon="9.481285996735096">
        <ele>639.88999999999999</ele>
        <time>2018-09-19T09:29:38Z</time>
      </trkpt>
      <trkpt lat="48.292721025645733" lon="9.481439972296357">
        <ele>639.88999999999999</ele>
        <time>2018-09-19T09:29:39Z</time>
      </trkpt>
      <trkpt lat="48.29288799315691" lon="9.481590008363128">
        <ele>639.88999999999999</ele>
        <time>2018-09-19T09:29:40Z</time>
      </trkpt>
      <trkpt lat="48.293741019442677" lon="9.482329040765762">
        <ele>636.04999999999995</ele>
        <time>2018-09-19T09:29:45Z</time>
      </trkpt>
      <trkpt lat="48.293866999447346" lon="9.482498019933701">
        <ele>635.09000000000003</ele>
        <time>2018-09-19T09:29:46Z</time>
      </trkpt>
      <trkpt lat="48.293957021087408" lon="9.482683008536696">
        <ele>634.13</ele>
        <time>2018-09-19T09:29:47Z</time>
      </trkpt>
      <trkpt lat="48.294017035514116" lon="9.482883000746369">
        <ele>633.64999999999998</ele>
        <time>2018-09-19T09:29:48Z</time>
      </trkpt>
      <trkpt lat="48.294058023020625" lon="9.483085004612804">
        <ele>632.67999999999995</ele>
        <time>2018-09-19T09:29:49Z</time>
      </trkpt>
      <trkpt lat="48.29407000914216" lon="9.483290025964379">
        <ele>631.72000000000003</ele>
        <time>2018-09-19T09:29:50Z</time>
      </trkpt>
      <trkpt lat="48.29404603689909" lon="9.483500998467207">
        <ele>630.75999999999999</ele>
        <time>2018-09-19T09:29:51Z</time>
      </trkpt>
      <trkpt lat="48.293990967795253" lon="9.483708031475544">
        <ele>630.27999999999997</ele>
        <time>2018-09-19T09:29:52Z</time>
      </trkpt>
      <trkpt lat="48.293931959196925" lon="9.483929984271526">
        <ele>629.32000000000005</ele>
        <time>2018-09-19T09:29:53Z</time>
      </trkpt>
      <trkpt lat="48.29387404024601" lon="9.484150009229779">
        <ele>628.36000000000001</ele>
        <time>2018-09-19T09:29:54Z</time>
      </trkpt>
      <trkpt lat="48.293548990041018" lon="9.485321966931224">
        <ele>621.14999999999998</ele>
        <time>2018-09-19T09:30:00Z</time>
      </trkpt>
      <trkpt lat="48.293496016412973" lon="9.485427998006344">
        <ele>619.71000000000004</ele>
        <time>2018-09-19T09:30:01Z</time>
      </trkpt>
      <trkpt lat="48.293394008651376" lon="9.485561018809676">
        <ele>617.77999999999997</ele>
        <time>2018-09-19T09:30:02Z</time>
      </trkpt>
      <trkpt lat="48.293281020596623" lon="9.485707031562924">
        <ele>616.34000000000003</ele>
        <time>2018-09-19T09:30:03Z</time>
      </trkpt>
      <trkpt lat="48.293197033926845" lon="9.485771991312504">
        <ele>614.89999999999998</ele>
        <time>2018-09-19T09:30:04Z</time>
      </trkpt>
      <trkpt lat="48.293078010901809" lon="9.485864024609327">
        <ele>613.46000000000004</ele>
        <time>2018-09-19T09:30:05Z</time>
      </trkpt>
      <trkpt lat="48.292957982048392" lon="9.4859569799155">
        <ele>612.01999999999998</ele>
        <time>2018-09-19T09:30:06Z</time>
      </trkpt>
      <trkpt lat="48.292837031185627" lon="9.486050019040704">
        <ele>610.57000000000005</ele>
        <time>2018-09-19T09:30:07Z</time>
      </trkpt>
      <trkpt lat="48.29271599650383" lon="9.486142974346876">
        <ele>609.61000000000001</ele>
        <time>2018-09-19T09:30:08Z</time>
      </trkpt>
      <trkpt lat="48.292595967650414" lon="9.48623601347208">
        <ele>608.16999999999996</ele>
        <time>2018-09-19T09:30:09Z</time>
      </trkpt>
      <trkpt lat="48.292490020394325" lon="9.486358975991607">
        <ele>606.73000000000002</ele>
        <time>2018-09-19T09:30:10Z</time>
      </trkpt>
      <trkpt lat="48.292393041774631" lon="9.486533990129829">
        <ele>605.76999999999998</ele>
        <time>2018-09-19T09:30:11Z</time>
      </trkpt>
      <trkpt lat="48.292293967679143" lon="9.486747980117798">
        <ele>604.33000000000004</ele>
        <time>2018-09-19T09:30:12Z</time>
      </trkpt>
      <trkpt lat="48.292219033464789" lon="9.487004969269037">
        <ele>603.36000000000001</ele>
        <time>2018-09-19T09:30:13Z</time>
      </trkpt>
      <trkpt lat="48.292158013209701" lon="9.487303029745817">
        <ele>602.39999999999998</ele>
        <time>2018-09-19T09:30:14Z</time>
      </trkpt>
      <trkpt lat="48.292139992117882" lon="9.487600000575185">
        <ele>600.96000000000004</ele>
        <time>2018-09-19T09:30:15Z</time>
      </trkpt>
      <trkpt lat="48.292122976854444" lon="9.48789001442492">
        <ele>600</ele>
        <time>2018-09-19T09:30:16Z</time>
      </trkpt>
      <trkpt lat="48.292143009603024" lon="9.488164018839598">
        <ele>599.03999999999996</ele>
        <time>2018-09-19T09:30:17Z</time>
      </trkpt>
      <trkpt lat="48.292203024029732" lon="9.488422013819218">
        <ele>598.08000000000004</ele>
        <time>2018-09-19T09:30:18Z</time>
      </trkpt>
      <trkpt lat="48.292263960465789" lon="9.488676991313696">
        <ele>596.63999999999999</ele>
        <time>2018-09-19T09:30:19Z</time>
      </trkpt>
      <trkpt lat="48.292364040389657" lon="9.488924006000161">
        <ele>595.66999999999996</ele>
        <time>2018-09-19T09:30:20Z</time>
      </trkpt>
      <trkpt lat="48.292464958503842" lon="9.489160962402821">
        <ele>594.23000000000002</ele>
        <time>2018-09-19T09:30:21Z</time>
      </trkpt>
      <trkpt lat="48.292824039235711" lon="9.490414978936315">
        <ele>586.53999999999996</ele>
        <time>2018-09-19T09:30:26Z</time>
      </trkpt>
      <trkpt lat="48.29284499399364" lon="9.490656964480877">
        <ele>585.10000000000002</ele>
        <time>2018-09-19T09:30:27Z</time>
      </trkpt>
      <trkpt lat="48.292859997600317" lon="9.490875983610749">
        <ele>584.13999999999999</ele>
        <time>2018-09-19T09:30:28Z</time>
      </trkpt>
      <trkpt lat="48.292984971776605" lon="9.491990022361279">
        <ele>579.33000000000004</ele>
        <time>2018-09-19T09:30:35Z</time>
      </trkpt>
      <trkpt lat="48.293020008131862" lon="9.492128994315863">
        <ele>578.85000000000002</ele>
        <time>2018-09-19T09:30:36Z</time>
      </trkpt>
      <trkpt lat="48.293068958446383" lon="9.492268972098827">
        <ele>578.85000000000002</ele>
        <time>2018-09-19T09:30:37Z</time>
      </trkpt>
      <trkpt lat="48.293144982308149" lon="9.492391012609005">
        <ele>578.37</ele>
        <time>2018-09-19T09:30:38Z</time>
      </trkpt>
      <trkpt lat="48.293250007554889" lon="9.492451027035713">
        <ele>577.88999999999999</ele>
        <time>2018-09-19T09:30:39Z</time>
      </trkpt>
      <trkpt lat="48.293342040851712" lon="9.492496959865093">
        <ele>577.88999999999999</ele>
        <time>2018-09-19T09:30:40Z</time>
      </trkpt>
      <trkpt lat="48.293441031128168" lon="9.492491008713841">
        <ele>577.88999999999999</ele>
        <time>2018-09-19T09:30:41Z</time>
      </trkpt>
      <trkpt lat="48.293539015576243" lon="9.492467036470771">
        <ele>577.88999999999999</ele>
        <time>2018-09-19T09:30:42Z</time>
      </trkpt>
      <trkpt lat="48.293644962832332" lon="9.492428982630372">
        <ele>577.88999999999999</ele>
        <time>2018-09-19T09:30:43Z</time>
      </trkpt>
      <trkpt lat="48.293744036927819" lon="9.492349019274116">
        <ele>577.88999999999999</ele>
        <time>2018-09-19T09:30:44Z</time>
      </trkpt>
      <trkpt lat="48.293847972527146" lon="9.492266038432717">
        <ele>577.88999999999999</ele>
        <time>2018-09-19T09:30:45Z</time>
      </trkpt>
      <trkpt lat="48.293954003602266" lon="9.492180962115526">
        <ele>578.37</ele>
        <time>2018-09-19T09:30:46Z</time>
      </trkpt>
      <trkpt lat="48.294075038284063" lon="9.492099992930889">
        <ele>577.88999999999999</ele>
        <time>2018-09-19T09:30:47Z</time>
      </trkpt>
      <trkpt lat="48.294203029945493" lon="9.492089012637734">
        <ele>577.88999999999999</ele>
        <time>2018-09-19T09:30:48Z</time>
      </trkpt>
      <trkpt lat="48.294310988858342" lon="9.492079960182309">
        <ele>577.88999999999999</ele>
        <time>2018-09-19T09:30:49Z</time>
      </trkpt>
      <trkpt lat="48.294458007439971" lon="9.492111979052424">
        <ele>577.88999999999999</ele>
        <time>2018-09-19T09:30:50Z</time>
      </trkpt>
      <trkpt lat="48.2945859991014" lon="9.492139974609017">
        <ele>577.88999999999999</ele>
        <time>2018-09-19T09:30:51Z</time>
      </trkpt>
      <trkpt lat="48.294711979106069" lon="9.49216696433723">
        <ele>577.88999999999999</ele>
        <time>2018-09-19T09:30:52Z</time>
      </trkpt>
      <trkpt lat="48.294836031273007" lon="9.492214992642403">
        <ele>578.37</ele>
        <time>2018-09-19T09:30:53Z</time>
      </trkpt>
      <trkpt lat="48.294942984357476" lon="9.492307025939226">
        <ele>578.37</ele>
        <time>2018-09-19T09:30:54Z</time>
      </trkpt>
      <trkpt lat="48.295048009604216" lon="9.492398975417018">
        <ele>578.85000000000002</ele>
        <time>2018-09-19T09:30:55Z</time>
      </trkpt>
      <trkpt lat="48.295155968517065" lon="9.492496037855744">
        <ele>578.85000000000002</ele>
        <time>2018-09-19T09:30:56Z</time>
      </trkpt>
      <trkpt lat="48.295728033408523" lon="9.493017978966236">
        <ele>579.80999999999995</ele>
        <time>2018-09-19T09:31:01Z</time>
      </trkpt>
      <trkpt lat="48.295867005363107" lon="9.493091991171241">
        <ele>579.80999999999995</ele>
        <time>2018-09-19T09:31:02Z</time>
      </trkpt>
      <trkpt lat="48.296635961160064" lon="9.493316961452365">
        <ele>581.73000000000002</ele>
        <time>2018-09-19T09:31:07Z</time>
      </trkpt>
      <trkpt lat="48.296762024983764" lon="9.49328301474452">
        <ele>581.73000000000002</ele>
        <time>2018-09-19T09:31:08Z</time>
      </trkpt>
      <trkpt lat="48.296877024695277" lon="9.49321998283267">
        <ele>582.22000000000003</ele>
        <time>2018-09-19T09:31:09Z</time>
      </trkpt>
      <trkpt lat="48.296976014971733" lon="9.493098026141524">
        <ele>582.70000000000005</ele>
        <time>2018-09-19T09:31:10Z</time>
      </trkpt>
      <trkpt lat="48.297062013298273" lon="9.492956958711147">
        <ele>582.70000000000005</ele>
        <time>2018-09-19T09:31:11Z</time>
      </trkpt>
      <trkpt lat="48.297113981097937" lon="9.492771970108151">
        <ele>582.70000000000005</ele>
        <time>2018-09-19T09:31:12Z</time>
      </trkpt>
      <trkpt lat="48.297149017453194" lon="9.492565020918846">
        <ele>582.70000000000005</ele>
        <time>2018-09-19T09:31:13Z</time>
      </trkpt>
      <trkpt lat="48.2971849758178" lon="9.492344995960593">
        <ele>583.17999999999995</ele>
        <time>2018-09-19T09:31:14Z</time>
      </trkpt>
      <trkpt lat="48.297340041026473" lon="9.491515019908547">
        <ele>583.17999999999995</ele>
        <time>2018-09-19T09:31:18Z</time>
      </trkpt>
      <trkpt lat="48.29740097746253" lon="9.49139398522675">
        <ele>583.17999999999995</ele>
        <time>2018-09-19T09:31:19Z</time>
      </trkpt>
      <trkpt lat="48.297497034072876" lon="9.491308992728591">
        <ele>583.17999999999995</ele>
        <time>2018-09-19T09:31:20Z</time>
      </trkpt>
      <trkpt lat="48.297584960237145" lon="9.491230035200715">
        <ele>583.65999999999997</ele>
        <time>2018-09-19T09:31:21Z</time>
      </trkpt>
      <trkpt lat="48.297690991312265" lon="9.49122198857367">
        <ele>583.65999999999997</ele>
        <time>2018-09-19T09:31:22Z</time>
      </trkpt>
      <trkpt lat="48.297804985195398" lon="9.491239003837109">
        <ele>583.65999999999997</ele>
        <time>2018-09-19T09:31:23Z</time>
      </trkpt>
      <trkpt lat="48.297930965200067" lon="9.491294994950295">
        <ele>583.65999999999997</ele>
        <time>2018-09-19T09:31:24Z</time>
      </trkpt>
      <trkpt lat="48.298071026802063" lon="9.491357021033764">
        <ele>583.65999999999997</ele>
        <time>2018-09-19T09:31:25Z</time>
      </trkpt>
      <trkpt lat="48.298535970970988" lon="9.491581991314888">
        <ele>584.13999999999999</ele>
        <time>2018-09-19T09:31:28Z</time>
      </trkpt>
      <trkpt lat="48.298677960410714" lon="9.49171400628984">
        <ele>584.13999999999999</ele>
        <time>2018-09-19T09:31:29Z</time>
      </trkpt>
      <trkpt lat="48.29881701618433" lon="9.49184400960803">
        <ele>584.13999999999999</ele>
        <time>2018-09-19T09:31:30Z</time>
      </trkpt>
      <trkpt lat="48.298909971490502" lon="9.492028998211026">
        <ele>583.65999999999997</ele>
        <time>2018-09-19T09:31:31Z</time>
      </trkpt>
      <trkpt lat="48.298995969817042" lon="9.492236031219363">
        <ele>583.65999999999997</ele>
        <time>2018-09-19T09:31:32Z</time>
      </trkpt>
      <trkpt lat="48.299067970365286" lon="9.49246603064239">
        <ele>583.65999999999997</ele>
        <time>2018-09-19T09:31:33Z</time>
      </trkpt>
      <trkpt lat="48.299143994227052" lon="9.492707010358572">
        <ele>583.65999999999997</ele>
        <time>2018-09-19T09:31:34Z</time>
      </trkpt>
      <trkpt lat="48.299293024465442" lon="9.493182012811303">
        <ele>584.62</ele>
        <time>2018-09-19T09:31:36Z</time>
      </trkpt>
      <trkpt lat="48.299402995035052" lon="9.49336800724268">
        <ele>584.62</ele>
        <time>2018-09-19T09:31:37Z</time>
      </trkpt>
      <trkpt lat="48.29952503554523" lon="9.493537992238998">
        <ele>584.13999999999999</ele>
        <time>2018-09-19T09:31:38Z</time>
      </trkpt>
      <trkpt lat="48.299684040248394" lon="9.493641005828977">
        <ele>584.13999999999999</ele>
        <time>2018-09-19T09:31:39Z</time>
      </trkpt>
      <trkpt lat="48.29984899610281" lon="9.493747036904097">
        <ele>584.13999999999999</ele>
        <time>2018-09-19T09:31:40Z</time>
      </trkpt>
      <trkpt lat="48.301191022619605" lon="9.494515992701054">
        <ele>584.62</ele>
        <time>2018-09-19T09:31:48Z</time>
      </trkpt>
      <trkpt lat="48.3015660289675" lon="9.494749009609222">
        <ele>585.10000000000002</ele>
        <time>2018-09-19T09:31:51Z</time>
      </trkpt>
      <trkpt lat="48.301660995930433" lon="9.494843976572156">
        <ele>584.62</ele>
        <time>2018-09-19T09:31:52Z</time>
      </trkpt>
      <trkpt lat="48.301752023398876" lon="9.494942966848612">
        <ele>584.62</ele>
        <time>2018-09-19T09:31:53Z</time>
      </trkpt>
      <trkpt lat="48.301844978705049" lon="9.495042040944099">
        <ele>584.62</ele>
        <time>2018-09-19T09:31:54Z</time>
      </trkpt>
      <trkpt lat="48.30193298868835" lon="9.495155028998852">
        <ele>584.62</ele>
        <time>2018-09-19T09:31:55Z</time>
      </trkpt>
      <trkpt lat="48.302502958104014" lon="9.496020963415504">
        <ele>583.17999999999995</ele>
        <time>2018-09-19T09:32:02Z</time>
      </trkpt>
      <trkpt lat="48.302593985572457" lon="9.496178962290287">
        <ele>583.17999999999995</ele>
        <time>2018-09-19T09:32:03Z</time>
      </trkpt>
      <trkpt lat="48.302635978907347" lon="9.496307037770748">
        <ele>583.65999999999997</ele>
        <time>2018-09-19T09:32:04Z</time>
      </trkpt>
      <trkpt lat="48.30268400721252" lon="9.496466964483261">
        <ele>584.13999999999999</ele>
        <time>2018-09-19T09:32:05Z</time>
      </trkpt>
      <trkpt lat="48.302709991112351" lon="9.496638039126992">
        <ele>584.13999999999999</ele>
        <time>2018-09-19T09:32:06Z</time>
      </trkpt>
      <trkpt lat="48.302735975012183" lon="9.496809029951692">
        <ele>584.62</ele>
        <time>2018-09-19T09:32:07Z</time>
      </trkpt>
      <trkpt lat="48.302853992208838" lon="9.497490981593728">
        <ele>584.62</ele>
        <time>2018-09-19T09:32:11Z</time>
      </trkpt>
      <trkpt lat="48.302905960008502" lon="9.497640011832118">
        <ele>584.13999999999999</ele>
        <time>2018-09-19T09:32:12Z</time>
      </trkpt>
      <trkpt lat="48.302979972213507" lon="9.497788958251476">
        <ele>584.13999999999999</ele>
        <time>2018-09-19T09:32:13Z</time>
      </trkpt>
      <trkpt lat="48.303075022995472" lon="9.497932037338615">
        <ele>584.13999999999999</ele>
        <time>2018-09-19T09:32:14Z</time>
      </trkpt>
      <trkpt lat="48.30320100300014" lon="9.498070003464818">
        <ele>584.13999999999999</ele>
        <time>2018-09-19T09:32:15Z</time>
      </trkpt>
      <trkpt lat="48.303357996046543" lon="9.498148038983345">
        <ele>584.13999999999999</ele>
        <time>2018-09-19T09:32:16Z</time>
      </trkpt>
      <trkpt lat="48.303524041548371" lon="9.498231019824743">
        <ele>584.13999999999999</ele>
        <time>2018-09-19T09:32:17Z</time>
      </trkpt>
      <trkpt lat="48.30369402654469" lon="9.498317018151283">
        <ele>584.13999999999999</ele>
        <time>2018-09-19T09:32:18Z</time>
      </trkpt>
      <trkpt lat="48.303881026804447" lon="9.498409973457456">
        <ele>584.13999999999999</ele>
        <time>2018-09-19T09:32:19Z</time>
      </trkpt>
      <trkpt lat="48.304014969617128" lon="9.498579958453775">
        <ele>584.13999999999999</ele>
        <time>2018-09-19T09:32:20Z</time>
      </trkpt>
      <trkpt lat="48.304140027612448" lon="9.498794032260776">
        <ele>584.13999999999999</ele>
        <time>2018-09-19T09:32:21Z</time>
      </trkpt>
      <trkpt lat="48.304205993190408" lon="9.499037023633719">
        <ele>584.13999999999999</ele>
        <time>2018-09-19T09:32:22Z</time>
      </trkpt>
      <trkpt lat="48.304257038980722" lon="9.499285966157913">
        <ele>584.13999999999999</ele>
        <time>2018-09-19T09:32:23Z</time>
      </trkpt>
      <trkpt lat="48.304286040365696" lon="9.499544966965914">
        <ele>584.13999999999999</ele>
        <time>2018-09-19T09:32:24Z</time>
      </trkpt>
      <trkpt lat="48.304315963760018" lon="9.499810002744198">
        <ele>584.62</ele>
        <time>2018-09-19T09:32:25Z</time>
      </trkpt>
      <trkpt lat="48.304345970973372" lon="9.500081995502114">
        <ele>584.62</ele>
        <time>2018-09-19T09:32:26Z</time>
      </trkpt>
      <trkpt lat="48.304376984015107" lon="9.500350970774889">
        <ele>584.62</ele>
        <time>2018-09-19T09:32:27Z</time>
      </trkpt>
      <trkpt lat="48.304406991228461" lon="9.500616006553173">
        <ele>584.62</ele>
        <time>2018-09-19T09:32:28Z</time>
      </trkpt>
      <trkpt lat="48.304473962634802" lon="9.500863021239638">
        <ele>584.62</ele>
        <time>2018-09-19T09:32:29Z</time>
      </trkpt>
      <trkpt lat="48.304571025073528" lon="9.501070976257324">
        <ele>584.62</ele>
        <time>2018-09-19T09:32:30Z</time>
      </trkpt>
      <trkpt lat="48.304688958451152" lon="9.501234004274011">
        <ele>584.62</ele>
        <time>2018-09-19T09:32:31Z</time>
      </trkpt>
      <trkpt lat="48.304803958162665" lon="9.501393008977175">
        <ele>584.62</ele>
        <time>2018-09-19T09:32:32Z</time>
      </trkpt>
      <trkpt lat="48.304938990622759" lon="9.501466015353799">
        <ele>584.62</ele>
        <time>2018-09-19T09:32:33Z</time>
      </trkpt>
      <trkpt lat="48.305081985890865" lon="9.501526029780507">
        <ele>584.62</ele>
        <time>2018-09-19T09:32:34Z</time>
      </trkpt>
      <trkpt lat="48.305238978937268" lon="9.501541033387184">
        <ele>584.62</ele>
        <time>2018-09-19T09:32:35Z</time>
      </trkpt>
      <trkpt lat="48.305385997518897" lon="9.501476995646954">
        <ele>584.62</ele>
        <time>2018-09-19T09:32:36Z</time>
      </trkpt>
      <trkpt lat="48.305543996393681" lon="9.501398960128427">
        <ele>584.62</ele>
        <time>2018-09-19T09:32:37Z</time>
      </trkpt>
      <trkpt lat="48.305693026632071" lon="9.501316985115409">
        <ele>584.13999999999999</ele>
        <time>2018-09-19T09:32:38Z</time>
      </trkpt>
      <trkpt lat="48.3058210182935" lon="9.501144988462329">
        <ele>584.13999999999999</ele>
        <time>2018-09-19T09:32:39Z</time>
      </trkpt>
      <trkpt lat="48.305945992469788" lon="9.50097399763763">
        <ele>584.13999999999999</ele>
        <time>2018-09-19T09:32:40Z</time>
      </trkpt>
      <trkpt lat="48.306037019938231" lon="9.500742992386222">
        <ele>584.13999999999999</ele>
        <time>2018-09-19T09:32:41Z</time>
      </trkpt>
      <trkpt lat="48.306131986901164" lon="9.500504024326801">
        <ele>584.13999999999999</ele>
        <time>2018-09-19T09:32:42Z</time>
      </trkpt>
      <trkpt lat="48.306554015725851" lon="9.499606993049383">
        <ele>584.13999999999999</ele>
        <time>2018-09-19T09:32:46Z</time>
      </trkpt>
      <trkpt lat="48.306692987680435" lon="9.499460980296135">
        <ele>583.65999999999997</ele>
        <time>2018-09-19T09:32:47Z</time>
      </trkpt>
      <trkpt lat="48.306831959635019" lon="9.499342041090131">
        <ele>583.17999999999995</ele>
        <time>2018-09-19T09:32:48Z</time>
      </trkpt>
      <trkpt lat="48.30698300153017" lon="9.499284038320184">
        <ele>583.17999999999995</ele>
        <time>2018-09-19T09:32:49Z</time>
      </trkpt>
      <trkpt lat="48.307123985141516" lon="9.499253025278449">
        <ele>583.65999999999997</ele>
        <time>2018-09-19T09:32:50Z</time>
      </trkpt>
      <trkpt lat="48.30728298984468" lon="9.499272974207997">
        <ele>583.65999999999997</ele>
        <time>2018-09-19T09:32:51Z</time>
      </trkpt>
      <trkpt lat="48.307449035346508" lon="9.499304993078113">
        <ele>584.13999999999999</ele>
        <time>2018-09-19T09:32:52Z</time>
      </trkpt>
      <trkpt lat="48.307623965665698" lon="9.499402977526188">
        <ele>584.13999999999999</ele>
        <time>2018-09-19T09:32:53Z</time>
      </trkpt>
      <trkpt lat="48.307804008945823" lon="9.499503979459405">
        <ele>584.62</ele>
        <time>2018-09-19T09:32:54Z</time>
      </trkpt>
      <trkpt lat="48.309056013822556" lon="9.500397993251681">
        <ele>587.01999999999998</ele>
        <time>2018-09-19T09:33:01Z</time>
      </trkpt>
      <trkpt lat="48.309187022969127" lon="9.500580970197916">
        <ele>587.5</ele>
        <time>2018-09-19T09:33:02Z</time>
      </trkpt>
      <trkpt lat="48.309325994923711" lon="9.500732012093067">
        <ele>587.5</ele>
        <time>2018-09-19T09:33:03Z</time>
      </trkpt>
      <trkpt lat="48.309483993798494" lon="9.500820022076368">
        <ele>587.98000000000002</ele>
        <time>2018-09-19T09:33:04Z</time>
      </trkpt>
      <trkpt lat="48.309652972966433" lon="9.500872995704413">
        <ele>588.46000000000004</ele>
        <time>2018-09-19T09:33:05Z</time>
      </trkpt>
      <trkpt lat="48.309835027903318" lon="9.500918006524444">
        <ele>588.46000000000004</ele>
        <time>2018-09-19T09:33:06Z</time>
      </trkpt>
      <trkpt lat="48.310023033991456" lon="9.500899985432625">
        <ele>588.46000000000004</ele>
        <time>2018-09-19T09:33:07Z</time>
      </trkpt>
      <trkpt lat="48.310216991230845" lon="9.500880958512425">
        <ele>588.46000000000004</ele>
        <time>2018-09-19T09:33:08Z</time>
      </trkpt>
      <trkpt lat="48.310819985345006" lon="9.500784985721111">
        <ele>588.95000000000005</ele>
        <time>2018-09-19T09:33:11Z</time>
      </trkpt>
      <trkpt lat="48.311018971726298" lon="9.500814992934465">
        <ele>588.95000000000005</ele>
        <time>2018-09-19T09:33:12Z</time>
      </trkpt>
      <trkpt lat="48.311572009697556" lon="9.50095396488905">
        <ele>588.95000000000005</ele>
        <time>2018-09-19T09:33:15Z</time>
      </trkpt>
      <trkpt lat="48.311735959723592" lon="9.501043986529112">
        <ele>588.95000000000005</ele>
        <time>2018-09-19T09:33:16Z</time>
      </trkpt>
      <trkpt lat="48.311888007447124" lon="9.501148005947471">
        <ele>588.95000000000005</ele>
        <time>2018-09-19T09:33:17Z</time>
      </trkpt>
      <trkpt lat="48.311999989673495" lon="9.501304998993874">
        <ele>588.95000000000005</ele>
        <time>2018-09-19T09:33:18Z</time>
      </trkpt>
      <trkpt lat="48.312099985778332" lon="9.501480013132095">
        <ele>588.95000000000005</ele>
        <time>2018-09-19T09:33:19Z</time>
      </trkpt>
      <trkpt lat="48.312152959406376" lon="9.5017059892416">
        <ele>588.95000000000005</ele>
        <time>2018-09-19T09:33:20Z</time>
      </trkpt>
      <trkpt lat="48.31218003295362" lon="9.501960966736078">
        <ele>588.46000000000004</ele>
        <time>2018-09-19T09:33:21Z</time>
      </trkpt>
      <trkpt lat="48.312209034338593" lon="9.502236982807517">
        <ele>588.46000000000004</ele>
        <time>2018-09-19T09:33:22Z</time>
      </trkpt>
      <trkpt lat="48.312239963561296" lon="9.502526996657252">
        <ele>588.46000000000004</ele>
        <time>2018-09-19T09:33:23Z</time>
      </trkpt>
      <trkpt lat="48.312271982431412" lon="9.502828996628523">
        <ele>588.46000000000004</ele>
        <time>2018-09-19T09:33:24Z</time>
      </trkpt>
      <trkpt lat="48.312319004908204" lon="9.503135019913316">
        <ele>588.46000000000004</ele>
        <time>2018-09-19T09:33:25Z</time>
      </trkpt>
      <trkpt lat="48.312393017113209" lon="9.503441965207458">
        <ele>588.46000000000004</ele>
        <time>2018-09-19T09:33:26Z</time>
      </trkpt>
      <trkpt lat="48.312482032924891" lon="9.503741031512618">
        <ele>587.98000000000002</ele>
        <time>2018-09-19T09:33:27Z</time>
      </trkpt>
      <trkpt lat="48.312580017372966" lon="9.504034984856844">
        <ele>587.98000000000002</ele>
        <time>2018-09-19T09:33:28Z</time>
      </trkpt>
      <trkpt lat="48.312704991549253" lon="9.504299014806747">
        <ele>587.98000000000002</ele>
        <time>2018-09-19T09:33:29Z</time>
      </trkpt>
      <trkpt lat="48.312828959897161" lon="9.504547035321593">
        <ele>588.46000000000004</ele>
        <time>2018-09-19T09:33:30Z</time>
      </trkpt>
      <trkpt lat="48.31299701705575" lon="9.504750967025757">
        <ele>588.46000000000004</ele>
        <time>2018-09-19T09:33:31Z</time>
      </trkpt>
      <trkpt lat="48.313164990395308" lon="9.504940984770656">
        <ele>588.95000000000005</ele>
        <time>2018-09-19T09:33:32Z</time>
      </trkpt>
      <trkpt lat="48.313359031453729" lon="9.50509998947382">
        <ele>589.42999999999995</ele>
        <time>2018-09-19T09:33:33Z</time>
      </trkpt>
      <trkpt lat="48.313552988693118" lon="9.505258994176984">
        <ele>589.90999999999997</ele>
        <time>2018-09-19T09:33:34Z</time>
      </trkpt>
      <trkpt lat="48.315148986876011" lon="9.506365992128849">
        <ele>592.78999999999996</ele>
        <time>2018-09-19T09:33:42Z</time>
      </trkpt>
      <trkpt lat="48.315826999023557" lon="9.50681802816689">
        <ele>590.87</ele>
        <time>2018-09-19T09:33:46Z</time>
      </trkpt>
      <trkpt lat="48.315996984019876" lon="9.506845017895103">
        <ele>590.38999999999999</ele>
        <time>2018-09-19T09:33:47Z</time>
      </trkpt>
      <trkpt lat="48.316171998158097" lon="9.506864966824651">
        <ele>589.90999999999997</ele>
        <time>2018-09-19T09:33:48Z</time>
      </trkpt>
      <trkpt lat="48.317718040198088" lon="9.506877036765218">
        <ele>589.42999999999995</ele>
        <time>2018-09-19T09:33:56Z</time>
      </trkpt>
      <trkpt lat="48.318720012903214" lon="9.506858009845018">
        <ele>589.90999999999997</ele>
        <time>2018-09-19T09:34:03Z</time>
      </trkpt>
      <trkpt lat="48.319524005055428" lon="9.506705962121487">
        <ele>590.38999999999999</ele>
        <time>2018-09-19T09:34:10Z</time>
      </trkpt>
      <trkpt lat="48.320403015241027" lon="9.506224002689123">
        <ele>590.38999999999999</ele>
        <time>2018-09-19T09:34:18Z</time>
      </trkpt>
      <trkpt lat="48.320816997438669" lon="9.505881015211344">
        <ele>590.38999999999999</ele>
        <time>2018-09-19T09:34:22Z</time>
      </trkpt>
      <trkpt lat="48.320915987715125" lon="9.505774984136224">
        <ele>590.38999999999999</ele>
        <time>2018-09-19T09:34:23Z</time>
      </trkpt>
      <trkpt lat="48.32101296633482" lon="9.505670964717865">
        <ele>590.38999999999999</ele>
        <time>2018-09-19T09:34:24Z</time>
      </trkpt>
      <trkpt lat="48.32210898399353" lon="9.504344025626779">
        <ele>591.35000000000002</ele>
        <time>2018-09-19T09:34:36Z</time>
      </trkpt>
      <trkpt lat="48.32257803529501" lon="9.503586972132325">
        <ele>593.75</ele>
        <time>2018-09-19T09:34:42Z</time>
      </trkpt>
      <trkpt lat="48.322625979781151" lon="9.503434002399445">
        <ele>594.71000000000004</ele>
        <time>2018-09-19T09:34:43Z</time>
      </trkpt>
      <trkpt lat="48.322850028052926" lon="9.502487014979124">
        <ele>600</ele>
        <time>2018-09-19T09:34:49Z</time>
      </trkpt>
      <trkpt lat="48.322913981974125" lon="9.502385007217526">
        <ele>600.96000000000004</ele>
        <time>2018-09-19T09:34:50Z</time>
      </trkpt>
      <trkpt lat="48.322985982522368" lon="9.502303032204509">
        <ele>601.44000000000005</ele>
        <time>2018-09-19T09:34:51Z</time>
      </trkpt>
      <trkpt lat="48.323078015819192" lon="9.502263972535729">
        <ele>601.91999999999996</ele>
        <time>2018-09-19T09:34:52Z</time>
      </trkpt>
      <trkpt lat="48.323168959468603" lon="9.502275958657265">
        <ele>602.39999999999998</ele>
        <time>2018-09-19T09:34:53Z</time>
      </trkpt>
      <trkpt lat="48.323270967230201" lon="9.502316024154425">
        <ele>602.88</ele>
        <time>2018-09-19T09:34:54Z</time>
      </trkpt>
      <trkpt lat="48.32339501939714" lon="9.502364974468947">
        <ele>602.88</ele>
        <time>2018-09-19T09:34:55Z</time>
      </trkpt>
      <trkpt lat="48.324323985725641" lon="9.502736963331699">
        <ele>605.28999999999996</ele>
        <time>2018-09-19T09:35:01Z</time>
      </trkpt>
      <trkpt lat="48.324519032612443" lon="9.50273796916008">
        <ele>605.76999999999998</ele>
        <time>2018-09-19T09:35:02Z</time>
      </trkpt>
      <trkpt lat="48.324717013165355" lon="9.502729000523686">
        <ele>605.76999999999998</ele>
        <time>2018-09-19T09:35:03Z</time>
      </trkpt>
      <trkpt lat="48.324920022860169" lon="9.502697987481952">
        <ele>606.25</ele>
        <time>2018-09-19T09:35:04Z</time>
      </trkpt>
      <trkpt lat="48.325123032554984" lon="9.502626992762089">
        <ele>606.25</ele>
        <time>2018-09-19T09:35:05Z</time>
      </trkpt>
      <trkpt lat="48.325325958430767" lon="9.502555998042226">
        <ele>606.25</ele>
        <time>2018-09-19T09:35:06Z</time>
      </trkpt>
      <trkpt lat="48.325516982004046" lon="9.502423983067274">
        <ele>606.25</ele>
        <time>2018-09-19T09:35:07Z</time>
      </trkpt>
      <trkpt lat="48.325711023062468" lon="9.502286016941071">
        <ele>606.25</ele>
        <time>2018-09-19T09:35:08Z</time>
      </trkpt>
      <trkpt lat="48.325897017493844" lon="9.502117959782481">
        <ele>605.76999999999998</ele>
        <time>2018-09-19T09:35:09Z</time>
      </trkpt>
      <trkpt lat="48.326078988611698" lon="9.501930037513375">
        <ele>605.76999999999998</ele>
        <time>2018-09-19T09:35:10Z</time>
      </trkpt>
      <trkpt lat="48.328407984226942" lon="9.499627025797963">
        <ele>601.91999999999996</ele>
        <time>2018-09-19T09:35:22Z</time>
      </trkpt>
      <trkpt lat="48.329071998596191" lon="9.499088991433382">
        <ele>602.39999999999998</ele>
        <time>2018-09-19T09:35:26Z</time>
      </trkpt>
      <trkpt lat="48.329234020784497" lon="9.499031994491816">
        <ele>602.88</ele>
        <time>2018-09-19T09:35:27Z</time>
      </trkpt>
      <trkpt lat="48.32939000800252" lon="9.498986983671784">
        <ele>603.36000000000001</ele>
        <time>2018-09-19T09:35:28Z</time>
      </trkpt>
      <trkpt lat="48.329538032412529" lon="9.498974997550249">
        <ele>603.36000000000001</ele>
        <time>2018-09-19T09:35:29Z</time>
      </trkpt>
      <trkpt lat="48.3296690415591" lon="9.498981032520533">
        <ele>603.36000000000001</ele>
        <time>2018-09-19T09:35:30Z</time>
      </trkpt>
      <trkpt lat="48.329789992421865" lon="9.49902000837028">
        <ele>603.36000000000001</ele>
        <time>2018-09-19T09:35:31Z</time>
      </trkpt>
      <trkpt lat="48.329899962991476" lon="9.499054960906506">
        <ele>603.36000000000001</ele>
        <time>2018-09-19T09:35:32Z</time>
      </trkpt>
      <trkpt lat="48.330808980390429" lon="9.499439019709826">
        <ele>604.33000000000004</ele>
        <time>2018-09-19T09:35:41Z</time>
      </trkpt>
      <trkpt lat="48.33089598454535" lon="9.499562988057733">
        <ele>604.33000000000004</ele>
        <time>2018-09-19T09:35:42Z</time>
      </trkpt>
      <trkpt lat="48.330982988700271" lon="9.499686034396291">
        <ele>604.33000000000004</ele>
        <time>2018-09-19T09:35:43Z</time>
      </trkpt>
      <trkpt lat="48.331066975370049" lon="9.499805979430676">
        <ele>603.85000000000002</ele>
        <time>2018-09-19T09:35:44Z</time>
      </trkpt>
      <trkpt lat="48.331135036423802" lon="9.499963978305459">
        <ele>603.85000000000002</ele>
        <time>2018-09-19T09:35:45Z</time>
      </trkpt>
      <trkpt lat="48.331191027536988" lon="9.500135974958539">
        <ele>603.85000000000002</ele>
        <time>2018-09-19T09:35:46Z</time>
      </trkpt>
      <trkpt lat="48.331250958144665" lon="9.500321969389916">
        <ele>603.85000000000002</ele>
        <time>2018-09-19T09:35:47Z</time>
      </trkpt>
      <trkpt lat="48.331683967262506" lon="9.50157699175179">
        <ele>605.28999999999996</ele>
        <time>2018-09-19T09:35:53Z</time>
      </trkpt>
      <trkpt lat="48.331794021651149" lon="9.501763992011547">
        <ele>605.76999999999998</ele>
        <time>2018-09-19T09:35:54Z</time>
      </trkpt>
      <trkpt lat="48.331916984170675" lon="9.501926014199853">
        <ele>605.76999999999998</ele>
        <time>2018-09-19T09:35:55Z</time>
      </trkpt>
      <trkpt lat="48.332053022459149" lon="9.502074038609862">
        <ele>606.25</ele>
        <time>2018-09-19T09:35:56Z</time>
      </trkpt>
      <trkpt lat="48.332195011898875" lon="9.502205969765782">
        <ele>606.73000000000002</ele>
        <time>2018-09-19T09:35:57Z</time>
      </trkpt>
      <trkpt lat="48.332350999116898" lon="9.502288028597832">
        <ele>607.21000000000004</ele>
        <time>2018-09-19T09:35:58Z</time>
      </trkpt>
      <trkpt lat="48.332512015476823" lon="9.502345025539398">
        <ele>607.69000000000005</ele>
        <time>2018-09-19T09:35:59Z</time>
      </trkpt>
      <trkpt lat="48.332668002694845" lon="9.502365980297327">
        <ele>607.69000000000005</ele>
        <time>2018-09-19T09:36:00Z</time>
      </trkpt>
      <trkpt lat="48.332822984084487" lon="9.502376960590482">
        <ele>607.69000000000005</ele>
        <time>2018-09-19T09:36:01Z</time>
      </trkpt>
      <trkpt lat="48.332975031808019" lon="9.502349970862269">
        <ele>608.16999999999996</ele>
        <time>2018-09-19T09:36:02Z</time>
      </trkpt>
      <trkpt lat="48.333128001540899" lon="9.502305965870619">
        <ele>608.16999999999996</ele>
        <time>2018-09-19T09:36:03Z</time>
      </trkpt>
      <trkpt lat="48.333276025950909" lon="9.502231031656265">
        <ele>608.16999999999996</ele>
        <time>2018-09-19T09:36:04Z</time>
      </trkpt>
      <trkpt lat="48.333422960713506" lon="9.502143021672964">
        <ele>608.64999999999998</ele>
        <time>2018-09-19T09:36:05Z</time>
      </trkpt>
      <trkpt lat="48.334111031144857" lon="9.501572968438268">
        <ele>609.13</ele>
        <time>2018-09-19T09:36:10Z</time>
      </trkpt>
      <trkpt lat="48.334209015592933" lon="9.501389991492033">
        <ele>610.09000000000003</ele>
        <time>2018-09-19T09:36:11Z</time>
      </trkpt>
      <trkpt lat="48.334288978949189" lon="9.501187987625599">
        <ele>610.57000000000005</ele>
        <time>2018-09-19T09:36:12Z</time>
      </trkpt>
      <trkpt lat="48.334357040002942" lon="9.500978020951152">
        <ele>611.05999999999995</ele>
        <time>2018-09-19T09:36:13Z</time>
      </trkpt>
      <trkpt lat="48.334383023902774" lon="9.500740980729461">
        <ele>611.53999999999996</ele>
        <time>2018-09-19T09:36:14Z</time>
      </trkpt>
      <trkpt lat="48.334394004195929" lon="9.500488014891744">
        <ele>612.01999999999998</ele>
        <time>2018-09-19T09:36:15Z</time>
      </trkpt>
      <trkpt lat="48.334394004195929" lon="9.500232031568885">
        <ele>612.01999999999998</ele>
        <time>2018-09-19T09:36:16Z</time>
      </trkpt>
      <trkpt lat="48.334433985874057" lon="9.499745965003967">
        <ele>612.01999999999998</ele>
        <time>2018-09-19T09:36:18Z</time>
      </trkpt>
      <trkpt lat="48.334480002522469" lon="9.49951202608645">
        <ele>611.53999999999996</ele>
        <time>2018-09-19T09:36:19Z</time>
      </trkpt>
      <trkpt lat="48.334529036656022" lon="9.499279009178281">
        <ele>611.05999999999995</ele>
        <time>2018-09-19T09:36:20Z</time>
      </trkpt>
      <trkpt lat="48.33463498391211" lon="9.499087985605001">
        <ele>610.57000000000005</ele>
        <time>2018-09-19T09:36:21Z</time>
      </trkpt>
      <trkpt lat="48.334736991673708" lon="9.498904002830386">
        <ele>610.57000000000005</ele>
        <time>2018-09-19T09:36:22Z</time>
      </trkpt>
      <trkpt lat="48.334887027740479" lon="9.498753966763616">
        <ele>610.09000000000003</ele>
        <time>2018-09-19T09:36:23Z</time>
      </trkpt>
      <trkpt lat="48.335033962503076" lon="9.498607032001019">
        <ele>610.09000000000003</ele>
        <time>2018-09-19T09:36:24Z</time>
      </trkpt>
      <trkpt lat="48.33531903102994" lon="9.498277958482504">
        <ele>610.09000000000003</ele>
        <time>2018-09-19T09:36:26Z</time>
      </trkpt>
      <trkpt lat="48.335426989942789" lon="9.498061034828425">
        <ele>610.09000000000003</ele>
        <time>2018-09-19T09:36:27Z</time>
      </trkpt>
      <trkpt lat="48.33551399409771" lon="9.49781502597034">
        <ele>610.09000000000003</ele>
        <time>2018-09-19T09:36:28Z</time>
      </trkpt>
      <trkpt lat="48.335592029616237" lon="9.497542027384043">
        <ele>609.61000000000001</ele>
        <time>2018-09-19T09:36:29Z</time>
      </trkpt>
      <trkpt lat="48.335671992972493" lon="9.497265005484223">
        <ele>609.13</ele>
        <time>2018-09-19T09:36:30Z</time>
      </trkpt>
      <trkpt lat="48.335924036800861" lon="9.496526978909969">
        <ele>609.13</ele>
        <time>2018-09-19T09:36:33Z</time>
      </trkpt>
      <trkpt lat="48.336033001542091" lon="9.496310977265239">
        <ele>608.64999999999998</ele>
        <time>2018-09-19T09:36:34Z</time>
      </trkpt>
      <trkpt lat="48.336171973496675" lon="9.496125988662243">
        <ele>608.16999999999996</ele>
        <time>2018-09-19T09:36:35Z</time>
      </trkpt>
      <trkpt lat="48.337545013055205" lon="9.494694024324417">
        <ele>608.16999999999996</ele>
        <time>2018-09-19T09:36:43Z</time>
      </trkpt>
      <trkpt lat="48.33927302621305" lon="9.493607981130481">
        <ele>609.61000000000001</ele>
        <time>2018-09-19T09:36:52Z</time>
      </trkpt>
      <trkpt lat="48.339423984289169" lon="9.49364997446537">
        <ele>610.09000000000003</ele>
        <time>2018-09-19T09:36:53Z</time>
      </trkpt>
      <trkpt lat="48.339555999264121" lon="9.493702026084065">
        <ele>610.09000000000003</ele>
        <time>2018-09-19T09:36:54Z</time>
      </trkpt>
      <trkpt lat="48.33966102451086" lon="9.49381803162396">
        <ele>610.57000000000005</ele>
        <time>2018-09-19T09:36:55Z</time>
      </trkpt>
      <trkpt lat="48.339779963716865" lon="9.49394702911377">
        <ele>610.57000000000005</ele>
        <time>2018-09-19T09:36:56Z</time>
      </trkpt>
      <trkpt lat="48.339831009507179" lon="9.49412195943296">
        <ele>611.05999999999995</ele>
        <time>2018-09-19T09:36:57Z</time>
      </trkpt>
      <trkpt lat="48.339889012277126" lon="9.494324969127774">
        <ele>611.05999999999995</ele>
        <time>2018-09-19T09:36:58Z</time>
      </trkpt>
      <trkpt lat="48.339951960369945" lon="9.494542982429266">
        <ele>611.53999999999996</ele>
        <time>2018-09-19T09:36:59Z</time>
      </trkpt>
      <trkpt lat="48.340020021423697" lon="9.494771976023912">
        <ele>612.01999999999998</ele>
        <time>2018-09-19T09:37:00Z</time>
      </trkpt>
      <trkpt lat="48.340115994215012" lon="9.494985966011882">
        <ele>612.5</ele>
        <time>2018-09-19T09:37:01Z</time>
      </trkpt>
      <trkpt lat="48.340943036600947" lon="9.496443998068571">
        <ele>613.94000000000005</ele>
        <time>2018-09-19T09:37:09Z</time>
      </trkpt>
      <trkpt lat="48.341191979125142" lon="9.496716996654868">
        <ele>614.41999999999996</ele>
        <time>2018-09-19T09:37:12Z</time>
      </trkpt>
      <trkpt lat="48.341346038505435" lon="9.496841970831156">
        <ele>615.38</ele>
        <time>2018-09-19T09:37:14Z</time>
      </trkpt>
      <trkpt lat="48.341419966891408" lon="9.496901985257864">
        <ele>615.86000000000001</ele>
        <time>2018-09-19T09:37:15Z</time>
      </trkpt>
      <trkpt lat="48.341492973268032" lon="9.496940961107612">
        <ele>616.34000000000003</ele>
        <time>2018-09-19T09:37:16Z</time>
      </trkpt>
      <trkpt lat="48.341652983799577" lon="9.49697901494801">
        <ele>616.82000000000005</ele>
        <time>2018-09-19T09:37:18Z</time>
      </trkpt>
      <trkpt lat="48.341820035129786" lon="9.49700097553432">
        <ele>616.82000000000005</ele>
        <time>2018-09-19T09:37:20Z</time>
      </trkpt>
      <trkpt lat="48.342192023992538" lon="9.496911959722638">
        <ele>615.86000000000001</ele>
        <time>2018-09-19T09:37:24Z</time>
      </trkpt>
      <trkpt lat="48.342372989282012" lon="9.496776005253196">
        <ele>615.86000000000001</ele>
        <time>2018-09-19T09:37:26Z</time>
      </trkpt>
      <trkpt lat="48.343043960630894" lon="9.496077038347721">
        <ele>614.89999999999998</ele>
        <time>2018-09-19T09:37:33Z</time>
      </trkpt>
      <trkpt lat="48.343125013634562" lon="9.495949968695641">
        <ele>615.38</ele>
        <time>2018-09-19T09:37:34Z</time>
      </trkpt>
      <trkpt lat="48.343188967555761" lon="9.495805967599154">
        <ele>615.86000000000001</ele>
        <time>2018-09-19T09:37:35Z</time>
      </trkpt>
      <trkpt lat="48.343517035245895" lon="9.494127994403243">
        <ele>613.94000000000005</ele>
        <time>2018-09-19T09:37:45Z</time>
      </trkpt>
      <trkpt lat="48.343533966690302" lon="9.493250995874405">
        <ele>614.89999999999998</ele>
        <time>2018-09-19T09:37:50Z</time>
      </trkpt>
      <trkpt lat="48.343285024166107" lon="9.491549972444773">
        <ele>615.86000000000001</ele>
        <time>2018-09-19T09:38:00Z</time>
      </trkpt>
      <trkpt lat="48.343230038881302" lon="9.491403959691525">
        <ele>615.86000000000001</ele>
        <time>2018-09-19T09:38:01Z</time>
      </trkpt>
      <trkpt lat="48.342841034755111" lon="9.490423025563359">
        <ele>615.38</ele>
        <time>2018-09-19T09:38:09Z</time>
      </trkpt>
      <trkpt lat="48.342798035591841" lon="9.490313977003098">
        <ele>615.38</ele>
        <time>2018-09-19T09:38:10Z</time>
      </trkpt>
      <trkpt lat="48.342755036428571" lon="9.490206018090248">
        <ele>615.38</ele>
        <time>2018-09-19T09:38:11Z</time>
      </trkpt>
      <trkpt lat="48.342704996466637" lon="9.489965960383415">
        <ele>615.38</ele>
        <time>2018-09-19T09:38:13Z</time>
      </trkpt>
      <trkpt lat="48.342683035880327" lon="9.489838974550366">
        <ele>615.38</ele>
        <time>2018-09-19T09:38:14Z</time>
      </trkpt>
      <trkpt lat="48.342660991474986" lon="9.489715006202459">
        <ele>615.38</ele>
        <time>2018-09-19T09:38:15Z</time>
      </trkpt>
      <trkpt lat="48.342616986483335" lon="9.489459022879601">
        <ele>615.86000000000001</ele>
        <time>2018-09-19T09:38:17Z</time>
      </trkpt>
      <trkpt lat="48.342594020068645" lon="9.489331031218171">
        <ele>615.86000000000001</ele>
        <time>2018-09-19T09:38:18Z</time>
      </trkpt>
      <trkpt lat="48.342552026733756" lon="9.488642038777471">
        <ele>616.34000000000003</ele>
        <time>2018-09-19T09:38:23Z</time>
      </trkpt>
      <trkpt lat="48.342555966228247" lon="9.488507006317377">
        <ele>616.34000000000003</ele>
        <time>2018-09-19T09:38:24Z</time>
      </trkpt>
      <trkpt lat="48.342568958178163" lon="9.488369040191174">
        <ele>616.34000000000003</ele>
        <time>2018-09-19T09:38:25Z</time>
      </trkpt>
      <trkpt lat="48.342600977048278" lon="9.488242976367474">
        <ele>616.34000000000003</ele>
        <time>2018-09-19T09:38:26Z</time>
      </trkpt>
      <trkpt lat="48.342631990090013" lon="9.488118002191186">
        <ele>615.86000000000001</ele>
        <time>2018-09-19T09:38:27Z</time>
      </trkpt>
      <trkpt lat="48.342706002295017" lon="9.488028986379504">
        <ele>615.38</ele>
        <time>2018-09-19T09:38:28Z</time>
      </trkpt>
      <trkpt lat="48.342770040035248" lon="9.487956985831261">
        <ele>614.89999999999998</ele>
        <time>2018-09-19T09:38:29Z</time>
      </trkpt>
      <trkpt lat="48.342830976471305" lon="9.487918009981513">
        <ele>614.41999999999996</ele>
        <time>2018-09-19T09:38:30Z</time>
      </trkpt>
      <trkpt lat="48.342900965362787" lon="9.487921027466655">
        <ele>613.94000000000005</ele>
        <time>2018-09-19T09:38:31Z</time>
      </trkpt>
      <trkpt lat="48.342984030023217" lon="9.487924966961145">
        <ele>613.94000000000005</ele>
        <time>2018-09-19T09:38:32Z</time>
      </trkpt>
      <trkpt lat="48.343074973672628" lon="9.487927984446287">
        <ele>613.94000000000005</ele>
        <time>2018-09-19T09:38:33Z</time>
      </trkpt>
      <trkpt lat="48.344054985791445" lon="9.487937958911061">
        <ele>614.89999999999998</ele>
        <time>2018-09-19T09:38:42Z</time>
      </trkpt>
      <trkpt lat="48.34475202485919" lon="9.487793035805225">
        <ele>614.89999999999998</ele>
        <time>2018-09-19T09:38:48Z</time>
      </trkpt>
      <trkpt lat="48.344855038449168" lon="9.487748024985194">
        <ele>615.38</ele>
        <time>2018-09-19T09:38:49Z</time>
      </trkpt>
      <trkpt lat="48.344950005412102" lon="9.487682981416583">
        <ele>615.38</ele>
        <time>2018-09-19T09:38:50Z</time>
      </trkpt>
      <trkpt lat="48.345039021223783" lon="9.487593965604901">
        <ele>615.38</ele>
        <time>2018-09-19T09:38:51Z</time>
      </trkpt>
      <trkpt lat="48.345119990408421" lon="9.487492041662335">
        <ele>615.38</ele>
        <time>2018-09-19T09:38:52Z</time>
      </trkpt>
      <trkpt lat="48.345183022320271" lon="9.487359020859003">
        <ele>615.38</ele>
        <time>2018-09-19T09:38:53Z</time>
      </trkpt>
      <trkpt lat="48.345246976241469" lon="9.48722398839891">
        <ele>614.89999999999998</ele>
        <time>2018-09-19T09:38:54Z</time>
      </trkpt>
      <trkpt lat="48.345304979011416" lon="9.487089039757848">
        <ele>614.41999999999996</ele>
        <time>2018-09-19T09:38:55Z</time>
      </trkpt>
      <trkpt lat="48.345352001488209" lon="9.486931962892413">
        <ele>614.41999999999996</ele>
        <time>2018-09-19T09:38:56Z</time>
      </trkpt>
      <trkpt lat="48.345400029793382" lon="9.4867720361799">
        <ele>614.41999999999996</ele>
        <time>2018-09-19T09:38:57Z</time>
      </trkpt>
      <trkpt lat="48.345448980107903" lon="9.486606996506453">
        <ele>613.94000000000005</ele>
        <time>2018-09-19T09:38:58Z</time>
      </trkpt>
      <trkpt lat="48.34619496949017" lon="9.484314965084195">
        <ele>612.98000000000002</ele>
        <time>2018-09-19T09:39:10Z</time>
      </trkpt>
      <trkpt lat="48.346995022147894" lon="9.482449991628528">
        <ele>612.98000000000002</ele>
        <time>2018-09-19T09:39:17Z</time>
      </trkpt>
      <trkpt lat="48.347431970760226" lon="9.481814978644252">
        <ele>612.98000000000002</ele>
        <time>2018-09-19T09:39:20Z</time>
      </trkpt>
      <trkpt lat="48.34758996963501" lon="9.481713976711035">
        <ele>612.98000000000002</ele>
        <time>2018-09-19T09:39:21Z</time>
      </trkpt>
      <trkpt lat="48.347732964903116" lon="9.481629990041256">
        <ele>612.98000000000002</ele>
        <time>2018-09-19T09:39:22Z</time>
      </trkpt>
      <trkpt lat="48.347879983484745" lon="9.481629990041256">
        <ele>612.98000000000002</ele>
        <time>2018-09-19T09:39:23Z</time>
      </trkpt>
      <trkpt lat="48.34801803342998" lon="9.481684975326061">
        <ele>613.46000000000004</ele>
        <time>2018-09-19T09:39:24Z</time>
      </trkpt>
      <trkpt lat="48.348161028698087" lon="9.48174599558115">
        <ele>613.94000000000005</ele>
        <time>2018-09-19T09:39:25Z</time>
      </trkpt>
      <trkpt lat="48.348288014531136" lon="9.481858983635902">
        <ele>614.41999999999996</ele>
        <time>2018-09-19T09:39:26Z</time>
      </trkpt>
      <trkpt lat="48.3484279923141" lon="9.482004996389151">
        <ele>615.38</ele>
        <time>2018-09-19T09:39:27Z</time>
      </trkpt>
      <trkpt lat="48.348581967875361" lon="9.482162995263934">
        <ele>615.38</ele>
        <time>2018-09-19T09:39:28Z</time>
      </trkpt>
      <trkpt lat="48.349385960027575" lon="9.483204027637839">
        <ele>616.82000000000005</ele>
        <time>2018-09-19T09:39:33Z</time>
      </trkpt>
      <trkpt lat="48.350856984034181" lon="9.485498992726207">
        <ele>619.23000000000002</ele>
        <time>2018-09-19T09:39:42Z</time>
      </trkpt>
      <trkpt lat="48.351028980687261" lon="9.485690016299486">
        <ele>619.71000000000004</ele>
        <time>2018-09-19T09:39:43Z</time>
      </trkpt>
      <trkpt lat="48.351208018139005" lon="9.485819013789296">
        <ele>619.71000000000004</ele>
        <time>2018-09-19T09:39:44Z</time>
      </trkpt>
      <trkpt lat="48.351384960114956" lon="9.485940970480442">
        <ele>620.19000000000005</ele>
        <time>2018-09-19T09:39:45Z</time>
      </trkpt>
      <trkpt lat="48.351575983688235" lon="9.485975001007319">
        <ele>620.66999999999996</ele>
        <time>2018-09-19T09:39:46Z</time>
      </trkpt>
      <trkpt lat="48.351769018918276" lon="9.486007019877434">
        <ele>621.14999999999998</ele>
        <time>2018-09-19T09:39:47Z</time>
      </trkpt>
      <trkpt lat="48.351973034441471" lon="9.486019005998969">
        <ele>621.14999999999998</ele>
        <time>2018-09-19T09:39:48Z</time>
      </trkpt>
      <trkpt lat="48.353768019005656" lon="9.485660009086132">
        <ele>619.23000000000002</ele>
        <time>2018-09-19T09:39:56Z</time>
      </trkpt>
      <trkpt lat="48.354909969493747" lon="9.485195986926556">
        <ele>617.29999999999995</ele>
        <time>2018-09-19T09:40:02Z</time>
      </trkpt>
      <trkpt lat="48.355080960318446" lon="9.485065983608365">
        <ele>617.29999999999995</ele>
        <time>2018-09-19T09:40:03Z</time>
      </trkpt>
      <trkpt lat="48.355270978063345" lon="9.484920976683497">
        <ele>616.82000000000005</ele>
        <time>2018-09-19T09:40:04Z</time>
      </trkpt>
      <trkpt lat="48.355463007465005" lon="9.484691983088851">
        <ele>616.82000000000005</ele>
        <time>2018-09-19T09:40:05Z</time>
      </trkpt>
      <trkpt lat="48.355959970504045" lon="9.484054036438465">
        <ele>617.29999999999995</ele>
        <time>2018-09-19T09:40:08Z</time>
      </trkpt>
      <trkpt lat="48.356120986863971" lon="9.483946999534965">
        <ele>617.29999999999995</ele>
        <time>2018-09-19T09:40:09Z</time>
      </trkpt>
      <trkpt lat="48.356280997395515" lon="9.483882961794734">
        <ele>617.77999999999997</ele>
        <time>2018-09-19T09:40:10Z</time>
      </trkpt>
      <trkpt lat="48.357608020305634" lon="9.483342999592423">
        <ele>620.19000000000005</ele>
        <time>2018-09-19T09:40:18Z</time>
      </trkpt>
      <trkpt lat="48.358339006081223" lon="9.482832960784435">
        <ele>619.71000000000004</ele>
        <time>2018-09-19T09:40:23Z</time>
      </trkpt>
      <trkpt lat="48.358460040763021" lon="9.482748974114656">
        <ele>619.71000000000004</ele>
        <time>2018-09-19T09:40:24Z</time>
      </trkpt>
      <trkpt lat="48.359337961301208" lon="9.481798969209194">
        <ele>618.75</ele>
        <time>2018-09-19T09:40:33Z</time>
      </trkpt>
      <trkpt lat="48.360274974256754" lon="9.480480998754501">
        <ele>619.23000000000002</ele>
        <time>2018-09-19T09:40:44Z</time>
      </trkpt>
      <trkpt lat="48.360324008390307" lon="9.480316964909434">
        <ele>619.23000000000002</ele>
        <time>2018-09-19T09:40:45Z</time>
      </trkpt>
      <trkpt lat="48.360358038917184" lon="9.480158966034651">
        <ele>619.71000000000004</ele>
        <time>2018-09-19T09:40:46Z</time>
      </trkpt>
      <trkpt lat="48.360363990068436" lon="9.47998596355319">
        <ele>620.19000000000005</ele>
        <time>2018-09-19T09:40:47Z</time>
      </trkpt>
      <trkpt lat="48.3603710308671" lon="9.479807009920478">
        <ele>620.19000000000005</ele>
        <time>2018-09-19T09:40:48Z</time>
      </trkpt>
      <trkpt lat="48.360376982018352" lon="9.479630989953876">
        <ele>620.19000000000005</ele>
        <time>2018-09-19T09:40:49Z</time>
      </trkpt>
      <trkpt lat="48.360409000888467" lon="9.479461004957557">
        <ele>619.71000000000004</ele>
        <time>2018-09-19T09:40:50Z</time>
      </trkpt>
      <trkpt lat="48.360444037243724" lon="9.479334019124508">
        <ele>619.23000000000002</ele>
        <time>2018-09-19T09:40:51Z</time>
      </trkpt>
      <trkpt lat="48.3605229947716" lon="9.479209966957569">
        <ele>618.75</ele>
        <time>2018-09-19T09:40:52Z</time>
      </trkpt>
      <trkpt lat="48.360593989491463" lon="9.479097984731197">
        <ele>618.75</ele>
        <time>2018-09-19T09:40:53Z</time>
      </trkpt>
      <trkpt lat="48.360683005303144" lon="9.479021038860083">
        <ele>618.25999999999999</ele>
        <time>2018-09-19T09:40:54Z</time>
      </trkpt>
      <trkpt lat="48.36076196283102" lon="9.478923976421356">
        <ele>617.77999999999997</ele>
        <time>2018-09-19T09:40:55Z</time>
      </trkpt>
      <trkpt lat="48.360923985019326" lon="9.478725995868444">
        <ele>616.82000000000005</ele>
        <time>2018-09-19T09:40:57Z</time>
      </trkpt>
      <trkpt lat="48.361006965860724" lon="9.478624993935227">
        <ele>615.86000000000001</ele>
        <time>2018-09-19T09:40:58Z</time>
      </trkpt>
      <trkpt lat="48.361172005534172" lon="9.478409998118877">
        <ele>615.38</ele>
        <time>2018-09-19T09:41:00Z</time>
      </trkpt>
      <trkpt lat="48.361336039379239" lon="9.478206988424063">
        <ele>614.41999999999996</ele>
        <time>2018-09-19T09:41:02Z</time>
      </trkpt>
      <trkpt lat="48.361421031877398" lon="9.478101963177323">
        <ele>614.41999999999996</ele>
        <time>2018-09-19T09:41:03Z</time>
      </trkpt>
      <trkpt lat="48.361513987183571" lon="9.478023005649447">
        <ele>614.41999999999996</ele>
        <time>2018-09-19T09:41:04Z</time>
      </trkpt>
      <trkpt lat="48.361610965803266" lon="9.477945975959301">
        <ele>614.41999999999996</ele>
        <time>2018-09-19T09:41:05Z</time>
      </trkpt>
      <trkpt lat="48.361712973564863" lon="9.477926027029753">
        <ele>614.41999999999996</ele>
        <time>2018-09-19T09:41:06Z</time>
      </trkpt>
      <trkpt lat="48.361816992983222" lon="9.477937007322907">
        <ele>613.94000000000005</ele>
        <time>2018-09-19T09:41:07Z</time>
      </trkpt>
      <trkpt lat="48.361915983259678" lon="9.477975983172655">
        <ele>613.94000000000005</ele>
        <time>2018-09-19T09:41:08Z</time>
      </trkpt>
      <trkpt lat="48.36202503181994" lon="9.478026023134589">
        <ele>614.41999999999996</ele>
        <time>2018-09-19T09:41:09Z</time>
      </trkpt>
      <trkpt lat="48.362229969352484" lon="9.478129958733916">
        <ele>614.89999999999998</ele>
        <time>2018-09-19T09:41:11Z</time>
      </trkpt>
      <trkpt lat="48.362536998465657" lon="9.478300027549267">
        <ele>614.89999999999998</ele>
        <time>2018-09-19T09:41:14Z</time>
      </trkpt>
      <trkpt lat="48.363560009747744" lon="9.478864967823029">
        <ele>617.77999999999997</ele>
        <time>2018-09-19T09:41:23Z</time>
      </trkpt>
      <trkpt lat="48.364802040159702" lon="9.479567036032677">
        <ele>625.96000000000004</ele>
        <time>2018-09-19T09:41:32Z</time>
      </trkpt>
      <trkpt lat="48.365899985656142" lon="9.480497008189559">
        <ele>631.72000000000003</ele>
        <time>2018-09-19T09:41:38Z</time>
      </trkpt>
      <trkpt lat="48.367229020223022" lon="9.482254022732377">
        <ele>639.40999999999997</ele>
        <time>2018-09-19T09:41:45Z</time>
      </trkpt>
      <trkpt lat="48.367865039035678" lon="9.482799014076591">
        <ele>642.77999999999997</ele>
        <time>2018-09-19T09:41:48Z</time>
      </trkpt>
      <trkpt lat="48.368071988224983" lon="9.482909990474582">
        <ele>643.74000000000001</ele>
        <time>2018-09-19T09:41:49Z</time>
      </trkpt>
      <trkpt lat="48.368285978212953" lon="9.482991965487599">
        <ele>645.17999999999995</ele>
        <time>2018-09-19T09:41:50Z</time>
      </trkpt>
      <trkpt lat="48.368502985686064" lon="9.483046028763056">
        <ele>645.65999999999997</ele>
        <time>2018-09-19T09:41:51Z</time>
      </trkpt>
      <trkpt lat="48.368714964017272" lon="9.483031025156379">
        <ele>647.10000000000002</ele>
        <time>2018-09-19T09:41:52Z</time>
      </trkpt>
      <trkpt lat="48.36892400868237" lon="9.482980985194445">
        <ele>648.07000000000005</ele>
        <time>2018-09-19T09:41:53Z</time>
      </trkpt>
      <trkpt lat="48.369131963700056" lon="9.482910996302962">
        <ele>649.50999999999999</ele>
        <time>2018-09-19T09:41:54Z</time>
      </trkpt>
      <trkpt lat="48.370292019098997" lon="9.482799014076591">
        <ele>656.24000000000001</ele>
        <time>2018-09-19T09:42:00Z</time>
      </trkpt>
      <trkpt lat="48.370497040450573" lon="9.482831032946706">
        <ele>656.72000000000003</ele>
        <time>2018-09-19T09:42:01Z</time>
      </trkpt>
      <trkpt lat="48.370712036266923" lon="9.482914013788104">
        <ele>657.67999999999995</ele>
        <time>2018-09-19T09:42:02Z</time>
      </trkpt>
      <trkpt lat="48.371186032891273" lon="9.483123980462551">
        <ele>660.55999999999995</ele>
        <time>2018-09-19T09:42:04Z</time>
      </trkpt>
      <trkpt lat="48.373218979686499" lon="9.484214968979359">
        <ele>673.53999999999996</ele>
        <time>2018-09-19T09:42:12Z</time>
      </trkpt>
      <trkpt lat="48.373767994344234" lon="9.484413033351302">
        <ele>678.83000000000004</ele>
        <time>2018-09-19T09:42:15Z</time>
      </trkpt>
      <trkpt lat="48.373921969905496" lon="9.484396018087864">
        <ele>680.26999999999998</ele>
        <time>2018-09-19T09:42:16Z</time>
      </trkpt>
      <trkpt lat="48.374091032892466" lon="9.484376991167665">
        <ele>681.71000000000004</ele>
        <time>2018-09-19T09:42:17Z</time>
      </trkpt>
      <trkpt lat="48.374216007068753" lon="9.484270960092545">
        <ele>683.14999999999998</ele>
        <time>2018-09-19T09:42:18Z</time>
      </trkpt>
      <trkpt lat="48.374370988458395" lon="9.484139028936625">
        <ele>684.60000000000002</ele>
        <time>2018-09-19T09:42:19Z</time>
      </trkpt>
      <trkpt lat="48.374480959028006" lon="9.483931995928288">
        <ele>686.03999999999996</ele>
        <time>2018-09-19T09:42:20Z</time>
      </trkpt>
      <trkpt lat="48.374598976224661" lon="9.483710965141654">
        <ele>687</ele>
        <time>2018-09-19T09:42:21Z</time>
      </trkpt>
      <trkpt lat="48.375098034739494" lon="9.482789039611816">
        <ele>692.28999999999996</ele>
        <time>2018-09-19T09:42:25Z</time>
      </trkpt>
      <trkpt lat="48.375258967280388" lon="9.482616037130356">
        <ele>693.73000000000002</ele>
        <time>2018-09-19T09:42:26Z</time>
      </trkpt>
      <trkpt lat="48.375428030267358" lon="9.482473963871598">
        <ele>695.16999999999996</ele>
        <time>2018-09-19T09:42:27Z</time>
      </trkpt>
      <trkpt lat="48.375607989728451" lon="9.482385031878948">
        <ele>696.13</ele>
        <time>2018-09-19T09:42:28Z</time>
      </trkpt>
      <trkpt lat="48.375792978331447" lon="9.482291992753744">
        <ele>697.57000000000005</ele>
        <time>2018-09-19T09:42:29Z</time>
      </trkpt>
      <trkpt lat="48.375985007733107" lon="9.482256034389138">
        <ele>699.01999999999998</ele>
        <time>2018-09-19T09:42:30Z</time>
      </trkpt>
      <trkpt lat="48.376193968579173" lon="9.482230972498655">
        <ele>700.46000000000004</ele>
        <time>2018-09-19T09:42:31Z</time>
      </trkpt>
      <trkpt lat="48.376385997980833" lon="9.482289981096983">
        <ele>701.41999999999996</ele>
        <time>2018-09-19T09:42:32Z</time>
      </trkpt>
      <trkpt lat="48.37659303098917" lon="9.482386959716678">
        <ele>702.86000000000001</ele>
        <time>2018-09-19T09:42:33Z</time>
      </trkpt>
      <trkpt lat="48.376804003491998" lon="9.482510006055236">
        <ele>704.29999999999995</ele>
        <time>2018-09-19T09:42:34Z</time>
      </trkpt>
      <trkpt lat="48.377026040107012" lon="9.482640009373426">
        <ele>705.25999999999999</ele>
        <time>2018-09-19T09:42:35Z</time>
      </trkpt>
      <trkpt lat="48.378622960299253" lon="9.483403014019132">
        <ele>713.44000000000005</ele>
        <time>2018-09-19T09:42:42Z</time>
      </trkpt>
      <trkpt lat="48.378810966387391" lon="9.483569981530309">
        <ele>714.88</ele>
        <time>2018-09-19T09:42:43Z</time>
      </trkpt>
      <trkpt lat="48.378982041031122" lon="9.483781959861517">
        <ele>715.84000000000003</ele>
        <time>2018-09-19T09:42:44Z</time>
      </trkpt>
      <trkpt lat="48.379137022420764" lon="9.484027968719602">
        <ele>717.27999999999997</ele>
        <time>2018-09-19T09:42:45Z</time>
      </trkpt>
      <trkpt lat="48.379292003810406" lon="9.484275989234448">
        <ele>718.24000000000001</ele>
        <time>2018-09-19T09:42:46Z</time>
      </trkpt>
      <trkpt lat="48.379841018468142" lon="9.485234962776303">
        <ele>723.52999999999997</ele>
        <time>2018-09-19T09:42:50Z</time>
      </trkpt>
      <trkpt lat="48.38003003038466" lon="9.485389022156596">
        <ele>724.49000000000001</ele>
        <time>2018-09-19T09:42:51Z</time>
      </trkpt>
      <trkpt lat="48.380201021209359" lon="9.485528999939561">
        <ele>725.45000000000005</ele>
        <time>2018-09-19T09:42:52Z</time>
      </trkpt>
      <trkpt lat="48.380382992327213" lon="9.485637964680791">
        <ele>726.40999999999997</ele>
        <time>2018-09-19T09:42:53Z</time>
      </trkpt>
      <trkpt lat="48.380591031163931" lon="9.485686998814344">
        <ele>727.37</ele>
        <time>2018-09-19T09:42:54Z</time>
      </trkpt>
      <trkpt lat="48.380802003666759" lon="9.485731003805995">
        <ele>728.82000000000005</ele>
        <time>2018-09-19T09:42:55Z</time>
      </trkpt>
      <trkpt lat="48.3816650044173" lon="9.485992016270757">
        <ele>734.10000000000002</ele>
        <time>2018-09-19T09:42:59Z</time>
      </trkpt>
      <trkpt lat="48.381870025768876" lon="9.486121013760567">
        <ele>735.07000000000005</ele>
        <time>2018-09-19T09:43:00Z</time>
      </trkpt>
      <trkpt lat="48.382606040686369" lon="9.48662300594151">
        <ele>738.42999999999995</ele>
        <time>2018-09-19T09:43:04Z</time>
      </trkpt>
      <trkpt lat="48.382761022076011" lon="9.486727025359869">
        <ele>739.38999999999999</ele>
        <time>2018-09-19T09:43:05Z</time>
      </trkpt>
      <trkpt lat="48.382921032607555" lon="9.486779998987913">
        <ele>740.35000000000002</ele>
        <time>2018-09-19T09:43:06Z</time>
      </trkpt>
      <trkpt lat="48.383091017603874" lon="9.48677496984601">
        <ele>740.83000000000004</ele>
        <time>2018-09-19T09:43:07Z</time>
      </trkpt>
      <trkpt lat="48.383251028135419" lon="9.48668603785336">
        <ele>741.78999999999996</ele>
        <time>2018-09-19T09:43:08Z</time>
      </trkpt>
      <trkpt lat="48.383402992039919" lon="9.486543964594603">
        <ele>742.27999999999997</ele>
        <time>2018-09-19T09:43:09Z</time>
      </trkpt>
      <trkpt lat="48.383553028106689" lon="9.48634497821331">
        <ele>743.24000000000001</ele>
        <time>2018-09-19T09:43:10Z</time>
      </trkpt>
      <trkpt lat="48.383711026981473" lon="9.486134005710483">
        <ele>743.72000000000003</ele>
        <time>2018-09-19T09:43:11Z</time>
      </trkpt>
      <trkpt lat="48.384202960878611" lon="9.485495975241065">
        <ele>746.60000000000002</ele>
        <time>2018-09-19T09:43:14Z</time>
      </trkpt>
      <trkpt lat="48.384383004158735" lon="9.48537603020668">
        <ele>747.55999999999995</ele>
        <time>2018-09-19T09:43:15Z</time>
      </trkpt>
      <trkpt lat="48.38456598110497" lon="9.485285002738237">
        <ele>748.51999999999998</ele>
        <time>2018-09-19T09:43:16Z</time>
      </trkpt>
      <trkpt lat="48.384745018556714" lon="9.485264969989657">
        <ele>749.49000000000001</ele>
        <time>2018-09-19T09:43:17Z</time>
      </trkpt>
      <trkpt lat="48.384913997724652" lon="9.485291037708521">
        <ele>750.92999999999995</ele>
        <time>2018-09-19T09:43:18Z</time>
      </trkpt>
      <trkpt lat="48.385065039619803" lon="9.485379969701171">
        <ele>752.37</ele>
        <time>2018-09-19T09:43:19Z</time>
      </trkpt>
      <trkpt lat="48.38521096855402" lon="9.48550502769649">
        <ele>753.80999999999995</ele>
        <time>2018-09-19T09:43:20Z</time>
      </trkpt>
      <trkpt lat="48.385363016277552" lon="9.4856340251863">
        <ele>754.76999999999998</ele>
        <time>2018-09-19T09:43:21Z</time>
      </trkpt>
      <trkpt lat="48.385501988232136" lon="9.485805016011">
        <ele>756.21000000000004</ele>
        <time>2018-09-19T09:43:22Z</time>
      </trkpt>
      <trkpt lat="48.385643977671862" lon="9.485998973250389">
        <ele>757.17999999999995</ele>
        <time>2018-09-19T09:43:23Z</time>
      </trkpt>
      <trkpt lat="48.38579099625349" lon="9.486200977116823">
        <ele>758.62</ele>
        <time>2018-09-19T09:43:24Z</time>
      </trkpt>
      <trkpt lat="48.386428020894527" lon="9.486948978155851">
        <ele>763.41999999999996</ele>
        <time>2018-09-19T09:43:28Z</time>
      </trkpt>
      <trkpt lat="48.386617032811046" lon="9.487071018666029">
        <ele>765.35000000000002</ele>
        <time>2018-09-19T09:43:29Z</time>
      </trkpt>
      <trkpt lat="48.38681903667748" lon="9.487176965922117">
        <ele>766.30999999999995</ele>
        <time>2018-09-19T09:43:30Z</time>
      </trkpt>
      <trkpt lat="48.38703503832221" lon="9.487242009490728">
        <ele>767.75</ele>
        <time>2018-09-19T09:43:31Z</time>
      </trkpt>
      <trkpt lat="48.387261014431715" lon="9.487264975905418">
        <ele>768.23000000000002</ele>
        <time>2018-09-19T09:43:32Z</time>
      </trkpt>
      <trkpt lat="48.387494031339884" lon="9.48726799339056">
        <ele>769.19000000000005</ele>
        <time>2018-09-19T09:43:33Z</time>
      </trkpt>
      <trkpt lat="48.387729981914163" lon="9.487259024754167">
        <ele>769.66999999999996</ele>
        <time>2018-09-19T09:43:34Z</time>
      </trkpt>
      <trkpt lat="48.388832034543157" lon="9.487276040017605">
        <ele>773.03999999999996</ele>
        <time>2018-09-19T09:43:39Z</time>
      </trkpt>
      <trkpt lat="48.389029009267688" lon="9.487299006432295">
        <ele>773.51999999999998</ele>
        <time>2018-09-19T09:43:40Z</time>
      </trkpt>
      <trkpt lat="48.389409966766834" lon="9.487457005307078">
        <ele>774</ele>
        <time>2018-09-19T09:43:42Z</time>
      </trkpt>
      <trkpt lat="48.389600990340114" lon="9.487570999190211">
        <ele>774</ele>
        <time>2018-09-19T09:43:43Z</time>
      </trkpt>
      <trkpt lat="48.39144098572433" lon="9.488669028505683">
        <ele>776.39999999999998</ele>
        <time>2018-09-19T09:43:52Z</time>
      </trkpt>
      <trkpt lat="48.392336005344987" lon="9.489143025130034">
        <ele>777.36000000000001</ele>
        <time>2018-09-19T09:43:57Z</time>
      </trkpt>
      <trkpt lat="48.393723964691162" lon="9.489339999854565">
        <ele>777.36000000000001</ele>
        <time>2018-09-19T09:44:04Z</time>
      </trkpt>
      <trkpt lat="48.395345024764538" lon="9.489634037017822">
        <ele>774</ele>
        <time>2018-09-19T09:44:12Z</time>
      </trkpt>
      <trkpt lat="48.39554300531745" lon="9.489634037017822">
        <ele>773.03999999999996</ele>
        <time>2018-09-19T09:44:13Z</time>
      </trkpt>
      <trkpt lat="48.395727993920445" lon="9.489589026197791">
        <ele>772.08000000000004</ele>
        <time>2018-09-19T09:44:14Z</time>
      </trkpt>
      <trkpt lat="48.395916000008583" lon="9.489515013992786">
        <ele>771.11000000000001</ele>
        <time>2018-09-19T09:44:15Z</time>
      </trkpt>
      <trkpt lat="48.39610300026834" lon="9.489442007616162">
        <ele>770.63</ele>
        <time>2018-09-19T09:44:16Z</time>
      </trkpt>
      <trkpt lat="48.396279020234942" lon="9.489349974319339">
        <ele>769.66999999999996</ele>
        <time>2018-09-19T09:44:17Z</time>
      </trkpt>
      <trkpt lat="48.396459985524416" lon="9.489217037335038">
        <ele>768.23000000000002</ele>
        <time>2018-09-19T09:44:18Z</time>
      </trkpt>
      <trkpt lat="48.396636005491018" lon="9.489079993218184">
        <ele>766.78999999999996</ele>
        <time>2018-09-19T09:44:19Z</time>
      </trkpt>
      <trkpt lat="48.396797021850944" lon="9.488883018493652">
        <ele>765.35000000000002</ele>
        <time>2018-09-19T09:44:20Z</time>
      </trkpt>
      <trkpt lat="48.397804023697972" lon="9.487866964191198">
        <ele>758.13999999999999</ele>
        <time>2018-09-19T09:44:26Z</time>
      </trkpt>
      <trkpt lat="48.397974008694291" lon="9.487780965864658">
        <ele>757.17999999999995</ele>
        <time>2018-09-19T09:44:27Z</time>
      </trkpt>
      <trkpt lat="48.398148017004132" lon="9.487712988629937">
        <ele>755.73000000000002</ele>
        <time>2018-09-19T09:44:28Z</time>
      </trkpt>
      <trkpt lat="48.398321019485593" lon="9.487645011395216">
        <ele>754.28999999999996</ele>
        <time>2018-09-19T09:44:29Z</time>
      </trkpt>
      <trkpt lat="48.398497961461544" lon="9.487595977261663">
        <ele>752.85000000000002</ele>
        <time>2018-09-19T09:44:30Z</time>
      </trkpt>
      <trkpt lat="48.39868102222681" lon="9.487595977261663">
        <ele>751.40999999999997</ele>
        <time>2018-09-19T09:44:31Z</time>
      </trkpt>
      <trkpt lat="48.398858970031142" lon="9.487604023888707">
        <ele>749.97000000000003</ele>
        <time>2018-09-19T09:44:32Z</time>
      </trkpt>
      <trkpt lat="48.399980971589684" lon="9.487896971404553">
        <ele>739.38999999999999</ele>
        <time>2018-09-19T09:44:39Z</time>
      </trkpt>
      <trkpt lat="48.400312978774309" lon="9.488004008308053">
        <ele>735.54999999999995</ele>
        <time>2018-09-19T09:44:42Z</time>
      </trkpt>
      <trkpt lat="48.400526968762279" lon="9.488054970279336">
        <ele>736.50999999999999</ele>
        <time>2018-09-19T09:44:44Z</time>
      </trkpt>
      <trkpt lat="48.401635978370905" lon="9.488388989120722">
        <ele>734.58000000000004</ele>
        <time>2018-09-19T09:44:53Z</time>
      </trkpt>
      <trkpt lat="48.402969958260655" lon="9.488930040970445">
        <ele>728.82000000000005</ele>
        <time>2018-09-19T09:45:03Z</time>
      </trkpt>
      <trkpt lat="48.40431097894907" lon="9.488939009606838">
        <ele>723.04999999999995</ele>
        <time>2018-09-19T09:45:14Z</time>
      </trkpt>
      <trkpt lat="48.40546902269125" lon="9.488566014915705">
        <ele>721.13</ele>
        <time>2018-09-19T09:45:23Z</time>
      </trkpt>
      <trkpt lat="48.406569985672832" lon="9.488264014944434">
        <ele>714.88</ele>
        <time>2018-09-19T09:45:32Z</time>
      </trkpt>
      <trkpt lat="48.407141966745257" lon="9.488263009116054">
        <ele>711.02999999999997</ele>
        <time>2018-09-19T09:45:37Z</time>
      </trkpt>
      <trkpt lat="48.407242968678474" lon="9.488308019936085">
        <ele>710.07000000000005</ele>
        <time>2018-09-19T09:45:38Z</time>
      </trkpt>
      <trkpt lat="48.407342964783311" lon="9.488351019099355">
        <ele>709.59000000000003</ele>
        <time>2018-09-19T09:45:39Z</time>
      </trkpt>
      <trkpt lat="48.408319037407637" lon="9.489019978791475">
        <ele>707.19000000000005</ele>
        <time>2018-09-19T09:45:48Z</time>
      </trkpt>
      <trkpt lat="48.409455036744475" lon="9.48969597928226">
        <ele>705.75</ele>
        <time>2018-09-19T09:45:58Z</time>
      </trkpt>
      <trkpt lat="48.410716010257602" lon="9.49040399864316">
        <ele>705.75</ele>
        <time>2018-09-19T09:46:09Z</time>
      </trkpt>
      <trkpt lat="48.410805026069283" lon="9.490492008626461">
        <ele>705.75</ele>
        <time>2018-09-19T09:46:10Z</time>
      </trkpt>
      <trkpt lat="48.410850958898664" lon="9.4906419608742">
        <ele>705.25999999999999</ele>
        <time>2018-09-19T09:46:11Z</time>
      </trkpt>
      <trkpt lat="48.410892030224204" lon="9.490773975849152">
        <ele>704.77999999999997</ele>
        <time>2018-09-19T09:46:12Z</time>
      </trkpt>
      <trkpt lat="48.410932011902332" lon="9.490904984995723">
        <ele>703.82000000000005</ele>
        <time>2018-09-19T09:46:13Z</time>
      </trkpt>
      <trkpt lat="48.41097098775208" lon="9.491031970828772">
        <ele>703.34000000000003</ele>
        <time>2018-09-19T09:46:14Z</time>
      </trkpt>
      <trkpt lat="48.411014992743731" lon="9.491140013560653">
        <ele>702.86000000000001</ele>
        <time>2018-09-19T09:46:15Z</time>
      </trkpt>
      <trkpt lat="48.411065032705665" lon="9.491218971088529">
        <ele>702.86000000000001</ele>
        <time>2018-09-19T09:46:16Z</time>
      </trkpt>
      <trkpt lat="48.411125969141722" lon="9.49126398190856">
        <ele>702.38</ele>
        <time>2018-09-19T09:46:17Z</time>
      </trkpt>
      <trkpt lat="48.411212973296642" lon="9.491329025477171">
        <ele>702.38</ele>
        <time>2018-09-19T09:46:18Z</time>
      </trkpt>
      <trkpt lat="48.411233006045222" lon="9.491335982456803">
        <ele>701.89999999999998</ele>
        <time>2018-09-19T09:46:19Z</time>
      </trkpt>
      <trkpt lat="48.411307018250227" lon="9.491360960528255">
        <ele>701.41999999999996</ele>
        <time>2018-09-19T09:46:26Z</time>
      </trkpt>
      <trkpt lat="48.411351023241878" lon="9.491374958306551">
        <ele>701.41999999999996</ele>
        <time>2018-09-19T09:46:56Z</time>
      </trkpt>
      <trkpt lat="48.411399973556399" lon="9.491391973569989">
        <ele>700.94000000000005</ele>
        <time>2018-09-19T09:46:57Z</time>
      </trkpt>
      <trkpt lat="48.412142023444176" lon="9.490904984995723">
        <ele>698.04999999999995</ele>
        <time>2018-09-19T09:47:05Z</time>
      </trkpt>
      <trkpt lat="48.413038970902562" lon="9.489965038374066">
        <ele>696.61000000000001</ele>
        <time>2018-09-19T09:47:14Z</time>
      </trkpt>
      <trkpt lat="48.413453036919236" lon="9.488791991025209">
        <ele>697.09000000000003</ele>
        <time>2018-09-19T09:47:22Z</time>
      </trkpt>
      <trkpt lat="48.413551021367311" lon="9.487746013328433">
        <ele>697.09000000000003</ele>
        <time>2018-09-19T09:47:28Z</time>
      </trkpt>
      <trkpt lat="48.41352797113359" lon="9.48615001514554">
        <ele>697.09000000000003</ele>
        <time>2018-09-19T09:47:38Z</time>
      </trkpt>
      <trkpt lat="48.413511039689183" lon="9.485747013241053">
        <ele>697.09000000000003</ele>
        <time>2018-09-19T09:47:44Z</time>
      </trkpt>
      <trkpt lat="48.413594020530581" lon="9.485622039064765">
        <ele>696.61000000000001</ele>
        <time>2018-09-19T09:47:45Z</time>
      </trkpt>
      <trkpt lat="48.413615981116891" lon="9.485493041574955">
        <ele>697.09000000000003</ele>
        <time>2018-09-19T09:47:47Z</time>
      </trkpt>
      <trkpt lat="48.413588991388679" lon="9.48539799079299">
        <ele>697.09000000000003</ele>
        <time>2018-09-19T09:47:48Z</time>
      </trkpt>
      <trkpt lat="48.413572981953621" lon="9.485343005508184">
        <ele>697.09000000000003</ele>
        <time>2018-09-19T09:47:49Z</time>
      </trkpt>
      <trkpt lat="48.413453958928585" lon="9.485219037160277">
        <ele>697.09000000000003</ele>
        <time>2018-09-19T09:47:51Z</time>
      </trkpt>
      <trkpt lat="48.413440966978669" lon="9.485105965286493">
        <ele>697.09000000000003</ele>
        <time>2018-09-19T09:47:52Z</time>
      </trkpt>
      <trkpt lat="48.413424035534263" lon="9.484960036352277">
        <ele>697.09000000000003</ele>
        <time>2018-09-19T09:47:53Z</time>
      </trkpt>
      <trkpt lat="48.413287997245789" lon="9.483220959082246">
        <ele>695.16999999999996</ele>
        <time>2018-09-19T09:48:02Z</time>
      </trkpt>
      <trkpt lat="48.413127986714244" lon="9.480717033147812">
        <ele>693.73000000000002</ele>
        <time>2018-09-19T09:48:11Z</time>
      </trkpt>
      <trkpt lat="48.412924977019429" lon="9.477544985711575">
        <ele>690.84000000000003</ele>
        <time>2018-09-19T09:48:19Z</time>
      </trkpt>
      <trkpt lat="48.41273495927453" lon="9.474663035944104">
        <ele>689.39999999999998</ele>
        <time>2018-09-19T09:48:26Z</time>
      </trkpt>
      <trkpt lat="48.412729008123279" lon="9.473719988018274">
        <ele>688.91999999999996</ele>
        <time>2018-09-19T09:48:29Z</time>
      </trkpt>
      <trkpt lat="48.412761026993394" lon="9.473435003310442">
        <ele>688.91999999999996</ele>
        <time>2018-09-19T09:48:30Z</time>
      </trkpt>
      <trkpt lat="48.412806959822774" lon="9.473155969753861">
        <ele>688.44000000000005</ele>
        <time>2018-09-19T09:48:31Z</time>
      </trkpt>
      <trkpt lat="48.41286001726985" lon="9.472880037501454">
        <ele>688.44000000000005</ele>
        <time>2018-09-19T09:48:32Z</time>
      </trkpt>
      <trkpt lat="48.412932017818093" lon="9.472612990066409">
        <ele>688.44000000000005</ele>
        <time>2018-09-19T09:48:33Z</time>
      </trkpt>
      <trkpt lat="48.413018016144633" lon="9.47235700674355">
        <ele>688.44000000000005</ele>
        <time>2018-09-19T09:48:34Z</time>
      </trkpt>
      <trkpt lat="48.413126980885863" lon="9.472123989835382">
        <ele>688.44000000000005</ele>
        <time>2018-09-19T09:48:35Z</time>
      </trkpt>
      <trkpt lat="48.41324700973928" lon="9.47190597653389">
        <ele>688.91999999999996</ele>
        <time>2018-09-19T09:48:36Z</time>
      </trkpt>
      <trkpt lat="48.413370978087187" lon="9.471696009859443">
        <ele>688.91999999999996</ele>
        <time>2018-09-19T09:48:37Z</time>
      </trkpt>
      <trkpt lat="48.413501987233758" lon="9.471491994336247">
        <ele>689.39999999999998</ele>
        <time>2018-09-19T09:48:38Z</time>
      </trkpt>
      <trkpt lat="48.413650011643767" lon="9.471323015168309">
        <ele>689.39999999999998</ele>
        <time>2018-09-19T09:48:39Z</time>
      </trkpt>
      <trkpt lat="48.413811028003693" lon="9.471170967444778">
        <ele>689.39999999999998</ele>
        <time>2018-09-19T09:48:40Z</time>
      </trkpt>
      <trkpt lat="48.413971038535237" lon="9.471031995490193">
        <ele>689.39999999999998</ele>
        <time>2018-09-19T09:48:41Z</time>
      </trkpt>
      <trkpt lat="48.414146974682808" lon="9.470922024920583">
        <ele>689.39999999999998</ele>
        <time>2018-09-19T09:48:42Z</time>
      </trkpt>
      <trkpt lat="48.414320982992649" lon="9.470813982188702">
        <ele>689.88</ele>
        <time>2018-09-19T09:48:43Z</time>
      </trkpt>
      <trkpt lat="48.414503959938884" lon="9.4707449991256">
        <ele>689.88</ele>
        <time>2018-09-19T09:48:44Z</time>
      </trkpt>
      <trkpt lat="48.414698000997305" lon="9.470698982477188">
        <ele>690.36000000000001</ele>
        <time>2018-09-19T09:48:45Z</time>
      </trkpt>
      <trkpt lat="48.414898999035358" lon="9.470668975263834">
        <ele>690.84000000000003</ele>
        <time>2018-09-19T09:48:46Z</time>
      </trkpt>
      <trkpt lat="48.415094967931509" lon="9.47068003937602">
        <ele>691.80999999999995</ele>
        <time>2018-09-19T09:48:47Z</time>
      </trkpt>
      <trkpt lat="48.415297977626324" lon="9.470715997740626">
        <ele>692.28999999999996</ele>
        <time>2018-09-19T09:48:48Z</time>
      </trkpt>
      <trkpt lat="48.415492018684745" lon="9.470794033259153">
        <ele>693.25</ele>
        <time>2018-09-19T09:48:49Z</time>
      </trkpt>
      <trkpt lat="48.415686981752515" lon="9.470871984958649">
        <ele>694.21000000000004</ele>
        <time>2018-09-19T09:48:50Z</time>
      </trkpt>
      <trkpt lat="48.415888985618949" lon="9.470962006598711">
        <ele>694.69000000000005</ele>
        <time>2018-09-19T09:48:51Z</time>
      </trkpt>
      <trkpt lat="48.416065005585551" lon="9.471116987988353">
        <ele>695.64999999999998</ele>
        <time>2018-09-19T09:48:52Z</time>
      </trkpt>
      <trkpt lat="48.416241025552154" lon="9.471271969377995">
        <ele>696.61000000000001</ele>
        <time>2018-09-19T09:48:53Z</time>
      </trkpt>
      <trkpt lat="48.416418973356485" lon="9.47143298573792">
        <ele>697.57000000000005</ele>
        <time>2018-09-19T09:48:54Z</time>
      </trkpt>
      <trkpt lat="48.417971972376108" lon="9.473240040242672">
        <ele>705.25999999999999</ele>
        <time>2018-09-19T09:49:03Z</time>
      </trkpt>
      <trkpt lat="48.419276028871536" lon="9.473883016034961">
        <ele>711.50999999999999</ele>
        <time>2018-09-19T09:49:09Z</time>
      </trkpt>
      <trkpt lat="48.420592993497849" lon="9.473773967474699">
        <ele>717.27999999999997</ele>
        <time>2018-09-19T09:49:15Z</time>
      </trkpt>
      <trkpt lat="48.422119002789259" lon="9.472792027518153">
        <ele>720.64999999999998</ele>
        <time>2018-09-19T09:49:22Z</time>
      </trkpt>
      <trkpt lat="48.424213975667953" lon="9.471103996038437">
        <ele>715.84000000000003</ele>
        <time>2018-09-19T09:49:31Z</time>
      </trkpt>
      <trkpt lat="48.42669602483511" lon="9.468985972926021">
        <ele>707.19000000000005</ele>
        <time>2018-09-19T09:49:40Z</time>
      </trkpt>
      <trkpt lat="48.428154978901148" lon="9.467374971136451">
        <ele>701.89999999999998</ele>
        <time>2018-09-19T09:49:46Z</time>
      </trkpt>
      <trkpt lat="48.428389001637697" lon="9.467183025553823">
        <ele>700.94000000000005</ele>
        <time>2018-09-19T09:49:47Z</time>
      </trkpt>
      <trkpt lat="48.428639033809304" lon="9.467033995315433">
        <ele>700.46000000000004</ele>
        <time>2018-09-19T09:49:48Z</time>
      </trkpt>
      <trkpt lat="48.428893005475402" lon="9.466933999210596">
        <ele>699.5</ele>
        <time>2018-09-19T09:49:49Z</time>
      </trkpt>
      <trkpt lat="48.429604964330792" lon="9.466651026159525">
        <ele>697.57000000000005</ele>
        <time>2018-09-19T09:49:52Z</time>
      </trkpt>
      <trkpt lat="48.429827000945807" lon="9.466524962335825">
        <ele>696.61000000000001</ele>
        <time>2018-09-19T09:49:53Z</time>
      </trkpt>
      <trkpt lat="48.431734973564744" lon="9.464905997738242">
        <ele>693.25</ele>
        <time>2018-09-19T09:50:02Z</time>
      </trkpt>
      <trkpt lat="48.431919040158391" lon="9.464722014963627">
        <ele>692.28999999999996</ele>
        <time>2018-09-19T09:50:03Z</time>
      </trkpt>
      <trkpt lat="48.432067986577749" lon="9.46449302136898">
        <ele>691.80999999999995</ele>
        <time>2018-09-19T09:50:04Z</time>
      </trkpt>
      <trkpt lat="48.432595962658525" lon="9.463560031726956">
        <ele>688.44000000000005</ele>
        <time>2018-09-19T09:50:08Z</time>
      </trkpt>
      <trkpt lat="48.432680033147335" lon="9.463322991505265">
        <ele>687.48000000000002</ele>
        <time>2018-09-19T09:50:09Z</time>
      </trkpt>
      <trkpt lat="48.432715991511941" lon="9.463073965162039">
        <ele>686.51999999999998</ele>
        <time>2018-09-19T09:50:10Z</time>
      </trkpt>
      <trkpt lat="48.43288698233664" lon="9.462162014096975">
        <ele>683.63</ele>
        <time>2018-09-19T09:50:14Z</time>
      </trkpt>
      <trkpt lat="48.432953031733632" lon="9.461998986080289">
        <ele>682.66999999999996</ele>
        <time>2018-09-19T09:50:15Z</time>
      </trkpt>
      <trkpt lat="48.43303500674665" lon="9.461889015510678">
        <ele>682.19000000000005</ele>
        <time>2018-09-19T09:50:16Z</time>
      </trkpt>
      <trkpt lat="48.433158975094557" lon="9.461833024397492">
        <ele>681.23000000000002</ele>
        <time>2018-09-19T09:50:17Z</time>
      </trkpt>
      <trkpt lat="48.433284033089876" lon="9.461778961122036">
        <ele>680.26999999999998</ele>
        <time>2018-09-19T09:50:18Z</time>
      </trkpt>
      <trkpt lat="48.433429040014744" lon="9.461746020242572">
        <ele>679.30999999999995</ele>
        <time>2018-09-19T09:50:19Z</time>
      </trkpt>
      <trkpt lat="48.433587960898876" lon="9.461710983887315">
        <ele>678.35000000000002</ele>
        <time>2018-09-19T09:50:20Z</time>
      </trkpt>
      <trkpt lat="48.433753000572324" lon="9.461673013865948">
        <ele>677.38999999999999</ele>
        <time>2018-09-19T09:50:21Z</time>
      </trkpt>
      <trkpt lat="48.434070004150271" lon="9.461623979732394">
        <ele>675.46000000000004</ele>
        <time>2018-09-19T09:50:23Z</time>
      </trkpt>
      <trkpt lat="48.434224985539913" lon="9.46161400526762">
        <ele>674.5</ele>
        <time>2018-09-19T09:50:24Z</time>
      </trkpt>
      <trkpt lat="48.434377033263445" lon="9.46163596585393">
        <ele>673.53999999999996</ele>
        <time>2018-09-19T09:50:25Z</time>
      </trkpt>
      <trkpt lat="48.434526985511184" lon="9.46167603135109">
        <ele>672.58000000000004</ele>
        <time>2018-09-19T09:50:26Z</time>
      </trkpt>
      <trkpt lat="48.434679033234715" lon="9.461653986945748">
        <ele>671.13999999999999</ele>
        <time>2018-09-19T09:50:27Z</time>
      </trkpt>
      <trkpt lat="48.434804007411003" lon="9.461586009711027">
        <ele>670.17999999999995</ele>
        <time>2018-09-19T09:50:28Z</time>
      </trkpt>
      <trkpt lat="48.434914983808994" lon="9.461467992514372">
        <ele>668.73000000000002</ele>
        <time>2018-09-19T09:50:29Z</time>
      </trkpt>
      <trkpt lat="48.435024032369256" lon="9.461327008903027">
        <ele>667.76999999999998</ele>
        <time>2018-09-19T09:50:30Z</time>
      </trkpt>
      <trkpt lat="48.435138026252389" lon="9.461179990321398">
        <ele>666.80999999999995</ele>
        <time>2018-09-19T09:50:31Z</time>
      </trkpt>
      <trkpt lat="48.435469027608633" lon="9.46075301617384">
        <ele>663.45000000000005</ele>
        <time>2018-09-19T09:50:34Z</time>
      </trkpt>
      <trkpt lat="48.435562988743186" lon="9.460686966776848">
        <ele>662.49000000000001</ele>
        <time>2018-09-19T09:50:35Z</time>
      </trkpt>
      <trkpt lat="48.435687962919474" lon="9.460639022290707">
        <ele>661.03999999999996</ele>
        <time>2018-09-19T09:50:36Z</time>
      </trkpt>
      <trkpt lat="48.435845961794257" lon="9.460580013692379">
        <ele>659.60000000000002</ele>
        <time>2018-09-19T09:50:37Z</time>
      </trkpt>
      <trkpt lat="48.435962973162532" lon="9.460622007027268">
        <ele>658.63999999999999</ele>
        <time>2018-09-19T09:50:38Z</time>
      </trkpt>
      <trkpt lat="48.436116026714444" lon="9.460676992312074">
        <ele>657.20000000000005</ele>
        <time>2018-09-19T09:50:39Z</time>
      </trkpt>
      <trkpt lat="48.436259021982551" lon="9.460728960111737">
        <ele>655.75999999999999</ele>
        <time>2018-09-19T09:50:40Z</time>
      </trkpt>
      <trkpt lat="48.436392964795232" lon="9.460771959275007">
        <ele>654.30999999999995</ele>
        <time>2018-09-19T09:50:41Z</time>
      </trkpt>
      <trkpt lat="48.436513999477029" lon="9.460746981203556">
        <ele>653.35000000000002</ele>
        <time>2018-09-19T09:50:42Z</time>
      </trkpt>
      <trkpt lat="48.436636961996555" lon="9.4606670178473">
        <ele>651.90999999999997</ele>
        <time>2018-09-19T09:50:43Z</time>
      </trkpt>
      <trkpt lat="48.436721032485366" lon="9.460536008700728">
        <ele>650.95000000000005</ele>
        <time>2018-09-19T09:50:44Z</time>
      </trkpt>
      <trkpt lat="48.436783980578184" lon="9.460339033976197">
        <ele>649.99000000000001</ele>
        <time>2018-09-19T09:50:45Z</time>
      </trkpt>
      <trkpt lat="48.436832008883357" lon="9.460133006796241">
        <ele>649.02999999999997</ele>
        <time>2018-09-19T09:50:46Z</time>
      </trkpt>
      <trkpt lat="48.436985984444618" lon="9.459478966891766">
        <ele>645.65999999999997</ele>
        <time>2018-09-19T09:50:49Z</time>
      </trkpt>
      <trkpt lat="48.437067037448287" lon="9.459302024915814">
        <ele>644.70000000000005</ele>
        <time>2018-09-19T09:50:50Z</time>
      </trkpt>
      <trkpt lat="48.43718103133142" lon="9.459167998284102">
        <ele>643.74000000000001</ele>
        <time>2018-09-19T09:50:51Z</time>
      </trkpt>
      <trkpt lat="48.437291001901031" lon="9.459068002179265">
        <ele>642.29999999999995</ele>
        <time>2018-09-19T09:50:52Z</time>
      </trkpt>
      <trkpt lat="48.437401978299022" lon="9.459004970267415">
        <ele>640.86000000000001</ele>
        <time>2018-09-19T09:50:53Z</time>
      </trkpt>
      <trkpt lat="48.43752795830369" lon="9.459045035764575">
        <ele>639.88999999999999</ele>
        <time>2018-09-19T09:50:54Z</time>
      </trkpt>
      <trkpt lat="48.437644969671965" lon="9.459130028262734">
        <ele>638.92999999999995</ele>
        <time>2018-09-19T09:50:55Z</time>
      </trkpt>
      <trkpt lat="48.437730967998505" lon="9.459270006045699">
        <ele>637.49000000000001</ele>
        <time>2018-09-19T09:50:56Z</time>
      </trkpt>
      <trkpt lat="48.437818977981806" lon="9.459413001313806">
        <ele>636.52999999999997</ele>
        <time>2018-09-19T09:50:57Z</time>
      </trkpt>
      <trkpt lat="48.437925009056926" lon="9.459539987146854">
        <ele>634.61000000000001</ele>
        <time>2018-09-19T09:50:58Z</time>
      </trkpt>
      <trkpt lat="48.438058029860258" lon="9.459652975201607">
        <ele>632.67999999999995</ele>
        <time>2018-09-19T09:50:59Z</time>
      </trkpt>
      <trkpt lat="48.438203958794475" lon="9.459750037640333">
        <ele>631.24000000000001</ele>
        <time>2018-09-19T09:51:00Z</time>
      </trkpt>
      <trkpt lat="48.438362963497639" lon="9.459775015711784">
        <ele>629.32000000000005</ele>
        <time>2018-09-19T09:51:01Z</time>
      </trkpt>
      <trkpt lat="48.438520040363073" lon="9.459799993783236">
        <ele>627.88</ele>
        <time>2018-09-19T09:51:02Z</time>
      </trkpt>
      <trkpt lat="48.438668986782432" lon="9.459730004891753">
        <ele>626.44000000000005</ele>
        <time>2018-09-19T09:51:03Z</time>
      </trkpt>
      <trkpt lat="48.438807036727667" lon="9.459606036543846">
        <ele>624.99000000000001</ele>
        <time>2018-09-19T09:51:04Z</time>
      </trkpt>
      <trkpt lat="48.438929999247193" lon="9.459430016577244">
        <ele>624.02999999999997</ele>
        <time>2018-09-19T09:51:05Z</time>
      </trkpt>
      <trkpt lat="48.439058996737003" lon="9.459246033802629">
        <ele>623.07000000000005</ele>
        <time>2018-09-19T09:51:06Z</time>
      </trkpt>
      <trkpt lat="48.439198974519968" lon="9.459046963602305">
        <ele>621.63</ele>
        <time>2018-09-19T09:51:07Z</time>
      </trkpt>
      <trkpt lat="48.439344987273216" lon="9.458839008584619">
        <ele>620.66999999999996</ele>
        <time>2018-09-19T09:51:08Z</time>
      </trkpt>
      <trkpt lat="48.439903976395726" lon="9.458143981173635">
        <ele>615.38</ele>
        <time>2018-09-19T09:51:12Z</time>
      </trkpt>
      <trkpt lat="48.440052000805736" lon="9.45806996896863">
        <ele>613.94000000000005</ele>
        <time>2018-09-19T09:51:13Z</time>
      </trkpt>
      <trkpt lat="48.44023397192359" lon="9.458043985068798">
        <ele>612.98000000000002</ele>
        <time>2018-09-19T09:51:14Z</time>
      </trkpt>
      <trkpt lat="48.440415021032095" lon="9.458018001168966">
        <ele>611.53999999999996</ele>
        <time>2018-09-19T09:51:15Z</time>
      </trkpt>
      <trkpt lat="48.440605960786343" lon="9.458033004775643">
        <ele>610.09000000000003</ele>
        <time>2018-09-19T09:51:16Z</time>
      </trkpt>
      <trkpt lat="48.440786004066467" lon="9.458080027252436">
        <ele>608.64999999999998</ele>
        <time>2018-09-19T09:51:17Z</time>
      </trkpt>
      <trkpt lat="48.44096302986145" lon="9.458142975345254">
        <ele>607.21000000000004</ele>
        <time>2018-09-19T09:51:18Z</time>
      </trkpt>
      <trkpt lat="48.441275004297495" lon="9.458321006968617">
        <ele>604.33000000000004</ele>
        <time>2018-09-19T09:51:20Z</time>
      </trkpt>
      <trkpt lat="48.441411964595318" lon="9.458370041102171">
        <ele>603.36000000000001</ele>
        <time>2018-09-19T09:51:21Z</time>
      </trkpt>
      <trkpt lat="48.441553032025695" lon="9.458342967554927">
        <ele>602.39999999999998</ele>
        <time>2018-09-19T09:51:22Z</time>
      </trkpt>
      <trkpt lat="48.441685969009995" lon="9.458258980885148">
        <ele>601.44000000000005</ele>
        <time>2018-09-19T09:51:23Z</time>
      </trkpt>
      <trkpt lat="48.441815972328186" lon="9.458126965910196">
        <ele>600.48000000000002</ele>
        <time>2018-09-19T09:51:24Z</time>
      </trkpt>
      <trkpt lat="48.441940024495125" lon="9.457957986742258">
        <ele>599.51999999999998</ele>
        <time>2018-09-19T09:51:25Z</time>
      </trkpt>
      <trkpt lat="48.442070027813315" lon="9.457781966775656">
        <ele>598.55999999999995</ele>
        <time>2018-09-19T09:51:26Z</time>
      </trkpt>
      <trkpt lat="48.442203970625997" lon="9.457601001486182">
        <ele>597.60000000000002</ele>
        <time>2018-09-19T09:51:27Z</time>
      </trkpt>
      <trkpt lat="48.442345960065722" lon="9.457407966256142">
        <ele>596.63999999999999</ele>
        <time>2018-09-19T09:51:28Z</time>
      </trkpt>
      <trkpt lat="48.442651983350515" lon="9.457113007083535">
        <ele>594.23000000000002</ele>
        <time>2018-09-19T09:51:30Z</time>
      </trkpt>
      <trkpt lat="48.442796990275383" lon="9.456989038735628">
        <ele>593.26999999999998</ele>
        <time>2018-09-19T09:51:31Z</time>
      </trkpt>
      <trkpt lat="48.442939985543489" lon="9.456926006823778">
        <ele>591.83000000000004</ele>
        <time>2018-09-19T09:51:32Z</time>
      </trkpt>
      <trkpt lat="48.443104019388556" lon="9.456913014873862">
        <ele>590.87</ele>
        <time>2018-09-19T09:51:33Z</time>
      </trkpt>
      <trkpt lat="48.443271992728114" lon="9.456946961581707">
        <ele>589.42999999999995</ele>
        <time>2018-09-19T09:51:34Z</time>
      </trkpt>
      <trkpt lat="48.443457987159491" lon="9.456989960744977">
        <ele>588.46000000000004</ele>
        <time>2018-09-19T09:51:35Z</time>
      </trkpt>
      <trkpt lat="48.443846991285682" lon="9.457052992656827">
        <ele>586.05999999999995</ele>
        <time>2018-09-19T09:51:37Z</time>
      </trkpt>
      <trkpt lat="48.444025022909045" lon="9.457034971565008">
        <ele>585.10000000000002</ele>
        <time>2018-09-19T09:51:38Z</time>
      </trkpt>
      <trkpt lat="48.444200037047267" lon="9.45701502263546">
        <ele>584.13999999999999</ele>
        <time>2018-09-19T09:51:39Z</time>
      </trkpt>
      <trkpt lat="48.444343032315373" lon="9.456943022087216">
        <ele>583.17999999999995</ele>
        <time>2018-09-19T09:51:40Z</time>
      </trkpt>
      <trkpt lat="48.4444659948349" lon="9.456877978518605">
        <ele>582.22000000000003</ele>
        <time>2018-09-19T09:51:41Z</time>
      </trkpt>
      <trkpt lat="48.444560039788485" lon="9.456805977970362">
        <ele>581.25</ele>
        <time>2018-09-19T09:51:42Z</time>
      </trkpt>
      <trkpt lat="48.445327989757061" lon="9.45622100494802">
        <ele>578.85000000000002</ele>
        <time>2018-09-19T09:51:50Z</time>
      </trkpt>
      <trkpt lat="48.445760998874903" lon="9.455909030511975">
        <ele>578.85000000000002</ele>
        <time>2018-09-19T09:51:54Z</time>
      </trkpt>
      <trkpt lat="48.446167018264532" lon="9.455768968909979">
        <ele>578.37</ele>
        <time>2018-09-19T09:51:58Z</time>
      </trkpt>
      <trkpt lat="48.44635896384716" lon="9.455703003332019">
        <ele>578.85000000000002</ele>
        <time>2018-09-19T09:52:01Z</time>
      </trkpt>
      <trkpt lat="48.446401041001081" lon="9.455689005553722">
        <ele>579.33000000000004</ele>
        <time>2018-09-19T09:52:02Z</time>
      </trkpt>
      <trkpt lat="48.446510005742311" lon="9.455880029127002">
        <ele>579.80999999999995</ele>
        <time>2018-09-19T09:52:03Z</time>
      </trkpt>
      <trkpt lat="48.446510005742311" lon="9.4559630099684">
        <ele>580.28999999999996</ele>
        <time>2018-09-19T09:52:04Z</time>
      </trkpt>
      <trkpt lat="48.446510005742311" lon="9.456063006073237">
        <ele>580.28999999999996</ele>
        <time>2018-09-19T09:52:05Z</time>
      </trkpt>
      <trkpt lat="48.446510005742311" lon="9.456184962764382">
        <ele>580.76999999999998</ele>
        <time>2018-09-19T09:52:06Z</time>
      </trkpt>
      <trkpt lat="48.446510005742311" lon="9.456326030194759">
        <ele>580.76999999999998</ele>
        <time>2018-09-19T09:52:07Z</time>
      </trkpt>
      <trkpt lat="48.446488967165351" lon="9.457780960947275">
        <ele>581.73000000000002</ele>
        <time>2018-09-19T09:52:15Z</time>
      </trkpt>
      <trkpt lat="48.446488967165351" lon="9.459899989888072">
        <ele>591.83000000000004</ele>
        <time>2018-09-19T09:52:27Z</time>
      </trkpt>
      <trkpt lat="48.446504976600409" lon="9.460257980972529">
        <ele>592.78999999999996</ele>
        <time>2018-09-19T09:52:29Z</time>
      </trkpt>
      <trkpt lat="48.446558034047484" lon="9.460608009248972">
        <ele>592.78999999999996</ele>
        <time>2018-09-19T09:52:31Z</time>
      </trkpt>
      <trkpt lat="48.446585023775697" lon="9.460785035043955">
        <ele>592.30999999999995</ele>
        <time>2018-09-19T09:52:32Z</time>
      </trkpt>
      <trkpt lat="48.446626011282206" lon="9.460955020040274">
        <ele>591.83000000000004</ele>
        <time>2018-09-19T09:52:33Z</time>
      </trkpt>
      <trkpt lat="48.446677979081869" lon="9.46112098172307">
        <ele>591.35000000000002</ele>
        <time>2018-09-19T09:52:34Z</time>
      </trkpt>
      <trkpt lat="48.446734976023436" lon="9.461295995861292">
        <ele>590.38999999999999</ele>
        <time>2018-09-19T09:52:35Z</time>
      </trkpt>
      <trkpt lat="48.447312992066145" lon="9.462846983224154">
        <ele>586.05999999999995</ele>
        <time>2018-09-19T09:52:42Z</time>
      </trkpt>
      <trkpt lat="48.448197031393647" lon="9.465531036257744">
        <ele>580.76999999999998</ele>
        <time>2018-09-19T09:52:51Z</time>
      </trkpt>
      <trkpt lat="48.448399035260081" lon="9.466456985101104">
        <ele>579.80999999999995</ele>
        <time>2018-09-19T09:52:54Z</time>
      </trkpt>
      <trkpt lat="48.448491990566254" lon="9.466711040586233">
        <ele>579.33000000000004</ele>
        <time>2018-09-19T09:52:55Z</time>
      </trkpt>
      <trkpt lat="48.44859198667109" lon="9.466923018917441">
        <ele>578.85000000000002</ele>
        <time>2018-09-19T09:52:56Z</time>
      </trkpt>
      <trkpt lat="48.448699023574591" lon="9.467060985043645">
        <ele>578.85000000000002</ele>
        <time>2018-09-19T09:52:57Z</time>
      </trkpt>
      <trkpt lat="48.448871020227671" lon="9.467185959219933">
        <ele>578.85000000000002</ele>
        <time>2018-09-19T09:52:58Z</time>
      </trkpt>
      <trkpt lat="48.449024995788932" lon="9.467297019436956">
        <ele>578.85000000000002</ele>
        <time>2018-09-19T09:52:59Z</time>
      </trkpt>
      <trkpt lat="48.449207972735167" lon="9.467333983629942">
        <ele>578.85000000000002</ele>
        <time>2018-09-19T09:53:00Z</time>
      </trkpt>
      <trkpt lat="48.449397990480065" lon="9.46737295947969">
        <ele>579.33000000000004</ele>
        <time>2018-09-19T09:53:01Z</time>
      </trkpt>
      <trkpt lat="48.449607035145164" lon="9.467415036633611">
        <ele>579.33000000000004</ele>
        <time>2018-09-19T09:53:02Z</time>
      </trkpt>
      <trkpt lat="48.450479004532099" lon="9.467591978609562">
        <ele>580.28999999999996</ele>
        <time>2018-09-19T09:53:06Z</time>
      </trkpt>
      <trkpt lat="48.450659969821572" lon="9.467680994421244">
        <ele>580.76999999999998</ele>
        <time>2018-09-19T09:53:07Z</time>
      </trkpt>
      <trkpt lat="48.450817968696356" lon="9.467764981091023">
        <ele>581.25</ele>
        <time>2018-09-19T09:53:08Z</time>
      </trkpt>
      <trkpt lat="48.450969010591507" lon="9.46793002076447">
        <ele>581.25</ele>
        <time>2018-09-19T09:53:09Z</time>
      </trkpt>
      <trkpt lat="48.451102031394839" lon="9.468111991882324">
        <ele>581.73000000000002</ele>
        <time>2018-09-19T09:53:10Z</time>
      </trkpt>
      <trkpt lat="48.451199010014534" lon="9.468305027112365">
        <ele>581.73000000000002</ele>
        <time>2018-09-19T09:53:11Z</time>
      </trkpt>
      <trkpt lat="48.451280985027552" lon="9.468570984899998">
        <ele>582.22000000000003</ele>
        <time>2018-09-19T09:53:12Z</time>
      </trkpt>
      <trkpt lat="48.451344016939402" lon="9.468827974051237">
        <ele>582.22000000000003</ele>
        <time>2018-09-19T09:53:13Z</time>
      </trkpt>
      <trkpt lat="48.451849026605487" lon="9.470689008012414">
        <ele>582.70000000000005</ele>
        <time>2018-09-19T09:53:20Z</time>
      </trkpt>
      <trkpt lat="48.451953968033195" lon="9.470883971080184">
        <ele>582.70000000000005</ele>
        <time>2018-09-19T09:53:21Z</time>
      </trkpt>
      <trkpt lat="48.452067961916327" lon="9.471029983833432">
        <ele>582.70000000000005</ele>
        <time>2018-09-19T09:53:22Z</time>
      </trkpt>
      <trkpt lat="48.452246999368072" lon="9.471130985766649">
        <ele>582.70000000000005</ele>
        <time>2018-09-19T09:53:23Z</time>
      </trkpt>
      <trkpt lat="48.45241597853601" lon="9.471223019063473">
        <ele>583.17999999999995</ele>
        <time>2018-09-19T09:53:24Z</time>
      </trkpt>
      <trkpt lat="48.452599961310625" lon="9.471223019063473">
        <ele>583.65999999999997</ele>
        <time>2018-09-19T09:53:25Z</time>
      </trkpt>
      <trkpt lat="48.452786039561033" lon="9.471210027113557">
        <ele>583.65999999999997</ele>
        <time>2018-09-19T09:53:26Z</time>
      </trkpt>
      <trkpt lat="48.452969016507268" lon="9.47113299742341">
        <ele>584.13999999999999</ele>
        <time>2018-09-19T09:53:27Z</time>
      </trkpt>
      <trkpt lat="48.453156016767025" lon="9.471054039895535">
        <ele>584.62</ele>
        <time>2018-09-19T09:53:28Z</time>
      </trkpt>
      <trkpt lat="48.453653985634446" lon="9.470843989402056">
        <ele>585.10000000000002</ele>
        <time>2018-09-19T09:53:31Z</time>
      </trkpt>
      <trkpt lat="48.453808967024088" lon="9.470807025209069">
        <ele>585.10000000000002</ele>
        <time>2018-09-19T09:53:32Z</time>
      </trkpt>
      <trkpt lat="48.453965038061142" lon="9.470811970531941">
        <ele>585.10000000000002</ele>
        <time>2018-09-19T09:53:33Z</time>
      </trkpt>
      <trkpt lat="48.45411297865212" lon="9.470896041020751">
        <ele>585.10000000000002</ele>
        <time>2018-09-19T09:53:34Z</time>
      </trkpt>
      <trkpt lat="48.454258991405368" lon="9.470992013812065">
        <ele>585.10000000000002</ele>
        <time>2018-09-19T09:53:35Z</time>
      </trkpt>
      <trkpt lat="48.454400980845094" lon="9.471151018515229">
        <ele>585.10000000000002</ele>
        <time>2018-09-19T09:53:36Z</time>
      </trkpt>
      <trkpt lat="48.454550011083484" lon="9.471316980198026">
        <ele>585.58000000000004</ele>
        <time>2018-09-19T09:53:37Z</time>
      </trkpt>
      <trkpt lat="48.45469300635159" lon="9.471528958529234">
        <ele>585.58000000000004</ele>
        <time>2018-09-19T09:53:38Z</time>
      </trkpt>
      <trkpt lat="48.455501021817327" lon="9.472888000309467">
        <ele>586.05999999999995</ele>
        <time>2018-09-19T09:53:44Z</time>
      </trkpt>
      <trkpt lat="48.455618033185601" lon="9.473083969205618">
        <ele>586.05999999999995</ele>
        <time>2018-09-19T09:53:45Z</time>
      </trkpt>
      <trkpt lat="48.455749964341521" lon="9.473253032192588">
        <ele>586.05999999999995</ele>
        <time>2018-09-19T09:53:46Z</time>
      </trkpt>
      <trkpt lat="48.455905029550195" lon="9.473380018025637">
        <ele>586.05999999999995</ele>
        <time>2018-09-19T09:53:47Z</time>
      </trkpt>
      <trkpt lat="48.456061016768217" lon="9.473462998867035">
        <ele>585.58000000000004</ele>
        <time>2018-09-19T09:53:48Z</time>
      </trkpt>
      <trkpt lat="48.456237036734819" lon="9.473523013293743">
        <ele>585.10000000000002</ele>
        <time>2018-09-19T09:53:49Z</time>
      </trkpt>
      <trkpt lat="48.456420013681054" lon="9.473533993586898">
        <ele>585.10000000000002</ele>
        <time>2018-09-19T09:53:50Z</time>
      </trkpt>
      <trkpt lat="48.456600978970528" lon="9.473508009687066">
        <ele>584.62</ele>
        <time>2018-09-19T09:53:51Z</time>
      </trkpt>
      <trkpt lat="48.456767024472356" lon="9.473429974168539">
        <ele>584.62</ele>
        <time>2018-09-19T09:53:52Z</time>
      </trkpt>
      <trkpt lat="48.456931980326772" lon="9.473332995548844">
        <ele>584.62</ele>
        <time>2018-09-19T09:53:53Z</time>
      </trkpt>
      <trkpt lat="48.45707799308002" lon="9.473168039694428">
        <ele>585.10000000000002</ele>
        <time>2018-09-19T09:53:54Z</time>
      </trkpt>
      <trkpt lat="48.457209002226591" lon="9.472961006686091">
        <ele>585.10000000000002</ele>
        <time>2018-09-19T09:53:55Z</time>
      </trkpt>
      <trkpt lat="48.457328025251627" lon="9.472737964242697">
        <ele>585.58000000000004</ele>
        <time>2018-09-19T09:53:56Z</time>
      </trkpt>
      <trkpt lat="48.457418968901038" lon="9.47246597148478">
        <ele>585.58000000000004</ele>
        <time>2018-09-19T09:53:57Z</time>
      </trkpt>
      <trkpt lat="48.457517959177494" lon="9.472167994827032">
        <ele>586.05999999999995</ele>
        <time>2018-09-19T09:53:58Z</time>
      </trkpt>
      <trkpt lat="48.457925990223885" lon="9.470686996355653">
        <ele>587.01999999999998</ele>
        <time>2018-09-19T09:54:03Z</time>
      </trkpt>
      <trkpt lat="48.458036966621876" lon="9.47044400498271">
        <ele>587.5</ele>
        <time>2018-09-19T09:54:04Z</time>
      </trkpt>
      <trkpt lat="48.458138974383473" lon="9.470222974196076">
        <ele>587.5</ele>
        <time>2018-09-19T09:54:05Z</time>
      </trkpt>
      <trkpt lat="48.458273001015186" lon="9.470051983371377">
        <ele>587.98000000000002</ele>
        <time>2018-09-19T09:54:06Z</time>
      </trkpt>
      <trkpt lat="48.458422031253576" lon="9.469891972839832">
        <ele>588.46000000000004</ele>
        <time>2018-09-19T09:54:07Z</time>
      </trkpt>
      <trkpt lat="48.458591010421515" lon="9.469773033633828">
        <ele>588.46000000000004</ele>
        <time>2018-09-19T09:54:08Z</time>
      </trkpt>
      <trkpt lat="48.458773987367749" lon="9.469654010608792">
        <ele>588.46000000000004</ele>
        <time>2018-09-19T09:54:09Z</time>
      </trkpt>
      <trkpt lat="48.459672024473548" lon="9.469084963202477">
        <ele>590.38999999999999</ele>
        <time>2018-09-19T09:54:14Z</time>
      </trkpt>
      <trkpt lat="48.459833962842822" lon="9.469057973474264">
        <ele>590.38999999999999</ele>
        <time>2018-09-19T09:54:15Z</time>
      </trkpt>
      <trkpt lat="48.460006965324283" lon="9.469035007059574">
        <ele>590.87</ele>
        <time>2018-09-19T09:54:16Z</time>
      </trkpt>
      <trkpt lat="48.46017200499773" lon="9.469112036749721">
        <ele>591.35000000000002</ele>
        <time>2018-09-19T09:54:17Z</time>
      </trkpt>
      <trkpt lat="48.460345007479191" lon="9.469201974570751">
        <ele>591.83000000000004</ele>
        <time>2018-09-19T09:54:18Z</time>
      </trkpt>
      <trkpt lat="48.460498983040452" lon="9.469366008415818">
        <ele>592.30999999999995</ele>
        <time>2018-09-19T09:54:19Z</time>
      </trkpt>
      <trkpt lat="48.460655976086855" lon="9.469532975926995">
        <ele>592.78999999999996</ele>
        <time>2018-09-19T09:54:20Z</time>
      </trkpt>
      <trkpt lat="48.460814980790019" lon="9.469702960923314">
        <ele>593.26999999999998</ele>
        <time>2018-09-19T09:54:21Z</time>
      </trkpt>
      <trkpt lat="48.460973985493183" lon="9.469872023910284">
        <ele>594.23000000000002</ele>
        <time>2018-09-19T09:54:22Z</time>
      </trkpt>
      <trkpt lat="48.461165009066463" lon="9.469947963953018">
        <ele>595.19000000000005</ele>
        <time>2018-09-19T09:54:23Z</time>
      </trkpt>
      <trkpt lat="48.461362989619374" lon="9.470027005299926">
        <ele>595.66999999999996</ele>
        <time>2018-09-19T09:54:24Z</time>
      </trkpt>
      <trkpt lat="48.461565999314189" lon="9.470108980312944">
        <ele>596.63999999999999</ele>
        <time>2018-09-19T09:54:25Z</time>
      </trkpt>
      <trkpt lat="48.461964977905154" lon="9.470302015542984">
        <ele>598.55999999999995</ele>
        <time>2018-09-19T09:54:27Z</time>
      </trkpt>
      <trkpt lat="48.462158013135195" lon="9.470426989719272">
        <ele>599.03999999999996</ele>
        <time>2018-09-19T09:54:28Z</time>
      </trkpt>
      <trkpt lat="48.462340990081429" lon="9.470592029392719">
        <ele>600</ele>
        <time>2018-09-19T09:54:29Z</time>
      </trkpt>
      <trkpt lat="48.462509969249368" lon="9.470798978582025">
        <ele>600.96000000000004</ele>
        <time>2018-09-19T09:54:30Z</time>
      </trkpt>
      <trkpt lat="48.462681965902448" lon="9.471008023247123">
        <ele>601.91999999999996</ele>
        <time>2018-09-19T09:54:31Z</time>
      </trkpt>
      <trkpt lat="48.463980993255973" lon="9.472478041425347">
        <ele>605.76999999999998</ele>
        <time>2018-09-19T09:54:38Z</time>
      </trkpt>
      <trkpt lat="48.46530600450933" lon="9.473297037184238">
        <ele>609.13</ele>
        <time>2018-09-19T09:54:44Z</time>
      </trkpt>
      <trkpt lat="48.465772960335016" lon="9.473433997482061">
        <ele>610.09000000000003</ele>
        <time>2018-09-19T09:54:46Z</time>
      </trkpt>
      <trkpt lat="48.466007988899946" lon="9.47347498498857">
        <ele>610.57000000000005</ele>
        <time>2018-09-19T09:54:47Z</time>
      </trkpt>
      <trkpt lat="48.466244023293257" lon="9.473460987210274">
        <ele>611.05999999999995</ele>
        <time>2018-09-19T09:54:48Z</time>
      </trkpt>
      <trkpt lat="48.466474022716284" lon="9.473445983603597">
        <ele>612.01999999999998</ele>
        <time>2018-09-19T09:54:49Z</time>
      </trkpt>
      <trkpt lat="48.466701004654169" lon="9.473418993875384">
        <ele>612.5</ele>
        <time>2018-09-19T09:54:50Z</time>
      </trkpt>
      <trkpt lat="48.467124961316586" lon="9.473263006657362">
        <ele>613.94000000000005</ele>
        <time>2018-09-19T09:54:52Z</time>
      </trkpt>
      <trkpt lat="48.46732696518302" lon="9.473182959482074">
        <ele>614.41999999999996</ele>
        <time>2018-09-19T09:54:53Z</time>
      </trkpt>
      <trkpt lat="48.467516982927918" lon="9.473068965598941">
        <ele>615.38</ele>
        <time>2018-09-19T09:54:54Z</time>
      </trkpt>
      <trkpt lat="48.467679005116224" lon="9.472885988652706">
        <ele>615.86000000000001</ele>
        <time>2018-09-19T09:54:55Z</time>
      </trkpt>
      <trkpt lat="48.467835998162627" lon="9.472708040848374">
        <ele>616.82000000000005</ele>
        <time>2018-09-19T09:54:56Z</time>
      </trkpt>
      <trkpt lat="48.467950997874141" lon="9.47246597148478">
        <ele>617.77999999999997</ele>
        <time>2018-09-19T09:54:57Z</time>
      </trkpt>
      <trkpt lat="48.468068009242415" lon="9.472216023132205">
        <ele>618.25999999999999</ele>
        <time>2018-09-19T09:54:58Z</time>
      </trkpt>
      <trkpt lat="48.468190971761942" lon="9.471956016495824">
        <ele>619.23000000000002</ele>
        <time>2018-09-19T09:54:59Z</time>
      </trkpt>
      <trkpt lat="48.469164026901126" lon="9.469585027545691">
        <ele>628.36000000000001</ele>
        <time>2018-09-19T09:55:07Z</time>
      </trkpt>
      <trkpt lat="48.469751011580229" lon="9.468589005991817">
        <ele>633.16999999999996</ele>
        <time>2018-09-19T09:55:11Z</time>
      </trkpt>
      <trkpt lat="48.469923008233309" lon="9.468393037095666">
        <ele>634.13</ele>
        <time>2018-09-19T09:55:12Z</time>
      </trkpt>
      <trkpt lat="48.470109002664685" lon="9.468250963836908">
        <ele>635.09000000000003</ele>
        <time>2018-09-19T09:55:13Z</time>
      </trkpt>
      <trkpt lat="48.470306983217597" lon="9.468119032680988">
        <ele>636.04999999999995</ele>
        <time>2018-09-19T09:55:14Z</time>
      </trkpt>
      <trkpt lat="48.470498006790876" lon="9.468002021312714">
        <ele>636.52999999999997</ele>
        <time>2018-09-19T09:55:15Z</time>
      </trkpt>
      <trkpt lat="48.47071903757751" lon="9.46797301992774">
        <ele>637.49000000000001</ele>
        <time>2018-09-19T09:55:16Z</time>
      </trkpt>
      <trkpt lat="48.470941996201873" lon="9.467943012714386">
        <ele>638.45000000000005</ele>
        <time>2018-09-19T09:55:17Z</time>
      </trkpt>
      <trkpt lat="48.471165038645267" lon="9.46793002076447">
        <ele>639.40999999999997</ele>
        <time>2018-09-19T09:55:18Z</time>
      </trkpt>
      <trkpt lat="48.47138699144125" lon="9.467989029362798">
        <ele>639.88999999999999</ele>
        <time>2018-09-19T09:55:19Z</time>
      </trkpt>
      <trkpt lat="48.471611039713025" lon="9.468048959970474">
        <ele>641.34000000000003</ele>
        <time>2018-09-19T09:55:20Z</time>
      </trkpt>
      <trkpt lat="48.471836009994149" lon="9.468121966347098">
        <ele>642.29999999999995</ele>
        <time>2018-09-19T09:55:21Z</time>
      </trkpt>
      <trkpt lat="48.472061986103654" lon="9.468221040442586">
        <ele>643.25999999999999</ele>
        <time>2018-09-19T09:55:22Z</time>
      </trkpt>
      <trkpt lat="48.472287962213159" lon="9.468321036547422">
        <ele>644.22000000000003</ele>
        <time>2018-09-19T09:55:23Z</time>
      </trkpt>
      <trkpt lat="48.474818961694837" lon="9.469677982851863">
        <ele>661.51999999999998</ele>
        <time>2018-09-19T09:55:34Z</time>
      </trkpt>
      <trkpt lat="48.475267980247736" lon="9.469869006425142">
        <ele>665.37</ele>
        <time>2018-09-19T09:55:36Z</time>
      </trkpt>
      <trkpt lat="48.475503008812666" lon="9.469903036952019">
        <ele>666.80999999999995</ele>
        <time>2018-09-19T09:55:37Z</time>
      </trkpt>
      <trkpt lat="48.475738959386945" lon="9.469936983659864">
        <ele>668.73000000000002</ele>
        <time>2018-09-19T09:55:38Z</time>
      </trkpt>
      <trkpt lat="48.477345015853643" lon="9.470119960606098">
        <ele>679.78999999999996</ele>
        <time>2018-09-19T09:55:45Z</time>
      </trkpt>
      <trkpt lat="48.477542996406555" lon="9.470074027776718">
        <ele>681.23000000000002</ele>
        <time>2018-09-19T09:55:46Z</time>
      </trkpt>
      <trkpt lat="48.477711975574493" lon="9.469972020015121">
        <ele>682.19000000000005</ele>
        <time>2018-09-19T09:55:47Z</time>
      </trkpt>
      <trkpt lat="48.477881960570812" lon="9.469852996990085">
        <ele>683.63</ele>
        <time>2018-09-19T09:55:48Z</time>
      </trkpt>
      <trkpt lat="48.478021016344428" lon="9.469683011993766">
        <ele>685.08000000000004</ele>
        <time>2018-09-19T09:55:49Z</time>
      </trkpt>
      <trkpt lat="48.47815403714776" lon="9.469459969550371">
        <ele>686.51999999999998</ele>
        <time>2018-09-19T09:55:50Z</time>
      </trkpt>
      <trkpt lat="48.478294014930725" lon="9.469227958470583">
        <ele>687.96000000000004</ele>
        <time>2018-09-19T09:55:51Z</time>
      </trkpt>
      <trkpt lat="48.478436004370451" lon="9.468989996239543">
        <ele>689.39999999999998</ele>
        <time>2018-09-19T09:55:52Z</time>
      </trkpt>
      <trkpt lat="48.47983100451529" lon="9.467150000855327">
        <ele>702.86000000000001</ele>
        <time>2018-09-19T09:56:00Z</time>
      </trkpt>
      <trkpt lat="48.480745973065495" lon="9.466501995921135">
        <ele>711.02999999999997</ele>
        <time>2018-09-19T09:56:04Z</time>
      </trkpt>
      <trkpt lat="48.481203960254788" lon="9.466308960691094">
        <ele>715.36000000000001</ele>
        <time>2018-09-19T09:56:06Z</time>
      </trkpt>
      <trkpt lat="48.481417028233409" lon="9.46627601981163">
        <ele>717.27999999999997</ele>
        <time>2018-09-19T09:56:07Z</time>
      </trkpt>
      <trkpt lat="48.481615008786321" lon="9.466245006769896">
        <ele>719.67999999999995</ele>
        <time>2018-09-19T09:56:08Z</time>
      </trkpt>
      <trkpt lat="48.481831010431051" lon="9.466295968741179">
        <ele>721.61000000000001</ele>
        <time>2018-09-19T09:56:09Z</time>
      </trkpt>
      <trkpt lat="48.482034020125866" lon="9.466345002874732">
        <ele>723.52999999999997</ele>
        <time>2018-09-19T09:56:10Z</time>
      </trkpt>
      <trkpt lat="48.482225965708494" lon="9.466455979272723">
        <ele>725.45000000000005</ele>
        <time>2018-09-19T09:56:11Z</time>
      </trkpt>
      <trkpt lat="48.482415983453393" lon="9.466589000076056">
        <ele>726.88999999999999</ele>
        <time>2018-09-19T09:56:12Z</time>
      </trkpt>
      <trkpt lat="48.482601977884769" lon="9.466754039749503">
        <ele>728.82000000000005</ele>
        <time>2018-09-19T09:56:13Z</time>
      </trkpt>
      <trkpt lat="48.482781015336514" lon="9.466932993382216">
        <ele>730.25999999999999</ele>
        <time>2018-09-19T09:56:14Z</time>
      </trkpt>
      <trkpt lat="48.482945971190929" lon="9.467146983370185">
        <ele>732.17999999999995</ele>
        <time>2018-09-19T09:56:15Z</time>
      </trkpt>
      <trkpt lat="48.483110005035996" lon="9.467359967529774">
        <ele>734.10000000000002</ele>
        <time>2018-09-19T09:56:16Z</time>
      </trkpt>
      <trkpt lat="48.483259035274386" lon="9.467593990266323">
        <ele>736.02999999999997</ele>
        <time>2018-09-19T09:56:17Z</time>
      </trkpt>
      <trkpt lat="48.48391399718821" lon="9.468970969319344">
        <ele>744.20000000000005</ele>
        <time>2018-09-19T09:56:23Z</time>
      </trkpt>
      <trkpt lat="48.484677001833916" lon="9.470827979966998">
        <ele>755.25</ele>
        <time>2018-09-19T09:56:33Z</time>
      </trkpt>
      <trkpt lat="48.485574033111334" lon="9.472863022238016">
        <ele>759.10000000000002</ele>
        <time>2018-09-19T09:56:42Z</time>
      </trkpt>
      <trkpt lat="48.486759988591075" lon="9.47514801286161">
        <ele>755.25</ele>
        <time>2018-09-19T09:56:50Z</time>
      </trkpt>
      <trkpt lat="48.488816991448402" lon="9.478361969813705">
        <ele>750.92999999999995</ele>
        <time>2018-09-19T09:57:01Z</time>
      </trkpt>
      <trkpt lat="48.490503011271358" lon="9.480986008420587">
        <ele>752.85000000000002</ele>
        <time>2018-09-19T09:57:11Z</time>
      </trkpt>
      <trkpt lat="48.49130499176681" lon="9.482193002477288">
        <ele>754.28999999999996</ele>
        <time>2018-09-19T09:57:18Z</time>
      </trkpt>
      <trkpt lat="48.491472965106368" lon="9.482439011335373">
        <ele>755.25</ele>
        <time>2018-09-19T09:57:20Z</time>
      </trkpt>
      <trkpt lat="48.491555023938417" lon="9.482527021318674">
        <ele>755.73000000000002</ele>
        <time>2018-09-19T09:57:21Z</time>
      </trkpt>
      <trkpt lat="48.491835985332727" lon="9.482731036841869">
        <ele>757.17999999999995</ele>
        <time>2018-09-19T09:57:24Z</time>
      </trkpt>
      <trkpt lat="48.491843026131392" lon="9.482848970219493">
        <ele>757.65999999999997</ele>
        <time>2018-09-19T09:57:25Z</time>
      </trkpt>
      <trkpt lat="48.491851994767785" lon="9.482993977144361">
        <ele>758.13999999999999</ele>
        <time>2018-09-19T09:57:26Z</time>
      </trkpt>
      <trkpt lat="48.491946961730719" lon="9.484415967017412">
        <ele>760.05999999999995</ele>
        <time>2018-09-19T09:57:32Z</time>
      </trkpt>
      <trkpt lat="48.492106972262263" lon="9.486854011192918">
        <ele>760.53999999999996</ele>
        <time>2018-09-19T09:57:39Z</time>
      </trkpt>
      <trkpt lat="48.492532018572092" lon="9.490955024957657">
        <ele>749.97000000000003</ele>
        <time>2018-09-19T09:57:49Z</time>
      </trkpt>
      <trkpt lat="48.493260992690921" lon="9.493667995557189">
        <ele>743.24000000000001</ele>
        <time>2018-09-19T09:57:56Z</time>
      </trkpt>
      <trkpt lat="48.493524016812444" lon="9.496278958395124">
        <ele>740.83000000000004</ele>
        <time>2018-09-19T09:58:03Z</time>
      </trkpt>
      <trkpt lat="48.493935987353325" lon="9.499267023056746">
        <ele>733.62</ele>
        <time>2018-09-19T09:58:12Z</time>
      </trkpt>
      <trkpt lat="48.494301019236445" lon="9.501321008428931">
        <ele>735.54999999999995</ele>
        <time>2018-09-19T09:58:20Z</time>
      </trkpt>
      <trkpt lat="48.494244022294879" lon="9.50299303047359">
        <ele>739.38999999999999</ele>
        <time>2018-09-19T09:58:27Z</time>
      </trkpt>
      <trkpt lat="48.494031960144639" lon="9.504656000062823">
        <ele>743.72000000000003</ele>
        <time>2018-09-19T09:58:33Z</time>
      </trkpt>
      <trkpt lat="48.493586964905262" lon="9.507675999775529">
        <ele>748.51999999999998</ele>
        <time>2018-09-19T09:58:44Z</time>
      </trkpt>
      <trkpt lat="48.493206007406116" lon="9.510082025080919">
        <ele>749.49000000000001</ele>
        <time>2018-09-19T09:58:51Z</time>
      </trkpt>
      <trkpt lat="48.492998974397779" lon="9.510906971991062">
        <ele>749.49000000000001</ele>
        <time>2018-09-19T09:58:54Z</time>
      </trkpt>
      <trkpt lat="48.492775009945035" lon="9.511569980531931">
        <ele>749.49000000000001</ele>
        <time>2018-09-19T09:58:58Z</time>
      </trkpt>
      <trkpt lat="48.492737961933017" lon="9.511664025485516">
        <ele>749.97000000000003</ele>
        <time>2018-09-19T09:58:59Z</time>
      </trkpt>
      <trkpt lat="48.492739973589778" lon="9.511809032410383">
        <ele>749.97000000000003</ele>
        <time>2018-09-19T09:59:00Z</time>
      </trkpt>
      <trkpt lat="48.492779033258557" lon="9.511898970231414">
        <ele>749.97000000000003</ele>
        <time>2018-09-19T09:59:01Z</time>
      </trkpt>
      <trkpt lat="48.492823960259557" lon="9.512003995478153">
        <ele>749.97000000000003</ele>
        <time>2018-09-19T09:59:02Z</time>
      </trkpt>
      <trkpt lat="48.492874000221491" lon="9.512120001018047">
        <ele>750.45000000000005</ele>
        <time>2018-09-19T09:59:03Z</time>
      </trkpt>
      <trkpt lat="48.492922028526664" lon="9.51223399490118">
        <ele>750.45000000000005</ele>
        <time>2018-09-19T09:59:04Z</time>
      </trkpt>
      <trkpt lat="48.492966033518314" lon="9.512336002662778">
        <ele>750.45000000000005</ele>
        <time>2018-09-19T09:59:05Z</time>
      </trkpt>
      <trkpt lat="48.493029987439513" lon="9.51242501847446">
        <ele>750.92999999999995</ele>
        <time>2018-09-19T09:59:06Z</time>
      </trkpt>
      <trkpt lat="48.493095031008124" lon="9.512516967952251">
        <ele>750.92999999999995</ele>
        <time>2018-09-19T09:59:07Z</time>
      </trkpt>
      <trkpt lat="48.493152027949691" lon="9.51259701512754">
        <ele>751.40999999999997</ele>
        <time>2018-09-19T09:59:08Z</time>
      </trkpt>
      <trkpt lat="48.493542959913611" lon="9.513107975944877">
        <ele>751.88999999999999</ele>
        <time>2018-09-19T09:59:16Z</time>
      </trkpt>
      <trkpt lat="48.493672963231802" lon="9.513273015618324">
        <ele>751.40999999999997</ele>
        <time>2018-09-19T09:59:18Z</time>
      </trkpt>
      <trkpt lat="48.493988960981369" lon="9.513503015041351">
        <ele>752.37</ele>
        <time>2018-09-19T09:59:22Z</time>
      </trkpt>
      <trkpt lat="48.494445020332932" lon="9.513766961172223">
        <ele>754.28999999999996</ele>
        <time>2018-09-19T09:59:28Z</time>
      </trkpt>
      <trkpt lat="48.494520960375667" lon="9.513820018619299">
        <ele>754.76999999999998</ele>
        <time>2018-09-19T09:59:29Z</time>
      </trkpt>
      <trkpt lat="48.494597990065813" lon="9.513876009732485">
        <ele>754.76999999999998</ele>
        <time>2018-09-19T09:59:30Z</time>
      </trkpt>
      <trkpt lat="48.494677031412721" lon="9.513932000845671">
        <ele>754.76999999999998</ele>
        <time>2018-09-19T09:59:31Z</time>
      </trkpt>
      <trkpt lat="48.494755988940597" lon="9.513988997787237">
        <ele>754.76999999999998</ele>
        <time>2018-09-19T09:59:32Z</time>
      </trkpt>
      <trkpt lat="48.495607003569603" lon="9.514417983591557">
        <ele>760.05999999999995</ele>
        <time>2018-09-19T09:59:42Z</time>
      </trkpt>
      <trkpt lat="48.495699958875775" lon="9.514448996633291">
        <ele>760.53999999999996</ele>
        <time>2018-09-19T09:59:43Z</time>
      </trkpt>
      <trkpt lat="48.496139002963901" lon="9.514474980533123">
        <ele>760.05999999999995</ele>
        <time>2018-09-19T09:59:48Z</time>
      </trkpt>
      <trkpt lat="48.496317034587264" lon="9.514465006068349">
        <ele>759.58000000000004</ele>
        <time>2018-09-19T09:59:50Z</time>
      </trkpt>
      <trkpt lat="48.496399009600282" lon="9.514460982754827">
        <ele>759.58000000000004</ele>
        <time>2018-09-19T09:59:51Z</time>
      </trkpt>
      <trkpt lat="48.496433962136507" lon="9.514358974993229">
        <ele>759.58000000000004</ele>
        <time>2018-09-19T09:59:52Z</time>
      </trkpt>
      <trkpt lat="48.496477967128158" lon="9.514226038008928">
        <ele>759.10000000000002</ele>
        <time>2018-09-19T09:59:53Z</time>
      </trkpt>
      <trkpt lat="48.49652498960495" lon="9.514084970578551">
        <ele>759.10000000000002</ele>
        <time>2018-09-19T09:59:54Z</time>
      </trkpt>
      <trkpt lat="48.496671002358198" lon="9.513311991468072">
        <ele>757.65999999999997</ele>
        <time>2018-09-19T09:59:59Z</time>
      </trkpt>
      <trkpt lat="48.496669996529818" lon="9.513163967058063">
        <ele>757.65999999999997</ele>
        <time>2018-09-19T10:00:00Z</time>
      </trkpt>
      <trkpt lat="48.496654992923141" lon="9.51300404034555">
        <ele>757.17999999999995</ele>
        <time>2018-09-19T10:00:01Z</time>
      </trkpt>
      <trkpt lat="48.496657004579902" lon="9.512237012386322">
        <ele>755.25</ele>
        <time>2018-09-19T10:00:06Z</time>
      </trkpt>
      <trkpt lat="48.496676031500101" lon="9.512098040431738">
        <ele>755.25</ele>
        <time>2018-09-19T10:00:07Z</time>
      </trkpt>
      <trkpt lat="48.496724981814623" lon="9.512007012963295">
        <ele>755.25</ele>
        <time>2018-09-19T10:00:08Z</time>
      </trkpt>
      <trkpt lat="48.496777033433318" lon="9.511925959959626">
        <ele>755.25</ele>
        <time>2018-09-19T10:00:09Z</time>
      </trkpt>
      <trkpt lat="48.496823972091079" lon="9.511853037402034">
        <ele>755.73000000000002</ele>
        <time>2018-09-19T10:00:10Z</time>
      </trkpt>
      <trkpt lat="48.496872000396252" lon="9.511778019368649">
        <ele>755.73000000000002</ele>
        <time>2018-09-19T10:00:11Z</time>
      </trkpt>
      <trkpt lat="48.496940983459353" lon="9.511722028255463">
        <ele>755.73000000000002</ele>
        <time>2018-09-19T10:00:12Z</time>
      </trkpt>
      <trkpt lat="48.497013989835978" lon="9.511663019657135">
        <ele>756.69000000000005</ele>
        <time>2018-09-19T10:00:13Z</time>
      </trkpt>
      <trkpt lat="48.497080961242318" lon="9.51160803437233">
        <ele>757.17999999999995</ele>
        <time>2018-09-19T10:00:14Z</time>
      </trkpt>
      <trkpt lat="48.497132007032633" lon="9.511566963046789">
        <ele>758.62</ele>
        <time>2018-09-19T10:00:15Z</time>
      </trkpt>
      <trkpt lat="48.49717098288238" lon="9.511535027995706">
        <ele>759.58000000000004</ele>
        <time>2018-09-19T10:00:16Z</time>
      </trkpt>
      <trkpt lat="48.497207025066018" lon="9.511506026610732">
        <ele>760.05999999999995</ele>
        <time>2018-09-19T10:00:17Z</time>
      </trkpt>
      <trkpt lat="48.497204007580876" lon="9.511461015790701">
        <ele>761.01999999999998</ele>
        <time>2018-09-19T10:00:18Z</time>
      </trkpt>
      <trkpt lat="48.497177017852664" lon="9.511361019685864">
        <ele>761.98000000000002</ele>
        <time>2018-09-19T10:00:19Z</time>
      </trkpt>
      <trkpt lat="48.497143993154168" lon="9.511237973347306">
        <ele>761.98000000000002</ele>
        <time>2018-09-19T10:00:20Z</time>
      </trkpt>
      <trkpt lat="48.49710501730442" lon="9.511096989735961">
        <ele>762.46000000000004</ele>
        <time>2018-09-19T10:00:21Z</time>
      </trkpt>
      <trkpt lat="48.497057994827628" lon="9.510959023609757">
        <ele>762.94000000000005</ele>
        <time>2018-09-19T10:00:22Z</time>
      </trkpt>
      <trkpt lat="48.496995968744159" lon="9.510810999199748">
        <ele>763.41999999999996</ele>
        <time>2018-09-19T10:00:23Z</time>
      </trkpt>
      <trkpt lat="48.496931008994579" lon="9.510655011981726">
        <ele>763.89999999999998</ele>
        <time>2018-09-19T10:00:24Z</time>
      </trkpt>
      <trkpt lat="48.496872000396252" lon="9.510512016713619">
        <ele>764.38999999999999</ele>
        <time>2018-09-19T10:00:25Z</time>
      </trkpt>
      <trkpt lat="48.496778039261699" lon="9.510399028658867">
        <ele>765.35000000000002</ele>
        <time>2018-09-19T10:00:26Z</time>
      </trkpt>
      <trkpt lat="48.496677959337831" lon="9.51027799397707">
        <ele>765.83000000000004</ele>
        <time>2018-09-19T10:00:27Z</time>
      </trkpt>
      <trkpt lat="48.495877990499139" lon="9.509264035150409">
        <ele>767.26999999999998</ele>
        <time>2018-09-19T10:00:36Z</time>
      </trkpt>
      <trkpt lat="48.495125966146588" lon="9.508177991956472">
        <ele>761.98000000000002</ele>
        <time>2018-09-19T10:00:44Z</time>
      </trkpt>
      <trkpt lat="48.49446102976799" lon="9.506800007075071">
        <ele>755.25</ele>
        <time>2018-09-19T10:00:53Z</time>
      </trkpt>
      <trkpt lat="48.49422499537468" lon="9.505731984972954">
        <ele>750.45000000000005</ele>
        <time>2018-09-19T10:00:58Z</time>
      </trkpt>
      <trkpt lat="48.494151988998055" lon="9.505569040775299">
        <ele>749.49000000000001</ele>
        <time>2018-09-19T10:00:59Z</time>
      </trkpt>
      <trkpt lat="48.49407596513629" lon="9.505449011921883">
        <ele>748.51999999999998</ele>
        <time>2018-09-19T10:01:00Z</time>
      </trkpt>
      <trkpt lat="48.493969012051821" lon="9.505146006122232">
        <ele>746.12</ele>
        <time>2018-09-19T10:01:03Z</time>
      </trkpt>
      <trkpt lat="48.493984015658498" lon="9.505037041381002">
        <ele>745.15999999999997</ele>
        <time>2018-09-19T10:01:04Z</time>
      </trkpt>
      <trkpt lat="48.494003964588046" lon="9.504891028627753">
        <ele>744.67999999999995</ele>
        <time>2018-09-19T10:01:05Z</time>
      </trkpt>
      <trkpt lat="48.4941600356251" lon="9.503629971295595">
        <ele>741.30999999999995</ele>
        <time>2018-09-19T10:01:10Z</time>
      </trkpt>
      <trkpt lat="48.494301019236445" lon="9.501308016479015">
        <ele>734.10000000000002</ele>
        <time>2018-09-19T10:01:17Z</time>
      </trkpt>
      <trkpt lat="48.494261037558317" lon="9.501004004850984">
        <ele>733.62</ele>
        <time>2018-09-19T10:01:18Z</time>
      </trkpt>
      <trkpt lat="48.494218960404396" lon="9.500714996829629">
        <ele>733.13999999999999</ele>
        <time>2018-09-19T10:01:19Z</time>
      </trkpt>
      <trkpt lat="48.49398996680975" lon="9.499519988894463">
        <ele>731.22000000000003</ele>
        <time>2018-09-19T10:01:24Z</time>
      </trkpt>
      <trkpt lat="48.493948979303241" lon="9.499327959492803">
        <ele>731.22000000000003</ele>
        <time>2018-09-19T10:01:25Z</time>
      </trkpt>
      <trkpt lat="48.494026008993387" lon="9.499045992270112">
        <ele>731.22000000000003</ele>
        <time>2018-09-19T10:01:26Z</time>
      </trkpt>
      <trkpt lat="48.494105972349644" lon="9.498838037252426">
        <ele>730.74000000000001</ele>
        <time>2018-09-19T10:01:27Z</time>
      </trkpt>
      <trkpt lat="48.494175039231777" lon="9.498588005080819">
        <ele>730.74000000000001</ele>
        <time>2018-09-19T10:01:28Z</time>
      </trkpt>
      <trkpt lat="48.494738973677158" lon="9.496744992211461">
        <ele>727.86000000000001</ele>
        <time>2018-09-19T10:01:34Z</time>
      </trkpt>
      <trkpt lat="48.495381027460098" lon="9.494136963039637">
        <ele>725.45000000000005</ele>
        <time>2018-09-19T10:01:41Z</time>
      </trkpt>
      <trkpt lat="48.495964994654059" lon="9.491839986294508">
        <ele>720.64999999999998</ele>
        <time>2018-09-19T10:01:47Z</time>
      </trkpt>
      <trkpt lat="48.496937965974212" lon="9.49029603973031">
        <ele>717.75999999999999</ele>
        <time>2018-09-19T10:01:52Z</time>
      </trkpt>
      <trkpt lat="48.498561959713697" lon="9.487864030525088">
        <ele>714.88</ele>
        <time>2018-09-19T10:02:00Z</time>
      </trkpt>
      <trkpt lat="48.4997240267694" lon="9.48486297391355">
        <ele>713.44000000000005</ele>
        <time>2018-09-19T10:02:08Z</time>
      </trkpt>
      <trkpt lat="48.500876035541296" lon="9.480468006804586">
        <ele>717.27999999999997</ele>
        <time>2018-09-19T10:02:19Z</time>
      </trkpt>
      <trkpt lat="48.50163702853024" lon="9.47820195928216">
        <ele>718.72000000000003</ele>
        <time>2018-09-19T10:02:25Z</time>
      </trkpt>
      <trkpt lat="48.503349032253027" lon="9.474756997078657">
        <ele>720.15999999999997</ele>
        <time>2018-09-19T10:02:35Z</time>
      </trkpt>
      <trkpt lat="48.505022982135415" lon="9.47158302180469">
        <ele>711.50999999999999</ele>
        <time>2018-09-19T10:02:44Z</time>
      </trkpt>
      <trkpt lat="48.505925964564085" lon="9.468696964904666">
        <ele>703.82000000000005</ele>
        <time>2018-09-19T10:02:51Z</time>
      </trkpt>
      <trkpt lat="48.507233038544655" lon="9.46442898362875">
        <ele>697.09000000000003</ele>
        <time>2018-09-19T10:03:02Z</time>
      </trkpt>
      <trkpt lat="48.507394976913929" lon="9.46412798948586">
        <ele>696.13</ele>
        <time>2018-09-19T10:03:03Z</time>
      </trkpt>
      <trkpt lat="48.507575020194054" lon="9.463837975636125">
        <ele>696.13</ele>
        <time>2018-09-19T10:03:04Z</time>
      </trkpt>
      <trkpt lat="48.507786998525262" lon="9.463599007576704">
        <ele>696.13</ele>
        <time>2018-09-19T10:03:05Z</time>
      </trkpt>
      <trkpt lat="48.508003000169992" lon="9.463354004547">
        <ele>696.13</ele>
        <time>2018-09-19T10:03:06Z</time>
      </trkpt>
      <trkpt lat="48.508251020684838" lon="9.463184019550681">
        <ele>696.13</ele>
        <time>2018-09-19T10:03:07Z</time>
      </trkpt>
      <trkpt lat="48.508502980694175" lon="9.463013028725982">
        <ele>696.13</ele>
        <time>2018-09-19T10:03:08Z</time>
      </trkpt>
      <trkpt lat="48.508766004815698" lon="9.462896017357707">
        <ele>696.13</ele>
        <time>2018-09-19T10:03:09Z</time>
      </trkpt>
      <trkpt lat="48.509045038372278" lon="9.462814964354038">
        <ele>696.61000000000001</ele>
        <time>2018-09-19T10:03:10Z</time>
      </trkpt>
      <trkpt lat="48.509325999766588" lon="9.462735000997782">
        <ele>697.09000000000003</ele>
        <time>2018-09-19T10:03:11Z</time>
      </trkpt>
      <trkpt lat="48.512828964740038" lon="9.461825983598828">
        <ele>700.46000000000004</ele>
        <time>2018-09-19T10:03:23Z</time>
      </trkpt>
      <trkpt lat="48.515920965000987" lon="9.461559019982815">
        <ele>698.52999999999997</ele>
        <time>2018-09-19T10:03:34Z</time>
      </trkpt>
      <trkpt lat="48.517833966761827" lon="9.461403032764792">
        <ele>699.01999999999998</ele>
        <time>2018-09-19T10:03:42Z</time>
      </trkpt>
      <trkpt lat="48.518902994692326" lon="9.461328014731407">
        <ele>702.86000000000001</ele>
        <time>2018-09-19T10:03:49Z</time>
      </trkpt>
      <trkpt lat="48.520162962377071" lon="9.461262971162796">
        <ele>707.66999999999996</ele>
        <time>2018-09-19T10:03:59Z</time>
      </trkpt>
      <trkpt lat="48.521071979776025" lon="9.461471009999514">
        <ele>709.59000000000003</ele>
        <time>2018-09-19T10:04:07Z</time>
      </trkpt>
      <trkpt lat="48.522275034338236" lon="9.461874011904001">
        <ele>708.14999999999998</ele>
        <time>2018-09-19T10:04:18Z</time>
      </trkpt>
      <trkpt lat="48.522813990712166" lon="9.461916005238891">
        <ele>707.66999999999996</ele>
        <time>2018-09-19T10:04:23Z</time>
      </trkpt>
      <trkpt lat="48.522921027615666" lon="9.461910976096988">
        <ele>708.14999999999998</ele>
        <time>2018-09-19T10:04:24Z</time>
      </trkpt>
      <trkpt lat="48.523542964830995" lon="9.461695980280638">
        <ele>712.95000000000005</ele>
        <time>2018-09-19T10:04:33Z</time>
      </trkpt>
      <trkpt lat="48.523623012006283" lon="9.461643006652594">
        <ele>713.44000000000005</ele>
        <time>2018-09-19T10:04:34Z</time>
      </trkpt>
      <trkpt lat="48.523671962320805" lon="9.461609981954098">
        <ele>714.39999999999998</ele>
        <time>2018-09-19T10:04:35Z</time>
      </trkpt>
      <trkpt lat="48.52368202060461" lon="9.46139800362289">
        <ele>714.88</ele>
        <time>2018-09-19T10:04:37Z</time>
      </trkpt>
      <trkpt lat="48.523687971755862" lon="9.461285015568137">
        <ele>714.88</ele>
        <time>2018-09-19T10:04:38Z</time>
      </trkpt>
      <trkpt lat="48.523687971755862" lon="9.461085023358464">
        <ele>714.88</ele>
        <time>2018-09-19T10:04:40Z</time>
      </trkpt>
      <trkpt lat="48.523671040311456" lon="9.460872039198875">
        <ele>714.88</ele>
        <time>2018-09-19T10:04:42Z</time>
      </trkpt>
      <trkpt lat="48.52363902144134" lon="9.460537014529109">
        <ele>714.39999999999998</ele>
        <time>2018-09-19T10:04:45Z</time>
      </trkpt>
      <trkpt lat="48.523628963157535" lon="9.460429977625608">
        <ele>714.39999999999998</ele>
        <time>2018-09-19T10:04:46Z</time>
      </trkpt>
      <trkpt lat="48.52361898869276" lon="9.46032696403563">
        <ele>714.39999999999998</ele>
        <time>2018-09-19T10:04:47Z</time>
      </trkpt>
      <trkpt lat="48.523609014227986" lon="9.460221016779542">
        <ele>714.39999999999998</ele>
        <time>2018-09-19T10:04:48Z</time>
      </trkpt>
      <trkpt lat="48.523599961772561" lon="9.460114985704422">
        <ele>713.91999999999996</ele>
        <time>2018-09-19T10:04:49Z</time>
      </trkpt>
      <trkpt lat="48.523588981479406" lon="9.460006020963192">
        <ele>713.44000000000005</ele>
        <time>2018-09-19T10:04:50Z</time>
      </trkpt>
      <trkpt lat="48.523579007014632" lon="9.45989596657455">
        <ele>713.44000000000005</ele>
        <time>2018-09-19T10:04:51Z</time>
      </trkpt>
      <trkpt lat="48.523569032549858" lon="9.459790019318461">
        <ele>712.95000000000005</ele>
        <time>2018-09-19T10:04:52Z</time>
      </trkpt>
      <trkpt lat="48.523591998964548" lon="9.459462035447359">
        <ele>712.95000000000005</ele>
        <time>2018-09-19T10:04:55Z</time>
      </trkpt>
      <trkpt lat="48.523601973429322" lon="9.459356004372239">
        <ele>712.95000000000005</ele>
        <time>2018-09-19T10:04:56Z</time>
      </trkpt>
      <trkpt lat="48.523621000349522" lon="9.459246033802629">
        <ele>712.47000000000003</ele>
        <time>2018-09-19T10:04:57Z</time>
      </trkpt>
      <trkpt lat="48.523648995906115" lon="9.459147965535522">
        <ele>712.47000000000003</ele>
        <time>2018-09-19T10:04:58Z</time>
      </trkpt>
      <trkpt lat="48.523675985634327" lon="9.459054004400969">
        <ele>712.47000000000003</ele>
        <time>2018-09-19T10:04:59Z</time>
      </trkpt>
      <trkpt lat="48.52370398119092" lon="9.458956019952893">
        <ele>711.99000000000001</ele>
        <time>2018-09-19T10:05:00Z</time>
      </trkpt>
      <trkpt lat="48.523823004215956" lon="9.458555029705167">
        <ele>711.02999999999997</ele>
        <time>2018-09-19T10:05:04Z</time>
      </trkpt>
      <trkpt lat="48.523883018642664" lon="9.458356965333223">
        <ele>710.54999999999995</ele>
        <time>2018-09-19T10:05:06Z</time>
      </trkpt>
      <trkpt lat="48.523913025856018" lon="9.458256969228387">
        <ele>710.07000000000005</ele>
        <time>2018-09-19T10:05:07Z</time>
      </trkpt>
      <trkpt lat="48.524148976430297" lon="9.457479966804385">
        <ele>710.07000000000005</ele>
        <time>2018-09-19T10:05:14Z</time>
      </trkpt>
      <trkpt lat="48.524191975593567" lon="9.457334959879518">
        <ele>709.59000000000003</ele>
        <time>2018-09-19T10:05:15Z</time>
      </trkpt>
      <trkpt lat="48.524245033040643" lon="9.457173021510243">
        <ele>709.11000000000001</ele>
        <time>2018-09-19T10:05:16Z</time>
      </trkpt>
      <trkpt lat="48.524888008832932" lon="9.455638965591788">
        <ele>706.23000000000002</ele>
        <time>2018-09-19T10:05:25Z</time>
      </trkpt>
      <trkpt lat="48.524963026866317" lon="9.455488007515669">
        <ele>705.75</ele>
        <time>2018-09-19T10:05:26Z</time>
      </trkpt>
      <trkpt lat="48.525881012901664" lon="9.453632002696395">
        <ele>705.75</ele>
        <time>2018-09-19T10:05:36Z</time>
      </trkpt>
      <trkpt lat="48.526974013075233" lon="9.452187968418002">
        <ele>704.77999999999997</ele>
        <time>2018-09-19T10:05:44Z</time>
      </trkpt>
      <trkpt lat="48.528275974094868" lon="9.450505971908569">
        <ele>701.89999999999998</ele>
        <time>2018-09-19T10:05:51Z</time>
      </trkpt>
      <trkpt lat="48.530128039419651" lon="9.44781999103725">
        <ele>699.5</ele>
        <time>2018-09-19T10:06:00Z</time>
      </trkpt>
      <trkpt lat="48.532524006441236" lon="9.443963980302215">
        <ele>698.04999999999995</ele>
        <time>2018-09-19T10:06:12Z</time>
      </trkpt>
      <trkpt lat="48.533209981396794" lon="9.442244013771415">
        <ele>696.61000000000001</ele>
        <time>2018-09-19T10:06:17Z</time>
      </trkpt>
      <trkpt lat="48.533966029062867" lon="9.438611967489123">
        <ele>699.01999999999998</ele>
        <time>2018-09-19T10:06:26Z</time>
      </trkpt>
      <trkpt lat="48.534659966826439" lon="9.436356984078884">
        <ele>701.41999999999996</ele>
        <time>2018-09-19T10:06:32Z</time>
      </trkpt>
      <trkpt lat="48.536408012732863" lon="9.432070981711149">
        <ele>703.82000000000005</ele>
        <time>2018-09-19T10:06:43Z</time>
      </trkpt>
      <trkpt lat="48.537691030651331" lon="9.428825005888939">
        <ele>702.38</ele>
        <time>2018-09-19T10:06:52Z</time>
      </trkpt>
      <trkpt lat="48.537898985669017" lon="9.428179012611508">
        <ele>700.94000000000005</ele>
        <time>2018-09-19T10:06:54Z</time>
      </trkpt>
      <trkpt lat="48.537953970953822" lon="9.427849017083645">
        <ele>700.46000000000004</ele>
        <time>2018-09-19T10:06:55Z</time>
      </trkpt>
      <trkpt lat="48.538011973723769" lon="9.427497982978821">
        <ele>700.46000000000004</ele>
        <time>2018-09-19T10:06:56Z</time>
      </trkpt>
      <trkpt lat="48.538038041442633" lon="9.427123982459307">
        <ele>699.98000000000002</ele>
        <time>2018-09-19T10:06:57Z</time>
      </trkpt>
      <trkpt lat="48.538044998422265" lon="9.426740007475019">
        <ele>699.98000000000002</ele>
        <time>2018-09-19T10:06:58Z</time>
      </trkpt>
      <trkpt lat="48.538026977330446" lon="9.426344968378544">
        <ele>699.98000000000002</ele>
        <time>2018-09-19T10:06:59Z</time>
      </trkpt>
      <trkpt lat="48.538009040057659" lon="9.425941966474056">
        <ele>699.98000000000002</ele>
        <time>2018-09-19T10:07:00Z</time>
      </trkpt>
      <trkpt lat="48.537831008434296" lon="9.421988977119327">
        <ele>702.38</ele>
        <time>2018-09-19T10:07:09Z</time>
      </trkpt>
      <trkpt lat="48.537727994844317" lon="9.41969501785934">
        <ele>703.82000000000005</ele>
        <time>2018-09-19T10:07:15Z</time>
      </trkpt>
      <trkpt lat="48.53760696016252" lon="9.417157983407378">
        <ele>710.07000000000005</ele>
        <time>2018-09-19T10:07:24Z</time>
      </trkpt>
      <trkpt lat="48.537577036768198" lon="9.416399002075195">
        <ele>711.02999999999997</ele>
        <time>2018-09-19T10:07:29Z</time>
      </trkpt>
      <trkpt lat="48.537686001509428" lon="9.416119968518615">
        <ele>711.02999999999997</ele>
        <time>2018-09-19T10:07:30Z</time>
      </trkpt>
      <trkpt lat="48.537737969309092" lon="9.416119968518615">
        <ele>711.02999999999997</ele>
        <time>2018-09-19T10:07:31Z</time>
      </trkpt>
      <trkpt lat="48.537791026756167" lon="9.416119968518615">
        <ele>711.02999999999997</ele>
        <time>2018-09-19T10:07:32Z</time>
      </trkpt>
      <trkpt lat="48.5379050206393" lon="9.416181994602084">
        <ele>710.54999999999995</ele>
        <time>2018-09-19T10:07:33Z</time>
      </trkpt>
      <trkpt lat="48.538019014522433" lon="9.416244020685554">
        <ele>710.07000000000005</ele>
        <time>2018-09-19T10:07:34Z</time>
      </trkpt>
      <trkpt lat="48.538143988698721" lon="9.416354997083545">
        <ele>709.59000000000003</ele>
        <time>2018-09-19T10:07:35Z</time>
      </trkpt>
      <trkpt lat="48.538282960653305" lon="9.416481982916594">
        <ele>709.11000000000001</ele>
        <time>2018-09-19T10:07:36Z</time>
      </trkpt>
      <trkpt lat="48.538436014205217" lon="9.416621960699558">
        <ele>708.63</ele>
        <time>2018-09-19T10:07:37Z</time>
      </trkpt>
      <trkpt lat="48.53859300725162" lon="9.416809966787696">
        <ele>708.14999999999998</ele>
        <time>2018-09-19T10:07:38Z</time>
      </trkpt>
      <trkpt lat="48.538739020004869" lon="9.417034015059471">
        <ele>708.14999999999998</ele>
        <time>2018-09-19T10:07:39Z</time>
      </trkpt>
      <trkpt lat="48.538895007222891" lon="9.417273988947272">
        <ele>707.66999999999996</ele>
        <time>2018-09-19T10:07:40Z</time>
      </trkpt>
      <trkpt lat="48.540060007944703" lon="9.419307019561529">
        <ele>702.86000000000001</ele>
        <time>2018-09-19T10:07:47Z</time>
      </trkpt>
      <trkpt lat="48.541462970897555" lon="9.420547960326076">
        <ele>701.89999999999998</ele>
        <time>2018-09-19T10:07:53Z</time>
      </trkpt>
      <trkpt lat="48.544016014784575" lon="9.421712039038539">
        <ele>706.71000000000004</ele>
        <time>2018-09-19T10:08:03Z</time>
      </trkpt>
      <trkpt lat="48.545679990202188" lon="9.422144964337349">
        <ele>708.14999999999998</ele>
        <time>2018-09-19T10:08:10Z</time>
      </trkpt>
      <trkpt lat="48.547126036137342" lon="9.422889025881887">
        <ele>702.86000000000001</ele>
        <time>2018-09-19T10:08:16Z</time>
      </trkpt>
      <trkpt lat="48.548320038244128" lon="9.424415035173297">
        <ele>695.64999999999998</ele>
        <time>2018-09-19T10:08:22Z</time>
      </trkpt>
      <trkpt lat="48.549440028145909" lon="9.425696963444352">
        <ele>691.80999999999995</ele>
        <time>2018-09-19T10:08:28Z</time>
      </trkpt>
      <trkpt lat="48.550612991675735" lon="9.426912004128099">
        <ele>692.28999999999996</ele>
        <time>2018-09-19T10:08:34Z</time>
      </trkpt>
      <trkpt lat="48.551960969343781" lon="9.428457962349057">
        <ele>693.73000000000002</ele>
        <time>2018-09-19T10:08:44Z</time>
      </trkpt>
      <trkpt lat="48.553040977567434" lon="9.429587004706264">
        <ele>691.33000000000004</ele>
        <time>2018-09-19T10:08:54Z</time>
      </trkpt>
      <trkpt lat="48.554289964959025" lon="9.430638011544943">
        <ele>689.39999999999998</ele>
        <time>2018-09-19T10:09:06Z</time>
      </trkpt>
      <trkpt lat="48.555159000679851" lon="9.431245028972626">
        <ele>689.88</ele>
        <time>2018-09-19T10:09:17Z</time>
      </trkpt>
      <trkpt lat="48.555556973442435" lon="9.431525990366936">
        <ele>689.88</ele>
        <time>2018-09-19T10:09:23Z</time>
      </trkpt>
      <trkpt lat="48.555623022839427" lon="9.431569995358586">
        <ele>689.88</ele>
        <time>2018-09-19T10:09:24Z</time>
      </trkpt>
      <trkpt lat="48.555709021165967" lon="9.43162196315825">
        <ele>689.88</ele>
        <time>2018-09-19T10:09:26Z</time>
      </trkpt>
      <trkpt lat="48.555976990610361" lon="9.431797983124852">
        <ele>690.36000000000001</ele>
        <time>2018-09-19T10:09:36Z</time>
      </trkpt>
      <trkpt lat="48.556078998371959" lon="9.431870989501476">
        <ele>691.33000000000004</ele>
        <time>2018-09-19T10:09:50Z</time>
      </trkpt>
      <trkpt lat="48.556677969172597" lon="9.432212971150875">
        <ele>693.25</ele>
        <time>2018-09-19T10:09:58Z</time>
      </trkpt>
      <trkpt lat="48.557168981060386" lon="9.432499967515469">
        <ele>693.73000000000002</ele>
        <time>2018-09-19T10:10:05Z</time>
      </trkpt>
      <trkpt lat="48.55721902102232" lon="9.432530980557203">
        <ele>693.73000000000002</ele>
        <time>2018-09-19T10:10:06Z</time>
      </trkpt>
      <trkpt lat="48.557635014876723" lon="9.432746982201934">
        <ele>695.64999999999998</ele>
        <time>2018-09-19T10:10:14Z</time>
      </trkpt>
      <trkpt lat="48.557676002383232" lon="9.432768020778894">
        <ele>697.09000000000003</ele>
        <time>2018-09-19T10:10:23Z</time>
      </trkpt>
      <trkpt lat="48.557676002383232" lon="9.432768020778894">
        <ele>697.09000000000003</ele>
        <time>2018-09-19T10:11:10Z</time>
      </trkpt>
      <trkpt lat="48.557676002383232" lon="9.432768020778894">
        <ele>697.57000000000005</ele>
        <time>2018-09-19T10:12:04Z</time>
      </trkpt>
      <trkpt lat="48.557699974626303" lon="9.43278000690043">
        <ele>698.52999999999997</ele>
        <time>2018-09-19T10:12:58Z</time>
      </trkpt>
      <trkpt lat="48.55803600512445" lon="9.43290900439024">
        <ele>701.41999999999996</ele>
        <time>2018-09-19T10:13:04Z</time>
      </trkpt>
      <trkpt lat="48.558203978464007" lon="9.432944962754846">
        <ele>702.86000000000001</ele>
        <time>2018-09-19T10:13:06Z</time>
      </trkpt>
      <trkpt lat="48.558282013982534" lon="9.432961978018284">
        <ele>703.34000000000003</ele>
        <time>2018-09-19T10:13:07Z</time>
      </trkpt>
      <trkpt lat="48.558363988995552" lon="9.432979999110103">
        <ele>703.82000000000005</ele>
        <time>2018-09-19T10:13:08Z</time>
      </trkpt>
      <trkpt lat="48.558451998978853" lon="9.433019980788231">
        <ele>704.77999999999997</ele>
        <time>2018-09-19T10:13:09Z</time>
      </trkpt>
      <trkpt lat="48.558547971770167" lon="9.433073038235307">
        <ele>705.25999999999999</ele>
        <time>2018-09-19T10:13:10Z</time>
      </trkpt>
      <trkpt lat="48.558628018945456" lon="9.43314503878355">
        <ele>705.75</ele>
        <time>2018-09-19T10:13:11Z</time>
      </trkpt>
      <trkpt lat="48.558708988130093" lon="9.433238999918103">
        <ele>706.71000000000004</ele>
        <time>2018-09-19T10:13:12Z</time>
      </trkpt>
      <trkpt lat="48.558791968971491" lon="9.433334972709417">
        <ele>707.19000000000005</ele>
        <time>2018-09-19T10:13:13Z</time>
      </trkpt>
      <trkpt lat="48.55887402780354" lon="9.433429017663002">
        <ele>708.14999999999998</ele>
        <time>2018-09-19T10:13:14Z</time>
      </trkpt>
      <trkpt lat="48.558945022523403" lon="9.4335119985044">
        <ele>708.63</ele>
        <time>2018-09-19T10:13:15Z</time>
      </trkpt>
      <trkpt lat="48.559191031381488" lon="9.433824978768826">
        <ele>709.11000000000001</ele>
        <time>2018-09-19T10:13:19Z</time>
      </trkpt>
      <trkpt lat="48.559245010837913" lon="9.433908965438604">
        <ele>709.11000000000001</ele>
        <time>2018-09-19T10:13:20Z</time>
      </trkpt>
      <trkpt lat="48.559353975579143" lon="9.434076016768813">
        <ele>707.66999999999996</ele>
        <time>2018-09-19T10:13:22Z</time>
      </trkpt>
      <trkpt lat="48.559409966692328" lon="9.434164026752114">
        <ele>707.19000000000005</ele>
        <time>2018-09-19T10:13:23Z</time>
      </trkpt>
      <trkpt lat="48.559469981119037" lon="9.434254970401526">
        <ele>706.71000000000004</ele>
        <time>2018-09-19T10:13:24Z</time>
      </trkpt>
      <trkpt lat="48.559527983888984" lon="9.434345997869968">
        <ele>706.71000000000004</ele>
        <time>2018-09-19T10:13:25Z</time>
      </trkpt>
      <trkpt lat="48.55958498083055" lon="9.43443400785327">
        <ele>706.71000000000004</ele>
        <time>2018-09-19T10:13:26Z</time>
      </trkpt>
      <trkpt lat="48.559643989428878" lon="9.434524029493332">
        <ele>706.71000000000004</ele>
        <time>2018-09-19T10:13:27Z</time>
      </trkpt>
      <trkpt lat="48.559704003855586" lon="9.434616984799504">
        <ele>707.19000000000005</ele>
        <time>2018-09-19T10:13:28Z</time>
      </trkpt>
      <trkpt lat="48.559821015223861" lon="9.43479803390801">
        <ele>708.14999999999998</ele>
        <time>2018-09-19T10:13:30Z</time>
      </trkpt>
      <trkpt lat="48.560049002990127" lon="9.435010012239218">
        <ele>709.59000000000003</ele>
        <time>2018-09-19T10:13:33Z</time>
      </trkpt>
      <trkpt lat="48.560136007145047" lon="9.43505996838212">
        <ele>710.07000000000005</ele>
        <time>2018-09-19T10:13:34Z</time>
      </trkpt>
      <trkpt lat="48.56022602878511" lon="9.435072038322687">
        <ele>710.54999999999995</ele>
        <time>2018-09-19T10:13:35Z</time>
      </trkpt>
      <trkpt lat="48.560323007404804" lon="9.43507899530232">
        <ele>710.54999999999995</ele>
        <time>2018-09-19T10:13:36Z</time>
      </trkpt>
      <trkpt lat="48.56042099185288" lon="9.435085030272603">
        <ele>710.54999999999995</ele>
        <time>2018-09-19T10:13:37Z</time>
      </trkpt>
      <trkpt lat="48.560512019321322" lon="9.43505996838212">
        <ele>710.54999999999995</ele>
        <time>2018-09-19T10:13:38Z</time>
      </trkpt>
      <trkpt lat="48.560611009597778" lon="9.434988973662257">
        <ele>710.07000000000005</ele>
        <time>2018-09-19T10:13:39Z</time>
      </trkpt>
      <trkpt lat="48.560704970732331" lon="9.434889983385801">
        <ele>710.07000000000005</ele>
        <time>2018-09-19T10:13:40Z</time>
      </trkpt>
      <trkpt lat="48.56080899015069" lon="9.434775989502668">
        <ele>709.59000000000003</ele>
        <time>2018-09-19T10:13:41Z</time>
      </trkpt>
      <trkpt lat="48.560877973213792" lon="9.434612961485982">
        <ele>709.59000000000003</ele>
        <time>2018-09-19T10:13:42Z</time>
      </trkpt>
      <trkpt lat="48.560939999297261" lon="9.43441397510469">
        <ele>709.11000000000001</ele>
        <time>2018-09-19T10:13:43Z</time>
      </trkpt>
      <trkpt lat="48.560976963490248" lon="9.434200990945101">
        <ele>709.11000000000001</ele>
        <time>2018-09-19T10:13:44Z</time>
      </trkpt>
      <trkpt lat="48.561014011502266" lon="9.433974009007216">
        <ele>708.63</ele>
        <time>2018-09-19T10:13:45Z</time>
      </trkpt>
      <trkpt lat="48.561051981523633" lon="9.433739986270666">
        <ele>708.14999999999998</ele>
        <time>2018-09-19T10:13:46Z</time>
      </trkpt>
      <trkpt lat="48.561217021197081" lon="9.433033978566527">
        <ele>706.23000000000002</ele>
        <time>2018-09-19T10:13:49Z</time>
      </trkpt>
      <trkpt lat="48.561300002038479" lon="9.432800961658359">
        <ele>705.75</ele>
        <time>2018-09-19T10:13:50Z</time>
      </trkpt>
      <trkpt lat="48.561407960951328" lon="9.432625025510788">
        <ele>705.75</ele>
        <time>2018-09-19T10:13:51Z</time>
      </trkpt>
      <trkpt lat="48.561525978147984" lon="9.432446993887425">
        <ele>705.75</ele>
        <time>2018-09-19T10:13:52Z</time>
      </trkpt>
      <trkpt lat="48.561663022264838" lon="9.432313973084092">
        <ele>705.75</ele>
        <time>2018-09-19T10:13:53Z</time>
      </trkpt>
      <trkpt lat="48.561801994219422" lon="9.432227974757552">
        <ele>705.75</ele>
        <time>2018-09-19T10:13:54Z</time>
      </trkpt>
      <trkpt lat="48.561960998922586" lon="9.432149017229676">
        <ele>705.25999999999999</ele>
        <time>2018-09-19T10:13:55Z</time>
      </trkpt>
      <trkpt lat="48.562081027776003" lon="9.432149017229676">
        <ele>705.25999999999999</ele>
        <time>2018-09-19T10:13:56Z</time>
      </trkpt>
      <trkpt lat="48.562235003337264" lon="9.432195033878088">
        <ele>705.25999999999999</ele>
        <time>2018-09-19T10:13:57Z</time>
      </trkpt>
      <trkpt lat="48.562353020533919" lon="9.432269968092442">
        <ele>704.29999999999995</ele>
        <time>2018-09-19T10:13:58Z</time>
      </trkpt>
      <trkpt lat="48.562458967790008" lon="9.43237298168242">
        <ele>703.34000000000003</ele>
        <time>2018-09-19T10:13:59Z</time>
      </trkpt>
      <trkpt lat="48.562571033835411" lon="9.432478006929159">
        <ele>702.38</ele>
        <time>2018-09-19T10:14:00Z</time>
      </trkpt>
      <trkpt lat="48.562688967213035" lon="9.43258898332715">
        <ele>701.41999999999996</ele>
        <time>2018-09-19T10:14:01Z</time>
      </trkpt>
      <trkpt lat="48.563228007405996" lon="9.432905986905098">
        <ele>695.16999999999996</ele>
        <time>2018-09-19T10:14:05Z</time>
      </trkpt>
      <trkpt lat="48.563342001289129" lon="9.432912021875382">
        <ele>693.25</ele>
        <time>2018-09-19T10:14:06Z</time>
      </trkpt>
      <trkpt lat="48.56344903819263" lon="9.432881008833647">
        <ele>691.80999999999995</ele>
        <time>2018-09-19T10:14:07Z</time>
      </trkpt>
      <trkpt lat="48.56353897601366" lon="9.432776989415288">
        <ele>690.36000000000001</ele>
        <time>2018-09-19T10:14:08Z</time>
      </trkpt>
      <trkpt lat="48.563591027632356" lon="9.432639023289084">
        <ele>688.91999999999996</ele>
        <time>2018-09-19T10:14:09Z</time>
      </trkpt>
      <trkpt lat="48.563636038452387" lon="9.432465014979243">
        <ele>687.48000000000002</ele>
        <time>2018-09-19T10:14:10Z</time>
      </trkpt>
      <trkpt lat="48.563680965453386" lon="9.432293018326163">
        <ele>686.03999999999996</ele>
        <time>2018-09-19T10:14:11Z</time>
      </trkpt>
      <trkpt lat="48.563780961558223" lon="9.432153962552548">
        <ele>684.12</ele>
        <time>2018-09-19T10:14:12Z</time>
      </trkpt>
      <trkpt lat="48.563857991248369" lon="9.432067964226008">
        <ele>682.66999999999996</ele>
        <time>2018-09-19T10:14:13Z</time>
      </trkpt>
      <trkpt lat="48.563976008445024" lon="9.43205002695322">
        <ele>680.75</ele>
        <time>2018-09-19T10:14:14Z</time>
      </trkpt>
      <trkpt lat="48.56409402564168" lon="9.432036029174924">
        <ele>679.30999999999995</ele>
        <time>2018-09-19T10:14:15Z</time>
      </trkpt>
      <trkpt lat="48.564226040616632" lon="9.432021025568247">
        <ele>677.87</ele>
        <time>2018-09-19T10:14:16Z</time>
      </trkpt>
      <trkpt lat="48.565242011100054" lon="9.431820027530193">
        <ele>666.80999999999995</ele>
        <time>2018-09-19T10:14:23Z</time>
      </trkpt>
      <trkpt lat="48.565433034673333" lon="9.43170603364706">
        <ele>663.45000000000005</ele>
        <time>2018-09-19T10:14:25Z</time>
      </trkpt>
      <trkpt lat="48.565472010523081" lon="9.431677032262087">
        <ele>662.00999999999999</ele>
        <time>2018-09-19T10:14:26Z</time>
      </trkpt>
      <trkpt lat="48.565472010523081" lon="9.431635960936546">
        <ele>660.55999999999995</ele>
        <time>2018-09-19T10:14:27Z</time>
      </trkpt>
      <trkpt lat="48.565472010523081" lon="9.431528002023697">
        <ele>659.12</ele>
        <time>2018-09-19T10:14:28Z</time>
      </trkpt>
      <trkpt lat="48.565472010523081" lon="9.431396992877126">
        <ele>658.15999999999997</ele>
        <time>2018-09-19T10:14:29Z</time>
      </trkpt>
      <trkpt lat="48.565472010523081" lon="9.431269001215696">
        <ele>656.72000000000003</ele>
        <time>2018-09-19T10:14:30Z</time>
      </trkpt>
      <trkpt lat="48.565409984439611" lon="9.431118965148926">
        <ele>655.27999999999997</ele>
        <time>2018-09-19T10:14:31Z</time>
      </trkpt>
      <trkpt lat="48.565335972234607" lon="9.430940011516213">
        <ele>654.30999999999995</ele>
        <time>2018-09-19T10:14:32Z</time>
      </trkpt>
      <trkpt lat="48.565252991393209" lon="9.430759968236089">
        <ele>652.87</ele>
        <time>2018-09-19T10:14:33Z</time>
      </trkpt>
      <trkpt lat="48.564553018659353" lon="9.429570995271206">
        <ele>641.82000000000005</ele>
        <time>2018-09-19T10:14:40Z</time>
      </trkpt>
      <trkpt lat="48.564510019496083" lon="9.429357005283237">
        <ele>640.38</ele>
        <time>2018-09-19T10:14:41Z</time>
      </trkpt>
      <trkpt lat="48.564465008676052" lon="9.429133040830493">
        <ele>638.45000000000005</ele>
        <time>2018-09-19T10:14:42Z</time>
      </trkpt>
      <trkpt lat="48.564419997856021" lon="9.428908992558718">
        <ele>637.00999999999999</ele>
        <time>2018-09-19T10:14:43Z</time>
      </trkpt>
      <trkpt lat="48.564410023391247" lon="9.42867698147893">
        <ele>635.09000000000003</ele>
        <time>2018-09-19T10:14:44Z</time>
      </trkpt>
      <trkpt lat="48.564398037269711" lon="9.428425021469593">
        <ele>633.64999999999998</ele>
        <time>2018-09-19T10:14:45Z</time>
      </trkpt>
      <trkpt lat="48.564386973157525" lon="9.428177000954747">
        <ele>631.72000000000003</ele>
        <time>2018-09-19T10:14:46Z</time>
      </trkpt>
      <trkpt lat="48.564380016177893" lon="9.427948007360101">
        <ele>629.32000000000005</ele>
        <time>2018-09-19T10:14:47Z</time>
      </trkpt>
      <trkpt lat="48.564422009512782" lon="9.427719013765454">
        <ele>627.39999999999998</ele>
        <time>2018-09-19T10:14:48Z</time>
      </trkpt>
      <trkpt lat="48.564462997019291" lon="9.42749303765595">
        <ele>624.99000000000001</ele>
        <time>2018-09-19T10:14:49Z</time>
      </trkpt>
      <trkpt lat="48.564530974254012" lon="9.427290027961135">
        <ele>623.07000000000005</ele>
        <time>2018-09-19T10:14:50Z</time>
      </trkpt>
      <trkpt lat="48.564598029479384" lon="9.427089029923081">
        <ele>620.66999999999996</ele>
        <time>2018-09-19T10:14:51Z</time>
      </trkpt>
      <trkpt lat="48.56467698700726" lon="9.426918039098382">
        <ele>618.75</ele>
        <time>2018-09-19T10:14:52Z</time>
      </trkpt>
      <trkpt lat="48.564755022525787" lon="9.42676498554647">
        <ele>616.82000000000005</ele>
        <time>2018-09-19T10:14:53Z</time>
      </trkpt>
      <trkpt lat="48.564822999760509" lon="9.426631964743137">
        <ele>615.38</ele>
        <time>2018-09-19T10:14:54Z</time>
      </trkpt>
      <trkpt lat="48.564879996702075" lon="9.426520988345146">
        <ele>613.94000000000005</ele>
        <time>2018-09-19T10:14:55Z</time>
      </trkpt>
      <trkpt lat="48.565429011359811" lon="9.425692018121481">
        <ele>605.76999999999998</ele>
        <time>2018-09-19T10:15:04Z</time>
      </trkpt>
      <trkpt lat="48.565502017736435" lon="9.425609037280083">
        <ele>604.80999999999995</ele>
        <time>2018-09-19T10:15:05Z</time>
      </trkpt>
      <trkpt lat="48.565730005502701" lon="9.425449026748538">
        <ele>600.96000000000004</ele>
        <time>2018-09-19T10:15:08Z</time>
      </trkpt>
      <trkpt lat="48.565909964963794" lon="9.425382977351546">
        <ele>598.08000000000004</ele>
        <time>2018-09-19T10:15:10Z</time>
      </trkpt>
      <trkpt lat="48.566008033230901" lon="9.42534701898694">
        <ele>597.12</ele>
        <time>2018-09-19T10:15:11Z</time>
      </trkpt>
      <trkpt lat="48.566096965223551" lon="9.425265965983272">
        <ele>596.14999999999998</ele>
        <time>2018-09-19T10:15:12Z</time>
      </trkpt>
      <trkpt lat="48.566212970763445" lon="9.425161024555564">
        <ele>595.19000000000005</ele>
        <time>2018-09-19T10:15:13Z</time>
      </trkpt>
      <trkpt lat="48.566315984353423" lon="9.425031021237373">
        <ele>594.23000000000002</ele>
        <time>2018-09-19T10:15:14Z</time>
      </trkpt>
      <trkpt lat="48.566449005156755" lon="9.424842009320855">
        <ele>592.30999999999995</ele>
        <time>2018-09-19T10:15:16Z</time>
      </trkpt>
      <trkpt lat="48.566503990441561" lon="9.424763973802328">
        <ele>591.35000000000002</ele>
        <time>2018-09-19T10:15:17Z</time>
      </trkpt>
      <trkpt lat="48.566562999039888" lon="9.424679987132549">
        <ele>590.38999999999999</ele>
        <time>2018-09-19T10:15:18Z</time>
      </trkpt>
      <trkpt lat="48.566683027893305" lon="9.424511007964611">
        <ele>588.46000000000004</ele>
        <time>2018-09-19T10:15:20Z</time>
      </trkpt>
      <trkpt lat="48.566736001521349" lon="9.424435989931226">
        <ele>587.5</ele>
        <time>2018-09-19T10:15:21Z</time>
      </trkpt>
      <trkpt lat="48.566758967936039" lon="9.42440296523273">
        <ele>586.53999999999996</ele>
        <time>2018-09-19T10:15:22Z</time>
      </trkpt>
      <trkpt lat="48.566813031211495" lon="9.424262987449765">
        <ele>585.58000000000004</ele>
        <time>2018-09-19T10:15:23Z</time>
      </trkpt>
      <trkpt lat="48.566849995404482" lon="9.424167014658451">
        <ele>585.10000000000002</ele>
        <time>2018-09-19T10:15:24Z</time>
      </trkpt>
      <trkpt lat="48.566864999011159" lon="9.424071963876486">
        <ele>583.65999999999997</ele>
        <time>2018-09-19T10:15:25Z</time>
      </trkpt>
      <trkpt lat="48.566861981526017" lon="9.423949001356959">
        <ele>582.70000000000005</ele>
        <time>2018-09-19T10:15:26Z</time>
      </trkpt>
      <trkpt lat="48.566858964040875" lon="9.423827966675162">
        <ele>582.22000000000003</ele>
        <time>2018-09-19T10:15:27Z</time>
      </trkpt>
      <trkpt lat="48.566856030374765" lon="9.423710033297539">
        <ele>580.76999999999998</ele>
        <time>2018-09-19T10:15:28Z</time>
      </trkpt>
      <trkpt lat="48.566853012889624" lon="9.423588998615742">
        <ele>580.28999999999996</ele>
        <time>2018-09-19T10:15:29Z</time>
      </trkpt>
      <trkpt lat="48.566848989576101" lon="9.423450026661158">
        <ele>579.33000000000004</ele>
        <time>2018-09-19T10:15:30Z</time>
      </trkpt>
      <trkpt lat="48.566844966262579" lon="9.423286998644471">
        <ele>577.88999999999999</ele>
        <time>2018-09-19T10:15:31Z</time>
      </trkpt>
      <trkpt lat="48.566880002617836" lon="9.423144003376365">
        <ele>576.92999999999995</ele>
        <time>2018-09-19T10:15:32Z</time>
      </trkpt>
      <trkpt lat="48.566913027316332" lon="9.42300695925951">
        <ele>575.49000000000001</ele>
        <time>2018-09-19T10:15:33Z</time>
      </trkpt>
      <trkpt lat="48.567034984007478" lon="9.422504967078567">
        <ele>572.12</ele>
        <time>2018-09-19T10:15:37Z</time>
      </trkpt>
      <trkpt lat="48.567074965685606" lon="9.422343028709292">
        <ele>571.15999999999997</ele>
        <time>2018-09-19T10:15:38Z</time>
      </trkpt>
      <trkpt lat="48.567338995635509" lon="9.421069985255599">
        <ele>564.42999999999995</ele>
        <time>2018-09-19T10:15:43Z</time>
      </trkpt>
      <trkpt lat="48.567623980343342" lon="9.420036999508739">
        <ele>555.77999999999997</ele>
        <time>2018-09-19T10:15:47Z</time>
      </trkpt>
      <trkpt lat="48.567652981728315" lon="9.419796019792557">
        <ele>553.38</ele>
        <time>2018-09-19T10:15:48Z</time>
      </trkpt>
      <trkpt lat="48.567642001435161" lon="9.419604996219277">
        <ele>550.97000000000003</ele>
        <time>2018-09-19T10:15:49Z</time>
      </trkpt>
      <trkpt lat="48.567608976736665" lon="9.419429982081056">
        <ele>549.04999999999995</ele>
        <time>2018-09-19T10:15:50Z</time>
      </trkpt>
      <trkpt lat="48.567565977573395" lon="9.419252034276724">
        <ele>547.61000000000001</ele>
        <time>2018-09-19T10:15:51Z</time>
      </trkpt>
      <trkpt lat="48.567521972581744" lon="9.419067967683077">
        <ele>546.16999999999996</ele>
        <time>2018-09-19T10:15:52Z</time>
      </trkpt>
      <trkpt lat="48.56748903170228" lon="9.418931007385254">
        <ele>544.72000000000003</ele>
        <time>2018-09-19T10:15:53Z</time>
      </trkpt>
      <trkpt lat="48.567467993125319" lon="9.418681981042028">
        <ele>543.27999999999997</ele>
        <time>2018-09-19T10:15:54Z</time>
      </trkpt>
      <trkpt lat="48.567477967590094" lon="9.418484000489116">
        <ele>541.84000000000003</ele>
        <time>2018-09-19T10:15:55Z</time>
      </trkpt>
      <trkpt lat="48.567545022815466" lon="9.418075969442725">
        <ele>538.96000000000004</ele>
        <time>2018-09-19T10:15:57Z</time>
      </trkpt>
      <trkpt lat="48.567615011706948" lon="9.417866002768278">
        <ele>537.50999999999999</ele>
        <time>2018-09-19T10:15:58Z</time>
      </trkpt>
      <trkpt lat="48.567703021690249" lon="9.417646983638406">
        <ele>536.07000000000005</ele>
        <time>2018-09-19T10:15:59Z</time>
      </trkpt>
      <trkpt lat="48.567792037501931" lon="9.417426958680153">
        <ele>534.14999999999998</ele>
        <time>2018-09-19T10:16:00Z</time>
      </trkpt>
      <trkpt lat="48.567883986979723" lon="9.417197965085506">
        <ele>532.71000000000004</ele>
        <time>2018-09-19T10:16:01Z</time>
      </trkpt>
      <trkpt lat="48.568694014102221" lon="9.415428964421153">
        <ele>523.09000000000003</ele>
        <time>2018-09-19T10:16:08Z</time>
      </trkpt>
      <trkpt lat="48.56976899318397" lon="9.413687959313393">
        <ele>509.16000000000003</ele>
        <time>2018-09-19T10:16:16Z</time>
      </trkpt>
      <trkpt lat="48.569912994280457" lon="9.413533983752132">
        <ele>507.70999999999998</ele>
        <time>2018-09-19T10:16:17Z</time>
      </trkpt>
      <trkpt lat="48.570364024490118" lon="9.413174986839294">
        <ele>502.43000000000001</ele>
        <time>2018-09-19T10:16:20Z</time>
      </trkpt>
      <trkpt lat="48.570522023364902" lon="9.413085971027613">
        <ele>500.98000000000002</ele>
        <time>2018-09-19T10:16:21Z</time>
      </trkpt>
      <trkpt lat="48.571011023595929" lon="9.412959991022945">
        <ele>497.62</ele>
        <time>2018-09-19T10:16:24Z</time>
      </trkpt>
      <trkpt lat="48.572716992348433" lon="9.413029979914427">
        <ele>488.00999999999999</ele>
        <time>2018-09-19T10:16:34Z</time>
      </trkpt>
      <trkpt lat="48.573792977258563" lon="9.413570025935769">
        <ele>478.87</ele>
        <time>2018-09-19T10:16:42Z</time>
      </trkpt>
      <trkpt lat="48.574011996388435" lon="9.413695000112057">
        <ele>476.47000000000003</ele>
        <time>2018-09-19T10:16:45Z</time>
      </trkpt>
      <trkpt lat="48.57408600859344" lon="9.413674967363477">
        <ele>475.99000000000001</ele>
        <time>2018-09-19T10:16:46Z</time>
      </trkpt>
      <trkpt lat="48.574126996099949" lon="9.413663987070322">
        <ele>475.50999999999999</ele>
        <time>2018-09-19T10:16:47Z</time>
      </trkpt>
      <trkpt lat="48.574162032455206" lon="9.413655018433929">
        <ele>475.02999999999997</ele>
        <time>2018-09-19T10:16:48Z</time>
      </trkpt>
      <trkpt lat="48.574282983317971" lon="9.41374403424561">
        <ele>474.55000000000001</ele>
        <time>2018-09-19T10:16:49Z</time>
      </trkpt>
      <trkpt lat="48.574308967217803" lon="9.41383003257215">
        <ele>474.06999999999999</ele>
        <time>2018-09-19T10:16:50Z</time>
      </trkpt>
      <trkpt lat="48.57434400357306" lon="9.413945032283664">
        <ele>474.06999999999999</ele>
        <time>2018-09-19T10:16:51Z</time>
      </trkpt>
      <trkpt lat="48.57438700273633" lon="9.414081992581487">
        <ele>474.06999999999999</ele>
        <time>2018-09-19T10:16:52Z</time>
      </trkpt>
      <trkpt lat="48.574833003804088" lon="9.415287980809808">
        <ele>476.47000000000003</ele>
        <time>2018-09-19T10:16:58Z</time>
      </trkpt>
      <trkpt lat="48.575744032859802" lon="9.417659975588322">
        <ele>476.94999999999999</ele>
        <time>2018-09-19T10:17:06Z</time>
      </trkpt>
      <trkpt lat="48.576307967305183" lon="9.419425036758184">
        <ele>473.11000000000001</ele>
        <time>2018-09-19T10:17:12Z</time>
      </trkpt>
      <trkpt lat="48.57634199783206" lon="9.419733993709087">
        <ele>472.13999999999999</ele>
        <time>2018-09-19T10:17:13Z</time>
      </trkpt>
      <trkpt lat="48.576544001698494" lon="9.422214031219482">
        <ele>467.33999999999997</ele>
        <time>2018-09-19T10:17:21Z</time>
      </trkpt>
      <trkpt lat="48.57662396505475" lon="9.422527011483908">
        <ele>466.86000000000001</ele>
        <time>2018-09-19T10:17:22Z</time>
      </trkpt>
      <trkpt lat="48.576691020280123" lon="9.422790035605431">
        <ele>465.89999999999998</ele>
        <time>2018-09-19T10:17:23Z</time>
      </trkpt>
      <trkpt lat="48.577458970248699" lon="9.425400998443365">
        <ele>459.64999999999998</ele>
        <time>2018-09-19T10:17:33Z</time>
      </trkpt>
      <trkpt lat="48.57801896519959" lon="9.427212998270989">
        <ele>453.88</ele>
        <time>2018-09-19T10:17:39Z</time>
      </trkpt>
      <trkpt lat="48.578613996505737" lon="9.429119965061545">
        <ele>445.70999999999998</ele>
        <time>2018-09-19T10:17:45Z</time>
      </trkpt>
      <trkpt lat="48.579326961189508" lon="9.431235976517201">
        <ele>438.01999999999998</ele>
        <time>2018-09-19T10:17:53Z</time>
      </trkpt>
      <trkpt lat="48.580155009403825" lon="9.432646986097097">
        <ele>433.69</ele>
        <time>2018-09-19T10:18:00Z</time>
      </trkpt>
      <trkpt lat="48.581279022619128" lon="9.433464976027608">
        <ele>433.69</ele>
        <time>2018-09-19T10:18:07Z</time>
      </trkpt>
      <trkpt lat="48.582568997517228" lon="9.434467032551765">
        <ele>436.10000000000002</ele>
        <time>2018-09-19T10:18:15Z</time>
      </trkpt>
      <trkpt lat="48.583653029054403" lon="9.436070993542671">
        <ele>438.98000000000002</ele>
        <time>2018-09-19T10:18:23Z</time>
      </trkpt>
      <trkpt lat="48.584393989294767" lon="9.438244001939893">
        <ele>434.17000000000002</ele>
        <time>2018-09-19T10:18:31Z</time>
      </trkpt>
      <trkpt lat="48.584868991747499" lon="9.440632006153464">
        <ele>422.16000000000003</ele>
        <time>2018-09-19T10:18:39Z</time>
      </trkpt>
      <trkpt lat="48.584868991747499" lon="9.440921014174819">
        <ele>420.70999999999998</ele>
        <time>2018-09-19T10:18:40Z</time>
      </trkpt>
      <trkpt lat="48.584834961220622" lon="9.441211028024554">
        <ele>419.26999999999998</ele>
        <time>2018-09-19T10:18:41Z</time>
      </trkpt>
      <trkpt lat="48.584789028391242" lon="9.44148201495409">
        <ele>417.82999999999998</ele>
        <time>2018-09-19T10:18:42Z</time>
      </trkpt>
      <trkpt lat="48.58474200591445" lon="9.441754007712007">
        <ele>416.38999999999999</ele>
        <time>2018-09-19T10:18:43Z</time>
      </trkpt>
      <trkpt lat="48.584652990102768" lon="9.442023988813162">
        <ele>414.94999999999999</ele>
        <time>2018-09-19T10:18:44Z</time>
      </trkpt>
      <trkpt lat="48.584564980119467" lon="9.442291036248207">
        <ele>413.01999999999998</ele>
        <time>2018-09-19T10:18:45Z</time>
      </trkpt>
      <trkpt lat="48.584267003461719" lon="9.443253027275205">
        <ele>407.25999999999999</ele>
        <time>2018-09-19T10:18:49Z</time>
      </trkpt>
      <trkpt lat="48.584228027611971" lon="9.443456958979368">
        <ele>406.29000000000002</ele>
        <time>2018-09-19T10:18:50Z</time>
      </trkpt>
      <trkpt lat="48.584191985428333" lon="9.443646976724267">
        <ele>404.85000000000002</ele>
        <time>2018-09-19T10:18:51Z</time>
      </trkpt>
      <trkpt lat="48.58418301679194" lon="9.444019971415401">
        <ele>402.44999999999999</ele>
        <time>2018-09-19T10:18:53Z</time>
      </trkpt>
      <trkpt lat="48.584308996796608" lon="9.445743039250374">
        <ele>391.87</ele>
        <time>2018-09-19T10:19:03Z</time>
      </trkpt>
      <trkpt lat="48.584632035344839" lon="9.447523020207882">
        <ele>387.06999999999999</ele>
        <time>2018-09-19T10:19:14Z</time>
      </trkpt>
      <trkpt lat="48.584801014512777" lon="9.448660025373101">
        <ele>384.66000000000003</ele>
        <time>2018-09-19T10:19:21Z</time>
      </trkpt>
      <trkpt lat="48.584767989814281" lon="9.449831983074546">
        <ele>384.18000000000001</ele>
        <time>2018-09-19T10:19:30Z</time>
      </trkpt>
      <trkpt lat="48.58476203866303" lon="9.450001968070865">
        <ele>384.66000000000003</ele>
        <time>2018-09-19T10:19:37Z</time>
      </trkpt>
      <trkpt lat="48.58482800424099" lon="9.450216963887215">
        <ele>384.66000000000003</ele>
        <time>2018-09-19T10:19:40Z</time>
      </trkpt>
      <trkpt lat="48.584866980090737" lon="9.450314026325941">
        <ele>384.66000000000003</ele>
        <time>2018-09-19T10:19:41Z</time>
      </trkpt>
      <trkpt lat="48.584921965375543" lon="9.450409999117255">
        <ele>384.66000000000003</ele>
        <time>2018-09-19T10:19:42Z</time>
      </trkpt>
      <trkpt lat="48.58497996814549" lon="9.450505971908569">
        <ele>384.66000000000003</ele>
        <time>2018-09-19T10:19:43Z</time>
      </trkpt>
      <trkpt lat="48.585035037249327" lon="9.450594987720251">
        <ele>384.18000000000001</ele>
        <time>2018-09-19T10:19:44Z</time>
      </trkpt>
      <trkpt lat="48.585084993392229" lon="9.45067604072392">
        <ele>383.69999999999999</ele>
        <time>2018-09-19T10:19:45Z</time>
      </trkpt>
      <trkpt lat="48.585131010040641" lon="9.450748963281512">
        <ele>384.18000000000001</ele>
        <time>2018-09-19T10:19:46Z</time>
      </trkpt>
      <trkpt lat="48.585168980062008" lon="9.450810989364982">
        <ele>384.66000000000003</ele>
        <time>2018-09-19T10:19:47Z</time>
      </trkpt>
      <trkpt lat="48.585205022245646" lon="9.450868992134929">
        <ele>384.66000000000003</ele>
        <time>2018-09-19T10:19:48Z</time>
      </trkpt>
      <trkpt lat="48.585243998095393" lon="9.45093403570354">
        <ele>385.14999999999998</ele>
        <time>2018-09-19T10:19:49Z</time>
      </trkpt>
      <trkpt lat="48.585291020572186" lon="9.451008969917893">
        <ele>385.63</ele>
        <time>2018-09-19T10:19:50Z</time>
      </trkpt>
      <trkpt lat="48.585338965058327" lon="9.45108599960804">
        <ele>386.11000000000001</ele>
        <time>2018-09-19T10:19:51Z</time>
      </trkpt>
      <trkpt lat="48.585428986698389" lon="9.451136961579323">
        <ele>386.58999999999997</ele>
        <time>2018-09-19T10:19:52Z</time>
      </trkpt>
      <trkpt lat="48.585481038317084" lon="9.45110896602273">
        <ele>386.58999999999997</ele>
        <time>2018-09-19T10:19:53Z</time>
      </trkpt>
      <trkpt lat="48.585534011945128" lon="9.451080970466137">
        <ele>387.06999999999999</ele>
        <time>2018-09-19T10:19:54Z</time>
      </trkpt>
      <trkpt lat="48.585583968088031" lon="9.451053980737925">
        <ele>387.55000000000001</ele>
        <time>2018-09-19T10:19:55Z</time>
      </trkpt>
      <trkpt lat="48.585626967251301" lon="9.451031014323235">
        <ele>387.55000000000001</ele>
        <time>2018-09-19T10:19:56Z</time>
      </trkpt>
      <trkpt lat="48.58566602692008" lon="9.451009975746274">
        <ele>388.02999999999997</ele>
        <time>2018-09-19T10:19:57Z</time>
      </trkpt>
      <trkpt lat="48.585693016648293" lon="9.450995977967978">
        <ele>388.02999999999997</ele>
        <time>2018-09-19T10:19:58Z</time>
      </trkpt>
      <trkpt lat="48.585712965577841" lon="9.450984997674823">
        <ele>388.50999999999999</ele>
        <time>2018-09-19T10:20:00Z</time>
      </trkpt>
      <trkpt lat="48.585734004154801" lon="9.450974017381668">
        <ele>389.47000000000003</ele>
        <time>2018-09-19T10:20:12Z</time>
      </trkpt>
      <trkpt lat="48.586058970540762" lon="9.450806966051459">
        <ele>390.91000000000003</ele>
        <time>2018-09-19T10:20:18Z</time>
      </trkpt>
      <trkpt lat="48.586133988574147" lon="9.450799003243446">
        <ele>390.91000000000003</ele>
        <time>2018-09-19T10:20:19Z</time>
      </trkpt>
      <trkpt lat="48.586206994950771" lon="9.450804032385349">
        <ele>391.38999999999999</ele>
        <time>2018-09-19T10:20:20Z</time>
      </trkpt>
      <trkpt lat="48.586368011310697" lon="9.450816018506885">
        <ele>391.38999999999999</ele>
        <time>2018-09-19T10:20:22Z</time>
      </trkpt>
      <trkpt lat="48.586458032950759" lon="9.450822975486517">
        <ele>391.87</ele>
        <time>2018-09-19T10:20:23Z</time>
      </trkpt>
      <trkpt lat="48.586549982428551" lon="9.450829010456801">
        <ele>391.87</ele>
        <time>2018-09-19T10:20:24Z</time>
      </trkpt>
      <trkpt lat="48.586647966876626" lon="9.450836973264813">
        <ele>391.87</ele>
        <time>2018-09-19T10:20:25Z</time>
      </trkpt>
      <trkpt lat="48.586745029315352" lon="9.450838984921575">
        <ele>391.87</ele>
        <time>2018-09-19T10:20:26Z</time>
      </trkpt>
      <trkpt lat="48.587636025622487" lon="9.450732031837106">
        <ele>391.87</ele>
        <time>2018-09-19T10:20:35Z</time>
      </trkpt>
      <trkpt lat="48.587799975648522" lon="9.450642010197043">
        <ele>391.87</ele>
        <time>2018-09-19T10:20:37Z</time>
      </trkpt>
      <trkpt lat="48.587884968146682" lon="9.450583001598716">
        <ele>391.87</ele>
        <time>2018-09-19T10:20:38Z</time>
      </trkpt>
      <trkpt lat="48.587974989786744" lon="9.450520975515246">
        <ele>392.36000000000001</ele>
        <time>2018-09-19T10:20:39Z</time>
      </trkpt>
      <trkpt lat="48.588056964799762" lon="9.450447969138622">
        <ele>392.83999999999997</ele>
        <time>2018-09-19T10:20:40Z</time>
      </trkpt>
      <trkpt lat="48.588143968954682" lon="9.450370017439127">
        <ele>392.83999999999997</ele>
        <time>2018-09-19T10:20:41Z</time>
      </trkpt>
      <trkpt lat="48.588239019736648" lon="9.450292987748981">
        <ele>393.31999999999999</ele>
        <time>2018-09-19T10:20:42Z</time>
      </trkpt>
      <trkpt lat="48.589279968291521" lon="9.449618998914957">
        <ele>394.27999999999997</ele>
        <time>2018-09-19T10:20:52Z</time>
      </trkpt>
      <trkpt lat="48.58987701125443" lon="9.4492800347507">
        <ele>393.80000000000001</ele>
        <time>2018-09-19T10:21:00Z</time>
      </trkpt>
      <trkpt lat="48.589992010965943" lon="9.449213985353708">
        <ele>393.31999999999999</ele>
        <time>2018-09-19T10:21:02Z</time>
      </trkpt>
      <trkpt lat="48.590106004849076" lon="9.449149025604129">
        <ele>391.87</ele>
        <time>2018-09-19T10:21:06Z</time>
      </trkpt>
      <trkpt lat="48.590122014284134" lon="9.449139973148704">
        <ele>391.87</ele>
        <time>2018-09-19T10:21:13Z</time>
      </trkpt>
      <trkpt lat="48.590147998183966" lon="9.449124969542027">
        <ele>391.38999999999999</ele>
        <time>2018-09-19T10:21:14Z</time>
      </trkpt>
      <trkpt lat="48.590647978708148" lon="9.449005024507642">
        <ele>389.47000000000003</ele>
        <time>2018-09-19T10:21:21Z</time>
      </trkpt>
      <trkpt lat="48.591868970543146" lon="9.448950039222837">
        <ele>386.11000000000001</ele>
        <time>2018-09-19T10:21:32Z</time>
      </trkpt>
      <trkpt lat="48.592629041522741" lon="9.448950039222837">
        <ele>384.66000000000003</ele>
        <time>2018-09-19T10:21:41Z</time>
      </trkpt>
      <trkpt lat="48.593002036213875" lon="9.448950039222837">
        <ele>382.74000000000001</ele>
        <time>2018-09-19T10:21:47Z</time>
      </trkpt>
      <trkpt lat="48.593101026490331" lon="9.448950039222837">
        <ele>381.77999999999997</ele>
        <time>2018-09-19T10:21:54Z</time>
      </trkpt>
      <trkpt lat="48.593362960964441" lon="9.448955990374088">
        <ele>381.77999999999997</ele>
        <time>2018-09-19T10:22:14Z</time>
      </trkpt>
      <trkpt lat="48.594348002225161" lon="9.448988009244204">
        <ele>380.33999999999997</ele>
        <time>2018-09-19T10:22:21Z</time>
      </trkpt>
      <trkpt lat="48.596042990684509" lon="9.449218008667231">
        <ele>377.94</ele>
        <time>2018-09-19T10:22:30Z</time>
      </trkpt>
      <trkpt lat="48.598068980500102" lon="9.449437027797103">
        <ele>374.08999999999997</ele>
        <time>2018-09-19T10:22:40Z</time>
      </trkpt>
      <trkpt lat="48.599856002256274" lon="9.450027029961348">
        <ele>371.20999999999998</ele>
        <time>2018-09-19T10:22:47Z</time>
      </trkpt>
      <trkpt lat="48.603146988898516" lon="9.451211979612708">
        <ele>365.92000000000002</ele>
        <time>2018-09-19T10:22:58Z</time>
      </trkpt>
      <trkpt lat="48.60633403994143" lon="9.452358959242702">
        <ele>360.63</ele>
        <time>2018-09-19T10:23:09Z</time>
      </trkpt>
      <trkpt lat="48.60792500898242" lon="9.45293303579092">
        <ele>358.23000000000002</ele>
        <time>2018-09-19T10:23:16Z</time>
      </trkpt>
      <trkpt lat="48.609299976378679" lon="9.45344801992178">
        <ele>356.31</ele>
        <time>2018-09-19T10:23:23Z</time>
      </trkpt>
      <trkpt lat="48.611409030854702" lon="9.454213036224246">
        <ele>352.94</ele>
        <time>2018-09-19T10:23:36Z</time>
      </trkpt>
      <trkpt lat="48.61177196726203" lon="9.45435200817883">
        <ele>351.98000000000002</ele>
        <time>2018-09-19T10:23:42Z</time>
      </trkpt>
      <trkpt lat="48.612260967493057" lon="9.454532973468304">
        <ele>351.5</ele>
        <time>2018-09-19T10:23:49Z</time>
      </trkpt>
      <trkpt lat="48.613438038155437" lon="9.454943016171455">
        <ele>350.54000000000002</ele>
        <time>2018-09-19T10:23:59Z</time>
      </trkpt>
      <trkpt lat="48.615054991096258" lon="9.455160023644567">
        <ele>348.62</ele>
        <time>2018-09-19T10:24:10Z</time>
      </trkpt>
      <trkpt lat="48.61677898094058" lon="9.455209979787469">
        <ele>348.62</ele>
        <time>2018-09-19T10:24:22Z</time>
      </trkpt>
      <trkpt lat="48.617828981950879" lon="9.455235041677952">
        <ele>347.64999999999998</ele>
        <time>2018-09-19T10:24:32Z</time>
      </trkpt>
      <trkpt lat="48.617914980277419" lon="9.455236969515681">
        <ele>346.20999999999998</ele>
        <time>2018-09-19T10:24:40Z</time>
      </trkpt>
      <trkpt lat="48.618284035474062" lon="9.455236969515681">
        <ele>344.76999999999998</ele>
        <time>2018-09-19T10:24:46Z</time>
      </trkpt>
      <trkpt lat="48.61832301132381" lon="9.455236969515681">
        <ele>344.76999999999998</ele>
        <time>2018-09-19T10:24:47Z</time>
      </trkpt>
      <trkpt lat="48.618354024365544" lon="9.455236969515681">
        <ele>344.29000000000002</ele>
        <time>2018-09-19T10:24:48Z</time>
      </trkpt>
      <trkpt lat="48.618373973295093" lon="9.455236969515681">
        <ele>343.81</ele>
        <time>2018-09-19T10:24:49Z</time>
      </trkpt>
      <trkpt lat="48.618381014093757" lon="9.455236969515681">
        <ele>343.32999999999998</ele>
        <time>2018-09-19T10:24:53Z</time>
      </trkpt>
      <trkpt lat="48.6187759693712" lon="9.45527502335608">
        <ele>342.85000000000002</ele>
        <time>2018-09-19T10:24:59Z</time>
      </trkpt>
      <trkpt lat="48.619810966774821" lon="9.455353980883956">
        <ele>342.85000000000002</ele>
        <time>2018-09-19T10:25:09Z</time>
      </trkpt>
      <trkpt lat="48.621171014383435" lon="9.455393962562084">
        <ele>341.41000000000003</ele>
        <time>2018-09-19T10:25:17Z</time>
      </trkpt>
      <trkpt lat="48.624385977163911" lon="9.455537963658571">
        <ele>339</ele>
        <time>2018-09-19T10:25:35Z</time>
      </trkpt>
      <trkpt lat="48.626695023849607" lon="9.45564097724855">
        <ele>336.60000000000002</ele>
        <time>2018-09-19T10:25:49Z</time>
      </trkpt>
      <trkpt lat="48.628227990120649" lon="9.455709960311651">
        <ele>334.19999999999999</ele>
        <time>2018-09-19T10:26:00Z</time>
      </trkpt>
      <trkpt lat="48.62953900359571" lon="9.455775003880262">
        <ele>332.75</ele>
        <time>2018-09-19T10:26:10Z</time>
      </trkpt>
      <trkpt lat="48.629761962220073" lon="9.455787995830178">
        <ele>333.23000000000002</ele>
        <time>2018-09-19T10:26:16Z</time>
      </trkpt>
      <trkpt lat="48.629804039373994" lon="9.455790007486939">
        <ele>333.23000000000002</ele>
        <time>2018-09-19T10:26:46Z</time>
      </trkpt>
      <trkpt lat="48.630279041826725" lon="9.455795036628842">
        <ele>333.23000000000002</ele>
        <time>2018-09-19T10:26:51Z</time>
      </trkpt>
      <trkpt lat="48.630983037874103" lon="9.455795036628842">
        <ele>332.26999999999998</ele>
        <time>2018-09-19T10:26:56Z</time>
      </trkpt>
      <trkpt lat="48.631440019235015" lon="9.455795036628842">
        <ele>331.31</ele>
        <time>2018-09-19T10:26:59Z</time>
      </trkpt>
      <trkpt lat="48.631653003394604" lon="9.455795036628842">
        <ele>330.82999999999998</ele>
        <time>2018-09-19T10:27:01Z</time>
      </trkpt>
      <trkpt lat="48.631745036691427" lon="9.455795036628842">
        <ele>330.82999999999998</ele>
        <time>2018-09-19T10:27:02Z</time>
      </trkpt>
      <trkpt lat="48.63181502558291" lon="9.455795036628842">
        <ele>330.35000000000002</ele>
        <time>2018-09-19T10:27:03Z</time>
      </trkpt>
      <trkpt lat="48.63190496340394" lon="9.456060994416475">
        <ele>329.87</ele>
        <time>2018-09-19T10:27:04Z</time>
      </trkpt>
      <trkpt lat="48.63190496340394" lon="9.456183034926653">
        <ele>329.38999999999999</ele>
        <time>2018-09-19T10:27:05Z</time>
      </trkpt>
      <trkpt lat="48.631898006424308" lon="9.456331981346011">
        <ele>329.38999999999999</ele>
        <time>2018-09-19T10:27:06Z</time>
      </trkpt>
      <trkpt lat="48.631889037787914" lon="9.456506995484233">
        <ele>329.38999999999999</ele>
        <time>2018-09-19T10:27:07Z</time>
      </trkpt>
      <trkpt lat="48.631862970069051" lon="9.456687038764358">
        <ele>329.87</ele>
        <time>2018-09-19T10:27:08Z</time>
      </trkpt>
      <trkpt lat="48.631811002269387" lon="9.456885019317269">
        <ele>330.35000000000002</ele>
        <time>2018-09-19T10:27:09Z</time>
      </trkpt>
      <trkpt lat="48.631747970357537" lon="9.457087023183703">
        <ele>330.82999999999998</ele>
        <time>2018-09-19T10:27:10Z</time>
      </trkpt>
      <trkpt lat="48.631670018658042" lon="9.457274023443461">
        <ele>331.31</ele>
        <time>2018-09-19T10:27:11Z</time>
      </trkpt>
      <trkpt lat="48.631599023938179" lon="9.45744501426816">
        <ele>331.79000000000002</ele>
        <time>2018-09-19T10:27:12Z</time>
      </trkpt>
      <trkpt lat="48.63151797093451" lon="9.457640983164311">
        <ele>332.26999999999998</ele>
        <time>2018-09-19T10:27:13Z</time>
      </trkpt>
      <trkpt lat="48.631449993699789" lon="9.457696974277496">
        <ele>332.75</ele>
        <time>2018-09-19T10:27:14Z</time>
      </trkpt>
      <trkpt lat="48.631339017301798" lon="9.457728993147612">
        <ele>333.23000000000002</ele>
        <time>2018-09-19T10:27:15Z</time>
      </trkpt>
      <trkpt lat="48.631252013146877" lon="9.457695968449116">
        <ele>333.70999999999998</ele>
        <time>2018-09-19T10:27:16Z</time>
      </trkpt>
      <trkpt lat="48.631068030372262" lon="9.457468986511231">
        <ele>334.68000000000001</ele>
        <time>2018-09-19T10:27:18Z</time>
      </trkpt>
      <trkpt lat="48.631027964875102" lon="9.457253990694881">
        <ele>335.16000000000003</ele>
        <time>2018-09-19T10:27:19Z</time>
      </trkpt>
      <trkpt lat="48.631056966260076" lon="9.457072019577026">
        <ele>335.63999999999999</ele>
        <time>2018-09-19T10:27:20Z</time>
      </trkpt>
      <trkpt lat="48.631092002615333" lon="9.456857023760676">
        <ele>335.63999999999999</ele>
        <time>2018-09-19T10:27:21Z</time>
      </trkpt>
      <trkpt lat="48.631396014243364" lon="9.455011999234557">
        <ele>337.56</ele>
        <time>2018-09-19T10:27:27Z</time>
      </trkpt>
      <trkpt lat="48.631985010579228" lon="9.452105993404985">
        <ele>337.56</ele>
        <time>2018-09-19T10:27:34Z</time>
      </trkpt>
      <trkpt lat="48.633030988276005" lon="9.448210000991821">
        <ele>335.16000000000003</ele>
        <time>2018-09-19T10:27:42Z</time>
      </trkpt>
      <trkpt lat="48.634646013379097" lon="9.443616969510913">
        <ele>329.87</ele>
        <time>2018-09-19T10:27:51Z</time>
      </trkpt>
      <trkpt lat="48.636476034298539" lon="9.4397840090096">
        <ele>332.75</ele>
        <time>2018-09-19T10:27:59Z</time>
      </trkpt>
      <trkpt lat="48.638538988307118" lon="9.435950964689255">
        <ele>336.12</ele>
        <time>2018-09-19T10:28:08Z</time>
      </trkpt>
      <trkpt lat="48.64146402105689" lon="9.430504990741611">
        <ele>332.75</ele>
        <time>2018-09-19T10:28:21Z</time>
      </trkpt>
      <trkpt lat="48.643539967015386" lon="9.426661971956492">
        <ele>330.82999999999998</ele>
        <time>2018-09-19T10:28:29Z</time>
      </trkpt>
      <trkpt lat="48.644866989925504" lon="9.424203978851438">
        <ele>329.87</ele>
        <time>2018-09-19T10:28:35Z</time>
      </trkpt>
      <trkpt lat="48.646595003083348" lon="9.420946016907692">
        <ele>327.47000000000003</ele>
        <time>2018-09-19T10:28:44Z</time>
      </trkpt>
      <trkpt lat="48.647967036813498" lon="9.418113017454743">
        <ele>325.06</ele>
        <time>2018-09-19T10:28:51Z</time>
      </trkpt>
      <trkpt lat="48.649512995034456" lon="9.414041005074978">
        <ele>323.13999999999999</ele>
        <time>2018-09-19T10:28:59Z</time>
      </trkpt>
      <trkpt lat="48.650753013789654" lon="9.40966296941042">
        <ele>327.94999999999999</ele>
        <time>2018-09-19T10:29:07Z</time>
      </trkpt>
      <trkpt lat="48.651826987043023" lon="9.404523018747568">
        <ele>339.95999999999998</ele>
        <time>2018-09-19T10:29:16Z</time>
      </trkpt>
      <trkpt lat="48.653535973280668" lon="9.395700981840491">
        <ele>346.69</ele>
        <time>2018-09-19T10:29:31Z</time>
      </trkpt>
      <trkpt lat="48.65506500005722" lon="9.388246033340693">
        <ele>340.44</ele>
        <time>2018-09-19T10:29:44Z</time>
      </trkpt>
      <trkpt lat="48.656058004125953" lon="9.384982958436012">
        <ele>334.19999999999999</ele>
        <time>2018-09-19T10:29:51Z</time>
      </trkpt>
      <trkpt lat="48.657688032835722" lon="9.381213029846549">
        <ele>321.22000000000003</ele>
        <time>2018-09-19T10:30:00Z</time>
      </trkpt>
      <trkpt lat="48.659662976861" lon="9.377968981862068">
        <ele>308.72000000000003</ele>
        <time>2018-09-19T10:30:09Z</time>
      </trkpt>
      <trkpt lat="48.662146031856537" lon="9.37444900162518">
        <ele>293.81999999999999</ele>
        <time>2018-09-19T10:30:20Z</time>
      </trkpt>
      <trkpt lat="48.663929030299187" lon="9.371585994958878">
        <ele>282.27999999999997</ele>
        <time>2018-09-19T10:30:28Z</time>
      </trkpt>
      <trkpt lat="48.665899029001594" lon="9.367452040314674">
        <ele>274.58999999999997</ele>
        <time>2018-09-19T10:30:37Z</time>
      </trkpt>
      <trkpt lat="48.668120987713337" lon="9.362364979460836">
        <ele>271.23000000000002</ele>
        <time>2018-09-19T10:30:48Z</time>
      </trkpt>
      <trkpt lat="48.669854030013084" lon="9.35841903090477">
        <ele>271.23000000000002</ele>
        <time>2018-09-19T10:30:58Z</time>
      </trkpt>
      <trkpt lat="48.672291990369558" lon="9.352894015610218">
        <ele>284.69</ele>
        <time>2018-09-19T10:31:12Z</time>
      </trkpt>
      <trkpt lat="48.67470296099782" lon="9.347364977002144">
        <ele>297.67000000000002</ele>
        <time>2018-09-19T10:31:26Z</time>
      </trkpt>
      <trkpt lat="48.677073027938604" lon="9.341977005824447">
        <ele>311.60000000000002</ele>
        <time>2018-09-19T10:31:40Z</time>
      </trkpt>
      <trkpt lat="48.679087031632662" lon="9.337348015978932">
        <ele>323.13999999999999</ele>
        <time>2018-09-19T10:31:52Z</time>
      </trkpt>
      <trkpt lat="48.681149985641241" lon="9.332654988393188">
        <ele>330.82999999999998</ele>
        <time>2018-09-19T10:32:04Z</time>
      </trkpt>
      <trkpt lat="48.683247976005077" lon="9.327894989401102">
        <ele>328.91000000000003</ele>
        <time>2018-09-19T10:32:16Z</time>
      </trkpt>
      <trkpt lat="48.684889990836382" lon="9.324120031669736">
        <ele>326.5</ele>
        <time>2018-09-19T10:32:25Z</time>
      </trkpt>
      <trkpt lat="48.687012959271669" lon="9.319292977452278">
        <ele>322.66000000000003</ele>
        <time>2018-09-19T10:32:36Z</time>
      </trkpt>
      <trkpt lat="48.688179971650243" lon="9.316628035157919">
        <ele>321.69999999999999</ele>
        <time>2018-09-19T10:32:43Z</time>
      </trkpt>
      <trkpt lat="48.689382020384073" lon="9.313891008496285">
        <ele>322.18000000000001</ele>
        <time>2018-09-19T10:32:49Z</time>
      </trkpt>
      <trkpt lat="48.690378963947296" lon="9.311535023152828">
        <ele>322.18000000000001</ele>
        <time>2018-09-19T10:32:55Z</time>
      </trkpt>
      <trkpt lat="48.691512029618025" lon="9.30840102955699">
        <ele>326.01999999999998</ele>
        <time>2018-09-19T10:33:04Z</time>
      </trkpt>
      <trkpt lat="48.692252989858389" lon="9.305571969598532">
        <ele>330.82999999999998</ele>
        <time>2018-09-19T10:33:13Z</time>
      </trkpt>
      <trkpt lat="48.692765962332487" lon="9.302636040374637">
        <ele>335.63999999999999</ele>
        <time>2018-09-19T10:33:23Z</time>
      </trkpt>
      <trkpt lat="48.693133005872369" lon="9.300037985667586">
        <ele>338.51999999999998</ele>
        <time>2018-09-19T10:33:32Z</time>
      </trkpt>
      <trkpt lat="48.693384965881705" lon="9.298193966969848">
        <ele>339.48000000000002</ele>
        <time>2018-09-19T10:33:39Z</time>
      </trkpt>
      <trkpt lat="48.693832978606224" lon="9.294793009757996">
        <ele>341.41000000000003</ele>
        <time>2018-09-19T10:33:51Z</time>
      </trkpt>
      <trkpt lat="48.694225000217557" lon="9.291320974007249">
        <ele>344.29000000000002</ele>
        <time>2018-09-19T10:34:01Z</time>
      </trkpt>
      <trkpt lat="48.694654991850257" lon="9.286971017718315">
        <ele>350.06</ele>
        <time>2018-09-19T10:34:13Z</time>
      </trkpt>
      <trkpt lat="48.694736966863275" lon="9.286739006638527">
        <ele>350.54000000000002</ele>
        <time>2018-09-19T10:34:14Z</time>
      </trkpt>
      <trkpt lat="48.694816008210182" lon="9.286514958366752">
        <ele>350.54000000000002</ele>
        <time>2018-09-19T10:34:15Z</time>
      </trkpt>
      <trkpt lat="48.694862024858594" lon="9.286386966705322">
        <ele>350.54000000000002</ele>
        <time>2018-09-19T10:34:16Z</time>
      </trkpt>
      <trkpt lat="48.695017006248236" lon="9.286196026951075">
        <ele>350.54000000000002</ele>
        <time>2018-09-19T10:34:17Z</time>
      </trkpt>
      <trkpt lat="48.695146003738046" lon="9.286037022247911">
        <ele>351.01999999999998</ele>
        <time>2018-09-19T10:34:18Z</time>
      </trkpt>
      <trkpt lat="48.695275001227856" lon="9.285879023373127">
        <ele>351.01999999999998</ele>
        <time>2018-09-19T10:34:19Z</time>
      </trkpt>
      <trkpt lat="48.695400981232524" lon="9.285723036155105">
        <ele>351.01999999999998</ele>
        <time>2018-09-19T10:34:20Z</time>
      </trkpt>
      <trkpt lat="48.695515980944037" lon="9.285543998703361">
        <ele>350.54000000000002</ele>
        <time>2018-09-19T10:34:21Z</time>
      </trkpt>
      <trkpt lat="48.695612037554383" lon="9.285330008715391">
        <ele>350.54000000000002</ele>
        <time>2018-09-19T10:34:22Z</time>
      </trkpt>
      <trkpt lat="48.695666017010808" lon="9.285096991807222">
        <ele>350.54000000000002</ele>
        <time>2018-09-19T10:34:23Z</time>
      </trkpt>
      <trkpt lat="48.695721002295613" lon="9.284856012091041">
        <ele>350.54000000000002</ele>
        <time>2018-09-19T10:34:24Z</time>
      </trkpt>
      <trkpt lat="48.69575897231698" lon="9.284612014889717">
        <ele>350.54000000000002</ele>
        <time>2018-09-19T10:34:25Z</time>
      </trkpt>
      <trkpt lat="48.695915965363383" lon="9.283596966415644">
        <ele>350.06</ele>
        <time>2018-09-19T10:34:31Z</time>
      </trkpt>
      <trkpt lat="48.695923006162047" lon="9.283550027757883">
        <ele>350.06</ele>
        <time>2018-09-19T10:34:37Z</time>
      </trkpt>
      <trkpt lat="48.695933986455202" lon="9.283480038866401">
        <ele>350.06</ele>
        <time>2018-09-19T10:34:40Z</time>
      </trkpt>
      <trkpt lat="48.696081005036831" lon="9.283388005569577">
        <ele>350.06</ele>
        <time>2018-09-19T10:34:41Z</time>
      </trkpt>
      <trkpt lat="48.696159962564707" lon="9.283418012782931">
        <ele>350.06</ele>
        <time>2018-09-19T10:34:42Z</time>
      </trkpt>
      <trkpt lat="48.696257025003433" lon="9.283460006117821">
        <ele>349.57999999999998</ele>
        <time>2018-09-19T10:34:43Z</time>
      </trkpt>
      <trkpt lat="48.696364983916283" lon="9.28352203220129">
        <ele>349.57999999999998</ele>
        <time>2018-09-19T10:34:44Z</time>
      </trkpt>
      <trkpt lat="48.697359999641776" lon="9.284119997173548">
        <ele>347.64999999999998</ele>
        <time>2018-09-19T10:34:51Z</time>
      </trkpt>
      <trkpt lat="48.698031976819038" lon="9.28455300629139">
        <ele>348.62</ele>
        <time>2018-09-19T10:34:58Z</time>
      </trkpt>
      <trkpt lat="48.698180001229048" lon="9.284650990739465">
        <ele>349.57999999999998</ele>
        <time>2018-09-19T10:35:05Z</time>
      </trkpt>
      <trkpt lat="48.698218977078795" lon="9.284676974639297">
        <ele>350.06</ele>
        <time>2018-09-19T10:35:17Z</time>
      </trkpt>
      <trkpt lat="48.698265999555588" lon="9.284708993509412">
        <ele>349.57999999999998</ele>
        <time>2018-09-19T10:35:18Z</time>
      </trkpt>
      <trkpt lat="48.698383010923862" lon="9.284931030124426">
        <ele>349.57999999999998</ele>
        <time>2018-09-19T10:35:19Z</time>
      </trkpt>
      <trkpt lat="48.698363984003663" lon="9.285114007070661">
        <ele>349.57999999999998</ele>
        <time>2018-09-19T10:35:21Z</time>
      </trkpt>
      <trkpt lat="48.698408994823694" lon="9.285237975418568">
        <ele>349.57999999999998</ele>
        <time>2018-09-19T10:35:22Z</time>
      </trkpt>
      <trkpt lat="48.698465991765261" lon="9.285343000665307">
        <ele>349.10000000000002</ele>
        <time>2018-09-19T10:35:23Z</time>
      </trkpt>
      <trkpt lat="48.698567999526858" lon="9.285379964858294">
        <ele>349.10000000000002</ele>
        <time>2018-09-19T10:35:24Z</time>
      </trkpt>
      <trkpt lat="48.698680987581611" lon="9.285421036183834">
        <ele>349.10000000000002</ele>
        <time>2018-09-19T10:35:25Z</time>
      </trkpt>
      <trkpt lat="48.698805961757898" lon="9.285450037568808">
        <ele>348.62</ele>
        <time>2018-09-19T10:35:26Z</time>
      </trkpt>
      <trkpt lat="48.698947029188275" lon="9.285481972619891">
        <ele>348.13</ele>
        <time>2018-09-19T10:35:27Z</time>
      </trkpt>
      <trkpt lat="48.699089018628001" lon="9.285513991490006">
        <ele>347.17000000000002</ele>
        <time>2018-09-19T10:35:28Z</time>
      </trkpt>
      <trkpt lat="48.699222039431334" lon="9.285591021180153">
        <ele>346.20999999999998</ele>
        <time>2018-09-19T10:35:29Z</time>
      </trkpt>
      <trkpt lat="48.699343996122479" lon="9.285700991749764">
        <ele>345.73000000000002</ele>
        <time>2018-09-19T10:35:30Z</time>
      </trkpt>
      <trkpt lat="48.699460001662374" lon="9.285806016996503">
        <ele>344.76999999999998</ele>
        <time>2018-09-19T10:35:31Z</time>
      </trkpt>
      <trkpt lat="48.699684971943498" lon="9.285981031134725">
        <ele>343.32999999999998</ele>
        <time>2018-09-19T10:35:33Z</time>
      </trkpt>
      <trkpt lat="48.699796032160521" lon="9.286040961742401">
        <ele>341.88999999999999</ele>
        <time>2018-09-19T10:35:34Z</time>
      </trkpt>
      <trkpt lat="48.699906002730131" lon="9.286042973399162">
        <ele>340.92000000000002</ele>
        <time>2018-09-19T10:35:35Z</time>
      </trkpt>
      <trkpt lat="48.70003298856318" lon="9.286000980064273">
        <ele>339</ele>
        <time>2018-09-19T10:35:36Z</time>
      </trkpt>
      <trkpt lat="48.700136002153158" lon="9.285868965089321">
        <ele>337.56</ele>
        <time>2018-09-19T10:35:37Z</time>
      </trkpt>
      <trkpt lat="48.70024798437953" lon="9.285711972042918">
        <ele>336.12</ele>
        <time>2018-09-19T10:35:38Z</time>
      </trkpt>
      <trkpt lat="48.700370024889708" lon="9.285538969561458">
        <ele>334.19999999999999</ele>
        <time>2018-09-19T10:35:39Z</time>
      </trkpt>
      <trkpt lat="48.700794987380505" lon="9.284723997116089">
        <ele>327.94999999999999</ele>
        <time>2018-09-19T10:35:43Z</time>
      </trkpt>
      <trkpt lat="48.700864976271987" lon="9.284513024613261">
        <ele>326.99000000000001</ele>
        <time>2018-09-19T10:35:44Z</time>
      </trkpt>
      <trkpt lat="48.700930019840598" lon="9.28431797772646">
        <ele>325.54000000000002</ele>
        <time>2018-09-19T10:35:45Z</time>
      </trkpt>
      <trkpt lat="48.700986010953784" lon="9.284151010215282">
        <ele>324.57999999999998</ele>
        <time>2018-09-19T10:35:46Z</time>
      </trkpt>
      <trkpt lat="48.701033033430576" lon="9.284032993018627">
        <ele>323.62</ele>
        <time>2018-09-19T10:35:47Z</time>
      </trkpt>
      <trkpt lat="48.701088018715382" lon="9.283967027440667">
        <ele>322.18000000000001</ele>
        <time>2018-09-19T10:35:48Z</time>
      </trkpt>
      <trkpt lat="48.701144009828568" lon="9.28393199108541">
        <ele>321.22000000000003</ele>
        <time>2018-09-19T10:35:49Z</time>
      </trkpt>
      <trkpt lat="48.701201006770134" lon="9.28397499024868">
        <ele>320.25999999999999</ele>
        <time>2018-09-19T10:35:50Z</time>
      </trkpt>
      <trkpt lat="48.701229002326727" lon="9.284085966646671">
        <ele>319.30000000000001</ele>
        <time>2018-09-19T10:35:51Z</time>
      </trkpt>
      <trkpt lat="48.701255992054939" lon="9.284262992441654">
        <ele>318.81</ele>
        <time>2018-09-19T10:35:52Z</time>
      </trkpt>
      <trkpt lat="48.701217016205192" lon="9.284395007416606">
        <ele>318.81</ele>
        <time>2018-09-19T10:35:53Z</time>
      </trkpt>
      <trkpt lat="48.701165970414877" lon="9.284567004069686">
        <ele>318.32999999999998</ele>
        <time>2018-09-19T10:35:54Z</time>
      </trkpt>
      <trkpt lat="48.701109979301691" lon="9.284755010157824">
        <ele>318.32999999999998</ele>
        <time>2018-09-19T10:35:55Z</time>
      </trkpt>
      <trkpt lat="48.701069997623563" lon="9.284967994317412">
        <ele>317.85000000000002</ele>
        <time>2018-09-19T10:35:56Z</time>
      </trkpt>
      <trkpt lat="48.701080977916718" lon="9.285220038145781">
        <ele>317.37</ele>
        <time>2018-09-19T10:35:57Z</time>
      </trkpt>
      <trkpt lat="48.70110897347331" lon="9.285493036732078">
        <ele>316.41000000000003</ele>
        <time>2018-09-19T10:35:58Z</time>
      </trkpt>
      <trkpt lat="48.701212992891669" lon="9.286923995241523">
        <ele>310.63999999999999</ele>
        <time>2018-09-19T10:36:03Z</time>
      </trkpt>
      <trkpt lat="48.701181979849935" lon="9.287165980786085">
        <ele>309.19999999999999</ele>
        <time>2018-09-19T10:36:04Z</time>
      </trkpt>
      <trkpt lat="48.7011060398072" lon="9.287760006263852">
        <ele>305.83999999999997</ele>
        <time>2018-09-19T10:36:07Z</time>
      </trkpt>
      <trkpt lat="48.701164964586496" lon="9.287908030673862">
        <ele>305.36000000000001</ele>
        <time>2018-09-19T10:36:08Z</time>
      </trkpt>
      <trkpt lat="48.70119203813374" lon="9.287975002080202">
        <ele>304.38999999999999</ele>
        <time>2018-09-19T10:36:09Z</time>
      </trkpt>
      <trkpt lat="48.701263032853603" lon="9.287956980988383">
        <ele>303.91000000000003</ele>
        <time>2018-09-19T10:36:10Z</time>
      </trkpt>
      <trkpt lat="48.70136302895844" lon="9.287932002916932">
        <ele>302.94999999999999</ele>
        <time>2018-09-19T10:36:11Z</time>
      </trkpt>
      <trkpt lat="48.701417008414865" lon="9.287866959348321">
        <ele>302.47000000000003</ele>
        <time>2018-09-19T10:36:12Z</time>
      </trkpt>
      <trkpt lat="48.701519016176462" lon="9.287745002657175">
        <ele>302.47000000000003</ele>
        <time>2018-09-19T10:36:13Z</time>
      </trkpt>
      <trkpt lat="48.701638039201498" lon="9.287602007389069">
        <ele>301.50999999999999</ele>
        <time>2018-09-19T10:36:14Z</time>
      </trkpt>
      <trkpt lat="48.702242961153388" lon="9.286816036328673">
        <ele>297.67000000000002</ele>
        <time>2018-09-19T10:36:19Z</time>
      </trkpt>
      <trkpt lat="48.702408000826836" lon="9.286753004416823">
        <ele>296.69999999999999</ele>
        <time>2018-09-19T10:36:20Z</time>
      </trkpt>
      <trkpt lat="48.702528029680252" lon="9.286711011081934">
        <ele>295.74000000000001</ele>
        <time>2018-09-19T10:36:21Z</time>
      </trkpt>
      <trkpt lat="48.702656021341681" lon="9.286749986931682">
        <ele>294.77999999999997</ele>
        <time>2018-09-19T10:36:22Z</time>
      </trkpt>
      <trkpt lat="48.702801028266549" lon="9.286794997751713">
        <ele>294.30000000000001</ele>
        <time>2018-09-19T10:36:23Z</time>
      </trkpt>
      <trkpt lat="48.702921979129314" lon="9.286878984421492">
        <ele>293.33999999999997</ele>
        <time>2018-09-19T10:36:24Z</time>
      </trkpt>
      <trkpt lat="48.703864021226764" lon="9.287642994895577">
        <ele>295.74000000000001</ele>
        <time>2018-09-19T10:36:32Z</time>
      </trkpt>
      <trkpt lat="48.703965023159981" lon="9.287766041234136">
        <ele>296.69999999999999</ele>
        <time>2018-09-19T10:36:33Z</time>
      </trkpt>
      <trkpt lat="48.704063007608056" lon="9.287909036502242">
        <ele>297.67000000000002</ele>
        <time>2018-09-19T10:36:34Z</time>
      </trkpt>
      <trkpt lat="48.704266017302871" lon="9.288201984018087">
        <ele>299.58999999999997</ele>
        <time>2018-09-19T10:36:36Z</time>
      </trkpt>
      <trkpt lat="48.704368025064468" lon="9.288350008428097">
        <ele>300.55000000000001</ele>
        <time>2018-09-19T10:36:37Z</time>
      </trkpt>
      <trkpt lat="48.705462031066418" lon="9.28930495865643">
        <ele>307.27999999999997</ele>
        <time>2018-09-19T10:36:46Z</time>
      </trkpt>
      <trkpt lat="48.706411030143499" lon="9.289919016882777">
        <ele>313.05000000000001</ele>
        <time>2018-09-19T10:36:54Z</time>
      </trkpt>
      <trkpt lat="48.706514965742826" lon="9.289984982460737">
        <ele>314.00999999999999</ele>
        <time>2018-09-19T10:36:55Z</time>
      </trkpt>
      <trkpt lat="48.707086024805903" lon="9.290381027385593">
        <ele>319.30000000000001</ele>
        <time>2018-09-19T10:37:01Z</time>
      </trkpt>
      <trkpt lat="48.707313006743789" lon="9.290701970458031">
        <ele>321.22000000000003</ele>
        <time>2018-09-19T10:37:04Z</time>
      </trkpt>
      <trkpt lat="48.707388024777174" lon="9.290809007361531">
        <ele>322.18000000000001</ele>
        <time>2018-09-19T10:37:05Z</time>
      </trkpt>
      <trkpt lat="48.707947013899684" lon="9.291663961485028">
        <ele>326.5</ele>
        <time>2018-09-19T10:37:15Z</time>
      </trkpt>
      <trkpt lat="48.708380023017526" lon="9.292347002774477">
        <ele>331.79000000000002</ele>
        <time>2018-09-19T10:37:23Z</time>
      </trkpt>
      <trkpt lat="48.708439031615853" lon="9.29243803024292">
        <ele>332.26999999999998</ele>
        <time>2018-09-19T10:37:24Z</time>
      </trkpt>
      <trkpt lat="48.708681017160416" lon="9.292765008285642">
        <ele>334.19999999999999</ele>
        <time>2018-09-19T10:37:28Z</time>
      </trkpt>
      <trkpt lat="48.709054011851549" lon="9.293198017403483">
        <ele>337.07999999999998</ele>
        <time>2018-09-19T10:37:34Z</time>
      </trkpt>
      <trkpt lat="48.709118971601129" lon="9.293262977153063">
        <ele>337.56</ele>
        <time>2018-09-19T10:37:35Z</time>
      </trkpt>
      <trkpt lat="48.709186026826501" lon="9.293330032378435">
        <ele>338.51999999999998</ele>
        <time>2018-09-19T10:37:36Z</time>
      </trkpt>
      <trkpt lat="48.709258027374744" lon="9.293371019884944">
        <ele>339</ele>
        <time>2018-09-19T10:37:37Z</time>
      </trkpt>
      <trkpt lat="48.709331033751369" lon="9.29340697824955">
        <ele>339</ele>
        <time>2018-09-19T10:37:38Z</time>
      </trkpt>
      <trkpt lat="48.709404040127993" lon="9.293444026261568">
        <ele>339.48000000000002</ele>
        <time>2018-09-19T10:37:39Z</time>
      </trkpt>
      <trkpt lat="48.709495989605784" lon="9.293489959090948">
        <ele>339.95999999999998</ele>
        <time>2018-09-19T10:37:40Z</time>
      </trkpt>
      <trkpt lat="48.709563966840506" lon="9.29349297657609">
        <ele>339.95999999999998</ele>
        <time>2018-09-19T10:37:41Z</time>
      </trkpt>
      <trkpt lat="48.709645019844174" lon="9.293498005717993">
        <ele>339.95999999999998</ele>
        <time>2018-09-19T10:37:42Z</time>
      </trkpt>
      <trkpt lat="48.709724983200431" lon="9.293502029031515">
        <ele>339.95999999999998</ele>
        <time>2018-09-19T10:37:43Z</time>
      </trkpt>
      <trkpt lat="48.70987200178206" lon="9.293509991839528">
        <ele>340.44</ele>
        <time>2018-09-19T10:37:45Z</time>
      </trkpt>
      <trkpt lat="48.709944002330303" lon="9.293502029031515">
        <ele>340.44</ele>
        <time>2018-09-19T10:37:46Z</time>
      </trkpt>
      <trkpt lat="48.710118010640144" lon="9.293547039851546">
        <ele>340.44</ele>
        <time>2018-09-19T10:37:48Z</time>
      </trkpt>
      <trkpt lat="48.71019596233964" lon="9.293614011257887">
        <ele>340.44</ele>
        <time>2018-09-19T10:37:49Z</time>
      </trkpt>
      <trkpt lat="48.710264023393393" lon="9.29368601180613">
        <ele>340.44</ele>
        <time>2018-09-19T10:37:50Z</time>
      </trkpt>
      <trkpt lat="48.710327977314591" lon="9.293754994869232">
        <ele>340.92000000000002</ele>
        <time>2018-09-19T10:37:51Z</time>
      </trkpt>
      <trkpt lat="48.710395032539964" lon="9.293826995417476">
        <ele>340.44</ele>
        <time>2018-09-19T10:37:52Z</time>
      </trkpt>
      <trkpt lat="48.710439959540963" lon="9.293876029551029">
        <ele>339.95999999999998</ele>
        <time>2018-09-19T10:37:53Z</time>
      </trkpt>
      <trkpt lat="48.710599970072508" lon="9.293941995128989">
        <ele>338.51999999999998</ele>
        <time>2018-09-19T10:37:55Z</time>
      </trkpt>
      <trkpt lat="48.710669036954641" lon="9.293970996513963">
        <ele>338.04000000000002</ele>
        <time>2018-09-19T10:37:56Z</time>
      </trkpt>
      <trkpt lat="48.710729973390698" lon="9.293982982635498">
        <ele>337.56</ele>
        <time>2018-09-19T10:37:57Z</time>
      </trkpt>
      <trkpt lat="48.710800968110561" lon="9.293982982635498">
        <ele>337.07999999999998</ele>
        <time>2018-09-19T10:37:58Z</time>
      </trkpt>
      <trkpt lat="48.710846984758973" lon="9.294175012037158">
        <ele>337.07999999999998</ele>
        <time>2018-09-19T10:37:59Z</time>
      </trkpt>
      <trkpt lat="48.710870034992695" lon="9.294277019798756">
        <ele>337.07999999999998</ele>
        <time>2018-09-19T10:38:00Z</time>
      </trkpt>
      <trkpt lat="48.710889983922243" lon="9.294368969276547">
        <ele>337.07999999999998</ele>
        <time>2018-09-19T10:38:01Z</time>
      </trkpt>
      <trkpt lat="48.710936000570655" lon="9.29448296315968">
        <ele>337.07999999999998</ele>
        <time>2018-09-19T10:38:02Z</time>
      </trkpt>
      <trkpt lat="48.711068015545607" lon="9.294897029176354">
        <ele>337.56</ele>
        <time>2018-09-19T10:38:06Z</time>
      </trkpt>
      <trkpt lat="48.711126018315554" lon="9.295207997784019">
        <ele>337.56</ele>
        <time>2018-09-19T10:38:09Z</time>
      </trkpt>
      <trkpt lat="48.711126018315554" lon="9.29527698084712">
        <ele>337.56</ele>
        <time>2018-09-19T10:38:10Z</time>
      </trkpt>
      <trkpt lat="48.711126018315554" lon="9.295332971960306">
        <ele>337.56</ele>
        <time>2018-09-19T10:38:11Z</time>
      </trkpt>
      <trkpt lat="48.711126018315554" lon="9.295442020520568">
        <ele>337.56</ele>
        <time>2018-09-19T10:38:12Z</time>
      </trkpt>
      <trkpt lat="48.711150996387005" lon="9.295435985550284">
        <ele>338.04000000000002</ele>
        <time>2018-09-19T10:38:13Z</time>
      </trkpt>
      <trkpt lat="48.711173962801695" lon="9.295429028570652">
        <ele>338.04000000000002</ele>
        <time>2018-09-19T10:38:14Z</time>
      </trkpt>
      <trkpt lat="48.71120497584343" lon="9.295420981943607">
        <ele>337.56</ele>
        <time>2018-09-19T10:38:15Z</time>
      </trkpt>
      <trkpt lat="48.711246969178319" lon="9.295410001650453">
        <ele>337.56</ele>
        <time>2018-09-19T10:38:16Z</time>
      </trkpt>
      <trkpt lat="48.711303966119885" lon="9.295393992215395">
        <ele>337.56</ele>
        <time>2018-09-19T10:38:17Z</time>
      </trkpt>
      <trkpt lat="48.711372027173638" lon="9.295375971123576">
        <ele>337.07999999999998</ele>
        <time>2018-09-19T10:38:18Z</time>
      </trkpt>
      <trkpt lat="48.711444027721882" lon="9.295357028022409">
        <ele>337.07999999999998</ele>
        <time>2018-09-19T10:38:19Z</time>
      </trkpt>
      <trkpt lat="48.711520973592997" lon="9.295335989445448">
        <ele>337.07999999999998</ele>
        <time>2018-09-19T10:38:20Z</time>
      </trkpt>
      <trkpt lat="48.711602026596665" lon="9.295314028859139">
        <ele>336.60000000000002</ele>
        <time>2018-09-19T10:38:21Z</time>
      </trkpt>
      <trkpt lat="48.711687019094825" lon="9.295290978625417">
        <ele>336.60000000000002</ele>
        <time>2018-09-19T10:38:22Z</time>
      </trkpt>
      <trkpt lat="48.711767988279462" lon="9.295249991118908">
        <ele>336.60000000000002</ele>
        <time>2018-09-19T10:38:23Z</time>
      </trkpt>
      <trkpt lat="48.711852980777621" lon="9.295207997784019">
        <ele>336.60000000000002</ele>
        <time>2018-09-19T10:38:24Z</time>
      </trkpt>
      <trkpt lat="48.711938979104161" lon="9.295164998620749">
        <ele>337.07999999999998</ele>
        <time>2018-09-19T10:38:25Z</time>
      </trkpt>
      <trkpt lat="48.712025983259082" lon="9.295120993629098">
        <ele>337.07999999999998</ele>
        <time>2018-09-19T10:38:26Z</time>
      </trkpt>
      <trkpt lat="48.712408030405641" lon="9.294927958399057">
        <ele>339.48000000000002</ele>
        <time>2018-09-19T10:38:31Z</time>
      </trkpt>
      <trkpt lat="48.712491011247039" lon="9.294884037226439">
        <ele>339.95999999999998</ele>
        <time>2018-09-19T10:38:32Z</time>
      </trkpt>
      <trkpt lat="48.712968025356531" lon="9.294635010883212">
        <ele>344.29000000000002</ele>
        <time>2018-09-19T10:38:39Z</time>
      </trkpt>
      <trkpt lat="48.713010018691421" lon="9.294613972306252">
        <ele>344.76999999999998</ele>
        <time>2018-09-19T10:38:40Z</time>
      </trkpt>
      <trkpt lat="48.713044971227646" lon="9.294595029205084">
        <ele>345.25</ele>
        <time>2018-09-19T10:38:41Z</time>
      </trkpt>
      <trkpt lat="48.713079001754522" lon="9.294577008113265">
        <ele>346.20999999999998</ele>
        <time>2018-09-19T10:38:42Z</time>
      </trkpt>
      <trkpt lat="48.713108003139496" lon="9.294562004506588">
        <ele>346.69</ele>
        <time>2018-09-19T10:38:43Z</time>
      </trkpt>
      <trkpt lat="48.713137004524469" lon="9.294547000899911">
        <ele>346.69</ele>
        <time>2018-09-19T10:38:44Z</time>
      </trkpt>
      <trkpt lat="48.713282011449337" lon="9.294524034485221">
        <ele>348.62</ele>
        <time>2018-09-19T10:38:53Z</time>
      </trkpt>
      <trkpt lat="48.71328997425735" lon="9.294567033648491">
        <ele>349.10000000000002</ele>
        <time>2018-09-19T10:38:54Z</time>
      </trkpt>
      <trkpt lat="48.713303972035646" lon="9.294635010883212">
        <ele>349.10000000000002</ele>
        <time>2018-09-19T10:38:55Z</time>
      </trkpt>
      <trkpt lat="48.713322998955846" lon="9.294725032523274">
        <ele>349.57999999999998</ele>
        <time>2018-09-19T10:38:56Z</time>
      </trkpt>
      <trkpt lat="48.713343031704426" lon="9.294825028628111">
        <ele>349.57999999999998</ele>
        <time>2018-09-19T10:38:57Z</time>
      </trkpt>
      <trkpt lat="48.713379995897412" lon="9.295009011402726">
        <ele>350.06</ele>
        <time>2018-09-19T10:38:59Z</time>
      </trkpt>
      <trkpt lat="48.71339600533247" lon="9.295086041092873">
        <ele>349.57999999999998</ele>
        <time>2018-09-19T10:39:00Z</time>
      </trkpt>
      <trkpt lat="48.713427018374205" lon="9.295238004997373">
        <ele>349.10000000000002</ele>
        <time>2018-09-19T10:39:02Z</time>
      </trkpt>
      <trkpt lat="48.713444033637643" lon="9.295322997495532">
        <ele>349.10000000000002</ele>
        <time>2018-09-19T10:39:03Z</time>
      </trkpt>
      <trkpt lat="48.713526008650661" lon="9.29572599940002">
        <ele>347.17000000000002</ele>
        <time>2018-09-19T10:39:07Z</time>
      </trkpt>
      <trkpt lat="48.713549980893731" lon="9.295842004939914">
        <ele>347.17000000000002</ele>
        <time>2018-09-19T10:39:08Z</time>
      </trkpt>
      <trkpt lat="48.713728012517095" lon="9.296721015125513">
        <ele>344.76999999999998</ele>
        <time>2018-09-19T10:39:15Z</time>
      </trkpt>
      <trkpt lat="48.713751984760165" lon="9.296841965988278">
        <ele>344.29000000000002</ele>
        <time>2018-09-19T10:39:16Z</time>
      </trkpt>
      <trkpt lat="48.713874025270343" lon="9.297461975365877">
        <ele>340.92000000000002</ele>
        <time>2018-09-19T10:39:23Z</time>
      </trkpt>
      <trkpt lat="48.713874025270343" lon="9.297461975365877">
        <ele>340.44</ele>
        <time>2018-09-19T10:39:33Z</time>
      </trkpt>
      <trkpt lat="48.713877964764833" lon="9.297483013942838">
        <ele>339.48000000000002</ele>
        <time>2018-09-19T10:40:15Z</time>
      </trkpt>
      <trkpt lat="48.713967986404896" lon="9.297947036102414">
        <ele>338.51999999999998</ele>
        <time>2018-09-19T10:40:20Z</time>
      </trkpt>
      <trkpt lat="48.713989024981856" lon="9.298059018328786">
        <ele>338.51999999999998</ele>
        <time>2018-09-19T10:40:21Z</time>
      </trkpt>
      <trkpt lat="48.714012997224927" lon="9.298184998333454">
        <ele>338.04000000000002</ele>
        <time>2018-09-19T10:40:22Z</time>
      </trkpt>
      <trkpt lat="48.714038981124759" lon="9.298320030793548">
        <ele>338.04000000000002</ele>
        <time>2018-09-19T10:40:23Z</time>
      </trkpt>
      <trkpt lat="48.714065970852971" lon="9.298461014404893">
        <ele>337.56</ele>
        <time>2018-09-19T10:40:24Z</time>
      </trkpt>
      <trkpt lat="48.714092038571835" lon="9.298599986359477">
        <ele>337.56</ele>
        <time>2018-09-19T10:40:25Z</time>
      </trkpt>
      <trkpt lat="48.714119028300047" lon="9.298738958314061">
        <ele>337.56</ele>
        <time>2018-09-19T10:40:26Z</time>
      </trkpt>
      <trkpt lat="48.714145012199879" lon="9.298876002430916">
        <ele>337.56</ele>
        <time>2018-09-19T10:40:27Z</time>
      </trkpt>
      <trkpt lat="48.714172001928091" lon="9.299020003527403">
        <ele>337.56</ele>
        <time>2018-09-19T10:40:28Z</time>
      </trkpt>
      <trkpt lat="48.714203014969826" lon="9.299159981310368">
        <ele>337.56</ele>
        <time>2018-09-19T10:40:29Z</time>
      </trkpt>
      <trkpt lat="48.714355984702706" lon="9.299847967922688">
        <ele>339</ele>
        <time>2018-09-19T10:40:36Z</time>
      </trkpt>
      <trkpt lat="48.714372999966145" lon="9.299923991784453">
        <ele>339</ele>
        <time>2018-09-19T10:40:37Z</time>
      </trkpt>
      <trkpt lat="48.714388003572822" lon="9.299990963190794">
        <ele>339.48000000000002</ele>
        <time>2018-09-19T10:40:38Z</time>
      </trkpt>
      <trkpt lat="48.714397978037596" lon="9.300163965672255">
        <ele>340.44</ele>
        <time>2018-09-19T10:40:40Z</time>
      </trkpt>
      <trkpt lat="48.714402001351118" lon="9.300228003412485">
        <ele>341.41000000000003</ele>
        <time>2018-09-19T10:40:41Z</time>
      </trkpt>
      <trkpt lat="48.71440501883626" lon="9.300279971212149">
        <ele>341.88999999999999</ele>
        <time>2018-09-19T10:40:42Z</time>
      </trkpt>
      <trkpt lat="48.714407030493021" lon="9.300320958718658">
        <ele>342.37</ele>
        <time>2018-09-19T10:40:43Z</time>
      </trkpt>
      <trkpt lat="48.71440895833075" lon="9.300351971760392">
        <ele>342.85000000000002</ele>
        <time>2018-09-19T10:40:44Z</time>
      </trkpt>
      <trkpt lat="48.71440895833075" lon="9.300351971760392">
        <ele>343.32999999999998</ele>
        <time>2018-09-19T10:40:56Z</time>
      </trkpt>
      <trkpt lat="48.714420022442937" lon="9.300531009212136">
        <ele>344.76999999999998</ele>
        <time>2018-09-19T10:41:13Z</time>
      </trkpt>
      <trkpt lat="48.714423961937428" lon="9.300605021417141">
        <ele>345.25</ele>
        <time>2018-09-19T10:41:14Z</time>
      </trkpt>
      <trkpt lat="48.714550025761127" lon="9.300707029178739">
        <ele>345.73000000000002</ele>
        <time>2018-09-19T10:41:15Z</time>
      </trkpt>
      <trkpt lat="48.714604005217552" lon="9.300700994208455">
        <ele>346.20999999999998</ele>
        <time>2018-09-19T10:41:16Z</time>
      </trkpt>
      <trkpt lat="48.714674999937415" lon="9.300692025572062">
        <ele>346.69</ele>
        <time>2018-09-19T10:41:17Z</time>
      </trkpt>
      <trkpt lat="48.714757980778813" lon="9.300681967288256">
        <ele>347.17000000000002</ele>
        <time>2018-09-19T10:41:18Z</time>
      </trkpt>
      <trkpt lat="48.714844984933734" lon="9.300675010308623">
        <ele>347.64999999999998</ele>
        <time>2018-09-19T10:41:19Z</time>
      </trkpt>
      <trkpt lat="48.71507003903389" lon="9.300664030015469">
        <ele>348.62</ele>
        <time>2018-09-19T10:41:24Z</time>
      </trkpt>
      <trkpt lat="48.715557027608156" lon="9.300652965903282">
        <ele>351.5</ele>
        <time>2018-09-19T10:41:30Z</time>
      </trkpt>
      <trkpt lat="48.715795995667577" lon="9.300650032237172">
        <ele>351.98000000000002</ele>
        <time>2018-09-19T10:41:32Z</time>
      </trkpt>
      <trkpt lat="48.71719803661108" lon="9.300635028630495">
        <ele>357.26999999999998</ele>
        <time>2018-09-19T10:41:43Z</time>
      </trkpt>
      <trkpt lat="48.718296987935901" lon="9.300555987283588">
        <ele>363.04000000000002</ele>
        <time>2018-09-19T10:41:51Z</time>
      </trkpt>
      <trkpt lat="48.718611979857087" lon="9.300527991726995">
        <ele>364.95999999999998</ele>
        <time>2018-09-19T10:41:53Z</time>
      </trkpt>
      <trkpt lat="48.718767967075109" lon="9.300565961748362">
        <ele>365.44</ele>
        <time>2018-09-19T10:41:54Z</time>
      </trkpt>
      <trkpt lat="48.718921020627022" lon="9.30060401558876">
        <ele>365.92000000000002</ele>
        <time>2018-09-19T10:41:55Z</time>
      </trkpt>
      <trkpt lat="48.719883011654019" lon="9.300920013338327">
        <ele>368.80000000000001</ele>
        <time>2018-09-19T10:42:03Z</time>
      </trkpt>
      <trkpt lat="48.720880961045623" lon="9.301183959469199">
        <ele>368.31999999999999</ele>
        <time>2018-09-19T10:42:14Z</time>
      </trkpt>
      <trkpt lat="48.720967965200543" lon="9.301286973059177">
        <ele>368.31999999999999</ele>
        <time>2018-09-19T10:42:15Z</time>
      </trkpt>
      <trkpt lat="48.721013981848955" lon="9.301364002749324">
        <ele>368.31999999999999</ele>
        <time>2018-09-19T10:42:16Z</time>
      </trkpt>
      <trkpt lat="48.721054969355464" lon="9.301481014117599">
        <ele>368.80000000000001</ele>
        <time>2018-09-19T10:42:17Z</time>
      </trkpt>
      <trkpt lat="48.721073996275663" lon="9.301575981080532">
        <ele>368.80000000000001</ele>
        <time>2018-09-19T10:42:18Z</time>
      </trkpt>
      <trkpt lat="48.721093023195863" lon="9.301671031862497">
        <ele>369.27999999999997</ele>
        <time>2018-09-19T10:42:19Z</time>
      </trkpt>
      <trkpt lat="48.721030997112393" lon="9.301863983273506">
        <ele>369.27999999999997</ele>
        <time>2018-09-19T10:42:20Z</time>
      </trkpt>
      <trkpt lat="48.720983974635601" lon="9.301951993256807">
        <ele>368.80000000000001</ele>
        <time>2018-09-19T10:42:21Z</time>
      </trkpt>
      <trkpt lat="48.720933012664318" lon="9.302040003240109">
        <ele>368.80000000000001</ele>
        <time>2018-09-19T10:42:22Z</time>
      </trkpt>
      <trkpt lat="48.720880961045623" lon="9.302118038758636">
        <ele>368.31999999999999</ele>
        <time>2018-09-19T10:42:23Z</time>
      </trkpt>
      <trkpt lat="48.720682980492711" lon="9.302415009588003">
        <ele>366.88</ele>
        <time>2018-09-19T10:42:28Z</time>
      </trkpt>
      <trkpt lat="48.720474019646645" lon="9.302867967635393">
        <ele>363.51999999999998</ele>
        <time>2018-09-19T10:42:36Z</time>
      </trkpt>
      <trkpt lat="48.720474019646645" lon="9.302867967635393">
        <ele>363.51999999999998</ele>
        <time>2018-09-19T10:43:14Z</time>
      </trkpt>
      <trkpt lat="48.720448035746813" lon="9.302947008982301">
        <ele>363.04000000000002</ele>
        <time>2018-09-19T10:43:17Z</time>
      </trkpt>
      <trkpt lat="48.720421968027949" lon="9.303024038672447">
        <ele>362.55000000000001</ele>
        <time>2018-09-19T10:43:18Z</time>
      </trkpt>
      <trkpt lat="48.720393972471356" lon="9.303110036998987">
        <ele>362.06999999999999</ele>
        <time>2018-09-19T10:43:19Z</time>
      </trkpt>
      <trkpt lat="48.720455998554826" lon="9.303384041413665">
        <ele>361.58999999999997</ele>
        <time>2018-09-19T10:43:20Z</time>
      </trkpt>
      <trkpt lat="48.720525987446308" lon="9.303433997556567">
        <ele>361.11000000000001</ele>
        <time>2018-09-19T10:43:21Z</time>
      </trkpt>
      <trkpt lat="48.72061500325799" lon="9.303498035296798">
        <ele>360.63</ele>
        <time>2018-09-19T10:43:22Z</time>
      </trkpt>
      <trkpt lat="48.720722962170839" lon="9.303574981167913">
        <ele>360.63</ele>
        <time>2018-09-19T10:43:23Z</time>
      </trkpt>
      <trkpt lat="48.720838967710733" lon="9.303680006414652">
        <ele>360.14999999999998</ele>
        <time>2018-09-19T10:43:24Z</time>
      </trkpt>
      <trkpt lat="48.721643965691328" lon="9.304828997701407">
        <ele>357.26999999999998</ele>
        <time>2018-09-19T10:43:31Z</time>
      </trkpt>
      <trkpt lat="48.721887040883303" lon="9.305656040087342">
        <ele>354.86000000000001</ele>
        <time>2018-09-19T10:43:35Z</time>
      </trkpt>
      <trkpt lat="48.721965998411179" lon="9.306128025054932">
        <ele>353.42000000000002</ele>
        <time>2018-09-19T10:43:38Z</time>
      </trkpt>
      <trkpt lat="48.721981002017856" lon="9.306217962875962">
        <ele>352.94</ele>
        <time>2018-09-19T10:43:39Z</time>
      </trkpt>
      <trkpt lat="48.721993993967772" lon="9.306416027247906">
        <ele>349.57999999999998</ele>
        <time>2018-09-19T10:43:46Z</time>
      </trkpt>
      <trkpt lat="48.721992988139391" lon="9.306787010282278">
        <ele>347.64999999999998</ele>
        <time>2018-09-19T10:43:52Z</time>
      </trkpt>
      <trkpt lat="48.7218629848212" lon="9.308302039280534">
        <ele>343.81</ele>
        <time>2018-09-19T10:44:00Z</time>
      </trkpt>
      <trkpt lat="48.721825014799833" lon="9.308740999549627">
        <ele>342.37</ele>
        <time>2018-09-19T10:44:02Z</time>
      </trkpt>
      <trkpt lat="48.721815962344408" lon="9.308977033942938">
        <ele>341.41000000000003</ele>
        <time>2018-09-19T10:44:03Z</time>
      </trkpt>
      <trkpt lat="48.72184001840651" lon="9.309220025315881">
        <ele>341.41000000000003</ele>
        <time>2018-09-19T10:44:04Z</time>
      </trkpt>
      <trkpt lat="48.721915958449244" lon="9.309708019718528">
        <ele>339.95999999999998</ele>
        <time>2018-09-19T10:44:06Z</time>
      </trkpt>
      <trkpt lat="48.721985025331378" lon="9.3099270388484">
        <ele>339</ele>
        <time>2018-09-19T10:44:07Z</time>
      </trkpt>
      <trkpt lat="48.72205400839448" lon="9.310146979987621">
        <ele>338.04000000000002</ele>
        <time>2018-09-19T10:44:08Z</time>
      </trkpt>
      <trkpt lat="48.722134977579117" lon="9.310369016602635">
        <ele>337.07999999999998</ele>
        <time>2018-09-19T10:44:09Z</time>
      </trkpt>
      <trkpt lat="48.72224897146225" lon="9.31055199354887">
        <ele>335.63999999999999</ele>
        <time>2018-09-19T10:44:10Z</time>
      </trkpt>
      <trkpt lat="48.722370006144047" lon="9.310726001858711">
        <ele>334.19999999999999</ele>
        <time>2018-09-19T10:44:11Z</time>
      </trkpt>
      <trkpt lat="48.72250403277576" lon="9.310878971591592">
        <ele>333.23000000000002</ele>
        <time>2018-09-19T10:44:12Z</time>
      </trkpt>
      <trkpt lat="48.722645016387105" lon="9.311032025143504">
        <ele>331.79000000000002</ele>
        <time>2018-09-19T10:44:13Z</time>
      </trkpt>
      <trkpt lat="48.722797986119986" lon="9.311140989884734">
        <ele>330.82999999999998</ele>
        <time>2018-09-19T10:44:14Z</time>
      </trkpt>
      <trkpt lat="48.722952967509627" lon="9.311250038444996">
        <ele>329.38999999999999</ele>
        <time>2018-09-19T10:44:15Z</time>
      </trkpt>
      <trkpt lat="48.723123958334327" lon="9.311304017901421">
        <ele>327.94999999999999</ele>
        <time>2018-09-19T10:44:16Z</time>
      </trkpt>
      <trkpt lat="48.723291009664536" lon="9.311336958780885">
        <ele>326.5</ele>
        <time>2018-09-19T10:44:17Z</time>
      </trkpt>
      <trkpt lat="48.723457977175713" lon="9.311360009014607">
        <ele>325.54000000000002</ele>
        <time>2018-09-19T10:44:18Z</time>
      </trkpt>
      <trkpt lat="48.723627962172031" lon="9.311340982094407">
        <ele>324.57999999999998</ele>
        <time>2018-09-19T10:44:19Z</time>
      </trkpt>
      <trkpt lat="48.723808005452156" lon="9.311321033164859">
        <ele>323.62</ele>
        <time>2018-09-19T10:44:20Z</time>
      </trkpt>
      <trkpt lat="48.724259035661817" lon="9.311278034001589">
        <ele>319.77999999999997</ele>
        <time>2018-09-19T10:44:23Z</time>
      </trkpt>
      <trkpt lat="48.724392978474498" lon="9.311361014842987">
        <ele>318.32999999999998</ele>
        <time>2018-09-19T10:44:24Z</time>
      </trkpt>
      <trkpt lat="48.724515018984675" lon="9.311436032876372">
        <ele>316.88999999999999</ele>
        <time>2018-09-19T10:44:25Z</time>
      </trkpt>
      <trkpt lat="48.724601017311215" lon="9.311566036194563">
        <ele>315.93000000000001</ele>
        <time>2018-09-19T10:44:26Z</time>
      </trkpt>
      <trkpt lat="48.724668994545937" lon="9.31171003729105">
        <ele>314.49000000000001</ele>
        <time>2018-09-19T10:44:27Z</time>
      </trkpt>
      <trkpt lat="48.724688021466136" lon="9.311880022287369">
        <ele>313.52999999999997</ele>
        <time>2018-09-19T10:44:28Z</time>
      </trkpt>
      <trkpt lat="48.724688021466136" lon="9.312050007283688">
        <ele>312.56999999999999</ele>
        <time>2018-09-19T10:44:29Z</time>
      </trkpt>
      <trkpt lat="48.724637981504202" lon="9.312209011986852">
        <ele>311.60000000000002</ele>
        <time>2018-09-19T10:44:30Z</time>
      </trkpt>
      <trkpt lat="48.724579978734255" lon="9.312394000589848">
        <ele>310.63999999999999</ele>
        <time>2018-09-19T10:44:31Z</time>
      </trkpt>
      <trkpt lat="48.724477970972657" lon="9.312496008351445">
        <ele>309.68000000000001</ele>
        <time>2018-09-19T10:44:32Z</time>
      </trkpt>
      <trkpt lat="48.724355008453131" lon="9.312611008062959">
        <ele>308.72000000000003</ele>
        <time>2018-09-19T10:44:33Z</time>
      </trkpt>
      <trkpt lat="48.724217964336276" lon="9.312645960599184">
        <ele>307.75999999999999</ele>
        <time>2018-09-19T10:44:34Z</time>
      </trkpt>
      <trkpt lat="48.724071029573679" lon="9.312685020267963">
        <ele>306.80000000000001</ele>
        <time>2018-09-19T10:44:35Z</time>
      </trkpt>
      <trkpt lat="48.723768023774028" lon="9.312771018594503">
        <ele>304.38999999999999</ele>
        <time>2018-09-19T10:44:37Z</time>
      </trkpt>
      <trkpt lat="48.723618993535638" lon="9.312866991385818">
        <ele>302.94999999999999</ele>
        <time>2018-09-19T10:44:38Z</time>
      </trkpt>
      <trkpt lat="48.723478009924293" lon="9.31295801885426">
        <ele>301.99000000000001</ele>
        <time>2018-09-19T10:44:39Z</time>
      </trkpt>
      <trkpt lat="48.723373990505934" lon="9.313093973323703">
        <ele>301.02999999999997</ele>
        <time>2018-09-19T10:44:40Z</time>
      </trkpt>
      <trkpt lat="48.723288998007774" lon="9.313268987461925">
        <ele>300.06999999999999</ele>
        <time>2018-09-19T10:44:41Z</time>
      </trkpt>
      <trkpt lat="48.723204005509615" lon="9.313446013256908">
        <ele>298.63</ele>
        <time>2018-09-19T10:44:42Z</time>
      </trkpt>
      <trkpt lat="48.723119013011456" lon="9.313629996031523">
        <ele>297.18000000000001</ele>
        <time>2018-09-19T10:44:43Z</time>
      </trkpt>
      <trkpt lat="48.723083976656199" lon="9.31384096853435">
        <ele>296.22000000000003</ele>
        <time>2018-09-19T10:44:44Z</time>
      </trkpt>
      <trkpt lat="48.723051035776734" lon="9.31405303068459">
        <ele>294.30000000000001</ele>
        <time>2018-09-19T10:44:45Z</time>
      </trkpt>
      <trkpt lat="48.72304298914969" lon="9.314274983480573">
        <ele>292.86000000000001</ele>
        <time>2018-09-19T10:44:46Z</time>
      </trkpt>
      <trkpt lat="48.72306302189827" lon="9.314488973468542">
        <ele>291.42000000000002</ele>
        <time>2018-09-19T10:44:47Z</time>
      </trkpt>
      <trkpt lat="48.723083976656199" lon="9.314706986770034">
        <ele>290.45999999999998</ele>
        <time>2018-09-19T10:44:48Z</time>
      </trkpt>
      <trkpt lat="48.723104009404778" lon="9.314926005899906">
        <ele>289.00999999999999</ele>
        <time>2018-09-19T10:44:49Z</time>
      </trkpt>
      <trkpt lat="48.723121024668217" lon="9.315119041129947">
        <ele>287.56999999999999</ele>
        <time>2018-09-19T10:44:50Z</time>
      </trkpt>
      <trkpt lat="48.723588986322284" lon="9.316612025722861">
        <ele>278.44</ele>
        <time>2018-09-19T10:44:58Z</time>
      </trkpt>
      <trkpt lat="48.724369006231427" lon="9.317754982039332">
        <ele>268.35000000000002</ele>
        <time>2018-09-19T10:45:06Z</time>
      </trkpt>
      <trkpt lat="48.724485011771321" lon="9.317876016721129">
        <ele>267.38</ele>
        <time>2018-09-19T10:45:07Z</time>
      </trkpt>
      <trkpt lat="48.7258589733392" lon="9.318923000246286">
        <ele>254.88999999999999</ele>
        <time>2018-09-19T10:45:18Z</time>
      </trkpt>
      <trkpt lat="48.726304974406958" lon="9.319245032966137">
        <ele>248.63999999999999</ele>
        <time>2018-09-19T10:45:25Z</time>
      </trkpt>
      <trkpt lat="48.726346967741847" lon="9.31927596218884">
        <ele>245.75</ele>
        <time>2018-09-19T10:45:34Z</time>
      </trkpt>
      <trkpt lat="48.726370017975569" lon="9.319292977452278">
        <ele>245.27000000000001</ele>
        <time>2018-09-19T10:45:41Z</time>
      </trkpt>
      <trkpt lat="48.72652399353683" lon="9.319390961900353">
        <ele>244.31</ele>
        <time>2018-09-19T10:45:44Z</time>
      </trkpt>
      <trkpt lat="48.726598005741835" lon="9.319427004083991">
        <ele>243.83000000000001</ele>
        <time>2018-09-19T10:45:45Z</time>
      </trkpt>
      <trkpt lat="48.726690039038658" lon="9.319462040439248">
        <ele>243.83000000000001</ele>
        <time>2018-09-19T10:45:46Z</time>
      </trkpt>
      <trkpt lat="48.727109972387552" lon="9.319638982415199">
        <ele>243.34999999999999</ele>
        <time>2018-09-19T10:45:50Z</time>
      </trkpt>
      <trkpt lat="48.727222038432956" lon="9.31968298740685">
        <ele>243.34999999999999</ele>
        <time>2018-09-19T10:45:51Z</time>
      </trkpt>
      <trkpt lat="48.727332009002566" lon="9.319729004055262">
        <ele>242.87</ele>
        <time>2018-09-19T10:45:52Z</time>
      </trkpt>
      <trkpt lat="48.728401958942413" lon="9.32043400593102">
        <ele>242.38999999999999</ele>
        <time>2018-09-19T10:46:03Z</time>
      </trkpt>
      <trkpt lat="48.729901984333992" lon="9.321599006652832">
        <ele>239.99000000000001</ele>
        <time>2018-09-19T10:46:17Z</time>
      </trkpt>
      <trkpt lat="48.73116496950388" lon="9.322891999036074">
        <ele>242.87</ele>
        <time>2018-09-19T10:46:30Z</time>
      </trkpt>
      <trkpt lat="48.731215009465814" lon="9.322987971827388">
        <ele>242.87</ele>
        <time>2018-09-19T10:46:31Z</time>
      </trkpt>
      <trkpt lat="48.731262031942606" lon="9.32307698763907">
        <ele>243.34999999999999</ele>
        <time>2018-09-19T10:46:32Z</time>
      </trkpt>
      <trkpt lat="48.731296984478831" lon="9.32314395904541">
        <ele>243.34999999999999</ele>
        <time>2018-09-19T10:46:33Z</time>
      </trkpt>
      <trkpt lat="48.731301007792354" lon="9.323220988735557">
        <ele>243.34999999999999</ele>
        <time>2018-09-19T10:46:34Z</time>
      </trkpt>
      <trkpt lat="48.731307964771986" lon="9.323345040902495">
        <ele>243.34999999999999</ele>
        <time>2018-09-19T10:46:35Z</time>
      </trkpt>
      <trkpt lat="48.731318023055792" lon="9.323508990928531">
        <ele>242.87</ele>
        <time>2018-09-19T10:46:36Z</time>
      </trkpt>
      <trkpt lat="48.731297990307212" lon="9.323604963719845">
        <ele>242.87</ele>
        <time>2018-09-19T10:46:37Z</time>
      </trkpt>
      <trkpt lat="48.731125993654132" lon="9.324434017762542">
        <ele>240.94999999999999</ele>
        <time>2018-09-19T10:46:42Z</time>
      </trkpt>
      <trkpt lat="48.73069298453629" lon="9.326480040326715">
        <ele>239.50999999999999</ele>
        <time>2018-09-19T10:46:53Z</time>
      </trkpt>
      <trkpt lat="48.730274979025126" lon="9.328058017417789">
        <ele>240.47</ele>
        <time>2018-09-19T10:47:02Z</time>
      </trkpt>
      <trkpt lat="48.729923022910953" lon="9.329453017562628">
        <ele>241.91</ele>
        <time>2018-09-19T10:47:10Z</time>
      </trkpt>
      <trkpt lat="48.729881029576063" lon="9.329657033085823">
        <ele>241.91</ele>
        <time>2018-09-19T10:47:11Z</time>
      </trkpt>
      <trkpt lat="48.729713978245854" lon="9.330420037731528">
        <ele>241.91</ele>
        <time>2018-09-19T10:47:16Z</time>
      </trkpt>
      <trkpt lat="48.729686988517642" lon="9.330547023564577">
        <ele>241.91</ele>
        <time>2018-09-19T10:47:17Z</time>
      </trkpt>
      <trkpt lat="48.729679025709629" lon="9.330619024112821">
        <ele>241.91</ele>
        <time>2018-09-19T10:47:18Z</time>
      </trkpt>
      <trkpt lat="48.729671984910965" lon="9.330689013004303">
        <ele>242.38999999999999</ele>
        <time>2018-09-19T10:47:19Z</time>
      </trkpt>
      <trkpt lat="48.729666033759713" lon="9.330740980803967">
        <ele>242.38999999999999</ele>
        <time>2018-09-19T10:47:20Z</time>
      </trkpt>
      <trkpt lat="48.729663016274571" lon="9.330782974138856">
        <ele>242.38999999999999</ele>
        <time>2018-09-19T10:47:21Z</time>
      </trkpt>
      <trkpt lat="48.72965999878943" lon="9.330824967473745">
        <ele>242.87</ele>
        <time>2018-09-19T10:47:22Z</time>
      </trkpt>
      <trkpt lat="48.729654969647527" lon="9.330886993557215">
        <ele>243.34999999999999</ele>
        <time>2018-09-19T10:47:23Z</time>
      </trkpt>
      <trkpt lat="48.729649018496275" lon="9.330973997712135">
        <ele>243.83000000000001</ele>
        <time>2018-09-19T10:47:24Z</time>
      </trkpt>
      <trkpt lat="48.729633009061217" lon="9.331196034327149">
        <ele>244.78999999999999</ele>
        <time>2018-09-19T10:47:26Z</time>
      </trkpt>
      <trkpt lat="48.729624962434173" lon="9.331309022381902">
        <ele>245.27000000000001</ele>
        <time>2018-09-19T10:47:27Z</time>
      </trkpt>
      <trkpt lat="48.729635020717978" lon="9.331399966031313">
        <ele>245.75</ele>
        <time>2018-09-19T10:47:28Z</time>
      </trkpt>
      <trkpt lat="48.729655975475907" lon="9.331482024863362">
        <ele>246.22999999999999</ele>
        <time>2018-09-19T10:47:29Z</time>
      </trkpt>
      <trkpt lat="48.729672990739346" lon="9.331528963521123">
        <ele>246.22999999999999</ele>
        <time>2018-09-19T10:47:30Z</time>
      </trkpt>
      <trkpt lat="48.729686988517642" lon="9.331560982391238">
        <ele>246.72</ele>
        <time>2018-09-19T10:47:31Z</time>
      </trkpt>
      <trkpt lat="48.729698974639177" lon="9.331587972119451">
        <ele>246.72</ele>
        <time>2018-09-19T10:47:32Z</time>
      </trkpt>
      <trkpt lat="48.729710960760713" lon="9.331615967676044">
        <ele>246.72</ele>
        <time>2018-09-19T10:47:33Z</time>
      </trkpt>
      <trkpt lat="48.729722024872899" lon="9.331642035394907">
        <ele>246.72</ele>
        <time>2018-09-19T10:47:34Z</time>
      </trkpt>
      <trkpt lat="48.729736022651196" lon="9.331673970445991">
        <ele>247.19999999999999</ele>
        <time>2018-09-19T10:47:35Z</time>
      </trkpt>
      <trkpt lat="48.729816991835833" lon="9.331860970705748">
        <ele>247.68000000000001</ele>
        <time>2018-09-19T10:47:39Z</time>
      </trkpt>
      <trkpt lat="48.729848004877567" lon="9.331931965425611">
        <ele>247.68000000000001</ele>
        <time>2018-09-19T10:47:40Z</time>
      </trkpt>
      <trkpt lat="48.730146987363696" lon="9.332429012283683">
        <ele>248.63999999999999</ele>
        <time>2018-09-19T10:47:47Z</time>
      </trkpt>
      <trkpt lat="48.730481006205082" lon="9.333014991134405">
        <ele>249.59999999999999</ele>
        <time>2018-09-19T10:47:55Z</time>
      </trkpt>
      <trkpt lat="48.730535991489887" lon="9.333110963925719">
        <ele>249.12</ele>
        <time>2018-09-19T10:47:56Z</time>
      </trkpt>
      <trkpt lat="48.730598017573357" lon="9.3332190066576">
        <ele>248.63999999999999</ele>
        <time>2018-09-19T10:47:57Z</time>
      </trkpt>
      <trkpt lat="48.73101401142776" lon="9.333985028788447">
        <ele>247.68000000000001</ele>
        <time>2018-09-19T10:48:03Z</time>
      </trkpt>
      <trkpt lat="48.731058016419411" lon="9.334154007956386">
        <ele>247.68000000000001</ele>
        <time>2018-09-19T10:48:04Z</time>
      </trkpt>
      <trkpt lat="48.731324980035424" lon="9.334991024807096">
        <ele>249.59999999999999</ele>
        <time>2018-09-19T10:48:09Z</time>
      </trkpt>
      <trkpt lat="48.731390023604035" lon="9.335143994539976">
        <ele>250.56</ele>
        <time>2018-09-19T10:48:10Z</time>
      </trkpt>
      <trkpt lat="48.731475016102195" lon="9.33528296649456">
        <ele>251.03999999999999</ele>
        <time>2018-09-19T10:48:11Z</time>
      </trkpt>
      <trkpt lat="48.731982037425041" lon="9.336112020537257">
        <ele>255.37</ele>
        <time>2018-09-19T10:48:19Z</time>
      </trkpt>
      <trkpt lat="48.732074992731214" lon="9.336307989433408">
        <ele>255.84999999999999</ele>
        <time>2018-09-19T10:48:22Z</time>
      </trkpt>
      <trkpt lat="48.732132995501161" lon="9.336490966379643">
        <ele>256.81</ele>
        <time>2018-09-19T10:48:24Z</time>
      </trkpt>
      <trkpt lat="48.732427032664418" lon="9.337680023163557">
        <ele>260.64999999999998</ele>
        <time>2018-09-19T10:48:34Z</time>
      </trkpt>
      <trkpt lat="48.732816958799958" lon="9.339227993041277">
        <ele>265.94</ele>
        <time>2018-09-19T10:48:45Z</time>
      </trkpt>
      <trkpt lat="48.733277041465044" lon="9.340407997369766">
        <ele>269.79000000000002</ele>
        <time>2018-09-19T10:48:53Z</time>
      </trkpt>
      <trkpt lat="48.733357004821301" lon="9.340530959889293">
        <ele>270.26999999999998</ele>
        <time>2018-09-19T10:48:54Z</time>
      </trkpt>
      <trkpt lat="48.733530007302761" lon="9.340773029252887">
        <ele>270.75</ele>
        <time>2018-09-19T10:48:56Z</time>
      </trkpt>
      <trkpt lat="48.733632015064359" lon="9.340890040621162">
        <ele>271.23000000000002</ele>
        <time>2018-09-19T10:48:57Z</time>
      </trkpt>
      <trkpt lat="48.733948012813926" lon="9.341263035312295">
        <ele>273.63</ele>
        <time>2018-09-19T10:49:00Z</time>
      </trkpt>
      <trkpt lat="48.734009033069015" lon="9.341436037793756">
        <ele>275.06999999999999</ele>
        <time>2018-09-19T10:49:01Z</time>
      </trkpt>
      <trkpt lat="48.734072986990213" lon="9.341617003083229">
        <ele>275.56</ele>
        <time>2018-09-19T10:49:02Z</time>
      </trkpt>
      <trkpt lat="48.734137024730444" lon="9.341799980029464">
        <ele>276.51999999999998</ele>
        <time>2018-09-19T10:49:03Z</time>
      </trkpt>
      <trkpt lat="48.734174994751811" lon="9.34198496863246">
        <ele>277.48000000000002</ele>
        <time>2018-09-19T10:49:04Z</time>
      </trkpt>
      <trkpt lat="48.734182035550475" lon="9.342190995812416">
        <ele>278.44</ele>
        <time>2018-09-19T10:49:05Z</time>
      </trkpt>
      <trkpt lat="48.734188992530107" lon="9.342396017163992">
        <ele>279.39999999999998</ele>
        <time>2018-09-19T10:49:06Z</time>
      </trkpt>
      <trkpt lat="48.734178012236953" lon="9.342589974403381">
        <ele>280.36000000000001</ele>
        <time>2018-09-19T10:49:07Z</time>
      </trkpt>
      <trkpt lat="48.734136018902063" lon="9.342784015461803">
        <ele>281.31999999999999</ele>
        <time>2018-09-19T10:49:08Z</time>
      </trkpt>
      <trkpt lat="48.734096037223935" lon="9.34297101572156">
        <ele>282.27999999999997</ele>
        <time>2018-09-19T10:49:09Z</time>
      </trkpt>
      <trkpt lat="48.734030993655324" lon="9.34312398545444">
        <ele>283.73000000000002</ele>
        <time>2018-09-19T10:49:10Z</time>
      </trkpt>
      <trkpt lat="48.733956981450319" lon="9.343271004036069">
        <ele>284.69</ele>
        <time>2018-09-19T10:49:11Z</time>
      </trkpt>
      <trkpt lat="48.733863020315766" lon="9.343350967392325">
        <ele>285.64999999999998</ele>
        <time>2018-09-19T10:49:12Z</time>
      </trkpt>
      <trkpt lat="48.733765035867691" lon="9.343434032052755">
        <ele>286.61000000000001</ele>
        <time>2018-09-19T10:49:13Z</time>
      </trkpt>
      <trkpt lat="48.733663028106093" lon="9.343513995409012">
        <ele>287.56999999999999</ele>
        <time>2018-09-19T10:49:14Z</time>
      </trkpt>
      <trkpt lat="48.733547022566199" lon="9.343562023714185">
        <ele>288.05000000000001</ele>
        <time>2018-09-19T10:49:15Z</time>
      </trkpt>
      <trkpt lat="48.733422970399261" lon="9.343613991513848">
        <ele>289.00999999999999</ele>
        <time>2018-09-19T10:49:16Z</time>
      </trkpt>
      <trkpt lat="48.732586037367582" lon="9.343991009518504">
        <ele>295.74000000000001</ele>
        <time>2018-09-19T10:49:23Z</time>
      </trkpt>
      <trkpt lat="48.732505990192294" lon="9.344041971489787">
        <ele>296.22000000000003</ele>
        <time>2018-09-19T10:49:24Z</time>
      </trkpt>
      <trkpt lat="48.732437007129192" lon="9.344136016443372">
        <ele>297.18000000000001</ele>
        <time>2018-09-19T10:49:25Z</time>
      </trkpt>
      <trkpt lat="48.732369029894471" lon="9.344228971749544">
        <ele>297.67000000000002</ele>
        <time>2018-09-19T10:49:26Z</time>
      </trkpt>
      <trkpt lat="48.732339022681117" lon="9.344381019473076">
        <ele>298.14999999999998</ele>
        <time>2018-09-19T10:49:27Z</time>
      </trkpt>
      <trkpt lat="48.732328964397311" lon="9.344529965892434">
        <ele>299.11000000000001</ele>
        <time>2018-09-19T10:49:28Z</time>
      </trkpt>
      <trkpt lat="48.732354026287794" lon="9.344677990302444">
        <ele>299.58999999999997</ele>
        <time>2018-09-19T10:49:29Z</time>
      </trkpt>
      <trkpt lat="48.732386967167258" lon="9.344819979742169">
        <ele>300.06999999999999</ele>
        <time>2018-09-19T10:49:30Z</time>
      </trkpt>
      <trkpt lat="48.732472965493798" lon="9.344919975847006">
        <ele>300.55000000000001</ele>
        <time>2018-09-19T10:49:31Z</time>
      </trkpt>
      <trkpt lat="48.732558963820338" lon="9.345005974173546">
        <ele>301.02999999999997</ele>
        <time>2018-09-19T10:49:32Z</time>
      </trkpt>
      <trkpt lat="48.732657032087445" lon="9.345031036064029">
        <ele>301.50999999999999</ele>
        <time>2018-09-19T10:49:33Z</time>
      </trkpt>
      <trkpt lat="48.732764991000295" lon="9.345031036064029">
        <ele>302.47000000000003</ele>
        <time>2018-09-19T10:49:34Z</time>
      </trkpt>
      <trkpt lat="48.732885019853711" lon="9.345017960295081">
        <ele>302.94999999999999</ele>
        <time>2018-09-19T10:49:35Z</time>
      </trkpt>
      <trkpt lat="48.733029020950198" lon="9.344976972788572">
        <ele>303.91000000000003</ele>
        <time>2018-09-19T10:49:36Z</time>
      </trkpt>
      <trkpt lat="48.733812980353832" lon="9.344819979742169">
        <ele>308.24000000000001</ele>
        <time>2018-09-19T10:49:40Z</time>
      </trkpt>
      <trkpt lat="48.73408799059689" lon="9.344785027205944">
        <ele>310.16000000000003</ele>
        <time>2018-09-19T10:49:42Z</time>
      </trkpt>
      <trkpt lat="48.73419402167201" lon="9.344838000833988">
        <ele>310.63999999999999</ele>
        <time>2018-09-19T10:49:43Z</time>
      </trkpt>
      <trkpt lat="48.734283037483692" lon="9.344943026080728">
        <ele>311.12</ele>
        <time>2018-09-19T10:49:44Z</time>
      </trkpt>
      <trkpt lat="48.734347997233272" lon="9.345075041055679">
        <ele>311.60000000000002</ele>
        <time>2018-09-19T10:49:45Z</time>
      </trkpt>
      <trkpt lat="48.734376998618245" lon="9.345232034102082">
        <ele>312.08999999999997</ele>
        <time>2018-09-19T10:49:46Z</time>
      </trkpt>
      <trkpt lat="48.734404994174838" lon="9.345405036583543">
        <ele>313.05000000000001</ele>
        <time>2018-09-19T10:49:47Z</time>
      </trkpt>
      <trkpt lat="48.734361995011568" lon="9.345549959689379">
        <ele>313.52999999999997</ele>
        <time>2018-09-19T10:49:48Z</time>
      </trkpt>
      <trkpt lat="48.734296029433608" lon="9.345685997977853">
        <ele>314.49000000000001</ele>
        <time>2018-09-19T10:49:49Z</time>
      </trkpt>
      <trkpt lat="48.734210031107068" lon="9.345804015174508">
        <ele>315.44999999999999</ele>
        <time>2018-09-19T10:49:50Z</time>
      </trkpt>
      <trkpt lat="48.734102994203568" lon="9.345891019329429">
        <ele>316.88999999999999</ele>
        <time>2018-09-19T10:49:51Z</time>
      </trkpt>
      <trkpt lat="48.733992017805576" lon="9.34598196297884">
        <ele>317.37</ele>
        <time>2018-09-19T10:49:52Z</time>
      </trkpt>
      <trkpt lat="48.733882969245315" lon="9.346070978790522">
        <ele>318.32999999999998</ele>
        <time>2018-09-19T10:49:53Z</time>
      </trkpt>
      <trkpt lat="48.73376403003931" lon="9.346168041229248">
        <ele>319.77999999999997</ele>
        <time>2018-09-19T10:49:54Z</time>
      </trkpt>
      <trkpt lat="48.733709966763854" lon="9.346311958506703">
        <ele>320.74000000000001</ele>
        <time>2018-09-19T10:49:55Z</time>
      </trkpt>
      <trkpt lat="48.733691023662686" lon="9.34649895876646">
        <ele>321.69999999999999</ele>
        <time>2018-09-19T10:49:56Z</time>
      </trkpt>
      <trkpt lat="48.7336799595505" lon="9.346684031188488">
        <ele>322.66000000000003</ele>
        <time>2018-09-19T10:49:57Z</time>
      </trkpt>
      <trkpt lat="48.73367803171277" lon="9.346876982599497">
        <ele>323.62</ele>
        <time>2018-09-19T10:49:58Z</time>
      </trkpt>
      <trkpt lat="48.733719019219279" lon="9.347939975559712">
        <ele>327.94999999999999</ele>
        <time>2018-09-19T10:50:03Z</time>
      </trkpt>
      <trkpt lat="48.733754977583885" lon="9.348161006346345">
        <ele>328.91000000000003</ele>
        <time>2018-09-19T10:50:04Z</time>
      </trkpt>
      <trkpt lat="48.733799988403916" lon="9.34838698245585">
        <ele>330.35000000000002</ele>
        <time>2018-09-19T10:50:05Z</time>
      </trkpt>
      <trkpt lat="48.73385002836585" lon="9.348636008799076">
        <ele>331.31</ele>
        <time>2018-09-19T10:50:06Z</time>
      </trkpt>
      <trkpt lat="48.733937032520771" lon="9.348841030150652">
        <ele>332.75</ele>
        <time>2018-09-19T10:50:07Z</time>
      </trkpt>
      <trkpt lat="48.734905980527401" lon="9.351080004125834">
        <ele>344.76999999999998</ele>
        <time>2018-09-19T10:50:17Z</time>
      </trkpt>
      <trkpt lat="48.735432028770447" lon="9.352338965982199">
        <ele>352.94</ele>
        <time>2018-09-19T10:50:24Z</time>
      </trkpt>
      <trkpt lat="48.735900996252894" lon="9.353953991085291">
        <ele>361.11000000000001</ele>
        <time>2018-09-19T10:50:34Z</time>
      </trkpt>
      <trkpt lat="48.736035022884607" lon="9.354672990739346">
        <ele>364.48000000000002</ele>
        <time>2018-09-19T10:50:38Z</time>
      </trkpt>
      <trkpt lat="48.736081961542368" lon="9.356939038261771">
        <ele>372.17000000000002</ele>
        <time>2018-09-19T10:50:50Z</time>
      </trkpt>
      <trkpt lat="48.735931003466249" lon="9.359242971986532">
        <ele>376.97000000000003</ele>
        <time>2018-09-19T10:51:02Z</time>
      </trkpt>
      <trkpt lat="48.735931003466249" lon="9.359470959752798">
        <ele>376.97000000000003</ele>
        <time>2018-09-19T10:51:03Z</time>
      </trkpt>
      <trkpt lat="48.735935026779771" lon="9.359703976660967">
        <ele>377.44999999999999</ele>
        <time>2018-09-19T10:51:04Z</time>
      </trkpt>
      <trkpt lat="48.736078022047877" lon="9.36069899238646">
        <ele>379.86000000000001</ele>
        <time>2018-09-19T10:51:08Z</time>
      </trkpt>
      <trkpt lat="48.736157985404134" lon="9.360923040658236">
        <ele>380.33999999999997</ele>
        <time>2018-09-19T10:51:09Z</time>
      </trkpt>
      <trkpt lat="48.736238032579422" lon="9.361138036474586">
        <ele>380.81999999999999</ele>
        <time>2018-09-19T10:51:10Z</time>
      </trkpt>
      <trkpt lat="48.736325036734343" lon="9.361328976228833">
        <ele>381.30000000000001</ele>
        <time>2018-09-19T10:51:11Z</time>
      </trkpt>
      <trkpt lat="48.736444981768727" lon="9.361458979547024">
        <ele>381.77999999999997</ele>
        <time>2018-09-19T10:51:12Z</time>
      </trkpt>
      <trkpt lat="48.736583031713963" lon="9.361551012843847">
        <ele>382.74000000000001</ele>
        <time>2018-09-19T10:51:13Z</time>
      </trkpt>
      <trkpt lat="48.736746981739998" lon="9.361660983413458">
        <ele>383.69999999999999</ele>
        <time>2018-09-19T10:51:14Z</time>
      </trkpt>
      <trkpt lat="48.736891988664865" lon="9.361694008111954">
        <ele>385.14999999999998</ele>
        <time>2018-09-19T10:51:15Z</time>
      </trkpt>
      <trkpt lat="48.738456973806024" lon="9.362285016104579">
        <ele>394.75999999999999</ele>
        <time>2018-09-19T10:51:24Z</time>
      </trkpt>
      <trkpt lat="48.739426005631685" lon="9.362922962754965">
        <ele>400.05000000000001</ele>
        <time>2018-09-19T10:51:30Z</time>
      </trkpt>
      <trkpt lat="48.739564977586269" lon="9.363063024356961">
        <ele>401.49000000000001</ele>
        <time>2018-09-19T10:51:31Z</time>
      </trkpt>
      <trkpt lat="48.73969498090446" lon="9.3632320035249">
        <ele>402.44999999999999</ele>
        <time>2018-09-19T10:51:32Z</time>
      </trkpt>
      <trkpt lat="48.739810986444354" lon="9.363433001562953">
        <ele>403.88999999999999</ele>
        <time>2018-09-19T10:51:33Z</time>
      </trkpt>
      <trkpt lat="48.739895978942513" lon="9.36368303373456">
        <ele>404.85000000000002</ele>
        <time>2018-09-19T10:51:34Z</time>
      </trkpt>
      <trkpt lat="48.739981977269053" lon="9.363942034542561">
        <ele>406.29000000000002</ele>
        <time>2018-09-19T10:51:35Z</time>
      </trkpt>
      <trkpt lat="48.740074010565877" lon="9.364216960966587">
        <ele>407.25999999999999</ele>
        <time>2018-09-19T10:51:36Z</time>
      </trkpt>
      <trkpt lat="48.740730984136462" lon="9.367006961256266">
        <ele>417.35000000000002</ele>
        <time>2018-09-19T10:51:45Z</time>
      </trkpt>
      <trkpt lat="48.741164999082685" lon="9.369311984628439">
        <ele>425.04000000000002</ele>
        <time>2018-09-19T10:51:52Z</time>
      </trkpt>
      <trkpt lat="48.741210009902716" lon="9.369642985984683">
        <ele>426</ele>
        <time>2018-09-19T10:51:53Z</time>
      </trkpt>
      <trkpt lat="48.741210009902716" lon="9.36997801065445">
        <ele>426.48000000000002</ele>
        <time>2018-09-19T10:51:54Z</time>
      </trkpt>
      <trkpt lat="48.741167010739446" lon="9.370307000353932">
        <ele>427.44</ele>
        <time>2018-09-19T10:51:55Z</time>
      </trkpt>
      <trkpt lat="48.741016974672675" lon="9.371274020522833">
        <ele>430.81</ele>
        <time>2018-09-19T10:51:58Z</time>
      </trkpt>
      <trkpt lat="48.740937011316419" lon="9.371575014665723">
        <ele>431.76999999999998</ele>
        <time>2018-09-19T10:51:59Z</time>
      </trkpt>
      <trkpt lat="48.740860987454653" lon="9.371866034343839">
        <ele>433.20999999999998</ele>
        <time>2018-09-19T10:52:00Z</time>
      </trkpt>
      <trkpt lat="48.740784963592887" lon="9.372136015444994">
        <ele>434.64999999999998</ele>
        <time>2018-09-19T10:52:01Z</time>
      </trkpt>
      <trkpt lat="48.740692008286715" lon="9.372383030131459">
        <ele>435.61000000000001</ele>
        <time>2018-09-19T10:52:02Z</time>
      </trkpt>
      <trkpt lat="48.740613972768188" lon="9.372631972655654">
        <ele>436.57999999999998</ele>
        <time>2018-09-19T10:52:03Z</time>
      </trkpt>
      <trkpt lat="48.740540966391563" lon="9.372877981513739">
        <ele>438.01999999999998</ele>
        <time>2018-09-19T10:52:04Z</time>
      </trkpt>
      <trkpt lat="48.740467960014939" lon="9.373122984543443">
        <ele>438.98000000000002</ele>
        <time>2018-09-19T10:52:05Z</time>
      </trkpt>
      <trkpt lat="48.740395959466696" lon="9.373363964259625">
        <ele>440.42000000000002</ele>
        <time>2018-09-19T10:52:06Z</time>
      </trkpt>
      <trkpt lat="48.740356983616948" lon="9.373615002259612">
        <ele>441.86000000000001</ele>
        <time>2018-09-19T10:52:07Z</time>
      </trkpt>
      <trkpt lat="48.740204013884068" lon="9.375467989593744">
        <ele>450.02999999999997</ele>
        <time>2018-09-19T10:52:15Z</time>
      </trkpt>
      <trkpt lat="48.740321025252342" lon="9.378194035962224">
        <ele>457.72000000000003</ele>
        <time>2018-09-19T10:52:27Z</time>
      </trkpt>
      <trkpt lat="48.740401994436979" lon="9.380717994645238">
        <ele>458.20999999999998</ele>
        <time>2018-09-19T10:52:36Z</time>
      </trkpt>
      <trkpt lat="48.740206025540829" lon="9.383001979440451">
        <ele>455.80000000000001</ele>
        <time>2018-09-19T10:52:42Z</time>
      </trkpt>
      <trkpt lat="48.739521978422999" lon="9.385346984490752">
        <ele>452.92000000000002</ele>
        <time>2018-09-19T10:52:48Z</time>
      </trkpt>
      <trkpt lat="48.738310039043427" lon="9.38774898648262">
        <ele>449.55000000000001</ele>
        <time>2018-09-19T10:52:55Z</time>
      </trkpt>
      <trkpt lat="48.737284010276198" lon="9.390092985704541">
        <ele>446.19</ele>
        <time>2018-09-19T10:53:02Z</time>
      </trkpt>
      <trkpt lat="48.737177979201078" lon="9.390462040901184">
        <ele>445.70999999999998</ele>
        <time>2018-09-19T10:53:03Z</time>
      </trkpt>
      <trkpt lat="48.73711695894599" lon="9.390856996178627">
        <ele>445.23000000000002</ele>
        <time>2018-09-19T10:53:04Z</time>
      </trkpt>
      <trkpt lat="48.73707203194499" lon="9.391262009739876">
        <ele>444.75</ele>
        <time>2018-09-19T10:53:05Z</time>
      </trkpt>
      <trkpt lat="48.736947979778051" lon="9.394167009741068">
        <ele>440.89999999999998</ele>
        <time>2018-09-19T10:53:12Z</time>
      </trkpt>
      <trkpt lat="48.736570039764047" lon="9.396585021167994">
        <ele>437.54000000000002</ele>
        <time>2018-09-19T10:53:18Z</time>
      </trkpt>
      <trkpt lat="48.735701004043221" lon="9.399924958124757">
        <ele>436.10000000000002</ele>
        <time>2018-09-19T10:53:27Z</time>
      </trkpt>
      <trkpt lat="48.735625986009836" lon="9.402297036722302">
        <ele>436.10000000000002</ele>
        <time>2018-09-19T10:53:33Z</time>
      </trkpt>
      <trkpt lat="48.735742997378111" lon="9.403070015832782">
        <ele>436.57999999999998</ele>
        <time>2018-09-19T10:53:35Z</time>
      </trkpt>
      <trkpt lat="48.736309027299285" lon="9.405087037011981">
        <ele>438.98000000000002</ele>
        <time>2018-09-19T10:53:41Z</time>
      </trkpt>
      <trkpt lat="48.73703096061945" lon="9.406646993011236">
        <ele>441.86000000000001</ele>
        <time>2018-09-19T10:53:48Z</time>
      </trkpt>
      <trkpt lat="48.737891027703881" lon="9.408194040879607">
        <ele>443.79000000000002</ele>
        <time>2018-09-19T10:53:57Z</time>
      </trkpt>
      <trkpt lat="48.738119015470147" lon="9.408628977835178">
        <ele>444.75</ele>
        <time>2018-09-19T10:54:01Z</time>
      </trkpt>
      <trkpt lat="48.738388996571302" lon="9.409080008044839">
        <ele>444.75</ele>
        <time>2018-09-19T10:54:10Z</time>
      </trkpt>
      <trkpt lat="48.738388996571302" lon="9.409080008044839">
        <ele>444.75</ele>
        <time>2018-09-19T10:54:38Z</time>
      </trkpt>
      <trkpt lat="48.738392014056444" lon="9.409085959196091">
        <ele>444.75</ele>
        <time>2018-09-19T10:54:45Z</time>
      </trkpt>
      <trkpt lat="48.738430989906192" lon="9.409151002764702">
        <ele>445.23000000000002</ele>
        <time>2018-09-19T10:54:46Z</time>
      </trkpt>
      <trkpt lat="48.738841032609344" lon="9.409849969670177">
        <ele>446.19</ele>
        <time>2018-09-19T10:54:52Z</time>
      </trkpt>
      <trkpt lat="48.739585010334849" lon="9.411286041140556">
        <ele>447.14999999999998</ele>
        <time>2018-09-19T10:54:59Z</time>
      </trkpt>
      <trkpt lat="48.740288000553846" lon="9.41342300735414">
        <ele>445.70999999999998</ele>
        <time>2018-09-19T10:55:08Z</time>
      </trkpt>
      <trkpt lat="48.740716986358166" lon="9.416093984618783">
        <ele>443.79000000000002</ele>
        <time>2018-09-19T10:55:18Z</time>
      </trkpt>
      <trkpt lat="48.74121998436749" lon="9.419898027554154">
        <ele>445.70999999999998</ele>
        <time>2018-09-19T10:55:31Z</time>
      </trkpt>
      <trkpt lat="48.741677971556783" lon="9.423424964770675">
        <ele>451.95999999999998</ele>
        <time>2018-09-19T10:55:43Z</time>
      </trkpt>
      <trkpt lat="48.742242995649576" lon="9.427568977698684">
        <ele>458.69</ele>
        <time>2018-09-19T10:55:57Z</time>
      </trkpt>
      <trkpt lat="48.742692014202476" lon="9.430756028741598">
        <ele>460.61000000000001</ele>
        <time>2018-09-19T10:56:07Z</time>
      </trkpt>
      <trkpt lat="48.743447978049517" lon="9.434415986761451">
        <ele>458.20999999999998</ele>
        <time>2018-09-19T10:56:18Z</time>
      </trkpt>
      <trkpt lat="48.744467971846461" lon="9.43688303232193">
        <ele>454.36000000000001</ele>
        <time>2018-09-19T10:56:25Z</time>
      </trkpt>
      <trkpt lat="48.745268024504185" lon="9.438812965527177">
        <ele>452.44</ele>
        <time>2018-09-19T10:56:32Z</time>
      </trkpt>
      <trkpt lat="48.746057013049722" lon="9.440392032265663">
        <ele>455.80000000000001</ele>
        <time>2018-09-19T10:56:40Z</time>
      </trkpt>
      <trkpt lat="48.746660007163882" lon="9.441140033304691">
        <ele>458.20999999999998</ele>
        <time>2018-09-19T10:56:46Z</time>
      </trkpt>
      <trkpt lat="48.746704012155533" lon="9.441172974184156">
        <ele>458.20999999999998</ele>
        <time>2018-09-19T10:56:47Z</time>
      </trkpt>
      <trkpt lat="48.746746005490422" lon="9.44120398722589">
        <ele>458.69</ele>
        <time>2018-09-19T10:56:48Z</time>
      </trkpt>
      <trkpt lat="48.746884977445006" lon="9.441122012212873">
        <ele>459.17000000000002</ele>
        <time>2018-09-19T10:56:49Z</time>
      </trkpt>
      <trkpt lat="48.746979022398591" lon="9.441155958920717">
        <ele>459.17000000000002</ele>
        <time>2018-09-19T10:56:50Z</time>
      </trkpt>
      <trkpt lat="48.747088992968202" lon="9.441196024417877">
        <ele>459.64999999999998</ele>
        <time>2018-09-19T10:56:51Z</time>
      </trkpt>
      <trkpt lat="48.747211033478379" lon="9.441240029409528">
        <ele>459.64999999999998</ele>
        <time>2018-09-19T10:56:52Z</time>
      </trkpt>
      <trkpt lat="48.748234966769814" lon="9.441559966653585">
        <ele>459.17000000000002</ele>
        <time>2018-09-19T10:57:00Z</time>
      </trkpt>
      <trkpt lat="48.749346993863583" lon="9.441927010193467">
        <ele>458.69</ele>
        <time>2018-09-19T10:57:09Z</time>
      </trkpt>
      <trkpt lat="48.749696016311646" lon="9.44212599657476">
        <ele>458.20999999999998</ele>
        <time>2018-09-19T10:57:12Z</time>
      </trkpt>
      <trkpt lat="48.75086797401309" lon="9.443199969828129">
        <ele>452.44</ele>
        <time>2018-09-19T10:57:23Z</time>
      </trkpt>
      <trkpt lat="48.752217041328549" lon="9.444578960537911">
        <ele>444.75</ele>
        <time>2018-09-19T10:57:36Z</time>
      </trkpt>
      <trkpt lat="48.753235023468733" lon="9.445044994354248">
        <ele>441.38</ele>
        <time>2018-09-19T10:57:43Z</time>
      </trkpt>
      <trkpt lat="48.755451031029224" lon="9.445537012070417">
        <ele>440.89999999999998</ele>
        <time>2018-09-19T10:57:55Z</time>
      </trkpt>
      <trkpt lat="48.75647496432066" lon="9.445806993171573">
        <ele>440.89999999999998</ele>
        <time>2018-09-19T10:58:03Z</time>
      </trkpt>
      <trkpt lat="48.756775036454201" lon="9.445949988439679">
        <ele>439.45999999999998</ele>
        <time>2018-09-19T10:58:07Z</time>
      </trkpt>
      <trkpt lat="48.756876038387418" lon="9.446001034229994">
        <ele>438.5</ele>
        <time>2018-09-19T10:58:09Z</time>
      </trkpt>
      <trkpt lat="48.756895987316966" lon="9.446203960105777">
        <ele>438.5</ele>
        <time>2018-09-19T10:58:10Z</time>
      </trkpt>
      <trkpt lat="48.756957007572055" lon="9.44629498757422">
        <ele>437.54000000000002</ele>
        <time>2018-09-19T10:58:13Z</time>
      </trkpt>
      <trkpt lat="48.757025990635157" lon="9.446333041414619">
        <ele>437.54000000000002</ele>
        <time>2018-09-19T10:58:14Z</time>
      </trkpt>
      <trkpt lat="48.757073013111949" lon="9.446333041414619">
        <ele>437.54000000000002</ele>
        <time>2018-09-19T10:58:15Z</time>
      </trkpt>
      <trkpt lat="48.757125986739993" lon="9.446333041414619">
        <ele>437.06</ele>
        <time>2018-09-19T10:58:16Z</time>
      </trkpt>
      <trkpt lat="48.757132021710277" lon="9.446333041414619">
        <ele>437.06</ele>
        <time>2018-09-19T10:58:17Z</time>
      </trkpt>
      <trkpt lat="48.757249033078551" lon="9.446184011176229">
        <ele>437.06</ele>
        <time>2018-09-19T10:58:18Z</time>
      </trkpt>
      <trkpt lat="48.757313992828131" lon="9.446212006732822">
        <ele>437.06</ele>
        <time>2018-09-19T10:58:19Z</time>
      </trkpt>
      <trkpt lat="48.757386999204755" lon="9.446243019774556">
        <ele>437.06</ele>
        <time>2018-09-19T10:58:20Z</time>
      </trkpt>
      <trkpt lat="48.75746201723814" lon="9.446275038644671">
        <ele>436.57999999999998</ele>
        <time>2018-09-19T10:58:21Z</time>
      </trkpt>
      <trkpt lat="48.758138017728925" lon="9.446566980332136">
        <ele>438.5</ele>
        <time>2018-09-19T10:58:26Z</time>
      </trkpt>
      <trkpt lat="48.759625973179936" lon="9.447383964434266">
        <ele>445.23000000000002</ele>
        <time>2018-09-19T10:58:33Z</time>
      </trkpt>
      <trkpt lat="48.760844031348825" lon="9.448346961289644">
        <ele>454.36000000000001</ele>
        <time>2018-09-19T10:58:40Z</time>
      </trkpt>
      <trkpt lat="48.761661015450954" lon="9.449215997010469">
        <ele>462.52999999999997</ele>
        <time>2018-09-19T10:58:48Z</time>
      </trkpt>
      <trkpt lat="48.761941976845264" lon="9.44964699447155">
        <ele>465.42000000000002</ele>
        <time>2018-09-19T10:58:52Z</time>
      </trkpt>
      <trkpt lat="48.762267027050257" lon="9.450212018564344">
        <ele>468.30000000000001</ele>
        <time>2018-09-19T10:58:58Z</time>
      </trkpt>
      <trkpt lat="48.762196032330394" lon="9.450388038530946">
        <ele>468.77999999999997</ele>
        <time>2018-09-19T10:58:59Z</time>
      </trkpt>
      <trkpt lat="48.762196032330394" lon="9.450442017987371">
        <ele>468.77999999999997</ele>
        <time>2018-09-19T10:59:00Z</time>
      </trkpt>
      <trkpt lat="48.762245988473296" lon="9.450619965791702">
        <ele>468.77999999999997</ele>
        <time>2018-09-19T10:59:01Z</time>
      </trkpt>
      <trkpt lat="48.762302985414863" lon="9.450688026845455">
        <ele>468.77999999999997</ele>
        <time>2018-09-19T10:59:02Z</time>
      </trkpt>
      <trkpt lat="48.762426031753421" lon="9.450782993808389">
        <ele>468.77999999999997</ele>
        <time>2018-09-19T10:59:03Z</time>
      </trkpt>
      <trkpt lat="48.762453021481633" lon="9.450945015996695">
        <ele>468.77999999999997</ele>
        <time>2018-09-19T10:59:04Z</time>
      </trkpt>
      <trkpt lat="48.762481017038226" lon="9.451115000993013">
        <ele>468.77999999999997</ele>
        <time>2018-09-19T10:59:05Z</time>
      </trkpt>
      <trkpt lat="48.763071019202471" lon="9.453333020210266">
        <ele>475.02999999999997</ele>
        <time>2018-09-19T10:59:18Z</time>
      </trkpt>
      <trkpt lat="48.763738973066211" lon="9.454369023442268">
        <ele>476.47000000000003</ele>
        <time>2018-09-19T10:59:26Z</time>
      </trkpt>
      <trkpt lat="48.763697985559702" lon="9.454615032300353">
        <ele>476.94999999999999</ele>
        <time>2018-09-19T10:59:27Z</time>
      </trkpt>
      <trkpt lat="48.763731010258198" lon="9.454699018970132">
        <ele>477.43000000000001</ele>
        <time>2018-09-19T10:59:28Z</time>
      </trkpt>
      <trkpt lat="48.763839974999428" lon="9.454778982326388">
        <ele>477.91000000000003</ele>
        <time>2018-09-19T10:59:29Z</time>
      </trkpt>
      <trkpt lat="48.763891020789742" lon="9.454807983711362">
        <ele>478.38999999999999</ele>
        <time>2018-09-19T10:59:30Z</time>
      </trkpt>
      <trkpt lat="48.76408196054399" lon="9.454784011468291">
        <ele>478.38999999999999</ele>
        <time>2018-09-19T10:59:31Z</time>
      </trkpt>
      <trkpt lat="48.764157984405756" lon="9.454901022836566">
        <ele>478.87</ele>
        <time>2018-09-19T10:59:32Z</time>
      </trkpt>
      <trkpt lat="48.764284970238805" lon="9.455001018941402">
        <ele>478.87</ele>
        <time>2018-09-19T10:59:33Z</time>
      </trkpt>
      <trkpt lat="48.764428971335292" lon="9.455115012824535">
        <ele>479.35000000000002</ele>
        <time>2018-09-19T10:59:34Z</time>
      </trkpt>
      <trkpt lat="48.764594011008739" lon="9.455185001716018">
        <ele>479.35000000000002</ele>
        <time>2018-09-19T10:59:35Z</time>
      </trkpt>
      <trkpt lat="48.764776987954974" lon="9.455252978950739">
        <ele>478.87</ele>
        <time>2018-09-19T10:59:36Z</time>
      </trkpt>
      <trkpt lat="48.764973040670156" lon="9.455273011699319">
        <ele>478.87</ele>
        <time>2018-09-19T10:59:37Z</time>
      </trkpt>
      <trkpt lat="48.765180995687842" lon="9.455257002264261">
        <ele>478.87</ele>
        <time>2018-09-19T10:59:38Z</time>
      </trkpt>
      <trkpt lat="48.765394985675812" lon="9.45521199144423">
        <ele>478.87</ele>
        <time>2018-09-19T10:59:39Z</time>
      </trkpt>
      <trkpt lat="48.767609987407923" lon="9.454745035618544">
        <ele>474.55000000000001</ele>
        <time>2018-09-19T10:59:48Z</time>
      </trkpt>
      <trkpt lat="48.76908796839416" lon="9.454798009246588">
        <ele>471.66000000000003</ele>
        <time>2018-09-19T10:59:54Z</time>
      </trkpt>
      <trkpt lat="48.769316961988807" lon="9.454907979816198">
        <ele>471.18000000000001</ele>
        <time>2018-09-19T10:59:55Z</time>
      </trkpt>
      <trkpt lat="48.76953799277544" lon="9.45505902171135">
        <ele>470.69999999999999</ele>
        <time>2018-09-19T10:59:56Z</time>
      </trkpt>
      <trkpt lat="48.769757011905313" lon="9.45523101836443">
        <ele>469.74000000000001</ele>
        <time>2018-09-19T10:59:57Z</time>
      </trkpt>
      <trkpt lat="48.769974019378424" lon="9.455419024452567">
        <ele>468.77999999999997</ele>
        <time>2018-09-19T10:59:58Z</time>
      </trkpt>
      <trkpt lat="48.770194966346025" lon="9.455609964206815">
        <ele>467.81999999999999</ele>
        <time>2018-09-19T10:59:59Z</time>
      </trkpt>
      <trkpt lat="48.772378033027053" lon="9.457780038937926">
        <ele>457.72000000000003</ele>
        <time>2018-09-19T11:00:09Z</time>
      </trkpt>
      <trkpt lat="48.77424200065434" lon="9.459226001054049">
        <ele>456.27999999999997</ele>
        <time>2018-09-19T11:00:17Z</time>
      </trkpt>
      <trkpt lat="48.776395982131362" lon="9.460588982328773">
        <ele>456.75999999999999</ele>
        <time>2018-09-19T11:00:26Z</time>
      </trkpt>
      <trkpt lat="48.777566011995077" lon="9.461429016664624">
        <ele>455.80000000000001</ele>
        <time>2018-09-19T11:00:33Z</time>
      </trkpt>
      <trkpt lat="48.777948981150985" lon="9.461782984435558">
        <ele>456.27999999999997</ele>
        <time>2018-09-19T11:00:36Z</time>
      </trkpt>
      <trkpt lat="48.778061969205737" lon="9.461925979703665">
        <ele>456.75999999999999</ele>
        <time>2018-09-19T11:00:37Z</time>
      </trkpt>
      <trkpt lat="48.778160959482193" lon="9.462090013548732">
        <ele>456.75999999999999</ele>
        <time>2018-09-19T11:00:38Z</time>
      </trkpt>
      <trkpt lat="48.778248969465494" lon="9.46227902546525">
        <ele>456.75999999999999</ele>
        <time>2018-09-19T11:00:39Z</time>
      </trkpt>
      <trkpt lat="48.778315018862486" lon="9.462508019059897">
        <ele>456.27999999999997</ele>
        <time>2018-09-19T11:00:40Z</time>
      </trkpt>
      <trkpt lat="48.778373021632433" lon="9.462746987119317">
        <ele>456.27999999999997</ele>
        <time>2018-09-19T11:00:41Z</time>
      </trkpt>
      <trkpt lat="48.778772000223398" lon="9.464570973068476">
        <ele>451.95999999999998</ele>
        <time>2018-09-19T11:00:48Z</time>
      </trkpt>
      <trkpt lat="48.778905021026731" lon="9.465229036286473">
        <ele>449.55000000000001</ele>
        <time>2018-09-19T11:00:51Z</time>
      </trkpt>
      <trkpt lat="48.778962017968297" lon="9.465359039604664">
        <ele>448.11000000000001</ele>
        <time>2018-09-19T11:00:52Z</time>
      </trkpt>
      <trkpt lat="48.779017003253102" lon="9.465442020446062">
        <ele>447.14999999999998</ele>
        <time>2018-09-19T11:00:53Z</time>
      </trkpt>
      <trkpt lat="48.779093027114868" lon="9.465487031266093">
        <ele>446.67000000000002</ele>
        <time>2018-09-19T11:00:54Z</time>
      </trkpt>
      <trkpt lat="48.779165027663112" lon="9.465466998517513">
        <ele>446.19</ele>
        <time>2018-09-19T11:00:55Z</time>
      </trkpt>
      <trkpt lat="48.779256977140903" lon="9.465426011011004">
        <ele>445.70999999999998</ele>
        <time>2018-09-19T11:00:56Z</time>
      </trkpt>
      <trkpt lat="48.779338030144572" lon="9.465344035997987">
        <ele>445.23000000000002</ele>
        <time>2018-09-19T11:00:57Z</time>
      </trkpt>
      <trkpt lat="48.779410030692816" lon="9.465211015194655">
        <ele>444.75</ele>
        <time>2018-09-19T11:00:58Z</time>
      </trkpt>
      <trkpt lat="48.779451018199325" lon="9.465023009106517">
        <ele>443.79000000000002</ele>
        <time>2018-09-19T11:00:59Z</time>
      </trkpt>
      <trkpt lat="48.779496029019356" lon="9.464813964441419">
        <ele>442.81999999999999</ele>
        <time>2018-09-19T11:01:00Z</time>
      </trkpt>
      <trkpt lat="48.779546990990639" lon="9.464581031352282">
        <ele>441.86000000000001</ele>
        <time>2018-09-19T11:01:01Z</time>
      </trkpt>
      <trkpt lat="48.779852008447051" lon="9.463207991793752">
        <ele>434.17000000000002</ele>
        <time>2018-09-19T11:01:06Z</time>
      </trkpt>
      <trkpt lat="48.779952004551888" lon="9.462935999035835">
        <ele>432.73000000000002</ele>
        <time>2018-09-19T11:01:07Z</time>
      </trkpt>
      <trkpt lat="48.780208993703127" lon="9.462440963834524">
        <ele>429.85000000000002</ele>
        <time>2018-09-19T11:01:09Z</time>
      </trkpt>
      <trkpt lat="48.780369004234672" lon="9.462226973846555">
        <ele>427.92000000000002</ele>
        <time>2018-09-19T11:01:10Z</time>
      </trkpt>
      <trkpt lat="48.780536977574229" lon="9.462004015222192">
        <ele>426.48000000000002</ele>
        <time>2018-09-19T11:01:11Z</time>
      </trkpt>
      <trkpt lat="48.780717020854354" lon="9.461794970557094">
        <ele>425.04000000000002</ele>
        <time>2018-09-19T11:01:12Z</time>
      </trkpt>
      <trkpt lat="48.78090301528573" lon="9.461599001660943">
        <ele>423.60000000000002</ele>
        <time>2018-09-19T11:01:13Z</time>
      </trkpt>
      <trkpt lat="48.781940024346113" lon="9.460547994822264">
        <ele>415.43000000000001</ele>
        <time>2018-09-19T11:01:19Z</time>
      </trkpt>
      <trkpt lat="48.782120989635587" lon="9.460463002324104">
        <ele>413.98000000000002</ele>
        <time>2018-09-19T11:01:20Z</time>
      </trkpt>
      <trkpt lat="48.782300027087331" lon="9.460386978462338">
        <ele>412.54000000000002</ele>
        <time>2018-09-19T11:01:21Z</time>
      </trkpt>
      <trkpt lat="48.782487027347088" lon="9.460386978462338">
        <ele>411.10000000000002</ele>
        <time>2018-09-19T11:01:22Z</time>
      </trkpt>
      <trkpt lat="48.782676961272955" lon="9.460413968190551">
        <ele>409.66000000000003</ele>
        <time>2018-09-19T11:01:23Z</time>
      </trkpt>
      <trkpt lat="48.782877959311008" lon="9.460469037294388">
        <ele>408.22000000000003</ele>
        <time>2018-09-19T11:01:24Z</time>
      </trkpt>
      <trkpt lat="48.783087003976107" lon="9.460526034235954">
        <ele>406.76999999999998</ele>
        <time>2018-09-19T11:01:25Z</time>
      </trkpt>
      <trkpt lat="48.784873019903898" lon="9.461015034466982">
        <ele>397.16000000000003</ele>
        <time>2018-09-19T11:01:33Z</time>
      </trkpt>
      <trkpt lat="48.785954033955932" lon="9.46131301112473">
        <ele>392.36000000000001</ele>
        <time>2018-09-19T11:01:38Z</time>
      </trkpt>
      <trkpt lat="48.786143967881799" lon="9.461424993351102">
        <ele>391.38999999999999</ele>
        <time>2018-09-19T11:01:39Z</time>
      </trkpt>
      <trkpt lat="48.786331973969936" lon="9.461534963920713">
        <ele>390.43000000000001</ele>
        <time>2018-09-19T11:01:40Z</time>
      </trkpt>
      <trkpt lat="48.786866990849376" lon="9.461926985532045">
        <ele>387.55000000000001</ele>
        <time>2018-09-19T11:01:43Z</time>
      </trkpt>
      <trkpt lat="48.787033958360553" lon="9.462121026590467">
        <ele>386.58999999999997</ele>
        <time>2018-09-19T11:01:44Z</time>
      </trkpt>
      <trkpt lat="48.787168990820646" lon="9.462358988821507">
        <ele>385.63</ele>
        <time>2018-09-19T11:01:45Z</time>
      </trkpt>
      <trkpt lat="48.787287008017302" lon="9.462577002122998">
        <ele>385.14999999999998</ele>
        <time>2018-09-19T11:01:46Z</time>
      </trkpt>
      <trkpt lat="48.787385998293757" lon="9.462759979069233">
        <ele>384.18000000000001</ele>
        <time>2018-09-19T11:01:47Z</time>
      </trkpt>
      <trkpt lat="48.787759998813272" lon="9.463493982329965">
        <ele>379.86000000000001</ele>
        <time>2018-09-19T11:01:53Z</time>
      </trkpt>
      <trkpt lat="48.788034003227949" lon="9.46397602558136">
        <ele>378.42000000000002</ele>
        <time>2018-09-19T11:01:58Z</time>
      </trkpt>
      <trkpt lat="48.78820801153779" lon="9.464141987264156">
        <ele>377.94</ele>
        <time>2018-09-19T11:02:00Z</time>
      </trkpt>
      <trkpt lat="48.788388976827264" lon="9.464284982532263">
        <ele>377.44999999999999</ele>
        <time>2018-09-19T11:02:02Z</time>
      </trkpt>
      <trkpt lat="48.788972022011876" lon="9.46468798443675">
        <ele>374.56999999999999</ele>
        <time>2018-09-19T11:02:08Z</time>
      </trkpt>
      <trkpt lat="48.789077969267964" lon="9.464734001085162">
        <ele>374.08999999999997</ele>
        <time>2018-09-19T11:02:09Z</time>
      </trkpt>
      <trkpt lat="48.789576021954417" lon="9.464979004114866">
        <ele>370.24000000000001</ele>
        <time>2018-09-19T11:02:14Z</time>
      </trkpt>
      <trkpt lat="48.789683980867267" lon="9.465113030746579">
        <ele>369.27999999999997</ele>
        <time>2018-09-19T11:02:15Z</time>
      </trkpt>
      <trkpt lat="48.789766961708665" lon="9.465215960517526">
        <ele>368.80000000000001</ele>
        <time>2018-09-19T11:02:16Z</time>
      </trkpt>
      <trkpt lat="48.78999000415206" lon="9.465491976588965">
        <ele>367.36000000000001</ele>
        <time>2018-09-19T11:02:19Z</time>
      </trkpt>
      <trkpt lat="48.790054963901639" lon="9.465571017935872">
        <ele>366.88</ele>
        <time>2018-09-19T11:02:20Z</time>
      </trkpt>
      <trkpt lat="48.790121013298631" lon="9.465646035969257">
        <ele>366.39999999999998</ele>
        <time>2018-09-19T11:02:21Z</time>
      </trkpt>
      <trkpt lat="48.790412032976747" lon="9.465899001806974">
        <ele>364</ele>
        <time>2018-09-19T11:02:26Z</time>
      </trkpt>
      <trkpt lat="48.790471963584423" lon="9.465921968221664">
        <ele>363.51999999999998</ele>
        <time>2018-09-19T11:02:27Z</time>
      </trkpt>
      <trkpt lat="48.790534995496273" lon="9.465945018455386">
        <ele>363.04000000000002</ele>
        <time>2018-09-19T11:02:28Z</time>
      </trkpt>
      <trkpt lat="48.790747979655862" lon="9.466024981811643">
        <ele>361.58999999999997</ele>
        <time>2018-09-19T11:02:31Z</time>
      </trkpt>
      <trkpt lat="48.790832972154021" lon="9.46606102399528">
        <ele>361.58999999999997</ele>
        <time>2018-09-19T11:02:32Z</time>
      </trkpt>
      <trkpt lat="48.790905978530645" lon="9.466112991794944">
        <ele>361.11000000000001</ele>
        <time>2018-09-19T11:02:33Z</time>
      </trkpt>
      <trkpt lat="48.790970016270876" lon="9.466159008443356">
        <ele>360.63</ele>
        <time>2018-09-19T11:02:34Z</time>
      </trkpt>
      <trkpt lat="48.791036987677217" lon="9.466251041740179">
        <ele>360.63</ele>
        <time>2018-09-19T11:02:35Z</time>
      </trkpt>
      <trkpt lat="48.791093984618783" lon="9.466328993439674">
        <ele>360.14999999999998</ele>
        <time>2018-09-19T11:02:36Z</time>
      </trkpt>
      <trkpt lat="48.791150981560349" lon="9.466412980109453">
        <ele>359.67000000000002</ele>
        <time>2018-09-19T11:02:37Z</time>
      </trkpt>
      <trkpt lat="48.791203033179045" lon="9.466518005356193">
        <ele>358.70999999999998</ele>
        <time>2018-09-19T11:02:38Z</time>
      </trkpt>
      <trkpt lat="48.791263969615102" lon="9.466638034209609">
        <ele>358.23000000000002</ele>
        <time>2018-09-19T11:02:39Z</time>
      </trkpt>
      <trkpt lat="48.791308980435133" lon="9.466777006164193">
        <ele>357.75</ele>
        <time>2018-09-19T11:02:40Z</time>
      </trkpt>
      <trkpt lat="48.791340999305248" lon="9.466928970068693">
        <ele>356.79000000000002</ele>
        <time>2018-09-19T11:02:41Z</time>
      </trkpt>
      <trkpt lat="48.791371006518602" lon="9.467075988650322">
        <ele>356.31</ele>
        <time>2018-09-19T11:02:42Z</time>
      </trkpt>
      <trkpt lat="48.791400007903576" lon="9.467217978090048">
        <ele>355.33999999999997</ele>
        <time>2018-09-19T11:02:43Z</time>
      </trkpt>
      <trkpt lat="48.791400007903576" lon="9.467368014156818">
        <ele>353.89999999999998</ele>
        <time>2018-09-19T11:02:44Z</time>
      </trkpt>
      <trkpt lat="48.791399002075195" lon="9.467666996642947">
        <ele>351.98000000000002</ele>
        <time>2018-09-19T11:02:46Z</time>
      </trkpt>
      <trkpt lat="48.791377963498235" lon="9.467820972204208">
        <ele>351.5</ele>
        <time>2018-09-19T11:02:47Z</time>
      </trkpt>
      <trkpt lat="48.791311997920275" lon="9.468326987698674">
        <ele>349.10000000000002</ele>
        <time>2018-09-19T11:02:50Z</time>
      </trkpt>
      <trkpt lat="48.791281990706921" lon="9.469037018716335">
        <ele>346.20999999999998</ele>
        <time>2018-09-19T11:02:54Z</time>
      </trkpt>
      <trkpt lat="48.791290959343314" lon="9.469213038682938">
        <ele>345.25</ele>
        <time>2018-09-19T11:02:55Z</time>
      </trkpt>
      <trkpt lat="48.791352985426784" lon="9.469373971223831">
        <ele>344.29000000000002</ele>
        <time>2018-09-19T11:02:56Z</time>
      </trkpt>
      <trkpt lat="48.791426997631788" lon="9.469553008675575">
        <ele>343.81</ele>
        <time>2018-09-19T11:02:57Z</time>
      </trkpt>
      <trkpt lat="48.791508972644806" lon="9.469751995056868">
        <ele>342.85000000000002</ele>
        <time>2018-09-19T11:02:58Z</time>
      </trkpt>
      <trkpt lat="48.791593965142965" lon="9.469972020015121">
        <ele>341.88999999999999</ele>
        <time>2018-09-19T11:02:59Z</time>
      </trkpt>
      <trkpt lat="48.791681975126266" lon="9.470209982246161">
        <ele>340.44</ele>
        <time>2018-09-19T11:03:00Z</time>
      </trkpt>
      <trkpt lat="48.791773002594709" lon="9.470458002761006">
        <ele>339.48000000000002</ele>
        <time>2018-09-19T11:03:01Z</time>
      </trkpt>
      <trkpt lat="48.791828993707895" lon="9.470735024660826">
        <ele>338.51999999999998</ele>
        <time>2018-09-19T11:03:02Z</time>
      </trkpt>
      <trkpt lat="48.791881967335939" lon="9.471028978005052">
        <ele>337.56</ele>
        <time>2018-09-19T11:03:03Z</time>
      </trkpt>
      <trkpt lat="48.792413966730237" lon="9.473600964993238">
        <ele>326.99000000000001</ele>
        <time>2018-09-19T11:03:11Z</time>
      </trkpt>
      <trkpt lat="48.793082004413009" lon="9.475225964561105">
        <ele>317.85000000000002</ele>
        <time>2018-09-19T11:03:17Z</time>
      </trkpt>
      <trkpt lat="48.793459022417665" lon="9.475825019180775">
        <ele>313.52999999999997</ele>
        <time>2018-09-19T11:03:20Z</time>
      </trkpt>
      <trkpt lat="48.793593971058726" lon="9.475898025557399">
        <ele>312.56999999999999</ele>
        <time>2018-09-19T11:03:21Z</time>
      </trkpt>
      <trkpt lat="48.793734032660723" lon="9.475926021113992">
        <ele>311.60000000000002</ele>
        <time>2018-09-19T11:03:22Z</time>
      </trkpt>
      <trkpt lat="48.793871998786926" lon="9.475953010842204">
        <ele>311.12</ele>
        <time>2018-09-19T11:03:23Z</time>
      </trkpt>
      <trkpt lat="48.793995967134833" lon="9.47592300362885">
        <ele>310.16000000000003</ele>
        <time>2018-09-19T11:03:24Z</time>
      </trkpt>
      <trkpt lat="48.794127982109785" lon="9.475833987817168">
        <ele>309.19999999999999</ele>
        <time>2018-09-19T11:03:25Z</time>
      </trkpt>
      <trkpt lat="48.794249016791582" lon="9.475716976448894">
        <ele>308.24000000000001</ele>
        <time>2018-09-19T11:03:26Z</time>
      </trkpt>
      <trkpt lat="48.794371979311109" lon="9.475557971745729">
        <ele>307.27999999999997</ele>
        <time>2018-09-19T11:03:27Z</time>
      </trkpt>
      <trkpt lat="48.79450298845768" lon="9.475389998406172">
        <ele>306.31999999999999</ele>
        <time>2018-09-19T11:03:28Z</time>
      </trkpt>
      <trkpt lat="48.795505966991186" lon="9.474101029336453">
        <ele>297.67000000000002</ele>
        <time>2018-09-19T11:03:35Z</time>
      </trkpt>
      <trkpt lat="48.795606968924403" lon="9.473896007984877">
        <ele>296.22000000000003</ele>
        <time>2018-09-19T11:03:36Z</time>
      </trkpt>
      <trkpt lat="48.795691039413214" lon="9.473690986633301">
        <ele>294.77999999999997</ele>
        <time>2018-09-19T11:03:37Z</time>
      </trkpt>
      <trkpt lat="48.795740995556116" lon="9.473423017188907">
        <ele>293.81999999999999</ele>
        <time>2018-09-19T11:03:38Z</time>
      </trkpt>
      <trkpt lat="48.795801009982824" lon="9.473153036087751">
        <ele>292.38</ele>
        <time>2018-09-19T11:03:39Z</time>
      </trkpt>
      <trkpt lat="48.795977029949427" lon="9.472344014793634">
        <ele>289.49000000000001</ele>
        <time>2018-09-19T11:03:42Z</time>
      </trkpt>
      <trkpt lat="48.796206023544073" lon="9.471653010696173">
        <ele>286.61000000000001</ele>
        <time>2018-09-19T11:03:45Z</time>
      </trkpt>
      <trkpt lat="48.796217003837228" lon="9.471423011273146">
        <ele>286.13</ele>
        <time>2018-09-19T11:03:46Z</time>
      </trkpt>
      <trkpt lat="48.796227984130383" lon="9.471204997971654">
        <ele>285.17000000000002</ele>
        <time>2018-09-19T11:03:47Z</time>
      </trkpt>
      <trkpt lat="48.796246005222201" lon="9.470829991623759">
        <ele>283.25</ele>
        <time>2018-09-19T11:03:49Z</time>
      </trkpt>
      <trkpt lat="48.796279029920697" lon="9.470682973042131">
        <ele>282.27999999999997</ele>
        <time>2018-09-19T11:03:50Z</time>
      </trkpt>
      <trkpt lat="48.796312976628542" lon="9.470579959452152">
        <ele>281.80000000000001</ele>
        <time>2018-09-19T11:03:51Z</time>
      </trkpt>
      <trkpt lat="48.79639302380383" lon="9.470520028844476">
        <ele>280.83999999999997</ele>
        <time>2018-09-19T11:03:52Z</time>
      </trkpt>
      <trkpt lat="48.796470975503325" lon="9.470525979995728">
        <ele>280.36000000000001</ele>
        <time>2018-09-19T11:03:53Z</time>
      </trkpt>
      <trkpt lat="48.796555968001485" lon="9.47055104188621">
        <ele>279.39999999999998</ele>
        <time>2018-09-19T11:03:54Z</time>
      </trkpt>
      <trkpt lat="48.7966070137918" lon="9.470666041597724">
        <ele>278.92000000000002</ele>
        <time>2018-09-19T11:03:55Z</time>
      </trkpt>
      <trkpt lat="48.796641966328025" lon="9.470801996067166">
        <ele>278.44</ele>
        <time>2018-09-19T11:03:56Z</time>
      </trkpt>
      <trkpt lat="48.796656969934702" lon="9.470972986891866">
        <ele>277.95999999999998</ele>
        <time>2018-09-19T11:03:57Z</time>
      </trkpt>
      <trkpt lat="48.796674991026521" lon="9.471166022121906">
        <ele>277</ele>
        <time>2018-09-19T11:03:58Z</time>
      </trkpt>
      <trkpt lat="48.796850005164742" lon="9.472661018371582">
        <ele>273.14999999999998</ele>
        <time>2018-09-19T11:04:04Z</time>
      </trkpt>
      <trkpt lat="48.797012027353048" lon="9.474193984642625">
        <ele>264.5</ele>
        <time>2018-09-19T11:04:12Z</time>
      </trkpt>
      <trkpt lat="48.797157034277916" lon="9.475181037560105">
        <ele>256.32999999999998</ele>
        <time>2018-09-19T11:04:19Z</time>
      </trkpt>
      <trkpt lat="48.797386027872562" lon="9.476159038022161">
        <ele>249.12</ele>
        <time>2018-09-19T11:04:26Z</time>
      </trkpt>
      <trkpt lat="48.797410000115633" lon="9.476234978064895">
        <ele>248.63999999999999</ele>
        <time>2018-09-19T11:04:27Z</time>
      </trkpt>
      <trkpt lat="48.797463979572058" lon="9.476406974717975">
        <ele>248.16</ele>
        <time>2018-09-19T11:04:29Z</time>
      </trkpt>
      <trkpt lat="48.797493986785412" lon="9.476504037156701">
        <ele>247.68000000000001</ele>
        <time>2018-09-19T11:04:30Z</time>
      </trkpt>
      <trkpt lat="48.79749096930027" lon="9.476628005504608">
        <ele>247.19999999999999</ele>
        <time>2018-09-19T11:04:31Z</time>
      </trkpt>
      <trkpt lat="48.797475965693593" lon="9.47676002047956">
        <ele>247.19999999999999</ele>
        <time>2018-09-19T11:04:32Z</time>
      </trkpt>
      <trkpt lat="48.797458028420806" lon="9.476905027404428">
        <ele>246.72</ele>
        <time>2018-09-19T11:04:33Z</time>
      </trkpt>
      <trkpt lat="48.797343028709292" lon="9.478132976219058">
        <ele>243.83000000000001</ele>
        <time>2018-09-19T11:04:43Z</time>
      </trkpt>
      <trkpt lat="48.797328025102615" lon="9.478375967592001">
        <ele>242.38999999999999</ele>
        <time>2018-09-19T11:04:45Z</time>
      </trkpt>
      <trkpt lat="48.797343028709292" lon="9.478578977286816">
        <ele>241.43000000000001</ele>
        <time>2018-09-19T11:04:47Z</time>
      </trkpt>
      <trkpt lat="48.79736197181046" lon="9.478675033897162">
        <ele>240.94999999999999</ele>
        <time>2018-09-19T11:04:48Z</time>
      </trkpt>
      <trkpt lat="48.797386027872562" lon="9.478797996416688">
        <ele>240.47</ele>
        <time>2018-09-19T11:04:49Z</time>
      </trkpt>
      <trkpt lat="48.797414023429155" lon="9.478842001408339">
        <ele>239.50999999999999</ele>
        <time>2018-09-19T11:04:50Z</time>
      </trkpt>
      <trkpt lat="48.797457022592425" lon="9.478911990299821">
        <ele>239.02000000000001</ele>
        <time>2018-09-19T11:04:51Z</time>
      </trkpt>
      <trkpt lat="48.797502033412457" lon="9.478976028040052">
        <ele>238.53999999999999</ele>
        <time>2018-09-19T11:04:52Z</time>
      </trkpt>
      <trkpt lat="48.797561964020133" lon="9.479024978354573">
        <ele>238.06</ele>
        <time>2018-09-19T11:04:53Z</time>
      </trkpt>
      <trkpt lat="48.797622984275222" lon="9.479064038023353">
        <ele>237.09999999999999</ele>
        <time>2018-09-19T11:04:54Z</time>
      </trkpt>
      <trkpt lat="48.797692973166704" lon="9.479089016094804">
        <ele>236.62</ele>
        <time>2018-09-19T11:04:55Z</time>
      </trkpt>
      <trkpt lat="48.797762040048838" lon="9.479113994166255">
        <ele>236.62</ele>
        <time>2018-09-19T11:04:56Z</time>
      </trkpt>
      <trkpt lat="48.797825993970037" lon="9.479136960580945">
        <ele>237.09999999999999</ele>
        <time>2018-09-19T11:04:57Z</time>
      </trkpt>
      <trkpt lat="48.798049036413431" lon="9.479218013584614">
        <ele>238.53999999999999</ele>
        <time>2018-09-19T11:05:01Z</time>
      </trkpt>
      <trkpt lat="48.79809002391994" lon="9.4792549777776">
        <ele>238.53999999999999</ele>
        <time>2018-09-19T11:05:02Z</time>
      </trkpt>
      <trkpt lat="48.798115001991391" lon="9.47929697111249">
        <ele>239.02000000000001</ele>
        <time>2018-09-19T11:05:03Z</time>
      </trkpt>
      <trkpt lat="48.798202006146312" lon="9.479269981384277">
        <ele>239.02000000000001</ele>
        <time>2018-09-19T11:05:04Z</time>
      </trkpt>
      <trkpt lat="48.798211980611086" lon="9.47927501052618">
        <ele>239.50999999999999</ele>
        <time>2018-09-19T11:05:05Z</time>
      </trkpt>
      <trkpt lat="48.798265960067511" lon="9.47929697111249">
        <ele>239.50999999999999</ele>
        <time>2018-09-19T11:05:06Z</time>
      </trkpt>
      <trkpt lat="48.798332009464502" lon="9.479314992204309">
        <ele>239.99000000000001</ele>
        <time>2018-09-19T11:05:07Z</time>
      </trkpt>
      <trkpt lat="48.798637026920915" lon="9.479357991367579">
        <ele>241.91</ele>
        <time>2018-09-19T11:05:12Z</time>
      </trkpt>
      <trkpt lat="48.799397014081478" lon="9.479169985279441">
        <ele>245.75</ele>
        <time>2018-09-19T11:05:23Z</time>
      </trkpt>
      <trkpt lat="48.799468008801341" lon="9.479183983057737">
        <ele>245.75</ele>
        <time>2018-09-19T11:05:24Z</time>
      </trkpt>
      <trkpt lat="48.799511007964611" lon="9.479206027463079">
        <ele>245.27000000000001</ele>
        <time>2018-09-19T11:05:25Z</time>
      </trkpt>
      <trkpt lat="48.799566999077797" lon="9.479291019961238">
        <ele>245.27000000000001</ele>
        <time>2018-09-19T11:05:26Z</time>
      </trkpt>
      <trkpt lat="48.79966096021235" lon="9.479249026626349">
        <ele>244.78999999999999</ele>
        <time>2018-09-19T11:05:27Z</time>
      </trkpt>
      <trkpt lat="48.79972499795258" lon="9.479269981384277">
        <ele>244.78999999999999</ele>
        <time>2018-09-19T11:05:28Z</time>
      </trkpt>
      <trkpt lat="48.799780989065766" lon="9.479269981384277">
        <ele>244.78999999999999</ele>
        <time>2018-09-19T11:05:29Z</time>
      </trkpt>
      <trkpt lat="48.79985399544239" lon="9.479269981384277">
        <ele>244.78999999999999</ele>
        <time>2018-09-19T11:05:30Z</time>
      </trkpt>
      <trkpt lat="48.799930019304156" lon="9.479269981384277">
        <ele>245.27000000000001</ele>
        <time>2018-09-19T11:05:31Z</time>
      </trkpt>
      <trkpt lat="48.799996990710497" lon="9.479239974170923">
        <ele>245.75</ele>
        <time>2018-09-19T11:05:32Z</time>
      </trkpt>
      <trkpt lat="48.800064967945218" lon="9.479204015806317">
        <ele>246.22999999999999</ele>
        <time>2018-09-19T11:05:33Z</time>
      </trkpt>
      <trkpt lat="48.800268983468413" lon="9.479096978902817">
        <ele>247.68000000000001</ele>
        <time>2018-09-19T11:05:36Z</time>
      </trkpt>
      <trkpt lat="48.800336038693786" lon="9.479062026366592">
        <ele>247.68000000000001</ele>
        <time>2018-09-19T11:05:37Z</time>
      </trkpt>
      <trkpt lat="48.800406027585268" lon="9.479026990011334">
        <ele>248.16</ele>
        <time>2018-09-19T11:05:38Z</time>
      </trkpt>
      <trkpt lat="48.800474004819989" lon="9.478989019989967">
        <ele>248.16</ele>
        <time>2018-09-19T11:05:39Z</time>
      </trkpt>
      <trkpt lat="48.800547011196613" lon="9.478946020826697">
        <ele>248.16</ele>
        <time>2018-09-19T11:05:40Z</time>
      </trkpt>
      <trkpt lat="48.801242038607597" lon="9.478762038052082">
        <ele>248.16</ele>
        <time>2018-09-19T11:05:50Z</time>
      </trkpt>
      <trkpt lat="48.80191401578486" lon="9.478905033320189">
        <ele>247.19999999999999</ele>
        <time>2018-09-19T11:06:00Z</time>
      </trkpt>
      <trkpt lat="48.801918961107731" lon="9.478906961157918">
        <ele>247.19999999999999</ele>
        <time>2018-09-19T11:06:01Z</time>
      </trkpt>
      <trkpt lat="48.801974030211568" lon="9.478924982249737">
        <ele>247.19999999999999</ele>
        <time>2018-09-19T11:06:02Z</time>
      </trkpt>
      <trkpt lat="48.802063968032598" lon="9.478819034993649">
        <ele>247.68000000000001</ele>
        <time>2018-09-19T11:06:03Z</time>
      </trkpt>
      <trkpt lat="48.802124988287687" lon="9.478832026943564">
        <ele>247.68000000000001</ele>
        <time>2018-09-19T11:06:04Z</time>
      </trkpt>
      <trkpt lat="48.802199000492692" lon="9.478848036378622">
        <ele>247.19999999999999</ele>
        <time>2018-09-19T11:06:05Z</time>
      </trkpt>
      <trkpt lat="48.802275024354458" lon="9.47886697947979">
        <ele>247.19999999999999</ele>
        <time>2018-09-19T11:06:06Z</time>
      </trkpt>
      <trkpt lat="48.802358005195856" lon="9.47888801805675">
        <ele>246.72</ele>
        <time>2018-09-19T11:06:07Z</time>
      </trkpt>
      <trkpt lat="48.803454022854567" lon="9.479118017479777">
        <ele>245.27000000000001</ele>
        <time>2018-09-19T11:06:19Z</time>
      </trkpt>
      <trkpt lat="48.803984010592103" lon="9.479176020249724">
        <ele>245.75</ele>
        <time>2018-09-19T11:06:25Z</time>
      </trkpt>
      <trkpt lat="48.804892022162676" lon="9.478864967823029">
        <ele>245.75</ele>
        <time>2018-09-19T11:06:35Z</time>
      </trkpt>
      <trkpt lat="48.805750999599695" lon="9.478520974516869">
        <ele>247.19999999999999</ele>
        <time>2018-09-19T11:06:45Z</time>
      </trkpt>
      <trkpt lat="48.805818976834416" lon="9.478647960349917">
        <ele>247.19999999999999</ele>
        <time>2018-09-19T11:06:46Z</time>
      </trkpt>
      <trkpt lat="48.80586801096797" lon="9.478679979220033">
        <ele>247.19999999999999</ele>
        <time>2018-09-19T11:06:47Z</time>
      </trkpt>
      <trkpt lat="48.805947974324226" lon="9.478625999763608">
        <ele>247.19999999999999</ele>
        <time>2018-09-19T11:06:48Z</time>
      </trkpt>
      <trkpt lat="48.805990973487496" lon="9.478583000600338">
        <ele>247.68000000000001</ele>
        <time>2018-09-19T11:06:49Z</time>
      </trkpt>
      <trkpt lat="48.806006982922554" lon="9.478473030030727">
        <ele>248.16</ele>
        <time>2018-09-19T11:06:50Z</time>
      </trkpt>
      <trkpt lat="48.806002959609032" lon="9.478399017825723">
        <ele>248.16</ele>
        <time>2018-09-19T11:06:51Z</time>
      </trkpt>
      <trkpt lat="48.8059769757092" lon="9.478311007842422">
        <ele>248.16</ele>
        <time>2018-09-19T11:06:52Z</time>
      </trkpt>
      <trkpt lat="48.805969012901187" lon="9.478283012285829">
        <ele>248.16</ele>
        <time>2018-09-19T11:06:53Z</time>
      </trkpt>
      <trkpt lat="48.805812019854784" lon="9.478153008967638">
        <ele>248.16</ele>
        <time>2018-09-19T11:06:54Z</time>
      </trkpt>
      <trkpt lat="48.80580497905612" lon="9.478037003427744">
        <ele>248.16</ele>
        <time>2018-09-19T11:06:55Z</time>
      </trkpt>
      <trkpt lat="48.805798022076488" lon="9.477902976796031">
        <ele>248.16</ele>
        <time>2018-09-19T11:06:56Z</time>
      </trkpt>
      <trkpt lat="48.805818976834416" lon="9.477754030376673">
        <ele>248.16</ele>
        <time>2018-09-19T11:06:57Z</time>
      </trkpt>
      <trkpt lat="48.805841021239758" lon="9.477607011795044">
        <ele>247.68000000000001</ele>
        <time>2018-09-19T11:06:58Z</time>
      </trkpt>
      <trkpt lat="48.805862981826067" lon="9.477456975728273">
        <ele>247.68000000000001</ele>
        <time>2018-09-19T11:06:59Z</time>
      </trkpt>
      <trkpt lat="48.805902041494846" lon="9.477287996560335">
        <ele>247.68000000000001</ele>
        <time>2018-09-19T11:07:00Z</time>
      </trkpt>
      <trkpt lat="48.805971024557948" lon="9.477178025990725">
        <ele>247.68000000000001</ele>
        <time>2018-09-19T11:07:01Z</time>
      </trkpt>
      <trkpt lat="48.806034978479147" lon="9.477074006572366">
        <ele>247.19999999999999</ele>
        <time>2018-09-19T11:07:02Z</time>
      </trkpt>
      <trkpt lat="48.806092981249094" lon="9.476981973275542">
        <ele>247.19999999999999</ele>
        <time>2018-09-19T11:07:03Z</time>
      </trkpt>
      <trkpt lat="48.806165987625718" lon="9.476928999647498">
        <ele>246.72</ele>
        <time>2018-09-19T11:07:04Z</time>
      </trkpt>
      <trkpt lat="48.806232959032059" lon="9.476883988827467">
        <ele>246.22999999999999</ele>
        <time>2018-09-19T11:07:05Z</time>
      </trkpt>
      <trkpt lat="48.806332033127546" lon="9.476869991049171">
        <ele>245.75</ele>
        <time>2018-09-19T11:07:06Z</time>
      </trkpt>
      <trkpt lat="48.806397998705506" lon="9.476909972727299">
        <ele>245.27000000000001</ele>
        <time>2018-09-19T11:07:07Z</time>
      </trkpt>
      <trkpt lat="48.806489026173949" lon="9.477022960782051">
        <ele>245.27000000000001</ele>
        <time>2018-09-19T11:07:08Z</time>
      </trkpt>
      <trkpt lat="48.806569995358586" lon="9.477123962715268">
        <ele>245.27000000000001</ele>
        <time>2018-09-19T11:07:09Z</time>
      </trkpt>
      <trkpt lat="48.806656999513507" lon="9.47723301127553">
        <ele>244.78999999999999</ele>
        <time>2018-09-19T11:07:10Z</time>
      </trkpt>
      <trkpt lat="48.806742997840047" lon="9.477344993501902">
        <ele>244.78999999999999</ele>
        <time>2018-09-19T11:07:11Z</time>
      </trkpt>
      <trkpt lat="48.806788008660078" lon="9.477522019296885">
        <ele>244.78999999999999</ele>
        <time>2018-09-19T11:07:12Z</time>
      </trkpt>
      <trkpt lat="48.806828996166587" lon="9.477712037041783">
        <ele>244.31</ele>
        <time>2018-09-19T11:07:13Z</time>
      </trkpt>
      <trkpt lat="48.806840982288122" lon="9.477927032858133">
        <ele>244.31</ele>
        <time>2018-09-19T11:07:14Z</time>
      </trkpt>
      <trkpt lat="48.806827990338206" lon="9.478175975382328">
        <ele>243.83000000000001</ele>
        <time>2018-09-19T11:07:15Z</time>
      </trkpt>
      <trkpt lat="48.806637972593307" lon="9.479884039610624">
        <ele>242.87</ele>
        <time>2018-09-19T11:07:21Z</time>
      </trkpt>
      <trkpt lat="48.806586004793644" lon="9.482514029368758">
        <ele>242.87</ele>
        <time>2018-09-19T11:07:28Z</time>
      </trkpt>
      <trkpt lat="48.806704021990299" lon="9.487672001123428">
        <ele>243.34999999999999</ele>
        <time>2018-09-19T11:07:40Z</time>
      </trkpt>
      <trkpt lat="48.806825978681445" lon="9.492682032287121">
        <ele>243.83000000000001</ele>
        <time>2018-09-19T11:07:51Z</time>
      </trkpt>
      <trkpt lat="48.807137031108141" lon="9.500235971063376">
        <ele>245.27000000000001</ele>
        <time>2018-09-19T11:08:07Z</time>
      </trkpt>
      <trkpt lat="48.807808002457023" lon="9.50335999019444">
        <ele>246.72</ele>
        <time>2018-09-19T11:08:14Z</time>
      </trkpt>
      <trkpt lat="48.808977026492357" lon="9.506599009037018">
        <ele>247.19999999999999</ele>
        <time>2018-09-19T11:08:22Z</time>
      </trkpt>
      <trkpt lat="48.810924980789423" lon="9.510711003094912">
        <ele>249.59999999999999</ele>
        <time>2018-09-19T11:08:33Z</time>
      </trkpt>
      <trkpt lat="48.812991036102176" lon="9.513955973088741">
        <ele>252.96000000000001</ele>
        <time>2018-09-19T11:08:43Z</time>
      </trkpt>
      <trkpt lat="48.814933961257339" lon="9.516195030882955">
        <ele>256.81</ele>
        <time>2018-09-19T11:08:52Z</time>
      </trkpt>
      <trkpt lat="48.816294008865952" lon="9.517543008551002">
        <ele>264.5</ele>
        <time>2018-09-19T11:08:59Z</time>
      </trkpt>
      <trkpt lat="48.818503981456161" lon="9.51968701556325">
        <ele>264.98000000000002</ele>
        <time>2018-09-19T11:09:09Z</time>
      </trkpt>
      <trkpt lat="48.820030996575952" lon="9.521878967061639">
        <ele>268.82999999999998</ele>
        <time>2018-09-19T11:09:17Z</time>
      </trkpt>
      <trkpt lat="48.820975972339511" lon="9.52387997880578">
        <ele>272.67000000000002</ele>
        <time>2018-09-19T11:09:24Z</time>
      </trkpt>
      <trkpt lat="48.821846013888717" lon="9.526764024049044">
        <ele>276.51999999999998</ele>
        <time>2018-09-19T11:09:33Z</time>
      </trkpt>
      <trkpt lat="48.822252033278346" lon="9.529401976615191">
        <ele>279.88</ele>
        <time>2018-09-19T11:09:41Z</time>
      </trkpt>
      <trkpt lat="48.822282962501049" lon="9.529730966314673">
        <ele>280.83999999999997</ele>
        <time>2018-09-19T11:09:42Z</time>
      </trkpt>
      <trkpt lat="48.822315987199545" lon="9.53008602373302">
        <ele>281.80000000000001</ele>
        <time>2018-09-19T11:09:43Z</time>
      </trkpt>
      <trkpt lat="48.8223269674927" lon="9.530476033687592">
        <ele>282.76999999999998</ele>
        <time>2018-09-19T11:09:44Z</time>
      </trkpt>
      <trkpt lat="48.821740988641977" lon="9.536669002845883">
        <ele>281.31999999999999</ele>
        <time>2018-09-19T11:10:02Z</time>
      </trkpt>
      <trkpt lat="48.820791989564896" lon="9.539576014503837">
        <ele>275.06999999999999</ele>
        <time>2018-09-19T11:10:12Z</time>
      </trkpt>
      <trkpt lat="48.819832010194659" lon="9.541704012081027">
        <ele>266.42000000000002</ele>
        <time>2018-09-19T11:10:20Z</time>
      </trkpt>
      <trkpt lat="48.819725979119539" lon="9.541846001520753">
        <ele>265.45999999999998</ele>
        <time>2018-09-19T11:10:21Z</time>
      </trkpt>
      <trkpt lat="48.819616008549929" lon="9.54196703620255">
        <ele>264.5</ele>
        <time>2018-09-19T11:10:22Z</time>
      </trkpt>
      <trkpt lat="48.81949002854526" lon="9.542042976245284">
        <ele>263.06</ele>
        <time>2018-09-19T11:10:23Z</time>
      </trkpt>
      <trkpt lat="48.819353990256786" lon="9.542111037299037">
        <ele>262.10000000000002</ele>
        <time>2018-09-19T11:10:24Z</time>
      </trkpt>
      <trkpt lat="48.819220969453454" lon="9.542178008705378">
        <ele>260.64999999999998</ele>
        <time>2018-09-19T11:10:25Z</time>
      </trkpt>
      <trkpt lat="48.81908199749887" lon="9.542231988161802">
        <ele>259.20999999999998</ele>
        <time>2018-09-19T11:10:26Z</time>
      </trkpt>
      <trkpt lat="48.818843029439449" lon="9.542264007031918">
        <ele>257.29000000000002</ele>
        <time>2018-09-19T11:10:28Z</time>
      </trkpt>
      <trkpt lat="48.818752001971006" lon="9.542117994278669">
        <ele>255.84999999999999</ele>
        <time>2018-09-19T11:10:29Z</time>
      </trkpt>
      <trkpt lat="48.81867497228086" lon="9.542092010378838">
        <ele>255.37</ele>
        <time>2018-09-19T11:10:30Z</time>
      </trkpt>
      <trkpt lat="48.818595008924603" lon="9.542127968743444">
        <ele>254.88999999999999</ele>
        <time>2018-09-19T11:10:31Z</time>
      </trkpt>
      <trkpt lat="48.818549998104572" lon="9.542195023968816">
        <ele>253.93000000000001</ele>
        <time>2018-09-19T11:10:32Z</time>
      </trkpt>
      <trkpt lat="48.818514039739966" lon="9.54231102950871">
        <ele>252.96000000000001</ele>
        <time>2018-09-19T11:10:33Z</time>
      </trkpt>
      <trkpt lat="48.818542035296559" lon="9.542393004521728">
        <ele>252.47999999999999</ele>
        <time>2018-09-19T11:10:34Z</time>
      </trkpt>
      <trkpt lat="48.818543963134289" lon="9.542399039492011">
        <ele>252.47999999999999</ele>
        <time>2018-09-19T11:10:35Z</time>
      </trkpt>
      <trkpt lat="48.818651000037789" lon="9.542606994509697">
        <ele>252</ele>
        <time>2018-09-19T11:10:36Z</time>
      </trkpt>
      <trkpt lat="48.818651000037789" lon="9.542743032798171">
        <ele>252</ele>
        <time>2018-09-19T11:10:37Z</time>
      </trkpt>
      <trkpt lat="48.818651000037789" lon="9.542903965339065">
        <ele>251.52000000000001</ele>
        <time>2018-09-19T11:10:38Z</time>
      </trkpt>
      <trkpt lat="48.81873800419271" lon="9.544943030923605">
        <ele>252.96000000000001</ele>
        <time>2018-09-19T11:10:50Z</time>
      </trkpt>
      <trkpt lat="48.818787038326263" lon="9.545524986460805">
        <ele>253.93000000000001</ele>
        <time>2018-09-19T11:10:54Z</time>
      </trkpt>
      <trkpt lat="48.818801958113909" lon="9.545603021979332">
        <ele>253.93000000000001</ele>
        <time>2018-09-19T11:10:55Z</time>
      </trkpt>
      <trkpt lat="48.81884403526783" lon="9.545809971168637">
        <ele>254.41</ele>
        <time>2018-09-19T11:11:00Z</time>
      </trkpt>
      <trkpt lat="48.818850992247462" lon="9.54583796672523">
        <ele>254.88999999999999</ele>
        <time>2018-09-19T11:11:01Z</time>
      </trkpt>
      <trkpt lat="48.818957023322582" lon="9.546101996675134">
        <ele>254.88999999999999</ele>
        <time>2018-09-19T11:11:11Z</time>
      </trkpt>
      <trkpt lat="48.819049978628755" lon="9.546518996357918">
        <ele>255.84999999999999</ele>
        <time>2018-09-19T11:11:16Z</time>
      </trkpt>
      <trkpt lat="48.819090966135263" lon="9.546569958329201">
        <ele>256.32999999999998</ele>
        <time>2018-09-19T11:11:17Z</time>
      </trkpt>
      <trkpt lat="48.819156009703875" lon="9.546567024663091">
        <ele>256.32999999999998</ele>
        <time>2018-09-19T11:11:18Z</time>
      </trkpt>
      <trkpt lat="48.819201020523906" lon="9.546554032713175">
        <ele>256.32999999999998</ele>
        <time>2018-09-19T11:11:19Z</time>
      </trkpt>
      <trkpt lat="48.819250976666808" lon="9.546540034934878">
        <ele>256.81</ele>
        <time>2018-09-19T11:11:20Z</time>
      </trkpt>
      <trkpt lat="48.819262040778995" lon="9.546426041051745">
        <ele>256.81</ele>
        <time>2018-09-19T11:11:21Z</time>
      </trkpt>
      <trkpt lat="48.819271009415388" lon="9.546325961127877">
        <ele>257.29000000000002</ele>
        <time>2018-09-19T11:11:22Z</time>
      </trkpt>
      <trkpt lat="48.819273021072149" lon="9.546304000541568">
        <ele>257.29000000000002</ele>
        <time>2018-09-19T11:11:23Z</time>
      </trkpt>
      <trkpt lat="48.8192979991436" lon="9.546055980026722">
        <ele>257.76999999999998</ele>
        <time>2018-09-19T11:11:24Z</time>
      </trkpt>
      <trkpt lat="48.819353990256786" lon="9.545957995578647">
        <ele>257.76999999999998</ele>
        <time>2018-09-19T11:11:25Z</time>
      </trkpt>
      <trkpt lat="48.819479970261455" lon="9.545737970620394">
        <ele>258.73000000000002</ele>
        <time>2018-09-19T11:11:27Z</time>
      </trkpt>
      <trkpt lat="48.81957502104342" lon="9.545637974515557">
        <ele>258.73000000000002</ele>
        <time>2018-09-19T11:11:28Z</time>
      </trkpt>
      <trkpt lat="48.819659007713199" lon="9.545552982017398">
        <ele>259.20999999999998</ele>
        <time>2018-09-19T11:11:29Z</time>
      </trkpt>
      <trkpt lat="48.819779958575964" lon="9.545499002560973">
        <ele>259.69</ele>
        <time>2018-09-19T11:11:30Z</time>
      </trkpt>
      <trkpt lat="48.819879032671452" lon="9.545456003397703">
        <ele>260.17000000000002</ele>
        <time>2018-09-19T11:11:31Z</time>
      </trkpt>
      <trkpt lat="48.820527959614992" lon="9.545231033116579">
        <ele>263.54000000000002</ele>
        <time>2018-09-19T11:11:38Z</time>
      </trkpt>
      <trkpt lat="48.820605995133519" lon="9.545231033116579">
        <ele>264.01999999999998</ele>
        <time>2018-09-19T11:11:39Z</time>
      </trkpt>
      <trkpt lat="48.820674978196621" lon="9.545293981209397">
        <ele>264.5</ele>
        <time>2018-09-19T11:11:40Z</time>
      </trkpt>
      <trkpt lat="48.820742033421993" lon="9.545333040878177">
        <ele>264.5</ele>
        <time>2018-09-19T11:11:41Z</time>
      </trkpt>
      <trkpt lat="48.82080196402967" lon="9.545322982594371">
        <ele>264.98000000000002</ele>
        <time>2018-09-19T11:11:42Z</time>
      </trkpt>
      <trkpt lat="48.820853009819984" lon="9.545270008966327">
        <ele>265.45999999999998</ele>
        <time>2018-09-19T11:11:43Z</time>
      </trkpt>
      <trkpt lat="48.820878993719816" lon="9.545184010639787">
        <ele>265.94</ele>
        <time>2018-09-19T11:11:44Z</time>
      </trkpt>
      <trkpt lat="48.82097496651113" lon="9.545074962079525">
        <ele>266.42000000000002</ele>
        <time>2018-09-19T11:11:45Z</time>
      </trkpt>
      <trkpt lat="48.821071023121476" lon="9.545037997886539">
        <ele>266.42000000000002</ele>
        <time>2018-09-19T11:11:46Z</time>
      </trkpt>
      <trkpt lat="48.821170013397932" lon="9.545000027865171">
        <ele>266.89999999999998</ele>
        <time>2018-09-19T11:11:47Z</time>
      </trkpt>
      <trkpt lat="48.822277011349797" lon="9.544647987931967">
        <ele>271.70999999999998</ele>
        <time>2018-09-19T11:11:57Z</time>
      </trkpt>
      <trkpt lat="48.824020028114319" lon="9.543964024633169">
        <ele>280.36000000000001</ele>
        <time>2018-09-19T11:12:09Z</time>
      </trkpt>
      <trkpt lat="48.825820963829756" lon="9.543040003627539">
        <ele>287.56999999999999</ele>
        <time>2018-09-19T11:12:22Z</time>
      </trkpt>
      <trkpt lat="48.827551994472742" lon="9.542361991479993">
        <ele>288.05000000000001</ele>
        <time>2018-09-19T11:12:33Z</time>
      </trkpt>
      <trkpt lat="48.82905000820756" lon="9.542485037818551">
        <ele>284.20999999999998</ele>
        <time>2018-09-19T11:12:42Z</time>
      </trkpt>
      <trkpt lat="48.831040961667895" lon="9.543342003598809">
        <ele>274.11000000000001</ele>
        <time>2018-09-19T11:12:53Z</time>
      </trkpt>
      <trkpt lat="48.831907985731959" lon="9.543561022728682">
        <ele>268.35000000000002</ele>
        <time>2018-09-19T11:12:59Z</time>
      </trkpt>
      <trkpt lat="48.832621034234762" lon="9.543546019122005">
        <ele>264.01999999999998</ele>
        <time>2018-09-19T11:13:07Z</time>
      </trkpt>
      <trkpt lat="48.832679037004709" lon="9.543541995808482">
        <ele>264.01999999999998</ele>
        <time>2018-09-19T11:13:08Z</time>
      </trkpt>
      <trkpt lat="48.832791019231081" lon="9.543642997741699">
        <ele>263.54000000000002</ele>
        <time>2018-09-19T11:13:09Z</time>
      </trkpt>
      <trkpt lat="48.832848016172647" lon="9.543665964156389">
        <ele>263.06</ele>
        <time>2018-09-19T11:13:11Z</time>
      </trkpt>
      <trkpt lat="48.83291901089251" lon="9.543665964156389">
        <ele>262.57999999999998</ele>
        <time>2018-09-19T11:13:12Z</time>
      </trkpt>
      <trkpt lat="48.832975002005696" lon="9.543608967214823">
        <ele>262.57999999999998</ele>
        <time>2018-09-19T11:13:13Z</time>
      </trkpt>
      <trkpt lat="48.833217993378639" lon="9.543401012197137">
        <ele>262.10000000000002</ele>
        <time>2018-09-19T11:13:16Z</time>
      </trkpt>
      <trkpt lat="48.834388023242354" lon="9.542888961732388">
        <ele>261.62</ele>
        <time>2018-09-19T11:13:26Z</time>
      </trkpt>
      <trkpt lat="48.83534599095583" lon="9.542848980054259">
        <ele>262.10000000000002</ele>
        <time>2018-09-19T11:13:33Z</time>
      </trkpt>
      <trkpt lat="48.836202034726739" lon="9.543428001925349">
        <ele>266.89999999999998</ele>
        <time>2018-09-19T11:13:41Z</time>
      </trkpt>
      <trkpt lat="48.836683994159102" lon="9.544068966060877">
        <ele>271.23000000000002</ele>
        <time>2018-09-19T11:13:48Z</time>
      </trkpt>
      <trkpt lat="48.836729004979134" lon="9.544148007407785">
        <ele>271.70999999999998</ele>
        <time>2018-09-19T11:13:49Z</time>
      </trkpt>
      <trkpt lat="48.836782984435558" lon="9.544243980199099">
        <ele>272.19</ele>
        <time>2018-09-19T11:13:50Z</time>
      </trkpt>
      <trkpt lat="48.836794970557094" lon="9.54426996409893">
        <ele>272.19</ele>
        <time>2018-09-19T11:13:51Z</time>
      </trkpt>
      <trkpt lat="48.836815003305674" lon="9.544308017939329">
        <ele>272.67000000000002</ele>
        <time>2018-09-19T11:13:52Z</time>
      </trkpt>
      <trkpt lat="48.836845010519028" lon="9.544474985450506">
        <ele>273.63</ele>
        <time>2018-09-19T11:13:54Z</time>
      </trkpt>
      <trkpt lat="48.836819026619196" lon="9.544539023190737">
        <ele>274.11000000000001</ele>
        <time>2018-09-19T11:13:55Z</time>
      </trkpt>
      <trkpt lat="48.836782984435558" lon="9.544631978496909">
        <ele>274.11000000000001</ele>
        <time>2018-09-19T11:13:56Z</time>
      </trkpt>
      <trkpt lat="48.836804023012519" lon="9.544705990701914">
        <ele>274.58999999999997</ele>
        <time>2018-09-19T11:13:57Z</time>
      </trkpt>
      <trkpt lat="48.836852973327041" lon="9.544784026220441">
        <ele>274.58999999999997</ele>
        <time>2018-09-19T11:13:58Z</time>
      </trkpt>
      <trkpt lat="48.836909970268607" lon="9.544790983200073">
        <ele>275.06999999999999</ele>
        <time>2018-09-19T11:13:59Z</time>
      </trkpt>
      <trkpt lat="48.836974008008838" lon="9.544799029827118">
        <ele>275.06999999999999</ele>
        <time>2018-09-19T11:14:00Z</time>
      </trkpt>
      <trkpt lat="48.837024969980121" lon="9.544699033722282">
        <ele>275.56</ele>
        <time>2018-09-19T11:14:01Z</time>
      </trkpt>
      <trkpt lat="48.837094036862254" lon="9.544545980170369">
        <ele>275.06999999999999</ele>
        <time>2018-09-19T11:14:02Z</time>
      </trkpt>
      <trkpt lat="48.83719302713871" lon="9.544486971572042">
        <ele>274.58999999999997</ele>
        <time>2018-09-19T11:14:03Z</time>
      </trkpt>
      <trkpt lat="48.837313978001475" lon="9.544415976852179">
        <ele>274.11000000000001</ele>
        <time>2018-09-19T11:14:04Z</time>
      </trkpt>
      <trkpt lat="48.83826800622046" lon="9.543855981901288">
        <ele>273.14999999999998</ele>
        <time>2018-09-19T11:14:10Z</time>
      </trkpt>
      <trkpt lat="48.839315995573997" lon="9.543275032192469">
        <ele>274.11000000000001</ele>
        <time>2018-09-19T11:14:18Z</time>
      </trkpt>
      <trkpt lat="48.840475967153907" lon="9.542789971455932">
        <ele>276.04000000000002</ele>
        <time>2018-09-19T11:14:30Z</time>
      </trkpt>
      <trkpt lat="48.840830018743873" lon="9.54259199090302">
        <ele>275.56</ele>
        <time>2018-09-19T11:14:35Z</time>
      </trkpt>
      <trkpt lat="48.840899001806974" lon="9.542554020881653">
        <ele>275.56</ele>
        <time>2018-09-19T11:14:36Z</time>
      </trkpt>
      <trkpt lat="48.840965973213315" lon="9.542516972869635">
        <ele>275.56</ele>
        <time>2018-09-19T11:14:37Z</time>
      </trkpt>
      <trkpt lat="48.841033028438687" lon="9.542479002848268">
        <ele>275.56</ele>
        <time>2018-09-19T11:14:38Z</time>
      </trkpt>
      <trkpt lat="48.841101005673409" lon="9.542441032826901">
        <ele>275.06999999999999</ele>
        <time>2018-09-19T11:14:39Z</time>
      </trkpt>
      <trkpt lat="48.84127501398325" lon="9.542274987325072">
        <ele>274.58999999999997</ele>
        <time>2018-09-19T11:14:42Z</time>
      </trkpt>
      <trkpt lat="48.841331005096436" lon="9.542214972898364">
        <ele>274.58999999999997</ele>
        <time>2018-09-19T11:14:43Z</time>
      </trkpt>
      <trkpt lat="48.841389007866383" lon="9.542153030633926">
        <ele>274.11000000000001</ele>
        <time>2018-09-19T11:14:44Z</time>
      </trkpt>
      <trkpt lat="48.841443993151188" lon="9.542095027863979">
        <ele>273.63</ele>
        <time>2018-09-19T11:14:45Z</time>
      </trkpt>
      <trkpt lat="48.841467965394258" lon="9.542023027315736">
        <ele>272.67000000000002</ele>
        <time>2018-09-19T11:14:46Z</time>
      </trkpt>
      <trkpt lat="48.841483974829316" lon="9.541911967098713">
        <ele>272.19</ele>
        <time>2018-09-19T11:14:47Z</time>
      </trkpt>
      <trkpt lat="48.841503001749516" lon="9.541799984872341">
        <ele>271.70999999999998</ele>
        <time>2018-09-19T11:14:48Z</time>
      </trkpt>
      <trkpt lat="48.841567961499095" lon="9.541368987411261">
        <ele>268.82999999999998</ele>
        <time>2018-09-19T11:14:52Z</time>
      </trkpt>
      <trkpt lat="48.841613978147507" lon="9.541275026276708">
        <ele>267.38</ele>
        <time>2018-09-19T11:14:53Z</time>
      </trkpt>
      <trkpt lat="48.841671980917454" lon="9.541208976879716">
        <ele>266.42000000000002</ele>
        <time>2018-09-19T11:14:54Z</time>
      </trkpt>
      <trkpt lat="48.841739036142826" lon="9.541156003251672">
        <ele>265.45999999999998</ele>
        <time>2018-09-19T11:14:55Z</time>
      </trkpt>
      <trkpt lat="48.841825034469366" lon="9.541090037673712">
        <ele>264.98000000000002</ele>
        <time>2018-09-19T11:14:56Z</time>
      </trkpt>
      <trkpt lat="48.841879013925791" lon="9.541070004925132">
        <ele>264.98000000000002</ele>
        <time>2018-09-19T11:14:57Z</time>
      </trkpt>
      <trkpt lat="48.841957971453667" lon="9.541042009368539">
        <ele>264.98000000000002</ele>
        <time>2018-09-19T11:14:58Z</time>
      </trkpt>
      <trkpt lat="48.842818038538098" lon="9.540655016899109">
        <ele>266.89999999999998</ele>
        <time>2018-09-19T11:15:09Z</time>
      </trkpt>
      <trkpt lat="48.842899007722735" lon="9.540617968887091">
        <ele>266.89999999999998</ele>
        <time>2018-09-19T11:15:10Z</time>
      </trkpt>
      <trkpt lat="48.843702999874949" lon="9.540326027199626">
        <ele>267.38</ele>
        <time>2018-09-19T11:15:19Z</time>
      </trkpt>
      <trkpt lat="48.843792015686631" lon="9.540310017764568">
        <ele>267.86000000000001</ele>
        <time>2018-09-19T11:15:20Z</time>
      </trkpt>
      <trkpt lat="48.843878014013171" lon="9.540294008329511">
        <ele>267.86000000000001</ele>
        <time>2018-09-19T11:15:21Z</time>
      </trkpt>
      <trkpt lat="48.844643030315638" lon="9.540237011387944">
        <ele>270.75</ele>
        <time>2018-09-19T11:15:29Z</time>
      </trkpt>
      <trkpt lat="48.845795961096883" lon="9.540426023304462">
        <ele>275.56</ele>
        <time>2018-09-19T11:15:38Z</time>
      </trkpt>
      <trkpt lat="48.846845962107182" lon="9.54057396389544">
        <ele>278.92000000000002</ele>
        <time>2018-09-19T11:15:48Z</time>
      </trkpt>
      <trkpt lat="48.846995998173952" lon="9.54074596054852">
        <ele>279.39999999999998</ele>
        <time>2018-09-19T11:15:50Z</time>
      </trkpt>
      <trkpt lat="48.847008990123868" lon="9.540759036317468">
        <ele>278.92000000000002</ele>
        <time>2018-09-19T11:15:51Z</time>
      </trkpt>
      <trkpt lat="48.847058024257421" lon="9.54080798663199">
        <ele>278.92000000000002</ele>
        <time>2018-09-19T11:15:52Z</time>
      </trkpt>
      <trkpt lat="48.847133964300156" lon="9.540823996067047">
        <ele>278.92000000000002</ele>
        <time>2018-09-19T11:15:53Z</time>
      </trkpt>
      <trkpt lat="48.847177969291806" lon="9.540816033259034">
        <ele>279.39999999999998</ele>
        <time>2018-09-19T11:15:54Z</time>
      </trkpt>
      <trkpt lat="48.847210993990302" lon="9.540811004117131">
        <ele>278.92000000000002</ele>
        <time>2018-09-19T11:15:55Z</time>
      </trkpt>
      <trkpt lat="48.847210993990302" lon="9.540811004117131">
        <ele>279.39999999999998</ele>
        <time>2018-09-19T11:15:56Z</time>
      </trkpt>
      <trkpt lat="48.8473130017519" lon="9.540774039924145">
        <ele>279.39999999999998</ele>
        <time>2018-09-19T11:15:57Z</time>
      </trkpt>
      <trkpt lat="48.847933011129498" lon="9.541135970503092">
        <ele>280.36000000000001</ele>
        <time>2018-09-19T11:16:03Z</time>
      </trkpt>
      <trkpt lat="48.849121984094381" lon="9.541580965742469">
        <ele>281.31999999999999</ele>
        <time>2018-09-19T11:16:10Z</time>
      </trkpt>
      <trkpt lat="48.849317030981183" lon="9.541561016812921">
        <ele>280.83999999999997</ele>
        <time>2018-09-19T11:16:11Z</time>
      </trkpt>
      <trkpt lat="48.849517023190856" lon="9.541540984064341">
        <ele>280.83999999999997</ele>
        <time>2018-09-19T11:16:12Z</time>
      </trkpt>
      <trkpt lat="48.849708968773484" lon="9.541461020708084">
        <ele>280.83999999999997</ele>
        <time>2018-09-19T11:16:13Z</time>
      </trkpt>
      <trkpt lat="48.849906027317047" lon="9.541374016553164">
        <ele>280.36000000000001</ele>
        <time>2018-09-19T11:16:14Z</time>
      </trkpt>
      <trkpt lat="48.850089004263282" lon="9.541278965771198">
        <ele>280.36000000000001</ele>
        <time>2018-09-19T11:16:15Z</time>
      </trkpt>
      <trkpt lat="48.850249014794827" lon="9.541106969118118">
        <ele>279.88</ele>
        <time>2018-09-19T11:16:16Z</time>
      </trkpt>
      <trkpt lat="48.850415982306004" lon="9.540928015485406">
        <ele>279.39999999999998</ele>
        <time>2018-09-19T11:16:17Z</time>
      </trkpt>
      <trkpt lat="48.850589990615845" lon="9.540741015225649">
        <ele>279.39999999999998</ele>
        <time>2018-09-19T11:16:18Z</time>
      </trkpt>
      <trkpt lat="48.851866973564029" lon="9.539244007319212">
        <ele>275.06999999999999</ele>
        <time>2018-09-19T11:16:26Z</time>
      </trkpt>
      <trkpt lat="48.853076985105872" lon="9.53840003348887">
        <ele>270.75</ele>
        <time>2018-09-19T11:16:33Z</time>
      </trkpt>
      <trkpt lat="48.854154981672764" lon="9.538305988535285">
        <ele>269.79000000000002</ele>
        <time>2018-09-19T11:16:39Z</time>
      </trkpt>
      <trkpt lat="48.855421990156174" lon="9.538860032334924">
        <ele>271.23000000000002</ele>
        <time>2018-09-19T11:16:47Z</time>
      </trkpt>
      <trkpt lat="48.856529993936419" lon="9.539253981783986">
        <ele>271.70999999999998</ele>
        <time>2018-09-19T11:16:52Z</time>
      </trkpt>
      <trkpt lat="48.858178965747356" lon="9.539422960951924">
        <ele>271.70999999999998</ele>
        <time>2018-09-19T11:16:59Z</time>
      </trkpt>
      <trkpt lat="48.85913198813796" lon="9.539451962336898">
        <ele>271.70999999999998</ele>
        <time>2018-09-19T11:17:05Z</time>
      </trkpt>
      <trkpt lat="48.860082998871803" lon="9.539188016206026">
        <ele>273.63</ele>
        <time>2018-09-19T11:17:14Z</time>
      </trkpt>
      <trkpt lat="48.86031199246645" lon="9.539019037038088">
        <ele>273.14999999999998</ele>
        <time>2018-09-19T11:17:17Z</time>
      </trkpt>
      <trkpt lat="48.860794035717845" lon="9.538449989631772">
        <ele>272.19</ele>
        <time>2018-09-19T11:17:23Z</time>
      </trkpt>
      <trkpt lat="48.861542036756873" lon="9.537080973386765">
        <ele>270.75</ele>
        <time>2018-09-19T11:17:33Z</time>
      </trkpt>
      <trkpt lat="48.862487012520432" lon="9.535574996843934">
        <ele>270.75</ele>
        <time>2018-09-19T11:17:43Z</time>
      </trkpt>
      <trkpt lat="48.863395024091005" lon="9.534651981666684">
        <ele>270.75</ele>
        <time>2018-09-19T11:17:48Z</time>
      </trkpt>
      <trkpt lat="48.865304002538323" lon="9.532896978780627">
        <ele>272.67000000000002</ele>
        <time>2018-09-19T11:17:56Z</time>
      </trkpt>
      <trkpt lat="48.867106027901173" lon="9.531722003594041">
        <ele>276.04000000000002</ele>
        <time>2018-09-19T11:18:03Z</time>
      </trkpt>
      <trkpt lat="48.868987010791898" lon="9.530750960111618">
        <ele>276.51999999999998</ele>
        <time>2018-09-19T11:18:11Z</time>
      </trkpt>
      <trkpt lat="48.869654964655638" lon="9.53056002035737">
        <ele>276.04000000000002</ele>
        <time>2018-09-19T11:18:16Z</time>
      </trkpt>
      <trkpt lat="48.870139019563794" lon="9.530552979558706">
        <ele>275.56</ele>
        <time>2018-09-19T11:18:21Z</time>
      </trkpt>
      <trkpt lat="48.871251968666911" lon="9.530900996178389">
        <ele>273.63</ele>
        <time>2018-09-19T11:18:31Z</time>
      </trkpt>
      <trkpt lat="48.871770976111293" lon="9.53098900616169">
        <ele>273.63</ele>
        <time>2018-09-19T11:18:36Z</time>
      </trkpt>
      <trkpt lat="48.871948001906276" lon="9.530907031148672">
        <ele>273.63</ele>
        <time>2018-09-19T11:18:38Z</time>
      </trkpt>
      <trkpt lat="48.872015979140997" lon="9.530876018106937">
        <ele>273.63</ele>
        <time>2018-09-19T11:18:39Z</time>
      </trkpt>
      <trkpt lat="48.87206501327455" lon="9.530794965103269">
        <ele>273.63</ele>
        <time>2018-09-19T11:18:40Z</time>
      </trkpt>
      <trkpt lat="48.872102983295918" lon="9.53071198426187">
        <ele>274.11000000000001</ele>
        <time>2018-09-19T11:18:41Z</time>
      </trkpt>
      <trkpt lat="48.872123016044497" lon="9.530633026733995">
        <ele>273.63</ele>
        <time>2018-09-19T11:18:42Z</time>
      </trkpt>
      <trkpt lat="48.872119998559356" lon="9.530522972345352">
        <ele>273.63</ele>
        <time>2018-09-19T11:18:43Z</time>
      </trkpt>
      <trkpt lat="48.872116981074214" lon="9.530411995947361">
        <ele>273.63</ele>
        <time>2018-09-19T11:18:44Z</time>
      </trkpt>
      <trkpt lat="48.872114969417453" lon="9.530298002064228">
        <ele>273.63</ele>
        <time>2018-09-19T11:18:45Z</time>
      </trkpt>
      <trkpt lat="48.872112035751343" lon="9.530181996524334">
        <ele>273.63</ele>
        <time>2018-09-19T11:18:46Z</time>
      </trkpt>
      <trkpt lat="48.872109018266201" lon="9.530069008469582">
        <ele>273.63</ele>
        <time>2018-09-19T11:18:47Z</time>
      </trkpt>
      <trkpt lat="48.872102983295918" lon="9.529841020703316">
        <ele>273.14999999999998</ele>
        <time>2018-09-19T11:18:49Z</time>
      </trkpt>
      <trkpt lat="48.872145982459188" lon="9.529622001573443">
        <ele>273.63</ele>
        <time>2018-09-19T11:18:51Z</time>
      </trkpt>
      <trkpt lat="48.872174983844161" lon="9.529518987983465">
        <ele>273.63</ele>
        <time>2018-09-19T11:18:52Z</time>
      </trkpt>
      <trkpt lat="48.872209014371037" lon="9.529395019635558">
        <ele>273.63</ele>
        <time>2018-09-19T11:18:53Z</time>
      </trkpt>
      <trkpt lat="48.872246984392405" lon="9.529318995773792">
        <ele>273.63</ele>
        <time>2018-09-19T11:18:54Z</time>
      </trkpt>
      <trkpt lat="48.872298030182719" lon="9.529229979962111">
        <ele>273.63</ele>
        <time>2018-09-19T11:18:55Z</time>
      </trkpt>
      <trkpt lat="48.872351003810763" lon="9.529150016605854">
        <ele>274.11000000000001</ele>
        <time>2018-09-19T11:18:56Z</time>
      </trkpt>
      <trkpt lat="48.872485030442476" lon="9.528909036889672">
        <ele>274.58999999999997</ele>
        <time>2018-09-19T11:18:59Z</time>
      </trkpt>
      <trkpt lat="48.872523000463843" lon="9.528814991936088">
        <ele>275.06999999999999</ele>
        <time>2018-09-19T11:19:00Z</time>
      </trkpt>
      <trkpt lat="48.872616961598396" lon="9.528579963371158">
        <ele>275.06999999999999</ele>
        <time>2018-09-19T11:19:03Z</time>
      </trkpt>
      <trkpt lat="48.872723998501897" lon="9.528579963371158">
        <ele>275.56</ele>
        <time>2018-09-19T11:19:04Z</time>
      </trkpt>
      <trkpt lat="48.872791975736618" lon="9.528579963371158">
        <ele>275.56</ele>
        <time>2018-09-19T11:19:05Z</time>
      </trkpt>
      <trkpt lat="48.873319029808044" lon="9.528651963919401">
        <ele>278.44</ele>
        <time>2018-09-19T11:19:12Z</time>
      </trkpt>
      <trkpt lat="48.873410979285836" lon="9.528665961697698">
        <ele>278.92000000000002</ele>
        <time>2018-09-19T11:19:13Z</time>
      </trkpt>
      <trkpt lat="48.873470993712544" lon="9.528681971132755">
        <ele>279.39999999999998</ele>
        <time>2018-09-19T11:19:14Z</time>
      </trkpt>
      <trkpt lat="48.873781962320209" lon="9.528763024136424">
        <ele>281.31999999999999</ele>
        <time>2018-09-19T11:19:18Z</time>
      </trkpt>
      <trkpt lat="48.873866032809019" lon="9.528781967237592">
        <ele>281.31999999999999</ele>
        <time>2018-09-19T11:19:19Z</time>
      </trkpt>
      <trkpt lat="48.8747270219028" lon="9.529068041592836">
        <ele>281.31999999999999</ele>
        <time>2018-09-19T11:19:27Z</time>
      </trkpt>
      <trkpt lat="48.876012973487377" lon="9.529683021828532">
        <ele>281.80000000000001</ele>
        <time>2018-09-19T11:19:38Z</time>
      </trkpt>
      <trkpt lat="48.877195995301008" lon="9.530016034841538">
        <ele>282.27999999999997</ele>
        <time>2018-09-19T11:19:48Z</time>
      </trkpt>
      <trkpt lat="48.878024965524673" lon="9.530124999582768">
        <ele>281.80000000000001</ele>
        <time>2018-09-19T11:19:55Z</time>
      </trkpt>
      <trkpt lat="48.87814600020647" lon="9.530093986541033">
        <ele>281.80000000000001</ele>
        <time>2018-09-19T11:19:56Z</time>
      </trkpt>
      <trkpt lat="48.879187032580376" lon="9.529682016000152">
        <ele>281.31999999999999</ele>
        <time>2018-09-19T11:20:05Z</time>
      </trkpt>
      <trkpt lat="48.879293985664845" lon="9.529609009623528">
        <ele>281.31999999999999</ele>
        <time>2018-09-19T11:20:06Z</time>
      </trkpt>
      <trkpt lat="48.879401022568345" lon="9.529536003246903">
        <ele>281.31999999999999</ele>
        <time>2018-09-19T11:20:07Z</time>
      </trkpt>
      <trkpt lat="48.879725988954306" lon="9.529307009652257">
        <ele>281.31999999999999</ele>
        <time>2018-09-19T11:20:10Z</time>
      </trkpt>
      <trkpt lat="48.879840988665819" lon="9.529266022145748">
        <ele>281.31999999999999</ele>
        <time>2018-09-19T11:20:11Z</time>
      </trkpt>
      <trkpt lat="48.879958000034094" lon="9.529266022145748">
        <ele>281.31999999999999</ele>
        <time>2018-09-19T11:20:12Z</time>
      </trkpt>
      <trkpt lat="48.880072999745607" lon="9.529298041015863">
        <ele>280.83999999999997</ele>
        <time>2018-09-19T11:20:13Z</time>
      </trkpt>
      <trkpt lat="48.880182970315218" lon="9.529368029907346">
        <ele>280.83999999999997</ele>
        <time>2018-09-19T11:20:14Z</time>
      </trkpt>
      <trkpt lat="48.880279026925564" lon="9.529470959678292">
        <ele>280.36000000000001</ele>
        <time>2018-09-19T11:20:15Z</time>
      </trkpt>
      <trkpt lat="48.88037801720202" lon="9.529576990753412">
        <ele>280.36000000000001</ele>
        <time>2018-09-19T11:20:16Z</time>
      </trkpt>
      <trkpt lat="48.880476001650095" lon="9.529669024050236">
        <ele>279.88</ele>
        <time>2018-09-19T11:20:17Z</time>
      </trkpt>
      <trkpt lat="48.880579015240073" lon="9.529733983799815">
        <ele>278.44</ele>
        <time>2018-09-19T11:20:18Z</time>
      </trkpt>
      <trkpt lat="48.880689991638064" lon="9.529770025983453">
        <ele>277.48000000000002</ele>
        <time>2018-09-19T11:20:19Z</time>
      </trkpt>
      <trkpt lat="48.88080800883472" lon="9.52978796325624">
        <ele>277</ele>
        <time>2018-09-19T11:20:20Z</time>
      </trkpt>
      <trkpt lat="48.880929965525866" lon="9.529805984348059">
        <ele>276.51999999999998</ele>
        <time>2018-09-19T11:20:21Z</time>
      </trkpt>
      <trkpt lat="48.882136037573218" lon="9.529917966574431">
        <ele>278.44</ele>
        <time>2018-09-19T11:20:31Z</time>
      </trkpt>
      <trkpt lat="48.882256988435984" lon="9.529911009594798">
        <ele>278.92000000000002</ele>
        <time>2018-09-19T11:20:32Z</time>
      </trkpt>
      <trkpt lat="48.882369976490736" lon="9.529883014038205">
        <ele>278.92000000000002</ele>
        <time>2018-09-19T11:20:33Z</time>
      </trkpt>
      <trkpt lat="48.882477013394237" lon="9.529853006824851">
        <ele>279.39999999999998</ele>
        <time>2018-09-19T11:20:34Z</time>
      </trkpt>
      <trkpt lat="48.882581032812595" lon="9.529822999611497">
        <ele>279.39999999999998</ele>
        <time>2018-09-19T11:20:35Z</time>
      </trkpt>
      <trkpt lat="48.882683040574193" lon="9.529793998226523">
        <ele>279.39999999999998</ele>
        <time>2018-09-19T11:20:36Z</time>
      </trkpt>
      <trkpt lat="48.883232977241278" lon="9.529639016836882">
        <ele>279.39999999999998</ele>
        <time>2018-09-19T11:20:42Z</time>
      </trkpt>
      <trkpt lat="48.883398016914725" lon="9.529663994908333">
        <ele>278.92000000000002</ele>
        <time>2018-09-19T11:20:48Z</time>
      </trkpt>
      <trkpt lat="48.883416038006544" lon="9.529728032648563">
        <ele>279.39999999999998</ele>
        <time>2018-09-19T11:20:49Z</time>
      </trkpt>
      <trkpt lat="48.883517039939761" lon="9.529781006276608">
        <ele>278.92000000000002</ele>
        <time>2018-09-19T11:20:50Z</time>
      </trkpt>
      <trkpt lat="48.883542018011212" lon="9.529873039573431">
        <ele>278.92000000000002</ele>
        <time>2018-09-19T11:20:51Z</time>
      </trkpt>
      <trkpt lat="48.883574036881328" lon="9.529989967122674">
        <ele>278.92000000000002</ele>
        <time>2018-09-19T11:20:52Z</time>
      </trkpt>
      <trkpt lat="48.88383898884058" lon="9.530917005613446">
        <ele>284.20999999999998</ele>
        <time>2018-09-19T11:21:01Z</time>
      </trkpt>
      <trkpt lat="48.883891040459275" lon="9.531124960631132">
        <ele>285.64999999999998</ele>
        <time>2018-09-19T11:21:10Z</time>
      </trkpt>
      <trkpt lat="48.883957006037235" lon="9.531364012509584">
        <ele>286.13</ele>
        <time>2018-09-19T11:21:42Z</time>
      </trkpt>
      <trkpt lat="48.884127996861935" lon="9.532576035708189">
        <ele>285.64999999999998</ele>
        <time>2018-09-19T11:21:50Z</time>
      </trkpt>
      <trkpt lat="48.884179964661598" lon="9.533046009019017">
        <ele>285.17000000000002</ele>
        <time>2018-09-19T11:21:53Z</time>
      </trkpt>
      <trkpt lat="48.884222963824868" lon="9.533165032044053">
        <ele>285.17000000000002</ele>
        <time>2018-09-19T11:21:54Z</time>
      </trkpt>
      <trkpt lat="48.884288007393479" lon="9.53320300206542">
        <ele>285.17000000000002</ele>
        <time>2018-09-19T11:21:55Z</time>
      </trkpt>
      <trkpt lat="48.8843750115484" lon="9.533247007057071">
        <ele>285.17000000000002</ele>
        <time>2018-09-19T11:21:56Z</time>
      </trkpt>
      <trkpt lat="48.884474001824856" lon="9.533296041190624">
        <ele>285.64999999999998</ele>
        <time>2018-09-19T11:21:57Z</time>
      </trkpt>
      <trkpt lat="48.884580032899976" lon="9.533349014818668">
        <ele>285.64999999999998</ele>
        <time>2018-09-19T11:21:58Z</time>
      </trkpt>
      <trkpt lat="48.884691009297967" lon="9.533404000103474">
        <ele>285.17000000000002</ele>
        <time>2018-09-19T11:21:59Z</time>
      </trkpt>
      <trkpt lat="48.88482604175806" lon="9.533471977338195">
        <ele>285.17000000000002</ele>
        <time>2018-09-19T11:22:00Z</time>
      </trkpt>
      <trkpt lat="48.884922014549375" lon="9.533531991764903">
        <ele>284.69</ele>
        <time>2018-09-19T11:22:01Z</time>
      </trkpt>
      <trkpt lat="48.885036008432508" lon="9.533607009798288">
        <ele>284.69</ele>
        <time>2018-09-19T11:22:02Z</time>
      </trkpt>
      <trkpt lat="48.885603966191411" lon="9.534032978117466">
        <ele>283.73000000000002</ele>
        <time>2018-09-19T11:22:07Z</time>
      </trkpt>
      <trkpt lat="48.885730030015111" lon="9.534103972837329">
        <ele>283.73000000000002</ele>
        <time>2018-09-19T11:22:08Z</time>
      </trkpt>
      <trkpt lat="48.885866990312934" lon="9.534133980050683">
        <ele>283.73000000000002</ele>
        <time>2018-09-19T11:22:09Z</time>
      </trkpt>
      <trkpt lat="48.88600998558104" lon="9.534164993092418">
        <ele>284.20999999999998</ele>
        <time>2018-09-19T11:22:10Z</time>
      </trkpt>
      <trkpt lat="48.886152980849147" lon="9.534196006134152">
        <ele>284.69</ele>
        <time>2018-09-19T11:22:11Z</time>
      </trkpt>
      <trkpt lat="48.886295976117253" lon="9.534226013347507">
        <ele>285.17000000000002</ele>
        <time>2018-09-19T11:22:12Z</time>
      </trkpt>
      <trkpt lat="48.886436959728599" lon="9.534257026389241">
        <ele>285.64999999999998</ele>
        <time>2018-09-19T11:22:13Z</time>
      </trkpt>
      <trkpt lat="48.886574003845453" lon="9.534314023330808">
        <ele>285.64999999999998</ele>
        <time>2018-09-19T11:22:14Z</time>
      </trkpt>
      <trkpt lat="48.886691015213728" lon="9.534440003335476">
        <ele>285.64999999999998</ele>
        <time>2018-09-19T11:22:15Z</time>
      </trkpt>
      <trkpt lat="48.886797968298197" lon="9.53457897529006">
        <ele>286.13</ele>
        <time>2018-09-19T11:22:16Z</time>
      </trkpt>
      <trkpt lat="48.886903999373317" lon="9.534717025235295">
        <ele>286.61000000000001</ele>
        <time>2018-09-19T11:22:17Z</time>
      </trkpt>
      <trkpt lat="48.887005001306534" lon="9.534849962219596">
        <ele>286.61000000000001</ele>
        <time>2018-09-19T11:22:18Z</time>
      </trkpt>
      <trkpt lat="48.887100974097848" lon="9.534974014386535">
        <ele>286.61000000000001</ele>
        <time>2018-09-19T11:22:19Z</time>
      </trkpt>
      <trkpt lat="48.887227037921548" lon="9.534993963316083">
        <ele>287.08999999999997</ele>
        <time>2018-09-19T11:22:20Z</time>
      </trkpt>
      <trkpt lat="48.887350000441074" lon="9.535011984407902">
        <ele>287.08999999999997</ele>
        <time>2018-09-19T11:22:21Z</time>
      </trkpt>
      <trkpt lat="48.887458965182304" lon="9.534977031871676">
        <ele>287.56999999999999</ele>
        <time>2018-09-19T11:22:22Z</time>
      </trkpt>
      <trkpt lat="48.887571031227708" lon="9.534904025495052">
        <ele>287.56999999999999</ele>
        <time>2018-09-19T11:22:23Z</time>
      </trkpt>
      <trkpt lat="48.887652000412345" lon="9.534808974713087">
        <ele>287.56999999999999</ele>
        <time>2018-09-19T11:22:24Z</time>
      </trkpt>
      <trkpt lat="48.887731041759253" lon="9.534701015800238">
        <ele>288.05000000000001</ele>
        <time>2018-09-19T11:22:25Z</time>
      </trkpt>
      <trkpt lat="48.887803964316845" lon="9.534602025523782">
        <ele>288.05000000000001</ele>
        <time>2018-09-19T11:22:26Z</time>
      </trkpt>
      <trkpt lat="48.88787797652185" lon="9.534509992226958">
        <ele>288.05000000000001</ele>
        <time>2018-09-19T11:22:27Z</time>
      </trkpt>
      <trkpt lat="48.888022983446717" lon="9.534459030255675">
        <ele>288.05000000000001</ele>
        <time>2018-09-19T11:22:28Z</time>
      </trkpt>
      <trkpt lat="48.888022983446717" lon="9.534459030255675">
        <ele>288.52999999999997</ele>
        <time>2018-09-19T11:22:29Z</time>
      </trkpt>
      <trkpt lat="48.88817897066474" lon="9.534519966691732">
        <ele>289.00999999999999</ele>
        <time>2018-09-19T11:22:30Z</time>
      </trkpt>
      <trkpt lat="48.888234961777925" lon="9.534616023302078">
        <ele>289.00999999999999</ele>
        <time>2018-09-19T11:22:31Z</time>
      </trkpt>
      <trkpt lat="48.88830796815455" lon="9.534724988043308">
        <ele>289.49000000000001</ele>
        <time>2018-09-19T11:22:32Z</time>
      </trkpt>
      <trkpt lat="48.888389021158218" lon="9.534846022725105">
        <ele>289.49000000000001</ele>
        <time>2018-09-19T11:22:33Z</time>
      </trkpt>
      <trkpt lat="48.88856302946806" lon="9.535108041018248">
        <ele>289.97000000000003</ele>
        <time>2018-09-19T11:22:35Z</time>
      </trkpt>
      <trkpt lat="48.888666965067387" lon="9.535225974395871">
        <ele>290.45999999999998</ele>
        <time>2018-09-19T11:22:36Z</time>
      </trkpt>
      <trkpt lat="48.889481015503407" lon="9.53603801317513">
        <ele>291.42000000000002</ele>
        <time>2018-09-19T11:22:43Z</time>
      </trkpt>
      <trkpt lat="48.889574976637959" lon="9.536194000393152">
        <ele>291.42000000000002</ele>
        <time>2018-09-19T11:22:44Z</time>
      </trkpt>
      <trkpt lat="48.889654017984867" lon="9.536364991217852">
        <ele>291.42000000000002</ele>
        <time>2018-09-19T11:22:45Z</time>
      </trkpt>
      <trkpt lat="48.890121979638934" lon="9.537627976387739">
        <ele>292.38</ele>
        <time>2018-09-19T11:22:53Z</time>
      </trkpt>
      <trkpt lat="48.890974000096321" lon="9.53917502425611">
        <ele>290.94</ele>
        <time>2018-09-19T11:23:04Z</time>
      </trkpt>
      <trkpt lat="48.8915950153023" lon="9.54072299413383">
        <ele>290.94</ele>
        <time>2018-09-19T11:23:14Z</time>
      </trkpt>
      <trkpt lat="48.891783021390438" lon="9.54177500680089">
        <ele>290.94</ele>
        <time>2018-09-19T11:23:20Z</time>
      </trkpt>
      <trkpt lat="48.891823003068566" lon="9.541936023160815">
        <ele>290.94</ele>
        <time>2018-09-19T11:23:21Z</time>
      </trkpt>
      <trkpt lat="48.891888968646526" lon="9.542083963751793">
        <ele>291.42000000000002</ele>
        <time>2018-09-19T11:23:22Z</time>
      </trkpt>
      <trkpt lat="48.891954012215137" lon="9.542229976505041">
        <ele>291.42000000000002</ele>
        <time>2018-09-19T11:23:23Z</time>
      </trkpt>
      <trkpt lat="48.892015032470226" lon="9.5423339959234">
        <ele>292.38</ele>
        <time>2018-09-19T11:23:24Z</time>
      </trkpt>
      <trkpt lat="48.892137994989753" lon="9.542466010898352">
        <ele>292.86000000000001</ele>
        <time>2018-09-19T11:23:25Z</time>
      </trkpt>
      <trkpt lat="48.892545020207763" lon="9.543095994740725">
        <ele>297.18000000000001</ele>
        <time>2018-09-19T11:23:31Z</time>
      </trkpt>
      <trkpt lat="48.89260402880609" lon="9.5431939791888">
        <ele>298.14999999999998</ele>
        <time>2018-09-19T11:23:32Z</time>
      </trkpt>
      <trkpt lat="48.892878033220768" lon="9.543660013005137">
        <ele>301.02999999999997</ele>
        <time>2018-09-19T11:23:36Z</time>
      </trkpt>
      <trkpt lat="48.892924971878529" lon="9.543809965252876">
        <ele>301.50999999999999</ele>
        <time>2018-09-19T11:23:37Z</time>
      </trkpt>
      <trkpt lat="48.892975011840463" lon="9.54396503046155">
        <ele>301.99000000000001</ele>
        <time>2018-09-19T11:23:38Z</time>
      </trkpt>
      <trkpt lat="48.893017005175352" lon="9.544128980487585">
        <ele>301.99000000000001</ele>
        <time>2018-09-19T11:23:39Z</time>
      </trkpt>
      <trkpt lat="48.893049024045467" lon="9.544292008504272">
        <ele>301.99000000000001</ele>
        <time>2018-09-19T11:23:40Z</time>
      </trkpt>
      <trkpt lat="48.89342101290822" lon="9.54592396505177">
        <ele>301.02999999999997</ele>
        <time>2018-09-19T11:23:50Z</time>
      </trkpt>
      <trkpt lat="48.893483961001039" lon="9.546057991683483">
        <ele>301.02999999999997</ele>
        <time>2018-09-19T11:23:51Z</time>
      </trkpt>
      <trkpt lat="48.89354900456965" lon="9.546196963638067">
        <ele>301.50999999999999</ele>
        <time>2018-09-19T11:23:52Z</time>
      </trkpt>
      <trkpt lat="48.893674984574318" lon="9.546463005244732">
        <ele>302.47000000000003</ele>
        <time>2018-09-19T11:23:54Z</time>
      </trkpt>
      <trkpt lat="48.893731981515884" lon="9.546584039926529">
        <ele>302.94999999999999</ele>
        <time>2018-09-19T11:23:55Z</time>
      </trkpt>
      <trkpt lat="48.893886962905526" lon="9.547108998522162">
        <ele>303.91000000000003</ele>
        <time>2018-09-19T11:23:59Z</time>
      </trkpt>
      <trkpt lat="48.893951000645757" lon="9.547180999070406">
        <ele>303.91000000000003</ele>
        <time>2018-09-19T11:24:00Z</time>
      </trkpt>
      <trkpt lat="48.894019983708858" lon="9.547208994626999">
        <ele>303.43000000000001</ele>
        <time>2018-09-19T11:24:01Z</time>
      </trkpt>
      <trkpt lat="48.894098019227386" lon="9.547240007668734">
        <ele>303.43000000000001</ele>
        <time>2018-09-19T11:24:02Z</time>
      </trkpt>
      <trkpt lat="48.894184017553926" lon="9.547326005995274">
        <ele>302.94999999999999</ele>
        <time>2018-09-19T11:24:03Z</time>
      </trkpt>
      <trkpt lat="48.894270015880466" lon="9.547427007928491">
        <ele>302.94999999999999</ele>
        <time>2018-09-19T11:24:04Z</time>
      </trkpt>
      <trkpt lat="48.894360037520528" lon="9.547533039003611">
        <ele>303.43000000000001</ele>
        <time>2018-09-19T11:24:05Z</time>
      </trkpt>
      <trkpt lat="48.895143996924162" lon="9.5485869795084">
        <ele>305.83999999999997</ele>
        <time>2018-09-19T11:24:13Z</time>
      </trkpt>
      <trkpt lat="48.895233012735844" lon="9.548750007525086">
        <ele>306.80000000000001</ele>
        <time>2018-09-19T11:24:14Z</time>
      </trkpt>
      <trkpt lat="48.896123003214598" lon="9.550312981009483">
        <ele>314.00999999999999</ele>
        <time>2018-09-19T11:24:22Z</time>
      </trkpt>
      <trkpt lat="48.896220987662673" lon="9.550487995147705">
        <ele>314.49000000000001</ele>
        <time>2018-09-19T11:24:23Z</time>
      </trkpt>
      <trkpt lat="48.896318972110748" lon="9.550667032599449">
        <ele>315.44999999999999</ele>
        <time>2018-09-19T11:24:24Z</time>
      </trkpt>
      <trkpt lat="48.896503038704395" lon="9.551043966785073">
        <ele>317.85000000000002</ele>
        <time>2018-09-19T11:24:26Z</time>
      </trkpt>
      <trkpt lat="48.89662298373878" lon="9.551202971488237">
        <ele>318.81</ele>
        <time>2018-09-19T11:24:27Z</time>
      </trkpt>
      <trkpt lat="48.896764973178506" lon="9.551310008391738">
        <ele>319.77999999999997</ele>
        <time>2018-09-19T11:24:28Z</time>
      </trkpt>
      <trkpt lat="48.896922972053289" lon="9.551406987011433">
        <ele>320.25999999999999</ele>
        <time>2018-09-19T11:24:29Z</time>
      </trkpt>
      <trkpt lat="48.897081976756454" lon="9.551504971459508">
        <ele>321.22000000000003</ele>
        <time>2018-09-19T11:24:30Z</time>
      </trkpt>
      <trkpt lat="48.897233018651605" lon="9.551607985049486">
        <ele>322.18000000000001</ele>
        <time>2018-09-19T11:24:31Z</time>
      </trkpt>
      <trkpt lat="48.897362016141415" lon="9.551736982539296">
        <ele>323.13999999999999</ele>
        <time>2018-09-19T11:24:32Z</time>
      </trkpt>
      <trkpt lat="48.897468969225883" lon="9.551907973363996">
        <ele>324.10000000000002</ele>
        <time>2018-09-19T11:24:33Z</time>
      </trkpt>
      <trkpt lat="48.89788999222219" lon="9.552630996331573">
        <ele>329.87</ele>
        <time>2018-09-19T11:24:37Z</time>
      </trkpt>
      <trkpt lat="48.897973978891969" lon="9.552773991599679">
        <ele>330.82999999999998</ele>
        <time>2018-09-19T11:24:38Z</time>
      </trkpt>
      <trkpt lat="48.89799702912569" lon="9.552940959110856">
        <ele>332.26999999999998</ele>
        <time>2018-09-19T11:24:39Z</time>
      </trkpt>
      <trkpt lat="48.89799602329731" lon="9.553114967420697">
        <ele>333.23000000000002</ele>
        <time>2018-09-19T11:24:40Z</time>
      </trkpt>
      <trkpt lat="48.897987976670265" lon="9.553308002650738">
        <ele>334.68000000000001</ele>
        <time>2018-09-19T11:24:41Z</time>
      </trkpt>
      <trkpt lat="48.897980013862252" lon="9.553501037880778">
        <ele>335.63999999999999</ele>
        <time>2018-09-19T11:24:42Z</time>
      </trkpt>
      <trkpt lat="48.898028964176774" lon="9.553674040362239">
        <ele>336.60000000000002</ele>
        <time>2018-09-19T11:24:43Z</time>
      </trkpt>
      <trkpt lat="48.898066012188792" lon="9.553792979568243">
        <ele>337.56</ele>
        <time>2018-09-19T11:24:44Z</time>
      </trkpt>
      <trkpt lat="48.89817195944488" lon="9.553872020915151">
        <ele>338.04000000000002</ele>
        <time>2018-09-19T11:24:45Z</time>
      </trkpt>
      <trkpt lat="48.898256029933691" lon="9.55391401425004">
        <ele>339</ele>
        <time>2018-09-19T11:24:46Z</time>
      </trkpt>
      <trkpt lat="48.898366000503302" lon="9.553867997601628">
        <ele>339.48000000000002</ele>
        <time>2018-09-19T11:24:47Z</time>
      </trkpt>
      <trkpt lat="48.898481000214815" lon="9.553820975124836">
        <ele>340.44</ele>
        <time>2018-09-19T11:24:48Z</time>
      </trkpt>
      <trkpt lat="48.898594994097948" lon="9.553774036467075">
        <ele>341.41000000000003</ele>
        <time>2018-09-19T11:24:49Z</time>
      </trkpt>
      <trkpt lat="48.898704964667559" lon="9.553813012316823">
        <ele>341.88999999999999</ele>
        <time>2018-09-19T11:24:50Z</time>
      </trkpt>
      <trkpt lat="48.898817030712962" lon="9.553860034793615">
        <ele>342.37</ele>
        <time>2018-09-19T11:24:51Z</time>
      </trkpt>
      <trkpt lat="48.898932030424476" lon="9.553906973451376">
        <ele>343.32999999999998</ele>
        <time>2018-09-19T11:24:52Z</time>
      </trkpt>
      <trkpt lat="48.899062033742666" lon="9.553916025906801">
        <ele>344.29000000000002</ele>
        <time>2018-09-19T11:24:53Z</time>
      </trkpt>
      <trkpt lat="48.899197988212109" lon="9.553908985108137">
        <ele>345.25</ele>
        <time>2018-09-19T11:24:54Z</time>
      </trkpt>
      <trkpt lat="48.89932899735868" lon="9.553902028128505">
        <ele>345.73000000000002</ele>
        <time>2018-09-19T11:24:55Z</time>
      </trkpt>
      <trkpt lat="48.899375014007092" lon="9.553900016471744">
        <ele>346.20999999999998</ele>
        <time>2018-09-19T11:24:56Z</time>
      </trkpt>
      <trkpt lat="48.899515997618437" lon="9.553980985656381">
        <ele>347.17000000000002</ele>
        <time>2018-09-19T11:24:57Z</time>
      </trkpt>
      <trkpt lat="48.89956402592361" lon="9.554050974547863">
        <ele>347.64999999999998</ele>
        <time>2018-09-19T11:24:58Z</time>
      </trkpt>
      <trkpt lat="48.899639965966344" lon="9.554179972037673">
        <ele>348.13</ele>
        <time>2018-09-19T11:24:59Z</time>
      </trkpt>
      <trkpt lat="48.899722024798393" lon="9.554318021982908">
        <ele>349.10000000000002</ele>
        <time>2018-09-19T11:25:00Z</time>
      </trkpt>
      <trkpt lat="48.899812968447804" lon="9.554469985887408">
        <ele>350.06</ele>
        <time>2018-09-19T11:25:01Z</time>
      </trkpt>
      <trkpt lat="48.899906007573009" lon="9.554625973105431">
        <ele>351.01999999999998</ele>
        <time>2018-09-19T11:25:02Z</time>
      </trkpt>
      <trkpt lat="48.900004997849464" lon="9.554783971980214">
        <ele>351.98000000000002</ele>
        <time>2018-09-19T11:25:03Z</time>
      </trkpt>
      <trkpt lat="48.900128966197371" lon="9.554851027205586">
        <ele>352.94</ele>
        <time>2018-09-19T11:25:04Z</time>
      </trkpt>
      <trkpt lat="48.900271961465478" lon="9.554905006662011">
        <ele>353.42000000000002</ele>
        <time>2018-09-19T11:25:05Z</time>
      </trkpt>
      <trkpt lat="48.900409005582333" lon="9.554894026368856">
        <ele>354.38</ele>
        <time>2018-09-19T11:25:06Z</time>
      </trkpt>
      <trkpt lat="48.900540014728904" lon="9.554908024147153">
        <ele>355.33999999999997</ele>
        <time>2018-09-19T11:25:07Z</time>
      </trkpt>
      <trkpt lat="48.900672029703856" lon="9.554982036352158">
        <ele>356.31</ele>
        <time>2018-09-19T11:25:08Z</time>
      </trkpt>
      <trkpt lat="48.900794992223382" lon="9.555106004700065">
        <ele>357.26999999999998</ele>
        <time>2018-09-19T11:25:09Z</time>
      </trkpt>
      <trkpt lat="48.901189025491476" lon="9.555485034361482">
        <ele>360.63</ele>
        <time>2018-09-19T11:25:12Z</time>
      </trkpt>
      <trkpt lat="48.901581969112158" lon="9.555699024349451">
        <ele>364.95999999999998</ele>
        <time>2018-09-19T11:25:15Z</time>
      </trkpt>
      <trkpt lat="48.901684982702136" lon="9.555739006027579">
        <ele>366.39999999999998</ele>
        <time>2018-09-19T11:25:16Z</time>
      </trkpt>
      <trkpt lat="48.901781961321831" lon="9.555763984099031">
        <ele>367.36000000000001</ele>
        <time>2018-09-19T11:25:17Z</time>
      </trkpt>
      <trkpt lat="48.901876006275415" lon="9.555788962170482">
        <ele>368.80000000000001</ele>
        <time>2018-09-19T11:25:18Z</time>
      </trkpt>
      <trkpt lat="48.90197197906673" lon="9.555814024060965">
        <ele>369.75999999999999</ele>
        <time>2018-09-19T11:25:19Z</time>
      </trkpt>
      <trkpt lat="48.902060994878411" lon="9.555807989090681">
        <ele>370.73000000000002</ele>
        <time>2018-09-19T11:25:20Z</time>
      </trkpt>
      <trkpt lat="48.902155039831996" lon="9.555726014077663">
        <ele>371.69</ele>
        <time>2018-09-19T11:25:21Z</time>
      </trkpt>
      <trkpt lat="48.90222997404635" lon="9.555629035457969">
        <ele>372.17000000000002</ele>
        <time>2018-09-19T11:25:22Z</time>
      </trkpt>
      <trkpt lat="48.902290994301438" lon="9.555491991341114">
        <ele>373.13</ele>
        <time>2018-09-19T11:25:23Z</time>
      </trkpt>
      <trkpt lat="48.9022930059582" lon="9.555329969152808">
        <ele>373.61000000000001</ele>
        <time>2018-09-19T11:25:24Z</time>
      </trkpt>
      <trkpt lat="48.9022930059582" lon="9.555166019126773">
        <ele>374.56999999999999</ele>
        <time>2018-09-19T11:25:25Z</time>
      </trkpt>
      <trkpt lat="48.902237014845014" lon="9.55501195974648">
        <ele>376.00999999999999</ele>
        <time>2018-09-19T11:25:26Z</time>
      </trkpt>
      <trkpt lat="48.902174988761544" lon="9.554839041084051">
        <ele>376.97000000000003</ele>
        <time>2018-09-19T11:25:27Z</time>
      </trkpt>
      <trkpt lat="48.902112040668726" lon="9.55466503277421">
        <ele>378.42000000000002</ele>
        <time>2018-09-19T11:25:28Z</time>
      </trkpt>
      <trkpt lat="48.902050014585257" lon="9.55449303612113">
        <ele>379.38</ele>
        <time>2018-09-19T11:25:29Z</time>
      </trkpt>
      <trkpt lat="48.902006009593606" lon="9.554277034476399">
        <ele>380.33999999999997</ele>
        <time>2018-09-19T11:25:30Z</time>
      </trkpt>
      <trkpt lat="48.90199201181531" lon="9.554058015346527">
        <ele>381.30000000000001</ele>
        <time>2018-09-19T11:25:31Z</time>
      </trkpt>
      <trkpt lat="48.901977008208632" lon="9.553824998438358">
        <ele>382.25999999999999</ele>
        <time>2018-09-19T11:25:32Z</time>
      </trkpt>
      <trkpt lat="48.901991005986929" lon="9.553571026772261">
        <ele>383.22000000000003</ele>
        <time>2018-09-19T11:25:33Z</time>
      </trkpt>
      <trkpt lat="48.902029981836677" lon="9.553347984328866">
        <ele>383.69999999999999</ele>
        <time>2018-09-19T11:25:34Z</time>
      </trkpt>
      <trkpt lat="48.902103994041681" lon="9.553173976019025">
        <ele>384.66000000000003</ele>
        <time>2018-09-19T11:25:35Z</time>
      </trkpt>
      <trkpt lat="48.902209019288421" lon="9.553021006286144">
        <ele>385.14999999999998</ele>
        <time>2018-09-19T11:25:36Z</time>
      </trkpt>
      <trkpt lat="48.90233701094985" lon="9.552897037938237">
        <ele>386.11000000000001</ele>
        <time>2018-09-19T11:25:37Z</time>
      </trkpt>
      <trkpt lat="48.902471959590912" lon="9.552767034620047">
        <ele>387.06999999999999</ele>
        <time>2018-09-19T11:25:38Z</time>
      </trkpt>
      <trkpt lat="48.902616966515779" lon="9.55262697301805">
        <ele>387.55000000000001</ele>
        <time>2018-09-19T11:25:39Z</time>
      </trkpt>
      <trkpt lat="48.902775971218944" lon="9.55245497636497">
        <ele>388.50999999999999</ele>
        <time>2018-09-19T11:25:40Z</time>
      </trkpt>
      <trkpt lat="48.902907986193895" lon="9.552250038832426">
        <ele>389.47000000000003</ele>
        <time>2018-09-19T11:25:41Z</time>
      </trkpt>
      <trkpt lat="48.903645006939769" lon="9.551110016182065">
        <ele>399.07999999999998</ele>
        <time>2018-09-19T11:25:47Z</time>
      </trkpt>
      <trkpt lat="48.903785990551114" lon="9.551003985106945">
        <ele>400.52999999999997</ele>
        <time>2018-09-19T11:25:48Z</time>
      </trkpt>
      <trkpt lat="48.903913982212543" lon="9.550908012315631">
        <ele>401.97000000000003</ele>
        <time>2018-09-19T11:25:49Z</time>
      </trkpt>
      <trkpt lat="48.904039040207863" lon="9.550847997888923">
        <ele>402.93000000000001</ele>
        <time>2018-09-19T11:25:50Z</time>
      </trkpt>
      <trkpt lat="48.904150016605854" lon="9.550837017595768">
        <ele>403.88999999999999</ele>
        <time>2018-09-19T11:25:51Z</time>
      </trkpt>
      <trkpt lat="48.904248001053929" lon="9.550860989838839">
        <ele>405.32999999999998</ele>
        <time>2018-09-19T11:25:52Z</time>
      </trkpt>
      <trkpt lat="48.904340034350753" lon="9.550923015922308">
        <ele>406.29000000000002</ele>
        <time>2018-09-19T11:25:53Z</time>
      </trkpt>
      <trkpt lat="48.904439024627209" lon="9.550959980115295">
        <ele>407.25999999999999</ele>
        <time>2018-09-19T11:25:54Z</time>
      </trkpt>
      <trkpt lat="48.904524017125368" lon="9.550959980115295">
        <ele>408.22000000000003</ele>
        <time>2018-09-19T11:25:55Z</time>
      </trkpt>
      <trkpt lat="48.90461403876543" lon="9.550853027030826">
        <ele>409.18000000000001</ele>
        <time>2018-09-19T11:25:56Z</time>
      </trkpt>
      <trkpt lat="48.904711017385125" lon="9.550737021490932">
        <ele>409.66000000000003</ele>
        <time>2018-09-19T11:25:57Z</time>
      </trkpt>
      <trkpt lat="48.904820987954736" lon="9.55060601234436">
        <ele>410.62</ele>
        <time>2018-09-19T11:25:58Z</time>
      </trkpt>
      <trkpt lat="48.904939005151391" lon="9.550464022904635">
        <ele>411.57999999999998</ele>
        <time>2018-09-19T11:25:59Z</time>
      </trkpt>
      <trkpt lat="48.905465975403786" lon="9.549802020192146">
        <ele>416.87</ele>
        <time>2018-09-19T11:26:03Z</time>
      </trkpt>
      <trkpt lat="48.905591033399105" lon="9.549589036032558">
        <ele>418.79000000000002</ele>
        <time>2018-09-19T11:26:04Z</time>
      </trkpt>
      <trkpt lat="48.905720030888915" lon="9.549366999417543">
        <ele>420.23000000000002</ele>
        <time>2018-09-19T11:26:05Z</time>
      </trkpt>
      <trkpt lat="48.905853973701596" lon="9.549134988337755">
        <ele>421.68000000000001</ele>
        <time>2018-09-19T11:26:06Z</time>
      </trkpt>
      <trkpt lat="48.905994035303593" lon="9.548896020278335">
        <ele>423.12</ele>
        <time>2018-09-19T11:26:07Z</time>
      </trkpt>
      <trkpt lat="48.906754022464156" lon="9.547765972092748">
        <ele>429.85000000000002</ele>
        <time>2018-09-19T11:26:12Z</time>
      </trkpt>
      <trkpt lat="48.906886959448457" lon="9.547581989318132">
        <ele>431.29000000000002</ele>
        <time>2018-09-19T11:26:13Z</time>
      </trkpt>
      <trkpt lat="48.907003970816731" lon="9.547421978786588">
        <ele>433.20999999999998</ele>
        <time>2018-09-19T11:26:14Z</time>
      </trkpt>
      <trkpt lat="48.907099021598697" lon="9.547290969640017">
        <ele>434.64999999999998</ele>
        <time>2018-09-19T11:26:15Z</time>
      </trkpt>
      <trkpt lat="48.90721402131021" lon="9.547227015718818">
        <ele>436.57999999999998</ele>
        <time>2018-09-19T11:26:16Z</time>
      </trkpt>
      <trkpt lat="48.907329021021724" lon="9.547184016555548">
        <ele>437.54000000000002</ele>
        <time>2018-09-19T11:26:17Z</time>
      </trkpt>
      <trkpt lat="48.907439997419715" lon="9.547184016555548">
        <ele>438.98000000000002</ele>
        <time>2018-09-19T11:26:18Z</time>
      </trkpt>
      <trkpt lat="48.907543011009693" lon="9.547184016555548">
        <ele>440.42000000000002</ele>
        <time>2018-09-19T11:26:19Z</time>
      </trkpt>
      <trkpt lat="48.907657004892826" lon="9.547184016555548">
        <ele>441.86000000000001</ele>
        <time>2018-09-19T11:26:20Z</time>
      </trkpt>
      <trkpt lat="48.907737974077463" lon="9.547102963551879">
        <ele>442.81999999999999</ele>
        <time>2018-09-19T11:26:21Z</time>
      </trkpt>
      <trkpt lat="48.90779597684741" lon="9.546964997425675">
        <ele>443.79000000000002</ele>
        <time>2018-09-19T11:26:22Z</time>
      </trkpt>
      <trkpt lat="48.907840987667441" lon="9.54680297523737">
        <ele>445.23000000000002</ele>
        <time>2018-09-19T11:26:23Z</time>
      </trkpt>
      <trkpt lat="48.907889015972614" lon="9.54663198441267">
        <ele>446.19</ele>
        <time>2018-09-19T11:26:24Z</time>
      </trkpt>
      <trkpt lat="48.908128989860415" lon="9.545853976160288">
        <ele>451</ele>
        <time>2018-09-19T11:26:29Z</time>
      </trkpt>
      <trkpt lat="48.908193027600646" lon="9.545725984498859">
        <ele>451.95999999999998</ele>
        <time>2018-09-19T11:26:30Z</time>
      </trkpt>
      <trkpt lat="48.90826896764338" lon="9.54562003724277">
        <ele>452.44</ele>
        <time>2018-09-19T11:26:31Z</time>
      </trkpt>
      <trkpt lat="48.908348008990288" lon="9.545530015602708">
        <ele>453.88</ele>
        <time>2018-09-19T11:26:32Z</time>
      </trkpt>
      <trkpt lat="48.90843995846808" lon="9.54549296759069">
        <ele>454.83999999999997</ele>
        <time>2018-09-19T11:26:33Z</time>
      </trkpt>
      <trkpt lat="48.908532997593284" lon="9.545473018661141">
        <ele>455.80000000000001</ele>
        <time>2018-09-19T11:26:34Z</time>
      </trkpt>
      <trkpt lat="48.908629976212978" lon="9.545542001724243">
        <ele>456.75999999999999</ele>
        <time>2018-09-19T11:26:35Z</time>
      </trkpt>
      <trkpt lat="48.908728966489434" lon="9.545647026970983">
        <ele>458.20999999999998</ele>
        <time>2018-09-19T11:26:36Z</time>
      </trkpt>
      <trkpt lat="48.908838015049696" lon="9.545762026682496">
        <ele>459.17000000000002</ele>
        <time>2018-09-19T11:26:37Z</time>
      </trkpt>
      <trkpt lat="48.908955026417971" lon="9.545884989202023">
        <ele>460.61000000000001</ele>
        <time>2018-09-19T11:26:38Z</time>
      </trkpt>
      <trkpt lat="48.909732028841972" lon="9.5466080121696">
        <ele>466.38</ele>
        <time>2018-09-19T11:26:43Z</time>
      </trkpt>
      <trkpt lat="48.910925025120378" lon="9.547520969063044">
        <ele>474.06999999999999</ele>
        <time>2018-09-19T11:26:50Z</time>
      </trkpt>
      <trkpt lat="48.911055028438568" lon="9.547656001523137">
        <ele>475.02999999999997</ele>
        <time>2018-09-19T11:26:51Z</time>
      </trkpt>
      <trkpt lat="48.911174973472953" lon="9.547794973477721">
        <ele>476.47000000000003</ele>
        <time>2018-09-19T11:26:52Z</time>
      </trkpt>
      <trkpt lat="48.911281004548073" lon="9.547970993444324">
        <ele>477.43000000000001</ele>
        <time>2018-09-19T11:26:53Z</time>
      </trkpt>
      <trkpt lat="48.911347975954413" lon="9.548180038109422">
        <ele>478.87</ele>
        <time>2018-09-19T11:26:54Z</time>
      </trkpt>
      <trkpt lat="48.911397010087967" lon="9.548396961763501">
        <ele>480.31999999999999</ele>
        <time>2018-09-19T11:26:55Z</time>
      </trkpt>
      <trkpt lat="48.911476973444223" lon="9.548750007525086">
        <ele>483.19999999999999</ele>
        <time>2018-09-19T11:26:57Z</time>
      </trkpt>
      <trkpt lat="48.911579987034202" lon="9.548853021115065">
        <ele>484.16000000000003</ele>
        <time>2018-09-19T11:26:58Z</time>
      </trkpt>
      <trkpt lat="48.91166397370398" lon="9.548914963379502">
        <ele>485.60000000000002</ele>
        <time>2018-09-19T11:26:59Z</time>
      </trkpt>
      <trkpt lat="48.911753995344043" lon="9.548932984471321">
        <ele>486.07999999999998</ele>
        <time>2018-09-19T11:27:00Z</time>
      </trkpt>
      <trkpt lat="48.911819960922003" lon="9.548899959772825">
        <ele>487.05000000000001</ele>
        <time>2018-09-19T11:27:01Z</time>
      </trkpt>
      <trkpt lat="48.911892967298627" lon="9.548766016960144">
        <ele>488.00999999999999</ele>
        <time>2018-09-19T11:27:02Z</time>
      </trkpt>
      <trkpt lat="48.911948958411813" lon="9.548664009198546">
        <ele>489.44999999999999</ele>
        <time>2018-09-19T11:27:03Z</time>
      </trkpt>
      <trkpt lat="48.911948958411813" lon="9.548511961475015">
        <ele>489.93000000000001</ele>
        <time>2018-09-19T11:27:04Z</time>
      </trkpt>
      <trkpt lat="48.911948958411813" lon="9.548348011448979">
        <ele>490.88999999999999</ele>
        <time>2018-09-19T11:27:05Z</time>
      </trkpt>
      <trkpt lat="48.911948958411813" lon="9.548188000917435">
        <ele>492.32999999999998</ele>
        <time>2018-09-19T11:27:06Z</time>
      </trkpt>
      <trkpt lat="48.91196102835238" lon="9.548036037012935">
        <ele>493.29000000000002</ele>
        <time>2018-09-19T11:27:07Z</time>
      </trkpt>
      <trkpt lat="48.911982988938689" lon="9.547899998724461">
        <ele>494.25999999999999</ele>
        <time>2018-09-19T11:27:08Z</time>
      </trkpt>
      <trkpt lat="48.912020036950707" lon="9.547803020104766">
        <ele>494.74000000000001</ele>
        <time>2018-09-19T11:27:09Z</time>
      </trkpt>
      <trkpt lat="48.912049038335681" lon="9.547723978757858">
        <ele>494.74000000000001</ele>
        <time>2018-09-19T11:27:10Z</time>
      </trkpt>
      <trkpt lat="48.912152973935008" lon="9.547609984874725">
        <ele>495.22000000000003</ele>
        <time>2018-09-19T11:27:11Z</time>
      </trkpt>
      <trkpt lat="48.912209970876575" lon="9.547630017623305">
        <ele>495.69999999999999</ele>
        <time>2018-09-19T11:27:12Z</time>
      </trkpt>
      <trkpt lat="48.912281971424818" lon="9.547654995694757">
        <ele>496.18000000000001</ele>
        <time>2018-09-19T11:27:13Z</time>
      </trkpt>
      <trkpt lat="48.912366963922977" lon="9.54768399707973">
        <ele>496.66000000000003</ele>
        <time>2018-09-19T11:27:14Z</time>
      </trkpt>
      <trkpt lat="48.912466960027814" lon="9.547718027606607">
        <ele>497.62</ele>
        <time>2018-09-19T11:27:15Z</time>
      </trkpt>
      <trkpt lat="48.91323197633028" lon="9.548033019527793">
        <ele>501.45999999999998</ele>
        <time>2018-09-19T11:27:22Z</time>
      </trkpt>
      <trkpt lat="48.913393998518586" lon="9.548140978440642">
        <ele>501.94999999999999</ele>
        <time>2018-09-19T11:27:24Z</time>
      </trkpt>
      <trkpt lat="48.913461975753307" lon="9.548181965947151">
        <ele>501.94999999999999</ele>
        <time>2018-09-19T11:27:25Z</time>
      </trkpt>
      <trkpt lat="48.913536993786693" lon="9.548152964562178">
        <ele>502.43000000000001</ele>
        <time>2018-09-19T11:27:26Z</time>
      </trkpt>
      <trkpt lat="48.913569012656808" lon="9.548065038397908">
        <ele>502.43000000000001</ele>
        <time>2018-09-19T11:27:27Z</time>
      </trkpt>
      <trkpt lat="48.913641013205051" lon="9.547960013151169">
        <ele>501.94999999999999</ele>
        <time>2018-09-19T11:27:28Z</time>
      </trkpt>
      <trkpt lat="48.913726005703211" lon="9.547923970967531">
        <ele>500.98000000000002</ele>
        <time>2018-09-19T11:27:29Z</time>
      </trkpt>
      <trkpt lat="48.913837987929583" lon="9.547966970130801">
        <ele>500.5</ele>
        <time>2018-09-19T11:27:30Z</time>
      </trkpt>
      <trkpt lat="48.913942007347941" lon="9.548033019527793">
        <ele>499.54000000000002</ele>
        <time>2018-09-19T11:27:31Z</time>
      </trkpt>
      <trkpt lat="48.914057007059455" lon="9.548104014247656">
        <ele>498.57999999999998</ele>
        <time>2018-09-19T11:27:32Z</time>
      </trkpt>
      <trkpt lat="48.914171000942588" lon="9.548175008967519">
        <ele>498.10000000000002</ele>
        <time>2018-09-19T11:27:33Z</time>
      </trkpt>
      <trkpt lat="48.914265967905521" lon="9.548235023394227">
        <ele>497.13999999999999</ele>
        <time>2018-09-19T11:27:34Z</time>
      </trkpt>
      <trkpt lat="48.914395971223712" lon="9.54824298620224">
        <ele>496.18000000000001</ele>
        <time>2018-09-19T11:27:35Z</time>
      </trkpt>
      <trkpt lat="48.914506025612354" lon="9.548250027000904">
        <ele>495.22000000000003</ele>
        <time>2018-09-19T11:27:36Z</time>
      </trkpt>
      <trkpt lat="48.914609961211681" lon="9.548256983980537">
        <ele>494.74000000000001</ele>
        <time>2018-09-19T11:27:37Z</time>
      </trkpt>
      <trkpt lat="48.914709035307169" lon="9.548207027837634">
        <ele>493.76999999999998</ele>
        <time>2018-09-19T11:27:38Z</time>
      </trkpt>
      <trkpt lat="48.914824035018682" lon="9.548149025067687">
        <ele>492.81</ele>
        <time>2018-09-19T11:27:39Z</time>
      </trkpt>
      <trkpt lat="48.9149060100317" lon="9.54807098954916">
        <ele>492.32999999999998</ele>
        <time>2018-09-19T11:27:40Z</time>
      </trkpt>
      <trkpt lat="48.914997959509492" lon="9.547983985394239">
        <ele>491.85000000000002</ele>
        <time>2018-09-19T11:27:41Z</time>
      </trkpt>
      <trkpt lat="48.915316974744201" lon="9.547635968774557">
        <ele>488.97000000000003</ele>
        <time>2018-09-19T11:27:45Z</time>
      </trkpt>
      <trkpt lat="48.91537900082767" lon="9.54751099459827">
        <ele>488.49000000000001</ele>
        <time>2018-09-19T11:27:46Z</time>
      </trkpt>
      <trkpt lat="48.915446978062391" lon="9.547375040128827">
        <ele>488.00999999999999</ele>
        <time>2018-09-19T11:27:47Z</time>
      </trkpt>
      <trkpt lat="48.915891973301768" lon="9.545945003628731">
        <ele>481.27999999999997</ele>
        <time>2018-09-19T11:27:54Z</time>
      </trkpt>
      <trkpt lat="48.916170001029968" lon="9.544139038771391">
        <ele>473.11000000000001</ele>
        <time>2018-09-19T11:28:01Z</time>
      </trkpt>
      <trkpt lat="48.916225992143154" lon="9.543587006628513">
        <ele>470.22000000000003</ele>
        <time>2018-09-19T11:28:03Z</time>
      </trkpt>
      <trkpt lat="48.916254993528128" lon="9.543302021920681">
        <ele>468.77999999999997</ele>
        <time>2018-09-19T11:28:04Z</time>
      </trkpt>
      <trkpt lat="48.916273014619946" lon="9.543013013899326">
        <ele>467.33999999999997</ele>
        <time>2018-09-19T11:28:05Z</time>
      </trkpt>
      <trkpt lat="48.916288018226624" lon="9.542723000049591">
        <ele>465.89999999999998</ele>
        <time>2018-09-19T11:28:06Z</time>
      </trkpt>
      <trkpt lat="48.91630201600492" lon="9.542442038655281">
        <ele>464.44999999999999</ele>
        <time>2018-09-19T11:28:07Z</time>
      </trkpt>
      <trkpt lat="48.91634501516819" lon="9.541611978784204">
        <ele>459.17000000000002</ele>
        <time>2018-09-19T11:28:10Z</time>
      </trkpt>
      <trkpt lat="48.916611978784204" lon="9.540156964212656">
        <ele>450.02999999999997</ele>
        <time>2018-09-19T11:28:16Z</time>
      </trkpt>
      <trkpt lat="48.916695965453982" lon="9.539840966463089">
        <ele>447.63</ele>
        <time>2018-09-19T11:28:18Z</time>
      </trkpt>
      <trkpt lat="48.916699988767505" lon="9.539736025035381">
        <ele>446.67000000000002</ele>
        <time>2018-09-19T11:28:19Z</time>
      </trkpt>
      <trkpt lat="48.916669981554151" lon="9.539633011445403">
        <ele>445.70999999999998</ele>
        <time>2018-09-19T11:28:20Z</time>
      </trkpt>
      <trkpt lat="48.916628994047642" lon="9.539606021717191">
        <ele>444.75</ele>
        <time>2018-09-19T11:28:21Z</time>
      </trkpt>
      <trkpt lat="48.916562022641301" lon="9.539566040039063">
        <ele>443.79000000000002</ele>
        <time>2018-09-19T11:28:22Z</time>
      </trkpt>
      <trkpt lat="48.916507037356496" lon="9.539598980918527">
        <ele>442.81999999999999</ele>
        <time>2018-09-19T11:28:23Z</time>
      </trkpt>
      <trkpt lat="48.916449034586549" lon="9.5396470092237">
        <ele>442.33999999999997</ele>
        <time>2018-09-19T11:28:24Z</time>
      </trkpt>
      <trkpt lat="48.916396982967854" lon="9.539784975349903">
        <ele>441.86000000000001</ele>
        <time>2018-09-19T11:28:25Z</time>
      </trkpt>
      <trkpt lat="48.916336968541145" lon="9.539944985881448">
        <ele>441.38</ele>
        <time>2018-09-19T11:28:26Z</time>
      </trkpt>
      <trkpt lat="48.916031029075384" lon="9.540998004376888">
        <ele>437.54000000000002</ele>
        <time>2018-09-19T11:28:31Z</time>
      </trkpt>
      <trkpt lat="48.915918041020632" lon="9.541392037644982">
        <ele>435.61000000000001</ele>
        <time>2018-09-19T11:28:33Z</time>
      </trkpt>
      <trkpt lat="48.915899014100432" lon="9.541590018197894">
        <ele>434.64999999999998</ele>
        <time>2018-09-19T11:28:34Z</time>
      </trkpt>
      <trkpt lat="48.915881998836994" lon="9.541766960173845">
        <ele>433.69</ele>
        <time>2018-09-19T11:28:35Z</time>
      </trkpt>
      <trkpt lat="48.915852997452021" lon="9.542059991508722">
        <ele>432.25</ele>
        <time>2018-09-19T11:28:37Z</time>
      </trkpt>
      <trkpt lat="48.915841011330485" lon="9.5421820320189">
        <ele>431.29000000000002</ele>
        <time>2018-09-19T11:28:38Z</time>
      </trkpt>
      <trkpt lat="48.915805974975228" lon="9.542284961789846">
        <ele>430.32999999999998</ele>
        <time>2018-09-19T11:28:39Z</time>
      </trkpt>
      <trkpt lat="48.915748978033662" lon="9.542316980659962">
        <ele>429.37</ele>
        <time>2018-09-19T11:28:40Z</time>
      </trkpt>
      <trkpt lat="48.915682006627321" lon="9.542356040328741">
        <ele>428.39999999999998</ele>
        <time>2018-09-19T11:28:41Z</time>
      </trkpt>
      <trkpt lat="48.915650993585587" lon="9.542313041165471">
        <ele>427.44</ele>
        <time>2018-09-19T11:28:42Z</time>
      </trkpt>
      <trkpt lat="48.915607994422317" lon="9.542223019525409">
        <ele>426.48000000000002</ele>
        <time>2018-09-19T11:28:43Z</time>
      </trkpt>
      <trkpt lat="48.915574969723821" lon="9.54207600094378">
        <ele>425.51999999999998</ele>
        <time>2018-09-19T11:28:44Z</time>
      </trkpt>
      <trkpt lat="48.915587039664388" lon="9.541923031210899">
        <ele>424.56</ele>
        <time>2018-09-19T11:28:45Z</time>
      </trkpt>
      <trkpt lat="48.915601037442684" lon="9.541749022901058">
        <ele>424.07999999999998</ele>
        <time>2018-09-19T11:28:46Z</time>
      </trkpt>
      <trkpt lat="48.915717964991927" lon="9.540256960317493">
        <ele>418.31</ele>
        <time>2018-09-19T11:28:52Z</time>
      </trkpt>
      <trkpt lat="48.915834976360202" lon="9.538785014301539">
        <ele>408.69999999999999</ele>
        <time>2018-09-19T11:28:57Z</time>
      </trkpt>
      <trkpt lat="48.915906976908445" lon="9.538507992401719">
        <ele>406.76999999999998</ele>
        <time>2018-09-19T11:28:58Z</time>
      </trkpt>
      <trkpt lat="48.915987024083734" lon="9.538238011300564">
        <ele>404.37</ele>
        <time>2018-09-19T11:28:59Z</time>
      </trkpt>
      <trkpt lat="48.916090037673712" lon="9.537983033806086">
        <ele>402.44999999999999</ele>
        <time>2018-09-19T11:29:00Z</time>
      </trkpt>
      <trkpt lat="48.9161959849298" lon="9.537721015512943">
        <ele>400.05000000000001</ele>
        <time>2018-09-19T11:29:01Z</time>
      </trkpt>
      <trkpt lat="48.916953038424253" lon="9.535531997680664">
        <ele>385.14999999999998</ele>
        <time>2018-09-19T11:29:09Z</time>
      </trkpt>
      <trkpt lat="48.917087987065315" lon="9.535349020734429">
        <ele>383.69999999999999</ele>
        <time>2018-09-19T11:29:10Z</time>
      </trkpt>
      <trkpt lat="48.917220002040267" lon="9.535180041566491">
        <ele>382.25999999999999</ele>
        <time>2018-09-19T11:29:11Z</time>
      </trkpt>
      <trkpt lat="48.917382024228573" lon="9.535079961642623">
        <ele>380.81999999999999</ele>
        <time>2018-09-19T11:29:12Z</time>
      </trkpt>
      <trkpt lat="48.917543040588498" lon="9.535013996064663">
        <ele>379.38</ele>
        <time>2018-09-19T11:29:13Z</time>
      </trkpt>
      <trkpt lat="48.91772098839283" lon="9.535003015771508">
        <ele>377.94</ele>
        <time>2018-09-19T11:29:14Z</time>
      </trkpt>
      <trkpt lat="48.917907988652587" lon="9.534992035478354">
        <ele>376.97000000000003</ele>
        <time>2018-09-19T11:29:15Z</time>
      </trkpt>
      <trkpt lat="48.919364009052515" lon="9.534871000796557">
        <ele>367.36000000000001</ele>
        <time>2018-09-19T11:29:22Z</time>
      </trkpt>
      <trkpt lat="48.919936995953321" lon="9.534609988331795">
        <ele>364</ele>
        <time>2018-09-19T11:29:25Z</time>
      </trkpt>
      <trkpt lat="48.921252032741904" lon="9.533469965681434">
        <ele>354.38</ele>
        <time>2018-09-19T11:29:32Z</time>
      </trkpt>
      <trkpt lat="48.922247970476747" lon="9.532271018251777">
        <ele>349.10000000000002</ele>
        <time>2018-09-19T11:29:39Z</time>
      </trkpt>
      <trkpt lat="48.922332962974906" lon="9.532083012163639">
        <ele>349.10000000000002</ele>
        <time>2018-09-19T11:29:40Z</time>
      </trkpt>
      <trkpt lat="48.922400018200278" lon="9.531932976096869">
        <ele>349.10000000000002</ele>
        <time>2018-09-19T11:29:41Z</time>
      </trkpt>
      <trkpt lat="48.922444023191929" lon="9.531752010807395">
        <ele>349.10000000000002</ele>
        <time>2018-09-19T11:29:42Z</time>
      </trkpt>
      <trkpt lat="48.9224489685148" lon="9.531556963920593">
        <ele>349.10000000000002</ele>
        <time>2018-09-19T11:29:43Z</time>
      </trkpt>
      <trkpt lat="48.922455003485084" lon="9.531348003074527">
        <ele>349.10000000000002</ele>
        <time>2018-09-19T11:29:44Z</time>
      </trkpt>
      <trkpt lat="48.922461038455367" lon="9.531127978116274">
        <ele>348.62</ele>
        <time>2018-09-19T11:29:45Z</time>
      </trkpt>
      <trkpt lat="48.922438994050026" lon="9.530900996178389">
        <ele>348.62</ele>
        <time>2018-09-19T11:29:46Z</time>
      </trkpt>
      <trkpt lat="48.922404963523149" lon="9.530663033947349">
        <ele>348.13</ele>
        <time>2018-09-19T11:29:47Z</time>
      </trkpt>
      <trkpt lat="48.922369005158544" lon="9.530411995947361">
        <ele>348.13</ele>
        <time>2018-09-19T11:29:48Z</time>
      </trkpt>
      <trkpt lat="48.921991987153888" lon="9.528435040265322">
        <ele>341.41000000000003</ele>
        <time>2018-09-19T11:29:56Z</time>
      </trkpt>
      <trkpt lat="48.921976983547211" lon="9.528206968680024">
        <ele>339.95999999999998</ele>
        <time>2018-09-19T11:29:57Z</time>
      </trkpt>
      <trkpt lat="48.921978995203972" lon="9.527976969256997">
        <ele>339</ele>
        <time>2018-09-19T11:29:58Z</time>
      </trkpt>
      <trkpt lat="48.921998022124171" lon="9.527741018682718">
        <ele>338.04000000000002</ele>
        <time>2018-09-19T11:29:59Z</time>
      </trkpt>
      <trkpt lat="48.922023000195622" lon="9.52752803452313">
        <ele>337.07999999999998</ele>
        <time>2018-09-19T11:30:00Z</time>
      </trkpt>
      <trkpt lat="48.922062981873751" lon="9.527354026213288">
        <ele>336.12</ele>
        <time>2018-09-19T11:30:01Z</time>
      </trkpt>
      <trkpt lat="48.922098018229008" lon="9.527204995974898">
        <ele>335.16000000000003</ele>
        <time>2018-09-19T11:30:02Z</time>
      </trkpt>
      <trkpt lat="48.922126013785601" lon="9.527083039283752">
        <ele>334.68000000000001</ele>
        <time>2018-09-19T11:30:03Z</time>
      </trkpt>
      <trkpt lat="48.922148980200291" lon="9.526987988501787">
        <ele>334.19999999999999</ele>
        <time>2018-09-19T11:30:04Z</time>
      </trkpt>
      <trkpt lat="48.922258028760552" lon="9.526927974075079">
        <ele>333.70999999999998</ele>
        <time>2018-09-19T11:30:05Z</time>
      </trkpt>
      <trkpt lat="48.922341009601951" lon="9.526927974075079">
        <ele>333.23000000000002</ele>
        <time>2018-09-19T11:30:06Z</time>
      </trkpt>
      <trkpt lat="48.922439999878407" lon="9.526927974075079">
        <ele>332.26999999999998</ele>
        <time>2018-09-19T11:30:07Z</time>
      </trkpt>
      <trkpt lat="48.922546030953526" lon="9.526927974075079">
        <ele>331.31</ele>
        <time>2018-09-19T11:30:08Z</time>
      </trkpt>
      <trkpt lat="48.922658013179898" lon="9.526947000995278">
        <ele>330.35000000000002</ele>
        <time>2018-09-19T11:30:09Z</time>
      </trkpt>
      <trkpt lat="48.922763038426638" lon="9.52699201181531">
        <ele>328.91000000000003</ele>
        <time>2018-09-19T11:30:10Z</time>
      </trkpt>
      <trkpt lat="48.922874014824629" lon="9.527138024568558">
        <ele>327.94999999999999</ele>
        <time>2018-09-19T11:30:11Z</time>
      </trkpt>
      <trkpt lat="48.922979040071368" lon="9.527275990694761">
        <ele>326.5</ele>
        <time>2018-09-19T11:30:12Z</time>
      </trkpt>
      <trkpt lat="48.923090016469359" lon="9.52742300927639">
        <ele>325.06</ele>
        <time>2018-09-19T11:30:13Z</time>
      </trkpt>
      <trkpt lat="48.924148986116052" lon="9.528881041333079">
        <ele>311.60000000000002</ele>
        <time>2018-09-19T11:30:22Z</time>
      </trkpt>
      <trkpt lat="48.924502031877637" lon="9.529387978836894">
        <ele>307.27999999999997</ele>
        <time>2018-09-19T11:30:25Z</time>
      </trkpt>
      <trkpt lat="48.924641003832221" lon="9.529512031003833">
        <ele>305.83999999999997</ele>
        <time>2018-09-19T11:30:26Z</time>
      </trkpt>
      <trkpt lat="48.924781987443566" lon="9.52963599935174">
        <ele>304.88</ele>
        <time>2018-09-19T11:30:27Z</time>
      </trkpt>
      <trkpt lat="48.925163028761744" lon="9.529974041506648">
        <ele>301.50999999999999</ele>
        <time>2018-09-19T11:30:30Z</time>
      </trkpt>
      <trkpt lat="48.925245003774762" lon="9.530131034553051">
        <ele>300.55000000000001</ele>
        <time>2018-09-19T11:30:31Z</time>
      </trkpt>
      <trkpt lat="48.925314992666245" lon="9.530298002064228">
        <ele>299.58999999999997</ele>
        <time>2018-09-19T11:30:32Z</time>
      </trkpt>
      <trkpt lat="48.925539962947369" lon="9.530759006738663">
        <ele>296.22000000000003</ele>
        <time>2018-09-19T11:30:35Z</time>
      </trkpt>
      <trkpt lat="48.925625961273909" lon="9.530873000621796">
        <ele>294.77999999999997</ele>
        <time>2018-09-19T11:30:36Z</time>
      </trkpt>
      <trkpt lat="48.925721012055874" lon="9.530954975634813">
        <ele>294.30000000000001</ele>
        <time>2018-09-19T11:30:37Z</time>
      </trkpt>
      <trkpt lat="48.925834000110626" lon="9.530988000333309">
        <ele>293.81999999999999</ele>
        <time>2018-09-19T11:30:38Z</time>
      </trkpt>
      <trkpt lat="48.925955034792423" lon="9.530996968969703">
        <ele>293.33999999999997</ele>
        <time>2018-09-19T11:30:39Z</time>
      </trkpt>
      <trkpt lat="48.926070034503937" lon="9.53099001199007">
        <ele>292.86000000000001</ele>
        <time>2018-09-19T11:30:40Z</time>
      </trkpt>
      <trkpt lat="48.926186040043831" lon="9.530914993956685">
        <ele>292.86000000000001</ele>
        <time>2018-09-19T11:30:41Z</time>
      </trkpt>
      <trkpt lat="48.926283018663526" lon="9.530853973701596">
        <ele>292.86000000000001</ele>
        <time>2018-09-19T11:30:42Z</time>
      </trkpt>
      <trkpt lat="48.926392989233136" lon="9.530698992311955">
        <ele>293.33999999999997</ele>
        <time>2018-09-19T11:30:43Z</time>
      </trkpt>
      <trkpt lat="48.926497008651495" lon="9.530553985387087">
        <ele>293.33999999999997</ele>
        <time>2018-09-19T11:30:44Z</time>
      </trkpt>
      <trkpt lat="48.926576972007751" lon="9.530379977077246">
        <ele>293.33999999999997</ele>
        <time>2018-09-19T11:30:45Z</time>
      </trkpt>
      <trkpt lat="48.926661964505911" lon="9.53019498847425">
        <ele>293.33999999999997</ele>
        <time>2018-09-19T11:30:46Z</time>
      </trkpt>
      <trkpt lat="48.926889030262828" lon="9.529591994360089">
        <ele>293.81999999999999</ele>
        <time>2018-09-19T11:30:49Z</time>
      </trkpt>
      <trkpt lat="48.926928006112576" lon="9.529351014643908">
        <ele>293.81999999999999</ele>
        <time>2018-09-19T11:30:50Z</time>
      </trkpt>
      <trkpt lat="48.926968993619084" lon="9.529100982472301">
        <ele>293.81999999999999</ele>
        <time>2018-09-19T11:30:51Z</time>
      </trkpt>
      <trkpt lat="48.927137972787023" lon="9.528058022260666">
        <ele>294.30000000000001</ele>
        <time>2018-09-19T11:30:55Z</time>
      </trkpt>
      <trkpt lat="48.927211984992027" lon="9.527818970382214">
        <ele>294.30000000000001</ele>
        <time>2018-09-19T11:30:56Z</time>
      </trkpt>
      <trkpt lat="48.927285997197032" lon="9.527587965130806">
        <ele>294.77999999999997</ele>
        <time>2018-09-19T11:30:57Z</time>
      </trkpt>
      <trkpt lat="48.927407031878829" lon="9.527413034811616">
        <ele>294.77999999999997</ele>
        <time>2018-09-19T11:30:58Z</time>
      </trkpt>
      <trkpt lat="48.927526976913214" lon="9.527249000966549">
        <ele>295.25999999999999</ele>
        <time>2018-09-19T11:30:59Z</time>
      </trkpt>
      <trkpt lat="48.927671983838081" lon="9.527113968506455">
        <ele>295.25999999999999</ele>
        <time>2018-09-19T11:31:00Z</time>
      </trkpt>
      <trkpt lat="48.927814979106188" lon="9.526979019865394">
        <ele>295.74000000000001</ele>
        <time>2018-09-19T11:31:01Z</time>
      </trkpt>
      <trkpt lat="48.927957974374294" lon="9.526845999062061">
        <ele>295.74000000000001</ele>
        <time>2018-09-19T11:31:02Z</time>
      </trkpt>
      <trkpt lat="48.928326023742557" lon="9.526460012421012">
        <ele>297.18000000000001</ele>
        <time>2018-09-19T11:31:05Z</time>
      </trkpt>
      <trkpt lat="48.928427025675774" lon="9.52632699161768">
        <ele>298.14999999999998</ele>
        <time>2018-09-19T11:31:06Z</time>
      </trkpt>
      <trkpt lat="48.928509000688791" lon="9.526182990521193">
        <ele>298.63</ele>
        <time>2018-09-19T11:31:07Z</time>
      </trkpt>
      <trkpt lat="48.928558034822345" lon="9.526011999696493">
        <ele>299.11000000000001</ele>
        <time>2018-09-19T11:31:08Z</time>
      </trkpt>
      <trkpt lat="48.928606985136867" lon="9.525842014700174">
        <ele>299.58999999999997</ele>
        <time>2018-09-19T11:31:09Z</time>
      </trkpt>
      <trkpt lat="48.928630035370588" lon="9.525669012218714">
        <ele>299.58999999999997</ele>
        <time>2018-09-19T11:31:10Z</time>
      </trkpt>
      <trkpt lat="48.928643027320504" lon="9.52548997476697">
        <ele>300.06999999999999</ele>
        <time>2018-09-19T11:31:11Z</time>
      </trkpt>
      <trkpt lat="48.928617965430021" lon="9.525291994214058">
        <ele>300.06999999999999</ele>
        <time>2018-09-19T11:31:12Z</time>
      </trkpt>
      <trkpt lat="48.928593993186951" lon="9.525100970640779">
        <ele>300.06999999999999</ele>
        <time>2018-09-19T11:31:13Z</time>
      </trkpt>
      <trkpt lat="48.928572032600641" lon="9.524921011179686">
        <ele>300.06999999999999</ele>
        <time>2018-09-19T11:31:14Z</time>
      </trkpt>
      <trkpt lat="48.928302973508835" lon="9.523393996059895">
        <ele>298.14999999999998</ele>
        <time>2018-09-19T11:31:24Z</time>
      </trkpt>
      <trkpt lat="48.928263997659087" lon="9.523252006620169">
        <ele>297.67000000000002</ele>
        <time>2018-09-19T11:31:25Z</time>
      </trkpt>
      <trkpt lat="48.928227033466101" lon="9.523113034665585">
        <ele>297.67000000000002</ele>
        <time>2018-09-19T11:31:26Z</time>
      </trkpt>
      <trkpt lat="48.928055036813021" lon="9.522409038618207">
        <ele>296.22000000000003</ele>
        <time>2018-09-19T11:31:31Z</time>
      </trkpt>
      <trkpt lat="48.928043972700834" lon="9.52228800393641">
        <ele>295.74000000000001</ele>
        <time>2018-09-19T11:31:32Z</time>
      </trkpt>
      <trkpt lat="48.928025029599667" lon="9.522058004513383">
        <ele>296.22000000000003</ele>
        <time>2018-09-19T11:31:35Z</time>
      </trkpt>
      <trkpt lat="48.927980018779635" lon="9.521955996751785">
        <ele>296.22000000000003</ele>
        <time>2018-09-19T11:31:36Z</time>
      </trkpt>
      <trkpt lat="48.927844986319542" lon="9.521624995395541">
        <ele>296.22000000000003</ele>
        <time>2018-09-19T11:31:39Z</time>
      </trkpt>
      <trkpt lat="48.927822019904852" lon="9.521464984863997">
        <ele>296.22000000000003</ele>
        <time>2018-09-19T11:31:40Z</time>
      </trkpt>
      <trkpt lat="48.927673995494843" lon="9.520579017698765">
        <ele>293.81999999999999</ele>
        <time>2018-09-19T11:31:45Z</time>
      </trkpt>
      <trkpt lat="48.927311981096864" lon="9.518740028142929">
        <ele>287.08999999999997</ele>
        <time>2018-09-19T11:31:53Z</time>
      </trkpt>
      <trkpt lat="48.927120035514235" lon="9.517519036307931">
        <ele>285.64999999999998</ele>
        <time>2018-09-19T11:31:57Z</time>
      </trkpt>
      <trkpt lat="48.927129004150629" lon="9.5171959977597">
        <ele>285.17000000000002</ele>
        <time>2018-09-19T11:31:58Z</time>
      </trkpt>
      <trkpt lat="48.927139984443784" lon="9.516873965039849">
        <ele>285.17000000000002</ele>
        <time>2018-09-19T11:31:59Z</time>
      </trkpt>
      <trkpt lat="48.927220031619072" lon="9.516566013917327">
        <ele>284.69</ele>
        <time>2018-09-19T11:32:00Z</time>
      </trkpt>
      <trkpt lat="48.927306029945612" lon="9.516266025602818">
        <ele>284.20999999999998</ele>
        <time>2018-09-19T11:32:01Z</time>
      </trkpt>
      <trkpt lat="48.927419018000364" lon="9.51599202118814">
        <ele>284.20999999999998</ele>
        <time>2018-09-19T11:32:02Z</time>
      </trkpt>
      <trkpt lat="48.92753703519702" lon="9.515717010945082">
        <ele>284.20999999999998</ele>
        <time>2018-09-19T11:32:03Z</time>
      </trkpt>
      <trkpt lat="48.927656980231404" lon="9.515437977388501">
        <ele>284.20999999999998</ele>
        <time>2018-09-19T11:32:04Z</time>
      </trkpt>
      <trkpt lat="48.927893014624715" lon="9.514886029064655">
        <ele>284.20999999999998</ele>
        <time>2018-09-19T11:32:06Z</time>
      </trkpt>
      <trkpt lat="48.927981024608016" lon="9.514578999951482">
        <ele>284.20999999999998</ele>
        <time>2018-09-19T11:32:07Z</time>
      </trkpt>
      <trkpt lat="48.9280129596591" lon="9.514256967231631">
        <ele>284.20999999999998</ele>
        <time>2018-09-19T11:32:08Z</time>
      </trkpt>
      <trkpt lat="48.928040033206344" lon="9.513928983360529">
        <ele>283.73000000000002</ele>
        <time>2018-09-19T11:32:09Z</time>
      </trkpt>
      <trkpt lat="48.928018994629383" lon="9.513603011146188">
        <ele>283.73000000000002</ele>
        <time>2018-09-19T11:32:10Z</time>
      </trkpt>
      <trkpt lat="48.927992004901171" lon="9.513269998133183">
        <ele>283.73000000000002</ele>
        <time>2018-09-19T11:32:11Z</time>
      </trkpt>
      <trkpt lat="48.927915981039405" lon="9.512949977070093">
        <ele>283.73000000000002</ele>
        <time>2018-09-19T11:32:12Z</time>
      </trkpt>
      <trkpt lat="48.92783903516829" lon="9.512622999027371">
        <ele>283.73000000000002</ele>
        <time>2018-09-19T11:32:13Z</time>
      </trkpt>
      <trkpt lat="48.927026996389031" lon="9.510414032265544">
        <ele>283.25</ele>
        <time>2018-09-19T11:32:20Z</time>
      </trkpt>
      <trkpt lat="48.925903989002109" lon="9.508372033014894">
        <ele>281.31999999999999</ele>
        <time>2018-09-19T11:32:27Z</time>
      </trkpt>
      <trkpt lat="48.925771974027157" lon="9.508072966709733">
        <ele>281.31999999999999</ele>
        <time>2018-09-19T11:32:28Z</time>
      </trkpt>
      <trkpt lat="48.925667032599449" lon="9.507757974788547">
        <ele>281.80000000000001</ele>
        <time>2018-09-19T11:32:29Z</time>
      </trkpt>
      <trkpt lat="48.925590002909303" lon="9.507426973432303">
        <ele>281.80000000000001</ele>
        <time>2018-09-19T11:32:30Z</time>
      </trkpt>
      <trkpt lat="48.925544992089272" lon="9.507102007046342">
        <ele>282.27999999999997</ele>
        <time>2018-09-19T11:32:31Z</time>
      </trkpt>
      <trkpt lat="48.925510039553046" lon="9.506793972104788">
        <ele>282.27999999999997</ele>
        <time>2018-09-19T11:32:32Z</time>
      </trkpt>
      <trkpt lat="48.925497969612479" lon="9.506499012932181">
        <ele>282.76999999999998</ele>
        <time>2018-09-19T11:32:33Z</time>
      </trkpt>
      <trkpt lat="48.925489000976086" lon="9.506221991032362">
        <ele>282.76999999999998</ele>
        <time>2018-09-19T11:32:34Z</time>
      </trkpt>
      <trkpt lat="48.925527976825833" lon="9.505042992532253">
        <ele>283.73000000000002</ele>
        <time>2018-09-19T11:32:39Z</time>
      </trkpt>
      <trkpt lat="48.925515990704298" lon="9.504846017807722">
        <ele>283.73000000000002</ele>
        <time>2018-09-19T11:32:40Z</time>
      </trkpt>
      <trkpt lat="48.925483971834183" lon="9.5046710036695">
        <ele>283.73000000000002</ele>
        <time>2018-09-19T11:32:41Z</time>
      </trkpt>
      <trkpt lat="48.925453964620829" lon="9.504504958167672">
        <ele>283.73000000000002</ele>
        <time>2018-09-19T11:32:42Z</time>
      </trkpt>
      <trkpt lat="48.92534701153636" lon="9.504211004823446">
        <ele>283.73000000000002</ele>
        <time>2018-09-19T11:32:44Z</time>
      </trkpt>
      <trkpt lat="48.92528397962451" lon="9.50404898263514">
        <ele>284.20999999999998</ele>
        <time>2018-09-19T11:32:45Z</time>
      </trkpt>
      <trkpt lat="48.924346966668963" lon="9.502606960013509">
        <ele>281.80000000000001</ele>
        <time>2018-09-19T11:32:56Z</time>
      </trkpt>
      <trkpt lat="48.923321021720767" lon="9.501050021499395">
        <ele>277</ele>
        <time>2018-09-19T11:33:08Z</time>
      </trkpt>
      <trkpt lat="48.923105020076036" lon="9.500866960734129">
        <ele>275.56</ele>
        <time>2018-09-19T11:33:11Z</time>
      </trkpt>
      <trkpt lat="48.923064032569528" lon="9.500620029866695">
        <ele>275.06999999999999</ele>
        <time>2018-09-19T11:33:12Z</time>
      </trkpt>
      <trkpt lat="48.923053974285722" lon="9.500551968812943">
        <ele>275.06999999999999</ele>
        <time>2018-09-19T11:33:13Z</time>
      </trkpt>
      <trkpt lat="48.923017010092735" lon="9.500419031828642">
        <ele>274.58999999999997</ele>
        <time>2018-09-19T11:33:14Z</time>
      </trkpt>
      <trkpt lat="48.922949032858014" lon="9.500282993540168">
        <ele>274.11000000000001</ele>
        <time>2018-09-19T11:33:15Z</time>
      </trkpt>
      <trkpt lat="48.922870997339487" lon="9.500138992443681">
        <ele>273.63</ele>
        <time>2018-09-19T11:33:16Z</time>
      </trkpt>
      <trkpt lat="48.922651978209615" lon="9.499696008861065">
        <ele>272.67000000000002</ele>
        <time>2018-09-19T11:33:19Z</time>
      </trkpt>
      <trkpt lat="48.922601016238332" lon="9.49953499250114">
        <ele>272.67000000000002</ele>
        <time>2018-09-19T11:33:20Z</time>
      </trkpt>
      <trkpt lat="48.922588024288416" lon="9.499356960877776">
        <ele>272.67000000000002</ele>
        <time>2018-09-19T11:33:21Z</time>
      </trkpt>
      <trkpt lat="48.922581989318132" lon="9.499174989759922">
        <ele>272.67000000000002</ele>
        <time>2018-09-19T11:33:22Z</time>
      </trkpt>
      <trkpt lat="48.922576960176229" lon="9.498991006985307">
        <ele>273.14999999999998</ele>
        <time>2018-09-19T11:33:23Z</time>
      </trkpt>
      <trkpt lat="48.922527004033327" lon="9.496792014688253">
        <ele>277</ele>
        <time>2018-09-19T11:33:35Z</time>
      </trkpt>
      <trkpt lat="48.922235984355211" lon="9.495309004560113">
        <ele>275.56</ele>
        <time>2018-09-19T11:33:42Z</time>
      </trkpt>
      <trkpt lat="48.921805992722511" lon="9.492811029776931">
        <ele>276.04000000000002</ele>
        <time>2018-09-19T11:33:50Z</time>
      </trkpt>
      <trkpt lat="48.921798029914498" lon="9.492451027035713">
        <ele>276.04000000000002</ele>
        <time>2018-09-19T11:33:51Z</time>
      </trkpt>
      <trkpt lat="48.921798029914498" lon="9.492088006809354">
        <ele>276.04000000000002</ele>
        <time>2018-09-19T11:33:52Z</time>
      </trkpt>
      <trkpt lat="48.922055019065738" lon="9.489903012290597">
        <ele>274.11000000000001</ele>
        <time>2018-09-19T11:33:58Z</time>
      </trkpt>
      <trkpt lat="48.922503031790257" lon="9.48829703964293">
        <ele>274.11000000000001</ele>
        <time>2018-09-19T11:34:04Z</time>
      </trkpt>
      <trkpt lat="48.922636974602938" lon="9.487905018031597">
        <ele>274.58999999999997</ele>
        <time>2018-09-19T11:34:07Z</time>
      </trkpt>
      <trkpt lat="48.922709980979562" lon="9.487692033872008">
        <ele>274.58999999999997</ele>
        <time>2018-09-19T11:34:09Z</time>
      </trkpt>
      <trkpt lat="48.923042993992567" lon="9.48713799007237">
        <ele>277.48000000000002</ele>
        <time>2018-09-19T11:34:15Z</time>
      </trkpt>
      <trkpt lat="48.923089010640979" lon="9.487062972038984">
        <ele>277.95999999999998</ele>
        <time>2018-09-19T11:34:16Z</time>
      </trkpt>
      <trkpt lat="48.923137038946152" lon="9.486984014511108">
        <ele>278.44</ele>
        <time>2018-09-19T11:34:17Z</time>
      </trkpt>
      <trkpt lat="48.923183977603912" lon="9.486905978992581">
        <ele>278.44</ele>
        <time>2018-09-19T11:34:18Z</time>
      </trkpt>
      <trkpt lat="48.923227982595563" lon="9.486833978444338">
        <ele>278.92000000000002</ele>
        <time>2018-09-19T11:34:19Z</time>
      </trkpt>
      <trkpt lat="48.923271987587214" lon="9.486762983724475">
        <ele>279.39999999999998</ele>
        <time>2018-09-19T11:34:20Z</time>
      </trkpt>
      <trkpt lat="48.923299983143806" lon="9.486715961247683">
        <ele>279.39999999999998</ele>
        <time>2018-09-19T11:34:21Z</time>
      </trkpt>
      <trkpt lat="48.923339964821935" lon="9.486596016213298">
        <ele>279.88</ele>
        <time>2018-09-19T11:34:22Z</time>
      </trkpt>
      <trkpt lat="48.92337198369205" lon="9.486500965431333">
        <ele>279.88</ele>
        <time>2018-09-19T11:34:23Z</time>
      </trkpt>
      <trkpt lat="48.923393022269011" lon="9.486409015953541">
        <ele>280.36000000000001</ele>
        <time>2018-09-19T11:34:24Z</time>
      </trkpt>
      <trkpt lat="48.923408025875688" lon="9.48630197905004">
        <ele>280.83999999999997</ele>
        <time>2018-09-19T11:34:25Z</time>
      </trkpt>
      <trkpt lat="48.923423029482365" lon="9.486194020137191">
        <ele>280.83999999999997</ele>
        <time>2018-09-19T11:34:26Z</time>
      </trkpt>
      <trkpt lat="48.923455970361829" lon="9.48597801849246">
        <ele>281.31999999999999</ele>
        <time>2018-09-19T11:34:28Z</time>
      </trkpt>
      <trkpt lat="48.923471979796886" lon="9.485879028216004">
        <ele>281.80000000000001</ele>
        <time>2018-09-19T11:34:29Z</time>
      </trkpt>
      <trkpt lat="48.923482960090041" lon="9.485564958304167">
        <ele>282.27999999999997</ele>
        <time>2018-09-19T11:34:32Z</time>
      </trkpt>
      <trkpt lat="48.923486983403563" lon="9.485453981906176">
        <ele>281.80000000000001</ele>
        <time>2018-09-19T11:34:33Z</time>
      </trkpt>
      <trkpt lat="48.923491006717086" lon="9.485344011336565">
        <ele>281.31999999999999</ele>
        <time>2018-09-19T11:34:34Z</time>
      </trkpt>
      <trkpt lat="48.923483965918422" lon="9.485252983868122">
        <ele>280.83999999999997</ele>
        <time>2018-09-19T11:34:35Z</time>
      </trkpt>
      <trkpt lat="48.923466028645635" lon="9.485150976106525">
        <ele>280.83999999999997</ele>
        <time>2018-09-19T11:34:36Z</time>
      </trkpt>
      <trkpt lat="48.923447001725435" lon="9.485048968344927">
        <ele>280.36000000000001</ele>
        <time>2018-09-19T11:34:37Z</time>
      </trkpt>
      <trkpt lat="48.923426968976855" lon="9.484944026917219">
        <ele>280.36000000000001</ele>
        <time>2018-09-19T11:34:38Z</time>
      </trkpt>
      <trkpt lat="48.923291014507413" lon="9.484341032803059">
        <ele>276.51999999999998</ele>
        <time>2018-09-19T11:34:44Z</time>
      </trkpt>
      <trkpt lat="48.923281040042639" lon="9.484241958707571">
        <ele>276.04000000000002</ele>
        <time>2018-09-19T11:34:45Z</time>
      </trkpt>
      <trkpt lat="48.923287997022271" lon="9.484138023108244">
        <ele>275.56</ele>
        <time>2018-09-19T11:34:46Z</time>
      </trkpt>
      <trkpt lat="48.923294031992555" lon="9.484037021175027">
        <ele>275.56</ele>
        <time>2018-09-19T11:34:47Z</time>
      </trkpt>
      <trkpt lat="48.923314986750484" lon="9.483923027291894">
        <ele>275.06999999999999</ele>
        <time>2018-09-19T11:34:48Z</time>
      </trkpt>
      <trkpt lat="48.923361003398895" lon="9.483845997601748">
        <ele>275.06999999999999</ele>
        <time>2018-09-19T11:34:49Z</time>
      </trkpt>
      <trkpt lat="48.923426968976855" lon="9.483783971518278">
        <ele>275.06999999999999</ele>
        <time>2018-09-19T11:34:50Z</time>
      </trkpt>
      <trkpt lat="48.923486983403563" lon="9.483728986233473">
        <ele>275.06999999999999</ele>
        <time>2018-09-19T11:34:51Z</time>
      </trkpt>
      <trkpt lat="48.924063993617892" lon="9.483053991571069">
        <ele>273.14999999999998</ele>
        <time>2018-09-19T11:34:59Z</time>
      </trkpt>
      <trkpt lat="48.925079964101315" lon="9.481563018634915">
        <ele>272.67000000000002</ele>
        <time>2018-09-19T11:35:12Z</time>
      </trkpt>
      <trkpt lat="48.925913963466883" lon="9.4806710164994">
        <ele>270.26999999999998</ele>
        <time>2018-09-19T11:35:21Z</time>
      </trkpt>
      <trkpt lat="48.926608990877867" lon="9.480075985193253">
        <ele>269.31</ele>
        <time>2018-09-19T11:35:28Z</time>
      </trkpt>
      <trkpt lat="48.926708986982703" lon="9.479989986866713">
        <ele>269.79000000000002</ele>
        <time>2018-09-19T11:35:29Z</time>
      </trkpt>
      <trkpt lat="48.927420023828745" lon="9.479355979710817">
        <ele>270.26999999999998</ele>
        <time>2018-09-19T11:35:36Z</time>
      </trkpt>
      <trkpt lat="48.927621021866798" lon="9.479197980836034">
        <ele>270.26999999999998</ele>
        <time>2018-09-19T11:35:38Z</time>
      </trkpt>
      <trkpt lat="48.927693022415042" lon="9.479089016094804">
        <ele>270.26999999999998</ele>
        <time>2018-09-19T11:35:39Z</time>
      </trkpt>
      <trkpt lat="48.927737027406693" lon="9.478936968371272">
        <ele>270.26999999999998</ele>
        <time>2018-09-19T11:35:40Z</time>
      </trkpt>
      <trkpt lat="48.927781032398343" lon="9.478789027780294">
        <ele>270.26999999999998</ele>
        <time>2018-09-19T11:35:41Z</time>
      </trkpt>
      <trkpt lat="48.927781032398343" lon="9.478642009198666">
        <ele>270.26999999999998</ele>
        <time>2018-09-19T11:35:42Z</time>
      </trkpt>
      <trkpt lat="48.927778014913201" lon="9.478488033637404">
        <ele>270.26999999999998</ele>
        <time>2018-09-19T11:35:43Z</time>
      </trkpt>
      <trkpt lat="48.927768962457776" lon="9.478118978440762">
        <ele>270.75</ele>
        <time>2018-09-19T11:35:46Z</time>
      </trkpt>
      <trkpt lat="48.927767034620047" lon="9.47802803479135">
        <ele>270.75</ele>
        <time>2018-09-19T11:35:47Z</time>
      </trkpt>
      <trkpt lat="48.927765022963285" lon="9.477951005101204">
        <ele>271.23000000000002</ele>
        <time>2018-09-19T11:35:48Z</time>
      </trkpt>
      <trkpt lat="48.927764017134905" lon="9.477894008159638">
        <ele>271.23000000000002</ele>
        <time>2018-09-19T11:35:49Z</time>
      </trkpt>
      <trkpt lat="48.927763011306524" lon="9.477854026481509">
        <ele>271.70999999999998</ele>
        <time>2018-09-19T11:35:50Z</time>
      </trkpt>
      <trkpt lat="48.927783966064453" lon="9.477786971256137">
        <ele>272.67000000000002</ele>
        <time>2018-09-19T11:36:01Z</time>
      </trkpt>
      <trkpt lat="48.927802992984653" lon="9.477727962657809">
        <ele>273.14999999999998</ele>
        <time>2018-09-19T11:36:02Z</time>
      </trkpt>
      <trkpt lat="48.927827971056104" lon="9.477650010958314">
        <ele>273.63</ele>
        <time>2018-09-19T11:36:03Z</time>
      </trkpt>
      <trkpt lat="48.927855966612697" lon="9.477563006803393">
        <ele>274.11000000000001</ele>
        <time>2018-09-19T11:36:04Z</time>
      </trkpt>
      <trkpt lat="48.927880022674799" lon="9.477485977113247">
        <ele>274.11000000000001</ele>
        <time>2018-09-19T11:36:05Z</time>
      </trkpt>
      <trkpt lat="48.927912963554263" lon="9.47738204151392">
        <ele>274.58999999999997</ele>
        <time>2018-09-19T11:36:06Z</time>
      </trkpt>
      <trkpt lat="48.927888991311193" lon="9.477328984066844">
        <ele>274.58999999999997</ele>
        <time>2018-09-19T11:36:07Z</time>
      </trkpt>
      <trkpt lat="48.927849009633064" lon="9.477241979911923">
        <ele>274.11000000000001</ele>
        <time>2018-09-19T11:36:08Z</time>
      </trkpt>
      <trkpt lat="48.927806010469794" lon="9.477150030434132">
        <ele>274.11000000000001</ele>
        <time>2018-09-19T11:36:09Z</time>
      </trkpt>
      <trkpt lat="48.927760999649763" lon="9.477051040157676">
        <ele>273.63</ele>
        <time>2018-09-19T11:36:10Z</time>
      </trkpt>
      <trkpt lat="48.92771196551621" lon="9.476946014910936">
        <ele>273.63</ele>
        <time>2018-09-19T11:36:11Z</time>
      </trkpt>
      <trkpt lat="48.927655974403024" lon="9.476823974400759">
        <ele>273.14999999999998</ele>
        <time>2018-09-19T11:36:12Z</time>
      </trkpt>
      <trkpt lat="48.927629990503192" lon="9.476695982739329">
        <ele>273.14999999999998</ele>
        <time>2018-09-19T11:36:13Z</time>
      </trkpt>
      <trkpt lat="48.927600989118218" lon="9.476553993299604">
        <ele>273.14999999999998</ele>
        <time>2018-09-19T11:36:14Z</time>
      </trkpt>
      <trkpt lat="48.927230006083846" lon="9.474577959626913">
        <ele>274.11000000000001</ele>
        <time>2018-09-19T11:36:26Z</time>
      </trkpt>
      <trkpt lat="48.927020961418748" lon="9.47252799756825">
        <ele>277.48000000000002</ele>
        <time>2018-09-19T11:36:37Z</time>
      </trkpt>
      <trkpt lat="48.927014004439116" lon="9.472329011186957">
        <ele>277.48000000000002</ele>
        <time>2018-09-19T11:36:38Z</time>
      </trkpt>
      <trkpt lat="48.927007969468832" lon="9.472135975956917">
        <ele>277.48000000000002</ele>
        <time>2018-09-19T11:36:39Z</time>
      </trkpt>
      <trkpt lat="48.9270010124892" lon="9.471936989575625">
        <ele>277.48000000000002</ele>
        <time>2018-09-19T11:36:40Z</time>
      </trkpt>
      <trkpt lat="48.92706697806716" lon="9.469706984236836">
        <ele>283.25</ele>
        <time>2018-09-19T11:36:52Z</time>
      </trkpt>
      <trkpt lat="48.927107965573668" lon="9.468652959913015">
        <ele>286.13</ele>
        <time>2018-09-19T11:37:00Z</time>
      </trkpt>
      <trkpt lat="48.927117018029094" lon="9.468418015167117">
        <ele>286.13</ele>
        <time>2018-09-19T11:37:02Z</time>
      </trkpt>
      <trkpt lat="48.927248027175665" lon="9.468207964673638">
        <ele>286.61000000000001</ele>
        <time>2018-09-19T11:37:04Z</time>
      </trkpt>
      <trkpt lat="48.927248027175665" lon="9.468110986053944">
        <ele>286.61000000000001</ele>
        <time>2018-09-19T11:37:05Z</time>
      </trkpt>
      <trkpt lat="48.927248027175665" lon="9.468091037124395">
        <ele>286.61000000000001</ele>
        <time>2018-09-19T11:37:06Z</time>
      </trkpt>
      <trkpt lat="48.927140990272164" lon="9.467611005529761">
        <ele>286.61000000000001</ele>
        <time>2018-09-19T11:37:09Z</time>
      </trkpt>
      <trkpt lat="48.927020961418748" lon="9.465986005961895">
        <ele>289.97000000000003</ele>
        <time>2018-09-19T11:37:17Z</time>
      </trkpt>
      <trkpt lat="48.926694989204407" lon="9.463701015338302">
        <ele>294.77999999999997</ele>
        <time>2018-09-19T11:37:28Z</time>
      </trkpt>
      <trkpt lat="48.926217975094914" lon="9.460661988705397">
        <ele>300.06999999999999</ele>
        <time>2018-09-19T11:37:43Z</time>
      </trkpt>
      <trkpt lat="48.925698967650533" lon="9.457493964582682">
        <ele>294.77999999999997</ele>
        <time>2018-09-19T11:37:58Z</time>
      </trkpt>
      <trkpt lat="48.925187001004815" lon="9.455893021076918">
        <ele>294.77999999999997</ele>
        <time>2018-09-19T11:38:07Z</time>
      </trkpt>
      <trkpt lat="48.925167974084616" lon="9.455762011930347">
        <ele>294.77999999999997</ele>
        <time>2018-09-19T11:38:08Z</time>
      </trkpt>
      <trkpt lat="48.925150958821177" lon="9.455639971420169">
        <ele>295.25999999999999</ele>
        <time>2018-09-19T11:38:09Z</time>
      </trkpt>
      <trkpt lat="48.925134027376771" lon="9.455520026385784">
        <ele>295.25999999999999</ele>
        <time>2018-09-19T11:38:10Z</time>
      </trkpt>
      <trkpt lat="48.925117012113333" lon="9.455405026674271">
        <ele>295.25999999999999</ele>
        <time>2018-09-19T11:38:11Z</time>
      </trkpt>
      <trkpt lat="48.925102008506656" lon="9.455302013084292">
        <ele>295.25999999999999</ele>
        <time>2018-09-19T11:38:12Z</time>
      </trkpt>
      <trkpt lat="48.925135033205152" lon="9.455119036138058">
        <ele>295.74000000000001</ele>
        <time>2018-09-19T11:38:14Z</time>
      </trkpt>
      <trkpt lat="48.925149030983448" lon="9.45503999479115">
        <ele>295.74000000000001</ele>
        <time>2018-09-19T11:38:15Z</time>
      </trkpt>
      <trkpt lat="48.92517501488328" lon="9.45488803088665">
        <ele>296.69999999999999</ele>
        <time>2018-09-19T11:38:17Z</time>
      </trkpt>
      <trkpt lat="48.925191024318337" lon="9.45480102673173">
        <ele>296.69999999999999</ele>
        <time>2018-09-19T11:38:18Z</time>
      </trkpt>
      <trkpt lat="48.925208039581776" lon="9.454703964293003">
        <ele>297.18000000000001</ele>
        <time>2018-09-19T11:38:19Z</time>
      </trkpt>
      <trkpt lat="48.925260007381439" lon="9.454539008438587">
        <ele>297.67000000000002</ele>
        <time>2018-09-19T11:38:20Z</time>
      </trkpt>
      <trkpt lat="48.925334019586444" lon="9.454454015940428">
        <ele>297.67000000000002</ele>
        <time>2018-09-19T11:38:21Z</time>
      </trkpt>
      <trkpt lat="48.926022006198764" lon="9.453739039599896">
        <ele>298.63</ele>
        <time>2018-09-19T11:38:29Z</time>
      </trkpt>
      <trkpt lat="48.927135961130261" lon="9.45276397280395">
        <ele>301.50999999999999</ele>
        <time>2018-09-19T11:38:39Z</time>
      </trkpt>
      <trkpt lat="48.927985969930887" lon="9.451313987374306">
        <ele>302.47000000000003</ele>
        <time>2018-09-19T11:38:48Z</time>
      </trkpt>
      <trkpt lat="48.928165007382631" lon="9.450974017381668">
        <ele>303.43000000000001</ele>
        <time>2018-09-19T11:38:50Z</time>
      </trkpt>
      <trkpt lat="48.929294971749187" lon="9.449145002290607">
        <ele>306.80000000000001</ele>
        <time>2018-09-19T11:39:02Z</time>
      </trkpt>
      <trkpt lat="48.929965021088719" lon="9.448145963251591">
        <ele>309.68000000000001</ele>
        <time>2018-09-19T11:39:11Z</time>
      </trkpt>
      <trkpt lat="48.930048001930118" lon="9.448030963540077">
        <ele>311.12</ele>
        <time>2018-09-19T11:39:17Z</time>
      </trkpt>
      <trkpt lat="48.930122014135122" lon="9.44792996160686">
        <ele>311.60000000000002</ele>
        <time>2018-09-19T11:39:44Z</time>
      </trkpt>
      <trkpt lat="48.9301179908216" lon="9.447823008522391">
        <ele>312.08999999999997</ele>
        <time>2018-09-19T11:39:45Z</time>
      </trkpt>
      <trkpt lat="48.930091001093388" lon="9.447746984660626">
        <ele>312.08999999999997</ele>
        <time>2018-09-19T11:39:46Z</time>
      </trkpt>
      <trkpt lat="48.930058982223272" lon="9.447655035182834">
        <ele>312.08999999999997</ele>
        <time>2018-09-19T11:39:47Z</time>
      </trkpt>
      <trkpt lat="48.930021012201905" lon="9.447549004107714">
        <ele>312.08999999999997</ele>
        <time>2018-09-19T11:39:48Z</time>
      </trkpt>
      <trkpt lat="48.929997961968184" lon="9.447405003011227">
        <ele>312.56999999999999</ele>
        <time>2018-09-19T11:39:49Z</time>
      </trkpt>
      <trkpt lat="48.929976001381874" lon="9.447253039106727">
        <ele>312.56999999999999</ele>
        <time>2018-09-19T11:39:50Z</time>
      </trkpt>
      <trkpt lat="48.929952029138803" lon="9.447080958634615">
        <ele>312.56999999999999</ele>
        <time>2018-09-19T11:39:51Z</time>
      </trkpt>
      <trkpt lat="48.929981030523777" lon="9.446912985295057">
        <ele>312.56999999999999</ele>
        <time>2018-09-19T11:39:52Z</time>
      </trkpt>
      <trkpt lat="48.93001195974648" lon="9.446733025833964">
        <ele>313.05000000000001</ele>
        <time>2018-09-19T11:39:53Z</time>
      </trkpt>
      <trkpt lat="48.930044984444976" lon="9.446543008089066">
        <ele>313.52999999999997</ele>
        <time>2018-09-19T11:39:54Z</time>
      </trkpt>
      <trkpt lat="48.93009502440691" lon="9.446344021707773">
        <ele>313.52999999999997</ele>
        <time>2018-09-19T11:39:55Z</time>
      </trkpt>
      <trkpt lat="48.930156966671348" lon="9.446142017841339">
        <ele>313.52999999999997</ele>
        <time>2018-09-19T11:39:56Z</time>
      </trkpt>
      <trkpt lat="48.930802037939429" lon="9.444065988063812">
        <ele>311.60000000000002</ele>
        <time>2018-09-19T11:40:05Z</time>
      </trkpt>
      <trkpt lat="48.931846003979445" lon="9.440996032208204">
        <ele>307.27999999999997</ele>
        <time>2018-09-19T11:40:19Z</time>
      </trkpt>
      <trkpt lat="48.93263197503984" lon="9.439545962959528">
        <ele>309.68000000000001</ele>
        <time>2018-09-19T11:40:28Z</time>
      </trkpt>
      <trkpt lat="48.933378970250487" lon="9.438308039680123">
        <ele>318.32999999999998</ele>
        <time>2018-09-19T11:40:38Z</time>
      </trkpt>
      <trkpt lat="48.933410989120603" lon="9.438208965584636">
        <ele>318.81</ele>
        <time>2018-09-19T11:40:39Z</time>
      </trkpt>
      <trkpt lat="48.933423981070518" lon="9.438119027763605">
        <ele>319.30000000000001</ele>
        <time>2018-09-19T11:40:40Z</time>
      </trkpt>
      <trkpt lat="48.933433033525944" lon="9.438060019165278">
        <ele>319.77999999999997</ele>
        <time>2018-09-19T11:40:41Z</time>
      </trkpt>
      <trkpt lat="48.933437978848815" lon="9.438019031658769">
        <ele>320.25999999999999</ele>
        <time>2018-09-19T11:40:42Z</time>
      </trkpt>
      <trkpt lat="48.933443007990718" lon="9.437987012788653">
        <ele>320.25999999999999</ele>
        <time>2018-09-19T11:40:43Z</time>
      </trkpt>
      <trkpt lat="48.93344602547586" lon="9.437966980040073">
        <ele>320.74000000000001</ele>
        <time>2018-09-19T11:40:44Z</time>
      </trkpt>
      <trkpt lat="48.93344602547586" lon="9.437966980040073">
        <ele>320.74000000000001</ele>
        <time>2018-09-19T11:40:59Z</time>
      </trkpt>
      <trkpt lat="48.93344895914197" lon="9.437914006412029">
        <ele>321.22000000000003</ele>
        <time>2018-09-19T11:41:07Z</time>
      </trkpt>
      <trkpt lat="48.93344895914197" lon="9.437828008085489">
        <ele>321.22000000000003</ele>
        <time>2018-09-19T11:41:08Z</time>
      </trkpt>
      <trkpt lat="48.93344895914197" lon="9.437746033072472">
        <ele>321.22000000000003</ele>
        <time>2018-09-19T11:41:09Z</time>
      </trkpt>
      <trkpt lat="48.93344895914197" lon="9.437667997553945">
        <ele>321.22000000000003</ele>
        <time>2018-09-19T11:41:10Z</time>
      </trkpt>
      <trkpt lat="48.93357502296567" lon="9.437574036419392">
        <ele>321.22000000000003</ele>
        <time>2018-09-19T11:41:11Z</time>
      </trkpt>
      <trkpt lat="48.933638976886868" lon="9.437549980357289">
        <ele>321.22000000000003</ele>
        <time>2018-09-19T11:41:12Z</time>
      </trkpt>
      <trkpt lat="48.933709971606731" lon="9.437522990629077">
        <ele>321.22000000000003</ele>
        <time>2018-09-19T11:41:13Z</time>
      </trkpt>
      <trkpt lat="48.933793036267161" lon="9.437491977587342">
        <ele>321.22000000000003</ele>
        <time>2018-09-19T11:41:14Z</time>
      </trkpt>
      <trkpt lat="48.934492003172636" lon="9.43701496347785">
        <ele>321.22000000000003</ele>
        <time>2018-09-19T11:41:21Z</time>
      </trkpt>
      <trkpt lat="48.934668023139238" lon="9.436846990138292">
        <ele>321.22000000000003</ele>
        <time>2018-09-19T11:41:27Z</time>
      </trkpt>
      <trkpt lat="48.93471303395927" lon="9.436802985146642">
        <ele>321.22000000000003</ele>
        <time>2018-09-19T11:41:50Z</time>
      </trkpt>
      <trkpt lat="48.934775982052088" lon="9.436743976548314">
        <ele>320.74000000000001</ele>
        <time>2018-09-19T11:41:51Z</time>
      </trkpt>
      <trkpt lat="48.935289960354567" lon="9.436093959957361">
        <ele>317.85000000000002</ele>
        <time>2018-09-19T11:41:56Z</time>
      </trkpt>
      <trkpt lat="48.935837969183922" lon="9.434933988377452">
        <ele>312.56999999999999</ele>
        <time>2018-09-19T11:42:03Z</time>
      </trkpt>
      <trkpt lat="48.935899995267391" lon="9.434697031974793">
        <ele>311.60000000000002</ele>
        <time>2018-09-19T11:42:05Z</time>
      </trkpt>
      <trkpt lat="48.936092024669051" lon="9.433519039303064">
        <ele>307.75999999999999</ele>
        <time>2018-09-19T11:42:15Z</time>
      </trkpt>
      <trkpt lat="48.936227979138494" lon="9.432641034945846">
        <ele>305.36000000000001</ele>
        <time>2018-09-19T11:42:22Z</time>
      </trkpt>
      <trkpt lat="48.936345996335149" lon="9.43164199590683">
        <ele>304.38999999999999</ele>
        <time>2018-09-19T11:42:30Z</time>
      </trkpt>
      <trkpt lat="48.936359994113445" lon="9.431524984538555">
        <ele>303.91000000000003</ele>
        <time>2018-09-19T11:42:31Z</time>
      </trkpt>
      <trkpt lat="48.936376003548503" lon="9.43138500675559">
        <ele>303.91000000000003</ele>
        <time>2018-09-19T11:42:32Z</time>
      </trkpt>
      <trkpt lat="48.93654003739357" lon="9.429937032982707">
        <ele>304.38999999999999</ele>
        <time>2018-09-19T11:42:39Z</time>
      </trkpt>
      <trkpt lat="48.936633998528123" lon="9.429210992529988">
        <ele>303.43000000000001</ele>
        <time>2018-09-19T11:42:44Z</time>
      </trkpt>
      <trkpt lat="48.936643972992897" lon="9.429153995588422">
        <ele>302.47000000000003</ele>
        <time>2018-09-19T11:42:50Z</time>
      </trkpt>
      <trkpt lat="48.936657970771194" lon="9.429074032232165">
        <ele>301.99000000000001</ele>
        <time>2018-09-19T11:42:53Z</time>
      </trkpt>
      <trkpt lat="48.93673500046134" lon="9.428329970687628">
        <ele>301.50999999999999</ele>
        <time>2018-09-19T11:42:58Z</time>
      </trkpt>
      <trkpt lat="48.936963994055986" lon="9.426572034135461">
        <ele>300.06999999999999</ele>
        <time>2018-09-19T11:43:05Z</time>
      </trkpt>
      <trkpt lat="48.937653992325068" lon="9.421546999365091">
        <ele>291.42000000000002</ele>
        <time>2018-09-19T11:43:23Z</time>
      </trkpt>
      <trkpt lat="48.938324963673949" lon="9.419248010963202">
        <ele>282.27999999999997</ele>
        <time>2018-09-19T11:43:32Z</time>
      </trkpt>
      <trkpt lat="48.939118981361389" lon="9.417594010010362">
        <ele>276.04000000000002</ele>
        <time>2018-09-19T11:43:40Z</time>
      </trkpt>
      <trkpt lat="48.939478984102607" lon="9.417021023109555">
        <ele>273.63</ele>
        <time>2018-09-19T11:43:43Z</time>
      </trkpt>
      <trkpt lat="48.940339973196387" lon="9.415947971865535">
        <ele>270.26999999999998</ele>
        <time>2018-09-19T11:43:51Z</time>
      </trkpt>
      <trkpt lat="48.941846033558249" lon="9.41462597809732">
        <ele>268.82999999999998</ele>
        <time>2018-09-19T11:44:01Z</time>
      </trkpt>
      <trkpt lat="48.944312995299697" lon="9.412672994658351">
        <ele>268.35000000000002</ele>
        <time>2018-09-19T11:44:16Z</time>
      </trkpt>
      <trkpt lat="48.94552300684154" lon="9.411863973364234">
        <ele>269.31</ele>
        <time>2018-09-19T11:44:25Z</time>
      </trkpt>
      <trkpt lat="48.94565200433135" lon="9.41181200556457">
        <ele>269.31</ele>
        <time>2018-09-19T11:44:26Z</time>
      </trkpt>
      <trkpt lat="48.945787036791444" lon="9.411773029714823">
        <ele>269.79000000000002</ele>
        <time>2018-09-19T11:44:27Z</time>
      </trkpt>
      <trkpt lat="48.94605902954936" lon="9.411693988367915">
        <ele>269.79000000000002</ele>
        <time>2018-09-19T11:44:29Z</time>
      </trkpt>
      <trkpt lat="48.947494011372328" lon="9.411558033898473">
        <ele>272.67000000000002</ele>
        <time>2018-09-19T11:44:39Z</time>
      </trkpt>
      <trkpt lat="48.949740026146173" lon="9.411801025271416">
        <ele>275.06999999999999</ele>
        <time>2018-09-19T11:44:52Z</time>
      </trkpt>
      <trkpt lat="48.951068976894021" lon="9.412470990791917">
        <ele>276.04000000000002</ele>
        <time>2018-09-19T11:45:00Z</time>
      </trkpt>
      <trkpt lat="48.951954022049904" lon="9.413375984877348">
        <ele>277.95999999999998</ele>
        <time>2018-09-19T11:45:07Z</time>
      </trkpt>
      <trkpt lat="48.952265996485949" lon="9.413799019530416">
        <ele>279.88</ele>
        <time>2018-09-19T11:45:12Z</time>
      </trkpt>
      <trkpt lat="48.952347971498966" lon="9.413912007585168">
        <ele>281.80000000000001</ele>
        <time>2018-09-19T11:45:21Z</time>
      </trkpt>
      <trkpt lat="48.952532960101962" lon="9.414180982857943">
        <ele>283.25</ele>
        <time>2018-09-19T11:45:31Z</time>
      </trkpt>
      <trkpt lat="48.952575037255883" lon="9.414242003113031">
        <ele>283.25</ele>
        <time>2018-09-19T11:45:32Z</time>
      </trkpt>
      <trkpt lat="48.952882988378406" lon="9.414697978645563">
        <ele>284.69</ele>
        <time>2018-09-19T11:45:39Z</time>
      </trkpt>
      <trkpt lat="48.952924981713295" lon="9.414760004729033">
        <ele>285.17000000000002</ele>
        <time>2018-09-19T11:45:40Z</time>
      </trkpt>
      <trkpt lat="48.953009974211454" lon="9.414796968922019">
        <ele>285.17000000000002</ele>
        <time>2018-09-19T11:45:41Z</time>
      </trkpt>
      <trkpt lat="48.953054985031486" lon="9.414749024435878">
        <ele>285.64999999999998</ele>
        <time>2018-09-19T11:45:42Z</time>
      </trkpt>
      <trkpt lat="48.953109970316291" lon="9.414691021665931">
        <ele>285.64999999999998</ele>
        <time>2018-09-19T11:45:43Z</time>
      </trkpt>
      <trkpt lat="48.953169984742999" lon="9.414627989754081">
        <ele>286.13</ele>
        <time>2018-09-19T11:45:44Z</time>
      </trkpt>
      <trkpt lat="48.953297976404428" lon="9.414494968950748">
        <ele>285.64999999999998</ele>
        <time>2018-09-19T11:45:46Z</time>
      </trkpt>
      <trkpt lat="48.95336301997304" lon="9.414425985887647">
        <ele>285.17000000000002</ele>
        <time>2018-09-19T11:45:47Z</time>
      </trkpt>
      <trkpt lat="48.953443989157677" lon="9.414379969239235">
        <ele>284.69</ele>
        <time>2018-09-19T11:45:48Z</time>
      </trkpt>
      <trkpt lat="48.953526969999075" lon="9.414375023916364">
        <ele>284.20999999999998</ele>
        <time>2018-09-19T11:45:49Z</time>
      </trkpt>
      <trkpt lat="48.953617997467518" lon="9.414369994774461">
        <ele>283.73000000000002</ele>
        <time>2018-09-19T11:45:50Z</time>
      </trkpt>
      <trkpt lat="48.953711036592722" lon="9.414363959804177">
        <ele>283.25</ele>
        <time>2018-09-19T11:45:51Z</time>
      </trkpt>
      <trkpt lat="48.953796029090881" lon="9.414377035573125">
        <ele>282.76999999999998</ele>
        <time>2018-09-19T11:45:52Z</time>
      </trkpt>
      <trkpt lat="48.953881021589041" lon="9.414429003372788">
        <ele>282.27999999999997</ele>
        <time>2018-09-19T11:45:53Z</time>
      </trkpt>
      <trkpt lat="48.953967019915581" lon="9.414480971172452">
        <ele>281.80000000000001</ele>
        <time>2018-09-19T11:45:54Z</time>
      </trkpt>
      <trkpt lat="48.954046983271837" lon="9.414530005306006">
        <ele>281.31999999999999</ele>
        <time>2018-09-19T11:45:55Z</time>
      </trkpt>
      <trkpt lat="48.954120995476842" lon="9.414575016126037">
        <ele>280.83999999999997</ele>
        <time>2018-09-19T11:45:56Z</time>
      </trkpt>
      <trkpt lat="48.954187966883183" lon="9.414630001410842">
        <ele>280.36000000000001</ele>
        <time>2018-09-19T11:45:57Z</time>
      </trkpt>
      <trkpt lat="48.954465994611382" lon="9.414920015260577">
        <ele>277</ele>
        <time>2018-09-19T11:46:02Z</time>
      </trkpt>
      <trkpt lat="48.95450497046113" lon="9.414962008595467">
        <ele>276.51999999999998</ele>
        <time>2018-09-19T11:46:03Z</time>
      </trkpt>
      <trkpt lat="48.954548975452781" lon="9.415007019415498">
        <ele>276.04000000000002</ele>
        <time>2018-09-19T11:46:04Z</time>
      </trkpt>
      <trkpt lat="48.954592980444431" lon="9.41505303606391">
        <ele>275.56</ele>
        <time>2018-09-19T11:46:05Z</time>
      </trkpt>
      <trkpt lat="48.954660035669804" lon="9.415025962516666">
        <ele>275.56</ele>
        <time>2018-09-19T11:46:06Z</time>
      </trkpt>
      <trkpt lat="48.954702029004693" lon="9.414941975846887">
        <ele>275.06999999999999</ele>
        <time>2018-09-19T11:46:07Z</time>
      </trkpt>
      <trkpt lat="48.954753996804357" lon="9.41483804024756">
        <ele>275.06999999999999</ele>
        <time>2018-09-19T11:46:08Z</time>
      </trkpt>
      <trkpt lat="48.954814011231065" lon="9.414713988080621">
        <ele>275.06999999999999</ele>
        <time>2018-09-19T11:46:09Z</time>
      </trkpt>
      <trkpt lat="48.954875031486154" lon="9.414566969498992">
        <ele>275.06999999999999</ele>
        <time>2018-09-19T11:46:10Z</time>
      </trkpt>
      <trkpt lat="48.955467967316508" lon="9.412763016298413">
        <ele>275.56</ele>
        <time>2018-09-19T11:46:20Z</time>
      </trkpt>
      <trkpt lat="48.956286963075399" lon="9.411261985078454">
        <ele>283.73000000000002</ele>
        <time>2018-09-19T11:46:29Z</time>
      </trkpt>
      <trkpt lat="48.957590013742447" lon="9.409831026569009">
        <ele>293.81999999999999</ele>
        <time>2018-09-19T11:46:40Z</time>
      </trkpt>
      <trkpt lat="48.958860039710999" lon="9.408317003399134">
        <ele>301.02999999999997</ele>
        <time>2018-09-19T11:46:51Z</time>
      </trkpt>
      <trkpt lat="48.960163006559014" lon="9.406042993068695">
        <ele>301.99000000000001</ele>
        <time>2018-09-19T11:47:04Z</time>
      </trkpt>
      <trkpt lat="48.961179982870817" lon="9.403902003541589">
        <ele>301.99000000000001</ele>
        <time>2018-09-19T11:47:15Z</time>
      </trkpt>
      <trkpt lat="48.96165800280869" lon="9.40250700339675">
        <ele>301.02999999999997</ele>
        <time>2018-09-19T11:47:23Z</time>
      </trkpt>
      <trkpt lat="48.961837962269783" lon="9.401835026219487">
        <ele>298.63</ele>
        <time>2018-09-19T11:47:30Z</time>
      </trkpt>
      <trkpt lat="48.961851960048079" lon="9.40175699070096">
        <ele>298.63</ele>
        <time>2018-09-19T11:47:31Z</time>
      </trkpt>
      <trkpt lat="48.961870986968279" lon="9.40165095962584">
        <ele>298.63</ele>
        <time>2018-09-19T11:47:32Z</time>
      </trkpt>
      <trkpt lat="48.962014988064766" lon="9.400846967473626">
        <ele>296.22000000000003</ele>
        <time>2018-09-19T11:47:38Z</time>
      </trkpt>
      <trkpt lat="48.962030997499824" lon="9.400756023824215">
        <ele>296.22000000000003</ele>
        <time>2018-09-19T11:47:39Z</time>
      </trkpt>
      <trkpt lat="48.962091011926532" lon="9.400149006396532">
        <ele>295.25999999999999</ele>
        <time>2018-09-19T11:47:45Z</time>
      </trkpt>
      <trkpt lat="48.962209029123187" lon="9.398591984063387">
        <ele>293.33999999999997</ele>
        <time>2018-09-19T11:47:51Z</time>
      </trkpt>
      <trkpt lat="48.962573977187276" lon="9.395960988476872">
        <ele>284.69</ele>
        <time>2018-09-19T11:48:00Z</time>
      </trkpt>
      <trkpt lat="48.963107988238335" lon="9.39442802220583">
        <ele>286.13</ele>
        <time>2018-09-19T11:48:07Z</time>
      </trkpt>
      <trkpt lat="48.963386015966535" lon="9.393793009221554">
        <ele>287.56999999999999</ele>
        <time>2018-09-19T11:48:11Z</time>
      </trkpt>
      <trkpt lat="48.963454999029636" lon="9.393636016175151">
        <ele>288.05000000000001</ele>
        <time>2018-09-19T11:48:12Z</time>
      </trkpt>
      <trkpt lat="48.964264020323753" lon="9.391847988590598">
        <ele>291.42000000000002</ele>
        <time>2018-09-19T11:48:23Z</time>
      </trkpt>
      <trkpt lat="48.965301029384136" lon="9.390249978750944">
        <ele>294.77999999999997</ele>
        <time>2018-09-19T11:48:32Z</time>
      </trkpt>
      <trkpt lat="48.966490002349019" lon="9.389011971652508">
        <ele>302.94999999999999</ele>
        <time>2018-09-19T11:48:41Z</time>
      </trkpt>
      <trkpt lat="48.968257997184992" lon="9.387950990349054">
        <ele>306.80000000000001</ele>
        <time>2018-09-19T11:48:52Z</time>
      </trkpt>
      <trkpt lat="48.970481967553496" lon="9.386762017384172">
        <ele>297.18000000000001</ele>
        <time>2018-09-19T11:49:05Z</time>
      </trkpt>
      <trkpt lat="48.972006971016526" lon="9.385524010285735">
        <ele>294.30000000000001</ele>
        <time>2018-09-19T11:49:14Z</time>
      </trkpt>
      <trkpt lat="48.972954964265227" lon="9.38418198376894">
        <ele>296.22000000000003</ele>
        <time>2018-09-19T11:49:19Z</time>
      </trkpt>
      <trkpt lat="48.97420403547585" lon="9.381700018420816">
        <ele>295.25999999999999</ele>
        <time>2018-09-19T11:49:26Z</time>
      </trkpt>
      <trkpt lat="48.976109996438026" lon="9.377550976350904">
        <ele>289.97000000000003</ele>
        <time>2018-09-19T11:49:38Z</time>
      </trkpt>
      <trkpt lat="48.977180030196905" lon="9.37522198073566">
        <ele>289.00999999999999</ele>
        <time>2018-09-19T11:49:47Z</time>
      </trkpt>
      <trkpt lat="48.978491965681314" lon="9.372347993776202">
        <ele>292.38</ele>
        <time>2018-09-19T11:50:00Z</time>
      </trkpt>
      <trkpt lat="48.979669958353043" lon="9.370507998391986">
        <ele>296.69999999999999</ele>
        <time>2018-09-19T11:50:11Z</time>
      </trkpt>
      <trkpt lat="48.980278987437487" lon="9.369772989302874">
        <ele>299.11000000000001</ele>
        <time>2018-09-19T11:50:18Z</time>
      </trkpt>
      <trkpt lat="48.980573024600744" lon="9.369390020146966">
        <ele>300.55000000000001</ele>
        <time>2018-09-19T11:50:25Z</time>
      </trkpt>
      <trkpt lat="48.981098989024758" lon="9.368637995794416">
        <ele>302.94999999999999</ele>
        <time>2018-09-19T11:50:31Z</time>
      </trkpt>
      <trkpt lat="48.982028039172292" lon="9.366923980414867">
        <ele>303.91000000000003</ele>
        <time>2018-09-19T11:50:42Z</time>
      </trkpt>
      <trkpt lat="48.982476973906159" lon="9.365666024386883">
        <ele>302.47000000000003</ele>
        <time>2018-09-19T11:50:47Z</time>
      </trkpt>
      <trkpt lat="48.982925992459059" lon="9.363708011806011">
        <ele>301.99000000000001</ele>
        <time>2018-09-19T11:50:55Z</time>
      </trkpt>
      <trkpt lat="48.983075022697449" lon="9.361434001475573">
        <ele>304.38999999999999</ele>
        <time>2018-09-19T11:51:04Z</time>
      </trkpt>
      <trkpt lat="48.983140988275409" lon="9.359422009438276">
        <ele>308.24000000000001</ele>
        <time>2018-09-19T11:51:09Z</time>
      </trkpt>
      <trkpt lat="48.983259005472064" lon="9.354989994317293">
        <ele>312.56999999999999</ele>
        <time>2018-09-19T11:51:20Z</time>
      </trkpt>
      <trkpt lat="48.983634011819959" lon="9.35182498767972">
        <ele>314.49000000000001</ele>
        <time>2018-09-19T11:51:29Z</time>
      </trkpt>
      <trkpt lat="48.984115971252322" lon="9.348061010241509">
        <ele>321.22000000000003</ele>
        <time>2018-09-19T11:51:41Z</time>
      </trkpt>
      <trkpt lat="48.984183026477695" lon="9.347131038084626">
        <ele>323.13999999999999</ele>
        <time>2018-09-19T11:51:46Z</time>
      </trkpt>
      <trkpt lat="48.984187971800566" lon="9.3470339756459">
        <ele>323.13999999999999</ele>
        <time>2018-09-19T11:51:47Z</time>
      </trkpt>
      <trkpt lat="48.984326021745801" lon="9.3468820117414">
        <ele>323.62</ele>
        <time>2018-09-19T11:51:48Z</time>
      </trkpt>
      <trkpt lat="48.984386958181858" lon="9.346895003691316">
        <ele>323.13999999999999</ele>
        <time>2018-09-19T11:51:49Z</time>
      </trkpt>
      <trkpt lat="48.984459964558482" lon="9.346911013126373">
        <ele>323.13999999999999</ele>
        <time>2018-09-19T11:51:50Z</time>
      </trkpt>
      <trkpt lat="48.984541017562151" lon="9.34699097648263">
        <ele>323.13999999999999</ele>
        <time>2018-09-19T11:51:51Z</time>
      </trkpt>
      <trkpt lat="48.98460497148335" lon="9.347093990072608">
        <ele>323.13999999999999</ele>
        <time>2018-09-19T11:51:52Z</time>
      </trkpt>
      <trkpt lat="48.984673032537103" lon="9.347237991169095">
        <ele>323.13999999999999</ele>
        <time>2018-09-19T11:51:53Z</time>
      </trkpt>
      <trkpt lat="48.98469096980989" lon="9.347406970337033">
        <ele>323.13999999999999</ele>
        <time>2018-09-19T11:51:54Z</time>
      </trkpt>
      <trkpt lat="48.98471100255847" lon="9.3475900311023">
        <ele>323.13999999999999</ele>
        <time>2018-09-19T11:51:55Z</time>
      </trkpt>
      <trkpt lat="48.984732963144779" lon="9.347789017483592">
        <ele>323.13999999999999</ele>
        <time>2018-09-19T11:51:56Z</time>
      </trkpt>
      <trkpt lat="48.984757019206882" lon="9.347997978329659">
        <ele>323.13999999999999</ele>
        <time>2018-09-19T11:51:57Z</time>
      </trkpt>
      <trkpt lat="48.984824996441603" lon="9.348202999681234">
        <ele>323.13999999999999</ele>
        <time>2018-09-19T11:51:58Z</time>
      </trkpt>
      <trkpt lat="48.984901020303369" lon="9.348412966355681">
        <ele>323.13999999999999</ele>
        <time>2018-09-19T11:51:59Z</time>
      </trkpt>
      <trkpt lat="48.985004033893347" lon="9.348619999364018">
        <ele>323.13999999999999</ele>
        <time>2018-09-19T11:52:00Z</time>
      </trkpt>
      <trkpt lat="48.985856976360083" lon="9.350325968116522">
        <ele>322.18000000000001</ele>
        <time>2018-09-19T11:52:07Z</time>
      </trkpt>
      <trkpt lat="48.986935978755355" lon="9.35251004062593">
        <ele>320.74000000000001</ele>
        <time>2018-09-19T11:52:16Z</time>
      </trkpt>
      <trkpt lat="48.987769978120923" lon="9.354238975793123">
        <ele>316.41000000000003</ele>
        <time>2018-09-19T11:52:23Z</time>
      </trkpt>
      <trkpt lat="48.988898014649749" lon="9.356627985835075">
        <ele>307.75999999999999</ele>
        <time>2018-09-19T11:52:32Z</time>
      </trkpt>
      <trkpt lat="48.989393971860409" lon="9.357921984046698">
        <ele>302.94999999999999</ele>
        <time>2018-09-19T11:52:38Z</time>
      </trkpt>
      <trkpt lat="48.989835027605295" lon="9.359221011400223">
        <ele>301.50999999999999</ele>
        <time>2018-09-19T11:52:47Z</time>
      </trkpt>
      <trkpt lat="48.990352023392916" lon="9.360809968784452">
        <ele>295.74000000000001</ele>
        <time>2018-09-19T11:52:57Z</time>
      </trkpt>
      <trkpt lat="48.990446990355849" lon="9.361151028424501">
        <ele>294.30000000000001</ele>
        <time>2018-09-19T11:53:00Z</time>
      </trkpt>
      <trkpt lat="48.9904909953475" lon="9.361311960965395">
        <ele>293.33999999999997</ele>
        <time>2018-09-19T11:53:03Z</time>
      </trkpt>
      <trkpt lat="48.990590991452336" lon="9.361355965957046">
        <ele>293.33999999999997</ele>
        <time>2018-09-19T11:53:04Z</time>
      </trkpt>
      <trkpt lat="48.990628961473703" lon="9.361302992329001">
        <ele>293.33999999999997</ele>
        <time>2018-09-19T11:53:05Z</time>
      </trkpt>
      <trkpt lat="48.990680007264018" lon="9.361229985952377">
        <ele>292.86000000000001</ele>
        <time>2018-09-19T11:53:06Z</time>
      </trkpt>
      <trkpt lat="48.990739015862346" lon="9.36114801093936">
        <ele>292.86000000000001</ele>
        <time>2018-09-19T11:53:07Z</time>
      </trkpt>
      <trkpt lat="48.990803975611925" lon="9.361054971814156">
        <ele>292.86000000000001</ele>
        <time>2018-09-19T11:53:08Z</time>
      </trkpt>
      <trkpt lat="48.991104969754815" lon="9.3606330268085">
        <ele>293.81999999999999</ele>
        <time>2018-09-19T11:53:12Z</time>
      </trkpt>
      <trkpt lat="48.991218963637948" lon="9.360469998791814">
        <ele>294.30000000000001</ele>
        <time>2018-09-19T11:53:14Z</time>
      </trkpt>
      <trkpt lat="48.991663958877325" lon="9.35960004106164">
        <ele>300.06999999999999</ele>
        <time>2018-09-19T11:53:24Z</time>
      </trkpt>
      <trkpt lat="48.992394022643566" lon="9.358420036733151">
        <ele>304.88</ele>
        <time>2018-09-19T11:53:38Z</time>
      </trkpt>
      <trkpt lat="48.992580017074943" lon="9.358254997059703">
        <ele>306.31999999999999</ele>
        <time>2018-09-19T11:53:40Z</time>
      </trkpt>
      <trkpt lat="48.993599005043507" lon="9.357322007417679">
        <ele>313.05000000000001</ele>
        <time>2018-09-19T11:53:50Z</time>
      </trkpt>
      <trkpt lat="48.994479021057487" lon="9.356490019708872">
        <ele>322.66000000000003</ele>
        <time>2018-09-19T11:54:00Z</time>
      </trkpt>
      <trkpt lat="48.994570970535278" lon="9.356407038867474">
        <ele>323.62</ele>
        <time>2018-09-19T11:54:01Z</time>
      </trkpt>
      <trkpt lat="48.995193997398019" lon="9.355745958164334">
        <ele>328.43000000000001</ele>
        <time>2018-09-19T11:54:08Z</time>
      </trkpt>
      <trkpt lat="48.995374962687492" lon="9.355529034510255">
        <ele>329.87</ele>
        <time>2018-09-19T11:54:10Z</time>
      </trkpt>
      <trkpt lat="48.996630990877748" lon="9.354183990508318">
        <ele>339</ele>
        <time>2018-09-19T11:54:21Z</time>
      </trkpt>
      <trkpt lat="48.997210012748837" lon="9.3535649869591">
        <ele>346.69</ele>
        <time>2018-09-19T11:54:26Z</time>
      </trkpt>
      <trkpt lat="48.997282013297081" lon="9.353450993075967">
        <ele>348.62</ele>
        <time>2018-09-19T11:54:27Z</time>
      </trkpt>
      <trkpt lat="48.997331969439983" lon="9.353294000029564">
        <ele>350.06</ele>
        <time>2018-09-19T11:54:28Z</time>
      </trkpt>
      <trkpt lat="48.99738703854382" lon="9.353120997548103">
        <ele>351.01999999999998</ele>
        <time>2018-09-19T11:54:29Z</time>
      </trkpt>
      <trkpt lat="48.99743003770709" lon="9.352927040308714">
        <ele>352.94</ele>
        <time>2018-09-19T11:54:30Z</time>
      </trkpt>
      <trkpt lat="48.997459961101413" lon="9.352703997865319">
        <ele>354.38</ele>
        <time>2018-09-19T11:54:31Z</time>
      </trkpt>
      <trkpt lat="48.997821975499392" lon="9.350552028045058">
        <ele>368.31999999999999</ele>
        <time>2018-09-19T11:54:39Z</time>
      </trkpt>
      <trkpt lat="48.998261019587517" lon="9.348316993564367">
        <ele>378.89999999999998</ele>
        <time>2018-09-19T11:54:47Z</time>
      </trkpt>
      <trkpt lat="48.998369984328747" lon="9.347974006086588">
        <ele>381.30000000000001</ele>
        <time>2018-09-19T11:54:49Z</time>
      </trkpt>
      <trkpt lat="48.998437039554119" lon="9.347846014425159">
        <ele>382.25999999999999</ele>
        <time>2018-09-19T11:54:50Z</time>
      </trkpt>
      <trkpt lat="48.99850401096046" lon="9.347718022763729">
        <ele>383.22000000000003</ele>
        <time>2018-09-19T11:54:51Z</time>
      </trkpt>
      <trkpt lat="48.998580034822226" lon="9.347601011395454">
        <ele>384.18000000000001</ele>
        <time>2018-09-19T11:54:52Z</time>
      </trkpt>
      <trkpt lat="48.998670978471637" lon="9.347515013068914">
        <ele>384.66000000000003</ele>
        <time>2018-09-19T11:54:53Z</time>
      </trkpt>
      <trkpt lat="48.999614026397467" lon="9.346772963181138">
        <ele>386.58999999999997</ele>
        <time>2018-09-19T11:55:02Z</time>
      </trkpt>
      <trkpt lat="49.000440984964371" lon="9.346341965720058">
        <ele>386.11000000000001</ele>
        <time>2018-09-19T11:55:10Z</time>
      </trkpt>
      <trkpt lat="49.001611014828086" lon="9.345924966037273">
        <ele>386.11000000000001</ele>
        <time>2018-09-19T11:55:20Z</time>
      </trkpt>
      <trkpt lat="49.002296989783645" lon="9.34576696716249">
        <ele>382.74000000000001</ele>
        <time>2018-09-19T11:55:25Z</time>
      </trkpt>
      <trkpt lat="49.002441996708512" lon="9.345783982425928">
        <ele>382.25999999999999</ele>
        <time>2018-09-19T11:55:26Z</time>
      </trkpt>
      <trkpt lat="49.00305999442935" lon="9.345857994630933">
        <ele>380.81999999999999</ele>
        <time>2018-09-19T11:55:30Z</time>
      </trkpt>
      <trkpt lat="49.003205001354218" lon="9.345841985195875">
        <ele>380.33999999999997</ele>
        <time>2018-09-19T11:55:31Z</time>
      </trkpt>
      <trkpt lat="49.003336010500789" lon="9.345762021839619">
        <ele>380.33999999999997</ele>
        <time>2018-09-19T11:55:32Z</time>
      </trkpt>
      <trkpt lat="49.003460984677076" lon="9.34563604183495">
        <ele>379.86000000000001</ele>
        <time>2018-09-19T11:55:33Z</time>
      </trkpt>
      <trkpt lat="49.003583025187254" lon="9.345472007989883">
        <ele>379.86000000000001</ele>
        <time>2018-09-19T11:55:34Z</time>
      </trkpt>
      <trkpt lat="49.003702970221639" lon="9.345284001901746">
        <ele>379.86000000000001</ele>
        <time>2018-09-19T11:55:35Z</time>
      </trkpt>
      <trkpt lat="49.004606958478689" lon="9.343843990936875">
        <ele>381.77999999999997</ele>
        <time>2018-09-19T11:55:42Z</time>
      </trkpt>
      <trkpt lat="49.005752010270953" lon="9.342058980837464">
        <ele>386.11000000000001</ele>
        <time>2018-09-19T11:55:53Z</time>
      </trkpt>
      <trkpt lat="49.006882980465889" lon="9.34032803401351">
        <ele>389.47000000000003</ele>
        <time>2018-09-19T11:56:03Z</time>
      </trkpt>
      <trkpt lat="49.008038006722927" lon="9.338561967015266">
        <ele>386.11000000000001</ele>
        <time>2018-09-19T11:56:11Z</time>
      </trkpt>
      <trkpt lat="49.00963400490582" lon="9.336142027750611">
        <ele>380.33999999999997</ele>
        <time>2018-09-19T11:56:21Z</time>
      </trkpt>
      <trkpt lat="49.010060979053378" lon="9.335650010034442">
        <ele>378.89999999999998</ele>
        <time>2018-09-19T11:56:24Z</time>
      </trkpt>
      <trkpt lat="49.010207997635007" lon="9.335564011707902">
        <ele>378.42000000000002</ele>
        <time>2018-09-19T11:56:25Z</time>
      </trkpt>
      <trkpt lat="49.010347975417972" lon="9.335493016988039">
        <ele>377.94</ele>
        <time>2018-09-19T11:56:26Z</time>
      </trkpt>
      <trkpt lat="49.010490970686078" lon="9.335464015603066">
        <ele>377.44999999999999</ele>
        <time>2018-09-19T11:56:27Z</time>
      </trkpt>
      <trkpt lat="49.01064301840961" lon="9.335481030866504">
        <ele>376.49000000000001</ele>
        <time>2018-09-19T11:56:28Z</time>
      </trkpt>
      <trkpt lat="49.010796993970871" lon="9.33549796231091">
        <ele>376.00999999999999</ele>
        <time>2018-09-19T11:56:29Z</time>
      </trkpt>
      <trkpt lat="49.010950969532132" lon="9.335487987846136">
        <ele>375.05000000000001</ele>
        <time>2018-09-19T11:56:30Z</time>
      </trkpt>
      <trkpt lat="49.011110980063677" lon="9.335463009774685">
        <ele>373.61000000000001</ele>
        <time>2018-09-19T11:56:31Z</time>
      </trkpt>
      <trkpt lat="49.011265961453319" lon="9.335372988134623">
        <ele>371.69</ele>
        <time>2018-09-19T11:56:32Z</time>
      </trkpt>
      <trkpt lat="49.0124929882586" lon="9.334599003195763">
        <ele>359.19</ele>
        <time>2018-09-19T11:56:39Z</time>
      </trkpt>
      <trkpt lat="49.012637995183468" lon="9.334576958790422">
        <ele>357.26999999999998</ele>
        <time>2018-09-19T11:56:40Z</time>
      </trkpt>
      <trkpt lat="49.012783002108335" lon="9.33457100763917">
        <ele>355.82999999999998</ele>
        <time>2018-09-19T11:56:41Z</time>
      </trkpt>
      <trkpt lat="49.013100005686283" lon="9.334560027346015">
        <ele>352.45999999999998</ele>
        <time>2018-09-19T11:56:43Z</time>
      </trkpt>
      <trkpt lat="49.013290023431182" lon="9.334470005705953">
        <ele>350.54000000000002</ele>
        <time>2018-09-19T11:56:44Z</time>
      </trkpt>
      <trkpt lat="49.013465037569404" lon="9.334388030692935">
        <ele>348.62</ele>
        <time>2018-09-19T11:56:45Z</time>
      </trkpt>
      <trkpt lat="49.013625970110297" lon="9.334243023768067">
        <ele>346.69</ele>
        <time>2018-09-19T11:56:46Z</time>
      </trkpt>
      <trkpt lat="49.013763014227152" lon="9.334072032943368">
        <ele>344.76999999999998</ele>
        <time>2018-09-19T11:56:47Z</time>
      </trkpt>
      <trkpt lat="49.013895029202104" lon="9.333874974399805">
        <ele>343.32999999999998</ele>
        <time>2018-09-19T11:56:48Z</time>
      </trkpt>
      <trkpt lat="49.014030983671546" lon="9.333672970533371">
        <ele>341.41000000000003</ele>
        <time>2018-09-19T11:56:49Z</time>
      </trkpt>
      <trkpt lat="49.01429601944983" lon="9.33328103274107">
        <ele>338.04000000000002</ele>
        <time>2018-09-19T11:56:51Z</time>
      </trkpt>
      <trkpt lat="49.014433985576034" lon="9.333165027201176">
        <ele>336.60000000000002</ele>
        <time>2018-09-19T11:56:52Z</time>
      </trkpt>
      <trkpt lat="49.014589972794056" lon="9.33309000916779">
        <ele>334.68000000000001</ele>
        <time>2018-09-19T11:56:53Z</time>
      </trkpt>
      <trkpt lat="49.014758029952645" lon="9.333009961992502">
        <ele>332.75</ele>
        <time>2018-09-19T11:56:54Z</time>
      </trkpt>
      <trkpt lat="49.014936983585358" lon="9.332905020564795">
        <ele>330.35000000000002</ele>
        <time>2018-09-19T11:56:55Z</time>
      </trkpt>
      <trkpt lat="49.015106968581676" lon="9.332766970619559">
        <ele>327.94999999999999</ele>
        <time>2018-09-19T11:56:56Z</time>
      </trkpt>
      <trkpt lat="49.015269996598363" lon="9.332612995058298">
        <ele>325.54000000000002</ele>
        <time>2018-09-19T11:56:57Z</time>
      </trkpt>
      <trkpt lat="49.01541399769485" lon="9.332430018112063">
        <ele>323.13999999999999</ele>
        <time>2018-09-19T11:56:58Z</time>
      </trkpt>
      <trkpt lat="49.015541989356279" lon="9.332220973446965">
        <ele>321.22000000000003</ele>
        <time>2018-09-19T11:56:59Z</time>
      </trkpt>
      <trkpt lat="49.015656989067793" lon="9.332007989287376">
        <ele>319.30000000000001</ele>
        <time>2018-09-19T11:57:00Z</time>
      </trkpt>
      <trkpt lat="49.016642030328512" lon="9.330637967213988">
        <ele>305.83999999999997</ele>
        <time>2018-09-19T11:57:07Z</time>
      </trkpt>
      <trkpt lat="49.017400005832314" lon="9.329658960923553">
        <ele>294.77999999999997</ele>
        <time>2018-09-19T11:57:12Z</time>
      </trkpt>
      <trkpt lat="49.018225036561489" lon="9.328105039894581">
        <ele>277.95999999999998</ele>
        <time>2018-09-19T11:57:19Z</time>
      </trkpt>
      <trkpt lat="49.018346993252635" lon="9.327967995777726">
        <ele>276.04000000000002</ele>
        <time>2018-09-19T11:57:20Z</time>
      </trkpt>
      <trkpt lat="49.018474984914064" lon="9.32784796692431">
        <ele>274.58999999999997</ele>
        <time>2018-09-19T11:57:21Z</time>
      </trkpt>
      <trkpt lat="49.018612029030919" lon="9.327734978869557">
        <ele>272.67000000000002</ele>
        <time>2018-09-19T11:57:22Z</time>
      </trkpt>
      <trkpt lat="49.019948020577431" lon="9.326983960345388">
        <ele>256.81</ele>
        <time>2018-09-19T11:57:30Z</time>
      </trkpt>
      <trkpt lat="49.021372022107244" lon="9.326227996498346">
        <ele>243.83000000000001</ele>
        <time>2018-09-19T11:57:40Z</time>
      </trkpt>
      <trkpt lat="49.022542973980308" lon="9.325579991564155">
        <ele>236.13999999999999</ele>
        <time>2018-09-19T11:57:51Z</time>
      </trkpt>
      <trkpt lat="49.023120990023017" lon="9.325134996324778">
        <ele>234.22</ele>
        <time>2018-09-19T11:57:58Z</time>
      </trkpt>
      <trkpt lat="49.023489039391279" lon="9.32488102465868">
        <ele>233.74000000000001</ele>
        <time>2018-09-19T11:58:03Z</time>
      </trkpt>
      <trkpt lat="49.023601021617651" lon="9.324824027717114">
        <ele>233.74000000000001</ele>
        <time>2018-09-19T11:58:05Z</time>
      </trkpt>
      <trkpt lat="49.023630023002625" lon="9.324810029938817">
        <ele>233.74000000000001</ele>
        <time>2018-09-19T11:58:06Z</time>
      </trkpt>
      <trkpt lat="49.023641003295779" lon="9.324805000796914">
        <ele>233.74000000000001</ele>
        <time>2018-09-19T11:58:16Z</time>
      </trkpt>
      <trkpt lat="49.023667993023992" lon="9.324791003018618">
        <ele>233.74000000000001</ele>
        <time>2018-09-19T11:58:17Z</time>
      </trkpt>
      <trkpt lat="49.023705963045359" lon="9.324722019955516">
        <ele>233.74000000000001</ele>
        <time>2018-09-19T11:58:18Z</time>
      </trkpt>
      <trkpt lat="49.023718032985926" lon="9.324618000537157">
        <ele>234.22</ele>
        <time>2018-09-19T11:58:19Z</time>
      </trkpt>
      <trkpt lat="49.023733036592603" lon="9.324495960026979">
        <ele>234.22</ele>
        <time>2018-09-19T11:58:20Z</time>
      </trkpt>
      <trkpt lat="49.02374804019928" lon="9.324361011385918">
        <ele>234.22</ele>
        <time>2018-09-19T11:58:21Z</time>
      </trkpt>
      <trkpt lat="49.024024978280067" lon="9.322811029851437">
        <ele>233.74000000000001</ele>
        <time>2018-09-19T11:58:31Z</time>
      </trkpt>
      <trkpt lat="49.02405297383666" lon="9.322658982127905">
        <ele>233.74000000000001</ele>
        <time>2018-09-19T11:58:32Z</time>
      </trkpt>
      <trkpt lat="49.024079963564873" lon="9.322513975203037">
        <ele>233.74000000000001</ele>
        <time>2018-09-19T11:58:33Z</time>
      </trkpt>
      <trkpt lat="49.024099996313453" lon="9.322381960228086">
        <ele>233.25999999999999</ele>
        <time>2018-09-19T11:58:34Z</time>
      </trkpt>
      <trkpt lat="49.024169985204935" lon="9.321946017444134">
        <ele>231.33000000000001</ele>
        <time>2018-09-19T11:58:41Z</time>
      </trkpt>
      <trkpt lat="49.024177026003599" lon="9.321907041594386">
        <ele>230.84999999999999</ele>
        <time>2018-09-19T11:59:05Z</time>
      </trkpt>
      <trkpt lat="49.024285990744829" lon="9.321710988879204">
        <ele>229.88999999999999</ele>
        <time>2018-09-19T11:59:07Z</time>
      </trkpt>
      <trkpt lat="49.024344999343157" lon="9.321733033284545">
        <ele>229.88999999999999</ele>
        <time>2018-09-19T11:59:08Z</time>
      </trkpt>
      <trkpt lat="49.024424040690064" lon="9.321762034669519">
        <ele>229.41</ele>
        <time>2018-09-19T11:59:09Z</time>
      </trkpt>
      <trkpt lat="49.024623027071357" lon="9.321835041046143">
        <ele>228.93000000000001</ele>
        <time>2018-09-19T11:59:11Z</time>
      </trkpt>
      <trkpt lat="49.02561703696847" lon="9.321653991937637">
        <ele>228.93000000000001</ele>
        <time>2018-09-19T11:59:19Z</time>
      </trkpt>
      <trkpt lat="49.025735976174474" lon="9.321608981117606">
        <ele>228.93000000000001</ele>
        <time>2018-09-19T11:59:20Z</time>
      </trkpt>
      <trkpt lat="49.026108970865607" lon="9.321381999179721">
        <ele>229.88999999999999</ele>
        <time>2018-09-19T11:59:23Z</time>
      </trkpt>
      <trkpt lat="49.026247020810843" lon="9.321299018338323">
        <ele>229.88999999999999</ele>
        <time>2018-09-19T11:59:24Z</time>
      </trkpt>
      <trkpt lat="49.027665993198752" lon="9.320444986224175">
        <ele>233.25999999999999</ele>
        <time>2018-09-19T11:59:33Z</time>
      </trkpt>
      <trkpt lat="49.029564997181296" lon="9.319278979673982">
        <ele>238.53999999999999</ele>
        <time>2018-09-19T11:59:42Z</time>
      </trkpt>
      <trkpt lat="49.03208501636982" lon="9.317462034523487">
        <ele>245.75</ele>
        <time>2018-09-19T11:59:54Z</time>
      </trkpt>
      <trkpt lat="49.033630974590778" lon="9.316571038216353">
        <ele>248.63999999999999</ele>
        <time>2018-09-19T12:00:02Z</time>
      </trkpt>
      <trkpt lat="49.034737972542644" lon="9.316491996869445">
        <ele>247.68000000000001</ele>
        <time>2018-09-19T12:00:09Z</time>
      </trkpt>
      <trkpt lat="49.035728964954615" lon="9.316519992426038">
        <ele>245.27000000000001</ele>
        <time>2018-09-19T12:00:18Z</time>
      </trkpt>
      <trkpt lat="49.037231002002954" lon="9.316557040438056">
        <ele>246.22999999999999</ele>
        <time>2018-09-19T12:00:31Z</time>
      </trkpt>
      <trkpt lat="49.037988977506757" lon="9.316514963284135">
        <ele>247.68000000000001</ele>
        <time>2018-09-19T12:00:39Z</time>
      </trkpt>
      <trkpt lat="49.038704037666321" lon="9.316413961350918">
        <ele>250.56</ele>
        <time>2018-09-19T12:00:49Z</time>
      </trkpt>
      <trkpt lat="49.038770003244281" lon="9.316404992714524">
        <ele>251.03999999999999</ele>
        <time>2018-09-19T12:00:50Z</time>
      </trkpt>
      <trkpt lat="49.038895983248949" lon="9.316386971622706">
        <ele>252</ele>
        <time>2018-09-19T12:00:52Z</time>
      </trkpt>
      <trkpt lat="49.038914004340768" lon="9.316384959965944">
        <ele>252.47999999999999</ele>
        <time>2018-09-19T12:00:53Z</time>
      </trkpt>
      <trkpt lat="49.039048030972481" lon="9.316485961899161">
        <ele>252.96000000000001</ele>
        <time>2018-09-19T12:00:54Z</time>
      </trkpt>
      <trkpt lat="49.039084995165467" lon="9.316448997706175">
        <ele>252.96000000000001</ele>
        <time>2018-09-19T12:00:55Z</time>
      </trkpt>
      <trkpt lat="49.039159007370472" lon="9.316315976902843">
        <ele>253.44</ele>
        <time>2018-09-19T12:00:56Z</time>
      </trkpt>
      <trkpt lat="49.039224972948432" lon="9.31626501493156">
        <ele>253.44</ele>
        <time>2018-09-19T12:00:57Z</time>
      </trkpt>
      <trkpt lat="49.039371991530061" lon="9.316108021885157">
        <ele>253.93000000000001</ele>
        <time>2018-09-19T12:00:59Z</time>
      </trkpt>
      <trkpt lat="49.039444997906685" lon="9.31602998636663">
        <ele>253.44</ele>
        <time>2018-09-19T12:01:00Z</time>
      </trkpt>
      <trkpt lat="49.039514986798167" lon="9.315955974161625">
        <ele>253.44</ele>
        <time>2018-09-19T12:01:01Z</time>
      </trkpt>
      <trkpt lat="49.039624035358429" lon="9.315737038850784">
        <ele>252.47999999999999</ele>
        <time>2018-09-19T12:01:03Z</time>
      </trkpt>
      <trkpt lat="49.039681032299995" lon="9.31562296114862">
        <ele>252.47999999999999</ele>
        <time>2018-09-19T12:01:04Z</time>
      </trkpt>
      <trkpt lat="49.039783040061593" lon="9.31540897116065">
        <ele>252</ele>
        <time>2018-09-19T12:01:06Z</time>
      </trkpt>
      <trkpt lat="49.039828972890973" lon="9.315304029732943">
        <ele>252</ele>
        <time>2018-09-19T12:01:07Z</time>
      </trkpt>
      <trkpt lat="49.039877001196146" lon="9.315200010314584">
        <ele>252</ele>
        <time>2018-09-19T12:01:08Z</time>
      </trkpt>
      <trkpt lat="49.0399260353297" lon="9.315095990896225">
        <ele>252</ele>
        <time>2018-09-19T12:01:09Z</time>
      </trkpt>
      <trkpt lat="49.039983032271266" lon="9.314986020326614">
        <ele>251.52000000000001</ele>
        <time>2018-09-19T12:01:10Z</time>
      </trkpt>
      <trkpt lat="49.040180006995797" lon="9.314743028953672">
        <ele>251.52000000000001</ele>
        <time>2018-09-19T12:01:13Z</time>
      </trkpt>
      <trkpt lat="49.040253013372421" lon="9.314681002870202">
        <ele>251.52000000000001</ele>
        <time>2018-09-19T12:01:14Z</time>
      </trkpt>
      <trkpt lat="49.040476977825165" lon="9.314519986510277">
        <ele>251.03999999999999</ele>
        <time>2018-09-19T12:01:17Z</time>
      </trkpt>
      <trkpt lat="49.040550990030169" lon="9.31446298956871">
        <ele>251.03999999999999</ele>
        <time>2018-09-19T12:01:18Z</time>
      </trkpt>
      <trkpt lat="49.040625002235174" lon="9.314405992627144">
        <ele>251.03999999999999</ele>
        <time>2018-09-19T12:01:19Z</time>
      </trkpt>
      <trkpt lat="49.040752993896604" lon="9.314257968217135">
        <ele>250.56</ele>
        <time>2018-09-19T12:01:21Z</time>
      </trkpt>
      <trkpt lat="49.040816025808454" lon="9.314171969890595">
        <ele>250.56</ele>
        <time>2018-09-19T12:01:22Z</time>
      </trkpt>
      <trkpt lat="49.040888026356697" lon="9.314045989885926">
        <ele>251.03999999999999</ele>
        <time>2018-09-19T12:01:23Z</time>
      </trkpt>
      <trkpt lat="49.040908981114626" lon="9.313956974074245">
        <ele>250.56</ele>
        <time>2018-09-19T12:01:24Z</time>
      </trkpt>
      <trkpt lat="49.040939994156361" lon="9.313826970756054">
        <ele>250.56</ele>
        <time>2018-09-19T12:01:25Z</time>
      </trkpt>
      <trkpt lat="49.040971007198095" lon="9.313698979094625">
        <ele>250.56</ele>
        <time>2018-09-19T12:01:26Z</time>
      </trkpt>
      <trkpt lat="49.041000008583069" lon="9.31357903406024">
        <ele>250.56</ele>
        <time>2018-09-19T12:01:27Z</time>
      </trkpt>
      <trkpt lat="49.041046025231481" lon="9.313469985499978">
        <ele>250.08000000000001</ele>
        <time>2018-09-19T12:01:28Z</time>
      </trkpt>
      <trkpt lat="49.041109979152679" lon="9.313384993001819">
        <ele>249.59999999999999</ele>
        <time>2018-09-19T12:01:29Z</time>
      </trkpt>
      <trkpt lat="49.041179968044162" lon="9.313307041302323">
        <ele>249.59999999999999</ele>
        <time>2018-09-19T12:01:30Z</time>
      </trkpt>
      <trkpt lat="49.041252974420786" lon="9.313241997733712">
        <ele>249.59999999999999</ele>
        <time>2018-09-19T12:01:31Z</time>
      </trkpt>
      <trkpt lat="49.041556986048818" lon="9.313034964725375">
        <ele>250.08000000000001</ele>
        <time>2018-09-19T12:01:35Z</time>
      </trkpt>
      <trkpt lat="49.041697969660163" lon="9.31295701302588">
        <ele>250.08000000000001</ele>
        <time>2018-09-19T12:01:37Z</time>
      </trkpt>
      <trkpt lat="49.042049003764987" lon="9.312815023586154">
        <ele>251.03999999999999</ele>
        <time>2018-09-19T12:01:42Z</time>
      </trkpt>
      <trkpt lat="49.042123015969992" lon="9.312787028029561">
        <ele>251.03999999999999</ele>
        <time>2018-09-19T12:01:43Z</time>
      </trkpt>
      <trkpt lat="49.042271040380001" lon="9.312740005552769">
        <ele>252</ele>
        <time>2018-09-19T12:01:45Z</time>
      </trkpt>
      <trkpt lat="49.042349997907877" lon="9.312749980017543">
        <ele>252</ele>
        <time>2018-09-19T12:01:46Z</time>
      </trkpt>
      <trkpt lat="49.04250699095428" lon="9.312779987230897">
        <ele>252.96000000000001</ele>
        <time>2018-09-19T12:01:48Z</time>
      </trkpt>
      <trkpt lat="49.042588965967298" lon="9.312795996665955">
        <ele>252.96000000000001</ele>
        <time>2018-09-19T12:01:49Z</time>
      </trkpt>
      <trkpt lat="49.042673036456108" lon="9.312812006101012">
        <ele>253.44</ele>
        <time>2018-09-19T12:01:50Z</time>
      </trkpt>
      <trkpt lat="49.042757023125887" lon="9.31282801553607">
        <ele>253.93000000000001</ele>
        <time>2018-09-19T12:01:51Z</time>
      </trkpt>
      <trkpt lat="49.042836986482143" lon="9.312844024971128">
        <ele>254.41</ele>
        <time>2018-09-19T12:01:52Z</time>
      </trkpt>
      <trkpt lat="49.04291401617229" lon="9.312833966687322">
        <ele>255.37</ele>
        <time>2018-09-19T12:01:53Z</time>
      </trkpt>
      <trkpt lat="49.042994985356927" lon="9.312818963080645">
        <ele>255.84999999999999</ele>
        <time>2018-09-19T12:01:54Z</time>
      </trkpt>
      <trkpt lat="49.043071009218693" lon="9.312749980017543">
        <ele>256.32999999999998</ele>
        <time>2018-09-19T12:01:55Z</time>
      </trkpt>
      <trkpt lat="49.043150972574949" lon="9.312676973640919">
        <ele>256.81</ele>
        <time>2018-09-19T12:01:56Z</time>
      </trkpt>
      <trkpt lat="49.04323797672987" lon="9.312598016113043">
        <ele>257.29000000000002</ele>
        <time>2018-09-19T12:01:57Z</time>
      </trkpt>
      <trkpt lat="49.044255958870053" lon="9.311837023124099">
        <ele>259.20999999999998</ele>
        <time>2018-09-19T12:02:06Z</time>
      </trkpt>
      <trkpt lat="49.044650997966528" lon="9.311461010947824">
        <ele>259.69</ele>
        <time>2018-09-19T12:02:09Z</time>
      </trkpt>
      <trkpt lat="49.045716002583504" lon="9.3099719658494">
        <ele>262.57999999999998</ele>
        <time>2018-09-19T12:02:17Z</time>
      </trkpt>
      <trkpt lat="49.046673970296979" lon="9.308048989623785">
        <ele>268.35000000000002</ele>
        <time>2018-09-19T12:02:26Z</time>
      </trkpt>
      <trkpt lat="49.047568989917636" lon="9.305691998451948">
        <ele>277.95999999999998</ele>
        <time>2018-09-19T12:02:37Z</time>
      </trkpt>
      <trkpt lat="49.047958999872208" lon="9.304146962240338">
        <ele>281.31999999999999</ele>
        <time>2018-09-19T12:02:44Z</time>
      </trkpt>
      <trkpt lat="49.048255970701575" lon="9.301625015214086">
        <ele>284.69</ele>
        <time>2018-09-19T12:02:53Z</time>
      </trkpt>
      <trkpt lat="49.049010006710887" lon="9.299215972423554">
        <ele>280.36000000000001</ele>
        <time>2018-09-19T12:03:02Z</time>
      </trkpt>
      <trkpt lat="49.049913994967937" lon="9.296612972393632">
        <ele>270.26999999999998</ele>
        <time>2018-09-19T12:03:11Z</time>
      </trkpt>
      <trkpt lat="49.050035029649734" lon="9.295594990253449">
        <ele>266.89999999999998</ele>
        <time>2018-09-19T12:03:14Z</time>
      </trkpt>
      <trkpt lat="49.04987895861268" lon="9.293496999889612">
        <ele>259.20999999999998</ele>
        <time>2018-09-19T12:03:20Z</time>
      </trkpt>
      <trkpt lat="49.0497069619596" lon="9.290564004331827">
        <ele>252.96000000000001</ele>
        <time>2018-09-19T12:03:29Z</time>
      </trkpt>
      <trkpt lat="49.050055984407663" lon="9.288048008456826">
        <ele>249.59999999999999</ele>
        <time>2018-09-19T12:03:37Z</time>
      </trkpt>
      <trkpt lat="49.050839021801949" lon="9.285775003954768">
        <ele>245.27000000000001</ele>
        <time>2018-09-19T12:03:45Z</time>
      </trkpt>
      <trkpt lat="49.05161501839757" lon="9.283821014687419">
        <ele>239.99000000000001</ele>
        <time>2018-09-19T12:03:53Z</time>
      </trkpt>
      <trkpt lat="49.052071999758482" lon="9.283108972012997">
        <ele>237.58000000000001</ele>
        <time>2018-09-19T12:03:58Z</time>
      </trkpt>
      <trkpt lat="49.052290013059974" lon="9.282818958163261">
        <ele>236.62</ele>
        <time>2018-09-19T12:04:04Z</time>
      </trkpt>
      <trkpt lat="49.052290013059974" lon="9.282818958163261">
        <ele>236.13999999999999</ele>
        <time>2018-09-19T12:04:14Z</time>
      </trkpt>
      <trkpt lat="49.052512971684337" lon="9.282550988718867">
        <ele>235.66</ele>
        <time>2018-09-19T12:04:32Z</time>
      </trkpt>
      <trkpt lat="49.053210010752082" lon="9.2818049993366">
        <ele>235.66</ele>
        <time>2018-09-19T12:04:38Z</time>
      </trkpt>
      <trkpt lat="49.054725039750338" lon="9.279898032546043">
        <ele>232.78</ele>
        <time>2018-09-19T12:04:50Z</time>
      </trkpt>
      <trkpt lat="49.055754002183676" lon="9.277985030785203">
        <ele>231.81</ele>
        <time>2018-09-19T12:05:01Z</time>
      </trkpt>
      <trkpt lat="49.056550031527877" lon="9.275792995467782">
        <ele>232.30000000000001</ele>
        <time>2018-09-19T12:05:12Z</time>
      </trkpt>
      <trkpt lat="49.057158976793289" lon="9.273600038141012">
        <ele>232.78</ele>
        <time>2018-09-19T12:05:23Z</time>
      </trkpt>
      <trkpt lat="49.057539012283087" lon="9.271945031359792">
        <ele>232.78</ele>
        <time>2018-09-19T12:05:33Z</time>
      </trkpt>
      <trkpt lat="49.057592991739511" lon="9.271677983924747">
        <ele>232.78</ele>
        <time>2018-09-19T12:05:40Z</time>
      </trkpt>
      <trkpt lat="49.057592991739511" lon="9.271677983924747">
        <ele>233.25999999999999</ele>
        <time>2018-09-19T12:05:58Z</time>
      </trkpt>
      <trkpt lat="49.057592991739511" lon="9.271677983924747">
        <ele>233.74000000000001</ele>
        <time>2018-09-19T12:06:29Z</time>
      </trkpt>
      <trkpt lat="49.057624004781246" lon="9.271520990878344">
        <ele>233.25999999999999</ele>
        <time>2018-09-19T12:06:54Z</time>
      </trkpt>
      <trkpt lat="49.057640014216304" lon="9.271439015865326">
        <ele>232.78</ele>
        <time>2018-09-19T12:06:55Z</time>
      </trkpt>
      <trkpt lat="49.057556027546525" lon="9.271368021145463">
        <ele>232.78</ele>
        <time>2018-09-19T12:06:56Z</time>
      </trkpt>
      <trkpt lat="49.057476986199617" lon="9.271331978961825">
        <ele>232.78</ele>
        <time>2018-09-19T12:06:57Z</time>
      </trkpt>
      <trkpt lat="49.0573759842664" lon="9.271285040304065">
        <ele>232.30000000000001</ele>
        <time>2018-09-19T12:06:58Z</time>
      </trkpt>
      <trkpt lat="49.057258972898126" lon="9.271227037534118">
        <ele>231.81</ele>
        <time>2018-09-19T12:06:59Z</time>
      </trkpt>
      <trkpt lat="49.057132992893457" lon="9.271164005622268">
        <ele>231.33000000000001</ele>
        <time>2018-09-19T12:07:00Z</time>
      </trkpt>
      <trkpt lat="49.056595964357257" lon="9.270879020914435">
        <ele>229.88999999999999</ele>
        <time>2018-09-19T12:07:04Z</time>
      </trkpt>
      <trkpt lat="49.056469984352589" lon="9.27078103646636">
        <ele>229.41</ele>
        <time>2018-09-19T12:07:05Z</time>
      </trkpt>
      <trkpt lat="49.056367976590991" lon="9.27065396681428">
        <ele>228.93000000000001</ele>
        <time>2018-09-19T12:07:06Z</time>
      </trkpt>
      <trkpt lat="49.056291030719876" lon="9.270451962947846">
        <ele>228.44999999999999</ele>
        <time>2018-09-19T12:07:07Z</time>
      </trkpt>
      <trkpt lat="49.056244008243084" lon="9.270246019586921">
        <ele>228.44999999999999</ele>
        <time>2018-09-19T12:07:08Z</time>
      </trkpt>
      <trkpt lat="49.056221041828394" lon="9.270036974921823">
        <ele>228.44999999999999</ele>
        <time>2018-09-19T12:07:09Z</time>
      </trkpt>
      <trkpt lat="49.056227998808026" lon="9.269831031560898">
        <ele>228.44999999999999</ele>
        <time>2018-09-19T12:07:10Z</time>
      </trkpt>
      <trkpt lat="49.056267980486155" lon="9.269630033522844">
        <ele>228.44999999999999</ele>
        <time>2018-09-19T12:07:11Z</time>
      </trkpt>
      <trkpt lat="49.056307962164283" lon="9.269433980807662">
        <ele>228.44999999999999</ele>
        <time>2018-09-19T12:07:12Z</time>
      </trkpt>
      <trkpt lat="49.056399995461106" lon="9.269275981932879">
        <ele>228.93000000000001</ele>
        <time>2018-09-19T12:07:13Z</time>
      </trkpt>
      <trkpt lat="49.056505020707846" lon="9.26912996917963">
        <ele>229.41</ele>
        <time>2018-09-19T12:07:14Z</time>
      </trkpt>
      <trkpt lat="49.05662395991385" lon="9.26899996586144">
        <ele>229.88999999999999</ele>
        <time>2018-09-19T12:07:15Z</time>
      </trkpt>
      <trkpt lat="49.056770978495479" lon="9.268965013325214">
        <ele>230.37</ele>
        <time>2018-09-19T12:07:16Z</time>
      </trkpt>
      <trkpt lat="49.056926965713501" lon="9.268928971141577">
        <ele>230.84999999999999</ele>
        <time>2018-09-19T12:07:17Z</time>
      </trkpt>
      <trkpt lat="49.057092005386949" lon="9.268889995291829">
        <ele>231.33000000000001</ele>
        <time>2018-09-19T12:07:18Z</time>
      </trkpt>
      <trkpt lat="49.057294009253383" lon="9.268872980028391">
        <ele>231.81</ele>
        <time>2018-09-19T12:07:19Z</time>
      </trkpt>
      <trkpt lat="49.058656990528107" lon="9.269361980259419">
        <ele>235.66</ele>
        <time>2018-09-19T12:07:25Z</time>
      </trkpt>
      <trkpt lat="49.060423979535699" lon="9.27052203565836">
        <ele>237.09999999999999</ele>
        <time>2018-09-19T12:07:32Z</time>
      </trkpt>
      <trkpt lat="49.062357014045119" lon="9.272664031013846">
        <ele>236.13999999999999</ele>
        <time>2018-09-19T12:07:40Z</time>
      </trkpt>
      <trkpt lat="49.065888980403543" lon="9.276807960122824">
        <ele>250.08000000000001</ele>
        <time>2018-09-19T12:07:54Z</time>
      </trkpt>
      <trkpt lat="49.068280002102256" lon="9.279036959633231">
        <ele>258.25</ele>
        <time>2018-09-19T12:08:03Z</time>
      </trkpt>
      <trkpt lat="49.071883969008923" lon="9.281898960471153">
        <ele>259.20999999999998</ele>
        <time>2018-09-19T12:08:16Z</time>
      </trkpt>
      <trkpt lat="49.076115991920233" lon="9.285215009003878">
        <ele>268.35000000000002</ele>
        <time>2018-09-19T12:08:31Z</time>
      </trkpt>
      <trkpt lat="49.078326970338821" lon="9.28696003742516">
        <ele>269.31</ele>
        <time>2018-09-19T12:08:39Z</time>
      </trkpt>
      <trkpt lat="49.08156699500978" lon="9.289256008341909">
        <ele>273.63</ele>
        <time>2018-09-19T12:08:50Z</time>
      </trkpt>
      <trkpt lat="49.084126995876431" lon="9.2902269680053">
        <ele>276.51999999999998</ele>
        <time>2018-09-19T12:08:58Z</time>
      </trkpt>
      <trkpt lat="49.088097000494599" lon="9.291275041177869">
        <ele>277.48000000000002</ele>
        <time>2018-09-19T12:09:10Z</time>
      </trkpt>
      <trkpt lat="49.09286797977984" lon="9.292541965842247">
        <ele>284.69</ele>
        <time>2018-09-19T12:09:25Z</time>
      </trkpt>
      <trkpt lat="49.096018988639116" lon="9.293393986299634">
        <ele>294.77999999999997</ele>
        <time>2018-09-19T12:09:35Z</time>
      </trkpt>
      <trkpt lat="49.098029974848032" lon="9.294495033100247">
        <ele>303.91000000000003</ele>
        <time>2018-09-19T12:09:42Z</time>
      </trkpt>
      <trkpt lat="49.099956974387169" lon="9.296335028484464">
        <ele>314.97000000000003</ele>
        <time>2018-09-19T12:09:50Z</time>
      </trkpt>
      <trkpt lat="49.102208018302917" lon="9.298611972481012">
        <ele>324.10000000000002</ele>
        <time>2018-09-19T12:09:59Z</time>
      </trkpt>
      <trkpt lat="49.105256013572216" lon="9.30152703076601">
        <ele>326.01999999999998</ele>
        <time>2018-09-19T12:10:10Z</time>
      </trkpt>
      <trkpt lat="49.107261970639229" lon="9.302593041211367">
        <ele>324.10000000000002</ele>
        <time>2018-09-19T12:10:17Z</time>
      </trkpt>
      <trkpt lat="49.109603958204389" lon="9.303110036998987">
        <ele>323.62</ele>
        <time>2018-09-19T12:10:25Z</time>
      </trkpt>
      <trkpt lat="49.112716997042298" lon="9.303279016166925">
        <ele>322.18000000000001</ele>
        <time>2018-09-19T12:10:35Z</time>
      </trkpt>
      <trkpt lat="49.115344975143671" lon="9.3028399720788">
        <ele>316.41000000000003</ele>
        <time>2018-09-19T12:10:43Z</time>
      </trkpt>
      <trkpt lat="49.117781007662416" lon="9.301783014088869">
        <ele>305.83999999999997</ele>
        <time>2018-09-19T12:10:50Z</time>
      </trkpt>
      <trkpt lat="49.120514011010528" lon="9.30066604167223">
        <ele>290.94</ele>
        <time>2018-09-19T12:10:58Z</time>
      </trkpt>
      <trkpt lat="49.123340975493193" lon="9.300355995073915">
        <ele>277</ele>
        <time>2018-09-19T12:11:05Z</time>
      </trkpt>
      <trkpt lat="49.12724400870502" lon="9.300719015300274">
        <ele>259.69</ele>
        <time>2018-09-19T12:11:15Z</time>
      </trkpt>
      <trkpt lat="49.130948977544904" lon="9.301724005490542">
        <ele>251.03999999999999</ele>
        <time>2018-09-19T12:11:25Z</time>
      </trkpt>
      <trkpt lat="49.133739983662963" lon="9.303306005895138">
        <ele>248.16</ele>
        <time>2018-09-19T12:11:33Z</time>
      </trkpt>
      <trkpt lat="49.137087967246771" lon="9.305509021505714">
        <ele>246.22999999999999</ele>
        <time>2018-09-19T12:11:43Z</time>
      </trkpt>
      <trkpt lat="49.139070035889745" lon="9.306194996461272">
        <ele>242.87</ele>
        <time>2018-09-19T12:11:49Z</time>
      </trkpt>
      <trkpt lat="49.141531968489289" lon="9.306205976754427">
        <ele>235.18000000000001</ele>
        <time>2018-09-19T12:11:57Z</time>
      </trkpt>
      <trkpt lat="49.144155001267791" lon="9.305406007915735">
        <ele>223.63999999999999</ele>
        <time>2018-09-19T12:12:06Z</time>
      </trkpt>
      <trkpt lat="49.148061973974109" lon="9.303541034460068">
        <ele>206.34</ele>
        <time>2018-09-19T12:12:20Z</time>
      </trkpt>
      <trkpt lat="49.151427978649735" lon="9.301429968327284">
        <ele>190.96000000000001</ele>
        <time>2018-09-19T12:12:32Z</time>
      </trkpt>
      <trkpt lat="49.15463900193572" lon="9.298804001882672">
        <ele>177.02000000000001</ele>
        <time>2018-09-19T12:12:44Z</time>
      </trkpt>
      <trkpt lat="49.15648503229022" lon="9.296287000179291">
        <ele>175.09999999999999</ele>
        <time>2018-09-19T12:12:52Z</time>
      </trkpt>
      <trkpt lat="49.157919008284807" lon="9.293197011575103">
        <ele>176.06</ele>
        <time>2018-09-19T12:13:00Z</time>
      </trkpt>
      <trkpt lat="49.159318031743169" lon="9.288876978680491">
        <ele>176.06</ele>
        <time>2018-09-19T12:13:10Z</time>
      </trkpt>
      <trkpt lat="49.161042021587491" lon="9.283304018899798">
        <ele>177.97999999999999</ele>
        <time>2018-09-19T12:13:23Z</time>
      </trkpt>
      <trkpt lat="49.162181038409472" lon="9.27959100343287">
        <ele>177.5</ele>
        <time>2018-09-19T12:13:33Z</time>
      </trkpt>
      <trkpt lat="49.163565980270505" lon="9.275054968893528">
        <ele>178.46000000000001</ele>
        <time>2018-09-19T12:13:46Z</time>
      </trkpt>
      <trkpt lat="49.164684964343905" lon="9.271128969267011">
        <ele>177.97999999999999</ele>
        <time>2018-09-19T12:13:58Z</time>
      </trkpt>
      <trkpt lat="49.165332969278097" lon="9.268573997542262">
        <ele>177.5</ele>
        <time>2018-09-19T12:14:07Z</time>
      </trkpt>
      <trkpt lat="49.16608901694417" lon="9.265510998666287">
        <ele>175.58000000000001</ele>
        <time>2018-09-19T12:14:19Z</time>
      </trkpt>
      <trkpt lat="49.166962997987866" lon="9.261923963204026">
        <ele>172.21000000000001</ele>
        <time>2018-09-19T12:14:31Z</time>
      </trkpt>
      <trkpt lat="49.167906967923045" lon="9.258544966578484">
        <ele>173.16999999999999</ele>
        <time>2018-09-19T12:14:42Z</time>
      </trkpt>
      <trkpt lat="49.169060988351703" lon="9.25503202714026">
        <ele>175.09999999999999</ele>
        <time>2018-09-19T12:14:53Z</time>
      </trkpt>
      <trkpt lat="49.170483984053135" lon="9.251399980857968">
        <ele>178.94</ele>
        <time>2018-09-19T12:15:05Z</time>
      </trkpt>
      <trkpt lat="49.172220965847373" lon="9.247674979269505">
        <ele>183.75</ele>
        <time>2018-09-19T12:15:17Z</time>
      </trkpt>
      <trkpt lat="49.174418030306697" lon="9.243516968563199">
        <ele>187.11000000000001</ele>
        <time>2018-09-19T12:15:31Z</time>
      </trkpt>
    </trkseg>
  </trk>

  <trk>
    <name>Track vom: 2018-09-19 14:15</name>
    <extensions>
      <gpxx:TrackExtension>
        <gpxx:DisplayColor>DarkGray</gpxx:DisplayColor>
      </gpxx:TrackExtension>
    </extensions>
    <trkseg>
      <trkpt lat="49.175394019111991" lon="9.24166901037097">
        <ele>187.11000000000001</ele>
        <time>2018-09-19T12:15:37Z</time>
      </trkpt>
      <trkpt lat="49.177048020064831" lon="9.238310968503356">
        <ele>186.63</ele>
        <time>2018-09-19T12:15:47Z</time>
      </trkpt>
      <trkpt lat="49.179334016516805" lon="9.233077978715301">
        <ele>178.46000000000001</ele>
        <time>2018-09-19T12:16:01Z</time>
      </trkpt>
      <trkpt lat="49.180849967524409" lon="9.22897201962769">
        <ele>170.77000000000001</ele>
        <time>2018-09-19T12:16:12Z</time>
      </trkpt>
      <trkpt lat="49.182386035099626" lon="9.22402803786099">
        <ele>165.96000000000001</ele>
        <time>2018-09-19T12:16:26Z</time>
      </trkpt>
      <trkpt lat="49.183007972314954" lon="9.221593011170626">
        <ele>165.96000000000001</ele>
        <time>2018-09-19T12:16:34Z</time>
      </trkpt>
      <trkpt lat="49.183723032474518" lon="9.218474021181464">
        <ele>164.52000000000001</ele>
        <time>2018-09-19T12:16:45Z</time>
      </trkpt>
      <trkpt lat="49.184359973296523" lon="9.214908024296165">
        <ele>163.08000000000001</ele>
        <time>2018-09-19T12:16:57Z</time>
      </trkpt>
      <trkpt lat="49.184708995744586" lon="9.212436033412814">
        <ele>163.56</ele>
        <time>2018-09-19T12:17:04Z</time>
      </trkpt>
      <trkpt lat="49.185351971536875" lon="9.206832982599735">
        <ele>166.44999999999999</ele>
        <time>2018-09-19T12:17:19Z</time>
      </trkpt>
      <trkpt lat="49.186007017269731" lon="9.200832964852452">
        <ele>169.33000000000001</ele>
        <time>2018-09-19T12:17:35Z</time>
      </trkpt>
      <trkpt lat="49.186664996668696" lon="9.196777967736125">
        <ele>171.25</ele>
        <time>2018-09-19T12:17:46Z</time>
      </trkpt>
      <trkpt lat="49.187455996870995" lon="9.192755995318294">
        <ele>173.16999999999999</ele>
        <time>2018-09-19T12:17:57Z</time>
      </trkpt>
      <trkpt lat="49.188381023705006" lon="9.187592994421721">
        <ele>174.62</ele>
        <time>2018-09-19T12:18:10Z</time>
      </trkpt>
      <trkpt lat="49.188935989513993" lon="9.183448981493712">
        <ele>175.58000000000001</ele>
        <time>2018-09-19T12:18:21Z</time>
      </trkpt>
      <trkpt lat="49.189279982820153" lon="9.179283007979393">
        <ele>177.5</ele>
        <time>2018-09-19T12:18:32Z</time>
      </trkpt>
      <trkpt lat="49.189371010288596" lon="9.174169041216373">
        <ele>176.53999999999999</ele>
        <time>2018-09-19T12:18:45Z</time>
      </trkpt>
      <trkpt lat="49.189159031957388" lon="9.168894980102778">
        <ele>172.69</ele>
        <time>2018-09-19T12:18:59Z</time>
      </trkpt>
      <trkpt lat="49.188929032534361" lon="9.166160970926285">
        <ele>172.21000000000001</ele>
        <time>2018-09-19T12:19:07Z</time>
      </trkpt>
      <trkpt lat="49.1886299662292" lon="9.162964029237628">
        <ele>169.33000000000001</ele>
        <time>2018-09-19T12:19:16Z</time>
      </trkpt>
      <trkpt lat="49.188281027600169" lon="9.15804703719914">
        <ele>170.28999999999999</ele>
        <time>2018-09-19T12:19:30Z</time>
      </trkpt>
      <trkpt lat="49.188195029273629" lon="9.152823016047478">
        <ele>177.5</ele>
        <time>2018-09-19T12:19:45Z</time>
      </trkpt>
      <trkpt lat="49.18809100985527" lon="9.147008992731571">
        <ele>187.59</ele>
        <time>2018-09-19T12:20:02Z</time>
      </trkpt>
      <trkpt lat="49.187646014615893" lon="9.142991965636611">
        <ele>193.36000000000001</ele>
        <time>2018-09-19T12:20:14Z</time>
      </trkpt>
      <trkpt lat="49.187034973874688" lon="9.139480032026768">
        <ele>199.61000000000001</ele>
        <time>2018-09-19T12:20:24Z</time>
      </trkpt>
      <trkpt lat="49.186322009190917" lon="9.134332034736872">
        <ele>204.90000000000001</ele>
        <time>2018-09-19T12:20:39Z</time>
      </trkpt>
      <trkpt lat="49.186203991994262" lon="9.131055967882276">
        <ele>207.78</ele>
        <time>2018-09-19T12:20:48Z</time>
      </trkpt>
      <trkpt lat="49.186485959216952" lon="9.127137009054422">
        <ele>209.22</ele>
        <time>2018-09-19T12:20:59Z</time>
      </trkpt>
      <trkpt lat="49.187207976356149" lon="9.123359033837915">
        <ele>211.15000000000001</ele>
        <time>2018-09-19T12:21:10Z</time>
      </trkpt>
      <trkpt lat="49.18823903426528" lon="9.120057988911867">
        <ele>213.06999999999999</ele>
        <time>2018-09-19T12:21:20Z</time>
      </trkpt>
      <trkpt lat="49.189472012221813" lon="9.117067996412516">
        <ele>213.06999999999999</ele>
        <time>2018-09-19T12:21:30Z</time>
      </trkpt>
      <trkpt lat="49.190685963258147" lon="9.114389978349209">
        <ele>214.50999999999999</ele>
        <time>2018-09-19T12:21:40Z</time>
      </trkpt>
      <trkpt lat="49.192606005817652" lon="9.110084027051926">
        <ele>216.43000000000001</ele>
        <time>2018-09-19T12:21:55Z</time>
      </trkpt>
      <trkpt lat="49.194096978753805" lon="9.106336981058121">
        <ele>217.88</ele>
        <time>2018-09-19T12:22:08Z</time>
      </trkpt>
      <trkpt lat="49.195441016927361" lon="9.102549031376839">
        <ele>218.36000000000001</ele>
        <time>2018-09-19T12:22:21Z</time>
      </trkpt>
      <trkpt lat="49.196822019293904" lon="9.098477018997073">
        <ele>223.63999999999999</ele>
        <time>2018-09-19T12:22:34Z</time>
      </trkpt>
      <trkpt lat="49.198211990296841" lon="9.094634000211954">
        <ele>230.37</ele>
        <time>2018-09-19T12:22:46Z</time>
      </trkpt>
      <trkpt lat="49.199284035712481" lon="9.092011973261833">
        <ele>233.25999999999999</ele>
        <time>2018-09-19T12:22:55Z</time>
      </trkpt>
      <trkpt lat="49.200842985883355" lon="9.088820982724428">
        <ele>235.66</ele>
        <time>2018-09-19T12:23:07Z</time>
      </trkpt>
      <trkpt lat="49.202773002907634" lon="9.085606019943953">
        <ele>235.18000000000001</ele>
        <time>2018-09-19T12:23:20Z</time>
      </trkpt>
      <trkpt lat="49.204921033233404" lon="9.082580991089344">
        <ele>230.84999999999999</ele>
        <time>2018-09-19T12:23:33Z</time>
      </trkpt>
      <trkpt lat="49.206710988655686" lon="9.080232968553901">
        <ele>223.63999999999999</ele>
        <time>2018-09-19T12:23:44Z</time>
      </trkpt>
      <trkpt lat="49.208026025444269" lon="9.078505039215088">
        <ele>218.36000000000001</ele>
        <time>2018-09-19T12:23:53Z</time>
      </trkpt>
      <trkpt lat="49.209435023367405" lon="9.076434960588813">
        <ele>212.59</ele>
        <time>2018-09-19T12:24:03Z</time>
      </trkpt>
      <trkpt lat="49.210588959977031" lon="9.074552971869707">
        <ele>211.15000000000001</ele>
        <time>2018-09-19T12:24:11Z</time>
      </trkpt>
      <trkpt lat="49.211601996794343" lon="9.072494963183999">
        <ele>211.15000000000001</ele>
        <time>2018-09-19T12:24:20Z</time>
      </trkpt>
      <trkpt lat="49.212499028071761" lon="9.070352967828512">
        <ele>212.59</ele>
        <time>2018-09-19T12:24:27Z</time>
      </trkpt>
      <trkpt lat="49.213489014655352" lon="9.06750999391079">
        <ele>215.94999999999999</ele>
        <time>2018-09-19T12:24:34Z</time>
      </trkpt>
      <trkpt lat="49.214494004845619" lon="9.063261039555073">
        <ele>224.12</ele>
        <time>2018-09-19T12:24:43Z</time>
      </trkpt>
      <trkpt lat="49.215086018666625" lon="9.058750988915563">
        <ele>235.18000000000001</ele>
        <time>2018-09-19T12:24:52Z</time>
      </trkpt>
      <trkpt lat="49.215232031419873" lon="9.054078999906778">
        <ele>242.38999999999999</ele>
        <time>2018-09-19T12:25:01Z</time>
      </trkpt>
      <trkpt lat="49.214960038661957" lon="9.049896011129022">
        <ele>247.68000000000001</ele>
        <time>2018-09-19T12:25:09Z</time>
      </trkpt>
      <trkpt lat="49.214141964912415" lon="9.043050007894635">
        <ele>253.44</ele>
        <time>2018-09-19T12:25:22Z</time>
      </trkpt>
      <trkpt lat="49.213695963844657" lon="9.037677040323615">
        <ele>258.73000000000002</ele>
        <time>2018-09-19T12:25:32Z</time>
      </trkpt>
      <trkpt lat="49.21363896690309" lon="9.031088026240468">
        <ele>262.57999999999998</ele>
        <time>2018-09-19T12:25:44Z</time>
      </trkpt>
      <trkpt lat="49.213881958276033" lon="9.026735974475741">
        <ele>263.06</ele>
        <time>2018-09-19T12:25:52Z</time>
      </trkpt>
      <trkpt lat="49.214553013443947" lon="9.019687967374921">
        <ele>265.45999999999998</ele>
        <time>2018-09-19T12:26:05Z</time>
      </trkpt>
      <trkpt lat="49.215294979512691" lon="9.01433302089572">
        <ele>267.38</ele>
        <time>2018-09-19T12:26:15Z</time>
      </trkpt>
      <trkpt lat="49.216734990477562" lon="9.00582798756659">
        <ele>264.5</ele>
        <time>2018-09-19T12:26:31Z</time>
      </trkpt>
      <trkpt lat="49.217918012291193" lon="8.99897301569581">
        <ele>264.01999999999998</ele>
        <time>2018-09-19T12:26:44Z</time>
      </trkpt>
      <trkpt lat="49.219106985256076" lon="8.992087030783296">
        <ele>266.42000000000002</ele>
        <time>2018-09-19T12:26:57Z</time>
      </trkpt>
      <trkpt lat="49.220394026488066" lon="8.984666028991342">
        <ele>268.35000000000002</ele>
        <time>2018-09-19T12:27:11Z</time>
      </trkpt>
      <trkpt lat="49.221176980063319" lon="8.980152038857341">
        <ele>267.38</ele>
        <time>2018-09-19T12:27:20Z</time>
      </trkpt>
      <trkpt lat="49.221442015841603" lon="8.978510024026036">
        <ele>268.35000000000002</ele>
        <time>2018-09-19T12:27:25Z</time>
      </trkpt>
      <trkpt lat="49.22162901610136" lon="8.97714301943779">
        <ele>268.82999999999998</ele>
        <time>2018-09-19T12:27:31Z</time>
      </trkpt>
      <trkpt lat="49.22165097668767" lon="8.976982003077865">
        <ele>269.31</ele>
        <time>2018-09-19T12:27:32Z</time>
      </trkpt>
      <trkpt lat="49.221765976399183" lon="8.976655025035143">
        <ele>270.75</ele>
        <time>2018-09-19T12:27:35Z</time>
      </trkpt>
      <trkpt lat="49.221825990825891" lon="8.976475987583399">
        <ele>271.23000000000002</ele>
        <time>2018-09-19T12:27:37Z</time>
      </trkpt>
      <trkpt lat="49.221857003867626" lon="8.976380014792085">
        <ele>271.70999999999998</ele>
        <time>2018-09-19T12:27:38Z</time>
      </trkpt>
      <trkpt lat="49.221920035779476" lon="8.976191002875567">
        <ele>271.70999999999998</ele>
        <time>2018-09-19T12:27:40Z</time>
      </trkpt>
      <trkpt lat="49.221947025507689" lon="8.97611103951931">
        <ele>271.23000000000002</ele>
        <time>2018-09-19T12:27:41Z</time>
      </trkpt>
      <trkpt lat="49.221970997750759" lon="8.976038033142686">
        <ele>271.23000000000002</ele>
        <time>2018-09-19T12:27:42Z</time>
      </trkpt>
      <trkpt lat="49.221996981650591" lon="8.97596200928092">
        <ele>270.75</ele>
        <time>2018-09-19T12:27:43Z</time>
      </trkpt>
      <trkpt lat="49.222024977207184" lon="8.975877016782761">
        <ele>270.75</ele>
        <time>2018-09-19T12:27:44Z</time>
      </trkpt>
      <trkpt lat="49.222054984420538" lon="8.975786995142698">
        <ele>270.75</ele>
        <time>2018-09-19T12:27:45Z</time>
      </trkpt>
      <trkpt lat="49.222062025219202" lon="8.975723041221499">
        <ele>270.75</ele>
        <time>2018-09-19T12:27:46Z</time>
      </trkpt>
      <trkpt lat="49.222070993855596" lon="8.975627990439534">
        <ele>270.75</ele>
        <time>2018-09-19T12:27:47Z</time>
      </trkpt>
      <trkpt lat="49.222079962491989" lon="8.975549032911658">
        <ele>270.75</ele>
        <time>2018-09-19T12:27:48Z</time>
      </trkpt>
      <trkpt lat="49.222114998847246" lon="8.975203027948737">
        <ele>270.26999999999998</ele>
        <time>2018-09-19T12:27:55Z</time>
      </trkpt>
      <trkpt lat="49.222118016332388" lon="8.975182995200157">
        <ele>270.26999999999998</ele>
        <time>2018-09-19T12:28:06Z</time>
      </trkpt>
    </trkseg>
  </trk>

  <trk>
    <name>Track vom: 2018-09-19 14:38</name>
    <extensions>
      <gpxx:TrackExtension>
        <gpxx:DisplayColor>DarkGray</gpxx:DisplayColor>
      </gpxx:TrackExtension>
    </extensions>
    <trkseg>
      <trkpt lat="49.222395960241556" lon="8.975262958556414">
        <ele>279.88</ele>
        <time>2018-09-19T12:38:36Z</time>
      </trkpt>
      <trkpt lat="49.222107036039233" lon="8.974954001605511">
        <ele>279.39999999999998</ele>
        <time>2018-09-19T12:38:49Z</time>
      </trkpt>
      <trkpt lat="49.22210100106895" lon="8.97484595887363">
        <ele>279.39999999999998</ele>
        <time>2018-09-19T12:38:50Z</time>
      </trkpt>
      <trkpt lat="49.222093960270286" lon="8.974739005789161">
        <ele>278.92000000000002</ele>
        <time>2018-09-19T12:38:51Z</time>
      </trkpt>
      <trkpt lat="49.222087003290653" lon="8.974621994420886">
        <ele>278.44</ele>
        <time>2018-09-19T12:38:52Z</time>
      </trkpt>
      <trkpt lat="49.222079962491989" lon="8.974487967789173">
        <ele>277.95999999999998</ele>
        <time>2018-09-19T12:38:53Z</time>
      </trkpt>
      <trkpt lat="49.222071999683976" lon="8.974334998056293">
        <ele>277.95999999999998</ele>
        <time>2018-09-19T12:38:54Z</time>
      </trkpt>
      <trkpt lat="49.222064036875963" lon="8.974163001403213">
        <ele>277.95999999999998</ele>
        <time>2018-09-19T12:38:55Z</time>
      </trkpt>
      <trkpt lat="49.222044004127383" lon="8.973746001720429">
        <ele>277</ele>
        <time>2018-09-19T12:38:57Z</time>
      </trkpt>
      <trkpt lat="49.222036963328719" lon="8.973475014790893">
        <ele>277</ele>
        <time>2018-09-19T12:38:58Z</time>
      </trkpt>
      <trkpt lat="49.222181970253587" lon="8.97142899222672">
        <ele>275.56</ele>
        <time>2018-09-19T12:39:04Z</time>
      </trkpt>
      <trkpt lat="49.222334017977118" lon="8.968207994475961">
        <ele>273.14999999999998</ele>
        <time>2018-09-19T12:39:11Z</time>
      </trkpt>
      <trkpt lat="49.222453963011503" lon="8.965022033080459">
        <ele>270.26999999999998</ele>
        <time>2018-09-19T12:39:19Z</time>
      </trkpt>
      <trkpt lat="49.222527975216508" lon="8.963054968044162">
        <ele>267.38</ele>
        <time>2018-09-19T12:39:25Z</time>
      </trkpt>
      <trkpt lat="49.222587989643216" lon="8.961729034781456">
        <ele>265.45999999999998</ele>
        <time>2018-09-19T12:39:32Z</time>
      </trkpt>
      <trkpt lat="49.2225940246135" lon="8.961580004543066">
        <ele>265.45999999999998</ele>
        <time>2018-09-19T12:39:33Z</time>
      </trkpt>
      <trkpt lat="49.222598969936371" lon="8.961439020931721">
        <ele>264.98000000000002</ele>
        <time>2018-09-19T12:39:34Z</time>
      </trkpt>
      <trkpt lat="49.222605004906654" lon="8.961303988471627">
        <ele>264.5</ele>
        <time>2018-09-19T12:39:35Z</time>
      </trkpt>
      <trkpt lat="49.222610034048557" lon="8.961181025952101">
        <ele>264.5</ele>
        <time>2018-09-19T12:39:36Z</time>
      </trkpt>
      <trkpt lat="49.222615985199809" lon="8.961069965735078">
        <ele>264.01999999999998</ele>
        <time>2018-09-19T12:39:37Z</time>
      </trkpt>
      <trkpt lat="49.222646998241544" lon="8.96070602349937">
        <ele>263.06</ele>
        <time>2018-09-19T12:39:40Z</time>
      </trkpt>
      <trkpt lat="49.222658984363079" lon="8.960566967725754">
        <ele>262.57999999999998</ele>
        <time>2018-09-19T12:39:41Z</time>
      </trkpt>
      <trkpt lat="49.22268102876842" lon="8.960314001888037">
        <ele>261.62</ele>
        <time>2018-09-19T12:39:43Z</time>
      </trkpt>
      <trkpt lat="49.222689997404814" lon="8.960205959156156">
        <ele>261.62</ele>
        <time>2018-09-19T12:39:44Z</time>
      </trkpt>
      <trkpt lat="49.222730984911323" lon="8.959731040522456">
        <ele>260.17000000000002</ele>
        <time>2018-09-19T12:39:49Z</time>
      </trkpt>
      <trkpt lat="49.222738025709987" lon="8.959650993347168">
        <ele>260.17000000000002</ele>
        <time>2018-09-19T12:39:50Z</time>
      </trkpt>
      <trkpt lat="49.222743976861238" lon="8.959572035819292">
        <ele>260.17000000000002</ele>
        <time>2018-09-19T12:39:51Z</time>
      </trkpt>
      <trkpt lat="49.222751017659903" lon="8.959498023614287">
        <ele>260.17000000000002</ele>
        <time>2018-09-19T12:39:52Z</time>
      </trkpt>
      <trkpt lat="49.222757974639535" lon="8.959417976438999">
        <ele>259.69</ele>
        <time>2018-09-19T12:39:53Z</time>
      </trkpt>
      <trkpt lat="49.222764009609818" lon="8.959338013082743">
        <ele>259.69</ele>
        <time>2018-09-19T12:39:54Z</time>
      </trkpt>
      <trkpt lat="49.222770966589451" lon="8.959262995049357">
        <ele>259.20999999999998</ele>
        <time>2018-09-19T12:39:55Z</time>
      </trkpt>
      <trkpt lat="49.222801979631186" lon="8.958897963166237">
        <ele>258.25</ele>
        <time>2018-09-19T12:40:00Z</time>
      </trkpt>
      <trkpt lat="49.222821006551385" lon="8.958677016198635">
        <ele>256.81</ele>
        <time>2018-09-19T12:40:03Z</time>
      </trkpt>
      <trkpt lat="49.222837015986443" lon="8.958522034808993">
        <ele>255.84999999999999</ele>
        <time>2018-09-19T12:40:05Z</time>
      </trkpt>
      <trkpt lat="49.222913039848208" lon="8.957911999896169">
        <ele>254.88999999999999</ele>
        <time>2018-09-19T12:40:13Z</time>
      </trkpt>
      <trkpt lat="49.222922008484602" lon="8.957845028489828">
        <ele>254.88999999999999</ele>
        <time>2018-09-19T12:40:14Z</time>
      </trkpt>
      <trkpt lat="49.222941035404801" lon="8.957694992423058">
        <ele>254.41</ele>
        <time>2018-09-19T12:40:16Z</time>
      </trkpt>
      <trkpt lat="49.222950004041195" lon="8.957619974389672">
        <ele>254.41</ele>
        <time>2018-09-19T12:40:17Z</time>
      </trkpt>
      <trkpt lat="49.222959978505969" lon="8.957539005205035">
        <ele>254.41</ele>
        <time>2018-09-19T12:40:18Z</time>
      </trkpt>
      <trkpt lat="49.222999960184097" lon="8.957222001627088">
        <ele>254.41</ele>
        <time>2018-09-19T12:40:21Z</time>
      </trkpt>
      <trkpt lat="49.223054023459554" lon="8.956785975024104">
        <ele>253.44</ele>
        <time>2018-09-19T12:40:25Z</time>
      </trkpt>
      <trkpt lat="49.223083024844527" lon="8.956556981429458">
        <ele>252.96000000000001</ele>
        <time>2018-09-19T12:40:27Z</time>
      </trkpt>
      <trkpt lat="49.223097022622824" lon="8.956446005031467">
        <ele>252.96000000000001</ele>
        <time>2018-09-19T12:40:28Z</time>
      </trkpt>
      <trkpt lat="49.22311102040112" lon="8.956336034461856">
        <ele>252.96000000000001</ele>
        <time>2018-09-19T12:40:29Z</time>
      </trkpt>
      <trkpt lat="49.223143039271235" lon="8.956118021160364">
        <ele>252.47999999999999</ele>
        <time>2018-09-19T12:40:31Z</time>
      </trkpt>
      <trkpt lat="49.223158964887261" lon="8.956003021448851">
        <ele>252.47999999999999</ele>
        <time>2018-09-19T12:40:32Z</time>
      </trkpt>
      <trkpt lat="49.223320987075567" lon="8.95488303154707">
        <ele>250.08000000000001</ele>
        <time>2018-09-19T12:40:40Z</time>
      </trkpt>
      <trkpt lat="49.223589040338993" lon="8.953506974503398">
        <ele>246.22999999999999</ele>
        <time>2018-09-19T12:40:48Z</time>
      </trkpt>
      <trkpt lat="49.224089020863175" lon="8.951173033565283">
        <ele>242.38999999999999</ele>
        <time>2018-09-19T12:40:59Z</time>
      </trkpt>
      <trkpt lat="49.224708024412394" lon="8.948652008548379">
        <ele>236.13999999999999</ele>
        <time>2018-09-19T12:41:08Z</time>
      </trkpt>
      <trkpt lat="49.225288974121213" lon="8.946734983474016">
        <ele>230.84999999999999</ele>
        <time>2018-09-19T12:41:14Z</time>
      </trkpt>
      <trkpt lat="49.226227998733521" lon="8.943440979346633">
        <ele>222.19999999999999</ele>
        <time>2018-09-19T12:41:24Z</time>
      </trkpt>
      <trkpt lat="49.226723033934832" lon="8.94098499789834">
        <ele>216.91</ele>
        <time>2018-09-19T12:41:32Z</time>
      </trkpt>
      <trkpt lat="49.226898970082402" lon="8.938393983989954">
        <ele>211.63</ele>
        <time>2018-09-19T12:41:41Z</time>
      </trkpt>
      <trkpt lat="49.226695038378239" lon="8.935663998126984">
        <ele>207.78</ele>
        <time>2018-09-19T12:41:51Z</time>
      </trkpt>
      <trkpt lat="49.226281978189945" lon="8.9328190125525">
        <ele>202.49000000000001</ele>
        <time>2018-09-19T12:42:01Z</time>
      </trkpt>
      <trkpt lat="49.226171001791954" lon="8.930405024439097">
        <ele>197.21000000000001</ele>
        <time>2018-09-19T12:42:09Z</time>
      </trkpt>
      <trkpt lat="49.226318020373583" lon="8.928305022418499">
        <ele>190.47999999999999</ele>
        <time>2018-09-19T12:42:17Z</time>
      </trkpt>
      <trkpt lat="49.226769972592592" lon="8.925671009346843">
        <ele>183.27000000000001</ele>
        <time>2018-09-19T12:42:27Z</time>
      </trkpt>
      <trkpt lat="49.227128969505429" lon="8.922923002392054">
        <ele>178.46000000000001</ele>
        <time>2018-09-19T12:42:38Z</time>
      </trkpt>
      <trkpt lat="49.227313958108425" lon="8.920568022876978">
        <ele>177.02000000000001</ele>
        <time>2018-09-19T12:42:47Z</time>
      </trkpt>
      <trkpt lat="49.22734203748405" lon="8.919840976595879">
        <ele>177.02000000000001</ele>
        <time>2018-09-19T12:42:50Z</time>
      </trkpt>
      <trkpt lat="49.227351006120443" lon="8.919599996879697">
        <ele>177.02000000000001</ele>
        <time>2018-09-19T12:42:51Z</time>
      </trkpt>
      <trkpt lat="49.227334996685386" lon="8.917776010930538">
        <ele>177.5</ele>
        <time>2018-09-19T12:42:59Z</time>
      </trkpt>
      <trkpt lat="49.227395011112094" lon="8.91513797454536">
        <ele>174.62</ele>
        <time>2018-09-19T12:43:11Z</time>
      </trkpt>
      <trkpt lat="49.227604977786541" lon="8.913188008591533">
        <ele>173.66</ele>
        <time>2018-09-19T12:43:20Z</time>
      </trkpt>
      <trkpt lat="49.228004040196538" lon="8.911157995462418">
        <ele>173.16999999999999</ele>
        <time>2018-09-19T12:43:28Z</time>
      </trkpt>
      <trkpt lat="49.228993020951748" lon="8.908317033201456">
        <ele>171.72999999999999</ele>
        <time>2018-09-19T12:43:38Z</time>
      </trkpt>
      <trkpt lat="49.230245025828481" lon="8.906202027574182">
        <ele>172.69</ele>
        <time>2018-09-19T12:43:46Z</time>
      </trkpt>
      <trkpt lat="49.231308018788695" lon="8.904861006885767">
        <ele>174.13999999999999</ele>
        <time>2018-09-19T12:43:53Z</time>
      </trkpt>
      <trkpt lat="49.233097974210978" lon="8.902861000970006">
        <ele>178.46000000000001</ele>
        <time>2018-09-19T12:44:05Z</time>
      </trkpt>
      <trkpt lat="49.234706964343786" lon="8.900885973125696">
        <ele>179.90000000000001</ele>
        <time>2018-09-19T12:44:16Z</time>
      </trkpt>
      <trkpt lat="49.236225010827184" lon="8.898759987205267">
        <ele>178.46000000000001</ele>
        <time>2018-09-19T12:44:24Z</time>
      </trkpt>
      <trkpt lat="49.238344961777329" lon="8.895087037235498">
        <ele>169.33000000000001</ele>
        <time>2018-09-19T12:44:36Z</time>
      </trkpt>
      <trkpt lat="49.239830989390612" lon="8.891923036426306">
        <ele>164.52000000000001</ele>
        <time>2018-09-19T12:44:46Z</time>
      </trkpt>
      <trkpt lat="49.240786023437977" lon="8.889458002522588">
        <ele>164.03999999999999</ele>
        <time>2018-09-19T12:44:54Z</time>
      </trkpt>
      <trkpt lat="49.241594960913062" lon="8.886976037174463">
        <ele>167.88999999999999</ele>
        <time>2018-09-19T12:45:03Z</time>
      </trkpt>
      <trkpt lat="49.242398031055927" lon="8.884133985266089">
        <ele>168.37</ele>
        <time>2018-09-19T12:45:13Z</time>
      </trkpt>
      <trkpt lat="49.242961965501308" lon="8.881665011867881">
        <ele>167.88999999999999</ele>
        <time>2018-09-19T12:45:22Z</time>
      </trkpt>
      <trkpt lat="49.243446020409465" lon="8.878917004913092">
        <ele>170.28999999999999</ele>
        <time>2018-09-19T12:45:32Z</time>
      </trkpt>
      <trkpt lat="49.243885986506939" lon="8.87618500739336">
        <ele>171.72999999999999</ele>
        <time>2018-09-19T12:45:41Z</time>
      </trkpt>
      <trkpt lat="49.244189998134971" lon="8.8741659745574">
        <ele>173.16999999999999</ele>
        <time>2018-09-19T12:45:47Z</time>
      </trkpt>
      <trkpt lat="49.2445960175246" lon="8.871666993945837">
        <ele>174.62</ele>
        <time>2018-09-19T12:45:57Z</time>
      </trkpt>
      <trkpt lat="49.245245028287172" lon="8.86825698427856">
        <ele>175.09999999999999</ele>
        <time>2018-09-19T12:46:11Z</time>
      </trkpt>
      <trkpt lat="49.24586302600801" lon="8.86572003364563">
        <ele>177.5</ele>
        <time>2018-09-19T12:46:21Z</time>
      </trkpt>
      <trkpt lat="49.246684033423662" lon="8.862957023084164">
        <ele>177.97999999999999</ele>
        <time>2018-09-19T12:46:31Z</time>
      </trkpt>
      <trkpt lat="49.24784098751843" lon="8.859595963731408">
        <ele>174.13999999999999</ele>
        <time>2018-09-19T12:46:43Z</time>
      </trkpt>
      <trkpt lat="49.248681021854281" lon="8.857325976714492">
        <ele>171.25</ele>
        <time>2018-09-19T12:46:52Z</time>
      </trkpt>
      <trkpt lat="49.249619040638208" lon="8.854782991111279">
        <ele>169.81</ele>
        <time>2018-09-19T12:47:04Z</time>
      </trkpt>
      <trkpt lat="49.250038973987103" lon="8.853675993159413">
        <ele>171.25</ele>
        <time>2018-09-19T12:47:12Z</time>
      </trkpt>
      <trkpt lat="49.250093959271908" lon="8.853528974577785">
        <ele>171.25</ele>
        <time>2018-09-19T12:47:19Z</time>
      </trkpt>
      <trkpt lat="49.250093959271908" lon="8.853528974577785">
        <ele>171.25</ele>
        <time>2018-09-19T12:47:21Z</time>
      </trkpt>
      <trkpt lat="49.250114997848868" lon="8.853471977636218">
        <ele>171.25</ele>
        <time>2018-09-19T12:47:22Z</time>
      </trkpt>
      <trkpt lat="49.250286994501948" lon="8.853009967133403">
        <ele>171.25</ele>
        <time>2018-09-19T12:47:29Z</time>
      </trkpt>
      <trkpt lat="49.250455973669887" lon="8.852557009086013">
        <ele>170.77000000000001</ele>
        <time>2018-09-19T12:47:35Z</time>
      </trkpt>
      <trkpt lat="49.250533003360033" lon="8.852347964420915">
        <ele>169.81</ele>
        <time>2018-09-19T12:47:38Z</time>
      </trkpt>
      <trkpt lat="49.250654960051179" lon="8.852022998034954">
        <ele>169.81</ele>
        <time>2018-09-19T12:47:43Z</time>
      </trkpt>
      <trkpt lat="49.250686978921294" lon="8.851935993880034">
        <ele>169.81</ele>
        <time>2018-09-19T12:47:44Z</time>
      </trkpt>
      <trkpt lat="49.250723021104932" lon="8.851840021088719">
        <ele>169.81</ele>
        <time>2018-09-19T12:47:45Z</time>
      </trkpt>
      <trkpt lat="49.250757973641157" lon="8.851745976135135">
        <ele>169.81</ele>
        <time>2018-09-19T12:47:46Z</time>
      </trkpt>
      <trkpt lat="49.250787980854511" lon="8.851662995293737">
        <ele>169.81</ele>
        <time>2018-09-19T12:47:47Z</time>
      </trkpt>
      <trkpt lat="49.250815976411104" lon="8.851588983088732">
        <ele>169.81</ele>
        <time>2018-09-19T12:47:48Z</time>
      </trkpt>
      <trkpt lat="49.250841960310936" lon="8.851517988368869">
        <ele>170.28999999999999</ele>
        <time>2018-09-19T12:47:49Z</time>
      </trkpt>
      <trkpt lat="49.250867022201419" lon="8.851450011134148">
        <ele>170.28999999999999</ele>
        <time>2018-09-19T12:47:50Z</time>
      </trkpt>
      <trkpt lat="49.250889988616109" lon="8.851387985050678">
        <ele>170.28999999999999</ele>
        <time>2018-09-19T12:47:51Z</time>
      </trkpt>
      <trkpt lat="49.250913038849831" lon="8.851323025301099">
        <ele>170.77000000000001</ele>
        <time>2018-09-19T12:47:52Z</time>
      </trkpt>
      <trkpt lat="49.250939022749662" lon="8.851253958418965">
        <ele>170.77000000000001</ele>
        <time>2018-09-19T12:47:53Z</time>
      </trkpt>
      <trkpt lat="49.250964000821114" lon="8.851186987012625">
        <ele>170.77000000000001</ele>
        <time>2018-09-19T12:47:54Z</time>
      </trkpt>
      <trkpt lat="49.250988978892565" lon="8.851116998121142">
        <ele>170.77000000000001</ele>
        <time>2018-09-19T12:47:55Z</time>
      </trkpt>
      <trkpt lat="49.251014040783048" lon="8.851050026714802">
        <ele>170.77000000000001</ele>
        <time>2018-09-19T12:47:56Z</time>
      </trkpt>
      <trkpt lat="49.251038013026118" lon="8.850985988974571">
        <ele>170.77000000000001</ele>
        <time>2018-09-19T12:47:57Z</time>
      </trkpt>
      <trkpt lat="49.251110013574362" lon="8.85078901425004">
        <ele>172.21000000000001</ele>
        <time>2018-09-19T12:48:00Z</time>
      </trkpt>
      <trkpt lat="49.251320986077189" lon="8.850215021520853">
        <ele>174.13999999999999</ele>
        <time>2018-09-19T12:48:09Z</time>
      </trkpt>
      <trkpt lat="49.251393992453814" lon="8.850017040967941">
        <ele>172.69</ele>
        <time>2018-09-19T12:48:12Z</time>
      </trkpt>
      <trkpt lat="49.251416958868504" lon="8.849953003227711">
        <ele>172.21000000000001</ele>
        <time>2018-09-19T12:48:13Z</time>
      </trkpt>
      <trkpt lat="49.251688029617071" lon="8.849236015230417">
        <ele>173.16999999999999</ele>
        <time>2018-09-19T12:48:19Z</time>
      </trkpt>
      <trkpt lat="49.252082984894514" lon="8.848175033926964">
        <ele>175.58000000000001</ele>
        <time>2018-09-19T12:48:24Z</time>
      </trkpt>
      <trkpt lat="49.25297699868679" lon="8.845780994743109">
        <ele>182.78999999999999</ele>
        <time>2018-09-19T12:48:33Z</time>
      </trkpt>
      <trkpt lat="49.253826001659036" lon="8.843488963320851">
        <ele>188.56</ele>
        <time>2018-09-19T12:48:43Z</time>
      </trkpt>
      <trkpt lat="49.254597974941134" lon="8.841393990442157">
        <ele>193.36000000000001</ele>
        <time>2018-09-19T12:48:52Z</time>
      </trkpt>
      <trkpt lat="49.255502969026566" lon="8.838841030374169">
        <ele>197.21000000000001</ele>
        <time>2018-09-19T12:49:03Z</time>
      </trkpt>
      <trkpt lat="49.256292963400483" lon="8.836161000654101">
        <ele>199.61000000000001</ele>
        <time>2018-09-19T12:49:14Z</time>
      </trkpt>
      <trkpt lat="49.256718009710312" lon="8.834318993613124">
        <ele>201.05000000000001</ele>
        <time>2018-09-19T12:49:22Z</time>
      </trkpt>
      <trkpt lat="49.257166022434831" lon="8.831800986081362">
        <ele>201.05000000000001</ele>
        <time>2018-09-19T12:49:34Z</time>
      </trkpt>
      <trkpt lat="49.257456036284566" lon="8.829688997939229">
        <ele>200.09</ele>
        <time>2018-09-19T12:49:46Z</time>
      </trkpt>
      <trkpt lat="49.257670026272535" lon="8.827786976471543">
        <ele>200.09</ele>
        <time>2018-09-19T12:49:55Z</time>
      </trkpt>
      <trkpt lat="49.258075039833784" lon="8.824207987636328">
        <ele>197.69</ele>
        <time>2018-09-19T12:50:08Z</time>
      </trkpt>
      <trkpt lat="49.25856102257967" lon="8.820488015189767">
        <ele>197.21000000000001</ele>
        <time>2018-09-19T12:50:21Z</time>
      </trkpt>
      <trkpt lat="49.258960001170635" lon="8.817889960482717">
        <ele>197.69</ele>
        <time>2018-09-19T12:50:31Z</time>
      </trkpt>
      <trkpt lat="49.259682018309832" lon="8.814024981111288">
        <ele>197.21000000000001</ele>
        <time>2018-09-19T12:50:45Z</time>
      </trkpt>
      <trkpt lat="49.260434964671731" lon="8.810598962008953">
        <ele>195.77000000000001</ele>
        <time>2018-09-19T12:50:57Z</time>
      </trkpt>
      <trkpt lat="49.261214984580874" lon="8.807779038324952">
        <ele>193.84</ele>
        <time>2018-09-19T12:51:07Z</time>
      </trkpt>
      <trkpt lat="49.262334974482656" lon="8.804601039737463">
        <ele>193.36000000000001</ele>
        <time>2018-09-19T12:51:18Z</time>
      </trkpt>
      <trkpt lat="49.263509027659893" lon="8.801748007535934">
        <ele>190.96000000000001</ele>
        <time>2018-09-19T12:51:28Z</time>
      </trkpt>
      <trkpt lat="49.264656007289886" lon="8.798940991982818">
        <ele>188.08000000000001</ele>
        <time>2018-09-19T12:51:39Z</time>
      </trkpt>
      <trkpt lat="49.265628978610039" lon="8.795880004763603">
        <ele>184.71000000000001</ele>
        <time>2018-09-19T12:51:51Z</time>
      </trkpt>
      <trkpt lat="49.266135999932885" lon="8.793804980814457">
        <ele>181.34999999999999</ele>
        <time>2018-09-19T12:51:59Z</time>
      </trkpt>
      <trkpt lat="49.266637992113829" lon="8.790993019938469">
        <ele>179.41999999999999</ele>
        <time>2018-09-19T12:52:09Z</time>
      </trkpt>
      <trkpt lat="49.267111988738179" lon="8.788165971636772">
        <ele>177.02000000000001</ele>
        <time>2018-09-19T12:52:20Z</time>
      </trkpt>
      <trkpt lat="49.267314998432994" lon="8.786906003952026">
        <ele>175.58000000000001</ele>
        <time>2018-09-19T12:52:27Z</time>
      </trkpt>
      <trkpt lat="49.26764901727438" lon="8.784942040219903">
        <ele>174.13999999999999</ele>
        <time>2018-09-19T12:52:38Z</time>
      </trkpt>
      <trkpt lat="49.268029974773526" lon="8.783095004037023">
        <ele>174.13999999999999</ele>
        <time>2018-09-19T12:52:48Z</time>
      </trkpt>
      <trkpt lat="49.268463989719748" lon="8.781021991744638">
        <ele>177.97999999999999</ele>
        <time>2018-09-19T12:52:59Z</time>
      </trkpt>
      <trkpt lat="49.269081987440586" lon="8.778553018346429">
        <ele>180.38</ele>
        <time>2018-09-19T12:53:13Z</time>
      </trkpt>
      <trkpt lat="49.269514996558428" lon="8.776997001841664">
        <ele>178.94</ele>
        <time>2018-09-19T12:53:20Z</time>
      </trkpt>
      <trkpt lat="49.270075997337699" lon="8.775052987039089">
        <ele>181.83000000000001</ele>
        <time>2018-09-19T12:53:29Z</time>
      </trkpt>
      <trkpt lat="49.270909996703267" lon="8.772620977833867">
        <ele>183.75</ele>
        <time>2018-09-19T12:53:40Z</time>
      </trkpt>
      <trkpt lat="49.271677024662495" lon="8.770463978871703">
        <ele>185.66999999999999</ele>
        <time>2018-09-19T12:53:49Z</time>
      </trkpt>
      <trkpt lat="49.271771991625428" lon="8.770201038569212">
        <ele>186.15000000000001</ele>
        <time>2018-09-19T12:53:50Z</time>
      </trkpt>
      <trkpt lat="49.272911008447409" lon="8.767385976389051">
        <ele>190.47999999999999</ele>
        <time>2018-09-19T12:54:01Z</time>
      </trkpt>
      <trkpt lat="49.274185979738832" lon="8.764227004721761">
        <ele>193.36000000000001</ele>
        <time>2018-09-19T12:54:13Z</time>
      </trkpt>
      <trkpt lat="49.275131039321423" lon="8.761352011933923">
        <ele>195.28</ele>
        <time>2018-09-19T12:54:23Z</time>
      </trkpt>
      <trkpt lat="49.275786001235247" lon="8.758126990869641">
        <ele>196.25</ele>
        <time>2018-09-19T12:54:33Z</time>
      </trkpt>
      <trkpt lat="49.276012983173132" lon="8.75477297231555">
        <ele>193.84</ele>
        <time>2018-09-19T12:54:43Z</time>
      </trkpt>
      <trkpt lat="49.275875017046928" lon="8.752264017239213">
        <ele>187.11000000000001</ele>
        <time>2018-09-19T12:54:51Z</time>
      </trkpt>
      <trkpt lat="49.275400014594197" lon="8.748779995366931">
        <ele>180.87</ele>
        <time>2018-09-19T12:55:01Z</time>
      </trkpt>
      <trkpt lat="49.275082005187869" lon="8.745794026181102">
        <ele>176.06</ele>
        <time>2018-09-19T12:55:10Z</time>
      </trkpt>
      <trkpt lat="49.275131039321423" lon="8.742262981832027">
        <ele>173.16999999999999</ele>
        <time>2018-09-19T12:55:20Z</time>
      </trkpt>
      <trkpt lat="49.275654992088675" lon="8.738609980791807">
        <ele>175.09999999999999</ele>
        <time>2018-09-19T12:55:31Z</time>
      </trkpt>
      <trkpt lat="49.276464013382792" lon="8.734829993918538">
        <ele>175.58000000000001</ele>
        <time>2018-09-19T12:55:44Z</time>
      </trkpt>
      <trkpt lat="49.277144037187099" lon="8.732335958629847">
        <ele>175.09999999999999</ele>
        <time>2018-09-19T12:55:53Z</time>
      </trkpt>
      <trkpt lat="49.278339967131615" lon="8.729157038033009">
        <ele>174.62</ele>
        <time>2018-09-19T12:56:04Z</time>
      </trkpt>
      <trkpt lat="49.279622985050082" lon="8.725872002542019">
        <ele>170.77000000000001</ele>
        <time>2018-09-19T12:56:16Z</time>
      </trkpt>
      <trkpt lat="49.280323963612318" lon="8.723272019997239">
        <ele>166.93000000000001</ele>
        <time>2018-09-19T12:56:24Z</time>
      </trkpt>
      <trkpt lat="49.280758984386921" lon="8.720371965318918">
        <ele>162.59999999999999</ele>
        <time>2018-09-19T12:56:33Z</time>
      </trkpt>
      <trkpt lat="49.280823022127151" lon="8.717359006404877">
        <ele>156.83000000000001</ele>
        <time>2018-09-19T12:56:42Z</time>
      </trkpt>
      <trkpt lat="49.280538959428668" lon="8.714479990303516">
        <ele>150.58000000000001</ele>
        <time>2018-09-19T12:56:51Z</time>
      </trkpt>
      <trkpt lat="49.279967984184623" lon="8.711742041632533">
        <ele>144.34</ele>
        <time>2018-09-19T12:57:00Z</time>
      </trkpt>
      <trkpt lat="49.279178995639086" lon="8.709167959168553">
        <ele>139.05000000000001</ele>
        <time>2018-09-19T12:57:10Z</time>
      </trkpt>
      <trkpt lat="49.278409034013748" lon="8.706895038485527">
        <ele>135.68000000000001</ele>
        <time>2018-09-19T12:57:20Z</time>
      </trkpt>
      <trkpt lat="49.277394991368055" lon="8.70344496332109">
        <ele>129.91999999999999</ele>
        <time>2018-09-19T12:57:33Z</time>
      </trkpt>
      <trkpt lat="49.276660988107324" lon="8.700056998059154">
        <ele>128.47</ele>
        <time>2018-09-19T12:57:45Z</time>
      </trkpt>
      <trkpt lat="49.27611599676311" lon="8.695984985679388">
        <ele>132.80000000000001</ele>
        <time>2018-09-19T12:57:59Z</time>
      </trkpt>
      <trkpt lat="49.275736967101693" lon="8.692758036777377">
        <ele>135.19999999999999</ele>
        <time>2018-09-19T12:58:11Z</time>
      </trkpt>
      <trkpt lat="49.27549296990037" lon="8.690255032852292">
        <ele>136.16</ele>
        <time>2018-09-19T12:58:19Z</time>
      </trkpt>
      <trkpt lat="49.275243021547794" lon="8.687993008643389">
        <ele>136.63999999999999</ele>
        <time>2018-09-19T12:58:24Z</time>
      </trkpt>
      <trkpt lat="49.27452796138823" lon="8.68314097635448">
        <ele>133.75999999999999</ele>
        <time>2018-09-19T12:58:33Z</time>
      </trkpt>
      <trkpt lat="49.273031959310174" lon="8.674952024593949">
        <ele>122.22</ele>
        <time>2018-09-19T12:58:48Z</time>
      </trkpt>
      <trkpt lat="49.272298039868474" lon="8.66939096711576">
        <ele>117.42</ele>
        <time>2018-09-19T12:58:58Z</time>
      </trkpt>
      <trkpt lat="49.271922027692199" lon="8.663206966593862">
        <ele>116.94</ele>
        <time>2018-09-19T12:59:09Z</time>
      </trkpt>
      <trkpt lat="49.27196703851223" lon="8.658140022307634">
        <ele>115.5</ele>
        <time>2018-09-19T12:59:18Z</time>
      </trkpt>
      <trkpt lat="49.27241999655962" lon="8.651944035664201">
        <ele>111.17</ele>
        <time>2018-09-19T12:59:29Z</time>
      </trkpt>
      <trkpt lat="49.27310798317194" lon="8.64710901863873">
        <ele>107.31999999999999</ele>
        <time>2018-09-19T12:59:38Z</time>
      </trkpt>
      <trkpt lat="49.274119008332491" lon="8.642165958881378">
        <ele>106.84</ele>
        <time>2018-09-19T12:59:48Z</time>
      </trkpt>
      <trkpt lat="49.274863991886377" lon="8.639045963063836">
        <ele>107.31999999999999</ele>
        <time>2018-09-19T12:59:56Z</time>
      </trkpt>
      <trkpt lat="49.275720035657287" lon="8.635935019701719">
        <ele>108.29000000000001</ele>
        <time>2018-09-19T13:00:04Z</time>
      </trkpt>
      <trkpt lat="49.276685966178775" lon="8.632721984758973">
        <ele>108.29000000000001</ele>
        <time>2018-09-19T13:00:12Z</time>
      </trkpt>
      <trkpt lat="49.278361005708575" lon="8.627626961097121">
        <ele>107.81</ele>
        <time>2018-09-19T13:00:24Z</time>
      </trkpt>
      <trkpt lat="49.28051901049912" lon="8.621900025755167">
        <ele>104.92</ele>
        <time>2018-09-19T13:00:36Z</time>
      </trkpt>
      <trkpt lat="49.281756011769176" lon="8.618982033804059">
        <ele>103.95999999999999</ele>
        <time>2018-09-19T13:00:42Z</time>
      </trkpt>
      <trkpt lat="49.284351971000433" lon="8.613546034321189">
        <ele>102.52</ele>
        <time>2018-09-19T13:00:54Z</time>
      </trkpt>
      <trkpt lat="49.287486970424652" lon="8.607980031520128">
        <ele>101.08</ele>
        <time>2018-09-19T13:01:07Z</time>
      </trkpt>
      <trkpt lat="49.290389036759734" lon="8.603619011119008">
        <ele>100.59999999999999</ele>
        <time>2018-09-19T13:01:18Z</time>
      </trkpt>
      <trkpt lat="49.29349503479898" lon="8.59960500150919">
        <ele>99.629999999999995</ele>
        <time>2018-09-19T13:01:29Z</time>
      </trkpt>
      <trkpt lat="49.296490978449583" lon="8.596289958804846">
        <ele>97.230000000000004</ele>
        <time>2018-09-19T13:01:39Z</time>
      </trkpt>
      <trkpt lat="49.299937030300498" lon="8.592958990484476">
        <ele>97.230000000000004</ele>
        <time>2018-09-19T13:01:50Z</time>
      </trkpt>
      <trkpt lat="49.303430020809174" lon="8.589746039360762">
        <ele>97.709999999999994</ele>
        <time>2018-09-19T13:02:01Z</time>
      </trkpt>
      <trkpt lat="49.307167008519173" lon="8.586058001965284">
        <ele>96.75</ele>
        <time>2018-09-19T13:02:13Z</time>
      </trkpt>
      <trkpt lat="49.310790002346039" lon="8.582095038145781">
        <ele>97.230000000000004</ele>
        <time>2018-09-19T13:02:25Z</time>
      </trkpt>
      <trkpt lat="49.314300008118153" lon="8.577864021062851">
        <ele>97.230000000000004</ele>
        <time>2018-09-19T13:02:37Z</time>
      </trkpt>
      <trkpt lat="49.318539993837476" lon="8.572326013818383">
        <ele>95.310000000000002</ele>
        <time>2018-09-19T13:02:52Z</time>
      </trkpt>
      <trkpt lat="49.32072096504271" lon="8.569586975499988">
        <ele>98.670000000000002</ele>
        <time>2018-09-19T13:03:00Z</time>
      </trkpt>
      <trkpt lat="49.322848040610552" lon="8.567268960177898">
        <ele>99.629999999999995</ele>
        <time>2018-09-19T13:03:09Z</time>
      </trkpt>
      <trkpt lat="49.324922980740666" lon="8.565301978960633">
        <ele>99.629999999999995</ele>
        <time>2018-09-19T13:03:17Z</time>
      </trkpt>
      <trkpt lat="49.327819012105465" lon="8.562911963090301">
        <ele>98.189999999999998</ele>
        <time>2018-09-19T13:03:28Z</time>
      </trkpt>
      <trkpt lat="49.331162972375751" lon="8.560733003541827">
        <ele>96.269999999999996</ele>
        <time>2018-09-19T13:03:40Z</time>
      </trkpt>
      <trkpt lat="49.333161972463131" lon="8.559650983661413">
        <ele>100.11</ele>
        <time>2018-09-19T13:03:47Z</time>
      </trkpt>
      <trkpt lat="49.336095973849297" lon="8.558414988219738">
        <ele>99.629999999999995</ele>
        <time>2018-09-19T13:03:57Z</time>
      </trkpt>
      <trkpt lat="49.340767962858081" lon="8.556597037240863">
        <ele>100.59999999999999</ele>
        <time>2018-09-19T13:04:13Z</time>
      </trkpt>
      <trkpt lat="49.344824971631169" lon="8.554727034643292">
        <ele>100.59999999999999</ele>
        <time>2018-09-19T13:04:27Z</time>
      </trkpt>
      <trkpt lat="49.34856397099793" lon="8.552844040095806">
        <ele>99.150000000000006</ele>
        <time>2018-09-19T13:04:40Z</time>
      </trkpt>
      <trkpt lat="49.353433018550277" lon="8.550235005095601">
        <ele>93.870000000000005</ele>
        <time>2018-09-19T13:04:57Z</time>
      </trkpt>
      <trkpt lat="49.358099978417158" lon="8.548109019175172">
        <ele>88.579999999999998</ele>
        <time>2018-09-19T13:05:13Z</time>
      </trkpt>
      <trkpt lat="49.360455041751266" lon="8.547290023416281">
        <ele>89.060000000000002</ele>
        <time>2018-09-19T13:05:21Z</time>
      </trkpt>
      <trkpt lat="49.364020032808185" lon="8.546191994100809">
        <ele>89.540000000000006</ele>
        <time>2018-09-19T13:05:33Z</time>
      </trkpt>
      <trkpt lat="49.36854399740696" lon="8.545293034985662">
        <ele>89.540000000000006</ele>
        <time>2018-09-19T13:05:48Z</time>
      </trkpt>
      <trkpt lat="49.372162967920303" lon="8.544761035591364">
        <ele>89.540000000000006</ele>
        <time>2018-09-19T13:06:00Z</time>
      </trkpt>
      <trkpt lat="49.376401025801897" lon="8.544316040351987">
        <ele>89.060000000000002</ele>
        <time>2018-09-19T13:06:14Z</time>
      </trkpt>
      <trkpt lat="49.380342029035091" lon="8.544048992916942">
        <ele>89.540000000000006</ele>
        <time>2018-09-19T13:06:27Z</time>
      </trkpt>
      <trkpt lat="49.384879991412163" lon="8.543884037062526">
        <ele>88.099999999999994</ele>
        <time>2018-09-19T13:06:42Z</time>
      </trkpt>
      <trkpt lat="49.3882230296731" lon="8.543871967121959">
        <ele>88.099999999999994</ele>
        <time>2018-09-19T13:06:53Z</time>
      </trkpt>
      <trkpt lat="49.39275898039341" lon="8.544030971825123">
        <ele>88.099999999999994</ele>
        <time>2018-09-19T13:07:08Z</time>
      </trkpt>
      <trkpt lat="49.395985007286072" lon="8.544259965419769">
        <ele>88.579999999999998</ele>
        <time>2018-09-19T13:07:19Z</time>
      </trkpt>
      <trkpt lat="49.398176958784461" lon="8.544493988156319">
        <ele>90.5</ele>
        <time>2018-09-19T13:07:28Z</time>
      </trkpt>
      <trkpt lat="49.401940014213324" lon="8.545163031667471">
        <ele>94.349999999999994</ele>
        <time>2018-09-19T13:07:44Z</time>
      </trkpt>
      <trkpt lat="49.404159961268306" lon="8.545783963054419">
        <ele>97.709999999999994</ele>
        <time>2018-09-19T13:07:53Z</time>
      </trkpt>
      <trkpt lat="49.4059700332582" lon="8.546330966055393">
        <ele>101.56</ele>
        <time>2018-09-19T13:08:01Z</time>
      </trkpt>
      <trkpt lat="49.408954996615648" lon="8.547266973182559">
        <ele>105.40000000000001</ele>
        <time>2018-09-19T13:08:15Z</time>
      </trkpt>
      <trkpt lat="49.410786023363471" lon="8.547727977856994">
        <ele>106.36</ele>
        <time>2018-09-19T13:08:23Z</time>
      </trkpt>
      <trkpt lat="49.412860963493586" lon="8.548026960343123">
        <ele>107.31999999999999</ele>
        <time>2018-09-19T13:08:31Z</time>
      </trkpt>
      <trkpt lat="49.415923962369561" lon="8.547924030572176">
        <ele>103.95999999999999</ele>
        <time>2018-09-19T13:08:42Z</time>
      </trkpt>
      <trkpt lat="49.418464014306664" lon="8.547367975115776">
        <ele>103</ele>
        <time>2018-09-19T13:08:52Z</time>
      </trkpt>
      <trkpt lat="49.421560959890485" lon="8.54608797468245">
        <ele>101.08</ele>
        <time>2018-09-19T13:09:04Z</time>
      </trkpt>
      <trkpt lat="49.425613023340702" lon="8.543862998485565">
        <ele>95.790000000000006</ele>
        <time>2018-09-19T13:09:19Z</time>
      </trkpt>
      <trkpt lat="49.429381024092436" lon="8.542070025578141">
        <ele>94.349999999999994</ele>
        <time>2018-09-19T13:09:33Z</time>
      </trkpt>
      <trkpt lat="49.432717021554708" lon="8.54099496267736">
        <ele>91.939999999999998</ele>
        <time>2018-09-19T13:09:45Z</time>
      </trkpt>
      <trkpt lat="49.435450024902821" lon="8.540516020730138">
        <ele>90.980000000000004</ele>
        <time>2018-09-19T13:09:54Z</time>
      </trkpt>
      <trkpt lat="49.439305029809475" lon="8.540360033512116">
        <ele>93.390000000000001</ele>
        <time>2018-09-19T13:10:06Z</time>
      </trkpt>
      <trkpt lat="49.443253995850682" lon="8.540876023471355">
        <ele>93.870000000000005</ele>
        <time>2018-09-19T13:10:18Z</time>
      </trkpt>
      <trkpt lat="49.446338033303618" lon="8.541683033108711">
        <ele>98.670000000000002</ele>
        <time>2018-09-19T13:10:28Z</time>
      </trkpt>
      <trkpt lat="49.449186036363244" lon="8.542350986972451">
        <ele>102.04000000000001</ele>
        <time>2018-09-19T13:10:37Z</time>
      </trkpt>
      <trkpt lat="49.451983999460936" lon="8.542470009997487">
        <ele>102.52</ele>
        <time>2018-09-19T13:10:45Z</time>
      </trkpt>
      <trkpt lat="49.454986983910203" lon="8.541833991184831">
        <ele>97.709999999999994</ele>
        <time>2018-09-19T13:10:54Z</time>
      </trkpt>
      <trkpt lat="49.458844000473619" lon="8.540299013257027">
        <ele>96.269999999999996</ele>
        <time>2018-09-19T13:11:06Z</time>
      </trkpt>
      <trkpt lat="49.461784958839417" lon="8.539614966139197">
        <ele>96.75</ele>
        <time>2018-09-19T13:11:15Z</time>
      </trkpt>
      <trkpt lat="49.464786015450954" lon="8.539655031636357">
        <ele>96.269999999999996</ele>
        <time>2018-09-19T13:11:24Z</time>
      </trkpt>
      <trkpt lat="49.467734014615417" lon="8.540486013516784">
        <ele>95.790000000000006</ele>
        <time>2018-09-19T13:11:33Z</time>
      </trkpt>
      <trkpt lat="49.471948016434908" lon="8.542001964524388">
        <ele>93.870000000000005</ele>
        <time>2018-09-19T13:11:46Z</time>
      </trkpt>
      <trkpt lat="49.475591965019703" lon="8.543247012421489">
        <ele>94.829999999999998</ele>
        <time>2018-09-19T13:11:57Z</time>
      </trkpt>
      <trkpt lat="49.479949967935681" lon="8.544747959822416">
        <ele>96.269999999999996</ele>
        <time>2018-09-19T13:12:09Z</time>
      </trkpt>
      <trkpt lat="49.482740974053741" lon="8.546288972720504">
        <ele>95.310000000000002</ele>
        <time>2018-09-19T13:12:17Z</time>
      </trkpt>
      <trkpt lat="49.487038962543011" lon="8.549636034294963">
        <ele>90.019999999999996</ele>
        <time>2018-09-19T13:12:30Z</time>
      </trkpt>
      <trkpt lat="49.491945980116725" lon="8.55367099866271">
        <ele>93.390000000000001</ele>
        <time>2018-09-19T13:12:45Z</time>
      </trkpt>
      <trkpt lat="49.494848968461156" lon="8.556220019236207">
        <ele>95.310000000000002</ele>
        <time>2018-09-19T13:12:54Z</time>
      </trkpt>
      <trkpt lat="49.497144017368555" lon="8.558155987411737">
        <ele>96.269999999999996</ele>
        <time>2018-09-19T13:13:01Z</time>
      </trkpt>
      <trkpt lat="49.499922031536698" lon="8.559769000858069">
        <ele>99.629999999999995</ele>
        <time>2018-09-19T13:13:09Z</time>
      </trkpt>
      <trkpt lat="49.502350017428398" lon="8.560572993010283">
        <ele>99.629999999999995</ele>
        <time>2018-09-19T13:13:16Z</time>
      </trkpt>
      <trkpt lat="49.505066005513072" lon="8.560878010466695">
        <ele>97.709999999999994</ele>
        <time>2018-09-19T13:13:24Z</time>
      </trkpt>
      <trkpt lat="49.509418979287148" lon="8.560720011591911">
        <ele>94.829999999999998</ele>
        <time>2018-09-19T13:13:37Z</time>
      </trkpt>
      <trkpt lat="49.51172199100256" lon="8.560603000223637">
        <ele>94.829999999999998</ele>
        <time>2018-09-19T13:13:44Z</time>
      </trkpt>
      <trkpt lat="49.512033965438604" lon="8.560586990788579">
        <ele>93.870000000000005</ele>
        <time>2018-09-19T13:13:45Z</time>
      </trkpt>
      <trkpt lat="49.515209030359983" lon="8.560408959165216">
        <ele>95.310000000000002</ele>
        <time>2018-09-19T13:13:55Z</time>
      </trkpt>
      <trkpt lat="49.517672974616289" lon="8.560292031615973">
        <ele>96.75</ele>
        <time>2018-09-19T13:14:02Z</time>
      </trkpt>
      <trkpt lat="49.519465025514364" lon="8.560197986662388">
        <ele>97.230000000000004</ele>
        <time>2018-09-19T13:14:08Z</time>
      </trkpt>
      <trkpt lat="49.522069031372666" lon="8.560071000829339">
        <ele>99.629999999999995</ele>
        <time>2018-09-19T13:14:18Z</time>
      </trkpt>
      <trkpt lat="49.525058018043637" lon="8.559940997511149">
        <ele>102.04000000000001</ele>
        <time>2018-09-19T13:14:29Z</time>
      </trkpt>
      <trkpt lat="49.528876980766654" lon="8.55981501750648">
        <ele>100.11</ele>
        <time>2018-09-19T13:14:42Z</time>
      </trkpt>
      <trkpt lat="49.531309995800257" lon="8.559716027230024">
        <ele>95.790000000000006</ele>
        <time>2018-09-19T13:14:51Z</time>
      </trkpt>
      <trkpt lat="49.534448012709618" lon="8.559572026133537">
        <ele>92.420000000000002</ele>
        <time>2018-09-19T13:15:03Z</time>
      </trkpt>
      <trkpt lat="49.536907011643052" lon="8.559463983401656">
        <ele>91.939999999999998</ele>
        <time>2018-09-19T13:15:11Z</time>
      </trkpt>
      <trkpt lat="49.540688004344702" lon="8.559306990355253">
        <ele>95.310000000000002</ele>
        <time>2018-09-19T13:15:21Z</time>
      </trkpt>
      <trkpt lat="49.544419040903449" lon="8.559131976217032">
        <ele>93.870000000000005</ele>
        <time>2018-09-19T13:15:31Z</time>
      </trkpt>
      <trkpt lat="49.55003198236227" lon="8.558886973187327">
        <ele>93.390000000000001</ele>
        <time>2018-09-19T13:15:46Z</time>
      </trkpt>
      <trkpt lat="49.553393963724375" lon="8.558713970705867">
        <ele>93.870000000000005</ele>
        <time>2018-09-19T13:15:55Z</time>
      </trkpt>
      <trkpt lat="49.556010039523244" lon="8.558625038713217">
        <ele>90.980000000000004</ele>
        <time>2018-09-19T13:16:02Z</time>
      </trkpt>
      <trkpt lat="49.55941803753376" lon="8.558630989864469">
        <ele>90.5</ele>
        <time>2018-09-19T13:16:11Z</time>
      </trkpt>
      <trkpt lat="49.56107497215271" lon="8.558716988191009">
        <ele>91.459999999999994</ele>
        <time>2018-09-19T13:16:16Z</time>
      </trkpt>
      <trkpt lat="49.563579987734556" lon="8.558930978178978">
        <ele>91.939999999999998</ele>
        <time>2018-09-19T13:16:25Z</time>
      </trkpt>
      <trkpt lat="49.565597008913755" lon="8.559114960953593">
        <ele>91.939999999999998</ele>
        <time>2018-09-19T13:16:31Z</time>
      </trkpt>
      <trkpt lat="49.569368027150631" lon="8.559434982016683">
        <ele>92.420000000000002</ele>
        <time>2018-09-19T13:16:41Z</time>
      </trkpt>
      <trkpt lat="49.573166035115719" lon="8.559770006686449">
        <ele>91.939999999999998</ele>
        <time>2018-09-19T13:16:51Z</time>
      </trkpt>
      <trkpt lat="49.57656598649919" lon="8.560069995000958">
        <ele>92.420000000000002</ele>
        <time>2018-09-19T13:17:00Z</time>
      </trkpt>
      <trkpt lat="49.579581962898374" lon="8.560336036607623">
        <ele>92.420000000000002</ele>
        <time>2018-09-19T13:17:08Z</time>
      </trkpt>
      <trkpt lat="49.583729999139905" lon="8.560701990500093">
        <ele>91.939999999999998</ele>
        <time>2018-09-19T13:17:19Z</time>
      </trkpt>
      <trkpt lat="49.587131040170789" lon="8.560920003801584">
        <ele>90.5</ele>
        <time>2018-09-19T13:17:28Z</time>
      </trkpt>
      <trkpt lat="49.590815976262093" lon="8.560836017131805">
        <ele>90.980000000000004</ele>
        <time>2018-09-19T13:17:38Z</time>
      </trkpt>
      <trkpt lat="49.594249036163092" lon="8.560515996068716">
        <ele>88.579999999999998</ele>
        <time>2018-09-19T13:17:49Z</time>
      </trkpt>
      <trkpt lat="49.597502974793315" lon="8.56000998057425">
        <ele>88.579999999999998</ele>
        <time>2018-09-19T13:17:59Z</time>
      </trkpt>
      <trkpt lat="49.600013019517064" lon="8.559623993933201">
        <ele>88.099999999999994</ele>
        <time>2018-09-19T13:18:06Z</time>
      </trkpt>
      <trkpt lat="49.602151997387409" lon="8.559293998405337">
        <ele>88.099999999999994</ele>
        <time>2018-09-19T13:18:12Z</time>
      </trkpt>
      <trkpt lat="49.605217007920146" lon="8.558822013437748">
        <ele>87.140000000000001</ele>
        <time>2018-09-19T13:18:20Z</time>
      </trkpt>
      <trkpt lat="49.610501965507865" lon="8.558008968830109">
        <ele>86.180000000000007</ele>
        <time>2018-09-19T13:18:34Z</time>
      </trkpt>
      <trkpt lat="49.614650001749396" lon="8.557362975552678">
        <ele>85.689999999999998</ele>
        <time>2018-09-19T13:18:45Z</time>
      </trkpt>
      <trkpt lat="49.61835203692317" lon="8.556783031672239">
        <ele>84.25</ele>
        <time>2018-09-19T13:18:55Z</time>
      </trkpt>
      <trkpt lat="49.621561970561743" lon="8.556280033662915">
        <ele>83.769999999999996</ele>
        <time>2018-09-19T13:19:04Z</time>
      </trkpt>
      <trkpt lat="49.62722604162991" lon="8.555391971021891">
        <ele>84.730000000000004</ele>
        <time>2018-09-19T13:19:19Z</time>
      </trkpt>
      <trkpt lat="49.631370976567268" lon="8.554748995229602">
        <ele>86.659999999999997</ele>
        <time>2018-09-19T13:19:30Z</time>
      </trkpt>
      <trkpt lat="49.635514989495277" lon="8.554105013608933">
        <ele>85.209999999999994</ele>
        <time>2018-09-19T13:19:41Z</time>
      </trkpt>
      <trkpt lat="49.641165984794497" lon="8.55322097428143">
        <ele>85.209999999999994</ele>
        <time>2018-09-19T13:19:56Z</time>
      </trkpt>
      <trkpt lat="49.646812034770846" lon="8.552357973530889">
        <ele>86.180000000000007</ele>
        <time>2018-09-19T13:20:11Z</time>
      </trkpt>
      <trkpt lat="49.649424003437161" lon="8.5521259624511">
        <ele>87.140000000000001</ele>
        <time>2018-09-19T13:20:19Z</time>
      </trkpt>
      <trkpt lat="49.652632009238005" lon="8.552174996584654">
        <ele>90.5</ele>
        <time>2018-09-19T13:20:30Z</time>
      </trkpt>
      <trkpt lat="49.655356965959072" lon="8.552571963518858">
        <ele>93.870000000000005</ele>
        <time>2018-09-19T13:20:40Z</time>
      </trkpt>
      <trkpt lat="49.658689023926854" lon="8.553489027544856">
        <ele>94.829999999999998</ele>
        <time>2018-09-19T13:20:52Z</time>
      </trkpt>
      <trkpt lat="49.660592973232269" lon="8.554118005558848">
        <ele>94.349999999999994</ele>
        <time>2018-09-19T13:20:58Z</time>
      </trkpt>
      <trkpt lat="49.663180969655514" lon="8.554920991882682">
        <ele>91.459999999999994</ele>
        <time>2018-09-19T13:21:05Z</time>
      </trkpt>
      <trkpt lat="49.666003994643688" lon="8.555632028728724">
        <ele>90.5</ele>
        <time>2018-09-19T13:21:13Z</time>
      </trkpt>
      <trkpt lat="49.66976897791028" lon="8.55594702064991">
        <ele>91.939999999999998</ele>
        <time>2018-09-19T13:21:23Z</time>
      </trkpt>
      <trkpt lat="49.673959007486701" lon="8.55564602650702">
        <ele>91.939999999999998</ele>
        <time>2018-09-19T13:21:34Z</time>
      </trkpt>
      <trkpt lat="49.677209006622434" lon="8.554939012974501">
        <ele>88.579999999999998</ele>
        <time>2018-09-19T13:21:43Z</time>
      </trkpt>
      <trkpt lat="49.678513985127211" lon="8.55457004159689">
        <ele>87.620000000000005</ele>
        <time>2018-09-19T13:21:48Z</time>
      </trkpt>
      <trkpt lat="49.679849976673722" lon="8.55420702137053">
        <ele>86.659999999999997</ele>
        <time>2018-09-19T13:21:55Z</time>
      </trkpt>
      <trkpt lat="49.681159984320402" lon="8.553856993094087">
        <ele>86.659999999999997</ele>
        <time>2018-09-19T13:22:01Z</time>
      </trkpt>
      <trkpt lat="49.682474015280604" lon="8.553503025323153">
        <ele>86.180000000000007</ele>
        <time>2018-09-19T13:22:06Z</time>
      </trkpt>
      <trkpt lat="49.682751959189773" lon="8.553429013118148">
        <ele>86.180000000000007</ele>
        <time>2018-09-19T13:22:07Z</time>
      </trkpt>
      <trkpt lat="49.685255968943238" lon="8.552760975435376">
        <ele>86.180000000000007</ele>
        <time>2018-09-19T13:22:16Z</time>
      </trkpt>
      <trkpt lat="49.687425959855318" lon="8.552182037383318">
        <ele>84.730000000000004</ele>
        <time>2018-09-19T13:22:25Z</time>
      </trkpt>
      <trkpt lat="49.689410962164402" lon="8.55165297165513">
        <ele>83.290000000000006</ele>
        <time>2018-09-19T13:22:33Z</time>
      </trkpt>
      <trkpt lat="49.691880019381642" lon="8.550993986427784">
        <ele>84.25</ele>
        <time>2018-09-19T13:22:41Z</time>
      </trkpt>
      <trkpt lat="49.695092970505357" lon="8.550177002325654">
        <ele>84.25</ele>
        <time>2018-09-19T13:22:50Z</time>
      </trkpt>
      <trkpt lat="49.699156014248729" lon="8.549103029072285">
        <ele>83.290000000000006</ele>
        <time>2018-09-19T13:23:01Z</time>
      </trkpt>
      <trkpt lat="49.701560027897358" lon="8.548467010259628">
        <ele>86.659999999999997</ele>
        <time>2018-09-19T13:23:09Z</time>
      </trkpt>
      <trkpt lat="49.703505970537663" lon="8.547962000593543">
        <ele>86.180000000000007</ele>
        <time>2018-09-19T13:23:17Z</time>
      </trkpt>
      <trkpt lat="49.706726968288422" lon="8.547097994014621">
        <ele>80.890000000000001</ele>
        <time>2018-09-19T13:23:29Z</time>
      </trkpt>
      <trkpt lat="49.710196992382407" lon="8.546166010200977">
        <ele>79.930000000000007</ele>
        <time>2018-09-19T13:23:41Z</time>
      </trkpt>
      <trkpt lat="49.713891986757517" lon="8.545198990032077">
        <ele>82.810000000000002</ele>
        <time>2018-09-19T13:23:53Z</time>
      </trkpt>
      <trkpt lat="49.717537024989724" lon="8.544247979298234">
        <ele>82.810000000000002</ele>
        <time>2018-09-19T13:24:04Z</time>
      </trkpt>
      <trkpt lat="49.72064302302897" lon="8.543437030166388">
        <ele>83.290000000000006</ele>
        <time>2018-09-19T13:24:13Z</time>
      </trkpt>
      <trkpt lat="49.723475016653538" lon="8.542964039370418">
        <ele>83.290000000000006</ele>
        <time>2018-09-19T13:24:21Z</time>
      </trkpt>
      <trkpt lat="49.727276964113116" lon="8.542962027713656">
        <ele>83.290000000000006</ele>
        <time>2018-09-19T13:24:31Z</time>
      </trkpt>
      <trkpt lat="49.730105018243194" lon="8.543038973584771">
        <ele>83.769999999999996</ele>
        <time>2018-09-19T13:24:39Z</time>
      </trkpt>
      <trkpt lat="49.733350994065404" lon="8.543132012709975">
        <ele>83.290000000000006</ele>
        <time>2018-09-19T13:24:49Z</time>
      </trkpt>
      <trkpt lat="49.737283028662205" lon="8.543260004371405">
        <ele>84.25</ele>
        <time>2018-09-19T13:25:01Z</time>
      </trkpt>
      <trkpt lat="49.741861978545785" lon="8.543371986597776">
        <ele>85.209999999999994</ele>
        <time>2018-09-19T13:25:15Z</time>
      </trkpt>
      <trkpt lat="49.744486017152667" lon="8.543461002409458">
        <ele>86.659999999999997</ele>
        <time>2018-09-19T13:25:23Z</time>
      </trkpt>
      <trkpt lat="49.748136000707746" lon="8.543557981029153">
        <ele>87.620000000000005</ele>
        <time>2018-09-19T13:25:34Z</time>
      </trkpt>
      <trkpt lat="49.750199038535357" lon="8.543614977970719">
        <ele>87.620000000000005</ele>
        <time>2018-09-19T13:25:41Z</time>
      </trkpt>
      <trkpt lat="49.753411989659071" lon="8.543702987954021">
        <ele>88.579999999999998</ele>
        <time>2018-09-19T13:25:52Z</time>
      </trkpt>
      <trkpt lat="49.757597995921969" lon="8.543819999322295">
        <ele>89.060000000000002</ele>
        <time>2018-09-19T13:26:06Z</time>
      </trkpt>
      <trkpt lat="49.760325970128179" lon="8.543899040669203">
        <ele>88.579999999999998</ele>
        <time>2018-09-19T13:26:15Z</time>
      </trkpt>
      <trkpt lat="49.76438800804317" lon="8.544113030657172">
        <ele>88.099999999999994</ele>
        <time>2018-09-19T13:26:26Z</time>
      </trkpt>
      <trkpt lat="49.766979021951556" lon="8.544683000072837">
        <ele>86.659999999999997</ele>
        <time>2018-09-19T13:26:33Z</time>
      </trkpt>
      <trkpt lat="49.769829958677292" lon="8.546099038794637">
        <ele>88.099999999999994</ele>
        <time>2018-09-19T13:26:41Z</time>
      </trkpt>
      <trkpt lat="49.772032974287868" lon="8.547739963978529">
        <ele>88.579999999999998</ele>
        <time>2018-09-19T13:26:48Z</time>
      </trkpt>
      <trkpt lat="49.77444302290678" lon="8.549811970442534">
        <ele>88.099999999999994</ele>
        <time>2018-09-19T13:26:56Z</time>
      </trkpt>
      <trkpt lat="49.777255989611149" lon="8.552217995747924">
        <ele>89.060000000000002</ele>
        <time>2018-09-19T13:27:07Z</time>
      </trkpt>
      <trkpt lat="49.779782965779305" lon="8.554381029680371">
        <ele>89.060000000000002</ele>
        <time>2018-09-19T13:27:18Z</time>
      </trkpt>
      <trkpt lat="49.781394973397255" lon="8.555765971541405">
        <ele>88.579999999999998</ele>
        <time>2018-09-19T13:27:27Z</time>
      </trkpt>
      <trkpt lat="49.783261958509684" lon="8.5573669988662">
        <ele>89.540000000000006</ele>
        <time>2018-09-19T13:27:36Z</time>
      </trkpt>
      <trkpt lat="49.785075969994068" lon="8.558924021199346">
        <ele>91.939999999999998</ele>
        <time>2018-09-19T13:27:45Z</time>
      </trkpt>
      <trkpt lat="49.787939982488751" lon="8.561380002647638">
        <ele>91.459999999999994</ele>
        <time>2018-09-19T13:27:59Z</time>
      </trkpt>
      <trkpt lat="49.790366040542722" lon="8.563357964158058">
        <ele>91.459999999999994</ele>
        <time>2018-09-19T13:28:09Z</time>
      </trkpt>
      <trkpt lat="49.793181018903852" lon="8.565396023914218">
        <ele>91.459999999999994</ele>
        <time>2018-09-19T13:28:20Z</time>
      </trkpt>
      <trkpt lat="49.795676982030272" lon="8.567067962139845">
        <ele>91.459999999999994</ele>
        <time>2018-09-19T13:28:30Z</time>
      </trkpt>
      <trkpt lat="49.797189999371767" lon="8.568087033927441">
        <ele>90.980000000000004</ele>
        <time>2018-09-19T13:28:37Z</time>
      </trkpt>
      <trkpt lat="49.799438025802374" lon="8.569599967449904">
        <ele>91.939999999999998</ele>
        <time>2018-09-19T13:28:47Z</time>
      </trkpt>
      <trkpt lat="49.802077990025282" lon="8.571352958679199">
        <ele>91.939999999999998</ele>
        <time>2018-09-19T13:28:57Z</time>
      </trkpt>
      <trkpt lat="49.804272959008813" lon="8.572844015434384">
        <ele>92.420000000000002</ele>
        <time>2018-09-19T13:29:05Z</time>
      </trkpt>
      <trkpt lat="49.806397017091513" lon="8.574292995035648">
        <ele>92.900000000000006</ele>
        <time>2018-09-19T13:29:14Z</time>
      </trkpt>
      <trkpt lat="49.809256000444293" lon="8.576173977926374">
        <ele>94.349999999999994</ele>
        <time>2018-09-19T13:29:26Z</time>
      </trkpt>
      <trkpt lat="49.811417022719979" lon="8.577623963356018">
        <ele>95.790000000000006</ele>
        <time>2018-09-19T13:29:35Z</time>
      </trkpt>
      <trkpt lat="49.813169008120894" lon="8.578803967684507">
        <ele>97.230000000000004</ele>
        <time>2018-09-19T13:29:43Z</time>
      </trkpt>
      <trkpt lat="49.814671967178583" lon="8.57981700450182">
        <ele>97.709999999999994</ele>
        <time>2018-09-19T13:29:52Z</time>
      </trkpt>
      <trkpt lat="49.816564014181495" lon="8.581095999106765">
        <ele>98.189999999999998</ele>
        <time>2018-09-19T13:30:01Z</time>
      </trkpt>
      <trkpt lat="49.818996023386717" lon="8.582733990624547">
        <ele>95.790000000000006</ele>
        <time>2018-09-19T13:30:13Z</time>
      </trkpt>
      <trkpt lat="49.821519982069731" lon="8.584426967427135">
        <ele>94.349999999999994</ele>
        <time>2018-09-19T13:30:25Z</time>
      </trkpt>
      <trkpt lat="49.823724003508687" lon="8.585911989212036">
        <ele>95.790000000000006</ele>
        <time>2018-09-19T13:30:34Z</time>
      </trkpt>
      <trkpt lat="49.826597990468144" lon="8.587848041206598">
        <ele>96.269999999999996</ele>
        <time>2018-09-19T13:30:46Z</time>
      </trkpt>
      <trkpt lat="49.828879041597247" lon="8.589384024962783">
        <ele>97.230000000000004</ele>
        <time>2018-09-19T13:30:54Z</time>
      </trkpt>
      <trkpt lat="49.83195997774601" lon="8.591446978971362">
        <ele>97.709999999999994</ele>
        <time>2018-09-19T13:31:05Z</time>
      </trkpt>
      <trkpt lat="49.834184031933546" lon="8.592782970517874">
        <ele>99.629999999999995</ele>
        <time>2018-09-19T13:31:13Z</time>
      </trkpt>
      <trkpt lat="49.836486959829926" lon="8.59361001290381">
        <ele>103.48</ele>
        <time>2018-09-19T13:31:21Z</time>
      </trkpt>
      <trkpt lat="49.838939001783729" lon="8.594179982319474">
        <ele>103.48</ele>
        <time>2018-09-19T13:31:29Z</time>
      </trkpt>
      <trkpt lat="49.841446029022336" lon="8.594672000035644">
        <ele>103</ele>
        <time>2018-09-19T13:31:36Z</time>
      </trkpt>
      <trkpt lat="49.844683036208153" lon="8.595312964171171">
        <ele>104.92</ele>
        <time>2018-09-19T13:31:45Z</time>
      </trkpt>
      <trkpt lat="49.847070034593344" lon="8.595814034342766">
        <ele>105.40000000000001</ele>
        <time>2018-09-19T13:31:53Z</time>
      </trkpt>
      <trkpt lat="49.849918959662318" lon="8.596420967951417">
        <ele>106.36</ele>
        <time>2018-09-19T13:32:02Z</time>
      </trkpt>
      <trkpt lat="49.853867003694177" lon="8.597265025600791">
        <ele>105.40000000000001</ele>
        <time>2018-09-19T13:32:14Z</time>
      </trkpt>
      <trkpt lat="49.855840019881725" lon="8.597705997526646">
        <ele>104.92</ele>
        <time>2018-09-19T13:32:21Z</time>
      </trkpt>
      <trkpt lat="49.858017973601818" lon="8.598496997728944">
        <ele>105.40000000000001</ele>
        <time>2018-09-19T13:32:29Z</time>
      </trkpt>
      <trkpt lat="49.859603997319937" lon="8.599011981859803">
        <ele>109.25</ele>
        <time>2018-09-19T13:32:35Z</time>
      </trkpt>
      <trkpt lat="49.859859980642796" lon="8.599011981859803">
        <ele>109.73</ele>
        <time>2018-09-19T13:32:36Z</time>
      </trkpt>
      <trkpt lat="49.860108001157641" lon="8.598967976868153">
        <ele>109.73</ele>
        <time>2018-09-19T13:32:37Z</time>
      </trkpt>
      <trkpt lat="49.860346969217062" lon="8.598878961056471">
        <ele>110.20999999999999</ele>
        <time>2018-09-19T13:32:38Z</time>
      </trkpt>
      <trkpt lat="49.86057898029685" lon="8.598792040720582">
        <ele>110.69</ele>
        <time>2018-09-19T13:32:39Z</time>
      </trkpt>
      <trkpt lat="49.860799005255103" lon="8.598661031574011">
        <ele>110.69</ele>
        <time>2018-09-19T13:32:40Z</time>
      </trkpt>
      <trkpt lat="49.861003020778298" lon="8.598484005779028">
        <ele>110.69</ele>
        <time>2018-09-19T13:32:41Z</time>
      </trkpt>
      <trkpt lat="49.86118096858263" lon="8.598265992477536">
        <ele>110.69</ele>
        <time>2018-09-19T13:32:42Z</time>
      </trkpt>
      <trkpt lat="49.86135195940733" lon="8.59803800471127">
        <ele>110.69</ele>
        <time>2018-09-19T13:32:43Z</time>
      </trkpt>
      <trkpt lat="49.861495960503817" lon="8.597753020003438">
        <ele>110.20999999999999</ele>
        <time>2018-09-19T13:32:44Z</time>
      </trkpt>
      <trkpt lat="49.861628981307149" lon="8.597440039739013">
        <ele>110.20999999999999</ele>
        <time>2018-09-19T13:32:45Z</time>
      </trkpt>
      <trkpt lat="49.861772982403636" lon="8.597101997584105">
        <ele>109.73</ele>
        <time>2018-09-19T13:32:46Z</time>
      </trkpt>
      <trkpt lat="49.861874990165234" lon="8.596772002056241">
        <ele>109.25</ele>
        <time>2018-09-19T13:32:47Z</time>
      </trkpt>
      <trkpt lat="49.861983032897115" lon="8.596420967951417">
        <ele>108.29000000000001</ele>
        <time>2018-09-19T13:32:48Z</time>
      </trkpt>
      <trkpt lat="49.862454012036324" lon="8.595139039680362">
        <ele>105.88</ele>
        <time>2018-09-19T13:32:52Z</time>
      </trkpt>
      <trkpt lat="49.862630032002926" lon="8.594890013337135">
        <ele>105.40000000000001</ele>
        <time>2018-09-19T13:32:53Z</time>
      </trkpt>
      <trkpt lat="49.862808985635638" lon="8.594624977558851">
        <ele>104.92</ele>
        <time>2018-09-19T13:32:54Z</time>
      </trkpt>
      <trkpt lat="49.862991040572524" lon="8.594350973144174">
        <ele>104.92</ele>
        <time>2018-09-19T13:32:55Z</time>
      </trkpt>
      <trkpt lat="49.863189021125436" lon="8.594055008143187">
        <ele>104.44</ele>
        <time>2018-09-19T13:32:56Z</time>
      </trkpt>
      <trkpt lat="49.86472500488162" lon="8.592625977471471">
        <ele>103.48</ele>
        <time>2018-09-19T13:33:02Z</time>
      </trkpt>
      <trkpt lat="49.866083962842822" lon="8.591029979288578">
        <ele>103.48</ele>
        <time>2018-09-19T13:33:07Z</time>
      </trkpt>
      <trkpt lat="49.868006017059088" lon="8.588155992329121">
        <ele>103</ele>
        <time>2018-09-19T13:33:15Z</time>
      </trkpt>
      <trkpt lat="49.869819022715092" lon="8.584592007100582">
        <ele>103.95999999999999</ele>
        <time>2018-09-19T13:33:23Z</time>
      </trkpt>
      <trkpt lat="49.87256501801312" lon="8.579128012061119">
        <ele>107.31999999999999</ele>
        <time>2018-09-19T13:33:35Z</time>
      </trkpt>
      <trkpt lat="49.875233983621001" lon="8.574298024177551">
        <ele>108.29000000000001</ele>
        <time>2018-09-19T13:33:46Z</time>
      </trkpt>
      <trkpt lat="49.878488006070256" lon="8.568680975586176">
        <ele>101.56</ele>
        <time>2018-09-19T13:33:59Z</time>
      </trkpt>
      <trkpt lat="49.88103099167347" lon="8.564452975988388">
        <ele>98.189999999999998</ele>
        <time>2018-09-19T13:34:09Z</time>
      </trkpt>
      <trkpt lat="49.884420968592167" lon="8.559067016467452">
        <ele>98.189999999999998</ele>
        <time>2018-09-19T13:34:22Z</time>
      </trkpt>
      <trkpt lat="49.886679975315928" lon="8.555544018745422">
        <ele>96.75</ele>
        <time>2018-09-19T13:34:31Z</time>
      </trkpt>
      <trkpt lat="49.887980008497834" lon="8.553449967876077">
        <ele>96.269999999999996</ele>
        <time>2018-09-19T13:34:38Z</time>
      </trkpt>
      <trkpt lat="49.890103982761502" lon="8.550013974308968">
        <ele>94.829999999999998</ele>
        <time>2018-09-19T13:34:50Z</time>
      </trkpt>
      <trkpt lat="49.892319990321994" lon="8.546165004372597">
        <ele>93.390000000000001</ele>
        <time>2018-09-19T13:35:01Z</time>
      </trkpt>
      <trkpt lat="49.894317984580994" lon="8.542147977277637">
        <ele>91.939999999999998</ele>
        <time>2018-09-19T13:35:11Z</time>
      </trkpt>
      <trkpt lat="49.896166026592255" lon="8.537630969658494">
        <ele>91.459999999999994</ele>
        <time>2018-09-19T13:35:21Z</time>
      </trkpt>
      <trkpt lat="49.89856299944222" lon="8.531137006357312">
        <ele>89.540000000000006</ele>
        <time>2018-09-19T13:35:34Z</time>
      </trkpt>
      <trkpt lat="49.900801973417401" lon="8.52511502802372">
        <ele>88.099999999999994</ele>
        <time>2018-09-19T13:35:46Z</time>
      </trkpt>
      <trkpt lat="49.901929004117846" lon="8.522354029119015">
        <ele>87.620000000000005</ele>
        <time>2018-09-19T13:35:52Z</time>
      </trkpt>
      <trkpt lat="49.903811998665333" lon="8.518732041120529">
        <ele>88.099999999999994</ele>
        <time>2018-09-19T13:36:00Z</time>
      </trkpt>
      <trkpt lat="49.906031023710966" lon="8.515626965090632">
        <ele>88.579999999999998</ele>
        <time>2018-09-19T13:36:08Z</time>
      </trkpt>
      <trkpt lat="49.908569986000657" lon="8.513172995299101">
        <ele>88.099999999999994</ele>
        <time>2018-09-19T13:36:16Z</time>
      </trkpt>
      <trkpt lat="49.911322016268969" lon="8.511399971321225">
        <ele>88.099999999999994</ele>
        <time>2018-09-19T13:36:24Z</time>
      </trkpt>
      <trkpt lat="49.914121991023421" lon="8.510290961712599">
        <ele>89.060000000000002</ele>
        <time>2018-09-19T13:36:32Z</time>
      </trkpt>
      <trkpt lat="49.915627967566252" lon="8.509743036702275">
        <ele>90.5</ele>
        <time>2018-09-19T13:36:38Z</time>
      </trkpt>
      <trkpt lat="49.917850010097027" lon="8.508856985718012">
        <ele>93.870000000000005</ele>
        <time>2018-09-19T13:36:48Z</time>
      </trkpt>
      <trkpt lat="49.919873988255858" lon="8.507671030238271">
        <ele>96.269999999999996</ele>
        <time>2018-09-19T13:36:58Z</time>
      </trkpt>
      <trkpt lat="49.922083960846066" lon="8.505787029862404">
        <ele>95.790000000000006</ele>
        <time>2018-09-19T13:37:09Z</time>
      </trkpt>
      <trkpt lat="49.923858996480703" lon="8.503827005624771">
        <ele>92.420000000000002</ele>
        <time>2018-09-19T13:37:18Z</time>
      </trkpt>
      <trkpt lat="49.925413001328707" lon="8.50161200389266">
        <ele>87.620000000000005</ele>
        <time>2018-09-19T13:37:27Z</time>
      </trkpt>
      <trkpt lat="49.926907997578382" lon="8.498844970017672">
        <ele>87.620000000000005</ele>
        <time>2018-09-19T13:37:37Z</time>
      </trkpt>
      <trkpt lat="49.928271984681487" lon="8.49566001445055">
        <ele>87.620000000000005</ele>
        <time>2018-09-19T13:37:47Z</time>
      </trkpt>
      <trkpt lat="49.929417036473751" lon="8.492497019469738">
        <ele>87.620000000000005</ele>
        <time>2018-09-19T13:37:56Z</time>
      </trkpt>
      <trkpt lat="49.930389001965523" lon="8.490115972235799">
        <ele>87.620000000000005</ele>
        <time>2018-09-19T13:38:04Z</time>
      </trkpt>
      <trkpt lat="49.931662967428565" lon="8.4875169955194">
        <ele>85.689999999999998</ele>
        <time>2018-09-19T13:38:14Z</time>
      </trkpt>
      <trkpt lat="49.93332602083683" lon="8.484883988276124">
        <ele>84.730000000000004</ele>
        <time>2018-09-19T13:38:25Z</time>
      </trkpt>
      <trkpt lat="49.934890000149608" lon="8.482909966260195">
        <ele>87.140000000000001</ele>
        <time>2018-09-19T13:38:34Z</time>
      </trkpt>
      <trkpt lat="49.936944991350174" lon="8.480962011963129">
        <ele>86.659999999999997</ele>
        <time>2018-09-19T13:38:44Z</time>
      </trkpt>
      <trkpt lat="49.938760008662939" lon="8.479656027629972">
        <ele>87.140000000000001</ele>
        <time>2018-09-19T13:38:54Z</time>
      </trkpt>
      <trkpt lat="49.940740987658501" lon="8.478714991360903">
        <ele>87.620000000000005</ele>
        <time>2018-09-19T13:39:03Z</time>
      </trkpt>
      <trkpt lat="49.943233011290431" lon="8.478081990033388">
        <ele>87.620000000000005</ele>
        <time>2018-09-19T13:39:13Z</time>
      </trkpt>
      <trkpt lat="49.946448979899287" lon="8.477785019204021">
        <ele>87.140000000000001</ele>
        <time>2018-09-19T13:39:25Z</time>
      </trkpt>
      <trkpt lat="49.94920402765274" lon="8.477616040036082">
        <ele>87.620000000000005</ele>
        <time>2018-09-19T13:39:34Z</time>
      </trkpt>
      <trkpt lat="49.952265014871955" lon="8.477115975692868">
        <ele>88.099999999999994</ele>
        <time>2018-09-19T13:39:43Z</time>
      </trkpt>
      <trkpt lat="49.955849032849073" lon="8.47580898553133">
        <ele>87.620000000000005</ele>
        <time>2018-09-19T13:39:54Z</time>
      </trkpt>
      <trkpt lat="49.958564015105367" lon="8.474320024251938">
        <ele>89.540000000000006</ele>
        <time>2018-09-19T13:40:03Z</time>
      </trkpt>
      <trkpt lat="49.961187969893217" lon="8.472574995830655">
        <ele>89.540000000000006</ele>
        <time>2018-09-19T13:40:12Z</time>
      </trkpt>
      <trkpt lat="49.963447982445359" lon="8.471007999032736">
        <ele>88.099999999999994</ele>
        <time>2018-09-19T13:40:21Z</time>
      </trkpt>
      <trkpt lat="49.966251980513334" lon="8.469129027798772">
        <ele>87.620000000000005</ele>
        <time>2018-09-19T13:40:31Z</time>
      </trkpt>
      <trkpt lat="49.9691859818995" lon="8.467670995742083">
        <ele>86.180000000000007</ele>
        <time>2018-09-19T13:40:41Z</time>
      </trkpt>
      <trkpt lat="49.972115959972143" lon="8.466902961954474">
        <ele>89.060000000000002</ele>
        <time>2018-09-19T13:40:50Z</time>
      </trkpt>
      <trkpt lat="49.974054023623466" lon="8.466199971735477">
        <ele>92.420000000000002</ele>
        <time>2018-09-19T13:40:56Z</time>
      </trkpt>
      <trkpt lat="49.974343031644821" lon="8.466001991182566">
        <ele>92.900000000000006</ele>
        <time>2018-09-19T13:40:57Z</time>
      </trkpt>
      <trkpt lat="49.974612006917596" lon="8.465755982324481">
        <ele>93.390000000000001</ele>
        <time>2018-09-19T13:40:58Z</time>
      </trkpt>
      <trkpt lat="49.974874025210738" lon="8.46549698151648">
        <ele>93.390000000000001</ele>
        <time>2018-09-19T13:40:59Z</time>
      </trkpt>
      <trkpt lat="49.975116010755301" lon="8.465199004858732">
        <ele>93.870000000000005</ele>
        <time>2018-09-19T13:41:00Z</time>
      </trkpt>
      <trkpt lat="49.975338969379663" lon="8.464876972138882">
        <ele>93.870000000000005</ele>
        <time>2018-09-19T13:41:01Z</time>
      </trkpt>
      <trkpt lat="49.975543990731239" lon="8.464532978832722">
        <ele>94.349999999999994</ele>
        <time>2018-09-19T13:41:02Z</time>
      </trkpt>
      <trkpt lat="49.975733002647758" lon="8.46416300162673">
        <ele>94.349999999999994</ele>
        <time>2018-09-19T13:41:03Z</time>
      </trkpt>
      <trkpt lat="49.975923020392656" lon="8.463787995278835">
        <ele>94.349999999999994</ele>
        <time>2018-09-19T13:41:04Z</time>
      </trkpt>
      <trkpt lat="49.976111026480794" lon="8.463407959789038">
        <ele>94.349999999999994</ele>
        <time>2018-09-19T13:41:05Z</time>
      </trkpt>
      <trkpt lat="49.976260978728533" lon="8.462984003126621">
        <ele>94.349999999999994</ele>
        <time>2018-09-19T13:41:06Z</time>
      </trkpt>
      <trkpt lat="49.976414032280445" lon="8.462548982352018">
        <ele>93.870000000000005</ele>
        <time>2018-09-19T13:41:07Z</time>
      </trkpt>
      <trkpt lat="49.976572031155229" lon="8.462102981284261">
        <ele>93.870000000000005</ele>
        <time>2018-09-19T13:41:08Z</time>
      </trkpt>
      <trkpt lat="49.977204026654363" lon="8.459061020985246">
        <ele>89.540000000000006</ele>
        <time>2018-09-19T13:41:14Z</time>
      </trkpt>
      <trkpt lat="49.977462021633983" lon="8.455368038266897">
        <ele>86.659999999999997</ele>
        <time>2018-09-19T13:41:21Z</time>
      </trkpt>
      <trkpt lat="49.977358002215624" lon="8.452161960303783">
        <ele>85.209999999999994</ele>
        <time>2018-09-19T13:41:28Z</time>
      </trkpt>
      <trkpt lat="49.976894985884428" lon="8.448475012555718">
        <ele>84.730000000000004</ele>
        <time>2018-09-19T13:41:37Z</time>
      </trkpt>
      <trkpt lat="49.9761469848454" lon="8.443699004128575">
        <ele>86.180000000000007</ele>
        <time>2018-09-19T13:41:47Z</time>
      </trkpt>
      <trkpt lat="49.97558900155127" lon="8.439726987853646">
        <ele>84.730000000000004</ele>
        <time>2018-09-19T13:41:56Z</time>
      </trkpt>
      <trkpt lat="49.975451035425067" lon="8.438570033758879">
        <ele>85.209999999999994</ele>
        <time>2018-09-19T13:42:00Z</time>
      </trkpt>
      <trkpt lat="49.975418010726571" lon="8.438255963847041">
        <ele>85.689999999999998</ele>
        <time>2018-09-19T13:42:01Z</time>
      </trkpt>
      <trkpt lat="49.975225981324911" lon="8.436273979023099">
        <ele>86.180000000000007</ele>
        <time>2018-09-19T13:42:09Z</time>
      </trkpt>
      <trkpt lat="49.975107964128256" lon="8.434966988861561">
        <ele>85.689999999999998</ele>
        <time>2018-09-19T13:42:18Z</time>
      </trkpt>
      <trkpt lat="49.975023977458477" lon="8.433764018118382">
        <ele>87.140000000000001</ele>
        <time>2018-09-19T13:42:28Z</time>
      </trkpt>
      <trkpt lat="49.975006962195039" lon="8.433410972356796">
        <ele>87.620000000000005</ele>
        <time>2018-09-19T13:42:32Z</time>
      </trkpt>
      <trkpt lat="49.975004028528929" lon="8.433350035920739">
        <ele>87.620000000000005</ele>
        <time>2018-09-19T13:42:33Z</time>
      </trkpt>
      <trkpt lat="49.974987013265491" lon="8.43300998210907">
        <ele>87.140000000000001</ele>
        <time>2018-09-19T13:42:42Z</time>
      </trkpt>
      <trkpt lat="49.974960023537278" lon="8.432464990764856">
        <ele>86.659999999999997</ele>
        <time>2018-09-19T13:42:51Z</time>
      </trkpt>
      <trkpt lat="49.974954994395375" lon="8.432374969124794">
        <ele>86.659999999999997</ele>
        <time>2018-09-19T13:42:52Z</time>
      </trkpt>
      <trkpt lat="49.974950971081853" lon="8.432280002161861">
        <ele>87.140000000000001</ele>
        <time>2018-09-19T13:42:53Z</time>
      </trkpt>
      <trkpt lat="49.974902020767331" lon="8.431293033063412">
        <ele>87.620000000000005</ele>
        <time>2018-09-19T13:43:00Z</time>
      </trkpt>
      <trkpt lat="49.974830020219088" lon="8.429838018491864">
        <ele>86.659999999999997</ele>
        <time>2018-09-19T13:43:08Z</time>
      </trkpt>
      <trkpt lat="49.974799007177353" lon="8.428071029484272">
        <ele>85.689999999999998</ele>
        <time>2018-09-19T13:43:17Z</time>
      </trkpt>
      <trkpt lat="49.974786015227437" lon="8.426668988540769">
        <ele>86.180000000000007</ele>
        <time>2018-09-19T13:43:24Z</time>
      </trkpt>
      <trkpt lat="49.974784003570676" lon="8.426477964967489">
        <ele>86.180000000000007</ele>
        <time>2018-09-19T13:43:25Z</time>
      </trkpt>
      <trkpt lat="49.974782997742295" lon="8.423759965226054">
        <ele>86.659999999999997</ele>
        <time>2018-09-19T13:43:39Z</time>
      </trkpt>
      <trkpt lat="49.974786015227437" lon="8.423571959137917">
        <ele>86.180000000000007</ele>
        <time>2018-09-19T13:43:40Z</time>
      </trkpt>
      <trkpt lat="49.974827002733946" lon="8.420721022412181">
        <ele>87.620000000000005</ele>
        <time>2018-09-19T13:43:55Z</time>
      </trkpt>
      <trkpt lat="49.974883999675512" lon="8.418423039838672">
        <ele>88.099999999999994</ele>
        <time>2018-09-19T13:44:07Z</time>
      </trkpt>
      <trkpt lat="49.97492004185915" lon="8.415984995663166">
        <ele>88.099999999999994</ele>
        <time>2018-09-19T13:44:17Z</time>
      </trkpt>
      <trkpt lat="49.974919036030769" lon="8.413295997306705">
        <ele>86.180000000000007</ele>
        <time>2018-09-19T13:44:27Z</time>
      </trkpt>
      <trkpt lat="49.974906966090202" lon="8.413025010377169">
        <ele>85.209999999999994</ele>
        <time>2018-09-19T13:44:28Z</time>
      </trkpt>
      <trkpt lat="49.974896991625428" lon="8.412801967933774">
        <ele>83.769999999999996</ele>
        <time>2018-09-19T13:44:29Z</time>
      </trkpt>
      <trkpt lat="49.974831026047468" lon="8.410044992342591">
        <ele>82.329999999999998</ele>
        <time>2018-09-19T13:44:43Z</time>
      </trkpt>
      <trkpt lat="49.974790038540959" lon="8.408789969980717">
        <ele>81.849999999999994</ele>
        <time>2018-09-19T13:44:50Z</time>
      </trkpt>
      <trkpt lat="49.974649976938963" lon="8.406618973240256">
        <ele>82.810000000000002</ele>
        <time>2018-09-19T13:45:01Z</time>
      </trkpt>
      <trkpt lat="49.974440010264516" lon="8.403958976268768">
        <ele>85.209999999999994</ele>
        <time>2018-09-19T13:45:12Z</time>
      </trkpt>
      <trkpt lat="49.97412602417171" lon="8.400632031261921">
        <ele>86.659999999999997</ele>
        <time>2018-09-19T13:45:22Z</time>
      </trkpt>
      <trkpt lat="49.973678011447191" lon="8.395929029211402">
        <ele>90.5</ele>
        <time>2018-09-19T13:45:35Z</time>
      </trkpt>
      <trkpt lat="49.973412975668907" lon="8.392576016485691">
        <ele>91.459999999999994</ele>
        <time>2018-09-19T13:45:44Z</time>
      </trkpt>
      <trkpt lat="49.97324500232935" lon="8.389048995450139">
        <ele>90.019999999999996</ele>
        <time>2018-09-19T13:45:53Z</time>
      </trkpt>
      <trkpt lat="49.973180964589119" lon="8.385021993890405">
        <ele>87.140000000000001</ele>
        <time>2018-09-19T13:46:03Z</time>
      </trkpt>
      <trkpt lat="49.973227987065911" lon="8.380808997899294">
        <ele>84.730000000000004</ele>
        <time>2018-09-19T13:46:13Z</time>
      </trkpt>
      <trkpt lat="49.973456980660558" lon="8.375946991145611">
        <ele>82.810000000000002</ele>
        <time>2018-09-19T13:46:25Z</time>
      </trkpt>
      <trkpt lat="49.973789993673563" lon="8.371968017891049">
        <ele>82.329999999999998</ele>
        <time>2018-09-19T13:46:35Z</time>
      </trkpt>
      <trkpt lat="49.974162988364697" lon="8.368462035432458">
        <ele>81.849999999999994</ele>
        <time>2018-09-19T13:46:44Z</time>
      </trkpt>
      <trkpt lat="49.97459901496768" lon="8.365360982716084">
        <ele>82.329999999999998</ele>
        <time>2018-09-19T13:46:52Z</time>
      </trkpt>
      <trkpt lat="49.975077034905553" lon="8.362402003258467">
        <ele>82.810000000000002</ele>
        <time>2018-09-19T13:47:01Z</time>
      </trkpt>
      <trkpt lat="49.975914973765612" lon="8.358138967305422">
        <ele>82.810000000000002</ele>
        <time>2018-09-19T13:47:13Z</time>
      </trkpt>
      <trkpt lat="49.976525008678436" lon="8.355796979740262">
        <ele>81.370000000000005</ele>
        <time>2018-09-19T13:47:20Z</time>
      </trkpt>
      <trkpt lat="49.977593030780554" lon="8.352887034416199">
        <ele>81.849999999999994</ele>
        <time>2018-09-19T13:47:29Z</time>
      </trkpt>
      <trkpt lat="49.979203026741743" lon="8.349746000021696">
        <ele>82.810000000000002</ele>
        <time>2018-09-19T13:47:40Z</time>
      </trkpt>
      <trkpt lat="49.980633985251188" lon="8.347248025238514">
        <ele>82.810000000000002</ele>
        <time>2018-09-19T13:47:48Z</time>
      </trkpt>
      <trkpt lat="49.981866963207722" lon="8.344364985823631">
        <ele>85.209999999999994</ele>
        <time>2018-09-19T13:47:56Z</time>
      </trkpt>
      <trkpt lat="49.98308602720499" lon="8.341570040211082">
        <ele>86.180000000000007</ele>
        <time>2018-09-19T13:48:04Z</time>
      </trkpt>
      <trkpt lat="49.984282040968537" lon="8.339835992082954">
        <ele>86.180000000000007</ele>
        <time>2018-09-19T13:48:10Z</time>
      </trkpt>
      <trkpt lat="49.984790990129113" lon="8.339409017935395">
        <ele>85.689999999999998</ele>
        <time>2018-09-19T13:48:12Z</time>
      </trkpt>
      <trkpt lat="49.985058037564158" lon="8.339219000190496">
        <ele>85.689999999999998</ele>
        <time>2018-09-19T13:48:13Z</time>
      </trkpt>
      <trkpt lat="49.98534101061523" lon="8.339077010750771">
        <ele>85.689999999999998</ele>
        <time>2018-09-19T13:48:14Z</time>
      </trkpt>
      <trkpt lat="49.985619960352778" lon="8.338937032967806">
        <ele>85.689999999999998</ele>
        <time>2018-09-19T13:48:15Z</time>
      </trkpt>
      <trkpt lat="49.985897988080978" lon="8.33881800994277">
        <ele>85.689999999999998</ele>
        <time>2018-09-19T13:48:16Z</time>
      </trkpt>
      <trkpt lat="49.98618096113205" lon="8.338747015222907">
        <ele>85.209999999999994</ele>
        <time>2018-09-19T13:48:17Z</time>
      </trkpt>
      <trkpt lat="49.986462006345391" lon="8.33868901245296">
        <ele>84.730000000000004</ele>
        <time>2018-09-19T13:48:18Z</time>
      </trkpt>
      <trkpt lat="49.986742967739701" lon="8.338702004402876">
        <ele>84.25</ele>
        <time>2018-09-19T13:48:19Z</time>
      </trkpt>
      <trkpt lat="49.988365033641458" lon="8.338983971625567">
        <ele>82.329999999999998</ele>
        <time>2018-09-19T13:48:25Z</time>
      </trkpt>
      <trkpt lat="49.989172965288162" lon="8.339456962421536">
        <ele>81.849999999999994</ele>
        <time>2018-09-19T13:48:28Z</time>
      </trkpt>
      <trkpt lat="49.99079997651279" lon="8.340803012251854">
        <ele>80.890000000000001</ele>
        <time>2018-09-19T13:48:34Z</time>
      </trkpt>
      <trkpt lat="49.993341034278274" lon="8.343449011445046">
        <ele>80.890000000000001</ele>
        <time>2018-09-19T13:48:45Z</time>
      </trkpt>
      <trkpt lat="49.994980031624436" lon="8.344902014359832">
        <ele>87.620000000000005</ele>
        <time>2018-09-19T13:48:52Z</time>
      </trkpt>
      <trkpt lat="49.996391041204333" lon="8.345461003482342">
        <ele>92.900000000000006</ele>
        <time>2018-09-19T13:48:58Z</time>
      </trkpt>
      <trkpt lat="49.998350981622934" lon="8.345568962395191">
        <ele>93.390000000000001</ele>
        <time>2018-09-19T13:49:05Z</time>
      </trkpt>
      <trkpt lat="50.001486986875534" lon="8.345148023217917">
        <ele>93.870000000000005</ele>
        <time>2018-09-19T13:49:15Z</time>
      </trkpt>
      <trkpt lat="50.004603965207934" lon="8.344239005818963">
        <ele>94.349999999999994</ele>
        <time>2018-09-19T13:49:25Z</time>
      </trkpt>
      <trkpt lat="50.008459975942969" lon="8.342629009857774">
        <ele>99.629999999999995</ele>
        <time>2018-09-19T13:49:37Z</time>
      </trkpt>
      <trkpt lat="50.011693965643644" lon="8.340937960892916">
        <ele>112.13</ele>
        <time>2018-09-19T13:49:48Z</time>
      </trkpt>
      <trkpt lat="50.014951005578041" lon="8.338862014934421">
        <ele>120.3</ele>
        <time>2018-09-19T13:49:59Z</time>
      </trkpt>
      <trkpt lat="50.017280001193285" lon="8.336980026215315">
        <ele>119.34</ele>
        <time>2018-09-19T13:50:07Z</time>
      </trkpt>
      <trkpt lat="50.018993010744452" lon="8.335344968363643">
        <ele>117.90000000000001</ele>
        <time>2018-09-19T13:50:13Z</time>
      </trkpt>
      <trkpt lat="50.02137397415936" lon="8.332413984462619">
        <ele>117.90000000000001</ele>
        <time>2018-09-19T13:50:21Z</time>
      </trkpt>
      <trkpt lat="50.023051025345922" lon="8.329326007515192">
        <ele>117.90000000000001</ele>
        <time>2018-09-19T13:50:28Z</time>
      </trkpt>
      <trkpt lat="50.024287020787597" lon="8.325938964262605">
        <ele>119.81999999999999</ele>
        <time>2018-09-19T13:50:35Z</time>
      </trkpt>
      <trkpt lat="50.025125965476036" lon="8.322218991816044">
        <ele>120.78</ele>
        <time>2018-09-19T13:50:42Z</time>
      </trkpt>
      <trkpt lat="50.025613037869334" lon="8.317777002230287">
        <ele>122.22</ele>
        <time>2018-09-19T13:50:50Z</time>
      </trkpt>
      <trkpt lat="50.026225000619888" lon="8.311296030879021">
        <ele>121.26000000000001</ele>
        <time>2018-09-19T13:51:01Z</time>
      </trkpt>
      <trkpt lat="50.02711096778512" lon="8.306921012699604">
        <ele>119.81999999999999</ele>
        <time>2018-09-19T13:51:08Z</time>
      </trkpt>
      <trkpt lat="50.028147976845503" lon="8.303632959723473">
        <ele>117.42</ele>
        <time>2018-09-19T13:51:14Z</time>
      </trkpt>
      <trkpt lat="50.029770964756608" lon="8.299123998731375">
        <ele>114.05</ele>
        <time>2018-09-19T13:51:22Z</time>
      </trkpt>
      <trkpt lat="50.031120032072067" lon="8.294733976945281">
        <ele>111.65000000000001</ele>
        <time>2018-09-19T13:51:30Z</time>
      </trkpt>
      <trkpt lat="50.032019997015595" lon="8.29026198014617">
        <ele>107.31999999999999</ele>
        <time>2018-09-19T13:51:38Z</time>
      </trkpt>
      <trkpt lat="50.032641012221575" lon="8.284865962341428">
        <ele>99.629999999999995</ele>
        <time>2018-09-19T13:51:47Z</time>
      </trkpt>
      <trkpt lat="50.033310977742076" lon="8.2766820397228">
        <ele>91.939999999999998</ele>
        <time>2018-09-19T13:52:00Z</time>
      </trkpt>
      <trkpt lat="50.033997958526015" lon="8.269629003480077">
        <ele>88.579999999999998</ele>
        <time>2018-09-19T13:52:11Z</time>
      </trkpt>
      <trkpt lat="50.034922985360026" lon="8.266112040728331">
        <ele>89.060000000000002</ele>
        <time>2018-09-19T13:52:17Z</time>
      </trkpt>
      <trkpt lat="50.036408007144928" lon="8.263002019375563">
        <ele>90.5</ele>
        <time>2018-09-19T13:52:23Z</time>
      </trkpt>
      <trkpt lat="50.038250014185905" lon="8.260560035705566">
        <ele>91.459999999999994</ele>
        <time>2018-09-19T13:52:29Z</time>
      </trkpt>
      <trkpt lat="50.040875980630517" lon="8.257752014324069">
        <ele>92.900000000000006</ele>
        <time>2018-09-19T13:52:37Z</time>
      </trkpt>
      <trkpt lat="50.04320003092289" lon="8.255986031144857">
        <ele>94.829999999999998</ele>
        <time>2018-09-19T13:52:44Z</time>
      </trkpt>
      <trkpt lat="50.044868029654026" lon="8.255681013688445">
        <ele>95.790000000000006</ele>
        <time>2018-09-19T13:52:49Z</time>
      </trkpt>
      <trkpt lat="50.047040032222867" lon="8.256088960915804">
        <ele>96.269999999999996</ele>
        <time>2018-09-19T13:52:55Z</time>
      </trkpt>
      <trkpt lat="50.049836989492178" lon="8.256593970581889">
        <ele>99.629999999999995</ele>
        <time>2018-09-19T13:53:03Z</time>
      </trkpt>
      <trkpt lat="50.051485039293766" lon="8.25672397390008">
        <ele>103.48</ele>
        <time>2018-09-19T13:53:09Z</time>
      </trkpt>
      <trkpt lat="50.052466979250312" lon="8.256891025230289">
        <ele>103</ele>
        <time>2018-09-19T13:53:14Z</time>
      </trkpt>
      <trkpt lat="50.052712988108397" lon="8.25706603936851">
        <ele>102.52</ele>
        <time>2018-09-19T13:53:16Z</time>
      </trkpt>
      <trkpt lat="50.052796974778175" lon="8.257152959704399">
        <ele>102.04000000000001</ele>
        <time>2018-09-19T13:53:17Z</time>
      </trkpt>
      <trkpt lat="50.052841985598207" lon="8.25730400159955">
        <ele>102.04000000000001</ele>
        <time>2018-09-19T13:53:18Z</time>
      </trkpt>
      <trkpt lat="50.052864030003548" lon="8.25747599825263">
        <ele>101.56</ele>
        <time>2018-09-19T13:53:19Z</time>
      </trkpt>
      <trkpt lat="50.052878027781844" lon="8.257660986855626">
        <ele>101.56</ele>
        <time>2018-09-19T13:53:20Z</time>
      </trkpt>
      <trkpt lat="50.052892025560141" lon="8.257837006822228">
        <ele>101.08</ele>
        <time>2018-09-19T13:53:21Z</time>
      </trkpt>
      <trkpt lat="50.052996966987848" lon="8.259166963398457">
        <ele>101.56</ele>
        <time>2018-09-19T13:53:30Z</time>
      </trkpt>
      <trkpt lat="50.053130993619561" lon="8.260303968563676">
        <ele>103.95999999999999</ele>
        <time>2018-09-19T13:53:38Z</time>
      </trkpt>
      <trkpt lat="50.053211962804198" lon="8.260632958263159">
        <ele>104.44</ele>
        <time>2018-09-19T13:53:41Z</time>
      </trkpt>
      <trkpt lat="50.053227972239256" lon="8.260693978518248">
        <ele>104.92</ele>
        <time>2018-09-19T13:53:42Z</time>
      </trkpt>
      <trkpt lat="50.053236018866301" lon="8.260724991559982">
        <ele>104.92</ele>
        <time>2018-09-19T13:53:43Z</time>
      </trkpt>
      <trkpt lat="50.053240964189172" lon="8.260747035965323">
        <ele>105.40000000000001</ele>
        <time>2018-09-19T13:53:44Z</time>
      </trkpt>
      <trkpt lat="50.053248004987836" lon="8.260774025693536">
        <ele>105.40000000000001</ele>
        <time>2018-09-19T13:53:45Z</time>
      </trkpt>
      <trkpt lat="50.053256973624229" lon="8.260805960744619">
        <ele>105.88</ele>
        <time>2018-09-19T13:53:46Z</time>
      </trkpt>
      <trkpt lat="50.053266026079655" lon="8.260842002928257">
        <ele>105.88</ele>
        <time>2018-09-19T13:53:47Z</time>
      </trkpt>
      <trkpt lat="50.05327801220119" lon="8.260887013748288">
        <ele>106.36</ele>
        <time>2018-09-19T13:53:48Z</time>
      </trkpt>
      <trkpt lat="50.053294021636248" lon="8.260951973497868">
        <ele>106.36</ele>
        <time>2018-09-19T13:53:49Z</time>
      </trkpt>
      <trkpt lat="50.053320005536079" lon="8.261031014844775">
        <ele>106.36</ele>
        <time>2018-09-19T13:53:50Z</time>
      </trkpt>
      <trkpt lat="50.053361998870969" lon="8.261138973757625">
        <ele>106.36</ele>
        <time>2018-09-19T13:53:51Z</time>
      </trkpt>
      <trkpt lat="50.053406003862619" lon="8.261253973469138">
        <ele>106.84</ele>
        <time>2018-09-19T13:53:52Z</time>
      </trkpt>
      <trkpt lat="50.053544975817204" lon="8.261612970381975">
        <ele>108.29000000000001</ele>
        <time>2018-09-19T13:53:55Z</time>
      </trkpt>
      <trkpt lat="50.053568026050925" lon="8.261757977306843">
        <ele>108.29000000000001</ele>
        <time>2018-09-19T13:53:56Z</time>
      </trkpt>
      <trkpt lat="50.053574983030558" lon="8.261872977018356">
        <ele>108.77</ele>
        <time>2018-09-19T13:53:57Z</time>
      </trkpt>
      <trkpt lat="50.053581018000841" lon="8.261971967294812">
        <ele>109.25</ele>
        <time>2018-09-19T13:53:58Z</time>
      </trkpt>
      <trkpt lat="50.053562996909022" lon="8.262053020298481">
        <ele>109.73</ele>
        <time>2018-09-19T13:53:59Z</time>
      </trkpt>
      <trkpt lat="50.053538018837571" lon="8.262126026675105">
        <ele>110.20999999999999</ele>
        <time>2018-09-19T13:54:00Z</time>
      </trkpt>
      <trkpt lat="50.053510023280978" lon="8.262205990031362">
        <ele>110.69</ele>
        <time>2018-09-19T13:54:01Z</time>
      </trkpt>
      <trkpt lat="50.053481021896005" lon="8.262287965044379">
        <ele>111.17</ele>
        <time>2018-09-19T13:54:02Z</time>
      </trkpt>
      <trkpt lat="50.053432993590832" lon="8.262427020817995">
        <ele>111.17</ele>
        <time>2018-09-19T13:54:03Z</time>
      </trkpt>
      <trkpt lat="50.053414972499013" lon="8.262441018596292">
        <ele>111.65000000000001</ele>
        <time>2018-09-19T13:54:04Z</time>
      </trkpt>
      <trkpt lat="50.053359987214208" lon="8.262487035244703">
        <ele>112.13</ele>
        <time>2018-09-19T13:54:05Z</time>
      </trkpt>
      <trkpt lat="50.053299972787499" lon="8.262532968074083">
        <ele>112.61</ele>
        <time>2018-09-19T13:54:06Z</time>
      </trkpt>
      <trkpt lat="50.053244987502694" lon="8.262520981952548">
        <ele>113.09</ele>
        <time>2018-09-19T13:54:07Z</time>
      </trkpt>
      <trkpt lat="50.053186984732747" lon="8.262507990002632">
        <ele>113.09</ele>
        <time>2018-09-19T13:54:08Z</time>
      </trkpt>
      <trkpt lat="50.053127976134419" lon="8.262494998052716">
        <ele>113.09</ele>
        <time>2018-09-19T13:54:09Z</time>
      </trkpt>
      <trkpt lat="50.053075002506375" lon="8.26243800111115">
        <ele>113.56999999999999</ele>
        <time>2018-09-19T13:54:10Z</time>
      </trkpt>
      <trkpt lat="50.053027980029583" lon="8.262367006391287">
        <ele>113.56999999999999</ele>
        <time>2018-09-19T13:54:11Z</time>
      </trkpt>
      <trkpt lat="50.052981963381171" lon="8.262298023328185">
        <ele>113.56999999999999</ele>
        <time>2018-09-19T13:54:12Z</time>
      </trkpt>
      <trkpt lat="50.052961008623242" lon="8.262213030830026">
        <ele>114.05</ele>
        <time>2018-09-19T13:54:13Z</time>
      </trkpt>
      <trkpt lat="50.052941981703043" lon="8.26213801279664">
        <ele>114.05</ele>
        <time>2018-09-19T13:54:14Z</time>
      </trkpt>
      <trkpt lat="50.052924966439605" lon="8.2620710413903">
        <ele>114.05</ele>
        <time>2018-09-19T13:54:15Z</time>
      </trkpt>
      <trkpt lat="50.052910968661308" lon="8.262012032791972">
        <ele>114.53</ele>
        <time>2018-09-19T13:54:16Z</time>
      </trkpt>
      <trkpt lat="50.052896970883012" lon="8.261958975344896">
        <ele>114.53</ele>
        <time>2018-09-19T13:54:17Z</time>
      </trkpt>
      <trkpt lat="50.052881967276335" lon="8.261898960918188">
        <ele>115.01000000000001</ele>
        <time>2018-09-19T13:54:18Z</time>
      </trkpt>
      <trkpt lat="50.052868975326419" lon="8.261844981461763">
        <ele>115.5</ele>
        <time>2018-09-19T13:54:19Z</time>
      </trkpt>
      <trkpt lat="50.052853971719742" lon="8.261786978691816">
        <ele>115.98</ele>
        <time>2018-09-19T13:54:20Z</time>
      </trkpt>
      <trkpt lat="50.052837962284684" lon="8.261721013113856">
        <ele>116.45999999999999</ele>
        <time>2018-09-19T13:54:21Z</time>
      </trkpt>
      <trkpt lat="50.052809966728091" lon="8.26119395904243">
        <ele>118.38</ele>
        <time>2018-09-19T13:54:30Z</time>
      </trkpt>
      <trkpt lat="50.052776020020247" lon="8.260409999638796">
        <ele>118.86</ele>
        <time>2018-09-19T13:54:40Z</time>
      </trkpt>
      <trkpt lat="50.052680969238281" lon="8.259168975055218">
        <ele>117.90000000000001</ele>
        <time>2018-09-19T13:54:49Z</time>
      </trkpt>
      <trkpt lat="50.052511990070343" lon="8.257436016574502">
        <ele>119.34</ele>
        <time>2018-09-19T13:54:59Z</time>
      </trkpt>
      <trkpt lat="50.052243014797568" lon="8.25423002243042">
        <ele>123.19</ele>
        <time>2018-09-19T13:55:11Z</time>
      </trkpt>
      <trkpt lat="50.05216296762228" lon="8.251965986564755">
        <ele>124.63</ele>
        <time>2018-09-19T13:55:21Z</time>
      </trkpt>
      <trkpt lat="50.052188029512763" lon="8.24959198012948">
        <ele>125.59</ele>
        <time>2018-09-19T13:55:31Z</time>
      </trkpt>
      <trkpt lat="50.052263969555497" lon="8.247298020869494">
        <ele>122.70999999999999</ele>
        <time>2018-09-19T13:55:40Z</time>
      </trkpt>
      <trkpt lat="50.052604023367167" lon="8.245051000267267">
        <ele>122.22</ele>
        <time>2018-09-19T13:55:48Z</time>
      </trkpt>
      <trkpt lat="50.052857995033264" lon="8.243589028716087">
        <ele>124.63</ele>
        <time>2018-09-19T13:55:55Z</time>
      </trkpt>
      <trkpt lat="50.052892025560141" lon="8.2434450276196">
        <ele>125.11</ele>
        <time>2018-09-19T13:55:56Z</time>
      </trkpt>
      <trkpt lat="50.052923038601875" lon="8.243312006816268">
        <ele>125.11</ele>
        <time>2018-09-19T13:55:57Z</time>
      </trkpt>
      <trkpt lat="50.052966959774494" lon="8.243194995447993">
        <ele>125.59</ele>
        <time>2018-09-19T13:55:58Z</time>
      </trkpt>
      <trkpt lat="50.053013982251287" lon="8.243113020434976">
        <ele>126.06999999999999</ele>
        <time>2018-09-19T13:55:59Z</time>
      </trkpt>
      <trkpt lat="50.053078019991517" lon="8.243061974644661">
        <ele>126.06999999999999</ele>
        <time>2018-09-19T13:56:00Z</time>
      </trkpt>
      <trkpt lat="50.053150020539761" lon="8.243026016280055">
        <ele>126.06999999999999</ele>
        <time>2018-09-19T13:56:01Z</time>
      </trkpt>
      <trkpt lat="50.053248004987836" lon="8.243011012673378">
        <ele>126.55</ele>
        <time>2018-09-19T13:56:02Z</time>
      </trkpt>
      <trkpt lat="50.053345989435911" lon="8.243043031543493">
        <ele>126.55</ele>
        <time>2018-09-19T13:56:03Z</time>
      </trkpt>
      <trkpt lat="50.054400013759732" lon="8.243362968787551">
        <ele>131.84</ele>
        <time>2018-09-19T13:56:12Z</time>
      </trkpt>
      <trkpt lat="50.055220015347004" lon="8.243650970980525">
        <ele>136.16</ele>
        <time>2018-09-19T13:56:19Z</time>
      </trkpt>
      <trkpt lat="50.055459989234805" lon="8.243650970980525">
        <ele>137.61000000000001</ele>
        <time>2018-09-19T13:56:21Z</time>
      </trkpt>
      <trkpt lat="50.056795980781317" lon="8.24333899654448">
        <ele>141.93000000000001</ele>
        <time>2018-09-19T13:56:32Z</time>
      </trkpt>
      <trkpt lat="50.056911986321211" lon="8.243312006816268">
        <ele>142.41</ele>
        <time>2018-09-19T13:56:33Z</time>
      </trkpt>
      <trkpt lat="50.057988977059722" lon="8.243039008229971">
        <ele>144.34</ele>
        <time>2018-09-19T13:56:42Z</time>
      </trkpt>
      <trkpt lat="50.058754999190569" lon="8.242849996313453">
        <ele>144.34</ele>
        <time>2018-09-19T13:56:51Z</time>
      </trkpt>
      <trkpt lat="50.058832028880715" lon="8.242829963564873">
        <ele>144.34</ele>
        <time>2018-09-19T13:56:52Z</time>
      </trkpt>
      <trkpt lat="50.05890796892345" lon="8.242810014635325">
        <ele>143.84999999999999</ele>
        <time>2018-09-19T13:56:53Z</time>
      </trkpt>
      <trkpt lat="50.058979969471693" lon="8.242790987715125">
        <ele>143.84999999999999</ele>
        <time>2018-09-19T13:56:54Z</time>
      </trkpt>
      <trkpt lat="50.059949001297355" lon="8.242538021877408">
        <ele>141.44999999999999</ele>
        <time>2018-09-19T13:57:04Z</time>
      </trkpt>
      <trkpt lat="50.060517964884639" lon="8.242383962497115">
        <ele>140.00999999999999</ele>
        <time>2018-09-19T13:57:09Z</time>
      </trkpt>
      <trkpt lat="50.060596000403166" lon="8.242357978597283">
        <ele>140.00999999999999</ele>
        <time>2018-09-19T13:57:10Z</time>
      </trkpt>
      <trkpt lat="50.060789035633206" lon="8.242297964170575">
        <ele>139.53</ele>
        <time>2018-09-19T13:57:13Z</time>
      </trkpt>
      <trkpt lat="50.060847960412502" lon="8.242282038554549">
        <ele>139.53</ele>
        <time>2018-09-19T13:57:14Z</time>
      </trkpt>
      <trkpt lat="50.060913003981113" lon="8.24226401746273">
        <ele>139.53</ele>
        <time>2018-09-19T13:57:15Z</time>
      </trkpt>
      <trkpt lat="50.060988022014499" lon="8.24224297888577">
        <ele>139.53</ele>
        <time>2018-09-19T13:57:16Z</time>
      </trkpt>
      <trkpt lat="50.061071002855897" lon="8.24222001247108">
        <ele>139.53</ele>
        <time>2018-09-19T13:57:17Z</time>
      </trkpt>
      <trkpt lat="50.061167981475592" lon="8.2421999797225">
        <ele>140.00999999999999</ele>
        <time>2018-09-19T13:57:18Z</time>
      </trkpt>
      <trkpt lat="50.06243297830224" lon="8.241899991407991">
        <ele>143.37</ele>
        <time>2018-09-19T13:57:30Z</time>
      </trkpt>
      <trkpt lat="50.062828017398715" lon="8.241802006959915">
        <ele>145.78</ele>
        <time>2018-09-19T13:57:37Z</time>
      </trkpt>
      <trkpt lat="50.062928013503551" lon="8.241777028888464">
        <ele>147.22</ele>
        <time>2018-09-19T13:57:46Z</time>
      </trkpt>
      <trkpt lat="50.062928013503551" lon="8.241777028888464">
        <ele>147.22</ele>
        <time>2018-09-19T13:57:50Z</time>
      </trkpt>
      <trkpt lat="50.062928013503551" lon="8.241777028888464">
        <ele>147.69999999999999</ele>
        <time>2018-09-19T13:57:51Z</time>
      </trkpt>
      <trkpt lat="50.062982998788357" lon="8.241701005026698">
        <ele>147.69999999999999</ele>
        <time>2018-09-19T13:57:52Z</time>
      </trkpt>
      <trkpt lat="50.062985010445118" lon="8.241643002256751">
        <ele>147.69999999999999</ele>
        <time>2018-09-19T13:57:53Z</time>
      </trkpt>
      <trkpt lat="50.06298802793026" lon="8.24155499227345">
        <ele>147.69999999999999</ele>
        <time>2018-09-19T13:57:54Z</time>
      </trkpt>
      <trkpt lat="50.06299196742475" lon="8.241448039188981">
        <ele>147.69999999999999</ele>
        <time>2018-09-19T13:57:55Z</time>
      </trkpt>
      <trkpt lat="50.062994984909892" lon="8.241333961486816">
        <ele>147.69999999999999</ele>
        <time>2018-09-19T13:57:56Z</time>
      </trkpt>
      <trkpt lat="50.063106967136264" lon="8.240731973201037">
        <ele>147.22</ele>
        <time>2018-09-19T13:58:01Z</time>
      </trkpt>
      <trkpt lat="50.063136974349618" lon="8.240619990974665">
        <ele>147.22</ele>
        <time>2018-09-19T13:58:02Z</time>
      </trkpt>
      <trkpt lat="50.063171004876494" lon="8.240513959899545">
        <ele>147.22</ele>
        <time>2018-09-19T13:58:03Z</time>
      </trkpt>
      <trkpt lat="50.063215009868145" lon="8.240401977673173">
        <ele>147.22</ele>
        <time>2018-09-19T13:58:04Z</time>
      </trkpt>
      <trkpt lat="50.063259014859796" lon="8.240288989618421">
        <ele>146.74000000000001</ele>
        <time>2018-09-19T13:58:05Z</time>
      </trkpt>
      <trkpt lat="50.063300002366304" lon="8.240182958543301">
        <ele>146.74000000000001</ele>
        <time>2018-09-19T13:58:06Z</time>
      </trkpt>
      <trkpt lat="50.063460012897849" lon="8.239992018789053">
        <ele>146.74000000000001</ele>
        <time>2018-09-19T13:58:09Z</time>
      </trkpt>
      <trkpt lat="50.063651958480477" lon="8.239797977730632">
        <ele>146.25999999999999</ele>
        <time>2018-09-19T13:58:13Z</time>
      </trkpt>
      <trkpt lat="50.063703004270792" lon="8.239753972738981">
        <ele>146.25999999999999</ele>
        <time>2018-09-19T13:58:14Z</time>
      </trkpt>
      <trkpt lat="50.063752038404346" lon="8.239711979404092">
        <ele>146.25999999999999</ele>
        <time>2018-09-19T13:58:15Z</time>
      </trkpt>
      <trkpt lat="50.063803000375628" lon="8.239668980240822">
        <ele>146.74000000000001</ele>
        <time>2018-09-19T13:58:16Z</time>
      </trkpt>
      <trkpt lat="50.063852034509182" lon="8.239627992734313">
        <ele>146.74000000000001</ele>
        <time>2018-09-19T13:58:17Z</time>
      </trkpt>
      <trkpt lat="50.063901990652084" lon="8.239584993571043">
        <ele>146.74000000000001</ele>
        <time>2018-09-19T13:58:18Z</time>
      </trkpt>
      <trkpt lat="50.064003998413682" lon="8.239505030214787">
        <ele>147.22</ele>
        <time>2018-09-19T13:58:20Z</time>
      </trkpt>
      <trkpt lat="50.064217988401651" lon="8.239420037716627">
        <ele>147.69999999999999</ele>
        <time>2018-09-19T13:58:24Z</time>
      </trkpt>
      <trkpt lat="50.064315972849727" lon="8.239381983876228">
        <ele>147.69999999999999</ele>
        <time>2018-09-19T13:58:26Z</time>
      </trkpt>
      <trkpt lat="50.064366012811661" lon="8.23936203494668">
        <ele>147.69999999999999</ele>
        <time>2018-09-19T13:58:27Z</time>
      </trkpt>
      <trkpt lat="50.064411023631692" lon="8.239344013854861">
        <ele>147.69999999999999</ele>
        <time>2018-09-19T13:58:28Z</time>
      </trkpt>
      <trkpt lat="50.064607998356223" lon="8.239266984164715">
        <ele>147.69999999999999</ele>
        <time>2018-09-19T13:58:32Z</time>
      </trkpt>
      <trkpt lat="50.064653009176254" lon="8.239248963072896">
        <ele>147.69999999999999</ele>
        <time>2018-09-19T13:58:33Z</time>
      </trkpt>
      <trkpt lat="50.064743030816317" lon="8.239214010536671">
        <ele>147.69999999999999</ele>
        <time>2018-09-19T13:58:35Z</time>
      </trkpt>
      <trkpt lat="50.064782006666064" lon="8.239200012758374">
        <ele>147.69999999999999</ele>
        <time>2018-09-19T13:58:36Z</time>
      </trkpt>
      <trkpt lat="50.064850989729166" lon="8.239174028858542">
        <ele>147.69999999999999</ele>
        <time>2018-09-19T13:58:46Z</time>
      </trkpt>
    </trkseg>
  </trk>

  <trk>
    <name>Track vom: 2018-09-19 16:20</name>
    <extensions>
      <gpxx:TrackExtension>
        <gpxx:DisplayColor>DarkGray</gpxx:DisplayColor>
      </gpxx:TrackExtension>
    </extensions>
    <trkseg>
      <trkpt lat="50.064865993335843" lon="8.239089958369732">
        <ele>146.25999999999999</ele>
        <time>2018-09-19T14:20:13Z</time>
      </trkpt>
      <trkpt lat="50.064888959750533" lon="8.239094987511635">
        <ele>152.03</ele>
        <time>2018-09-19T14:21:00Z</time>
      </trkpt>
      <trkpt lat="50.064892983064055" lon="8.239089036360383">
        <ele>148.66</ele>
        <time>2018-09-19T14:21:57Z</time>
      </trkpt>
      <trkpt lat="50.064889965578914" lon="8.239089036360383">
        <ele>149.13999999999999</ele>
        <time>2018-09-19T14:22:49Z</time>
      </trkpt>
      <trkpt lat="50.064903041347861" lon="8.239092975854874">
        <ele>149.13999999999999</ele>
        <time>2018-09-19T14:23:35Z</time>
      </trkpt>
      <trkpt lat="50.064916033297777" lon="8.239155001938343">
        <ele>148.18000000000001</ele>
        <time>2018-09-19T14:23:49Z</time>
      </trkpt>
      <trkpt lat="50.064874961972237" lon="8.239163970574737">
        <ele>147.22</ele>
        <time>2018-09-19T14:23:51Z</time>
      </trkpt>
      <trkpt lat="50.06483799777925" lon="8.239178974181414">
        <ele>147.22</ele>
        <time>2018-09-19T14:23:52Z</time>
      </trkpt>
      <trkpt lat="50.064698019996285" lon="8.239231025800109">
        <ele>147.22</ele>
        <time>2018-09-19T14:23:53Z</time>
      </trkpt>
      <trkpt lat="50.064698019996285" lon="8.239231025800109">
        <ele>147.22</ele>
        <time>2018-09-19T14:23:54Z</time>
      </trkpt>
      <trkpt lat="50.064549995586276" lon="8.239289028570056">
        <ele>147.69999999999999</ele>
        <time>2018-09-19T14:23:57Z</time>
      </trkpt>
      <trkpt lat="50.064522000029683" lon="8.239300008863211">
        <ele>147.22</ele>
        <time>2018-09-19T14:23:58Z</time>
      </trkpt>
      <trkpt lat="50.06447397172451" lon="8.23931903578341">
        <ele>146.74000000000001</ele>
        <time>2018-09-19T14:23:59Z</time>
      </trkpt>
      <trkpt lat="50.06442803889513" lon="8.239336973056197">
        <ele>146.74000000000001</ele>
        <time>2018-09-19T14:24:00Z</time>
      </trkpt>
      <trkpt lat="50.064380010589957" lon="8.239355999976397">
        <ele>146.25999999999999</ele>
        <time>2018-09-19T14:24:01Z</time>
      </trkpt>
      <trkpt lat="50.06432100199163" lon="8.239379972219467">
        <ele>145.30000000000001</ele>
        <time>2018-09-19T14:24:02Z</time>
      </trkpt>
      <trkpt lat="50.064260987564921" lon="8.239403022453189">
        <ele>144.81999999999999</ele>
        <time>2018-09-19T14:24:03Z</time>
      </trkpt>
      <trkpt lat="50.064211031422019" lon="8.239422971382737">
        <ele>143.84999999999999</ele>
        <time>2018-09-19T14:24:04Z</time>
      </trkpt>
      <trkpt lat="50.06417297758162" lon="8.239437974989414">
        <ele>143.37</ele>
        <time>2018-09-19T14:24:05Z</time>
      </trkpt>
      <trkpt lat="50.064134001731873" lon="8.239452978596091">
        <ele>142.88999999999999</ele>
        <time>2018-09-19T14:24:06Z</time>
      </trkpt>
      <trkpt lat="50.064078010618687" lon="8.239475023001432">
        <ele>142.88999999999999</ele>
        <time>2018-09-19T14:24:07Z</time>
      </trkpt>
      <trkpt lat="50.064001986756921" lon="8.239505030214787">
        <ele>142.88999999999999</ele>
        <time>2018-09-19T14:24:08Z</time>
      </trkpt>
      <trkpt lat="50.063925962895155" lon="8.239564038813114">
        <ele>142.88999999999999</ele>
        <time>2018-09-19T14:24:09Z</time>
      </trkpt>
      <trkpt lat="50.063845999538898" lon="8.239632016047835">
        <ele>142.88999999999999</ele>
        <time>2018-09-19T14:24:10Z</time>
      </trkpt>
      <trkpt lat="50.0637630186975" lon="8.239703010767698">
        <ele>142.88999999999999</ele>
        <time>2018-09-19T14:24:11Z</time>
      </trkpt>
      <trkpt lat="50.063680959865451" lon="8.239772999659181">
        <ele>142.88999999999999</ele>
        <time>2018-09-19T14:24:12Z</time>
      </trkpt>
      <trkpt lat="50.063604013994336" lon="8.23983795940876">
        <ele>142.88999999999999</ele>
        <time>2018-09-19T14:24:13Z</time>
      </trkpt>
      <trkpt lat="50.063363034278154" lon="8.240105006843805">
        <ele>142.88999999999999</ele>
        <time>2018-09-19T14:24:17Z</time>
      </trkpt>
      <trkpt lat="50.063276030123234" lon="8.24024498462677">
        <ele>143.84999999999999</ele>
        <time>2018-09-19T14:24:19Z</time>
      </trkpt>
      <trkpt lat="50.06320302374661" lon="8.240432990714908">
        <ele>144.81999999999999</ele>
        <time>2018-09-19T14:24:21Z</time>
      </trkpt>
      <trkpt lat="50.063067991286516" lon="8.240876980125904">
        <ele>146.74000000000001</ele>
        <time>2018-09-19T14:24:27Z</time>
      </trkpt>
      <trkpt lat="50.063061034306884" lon="8.240902964025736">
        <ele>147.22</ele>
        <time>2018-09-19T14:24:28Z</time>
      </trkpt>
      <trkpt lat="50.06305399350822" lon="8.24093003757298">
        <ele>147.22</ele>
        <time>2018-09-19T14:24:29Z</time>
      </trkpt>
      <trkpt lat="50.063047036528587" lon="8.24095300398767">
        <ele>147.69999999999999</ele>
        <time>2018-09-19T14:24:30Z</time>
      </trkpt>
      <trkpt lat="50.06303496658802" lon="8.240999020636082">
        <ele>147.69999999999999</ele>
        <time>2018-09-19T14:24:31Z</time>
      </trkpt>
      <trkpt lat="50.063013006001711" lon="8.241080995649099">
        <ele>147.69999999999999</ele>
        <time>2018-09-19T14:24:32Z</time>
      </trkpt>
      <trkpt lat="50.062990039587021" lon="8.241500006988645">
        <ele>147.69999999999999</ele>
        <time>2018-09-19T14:24:37Z</time>
      </trkpt>
      <trkpt lat="50.06298802793026" lon="8.241567984223366">
        <ele>147.69999999999999</ele>
        <time>2018-09-19T14:24:38Z</time>
      </trkpt>
      <trkpt lat="50.062986016273499" lon="8.241615006700158">
        <ele>148.18000000000001</ele>
        <time>2018-09-19T14:24:39Z</time>
      </trkpt>
      <trkpt lat="50.062985010445118" lon="8.241649959236383">
        <ele>148.18000000000001</ele>
        <time>2018-09-19T14:24:40Z</time>
      </trkpt>
      <trkpt lat="50.062929019331932" lon="8.241776023060083">
        <ele>148.18000000000001</ele>
        <time>2018-09-19T14:24:41Z</time>
      </trkpt>
      <trkpt lat="50.062888031825423" lon="8.241785997524858">
        <ele>148.18000000000001</ele>
        <time>2018-09-19T14:24:42Z</time>
      </trkpt>
      <trkpt lat="50.062829023227096" lon="8.241801001131535">
        <ele>147.69999999999999</ele>
        <time>2018-09-19T14:24:43Z</time>
      </trkpt>
      <trkpt lat="50.06275400519371" lon="8.241820028051734">
        <ele>147.69999999999999</ele>
        <time>2018-09-19T14:24:44Z</time>
      </trkpt>
      <trkpt lat="50.062148999422789" lon="8.241971991956234">
        <ele>142.88999999999999</ele>
        <time>2018-09-19T14:24:52Z</time>
      </trkpt>
      <trkpt lat="50.062043974176049" lon="8.241998981684446">
        <ele>141.44999999999999</ele>
        <time>2018-09-19T14:24:54Z</time>
      </trkpt>
      <trkpt lat="50.062003992497921" lon="8.242009961977601">
        <ele>140.49000000000001</ele>
        <time>2018-09-19T14:24:55Z</time>
      </trkpt>
      <trkpt lat="50.06197901442647" lon="8.242015996947885">
        <ele>140.00999999999999</ele>
        <time>2018-09-19T14:24:56Z</time>
      </trkpt>
      <trkpt lat="50.06197901442647" lon="8.242015996947885">
        <ele>139.05000000000001</ele>
        <time>2018-09-19T14:25:06Z</time>
      </trkpt>
      <trkpt lat="50.06197901442647" lon="8.242015996947885">
        <ele>139.05000000000001</ele>
        <time>2018-09-19T14:25:12Z</time>
      </trkpt>
      <trkpt lat="50.061911037191749" lon="8.242033012211323">
        <ele>138.09</ele>
        <time>2018-09-19T14:25:14Z</time>
      </trkpt>
      <trkpt lat="50.061308965086937" lon="8.242172989994288">
        <ele>138.56999999999999</ele>
        <time>2018-09-19T14:25:21Z</time>
      </trkpt>
      <trkpt lat="50.059760995209217" lon="8.24258697219193">
        <ele>136.63999999999999</ele>
        <time>2018-09-19T14:25:35Z</time>
      </trkpt>
      <trkpt lat="50.058519970625639" lon="8.242910010740161">
        <ele>134.24000000000001</ele>
        <time>2018-09-19T14:25:45Z</time>
      </trkpt>
      <trkpt lat="50.056834034621716" lon="8.243332039564848">
        <ele>132.80000000000001</ele>
        <time>2018-09-19T14:25:59Z</time>
      </trkpt>
      <trkpt lat="50.055819991976023" lon="8.243583999574184">
        <ele>130.88</ele>
        <time>2018-09-19T14:26:09Z</time>
      </trkpt>
      <trkpt lat="50.055759977549314" lon="8.243599003180862">
        <ele>130.88</ele>
        <time>2018-09-19T14:26:10Z</time>
      </trkpt>
      <trkpt lat="50.05564003251493" lon="8.243630016222596">
        <ele>130.40000000000001</ele>
        <time>2018-09-19T14:26:12Z</time>
      </trkpt>
      <trkpt lat="50.055510029196739" lon="8.243650970980525">
        <ele>130.40000000000001</ele>
        <time>2018-09-19T14:26:14Z</time>
      </trkpt>
      <trkpt lat="50.055445991456509" lon="8.243650970980525">
        <ele>129.91999999999999</ele>
        <time>2018-09-19T14:26:15Z</time>
      </trkpt>
      <trkpt lat="50.054725985974073" lon="8.243489032611251">
        <ele>127.51000000000001</ele>
        <time>2018-09-19T14:26:23Z</time>
      </trkpt>
      <trkpt lat="50.053669027984142" lon="8.243020987138152">
        <ele>122.70999999999999</ele>
        <time>2018-09-19T14:26:34Z</time>
      </trkpt>
      <trkpt lat="50.052677029743791" lon="8.242619996890426">
        <ele>118.38</ele>
        <time>2018-09-19T14:26:43Z</time>
      </trkpt>
      <trkpt lat="50.051833977922797" lon="8.242281032726169">
        <ele>115.01000000000001</ele>
        <time>2018-09-19T14:26:51Z</time>
      </trkpt>
      <trkpt lat="50.051758037880063" lon="8.242252031341195">
        <ele>114.53</ele>
        <time>2018-09-19T14:26:52Z</time>
      </trkpt>
      <trkpt lat="50.051587969064713" lon="8.242337023839355">
        <ele>114.05</ele>
        <time>2018-09-19T14:26:53Z</time>
      </trkpt>
      <trkpt lat="50.051582017913461" lon="8.242445988580585">
        <ele>113.56999999999999</ele>
        <time>2018-09-19T14:26:54Z</time>
      </trkpt>
      <trkpt lat="50.051574977114797" lon="8.242569034919143">
        <ele>113.09</ele>
        <time>2018-09-19T14:26:56Z</time>
      </trkpt>
      <trkpt lat="50.051557961851358" lon="8.242876986041665">
        <ele>112.61</ele>
        <time>2018-09-19T14:26:57Z</time>
      </trkpt>
      <trkpt lat="50.051569025963545" lon="8.243504036217928">
        <ele>112.13</ele>
        <time>2018-09-19T14:27:00Z</time>
      </trkpt>
      <trkpt lat="50.051586963236332" lon="8.243779968470335">
        <ele>112.13</ele>
        <time>2018-09-19T14:27:01Z</time>
      </trkpt>
      <trkpt lat="50.051629962399602" lon="8.24396101757884">
        <ele>112.13</ele>
        <time>2018-09-19T14:27:02Z</time>
      </trkpt>
      <trkpt lat="50.051680002361536" lon="8.244162015616894">
        <ele>112.13</ele>
        <time>2018-09-19T14:27:03Z</time>
      </trkpt>
      <trkpt lat="50.051746973767877" lon="8.244336023926735">
        <ele>112.13</ele>
        <time>2018-09-19T14:27:04Z</time>
      </trkpt>
      <trkpt lat="50.051812017336488" lon="8.244503997266293">
        <ele>112.13</ele>
        <time>2018-09-19T14:27:05Z</time>
      </trkpt>
      <trkpt lat="50.052051991224289" lon="8.24512199498713">
        <ele>113.56999999999999</ele>
        <time>2018-09-19T14:27:09Z</time>
      </trkpt>
      <trkpt lat="50.052106976509094" lon="8.245307989418507">
        <ele>114.05</ele>
        <time>2018-09-19T14:27:10Z</time>
      </trkpt>
      <trkpt lat="50.052166990935802" lon="8.245561039075255">
        <ele>114.05</ele>
        <time>2018-09-19T14:27:11Z</time>
      </trkpt>
      <trkpt lat="50.052175037562847" lon="8.245789026841521">
        <ele>114.53</ele>
        <time>2018-09-19T14:27:12Z</time>
      </trkpt>
      <trkpt lat="50.052184006199241" lon="8.246061019599438">
        <ele>114.53</ele>
        <time>2018-09-19T14:27:13Z</time>
      </trkpt>
      <trkpt lat="50.052100019529462" lon="8.248426979407668">
        <ele>117.90000000000001</ele>
        <time>2018-09-19T14:27:21Z</time>
      </trkpt>
      <trkpt lat="50.052020978182554" lon="8.25152400881052">
        <ele>117.90000000000001</ele>
        <time>2018-09-19T14:27:29Z</time>
      </trkpt>
      <trkpt lat="50.052302023395896" lon="8.25635701417923">
        <ele>114.05</ele>
        <time>2018-09-19T14:27:41Z</time>
      </trkpt>
      <trkpt lat="50.052723968401551" lon="8.261719001457095">
        <ele>111.17</ele>
        <time>2018-09-19T14:27:54Z</time>
      </trkpt>
      <trkpt lat="50.052600000053644" lon="8.265401003882289">
        <ele>113.56999999999999</ele>
        <time>2018-09-19T14:28:03Z</time>
      </trkpt>
      <trkpt lat="50.052265981212258" lon="8.269866965711117">
        <ele>116.45999999999999</ele>
        <time>2018-09-19T14:28:15Z</time>
      </trkpt>
      <trkpt lat="50.051897009834647" lon="8.274070993065834">
        <ele>121.73999999999999</ele>
        <time>2018-09-19T14:28:26Z</time>
      </trkpt>
      <trkpt lat="50.051340032368898" lon="8.279038025066257">
        <ele>128.47</ele>
        <time>2018-09-19T14:28:37Z</time>
      </trkpt>
      <trkpt lat="50.050513995811343" lon="8.284657001495361">
        <ele>130.88</ele>
        <time>2018-09-19T14:28:49Z</time>
      </trkpt>
      <trkpt lat="50.049979984760284" lon="8.289291020482779">
        <ele>132.31999999999999</ele>
        <time>2018-09-19T14:28:59Z</time>
      </trkpt>
      <trkpt lat="50.049828020855784" lon="8.292848970741034">
        <ele>134.72</ele>
        <time>2018-09-19T14:29:07Z</time>
      </trkpt>
      <trkpt lat="50.049817962571979" lon="8.293280974030495">
        <ele>135.19999999999999</ele>
        <time>2018-09-19T14:29:08Z</time>
      </trkpt>
      <trkpt lat="50.049830032512546" lon="8.298372980207205">
        <ele>139.53</ele>
        <time>2018-09-19T14:29:20Z</time>
      </trkpt>
      <trkpt lat="50.050366977229714" lon="8.301407983526588">
        <ele>141.93000000000001</ele>
        <time>2018-09-19T14:29:28Z</time>
      </trkpt>
      <trkpt lat="50.051182033494115" lon="8.303802022710443">
        <ele>143.84999999999999</ele>
        <time>2018-09-19T14:29:35Z</time>
      </trkpt>
      <trkpt lat="50.052909962832928" lon="8.307343041524291">
        <ele>144.81999999999999</ele>
        <time>2018-09-19T14:29:46Z</time>
      </trkpt>
      <trkpt lat="50.054682986810803" lon="8.311398960649967">
        <ele>145.78</ele>
        <time>2018-09-19T14:29:58Z</time>
      </trkpt>
      <trkpt lat="50.055545987561345" lon="8.31430203281343">
        <ele>146.25999999999999</ele>
        <time>2018-09-19T14:30:06Z</time>
      </trkpt>
      <trkpt lat="50.055975979194045" lon="8.317584972828627">
        <ele>144.81999999999999</ele>
        <time>2018-09-19T14:30:14Z</time>
      </trkpt>
      <trkpt lat="50.055914036929607" lon="8.321062037721276">
        <ele>145.78</ele>
        <time>2018-09-19T14:30:22Z</time>
      </trkpt>
      <trkpt lat="50.05575000308454" lon="8.326887963339686">
        <ele>143.84999999999999</ele>
        <time>2018-09-19T14:30:35Z</time>
      </trkpt>
      <trkpt lat="50.055739022791386" lon="8.332987977191806">
        <ele>141.44999999999999</ele>
        <time>2018-09-19T14:30:48Z</time>
      </trkpt>
      <trkpt lat="50.05572896450758" lon="8.338889004662633">
        <ele>140.00999999999999</ele>
        <time>2018-09-19T14:31:00Z</time>
      </trkpt>
      <trkpt lat="50.05570700392127" lon="8.342715008184314">
        <ele>139.53</ele>
        <time>2018-09-19T14:31:08Z</time>
      </trkpt>
      <trkpt lat="50.055675990879536" lon="8.348457030951977">
        <ele>135.19999999999999</ele>
        <time>2018-09-19T14:31:19Z</time>
      </trkpt>
      <trkpt lat="50.055658975616097" lon="8.355172025039792">
        <ele>137.61000000000001</ele>
        <time>2018-09-19T14:31:31Z</time>
      </trkpt>
      <trkpt lat="50.05564296618104" lon="8.361446969211102">
        <ele>139.05000000000001</ele>
        <time>2018-09-19T14:31:43Z</time>
      </trkpt>
      <trkpt lat="50.05564296618104" lon="8.36848801933229">
        <ele>137.61000000000001</ele>
        <time>2018-09-19T14:31:56Z</time>
      </trkpt>
      <trkpt lat="50.05562100559473" lon="8.373763002455235">
        <ele>134.24000000000001</ele>
        <time>2018-09-19T14:32:06Z</time>
      </trkpt>
      <trkpt lat="50.055615976452827" lon="8.378385035321116">
        <ele>132.31999999999999</ele>
        <time>2018-09-19T14:32:16Z</time>
      </trkpt>
      <trkpt lat="50.05559996701777" lon="8.382179019972682">
        <ele>137.13</ele>
        <time>2018-09-19T14:32:26Z</time>
      </trkpt>
      <trkpt lat="50.05559996701777" lon="8.385701011866331">
        <ele>146.25999999999999</ele>
        <time>2018-09-19T14:32:36Z</time>
      </trkpt>
      <trkpt lat="50.05559996701777" lon="8.387274965643883">
        <ele>148.66</ele>
        <time>2018-09-19T14:32:43Z</time>
      </trkpt>
      <trkpt lat="50.05559996701777" lon="8.388210972771049">
        <ele>148.66</ele>
        <time>2018-09-19T14:32:47Z</time>
      </trkpt>
      <trkpt lat="50.05559996701777" lon="8.388468967750669">
        <ele>149.13999999999999</ele>
        <time>2018-09-19T14:32:48Z</time>
      </trkpt>
      <trkpt lat="50.05557800643146" lon="8.390457993373275">
        <ele>151.06</ele>
        <time>2018-09-19T14:32:55Z</time>
      </trkpt>
      <trkpt lat="50.0555569678545" lon="8.393499031662941">
        <ele>151.06</ele>
        <time>2018-09-19T14:33:03Z</time>
      </trkpt>
      <trkpt lat="50.055512962862849" lon="8.398328013718128">
        <ele>145.30000000000001</ele>
        <time>2018-09-19T14:33:15Z</time>
      </trkpt>
      <trkpt lat="50.055493013933301" lon="8.402450988069177">
        <ele>146.74000000000001</ele>
        <time>2018-09-19T14:33:24Z</time>
      </trkpt>
      <trkpt lat="50.055483039468527" lon="8.406857019290328">
        <ele>149.13999999999999</ele>
        <time>2018-09-19T14:33:33Z</time>
      </trkpt>
      <trkpt lat="50.055450014770031" lon="8.414020026102662">
        <ele>150.58000000000001</ele>
        <time>2018-09-19T14:33:45Z</time>
      </trkpt>
      <trkpt lat="50.055430987849832" lon="8.421135004609823">
        <ele>145.78</ele>
        <time>2018-09-19T14:33:56Z</time>
      </trkpt>
      <trkpt lat="50.055397963151336" lon="8.428745018318296">
        <ele>131.84</ele>
        <time>2018-09-19T14:34:07Z</time>
      </trkpt>
      <trkpt lat="50.055347001180053" lon="8.43760896474123">
        <ele>124.63</ele>
        <time>2018-09-19T14:34:20Z</time>
      </trkpt>
      <trkpt lat="50.055122030898929" lon="8.441562037914991">
        <ele>121.26000000000001</ele>
        <time>2018-09-19T14:34:26Z</time>
      </trkpt>
      <trkpt lat="50.055060004815459" lon="8.444613972678781">
        <ele>118.86</ele>
        <time>2018-09-19T14:34:31Z</time>
      </trkpt>
      <trkpt lat="50.055645983666182" lon="8.44744797796011">
        <ele>117.90000000000001</ele>
        <time>2018-09-19T14:34:36Z</time>
      </trkpt>
      <trkpt lat="50.056778965517879" lon="8.449825001880527">
        <ele>115.5</ele>
        <time>2018-09-19T14:34:41Z</time>
      </trkpt>
      <trkpt lat="50.058597000315785" lon="8.452478963881731">
        <ele>116.45999999999999</ele>
        <time>2018-09-19T14:34:48Z</time>
      </trkpt>
      <trkpt lat="50.062478994950652" lon="8.458057958632708">
        <ele>121.26000000000001</ele>
        <time>2018-09-19T14:34:59Z</time>
      </trkpt>
      <trkpt lat="50.064137019217014" lon="8.460605973377824">
        <ele>120.78</ele>
        <time>2018-09-19T14:35:05Z</time>
      </trkpt>
      <trkpt lat="50.065724970772862" lon="8.463335037231445">
        <ele>120.3</ele>
        <time>2018-09-19T14:35:12Z</time>
      </trkpt>
      <trkpt lat="50.067037995904684" lon="8.465833012014628">
        <ele>119.34</ele>
        <time>2018-09-19T14:35:20Z</time>
      </trkpt>
      <trkpt lat="50.067917006090283" lon="8.467476032674313">
        <ele>115.98</ele>
        <time>2018-09-19T14:35:27Z</time>
      </trkpt>
      <trkpt lat="50.068003004416823" lon="8.467677030712366">
        <ele>115.5</ele>
        <time>2018-09-19T14:35:28Z</time>
      </trkpt>
      <trkpt lat="50.068050026893616" lon="8.46788196824491">
        <ele>115.5</ele>
        <time>2018-09-19T14:35:29Z</time>
      </trkpt>
      <trkpt lat="50.068058995530009" lon="8.468095036223531">
        <ele>115.5</ele>
        <time>2018-09-19T14:35:30Z</time>
      </trkpt>
      <trkpt lat="50.06806100718677" lon="8.468298967927694">
        <ele>115.98</ele>
        <time>2018-09-19T14:35:31Z</time>
      </trkpt>
      <trkpt lat="50.068021025508642" lon="8.468497032299638">
        <ele>116.45999999999999</ele>
        <time>2018-09-19T14:35:32Z</time>
      </trkpt>
      <trkpt lat="50.067967968061566" lon="8.468677997589111">
        <ele>116.45999999999999</ele>
        <time>2018-09-19T14:35:33Z</time>
      </trkpt>
      <trkpt lat="50.067903008311987" lon="8.468840019777417">
        <ele>116.94</ele>
        <time>2018-09-19T14:35:34Z</time>
      </trkpt>
      <trkpt lat="50.067822961136699" lon="8.468969017267227">
        <ele>116.94</ele>
        <time>2018-09-19T14:35:35Z</time>
      </trkpt>
      <trkpt lat="50.067735034972429" lon="8.469067001715303">
        <ele>117.42</ele>
        <time>2018-09-19T14:35:36Z</time>
      </trkpt>
      <trkpt lat="50.067641995847225" lon="8.4691690094769">
        <ele>116.94</ele>
        <time>2018-09-19T14:35:37Z</time>
      </trkpt>
      <trkpt lat="50.067538982257247" lon="8.469281997531653">
        <ele>116.94</ele>
        <time>2018-09-19T14:35:38Z</time>
      </trkpt>
      <trkpt lat="50.067427000030875" lon="8.469400014728308">
        <ele>116.45999999999999</ele>
        <time>2018-09-19T14:35:39Z</time>
      </trkpt>
      <trkpt lat="50.066246995702386" lon="8.470327975228429">
        <ele>109.73</ele>
        <time>2018-09-19T14:35:49Z</time>
      </trkpt>
      <trkpt lat="50.065465969964862" lon="8.470959970727563">
        <ele>106.36</ele>
        <time>2018-09-19T14:35:58Z</time>
      </trkpt>
      <trkpt lat="50.065372008830309" lon="8.47103800624609">
        <ele>106.36</ele>
        <time>2018-09-19T14:36:00Z</time>
      </trkpt>
      <trkpt lat="50.065320041030645" lon="8.47108100540936">
        <ele>106.36</ele>
        <time>2018-09-19T14:36:01Z</time>
      </trkpt>
      <trkpt lat="50.065333032980561" lon="8.471130961552262">
        <ele>106.84</ele>
        <time>2018-09-19T14:36:02Z</time>
      </trkpt>
      <trkpt lat="50.065351976081729" lon="8.471203967928886">
        <ele>106.84</ele>
        <time>2018-09-19T14:36:03Z</time>
      </trkpt>
      <trkpt lat="50.065378965809941" lon="8.471306981518865">
        <ele>106.84</ele>
        <time>2018-09-19T14:36:04Z</time>
      </trkpt>
      <trkpt lat="50.065410984680057" lon="8.471429022029042">
        <ele>106.84</ele>
        <time>2018-09-19T14:36:05Z</time>
      </trkpt>
      <trkpt lat="50.065748021006584" lon="8.472706004977226">
        <ele>106.36</ele>
        <time>2018-09-19T14:36:12Z</time>
      </trkpt>
      <trkpt lat="50.066122021526098" lon="8.473952980712056">
        <ele>106.36</ele>
        <time>2018-09-19T14:36:20Z</time>
      </trkpt>
      <trkpt lat="50.066341962665319" lon="8.474686983972788">
        <ele>106.36</ele>
        <time>2018-09-19T14:36:26Z</time>
      </trkpt>
      <trkpt lat="50.066367024555802" lon="8.474772982299328">
        <ele>106.84</ele>
        <time>2018-09-19T14:36:27Z</time>
      </trkpt>
      <trkpt lat="50.066373981535435" lon="8.474944978952408">
        <ele>106.84</ele>
        <time>2018-09-19T14:36:30Z</time>
      </trkpt>
      <trkpt lat="50.066392002627254" lon="8.475087974220514">
        <ele>106.36</ele>
        <time>2018-09-19T14:36:31Z</time>
      </trkpt>
      <trkpt lat="50.066459979861975" lon="8.475104989483953">
        <ele>106.84</ele>
        <time>2018-09-19T14:36:32Z</time>
      </trkpt>
      <trkpt lat="50.066543966531754" lon="8.475155029445887">
        <ele>106.36</ele>
        <time>2018-09-19T14:36:33Z</time>
      </trkpt>
      <trkpt lat="50.066591994836926" lon="8.475240021944046">
        <ele>106.36</ele>
        <time>2018-09-19T14:36:34Z</time>
      </trkpt>
      <trkpt lat="50.066647985950112" lon="8.475337000563741">
        <ele>105.88</ele>
        <time>2018-09-19T14:36:35Z</time>
      </trkpt>
      <trkpt lat="50.066711017861962" lon="8.475447976961732">
        <ele>105.88</ele>
        <time>2018-09-19T14:36:36Z</time>
      </trkpt>
      <trkpt lat="50.066780000925064" lon="8.475569011643529">
        <ele>106.36</ele>
        <time>2018-09-19T14:36:37Z</time>
      </trkpt>
      <trkpt lat="50.066850995644927" lon="8.475693985819817">
        <ele>105.88</ele>
        <time>2018-09-19T14:36:38Z</time>
      </trkpt>
      <trkpt lat="50.066918972879648" lon="8.475815020501614">
        <ele>105.88</ele>
        <time>2018-09-19T14:36:39Z</time>
      </trkpt>
      <trkpt lat="50.067604025825858" lon="8.477326026186347">
        <ele>104.92</ele>
        <time>2018-09-19T14:36:51Z</time>
      </trkpt>
      <trkpt lat="50.067876018583775" lon="8.477995991706848">
        <ele>103.95999999999999</ele>
        <time>2018-09-19T14:36:57Z</time>
      </trkpt>
      <trkpt lat="50.067956987768412" lon="8.478194978088141">
        <ele>103.95999999999999</ele>
        <time>2018-09-19T14:36:59Z</time>
      </trkpt>
      <trkpt lat="50.067995963618159" lon="8.478291034698486">
        <ele>103.95999999999999</ele>
        <time>2018-09-19T14:37:00Z</time>
      </trkpt>
      <trkpt lat="50.068095959722996" lon="8.478536959737539">
        <ele>104.44</ele>
        <time>2018-09-19T14:37:03Z</time>
      </trkpt>
      <trkpt lat="50.068122027441859" lon="8.478603009134531">
        <ele>104.44</ele>
        <time>2018-09-19T14:37:04Z</time>
      </trkpt>
      <trkpt lat="50.068153040483594" lon="8.478677021339536">
        <ele>104.44</ele>
        <time>2018-09-19T14:37:05Z</time>
      </trkpt>
      <trkpt lat="50.068184975534678" lon="8.478624969720841">
        <ele>104.44</ele>
        <time>2018-09-19T14:37:06Z</time>
      </trkpt>
      <trkpt lat="50.06821196526289" lon="8.478581970557571">
        <ele>104.44</ele>
        <time>2018-09-19T14:37:07Z</time>
      </trkpt>
      <trkpt lat="50.068242978304625" lon="8.478533020243049">
        <ele>103.95999999999999</ele>
        <time>2018-09-19T14:37:08Z</time>
      </trkpt>
      <trkpt lat="50.068273991346359" lon="8.478482980281115">
        <ele>104.44</ele>
        <time>2018-09-19T14:37:09Z</time>
      </trkpt>
      <trkpt lat="50.068303998559713" lon="8.478434029966593">
        <ele>104.44</ele>
        <time>2018-09-19T14:37:10Z</time>
      </trkpt>
      <trkpt lat="50.068473983556032" lon="8.478162037208676">
        <ele>103.95999999999999</ele>
        <time>2018-09-19T14:37:15Z</time>
      </trkpt>
      <trkpt lat="50.068473983556032" lon="8.478162037208676">
        <ele>103.95999999999999</ele>
        <time>2018-09-19T14:37:16Z</time>
      </trkpt>
      <trkpt lat="50.068473983556032" lon="8.478162037208676">
        <ele>103.95999999999999</ele>
        <time>2018-09-19T14:37:17Z</time>
      </trkpt>
      <trkpt lat="50.068473983556032" lon="8.478162037208676">
        <ele>104.44</ele>
        <time>2018-09-19T14:37:18Z</time>
      </trkpt>
      <trkpt lat="50.068473983556032" lon="8.478162037208676">
        <ele>104.92</ele>
        <time>2018-09-19T14:37:30Z</time>
      </trkpt>
      <trkpt lat="50.068473983556032" lon="8.478162037208676">
        <ele>105.40000000000001</ele>
        <time>2018-09-19T14:38:17Z</time>
      </trkpt>
      <trkpt lat="50.068473983556032" lon="8.478162037208676">
        <ele>105.40000000000001</ele>
        <time>2018-09-19T14:38:35Z</time>
      </trkpt>
    </trkseg>
  </trk>

</gpx>